<?xml version="1.0" encoding="UTF-8" standalone="no" ?>
<gpx xmlns="http://www.topografix.com/GPX/1/1" xmlns:xsi="http://www.w3.org/2001/XMLSchema-instance" xsi:schemaLocation="http://www.topografix.com/GPX/1/1 http://www.topografix.com/GPX/1/1/gpx.xsd" version="1.1" creator="VisuGPX - https://www.visugpx.com">
  <metadata>
    <name>Saint André le Gaz depuis Mozas</name>
  </metadata>
  <trk>
    <name><![CDATA[Saint André le Gaz depuis Mozas_1]]></name>
    <trkseg>
      <trkpt lat="45.61495" lon="5.27467">
        <ele>223</ele>
        <time>2021-04-03T11:45:30.585Z</time>
      </trkpt>
      <trkpt lat="45.61495" lon="5.27467">
        <ele>223</ele>
        <time>2021-04-03T11:45:31.587Z</time>
      </trkpt>
      <trkpt lat="45.61496" lon="5.27467">
        <ele>223</ele>
        <time>2021-04-03T11:45:32.588Z</time>
      </trkpt>
      <trkpt lat="45.61496" lon="5.27467">
        <ele>223</ele>
        <time>2021-04-03T11:45:33.588Z</time>
      </trkpt>
      <trkpt lat="45.61496" lon="5.27467">
        <ele>223</ele>
        <time>2021-04-03T11:45:34.588Z</time>
      </trkpt>
      <trkpt lat="45.61497" lon="5.27466">
        <ele>224</ele>
        <time>2021-04-03T11:45:35.588Z</time>
      </trkpt>
      <trkpt lat="45.61496" lon="5.27465">
        <ele>224</ele>
        <time>2021-04-03T11:45:36.588Z</time>
      </trkpt>
      <trkpt lat="45.61496" lon="5.27465">
        <ele>224</ele>
        <time>2021-04-03T11:45:37.588Z</time>
      </trkpt>
      <trkpt lat="45.61496" lon="5.27465">
        <ele>225</ele>
        <time>2021-04-03T11:45:38.588Z</time>
      </trkpt>
      <trkpt lat="45.61496" lon="5.27465">
        <ele>225</ele>
        <time>2021-04-03T11:45:39.588Z</time>
      </trkpt>
      <trkpt lat="45.61496" lon="5.27465">
        <ele>225</ele>
        <time>2021-04-03T11:45:40.588Z</time>
      </trkpt>
      <trkpt lat="45.61496" lon="5.27465">
        <ele>225</ele>
        <time>2021-04-03T11:45:41.588Z</time>
      </trkpt>
      <trkpt lat="45.61496" lon="5.27465">
        <ele>226</ele>
        <time>2021-04-03T11:45:42.588Z</time>
      </trkpt>
      <trkpt lat="45.61496" lon="5.27465">
        <ele>226</ele>
        <time>2021-04-03T11:45:43.588Z</time>
      </trkpt>
      <trkpt lat="45.61496" lon="5.27465">
        <ele>226</ele>
        <time>2021-04-03T11:45:44.588Z</time>
      </trkpt>
      <trkpt lat="45.61496" lon="5.27465">
        <ele>226</ele>
        <time>2021-04-03T11:45:45.588Z</time>
      </trkpt>
      <trkpt lat="45.61496" lon="5.27465">
        <ele>227</ele>
        <time>2021-04-03T11:45:46.587Z</time>
      </trkpt>
      <trkpt lat="45.61496" lon="5.27465">
        <ele>227</ele>
        <time>2021-04-03T11:45:47.588Z</time>
      </trkpt>
      <trkpt lat="45.61497" lon="5.27465">
        <ele>227</ele>
        <time>2021-04-03T11:45:48.587Z</time>
      </trkpt>
      <trkpt lat="45.61498" lon="5.27465">
        <ele>227</ele>
        <time>2021-04-03T11:45:49.588Z</time>
      </trkpt>
      <trkpt lat="45.615" lon="5.27465">
        <ele>227</ele>
        <time>2021-04-03T11:45:50.588Z</time>
      </trkpt>
      <trkpt lat="45.61501" lon="5.27465">
        <ele>227</ele>
        <time>2021-04-03T11:45:51.587Z</time>
      </trkpt>
      <trkpt lat="45.61503" lon="5.27465">
        <ele>227</ele>
        <time>2021-04-03T11:45:52.588Z</time>
      </trkpt>
      <trkpt lat="45.61505" lon="5.27466">
        <ele>226</ele>
        <time>2021-04-03T11:45:53.588Z</time>
      </trkpt>
      <trkpt lat="45.61507" lon="5.27466">
        <ele>226</ele>
        <time>2021-04-03T11:45:54.587Z</time>
      </trkpt>
      <trkpt lat="45.6151" lon="5.27467">
        <ele>226</ele>
        <time>2021-04-03T11:45:55.587Z</time>
      </trkpt>
      <trkpt lat="45.61514" lon="5.27469">
        <ele>227</ele>
        <time>2021-04-03T11:45:56.588Z</time>
      </trkpt>
      <trkpt lat="45.61517" lon="5.2747">
        <ele>226</ele>
        <time>2021-04-03T11:45:57.587Z</time>
      </trkpt>
      <trkpt lat="45.6152" lon="5.27471">
        <ele>226</ele>
        <time>2021-04-03T11:45:58.587Z</time>
      </trkpt>
      <trkpt lat="45.61523" lon="5.27472">
        <ele>226</ele>
        <time>2021-04-03T11:45:59.588Z</time>
      </trkpt>
      <trkpt lat="45.61526" lon="5.27474">
        <ele>226</ele>
        <time>2021-04-03T11:46:00.587Z</time>
      </trkpt>
      <trkpt lat="45.61529" lon="5.27475">
        <ele>225</ele>
        <time>2021-04-03T11:46:01.588Z</time>
      </trkpt>
      <trkpt lat="45.61531" lon="5.27476">
        <ele>225</ele>
        <time>2021-04-03T11:46:02.588Z</time>
      </trkpt>
      <trkpt lat="45.61534" lon="5.27477">
        <ele>225</ele>
        <time>2021-04-03T11:46:03.587Z</time>
      </trkpt>
      <trkpt lat="45.61536" lon="5.27479">
        <ele>224</ele>
        <time>2021-04-03T11:46:04.587Z</time>
      </trkpt>
      <trkpt lat="45.61538" lon="5.27481">
        <ele>224</ele>
        <time>2021-04-03T11:46:05.588Z</time>
      </trkpt>
      <trkpt lat="45.6154" lon="5.27484">
        <ele>224</ele>
        <time>2021-04-03T11:46:06.588Z</time>
      </trkpt>
      <trkpt lat="45.61541" lon="5.27487">
        <ele>224</ele>
        <time>2021-04-03T11:46:07.587Z</time>
      </trkpt>
      <trkpt lat="45.61541" lon="5.27491">
        <ele>224</ele>
        <time>2021-04-03T11:46:08.588Z</time>
      </trkpt>
      <trkpt lat="45.61541" lon="5.27495">
        <ele>224</ele>
        <time>2021-04-03T11:46:09.588Z</time>
      </trkpt>
      <trkpt lat="45.61541" lon="5.275">
        <ele>224</ele>
        <time>2021-04-03T11:46:10.588Z</time>
      </trkpt>
      <trkpt lat="45.6154" lon="5.27504">
        <ele>224</ele>
        <time>2021-04-03T11:46:11.587Z</time>
      </trkpt>
      <trkpt lat="45.6154" lon="5.27508">
        <ele>224</ele>
        <time>2021-04-03T11:46:12.587Z</time>
      </trkpt>
      <trkpt lat="45.61539" lon="5.27511">
        <ele>224</ele>
        <time>2021-04-03T11:46:13.587Z</time>
      </trkpt>
      <trkpt lat="45.61539" lon="5.27515">
        <ele>224</ele>
        <time>2021-04-03T11:46:14.587Z</time>
      </trkpt>
      <trkpt lat="45.61538" lon="5.27519">
        <ele>225</ele>
        <time>2021-04-03T11:46:15.588Z</time>
      </trkpt>
      <trkpt lat="45.61537" lon="5.27523">
        <ele>225</ele>
        <time>2021-04-03T11:46:16.588Z</time>
      </trkpt>
      <trkpt lat="45.61536" lon="5.27527">
        <ele>225</ele>
        <time>2021-04-03T11:46:17.587Z</time>
      </trkpt>
      <trkpt lat="45.61536" lon="5.27531">
        <ele>225</ele>
        <time>2021-04-03T11:46:18.588Z</time>
      </trkpt>
      <trkpt lat="45.61535" lon="5.27534">
        <ele>226</ele>
        <time>2021-04-03T11:46:19.587Z</time>
      </trkpt>
      <trkpt lat="45.61536" lon="5.27537">
        <ele>226</ele>
        <time>2021-04-03T11:46:20.588Z</time>
      </trkpt>
      <trkpt lat="45.61535" lon="5.2754">
        <ele>226</ele>
        <time>2021-04-03T11:46:21.587Z</time>
      </trkpt>
      <trkpt lat="45.61534" lon="5.27543">
        <ele>227</ele>
        <time>2021-04-03T11:46:22.587Z</time>
      </trkpt>
      <trkpt lat="45.61533" lon="5.27546">
        <ele>227</ele>
        <time>2021-04-03T11:46:23.587Z</time>
      </trkpt>
      <trkpt lat="45.61532" lon="5.27548">
        <ele>227</ele>
        <time>2021-04-03T11:46:24.588Z</time>
      </trkpt>
      <trkpt lat="45.6153" lon="5.27551">
        <ele>227</ele>
        <time>2021-04-03T11:46:25.588Z</time>
      </trkpt>
      <trkpt lat="45.61529" lon="5.27554">
        <ele>227</ele>
        <time>2021-04-03T11:46:26.588Z</time>
      </trkpt>
      <trkpt lat="45.61528" lon="5.27556">
        <ele>227</ele>
        <time>2021-04-03T11:46:27.588Z</time>
      </trkpt>
      <trkpt lat="45.61526" lon="5.27559">
        <ele>227</ele>
        <time>2021-04-03T11:46:28.588Z</time>
      </trkpt>
      <trkpt lat="45.61525" lon="5.27561">
        <ele>227</ele>
        <time>2021-04-03T11:46:29.587Z</time>
      </trkpt>
      <trkpt lat="45.61524" lon="5.27563">
        <ele>227</ele>
        <time>2021-04-03T11:46:30.587Z</time>
      </trkpt>
      <trkpt lat="45.61523" lon="5.27566">
        <ele>227</ele>
        <time>2021-04-03T11:46:31.588Z</time>
      </trkpt>
      <trkpt lat="45.61522" lon="5.27569">
        <ele>227</ele>
        <time>2021-04-03T11:46:32.587Z</time>
      </trkpt>
      <trkpt lat="45.61522" lon="5.27572">
        <ele>227</ele>
        <time>2021-04-03T11:46:33.588Z</time>
      </trkpt>
      <trkpt lat="45.61522" lon="5.27576">
        <ele>227</ele>
        <time>2021-04-03T11:46:34.588Z</time>
      </trkpt>
      <trkpt lat="45.61522" lon="5.27579">
        <ele>227</ele>
        <time>2021-04-03T11:46:35.588Z</time>
      </trkpt>
      <trkpt lat="45.61523" lon="5.27582">
        <ele>227</ele>
        <time>2021-04-03T11:46:36.587Z</time>
      </trkpt>
      <trkpt lat="45.61523" lon="5.27585">
        <ele>228</ele>
        <time>2021-04-03T11:46:37.588Z</time>
      </trkpt>
      <trkpt lat="45.61524" lon="5.27589">
        <ele>228</ele>
        <time>2021-04-03T11:46:38.587Z</time>
      </trkpt>
      <trkpt lat="45.61524" lon="5.27592">
        <ele>228</ele>
        <time>2021-04-03T11:46:39.587Z</time>
      </trkpt>
      <trkpt lat="45.61525" lon="5.27596">
        <ele>228</ele>
        <time>2021-04-03T11:46:40.588Z</time>
      </trkpt>
      <trkpt lat="45.61526" lon="5.276">
        <ele>229</ele>
        <time>2021-04-03T11:46:41.587Z</time>
      </trkpt>
      <trkpt lat="45.61526" lon="5.27604">
        <ele>229</ele>
        <time>2021-04-03T11:46:42.588Z</time>
      </trkpt>
      <trkpt lat="45.61525" lon="5.27608">
        <ele>229</ele>
        <time>2021-04-03T11:46:43.587Z</time>
      </trkpt>
      <trkpt lat="45.61525" lon="5.27612">
        <ele>229</ele>
        <time>2021-04-03T11:46:44.588Z</time>
      </trkpt>
      <trkpt lat="45.61525" lon="5.27615">
        <ele>230</ele>
        <time>2021-04-03T11:46:45.588Z</time>
      </trkpt>
      <trkpt lat="45.61524" lon="5.27619">
        <ele>230</ele>
        <time>2021-04-03T11:46:46.588Z</time>
      </trkpt>
      <trkpt lat="45.61524" lon="5.27622">
        <ele>230</ele>
        <time>2021-04-03T11:46:47.588Z</time>
      </trkpt>
      <trkpt lat="45.61523" lon="5.27625">
        <ele>230</ele>
        <time>2021-04-03T11:46:48.587Z</time>
      </trkpt>
      <trkpt lat="45.61522" lon="5.27629">
        <ele>230</ele>
        <time>2021-04-03T11:46:49.587Z</time>
      </trkpt>
      <trkpt lat="45.6152" lon="5.27634">
        <ele>230</ele>
        <time>2021-04-03T11:46:50.588Z</time>
      </trkpt>
      <trkpt lat="45.61519" lon="5.27639">
        <ele>230</ele>
        <time>2021-04-03T11:46:51.587Z</time>
      </trkpt>
      <trkpt lat="45.61517" lon="5.27643">
        <ele>230</ele>
        <time>2021-04-03T11:46:52.588Z</time>
      </trkpt>
      <trkpt lat="45.61516" lon="5.27648">
        <ele>231</ele>
        <time>2021-04-03T11:46:53.588Z</time>
      </trkpt>
      <trkpt lat="45.61515" lon="5.27652">
        <ele>230</ele>
        <time>2021-04-03T11:46:54.587Z</time>
      </trkpt>
      <trkpt lat="45.61513" lon="5.27656">
        <ele>230</ele>
        <time>2021-04-03T11:46:55.588Z</time>
      </trkpt>
      <trkpt lat="45.61512" lon="5.2766">
        <ele>230</ele>
        <time>2021-04-03T11:46:56.588Z</time>
      </trkpt>
      <trkpt lat="45.61511" lon="5.27664">
        <ele>230</ele>
        <time>2021-04-03T11:46:57.588Z</time>
      </trkpt>
      <trkpt lat="45.6151" lon="5.27668">
        <ele>230</ele>
        <time>2021-04-03T11:46:58.588Z</time>
      </trkpt>
      <trkpt lat="45.61508" lon="5.27672">
        <ele>230</ele>
        <time>2021-04-03T11:46:59.588Z</time>
      </trkpt>
      <trkpt lat="45.61506" lon="5.27676">
        <ele>230</ele>
        <time>2021-04-03T11:47:00.588Z</time>
      </trkpt>
      <trkpt lat="45.61504" lon="5.27681">
        <ele>229</ele>
        <time>2021-04-03T11:47:01.588Z</time>
      </trkpt>
      <trkpt lat="45.61503" lon="5.27686">
        <ele>229</ele>
        <time>2021-04-03T11:47:02.587Z</time>
      </trkpt>
      <trkpt lat="45.61502" lon="5.2769">
        <ele>229</ele>
        <time>2021-04-03T11:47:03.588Z</time>
      </trkpt>
      <trkpt lat="45.61501" lon="5.27695">
        <ele>230</ele>
        <time>2021-04-03T11:47:04.587Z</time>
      </trkpt>
      <trkpt lat="45.615" lon="5.27699">
        <ele>230</ele>
        <time>2021-04-03T11:47:05.588Z</time>
      </trkpt>
      <trkpt lat="45.61499" lon="5.27703">
        <ele>230</ele>
        <time>2021-04-03T11:47:06.588Z</time>
      </trkpt>
      <trkpt lat="45.61498" lon="5.27707">
        <ele>230</ele>
        <time>2021-04-03T11:47:07.588Z</time>
      </trkpt>
      <trkpt lat="45.61497" lon="5.27711">
        <ele>231</ele>
        <time>2021-04-03T11:47:08.588Z</time>
      </trkpt>
      <trkpt lat="45.61496" lon="5.27716">
        <ele>230</ele>
        <time>2021-04-03T11:47:09.588Z</time>
      </trkpt>
      <trkpt lat="45.61495" lon="5.2772">
        <ele>230</ele>
        <time>2021-04-03T11:47:10.588Z</time>
      </trkpt>
      <trkpt lat="45.61493" lon="5.27724">
        <ele>230</ele>
        <time>2021-04-03T11:47:11.588Z</time>
      </trkpt>
      <trkpt lat="45.61492" lon="5.27728">
        <ele>230</ele>
        <time>2021-04-03T11:47:12.588Z</time>
      </trkpt>
      <trkpt lat="45.61491" lon="5.27733">
        <ele>230</ele>
        <time>2021-04-03T11:47:13.588Z</time>
      </trkpt>
      <trkpt lat="45.6149" lon="5.27737">
        <ele>230</ele>
        <time>2021-04-03T11:47:14.587Z</time>
      </trkpt>
      <trkpt lat="45.61489" lon="5.27742">
        <ele>230</ele>
        <time>2021-04-03T11:47:15.588Z</time>
      </trkpt>
      <trkpt lat="45.61487" lon="5.27746">
        <ele>230</ele>
        <time>2021-04-03T11:47:16.588Z</time>
      </trkpt>
      <trkpt lat="45.61485" lon="5.2775">
        <ele>230</ele>
        <time>2021-04-03T11:47:17.588Z</time>
      </trkpt>
      <trkpt lat="45.61483" lon="5.27754">
        <ele>230</ele>
        <time>2021-04-03T11:47:18.588Z</time>
      </trkpt>
      <trkpt lat="45.61481" lon="5.27759">
        <ele>230</ele>
        <time>2021-04-03T11:47:19.588Z</time>
      </trkpt>
      <trkpt lat="45.61479" lon="5.27763">
        <ele>231</ele>
        <time>2021-04-03T11:47:20.588Z</time>
      </trkpt>
      <trkpt lat="45.61478" lon="5.27767">
        <ele>231</ele>
        <time>2021-04-03T11:47:21.587Z</time>
      </trkpt>
      <trkpt lat="45.61476" lon="5.27771">
        <ele>231</ele>
        <time>2021-04-03T11:47:22.588Z</time>
      </trkpt>
      <trkpt lat="45.61475" lon="5.27775">
        <ele>231</ele>
        <time>2021-04-03T11:47:23.588Z</time>
      </trkpt>
      <trkpt lat="45.61474" lon="5.2778">
        <ele>230</ele>
        <time>2021-04-03T11:47:24.587Z</time>
      </trkpt>
      <trkpt lat="45.61472" lon="5.27784">
        <ele>230</ele>
        <time>2021-04-03T11:47:25.588Z</time>
      </trkpt>
      <trkpt lat="45.61471" lon="5.27788">
        <ele>230</ele>
        <time>2021-04-03T11:47:26.588Z</time>
      </trkpt>
      <trkpt lat="45.61469" lon="5.27793">
        <ele>230</ele>
        <time>2021-04-03T11:47:27.588Z</time>
      </trkpt>
      <trkpt lat="45.61468" lon="5.27798">
        <ele>230</ele>
        <time>2021-04-03T11:47:28.588Z</time>
      </trkpt>
      <trkpt lat="45.61467" lon="5.27802">
        <ele>230</ele>
        <time>2021-04-03T11:47:29.588Z</time>
      </trkpt>
      <trkpt lat="45.61466" lon="5.27807">
        <ele>230</ele>
        <time>2021-04-03T11:47:30.588Z</time>
      </trkpt>
      <trkpt lat="45.61465" lon="5.27812">
        <ele>230</ele>
        <time>2021-04-03T11:47:31.587Z</time>
      </trkpt>
      <trkpt lat="45.61464" lon="5.27816">
        <ele>230</ele>
        <time>2021-04-03T11:47:32.588Z</time>
      </trkpt>
      <trkpt lat="45.61463" lon="5.2782">
        <ele>230</ele>
        <time>2021-04-03T11:47:33.587Z</time>
      </trkpt>
      <trkpt lat="45.61462" lon="5.27825">
        <ele>229</ele>
        <time>2021-04-03T11:47:34.588Z</time>
      </trkpt>
      <trkpt lat="45.6146" lon="5.27829">
        <ele>229</ele>
        <time>2021-04-03T11:47:35.588Z</time>
      </trkpt>
      <trkpt lat="45.61459" lon="5.27833">
        <ele>229</ele>
        <time>2021-04-03T11:47:36.588Z</time>
      </trkpt>
      <trkpt lat="45.61459" lon="5.27837">
        <ele>229</ele>
        <time>2021-04-03T11:47:37.588Z</time>
      </trkpt>
      <trkpt lat="45.61458" lon="5.27841">
        <ele>229</ele>
        <time>2021-04-03T11:47:38.588Z</time>
      </trkpt>
      <trkpt lat="45.61457" lon="5.27845">
        <ele>229</ele>
        <time>2021-04-03T11:47:39.588Z</time>
      </trkpt>
      <trkpt lat="45.61456" lon="5.27849">
        <ele>229</ele>
        <time>2021-04-03T11:47:40.588Z</time>
      </trkpt>
      <trkpt lat="45.61454" lon="5.27854">
        <ele>229</ele>
        <time>2021-04-03T11:47:41.588Z</time>
      </trkpt>
      <trkpt lat="45.61453" lon="5.27858">
        <ele>230</ele>
        <time>2021-04-03T11:47:42.588Z</time>
      </trkpt>
      <trkpt lat="45.61452" lon="5.27862">
        <ele>230</ele>
        <time>2021-04-03T11:47:43.588Z</time>
      </trkpt>
      <trkpt lat="45.61451" lon="5.27866">
        <ele>231</ele>
        <time>2021-04-03T11:47:44.587Z</time>
      </trkpt>
      <trkpt lat="45.6145" lon="5.2787">
        <ele>231</ele>
        <time>2021-04-03T11:47:45.588Z</time>
      </trkpt>
      <trkpt lat="45.61449" lon="5.27874">
        <ele>231</ele>
        <time>2021-04-03T11:47:46.587Z</time>
      </trkpt>
      <trkpt lat="45.61449" lon="5.27879">
        <ele>232</ele>
        <time>2021-04-03T11:47:47.588Z</time>
      </trkpt>
      <trkpt lat="45.61448" lon="5.27883">
        <ele>232</ele>
        <time>2021-04-03T11:47:48.587Z</time>
      </trkpt>
      <trkpt lat="45.61447" lon="5.27888">
        <ele>233</ele>
        <time>2021-04-03T11:47:49.587Z</time>
      </trkpt>
      <trkpt lat="45.61446" lon="5.27892">
        <ele>233</ele>
        <time>2021-04-03T11:47:50.588Z</time>
      </trkpt>
      <trkpt lat="45.61446" lon="5.27896">
        <ele>234</ele>
        <time>2021-04-03T11:47:51.587Z</time>
      </trkpt>
      <trkpt lat="45.61446" lon="5.279">
        <ele>234</ele>
        <time>2021-04-03T11:47:52.588Z</time>
      </trkpt>
      <trkpt lat="45.61446" lon="5.27904">
        <ele>235</ele>
        <time>2021-04-03T11:47:53.587Z</time>
      </trkpt>
      <trkpt lat="45.61446" lon="5.27908">
        <ele>235</ele>
        <time>2021-04-03T11:47:54.587Z</time>
      </trkpt>
      <trkpt lat="45.61446" lon="5.27912">
        <ele>235</ele>
        <time>2021-04-03T11:47:55.588Z</time>
      </trkpt>
      <trkpt lat="45.61446" lon="5.27916">
        <ele>235</ele>
        <time>2021-04-03T11:47:56.588Z</time>
      </trkpt>
      <trkpt lat="45.61444" lon="5.27919">
        <ele>235</ele>
        <time>2021-04-03T11:47:57.588Z</time>
      </trkpt>
      <trkpt lat="45.61442" lon="5.27921">
        <ele>236</ele>
        <time>2021-04-03T11:47:58.587Z</time>
      </trkpt>
      <trkpt lat="45.6144" lon="5.27922">
        <ele>236</ele>
        <time>2021-04-03T11:47:59.588Z</time>
      </trkpt>
      <trkpt lat="45.61437" lon="5.27922">
        <ele>236</ele>
        <time>2021-04-03T11:48:00.588Z</time>
      </trkpt>
      <trkpt lat="45.61435" lon="5.27923">
        <ele>237</ele>
        <time>2021-04-03T11:48:01.587Z</time>
      </trkpt>
      <trkpt lat="45.61433" lon="5.27924">
        <ele>237</ele>
        <time>2021-04-03T11:48:02.588Z</time>
      </trkpt>
      <trkpt lat="45.6143" lon="5.27924">
        <ele>237</ele>
        <time>2021-04-03T11:48:03.588Z</time>
      </trkpt>
      <trkpt lat="45.61428" lon="5.27925">
        <ele>237</ele>
        <time>2021-04-03T11:48:04.588Z</time>
      </trkpt>
      <trkpt lat="45.61425" lon="5.27927">
        <ele>237</ele>
        <time>2021-04-03T11:48:05.588Z</time>
      </trkpt>
      <trkpt lat="45.61423" lon="5.27929">
        <ele>237</ele>
        <time>2021-04-03T11:48:06.588Z</time>
      </trkpt>
      <trkpt lat="45.6142" lon="5.27932">
        <ele>237</ele>
        <time>2021-04-03T11:48:07.588Z</time>
      </trkpt>
      <trkpt lat="45.61418" lon="5.27935">
        <ele>238</ele>
        <time>2021-04-03T11:48:08.587Z</time>
      </trkpt>
      <trkpt lat="45.61417" lon="5.27938">
        <ele>238</ele>
        <time>2021-04-03T11:48:09.588Z</time>
      </trkpt>
      <trkpt lat="45.61415" lon="5.27942">
        <ele>237</ele>
        <time>2021-04-03T11:48:10.588Z</time>
      </trkpt>
      <trkpt lat="45.61413" lon="5.27946">
        <ele>237</ele>
        <time>2021-04-03T11:48:11.588Z</time>
      </trkpt>
      <trkpt lat="45.61411" lon="5.2795">
        <ele>237</ele>
        <time>2021-04-03T11:48:12.588Z</time>
      </trkpt>
      <trkpt lat="45.61409" lon="5.27953">
        <ele>237</ele>
        <time>2021-04-03T11:48:13.587Z</time>
      </trkpt>
      <trkpt lat="45.61408" lon="5.27957">
        <ele>237</ele>
        <time>2021-04-03T11:48:14.587Z</time>
      </trkpt>
      <trkpt lat="45.61406" lon="5.27961">
        <ele>237</ele>
        <time>2021-04-03T11:48:15.588Z</time>
      </trkpt>
      <trkpt lat="45.61405" lon="5.27964">
        <ele>237</ele>
        <time>2021-04-03T11:48:16.588Z</time>
      </trkpt>
      <trkpt lat="45.61403" lon="5.27968">
        <ele>237</ele>
        <time>2021-04-03T11:48:17.588Z</time>
      </trkpt>
      <trkpt lat="45.61401" lon="5.27972">
        <ele>237</ele>
        <time>2021-04-03T11:48:18.588Z</time>
      </trkpt>
      <trkpt lat="45.614" lon="5.27976">
        <ele>236</ele>
        <time>2021-04-03T11:48:19.587Z</time>
      </trkpt>
      <trkpt lat="45.61398" lon="5.2798">
        <ele>236</ele>
        <time>2021-04-03T11:48:20.588Z</time>
      </trkpt>
      <trkpt lat="45.61397" lon="5.27984">
        <ele>236</ele>
        <time>2021-04-03T11:48:21.588Z</time>
      </trkpt>
      <trkpt lat="45.61395" lon="5.27988">
        <ele>236</ele>
        <time>2021-04-03T11:48:22.588Z</time>
      </trkpt>
      <trkpt lat="45.61394" lon="5.27992">
        <ele>236</ele>
        <time>2021-04-03T11:48:23.587Z</time>
      </trkpt>
      <trkpt lat="45.61393" lon="5.27996">
        <ele>236</ele>
        <time>2021-04-03T11:48:24.588Z</time>
      </trkpt>
      <trkpt lat="45.61392" lon="5.28001">
        <ele>236</ele>
        <time>2021-04-03T11:48:25.588Z</time>
      </trkpt>
      <trkpt lat="45.6139" lon="5.28006">
        <ele>236</ele>
        <time>2021-04-03T11:48:26.588Z</time>
      </trkpt>
      <trkpt lat="45.6139" lon="5.2801">
        <ele>236</ele>
        <time>2021-04-03T11:48:27.588Z</time>
      </trkpt>
      <trkpt lat="45.6139" lon="5.28015">
        <ele>236</ele>
        <time>2021-04-03T11:48:28.588Z</time>
      </trkpt>
      <trkpt lat="45.61391" lon="5.28018">
        <ele>236</ele>
        <time>2021-04-03T11:48:29.587Z</time>
      </trkpt>
      <trkpt lat="45.61391" lon="5.28022">
        <ele>236</ele>
        <time>2021-04-03T11:48:30.588Z</time>
      </trkpt>
      <trkpt lat="45.61392" lon="5.28026">
        <ele>236</ele>
        <time>2021-04-03T11:48:31.588Z</time>
      </trkpt>
      <trkpt lat="45.61393" lon="5.2803">
        <ele>236</ele>
        <time>2021-04-03T11:48:32.588Z</time>
      </trkpt>
      <trkpt lat="45.61394" lon="5.28033">
        <ele>236</ele>
        <time>2021-04-03T11:48:33.588Z</time>
      </trkpt>
      <trkpt lat="45.61395" lon="5.28037">
        <ele>236</ele>
        <time>2021-04-03T11:48:34.587Z</time>
      </trkpt>
      <trkpt lat="45.61396" lon="5.28041">
        <ele>236</ele>
        <time>2021-04-03T11:48:35.587Z</time>
      </trkpt>
      <trkpt lat="45.61396" lon="5.28045">
        <ele>236</ele>
        <time>2021-04-03T11:48:36.588Z</time>
      </trkpt>
      <trkpt lat="45.61397" lon="5.28048">
        <ele>236</ele>
        <time>2021-04-03T11:48:37.587Z</time>
      </trkpt>
      <trkpt lat="45.61398" lon="5.28052">
        <ele>237</ele>
        <time>2021-04-03T11:48:38.587Z</time>
      </trkpt>
      <trkpt lat="45.61398" lon="5.28055">
        <ele>237</ele>
        <time>2021-04-03T11:48:39.587Z</time>
      </trkpt>
      <trkpt lat="45.61398" lon="5.28059">
        <ele>237</ele>
        <time>2021-04-03T11:48:40.588Z</time>
      </trkpt>
      <trkpt lat="45.61399" lon="5.28062">
        <ele>238</ele>
        <time>2021-04-03T11:48:41.588Z</time>
      </trkpt>
      <trkpt lat="45.61399" lon="5.28066">
        <ele>238</ele>
        <time>2021-04-03T11:48:42.588Z</time>
      </trkpt>
      <trkpt lat="45.61399" lon="5.2807">
        <ele>238</ele>
        <time>2021-04-03T11:48:43.588Z</time>
      </trkpt>
      <trkpt lat="45.61399" lon="5.28074">
        <ele>238</ele>
        <time>2021-04-03T11:48:44.587Z</time>
      </trkpt>
      <trkpt lat="45.614" lon="5.28077">
        <ele>239</ele>
        <time>2021-04-03T11:48:45.588Z</time>
      </trkpt>
      <trkpt lat="45.61399" lon="5.28081">
        <ele>239</ele>
        <time>2021-04-03T11:48:46.588Z</time>
      </trkpt>
      <trkpt lat="45.61399" lon="5.28084">
        <ele>239</ele>
        <time>2021-04-03T11:48:47.588Z</time>
      </trkpt>
      <trkpt lat="45.61399" lon="5.28087">
        <ele>239</ele>
        <time>2021-04-03T11:48:48.587Z</time>
      </trkpt>
      <trkpt lat="45.61399" lon="5.2809">
        <ele>240</ele>
        <time>2021-04-03T11:48:49.588Z</time>
      </trkpt>
      <trkpt lat="45.61399" lon="5.28092">
        <ele>241</ele>
        <time>2021-04-03T11:48:50.588Z</time>
      </trkpt>
      <trkpt lat="45.61399" lon="5.28094">
        <ele>241</ele>
        <time>2021-04-03T11:48:51.587Z</time>
      </trkpt>
      <trkpt lat="45.61399" lon="5.28097">
        <ele>242</ele>
        <time>2021-04-03T11:48:52.588Z</time>
      </trkpt>
      <trkpt lat="45.61399" lon="5.28099">
        <ele>242</ele>
        <time>2021-04-03T11:48:53.588Z</time>
      </trkpt>
      <trkpt lat="45.61398" lon="5.28102">
        <ele>243</ele>
        <time>2021-04-03T11:48:54.587Z</time>
      </trkpt>
      <trkpt lat="45.61398" lon="5.28105">
        <ele>243</ele>
        <time>2021-04-03T11:48:55.588Z</time>
      </trkpt>
      <trkpt lat="45.61398" lon="5.28109">
        <ele>244</ele>
        <time>2021-04-03T11:48:56.587Z</time>
      </trkpt>
      <trkpt lat="45.61398" lon="5.28112">
        <ele>244</ele>
        <time>2021-04-03T11:48:57.588Z</time>
      </trkpt>
      <trkpt lat="45.61398" lon="5.28116">
        <ele>244</ele>
        <time>2021-04-03T11:48:58.587Z</time>
      </trkpt>
      <trkpt lat="45.61397" lon="5.28121">
        <ele>245</ele>
        <time>2021-04-03T11:48:59.587Z</time>
      </trkpt>
      <trkpt lat="45.61397" lon="5.28125">
        <ele>245</ele>
        <time>2021-04-03T11:49:00.588Z</time>
      </trkpt>
      <trkpt lat="45.61397" lon="5.28129">
        <ele>245</ele>
        <time>2021-04-03T11:49:01.588Z</time>
      </trkpt>
      <trkpt lat="45.61396" lon="5.28133">
        <ele>245</ele>
        <time>2021-04-03T11:49:02.588Z</time>
      </trkpt>
      <trkpt lat="45.61396" lon="5.28137">
        <ele>245</ele>
        <time>2021-04-03T11:49:03.587Z</time>
      </trkpt>
      <trkpt lat="45.61395" lon="5.28141">
        <ele>245</ele>
        <time>2021-04-03T11:49:04.587Z</time>
      </trkpt>
      <trkpt lat="45.61395" lon="5.28145">
        <ele>245</ele>
        <time>2021-04-03T11:49:05.588Z</time>
      </trkpt>
      <trkpt lat="45.61395" lon="5.28149">
        <ele>245</ele>
        <time>2021-04-03T11:49:06.588Z</time>
      </trkpt>
      <trkpt lat="45.61395" lon="5.28154">
        <ele>245</ele>
        <time>2021-04-03T11:49:07.588Z</time>
      </trkpt>
      <trkpt lat="45.61395" lon="5.28157">
        <ele>246</ele>
        <time>2021-04-03T11:49:08.587Z</time>
      </trkpt>
      <trkpt lat="45.61395" lon="5.28161">
        <ele>246</ele>
        <time>2021-04-03T11:49:09.588Z</time>
      </trkpt>
      <trkpt lat="45.61394" lon="5.28164">
        <ele>247</ele>
        <time>2021-04-03T11:49:10.588Z</time>
      </trkpt>
      <trkpt lat="45.61394" lon="5.28168">
        <ele>247</ele>
        <time>2021-04-03T11:49:11.588Z</time>
      </trkpt>
      <trkpt lat="45.61394" lon="5.28172">
        <ele>248</ele>
        <time>2021-04-03T11:49:12.588Z</time>
      </trkpt>
      <trkpt lat="45.61394" lon="5.28176">
        <ele>248</ele>
        <time>2021-04-03T11:49:13.588Z</time>
      </trkpt>
      <trkpt lat="45.61394" lon="5.2818">
        <ele>248</ele>
        <time>2021-04-03T11:49:14.588Z</time>
      </trkpt>
      <trkpt lat="45.61393" lon="5.28184">
        <ele>248</ele>
        <time>2021-04-03T11:49:15.588Z</time>
      </trkpt>
      <trkpt lat="45.61392" lon="5.28189">
        <ele>248</ele>
        <time>2021-04-03T11:49:16.588Z</time>
      </trkpt>
      <trkpt lat="45.61391" lon="5.28194">
        <ele>248</ele>
        <time>2021-04-03T11:49:17.587Z</time>
      </trkpt>
      <trkpt lat="45.61391" lon="5.28198">
        <ele>248</ele>
        <time>2021-04-03T11:49:18.587Z</time>
      </trkpt>
      <trkpt lat="45.6139" lon="5.28201">
        <ele>248</ele>
        <time>2021-04-03T11:49:19.587Z</time>
      </trkpt>
      <trkpt lat="45.6139" lon="5.28205">
        <ele>248</ele>
        <time>2021-04-03T11:49:20.588Z</time>
      </trkpt>
      <trkpt lat="45.6139" lon="5.2821">
        <ele>248</ele>
        <time>2021-04-03T11:49:21.587Z</time>
      </trkpt>
      <trkpt lat="45.61389" lon="5.28214">
        <ele>248</ele>
        <time>2021-04-03T11:49:22.588Z</time>
      </trkpt>
      <trkpt lat="45.61388" lon="5.28218">
        <ele>248</ele>
        <time>2021-04-03T11:49:23.587Z</time>
      </trkpt>
      <trkpt lat="45.61388" lon="5.28221">
        <ele>249</ele>
        <time>2021-04-03T11:49:24.587Z</time>
      </trkpt>
      <trkpt lat="45.61388" lon="5.28225">
        <ele>249</ele>
        <time>2021-04-03T11:49:25.588Z</time>
      </trkpt>
      <trkpt lat="45.61387" lon="5.28228">
        <ele>249</ele>
        <time>2021-04-03T11:49:26.588Z</time>
      </trkpt>
      <trkpt lat="45.61386" lon="5.28232">
        <ele>249</ele>
        <time>2021-04-03T11:49:27.587Z</time>
      </trkpt>
      <trkpt lat="45.61386" lon="5.28235">
        <ele>249</ele>
        <time>2021-04-03T11:49:28.588Z</time>
      </trkpt>
      <trkpt lat="45.61385" lon="5.28239">
        <ele>250</ele>
        <time>2021-04-03T11:49:29.587Z</time>
      </trkpt>
      <trkpt lat="45.61385" lon="5.28243">
        <ele>251</ele>
        <time>2021-04-03T11:49:30.587Z</time>
      </trkpt>
      <trkpt lat="45.61384" lon="5.28247">
        <ele>251</ele>
        <time>2021-04-03T11:49:31.588Z</time>
      </trkpt>
      <trkpt lat="45.61383" lon="5.28252">
        <ele>252</ele>
        <time>2021-04-03T11:49:32.587Z</time>
      </trkpt>
      <trkpt lat="45.61382" lon="5.28256">
        <ele>253</ele>
        <time>2021-04-03T11:49:33.587Z</time>
      </trkpt>
      <trkpt lat="45.61382" lon="5.2826">
        <ele>253</ele>
        <time>2021-04-03T11:49:34.588Z</time>
      </trkpt>
      <trkpt lat="45.61381" lon="5.28264">
        <ele>254</ele>
        <time>2021-04-03T11:49:35.588Z</time>
      </trkpt>
      <trkpt lat="45.6138" lon="5.28268">
        <ele>255</ele>
        <time>2021-04-03T11:49:36.588Z</time>
      </trkpt>
      <trkpt lat="45.61379" lon="5.28272">
        <ele>255</ele>
        <time>2021-04-03T11:49:37.588Z</time>
      </trkpt>
      <trkpt lat="45.61378" lon="5.28276">
        <ele>256</ele>
        <time>2021-04-03T11:49:38.588Z</time>
      </trkpt>
      <trkpt lat="45.61378" lon="5.2828">
        <ele>257</ele>
        <time>2021-04-03T11:49:39.588Z</time>
      </trkpt>
      <trkpt lat="45.61377" lon="5.28284">
        <ele>258</ele>
        <time>2021-04-03T11:49:40.588Z</time>
      </trkpt>
      <trkpt lat="45.61376" lon="5.28288">
        <ele>258</ele>
        <time>2021-04-03T11:49:41.588Z</time>
      </trkpt>
      <trkpt lat="45.61375" lon="5.28292">
        <ele>259</ele>
        <time>2021-04-03T11:49:42.587Z</time>
      </trkpt>
      <trkpt lat="45.61375" lon="5.28297">
        <ele>259</ele>
        <time>2021-04-03T11:49:43.587Z</time>
      </trkpt>
      <trkpt lat="45.61374" lon="5.28301">
        <ele>260</ele>
        <time>2021-04-03T11:49:44.588Z</time>
      </trkpt>
      <trkpt lat="45.61374" lon="5.28304">
        <ele>260</ele>
        <time>2021-04-03T11:49:45.588Z</time>
      </trkpt>
      <trkpt lat="45.61374" lon="5.28307">
        <ele>260</ele>
        <time>2021-04-03T11:49:46.588Z</time>
      </trkpt>
      <trkpt lat="45.61374" lon="5.28311">
        <ele>260</ele>
        <time>2021-04-03T11:49:47.588Z</time>
      </trkpt>
      <trkpt lat="45.61374" lon="5.28315">
        <ele>260</ele>
        <time>2021-04-03T11:49:48.588Z</time>
      </trkpt>
      <trkpt lat="45.61374" lon="5.28318">
        <ele>260</ele>
        <time>2021-04-03T11:49:49.588Z</time>
      </trkpt>
      <trkpt lat="45.61374" lon="5.28323">
        <ele>260</ele>
        <time>2021-04-03T11:49:50.587Z</time>
      </trkpt>
      <trkpt lat="45.61374" lon="5.28327">
        <ele>259</ele>
        <time>2021-04-03T11:49:51.588Z</time>
      </trkpt>
      <trkpt lat="45.61374" lon="5.28331">
        <ele>259</ele>
        <time>2021-04-03T11:49:52.588Z</time>
      </trkpt>
      <trkpt lat="45.61374" lon="5.28335">
        <ele>259</ele>
        <time>2021-04-03T11:49:53.588Z</time>
      </trkpt>
      <trkpt lat="45.61374" lon="5.28339">
        <ele>258</ele>
        <time>2021-04-03T11:49:54.588Z</time>
      </trkpt>
      <trkpt lat="45.61374" lon="5.28343">
        <ele>258</ele>
        <time>2021-04-03T11:49:55.588Z</time>
      </trkpt>
      <trkpt lat="45.61375" lon="5.28346">
        <ele>258</ele>
        <time>2021-04-03T11:49:56.588Z</time>
      </trkpt>
      <trkpt lat="45.61376" lon="5.2835">
        <ele>258</ele>
        <time>2021-04-03T11:49:57.587Z</time>
      </trkpt>
      <trkpt lat="45.61376" lon="5.28353">
        <ele>258</ele>
        <time>2021-04-03T11:49:58.588Z</time>
      </trkpt>
      <trkpt lat="45.61376" lon="5.28357">
        <ele>258</ele>
        <time>2021-04-03T11:49:59.588Z</time>
      </trkpt>
      <trkpt lat="45.61376" lon="5.28361">
        <ele>257</ele>
        <time>2021-04-03T11:50:00.587Z</time>
      </trkpt>
      <trkpt lat="45.61376" lon="5.28365">
        <ele>257</ele>
        <time>2021-04-03T11:50:01.588Z</time>
      </trkpt>
      <trkpt lat="45.61375" lon="5.2837">
        <ele>257</ele>
        <time>2021-04-03T11:50:02.588Z</time>
      </trkpt>
      <trkpt lat="45.61374" lon="5.28374">
        <ele>256</ele>
        <time>2021-04-03T11:50:03.588Z</time>
      </trkpt>
      <trkpt lat="45.61374" lon="5.28378">
        <ele>256</ele>
        <time>2021-04-03T11:50:04.588Z</time>
      </trkpt>
      <trkpt lat="45.61372" lon="5.28382">
        <ele>255</ele>
        <time>2021-04-03T11:50:05.587Z</time>
      </trkpt>
      <trkpt lat="45.61371" lon="5.28385">
        <ele>255</ele>
        <time>2021-04-03T11:50:06.587Z</time>
      </trkpt>
      <trkpt lat="45.61369" lon="5.28389">
        <ele>254</ele>
        <time>2021-04-03T11:50:07.588Z</time>
      </trkpt>
      <trkpt lat="45.61368" lon="5.28393">
        <ele>254</ele>
        <time>2021-04-03T11:50:08.587Z</time>
      </trkpt>
      <trkpt lat="45.61366" lon="5.28396">
        <ele>253</ele>
        <time>2021-04-03T11:50:09.588Z</time>
      </trkpt>
      <trkpt lat="45.61364" lon="5.284">
        <ele>253</ele>
        <time>2021-04-03T11:50:10.587Z</time>
      </trkpt>
      <trkpt lat="45.61362" lon="5.28404">
        <ele>253</ele>
        <time>2021-04-03T11:50:11.588Z</time>
      </trkpt>
      <trkpt lat="45.6136" lon="5.28408">
        <ele>253</ele>
        <time>2021-04-03T11:50:12.588Z</time>
      </trkpt>
      <trkpt lat="45.61358" lon="5.28412">
        <ele>253</ele>
        <time>2021-04-03T11:50:13.588Z</time>
      </trkpt>
      <trkpt lat="45.61356" lon="5.28416">
        <ele>253</ele>
        <time>2021-04-03T11:50:14.588Z</time>
      </trkpt>
      <trkpt lat="45.61354" lon="5.28421">
        <ele>253</ele>
        <time>2021-04-03T11:50:15.587Z</time>
      </trkpt>
      <trkpt lat="45.61352" lon="5.28426">
        <ele>253</ele>
        <time>2021-04-03T11:50:16.588Z</time>
      </trkpt>
      <trkpt lat="45.6135" lon="5.28431">
        <ele>253</ele>
        <time>2021-04-03T11:50:17.588Z</time>
      </trkpt>
      <trkpt lat="45.61349" lon="5.28436">
        <ele>253</ele>
        <time>2021-04-03T11:50:18.588Z</time>
      </trkpt>
      <trkpt lat="45.61348" lon="5.28441">
        <ele>253</ele>
        <time>2021-04-03T11:50:19.588Z</time>
      </trkpt>
      <trkpt lat="45.61347" lon="5.28446">
        <ele>253</ele>
        <time>2021-04-03T11:50:20.588Z</time>
      </trkpt>
      <trkpt lat="45.61346" lon="5.2845">
        <ele>253</ele>
        <time>2021-04-03T11:50:21.588Z</time>
      </trkpt>
      <trkpt lat="45.61346" lon="5.28455">
        <ele>253</ele>
        <time>2021-04-03T11:50:22.587Z</time>
      </trkpt>
      <trkpt lat="45.61346" lon="5.2846">
        <ele>254</ele>
        <time>2021-04-03T11:50:23.588Z</time>
      </trkpt>
      <trkpt lat="45.61346" lon="5.28464">
        <ele>254</ele>
        <time>2021-04-03T11:50:24.587Z</time>
      </trkpt>
      <trkpt lat="45.61346" lon="5.28468">
        <ele>254</ele>
        <time>2021-04-03T11:50:25.588Z</time>
      </trkpt>
      <trkpt lat="45.61346" lon="5.28472">
        <ele>255</ele>
        <time>2021-04-03T11:50:26.588Z</time>
      </trkpt>
      <trkpt lat="45.61347" lon="5.28478">
        <ele>255</ele>
        <time>2021-04-03T11:50:27.588Z</time>
      </trkpt>
      <trkpt lat="45.61347" lon="5.28483">
        <ele>255</ele>
        <time>2021-04-03T11:50:28.587Z</time>
      </trkpt>
      <trkpt lat="45.61347" lon="5.28489">
        <ele>256</ele>
        <time>2021-04-03T11:50:29.587Z</time>
      </trkpt>
      <trkpt lat="45.61347" lon="5.28494">
        <ele>256</ele>
        <time>2021-04-03T11:50:30.588Z</time>
      </trkpt>
      <trkpt lat="45.61346" lon="5.28499">
        <ele>255</ele>
        <time>2021-04-03T11:50:31.588Z</time>
      </trkpt>
      <trkpt lat="45.61346" lon="5.28504">
        <ele>255</ele>
        <time>2021-04-03T11:50:32.588Z</time>
      </trkpt>
      <trkpt lat="45.61346" lon="5.28509">
        <ele>255</ele>
        <time>2021-04-03T11:50:33.587Z</time>
      </trkpt>
      <trkpt lat="45.61345" lon="5.28513">
        <ele>255</ele>
        <time>2021-04-03T11:50:34.588Z</time>
      </trkpt>
      <trkpt lat="45.61345" lon="5.28518">
        <ele>255</ele>
        <time>2021-04-03T11:50:35.588Z</time>
      </trkpt>
      <trkpt lat="45.61344" lon="5.28523">
        <ele>255</ele>
        <time>2021-04-03T11:50:36.588Z</time>
      </trkpt>
      <trkpt lat="45.61343" lon="5.28528">
        <ele>255</ele>
        <time>2021-04-03T11:50:37.588Z</time>
      </trkpt>
      <trkpt lat="45.61343" lon="5.28533">
        <ele>255</ele>
        <time>2021-04-03T11:50:38.588Z</time>
      </trkpt>
      <trkpt lat="45.61342" lon="5.28538">
        <ele>255</ele>
        <time>2021-04-03T11:50:39.588Z</time>
      </trkpt>
      <trkpt lat="45.61342" lon="5.28543">
        <ele>255</ele>
        <time>2021-04-03T11:50:40.588Z</time>
      </trkpt>
      <trkpt lat="45.61342" lon="5.28548">
        <ele>255</ele>
        <time>2021-04-03T11:50:41.587Z</time>
      </trkpt>
      <trkpt lat="45.61342" lon="5.28553">
        <ele>255</ele>
        <time>2021-04-03T11:50:42.588Z</time>
      </trkpt>
      <trkpt lat="45.61342" lon="5.28558">
        <ele>255</ele>
        <time>2021-04-03T11:50:43.588Z</time>
      </trkpt>
      <trkpt lat="45.61342" lon="5.28563">
        <ele>255</ele>
        <time>2021-04-03T11:50:44.587Z</time>
      </trkpt>
      <trkpt lat="45.61342" lon="5.28568">
        <ele>256</ele>
        <time>2021-04-03T11:50:45.588Z</time>
      </trkpt>
      <trkpt lat="45.61342" lon="5.28573">
        <ele>256</ele>
        <time>2021-04-03T11:50:46.588Z</time>
      </trkpt>
      <trkpt lat="45.61343" lon="5.28578">
        <ele>256</ele>
        <time>2021-04-03T11:50:47.587Z</time>
      </trkpt>
      <trkpt lat="45.61343" lon="5.28583">
        <ele>255</ele>
        <time>2021-04-03T11:50:48.588Z</time>
      </trkpt>
      <trkpt lat="45.61343" lon="5.28588">
        <ele>255</ele>
        <time>2021-04-03T11:50:49.588Z</time>
      </trkpt>
      <trkpt lat="45.61343" lon="5.28593">
        <ele>255</ele>
        <time>2021-04-03T11:50:50.588Z</time>
      </trkpt>
      <trkpt lat="45.61342" lon="5.28598">
        <ele>255</ele>
        <time>2021-04-03T11:50:51.588Z</time>
      </trkpt>
      <trkpt lat="45.61342" lon="5.28603">
        <ele>255</ele>
        <time>2021-04-03T11:50:52.588Z</time>
      </trkpt>
      <trkpt lat="45.61342" lon="5.28607">
        <ele>255</ele>
        <time>2021-04-03T11:50:53.588Z</time>
      </trkpt>
      <trkpt lat="45.61341" lon="5.28612">
        <ele>256</ele>
        <time>2021-04-03T11:50:54.587Z</time>
      </trkpt>
      <trkpt lat="45.61341" lon="5.28617">
        <ele>256</ele>
        <time>2021-04-03T11:50:55.588Z</time>
      </trkpt>
      <trkpt lat="45.61341" lon="5.28622">
        <ele>256</ele>
        <time>2021-04-03T11:50:56.587Z</time>
      </trkpt>
      <trkpt lat="45.61342" lon="5.28626">
        <ele>256</ele>
        <time>2021-04-03T11:50:57.587Z</time>
      </trkpt>
      <trkpt lat="45.61343" lon="5.28631">
        <ele>257</ele>
        <time>2021-04-03T11:50:58.588Z</time>
      </trkpt>
      <trkpt lat="45.61343" lon="5.28636">
        <ele>257</ele>
        <time>2021-04-03T11:50:59.587Z</time>
      </trkpt>
      <trkpt lat="45.61343" lon="5.28641">
        <ele>258</ele>
        <time>2021-04-03T11:51:00.588Z</time>
      </trkpt>
      <trkpt lat="45.61343" lon="5.28646">
        <ele>258</ele>
        <time>2021-04-03T11:51:01.588Z</time>
      </trkpt>
      <trkpt lat="45.61343" lon="5.2865">
        <ele>258</ele>
        <time>2021-04-03T11:51:02.588Z</time>
      </trkpt>
      <trkpt lat="45.61342" lon="5.28655">
        <ele>258</ele>
        <time>2021-04-03T11:51:03.587Z</time>
      </trkpt>
      <trkpt lat="45.61342" lon="5.28659">
        <ele>258</ele>
        <time>2021-04-03T11:51:04.588Z</time>
      </trkpt>
      <trkpt lat="45.61342" lon="5.28665">
        <ele>259</ele>
        <time>2021-04-03T11:51:05.588Z</time>
      </trkpt>
      <trkpt lat="45.61342" lon="5.28669">
        <ele>259</ele>
        <time>2021-04-03T11:51:06.588Z</time>
      </trkpt>
      <trkpt lat="45.61342" lon="5.28674">
        <ele>259</ele>
        <time>2021-04-03T11:51:07.587Z</time>
      </trkpt>
      <trkpt lat="45.61342" lon="5.28679">
        <ele>260</ele>
        <time>2021-04-03T11:51:08.587Z</time>
      </trkpt>
      <trkpt lat="45.61341" lon="5.28683">
        <ele>260</ele>
        <time>2021-04-03T11:51:09.588Z</time>
      </trkpt>
      <trkpt lat="45.61341" lon="5.28688">
        <ele>260</ele>
        <time>2021-04-03T11:51:10.588Z</time>
      </trkpt>
      <trkpt lat="45.61341" lon="5.28692">
        <ele>261</ele>
        <time>2021-04-03T11:51:11.588Z</time>
      </trkpt>
      <trkpt lat="45.6134" lon="5.28696">
        <ele>261</ele>
        <time>2021-04-03T11:51:12.588Z</time>
      </trkpt>
      <trkpt lat="45.61339" lon="5.287">
        <ele>262</ele>
        <time>2021-04-03T11:51:13.588Z</time>
      </trkpt>
      <trkpt lat="45.61338" lon="5.28704">
        <ele>262</ele>
        <time>2021-04-03T11:51:14.587Z</time>
      </trkpt>
      <trkpt lat="45.61338" lon="5.28708">
        <ele>263</ele>
        <time>2021-04-03T11:51:15.587Z</time>
      </trkpt>
      <trkpt lat="45.61338" lon="5.28711">
        <ele>263</ele>
        <time>2021-04-03T11:51:16.587Z</time>
      </trkpt>
      <trkpt lat="45.61338" lon="5.28715">
        <ele>263</ele>
        <time>2021-04-03T11:51:17.588Z</time>
      </trkpt>
      <trkpt lat="45.61337" lon="5.28719">
        <ele>264</ele>
        <time>2021-04-03T11:51:18.588Z</time>
      </trkpt>
      <trkpt lat="45.61338" lon="5.28723">
        <ele>264</ele>
        <time>2021-04-03T11:51:19.588Z</time>
      </trkpt>
      <trkpt lat="45.61338" lon="5.28728">
        <ele>264</ele>
        <time>2021-04-03T11:51:20.588Z</time>
      </trkpt>
      <trkpt lat="45.61337" lon="5.28732">
        <ele>264</ele>
        <time>2021-04-03T11:51:21.588Z</time>
      </trkpt>
      <trkpt lat="45.61337" lon="5.28736">
        <ele>264</ele>
        <time>2021-04-03T11:51:22.588Z</time>
      </trkpt>
      <trkpt lat="45.61336" lon="5.2874">
        <ele>264</ele>
        <time>2021-04-03T11:51:23.588Z</time>
      </trkpt>
      <trkpt lat="45.61336" lon="5.28745">
        <ele>264</ele>
        <time>2021-04-03T11:51:24.588Z</time>
      </trkpt>
      <trkpt lat="45.61335" lon="5.28749">
        <ele>264</ele>
        <time>2021-04-03T11:51:25.588Z</time>
      </trkpt>
      <trkpt lat="45.61336" lon="5.28753">
        <ele>264</ele>
        <time>2021-04-03T11:51:26.588Z</time>
      </trkpt>
      <trkpt lat="45.61336" lon="5.28758">
        <ele>264</ele>
        <time>2021-04-03T11:51:27.588Z</time>
      </trkpt>
      <trkpt lat="45.61336" lon="5.28762">
        <ele>264</ele>
        <time>2021-04-03T11:51:28.588Z</time>
      </trkpt>
      <trkpt lat="45.61336" lon="5.28766">
        <ele>264</ele>
        <time>2021-04-03T11:51:29.587Z</time>
      </trkpt>
      <trkpt lat="45.61337" lon="5.28771">
        <ele>264</ele>
        <time>2021-04-03T11:51:30.588Z</time>
      </trkpt>
      <trkpt lat="45.61337" lon="5.28775">
        <ele>265</ele>
        <time>2021-04-03T11:51:31.588Z</time>
      </trkpt>
      <trkpt lat="45.61337" lon="5.28779">
        <ele>265</ele>
        <time>2021-04-03T11:51:32.588Z</time>
      </trkpt>
      <trkpt lat="45.61337" lon="5.28783">
        <ele>265</ele>
        <time>2021-04-03T11:51:33.587Z</time>
      </trkpt>
      <trkpt lat="45.61338" lon="5.28787">
        <ele>265</ele>
        <time>2021-04-03T11:51:34.587Z</time>
      </trkpt>
      <trkpt lat="45.61339" lon="5.28792">
        <ele>265</ele>
        <time>2021-04-03T11:51:35.588Z</time>
      </trkpt>
      <trkpt lat="45.61339" lon="5.28795">
        <ele>265</ele>
        <time>2021-04-03T11:51:36.588Z</time>
      </trkpt>
      <trkpt lat="45.61339" lon="5.28799">
        <ele>266</ele>
        <time>2021-04-03T11:51:37.588Z</time>
      </trkpt>
      <trkpt lat="45.61339" lon="5.28803">
        <ele>266</ele>
        <time>2021-04-03T11:51:38.588Z</time>
      </trkpt>
      <trkpt lat="45.61339" lon="5.28807">
        <ele>266</ele>
        <time>2021-04-03T11:51:39.587Z</time>
      </trkpt>
      <trkpt lat="45.61339" lon="5.28811">
        <ele>267</ele>
        <time>2021-04-03T11:51:40.587Z</time>
      </trkpt>
      <trkpt lat="45.61339" lon="5.28814">
        <ele>267</ele>
        <time>2021-04-03T11:51:41.588Z</time>
      </trkpt>
      <trkpt lat="45.61339" lon="5.28818">
        <ele>268</ele>
        <time>2021-04-03T11:51:42.587Z</time>
      </trkpt>
      <trkpt lat="45.6134" lon="5.28822">
        <ele>268</ele>
        <time>2021-04-03T11:51:43.588Z</time>
      </trkpt>
      <trkpt lat="45.6134" lon="5.28827">
        <ele>269</ele>
        <time>2021-04-03T11:51:44.588Z</time>
      </trkpt>
      <trkpt lat="45.61341" lon="5.28832">
        <ele>269</ele>
        <time>2021-04-03T11:51:45.588Z</time>
      </trkpt>
      <trkpt lat="45.61341" lon="5.28837">
        <ele>269</ele>
        <time>2021-04-03T11:51:46.588Z</time>
      </trkpt>
      <trkpt lat="45.61341" lon="5.2884">
        <ele>270</ele>
        <time>2021-04-03T11:51:47.588Z</time>
      </trkpt>
      <trkpt lat="45.61341" lon="5.28844">
        <ele>271</ele>
        <time>2021-04-03T11:51:48.588Z</time>
      </trkpt>
      <trkpt lat="45.61341" lon="5.28848">
        <ele>271</ele>
        <time>2021-04-03T11:51:49.588Z</time>
      </trkpt>
      <trkpt lat="45.6134" lon="5.28851">
        <ele>272</ele>
        <time>2021-04-03T11:51:50.587Z</time>
      </trkpt>
      <trkpt lat="45.6134" lon="5.28855">
        <ele>272</ele>
        <time>2021-04-03T11:51:51.587Z</time>
      </trkpt>
      <trkpt lat="45.61339" lon="5.28859">
        <ele>272</ele>
        <time>2021-04-03T11:51:52.587Z</time>
      </trkpt>
      <trkpt lat="45.61339" lon="5.28863">
        <ele>272</ele>
        <time>2021-04-03T11:51:53.588Z</time>
      </trkpt>
      <trkpt lat="45.61339" lon="5.28867">
        <ele>272</ele>
        <time>2021-04-03T11:51:54.588Z</time>
      </trkpt>
      <trkpt lat="45.61339" lon="5.28872">
        <ele>273</ele>
        <time>2021-04-03T11:51:55.588Z</time>
      </trkpt>
      <trkpt lat="45.61338" lon="5.28876">
        <ele>273</ele>
        <time>2021-04-03T11:51:56.588Z</time>
      </trkpt>
      <trkpt lat="45.61338" lon="5.2888">
        <ele>274</ele>
        <time>2021-04-03T11:51:57.588Z</time>
      </trkpt>
      <trkpt lat="45.61337" lon="5.28884">
        <ele>274</ele>
        <time>2021-04-03T11:51:58.588Z</time>
      </trkpt>
      <trkpt lat="45.61336" lon="5.28888">
        <ele>275</ele>
        <time>2021-04-03T11:51:59.588Z</time>
      </trkpt>
      <trkpt lat="45.61336" lon="5.28892">
        <ele>276</ele>
        <time>2021-04-03T11:52:00.588Z</time>
      </trkpt>
      <trkpt lat="45.61336" lon="5.28896">
        <ele>276</ele>
        <time>2021-04-03T11:52:01.588Z</time>
      </trkpt>
      <trkpt lat="45.61336" lon="5.28901">
        <ele>276</ele>
        <time>2021-04-03T11:52:02.587Z</time>
      </trkpt>
      <trkpt lat="45.61335" lon="5.28905">
        <ele>277</ele>
        <time>2021-04-03T11:52:03.587Z</time>
      </trkpt>
      <trkpt lat="45.61335" lon="5.28909">
        <ele>277</ele>
        <time>2021-04-03T11:52:04.588Z</time>
      </trkpt>
      <trkpt lat="45.61335" lon="5.28914">
        <ele>277</ele>
        <time>2021-04-03T11:52:05.588Z</time>
      </trkpt>
      <trkpt lat="45.61334" lon="5.28918">
        <ele>278</ele>
        <time>2021-04-03T11:52:06.588Z</time>
      </trkpt>
      <trkpt lat="45.61333" lon="5.28921">
        <ele>278</ele>
        <time>2021-04-03T11:52:07.588Z</time>
      </trkpt>
      <trkpt lat="45.61332" lon="5.28926">
        <ele>278</ele>
        <time>2021-04-03T11:52:08.587Z</time>
      </trkpt>
      <trkpt lat="45.61331" lon="5.2893">
        <ele>278</ele>
        <time>2021-04-03T11:52:09.588Z</time>
      </trkpt>
      <trkpt lat="45.61331" lon="5.28933">
        <ele>278</ele>
        <time>2021-04-03T11:52:10.588Z</time>
      </trkpt>
      <trkpt lat="45.61331" lon="5.28937">
        <ele>278</ele>
        <time>2021-04-03T11:52:11.588Z</time>
      </trkpt>
      <trkpt lat="45.61331" lon="5.2894">
        <ele>279</ele>
        <time>2021-04-03T11:52:12.588Z</time>
      </trkpt>
      <trkpt lat="45.61331" lon="5.28944">
        <ele>279</ele>
        <time>2021-04-03T11:52:13.588Z</time>
      </trkpt>
      <trkpt lat="45.61331" lon="5.28948">
        <ele>279</ele>
        <time>2021-04-03T11:52:14.588Z</time>
      </trkpt>
      <trkpt lat="45.6133" lon="5.28952">
        <ele>280</ele>
        <time>2021-04-03T11:52:15.587Z</time>
      </trkpt>
      <trkpt lat="45.61331" lon="5.28956">
        <ele>280</ele>
        <time>2021-04-03T11:52:16.588Z</time>
      </trkpt>
      <trkpt lat="45.61331" lon="5.2896">
        <ele>281</ele>
        <time>2021-04-03T11:52:17.588Z</time>
      </trkpt>
      <trkpt lat="45.61331" lon="5.28965">
        <ele>281</ele>
        <time>2021-04-03T11:52:18.588Z</time>
      </trkpt>
      <trkpt lat="45.61331" lon="5.2897">
        <ele>282</ele>
        <time>2021-04-03T11:52:19.588Z</time>
      </trkpt>
      <trkpt lat="45.6133" lon="5.28974">
        <ele>282</ele>
        <time>2021-04-03T11:52:20.588Z</time>
      </trkpt>
      <trkpt lat="45.6133" lon="5.28979">
        <ele>282</ele>
        <time>2021-04-03T11:52:21.588Z</time>
      </trkpt>
      <trkpt lat="45.6133" lon="5.28984">
        <ele>282</ele>
        <time>2021-04-03T11:52:22.588Z</time>
      </trkpt>
      <trkpt lat="45.61329" lon="5.28988">
        <ele>283</ele>
        <time>2021-04-03T11:52:23.588Z</time>
      </trkpt>
      <trkpt lat="45.61329" lon="5.28992">
        <ele>283</ele>
        <time>2021-04-03T11:52:24.588Z</time>
      </trkpt>
      <trkpt lat="45.6133" lon="5.28997">
        <ele>283</ele>
        <time>2021-04-03T11:52:25.588Z</time>
      </trkpt>
      <trkpt lat="45.6133" lon="5.29">
        <ele>283</ele>
        <time>2021-04-03T11:52:26.587Z</time>
      </trkpt>
      <trkpt lat="45.6133" lon="5.29005">
        <ele>283</ele>
        <time>2021-04-03T11:52:27.588Z</time>
      </trkpt>
      <trkpt lat="45.61329" lon="5.2901">
        <ele>283</ele>
        <time>2021-04-03T11:52:28.588Z</time>
      </trkpt>
      <trkpt lat="45.61329" lon="5.29014">
        <ele>283</ele>
        <time>2021-04-03T11:52:29.588Z</time>
      </trkpt>
      <trkpt lat="45.61329" lon="5.2902">
        <ele>283</ele>
        <time>2021-04-03T11:52:30.587Z</time>
      </trkpt>
      <trkpt lat="45.61328" lon="5.29024">
        <ele>283</ele>
        <time>2021-04-03T11:52:31.588Z</time>
      </trkpt>
      <trkpt lat="45.61328" lon="5.29029">
        <ele>284</ele>
        <time>2021-04-03T11:52:32.587Z</time>
      </trkpt>
      <trkpt lat="45.61328" lon="5.29034">
        <ele>284</ele>
        <time>2021-04-03T11:52:33.588Z</time>
      </trkpt>
      <trkpt lat="45.61328" lon="5.29038">
        <ele>284</ele>
        <time>2021-04-03T11:52:34.588Z</time>
      </trkpt>
      <trkpt lat="45.61327" lon="5.29043">
        <ele>285</ele>
        <time>2021-04-03T11:52:35.588Z</time>
      </trkpt>
      <trkpt lat="45.61327" lon="5.29048">
        <ele>285</ele>
        <time>2021-04-03T11:52:36.587Z</time>
      </trkpt>
      <trkpt lat="45.61327" lon="5.29053">
        <ele>285</ele>
        <time>2021-04-03T11:52:37.587Z</time>
      </trkpt>
      <trkpt lat="45.61327" lon="5.29058">
        <ele>285</ele>
        <time>2021-04-03T11:52:38.588Z</time>
      </trkpt>
      <trkpt lat="45.61327" lon="5.29063">
        <ele>286</ele>
        <time>2021-04-03T11:52:39.588Z</time>
      </trkpt>
      <trkpt lat="45.61327" lon="5.29068">
        <ele>286</ele>
        <time>2021-04-03T11:52:40.587Z</time>
      </trkpt>
      <trkpt lat="45.61327" lon="5.29073">
        <ele>286</ele>
        <time>2021-04-03T11:52:41.588Z</time>
      </trkpt>
      <trkpt lat="45.61326" lon="5.29078">
        <ele>287</ele>
        <time>2021-04-03T11:52:42.588Z</time>
      </trkpt>
      <trkpt lat="45.61326" lon="5.29083">
        <ele>287</ele>
        <time>2021-04-03T11:52:43.587Z</time>
      </trkpt>
      <trkpt lat="45.61326" lon="5.2909">
        <ele>287</ele>
        <time>2021-04-03T11:52:44.588Z</time>
      </trkpt>
      <trkpt lat="45.61326" lon="5.29096">
        <ele>288</ele>
        <time>2021-04-03T11:52:45.588Z</time>
      </trkpt>
      <trkpt lat="45.61326" lon="5.29104">
        <ele>288</ele>
        <time>2021-04-03T11:52:46.588Z</time>
      </trkpt>
      <trkpt lat="45.61325" lon="5.29111">
        <ele>288</ele>
        <time>2021-04-03T11:52:47.588Z</time>
      </trkpt>
      <trkpt lat="45.61324" lon="5.29119">
        <ele>289</ele>
        <time>2021-04-03T11:52:48.587Z</time>
      </trkpt>
      <trkpt lat="45.61322" lon="5.29128">
        <ele>289</ele>
        <time>2021-04-03T11:52:49.587Z</time>
      </trkpt>
      <trkpt lat="45.61321" lon="5.29137">
        <ele>289</ele>
        <time>2021-04-03T11:52:50.587Z</time>
      </trkpt>
      <trkpt lat="45.6132" lon="5.29146">
        <ele>289</ele>
        <time>2021-04-03T11:52:51.587Z</time>
      </trkpt>
      <trkpt lat="45.61318" lon="5.29155">
        <ele>289</ele>
        <time>2021-04-03T11:52:52.587Z</time>
      </trkpt>
      <trkpt lat="45.61318" lon="5.29165">
        <ele>290</ele>
        <time>2021-04-03T11:52:53.587Z</time>
      </trkpt>
      <trkpt lat="45.61317" lon="5.29174">
        <ele>290</ele>
        <time>2021-04-03T11:52:54.588Z</time>
      </trkpt>
      <trkpt lat="45.61316" lon="5.29184">
        <ele>290</ele>
        <time>2021-04-03T11:52:55.588Z</time>
      </trkpt>
      <trkpt lat="45.61315" lon="5.29193">
        <ele>290</ele>
        <time>2021-04-03T11:52:56.588Z</time>
      </trkpt>
      <trkpt lat="45.61314" lon="5.29202">
        <ele>291</ele>
        <time>2021-04-03T11:52:57.588Z</time>
      </trkpt>
      <trkpt lat="45.61313" lon="5.29211">
        <ele>291</ele>
        <time>2021-04-03T11:52:58.588Z</time>
      </trkpt>
      <trkpt lat="45.61311" lon="5.2922">
        <ele>291</ele>
        <time>2021-04-03T11:52:59.587Z</time>
      </trkpt>
      <trkpt lat="45.61311" lon="5.29229">
        <ele>291</ele>
        <time>2021-04-03T11:53:00.588Z</time>
      </trkpt>
      <trkpt lat="45.61309" lon="5.29238">
        <ele>291</ele>
        <time>2021-04-03T11:53:01.588Z</time>
      </trkpt>
      <trkpt lat="45.61309" lon="5.29247">
        <ele>291</ele>
        <time>2021-04-03T11:53:02.588Z</time>
      </trkpt>
      <trkpt lat="45.61308" lon="5.29257">
        <ele>291</ele>
        <time>2021-04-03T11:53:03.587Z</time>
      </trkpt>
      <trkpt lat="45.61308" lon="5.29266">
        <ele>291</ele>
        <time>2021-04-03T11:53:04.587Z</time>
      </trkpt>
      <trkpt lat="45.61307" lon="5.29275">
        <ele>291</ele>
        <time>2021-04-03T11:53:05.587Z</time>
      </trkpt>
      <trkpt lat="45.61306" lon="5.29284">
        <ele>291</ele>
        <time>2021-04-03T11:53:06.588Z</time>
      </trkpt>
      <trkpt lat="45.61305" lon="5.29294">
        <ele>291</ele>
        <time>2021-04-03T11:53:07.588Z</time>
      </trkpt>
      <trkpt lat="45.61304" lon="5.29303">
        <ele>290</ele>
        <time>2021-04-03T11:53:08.587Z</time>
      </trkpt>
      <trkpt lat="45.61303" lon="5.29312">
        <ele>290</ele>
        <time>2021-04-03T11:53:09.588Z</time>
      </trkpt>
      <trkpt lat="45.61302" lon="5.29321">
        <ele>290</ele>
        <time>2021-04-03T11:53:10.587Z</time>
      </trkpt>
      <trkpt lat="45.61303" lon="5.2933">
        <ele>290</ele>
        <time>2021-04-03T11:53:11.588Z</time>
      </trkpt>
      <trkpt lat="45.61303" lon="5.2934">
        <ele>290</ele>
        <time>2021-04-03T11:53:12.588Z</time>
      </trkpt>
      <trkpt lat="45.61305" lon="5.2935">
        <ele>290</ele>
        <time>2021-04-03T11:53:13.588Z</time>
      </trkpt>
      <trkpt lat="45.61305" lon="5.2936">
        <ele>290</ele>
        <time>2021-04-03T11:53:14.588Z</time>
      </trkpt>
      <trkpt lat="45.61304" lon="5.29369">
        <ele>289</ele>
        <time>2021-04-03T11:53:15.588Z</time>
      </trkpt>
      <trkpt lat="45.61302" lon="5.29379">
        <ele>289</ele>
        <time>2021-04-03T11:53:16.588Z</time>
      </trkpt>
      <trkpt lat="45.613" lon="5.2939">
        <ele>289</ele>
        <time>2021-04-03T11:53:17.587Z</time>
      </trkpt>
      <trkpt lat="45.61299" lon="5.29399">
        <ele>288</ele>
        <time>2021-04-03T11:53:18.588Z</time>
      </trkpt>
      <trkpt lat="45.61298" lon="5.29409">
        <ele>288</ele>
        <time>2021-04-03T11:53:19.588Z</time>
      </trkpt>
      <trkpt lat="45.61297" lon="5.29419">
        <ele>288</ele>
        <time>2021-04-03T11:53:20.588Z</time>
      </trkpt>
      <trkpt lat="45.61297" lon="5.29429">
        <ele>288</ele>
        <time>2021-04-03T11:53:21.588Z</time>
      </trkpt>
      <trkpt lat="45.61298" lon="5.29439">
        <ele>288</ele>
        <time>2021-04-03T11:53:22.587Z</time>
      </trkpt>
      <trkpt lat="45.61301" lon="5.29446">
        <ele>288</ele>
        <time>2021-04-03T11:53:23.588Z</time>
      </trkpt>
      <trkpt lat="45.61304" lon="5.29451">
        <ele>288</ele>
        <time>2021-04-03T11:53:24.588Z</time>
      </trkpt>
      <trkpt lat="45.61309" lon="5.29454">
        <ele>288</ele>
        <time>2021-04-03T11:53:25.588Z</time>
      </trkpt>
      <trkpt lat="45.61314" lon="5.29457">
        <ele>288</ele>
        <time>2021-04-03T11:53:26.588Z</time>
      </trkpt>
      <trkpt lat="45.6132" lon="5.29458">
        <ele>288</ele>
        <time>2021-04-03T11:53:27.588Z</time>
      </trkpt>
      <trkpt lat="45.61327" lon="5.29458">
        <ele>288</ele>
        <time>2021-04-03T11:53:28.588Z</time>
      </trkpt>
      <trkpt lat="45.61334" lon="5.29458">
        <ele>288</ele>
        <time>2021-04-03T11:53:29.587Z</time>
      </trkpt>
      <trkpt lat="45.6134" lon="5.29458">
        <ele>288</ele>
        <time>2021-04-03T11:53:30.587Z</time>
      </trkpt>
      <trkpt lat="45.61346" lon="5.29457">
        <ele>288</ele>
        <time>2021-04-03T11:53:31.588Z</time>
      </trkpt>
      <trkpt lat="45.61352" lon="5.29458">
        <ele>288</ele>
        <time>2021-04-03T11:53:32.588Z</time>
      </trkpt>
      <trkpt lat="45.6136" lon="5.29458">
        <ele>288</ele>
        <time>2021-04-03T11:53:33.588Z</time>
      </trkpt>
      <trkpt lat="45.61365" lon="5.29458">
        <ele>288</ele>
        <time>2021-04-03T11:53:34.588Z</time>
      </trkpt>
      <trkpt lat="45.61372" lon="5.29459">
        <ele>288</ele>
        <time>2021-04-03T11:53:35.588Z</time>
      </trkpt>
      <trkpt lat="45.61379" lon="5.29458">
        <ele>288</ele>
        <time>2021-04-03T11:53:36.587Z</time>
      </trkpt>
      <trkpt lat="45.61386" lon="5.29457">
        <ele>288</ele>
        <time>2021-04-03T11:53:37.588Z</time>
      </trkpt>
      <trkpt lat="45.61391" lon="5.29458">
        <ele>289</ele>
        <time>2021-04-03T11:53:38.588Z</time>
      </trkpt>
      <trkpt lat="45.61396" lon="5.29459">
        <ele>289</ele>
        <time>2021-04-03T11:53:39.588Z</time>
      </trkpt>
      <trkpt lat="45.61401" lon="5.29459">
        <ele>289</ele>
        <time>2021-04-03T11:53:40.588Z</time>
      </trkpt>
      <trkpt lat="45.61405" lon="5.2946">
        <ele>289</ele>
        <time>2021-04-03T11:53:41.588Z</time>
      </trkpt>
      <trkpt lat="45.61409" lon="5.29462">
        <ele>290</ele>
        <time>2021-04-03T11:53:42.587Z</time>
      </trkpt>
      <trkpt lat="45.61413" lon="5.29465">
        <ele>289</ele>
        <time>2021-04-03T11:53:43.588Z</time>
      </trkpt>
      <trkpt lat="45.61416" lon="5.29468">
        <ele>289</ele>
        <time>2021-04-03T11:53:44.588Z</time>
      </trkpt>
      <trkpt lat="45.61419" lon="5.29473">
        <ele>289</ele>
        <time>2021-04-03T11:53:45.587Z</time>
      </trkpt>
      <trkpt lat="45.61421" lon="5.29478">
        <ele>289</ele>
        <time>2021-04-03T11:53:46.588Z</time>
      </trkpt>
      <trkpt lat="45.61421" lon="5.29484">
        <ele>289</ele>
        <time>2021-04-03T11:53:47.588Z</time>
      </trkpt>
      <trkpt lat="45.61421" lon="5.29491">
        <ele>289</ele>
        <time>2021-04-03T11:53:48.588Z</time>
      </trkpt>
      <trkpt lat="45.61421" lon="5.295">
        <ele>289</ele>
        <time>2021-04-03T11:53:49.587Z</time>
      </trkpt>
      <trkpt lat="45.61421" lon="5.29507">
        <ele>289</ele>
        <time>2021-04-03T11:53:50.588Z</time>
      </trkpt>
      <trkpt lat="45.61421" lon="5.29515">
        <ele>289</ele>
        <time>2021-04-03T11:53:51.587Z</time>
      </trkpt>
      <trkpt lat="45.6142" lon="5.29522">
        <ele>289</ele>
        <time>2021-04-03T11:53:52.588Z</time>
      </trkpt>
      <trkpt lat="45.61418" lon="5.2953">
        <ele>289</ele>
        <time>2021-04-03T11:53:53.588Z</time>
      </trkpt>
      <trkpt lat="45.61416" lon="5.29538">
        <ele>289</ele>
        <time>2021-04-03T11:53:54.587Z</time>
      </trkpt>
      <trkpt lat="45.61414" lon="5.29546">
        <ele>289</ele>
        <time>2021-04-03T11:53:55.588Z</time>
      </trkpt>
      <trkpt lat="45.61412" lon="5.29555">
        <ele>289</ele>
        <time>2021-04-03T11:53:56.588Z</time>
      </trkpt>
      <trkpt lat="45.61409" lon="5.29565">
        <ele>289</ele>
        <time>2021-04-03T11:53:57.587Z</time>
      </trkpt>
      <trkpt lat="45.61407" lon="5.29574">
        <ele>289</ele>
        <time>2021-04-03T11:53:58.588Z</time>
      </trkpt>
      <trkpt lat="45.61405" lon="5.29584">
        <ele>289</ele>
        <time>2021-04-03T11:53:59.588Z</time>
      </trkpt>
      <trkpt lat="45.61403" lon="5.29593">
        <ele>288</ele>
        <time>2021-04-03T11:54:00.588Z</time>
      </trkpt>
      <trkpt lat="45.61401" lon="5.29602">
        <ele>288</ele>
        <time>2021-04-03T11:54:01.588Z</time>
      </trkpt>
      <trkpt lat="45.614" lon="5.29612">
        <ele>288</ele>
        <time>2021-04-03T11:54:02.588Z</time>
      </trkpt>
      <trkpt lat="45.61399" lon="5.29623">
        <ele>287</ele>
        <time>2021-04-03T11:54:03.587Z</time>
      </trkpt>
      <trkpt lat="45.61398" lon="5.29633">
        <ele>287</ele>
        <time>2021-04-03T11:54:04.588Z</time>
      </trkpt>
      <trkpt lat="45.61398" lon="5.29644">
        <ele>287</ele>
        <time>2021-04-03T11:54:05.588Z</time>
      </trkpt>
      <trkpt lat="45.61396" lon="5.29655">
        <ele>287</ele>
        <time>2021-04-03T11:54:06.588Z</time>
      </trkpt>
      <trkpt lat="45.61396" lon="5.29666">
        <ele>286</ele>
        <time>2021-04-03T11:54:07.588Z</time>
      </trkpt>
      <trkpt lat="45.61395" lon="5.29677">
        <ele>286</ele>
        <time>2021-04-03T11:54:08.588Z</time>
      </trkpt>
      <trkpt lat="45.61394" lon="5.29687">
        <ele>286</ele>
        <time>2021-04-03T11:54:09.588Z</time>
      </trkpt>
      <trkpt lat="45.61393" lon="5.29698">
        <ele>286</ele>
        <time>2021-04-03T11:54:10.588Z</time>
      </trkpt>
      <trkpt lat="45.61392" lon="5.29709">
        <ele>286</ele>
        <time>2021-04-03T11:54:11.588Z</time>
      </trkpt>
      <trkpt lat="45.61391" lon="5.2972">
        <ele>286</ele>
        <time>2021-04-03T11:54:12.587Z</time>
      </trkpt>
      <trkpt lat="45.6139" lon="5.2973">
        <ele>286</ele>
        <time>2021-04-03T11:54:13.588Z</time>
      </trkpt>
      <trkpt lat="45.61389" lon="5.29741">
        <ele>286</ele>
        <time>2021-04-03T11:54:14.588Z</time>
      </trkpt>
      <trkpt lat="45.61388" lon="5.29751">
        <ele>286</ele>
        <time>2021-04-03T11:54:15.587Z</time>
      </trkpt>
      <trkpt lat="45.61386" lon="5.29761">
        <ele>286</ele>
        <time>2021-04-03T11:54:16.587Z</time>
      </trkpt>
      <trkpt lat="45.61385" lon="5.2977">
        <ele>286</ele>
        <time>2021-04-03T11:54:17.587Z</time>
      </trkpt>
      <trkpt lat="45.61383" lon="5.2978">
        <ele>286</ele>
        <time>2021-04-03T11:54:18.588Z</time>
      </trkpt>
      <trkpt lat="45.61382" lon="5.2979">
        <ele>287</ele>
        <time>2021-04-03T11:54:19.588Z</time>
      </trkpt>
      <trkpt lat="45.61381" lon="5.298">
        <ele>287</ele>
        <time>2021-04-03T11:54:20.588Z</time>
      </trkpt>
      <trkpt lat="45.6138" lon="5.2981">
        <ele>287</ele>
        <time>2021-04-03T11:54:21.587Z</time>
      </trkpt>
      <trkpt lat="45.6138" lon="5.2982">
        <ele>287</ele>
        <time>2021-04-03T11:54:22.588Z</time>
      </trkpt>
      <trkpt lat="45.61379" lon="5.29829">
        <ele>287</ele>
        <time>2021-04-03T11:54:23.588Z</time>
      </trkpt>
      <trkpt lat="45.61378" lon="5.29839">
        <ele>287</ele>
        <time>2021-04-03T11:54:24.588Z</time>
      </trkpt>
      <trkpt lat="45.61376" lon="5.29848">
        <ele>287</ele>
        <time>2021-04-03T11:54:25.587Z</time>
      </trkpt>
      <trkpt lat="45.61373" lon="5.29857">
        <ele>287</ele>
        <time>2021-04-03T11:54:26.588Z</time>
      </trkpt>
      <trkpt lat="45.6137" lon="5.29865">
        <ele>288</ele>
        <time>2021-04-03T11:54:27.588Z</time>
      </trkpt>
      <trkpt lat="45.61367" lon="5.29872">
        <ele>287</ele>
        <time>2021-04-03T11:54:28.588Z</time>
      </trkpt>
      <trkpt lat="45.61363" lon="5.2988">
        <ele>287</ele>
        <time>2021-04-03T11:54:29.588Z</time>
      </trkpt>
      <trkpt lat="45.6136" lon="5.29887">
        <ele>287</ele>
        <time>2021-04-03T11:54:30.588Z</time>
      </trkpt>
      <trkpt lat="45.61356" lon="5.29894">
        <ele>287</ele>
        <time>2021-04-03T11:54:31.588Z</time>
      </trkpt>
      <trkpt lat="45.61353" lon="5.29901">
        <ele>287</ele>
        <time>2021-04-03T11:54:32.588Z</time>
      </trkpt>
      <trkpt lat="45.6135" lon="5.29907">
        <ele>287</ele>
        <time>2021-04-03T11:54:33.588Z</time>
      </trkpt>
      <trkpt lat="45.61346" lon="5.29914">
        <ele>287</ele>
        <time>2021-04-03T11:54:34.587Z</time>
      </trkpt>
      <trkpt lat="45.61343" lon="5.2992">
        <ele>287</ele>
        <time>2021-04-03T11:54:35.587Z</time>
      </trkpt>
      <trkpt lat="45.61339" lon="5.29926">
        <ele>287</ele>
        <time>2021-04-03T11:54:36.588Z</time>
      </trkpt>
      <trkpt lat="45.61336" lon="5.29933">
        <ele>288</ele>
        <time>2021-04-03T11:54:37.588Z</time>
      </trkpt>
      <trkpt lat="45.61333" lon="5.29939">
        <ele>288</ele>
        <time>2021-04-03T11:54:38.587Z</time>
      </trkpt>
      <trkpt lat="45.6133" lon="5.29946">
        <ele>289</ele>
        <time>2021-04-03T11:54:39.587Z</time>
      </trkpt>
      <trkpt lat="45.61327" lon="5.29952">
        <ele>290</ele>
        <time>2021-04-03T11:54:40.587Z</time>
      </trkpt>
      <trkpt lat="45.61324" lon="5.29959">
        <ele>290</ele>
        <time>2021-04-03T11:54:41.588Z</time>
      </trkpt>
      <trkpt lat="45.61321" lon="5.29965">
        <ele>291</ele>
        <time>2021-04-03T11:54:42.588Z</time>
      </trkpt>
      <trkpt lat="45.61318" lon="5.29972">
        <ele>291</ele>
        <time>2021-04-03T11:54:43.588Z</time>
      </trkpt>
      <trkpt lat="45.61315" lon="5.29978">
        <ele>292</ele>
        <time>2021-04-03T11:54:44.588Z</time>
      </trkpt>
      <trkpt lat="45.61312" lon="5.29985">
        <ele>292</ele>
        <time>2021-04-03T11:54:45.588Z</time>
      </trkpt>
      <trkpt lat="45.61309" lon="5.29992">
        <ele>293</ele>
        <time>2021-04-03T11:54:46.588Z</time>
      </trkpt>
      <trkpt lat="45.61307" lon="5.29998">
        <ele>293</ele>
        <time>2021-04-03T11:54:47.588Z</time>
      </trkpt>
      <trkpt lat="45.61304" lon="5.30005">
        <ele>294</ele>
        <time>2021-04-03T11:54:48.588Z</time>
      </trkpt>
      <trkpt lat="45.61302" lon="5.30012">
        <ele>294</ele>
        <time>2021-04-03T11:54:49.588Z</time>
      </trkpt>
      <trkpt lat="45.61299" lon="5.30019">
        <ele>295</ele>
        <time>2021-04-03T11:54:50.588Z</time>
      </trkpt>
      <trkpt lat="45.61297" lon="5.30026">
        <ele>295</ele>
        <time>2021-04-03T11:54:51.588Z</time>
      </trkpt>
      <trkpt lat="45.61295" lon="5.30034">
        <ele>295</ele>
        <time>2021-04-03T11:54:52.588Z</time>
      </trkpt>
      <trkpt lat="45.61294" lon="5.30041">
        <ele>296</ele>
        <time>2021-04-03T11:54:53.588Z</time>
      </trkpt>
      <trkpt lat="45.61292" lon="5.30048">
        <ele>296</ele>
        <time>2021-04-03T11:54:54.588Z</time>
      </trkpt>
      <trkpt lat="45.61291" lon="5.30056">
        <ele>297</ele>
        <time>2021-04-03T11:54:55.587Z</time>
      </trkpt>
      <trkpt lat="45.61289" lon="5.30063">
        <ele>297</ele>
        <time>2021-04-03T11:54:56.588Z</time>
      </trkpt>
      <trkpt lat="45.61288" lon="5.3007">
        <ele>297</ele>
        <time>2021-04-03T11:54:57.588Z</time>
      </trkpt>
      <trkpt lat="45.61286" lon="5.30077">
        <ele>297</ele>
        <time>2021-04-03T11:54:58.588Z</time>
      </trkpt>
      <trkpt lat="45.61285" lon="5.30084">
        <ele>297</ele>
        <time>2021-04-03T11:54:59.588Z</time>
      </trkpt>
      <trkpt lat="45.61285" lon="5.30092">
        <ele>297</ele>
        <time>2021-04-03T11:55:00.587Z</time>
      </trkpt>
      <trkpt lat="45.61284" lon="5.30098">
        <ele>297</ele>
        <time>2021-04-03T11:55:01.588Z</time>
      </trkpt>
      <trkpt lat="45.61283" lon="5.30106">
        <ele>297</ele>
        <time>2021-04-03T11:55:02.588Z</time>
      </trkpt>
      <trkpt lat="45.61282" lon="5.30113">
        <ele>297</ele>
        <time>2021-04-03T11:55:03.588Z</time>
      </trkpt>
      <trkpt lat="45.61282" lon="5.3012">
        <ele>297</ele>
        <time>2021-04-03T11:55:04.588Z</time>
      </trkpt>
      <trkpt lat="45.61281" lon="5.30127">
        <ele>298</ele>
        <time>2021-04-03T11:55:05.588Z</time>
      </trkpt>
      <trkpt lat="45.6128" lon="5.30134">
        <ele>298</ele>
        <time>2021-04-03T11:55:06.588Z</time>
      </trkpt>
      <trkpt lat="45.61279" lon="5.30141">
        <ele>299</ele>
        <time>2021-04-03T11:55:07.587Z</time>
      </trkpt>
      <trkpt lat="45.61279" lon="5.30148">
        <ele>299</ele>
        <time>2021-04-03T11:55:08.587Z</time>
      </trkpt>
      <trkpt lat="45.61278" lon="5.30155">
        <ele>300</ele>
        <time>2021-04-03T11:55:09.588Z</time>
      </trkpt>
      <trkpt lat="45.61277" lon="5.30162">
        <ele>300</ele>
        <time>2021-04-03T11:55:10.588Z</time>
      </trkpt>
      <trkpt lat="45.61276" lon="5.30168">
        <ele>300</ele>
        <time>2021-04-03T11:55:11.587Z</time>
      </trkpt>
      <trkpt lat="45.61275" lon="5.30175">
        <ele>300</ele>
        <time>2021-04-03T11:55:12.588Z</time>
      </trkpt>
      <trkpt lat="45.61274" lon="5.30181">
        <ele>300</ele>
        <time>2021-04-03T11:55:13.587Z</time>
      </trkpt>
      <trkpt lat="45.61273" lon="5.30187">
        <ele>300</ele>
        <time>2021-04-03T11:55:14.587Z</time>
      </trkpt>
      <trkpt lat="45.61272" lon="5.30193">
        <ele>300</ele>
        <time>2021-04-03T11:55:15.587Z</time>
      </trkpt>
      <trkpt lat="45.61271" lon="5.30198">
        <ele>301</ele>
        <time>2021-04-03T11:55:16.587Z</time>
      </trkpt>
      <trkpt lat="45.61269" lon="5.30204">
        <ele>302</ele>
        <time>2021-04-03T11:55:17.588Z</time>
      </trkpt>
      <trkpt lat="45.61268" lon="5.30209">
        <ele>302</ele>
        <time>2021-04-03T11:55:18.588Z</time>
      </trkpt>
      <trkpt lat="45.61266" lon="5.30214">
        <ele>303</ele>
        <time>2021-04-03T11:55:19.588Z</time>
      </trkpt>
      <trkpt lat="45.61264" lon="5.30218">
        <ele>303</ele>
        <time>2021-04-03T11:55:20.587Z</time>
      </trkpt>
      <trkpt lat="45.61261" lon="5.30225">
        <ele>304</ele>
        <time>2021-04-03T11:55:21.587Z</time>
      </trkpt>
      <trkpt lat="45.61259" lon="5.3023">
        <ele>304</ele>
        <time>2021-04-03T11:55:22.588Z</time>
      </trkpt>
      <trkpt lat="45.61257" lon="5.30237">
        <ele>305</ele>
        <time>2021-04-03T11:55:23.588Z</time>
      </trkpt>
      <trkpt lat="45.61255" lon="5.30243">
        <ele>305</ele>
        <time>2021-04-03T11:55:24.587Z</time>
      </trkpt>
      <trkpt lat="45.61252" lon="5.3025">
        <ele>305</ele>
        <time>2021-04-03T11:55:25.588Z</time>
      </trkpt>
      <trkpt lat="45.61249" lon="5.30259">
        <ele>305</ele>
        <time>2021-04-03T11:55:26.588Z</time>
      </trkpt>
      <trkpt lat="45.61246" lon="5.30265">
        <ele>305</ele>
        <time>2021-04-03T11:55:27.587Z</time>
      </trkpt>
      <trkpt lat="45.61243" lon="5.30273">
        <ele>305</ele>
        <time>2021-04-03T11:55:28.587Z</time>
      </trkpt>
      <trkpt lat="45.6124" lon="5.3028">
        <ele>305</ele>
        <time>2021-04-03T11:55:29.587Z</time>
      </trkpt>
      <trkpt lat="45.61237" lon="5.3029">
        <ele>305</ele>
        <time>2021-04-03T11:55:30.588Z</time>
      </trkpt>
      <trkpt lat="45.61234" lon="5.30298">
        <ele>305</ele>
        <time>2021-04-03T11:55:31.587Z</time>
      </trkpt>
      <trkpt lat="45.61231" lon="5.30307">
        <ele>305</ele>
        <time>2021-04-03T11:55:32.588Z</time>
      </trkpt>
      <trkpt lat="45.61228" lon="5.30314">
        <ele>304</ele>
        <time>2021-04-03T11:55:33.587Z</time>
      </trkpt>
      <trkpt lat="45.61224" lon="5.30324">
        <ele>304</ele>
        <time>2021-04-03T11:55:34.588Z</time>
      </trkpt>
      <trkpt lat="45.61221" lon="5.30333">
        <ele>303</ele>
        <time>2021-04-03T11:55:35.587Z</time>
      </trkpt>
      <trkpt lat="45.61218" lon="5.30341">
        <ele>303</ele>
        <time>2021-04-03T11:55:36.588Z</time>
      </trkpt>
      <trkpt lat="45.61215" lon="5.3035">
        <ele>302</ele>
        <time>2021-04-03T11:55:37.588Z</time>
      </trkpt>
      <trkpt lat="45.61213" lon="5.30357">
        <ele>302</ele>
        <time>2021-04-03T11:55:38.588Z</time>
      </trkpt>
      <trkpt lat="45.6121" lon="5.30367">
        <ele>302</ele>
        <time>2021-04-03T11:55:39.588Z</time>
      </trkpt>
      <trkpt lat="45.61208" lon="5.30376">
        <ele>302</ele>
        <time>2021-04-03T11:55:40.588Z</time>
      </trkpt>
      <trkpt lat="45.61206" lon="5.30385">
        <ele>302</ele>
        <time>2021-04-03T11:55:41.588Z</time>
      </trkpt>
      <trkpt lat="45.61205" lon="5.30392">
        <ele>302</ele>
        <time>2021-04-03T11:55:42.588Z</time>
      </trkpt>
      <trkpt lat="45.61203" lon="5.304">
        <ele>302</ele>
        <time>2021-04-03T11:55:43.588Z</time>
      </trkpt>
      <trkpt lat="45.61201" lon="5.3041">
        <ele>302</ele>
        <time>2021-04-03T11:55:44.588Z</time>
      </trkpt>
      <trkpt lat="45.612" lon="5.30419">
        <ele>302</ele>
        <time>2021-04-03T11:55:45.587Z</time>
      </trkpt>
      <trkpt lat="45.612" lon="5.30426">
        <ele>303</ele>
        <time>2021-04-03T11:55:46.588Z</time>
      </trkpt>
      <trkpt lat="45.61199" lon="5.30435">
        <ele>303</ele>
        <time>2021-04-03T11:55:47.588Z</time>
      </trkpt>
      <trkpt lat="45.61197" lon="5.30445">
        <ele>303</ele>
        <time>2021-04-03T11:55:48.587Z</time>
      </trkpt>
      <trkpt lat="45.61196" lon="5.30453">
        <ele>304</ele>
        <time>2021-04-03T11:55:49.587Z</time>
      </trkpt>
      <trkpt lat="45.61194" lon="5.30461">
        <ele>304</ele>
        <time>2021-04-03T11:55:50.588Z</time>
      </trkpt>
      <trkpt lat="45.61193" lon="5.30469">
        <ele>305</ele>
        <time>2021-04-03T11:55:51.588Z</time>
      </trkpt>
      <trkpt lat="45.61191" lon="5.30476">
        <ele>305</ele>
        <time>2021-04-03T11:55:52.588Z</time>
      </trkpt>
      <trkpt lat="45.6119" lon="5.30485">
        <ele>305</ele>
        <time>2021-04-03T11:55:53.587Z</time>
      </trkpt>
      <trkpt lat="45.61188" lon="5.30493">
        <ele>305</ele>
        <time>2021-04-03T11:55:54.587Z</time>
      </trkpt>
      <trkpt lat="45.61187" lon="5.30501">
        <ele>305</ele>
        <time>2021-04-03T11:55:55.588Z</time>
      </trkpt>
      <trkpt lat="45.61185" lon="5.30508">
        <ele>306</ele>
        <time>2021-04-03T11:55:56.587Z</time>
      </trkpt>
      <trkpt lat="45.61184" lon="5.30515">
        <ele>307</ele>
        <time>2021-04-03T11:55:57.587Z</time>
      </trkpt>
      <trkpt lat="45.61182" lon="5.30524">
        <ele>307</ele>
        <time>2021-04-03T11:55:58.587Z</time>
      </trkpt>
      <trkpt lat="45.61181" lon="5.30532">
        <ele>307</ele>
        <time>2021-04-03T11:55:59.588Z</time>
      </trkpt>
      <trkpt lat="45.61179" lon="5.30539">
        <ele>308</ele>
        <time>2021-04-03T11:56:00.587Z</time>
      </trkpt>
      <trkpt lat="45.61177" lon="5.30547">
        <ele>308</ele>
        <time>2021-04-03T11:56:01.588Z</time>
      </trkpt>
      <trkpt lat="45.61176" lon="5.30556">
        <ele>308</ele>
        <time>2021-04-03T11:56:02.587Z</time>
      </trkpt>
      <trkpt lat="45.61175" lon="5.30564">
        <ele>307</ele>
        <time>2021-04-03T11:56:03.588Z</time>
      </trkpt>
      <trkpt lat="45.61174" lon="5.30572">
        <ele>307</ele>
        <time>2021-04-03T11:56:04.587Z</time>
      </trkpt>
      <trkpt lat="45.61174" lon="5.30581">
        <ele>307</ele>
        <time>2021-04-03T11:56:05.587Z</time>
      </trkpt>
      <trkpt lat="45.61174" lon="5.30589">
        <ele>308</ele>
        <time>2021-04-03T11:56:06.588Z</time>
      </trkpt>
      <trkpt lat="45.61174" lon="5.30598">
        <ele>308</ele>
        <time>2021-04-03T11:56:07.588Z</time>
      </trkpt>
      <trkpt lat="45.61175" lon="5.30606">
        <ele>308</ele>
        <time>2021-04-03T11:56:08.588Z</time>
      </trkpt>
      <trkpt lat="45.61175" lon="5.30615">
        <ele>308</ele>
        <time>2021-04-03T11:56:09.587Z</time>
      </trkpt>
      <trkpt lat="45.61176" lon="5.30622">
        <ele>308</ele>
        <time>2021-04-03T11:56:10.587Z</time>
      </trkpt>
      <trkpt lat="45.61176" lon="5.30633">
        <ele>308</ele>
        <time>2021-04-03T11:56:11.587Z</time>
      </trkpt>
      <trkpt lat="45.61176" lon="5.30642">
        <ele>307</ele>
        <time>2021-04-03T11:56:12.587Z</time>
      </trkpt>
      <trkpt lat="45.61177" lon="5.30651">
        <ele>307</ele>
        <time>2021-04-03T11:56:13.587Z</time>
      </trkpt>
      <trkpt lat="45.61176" lon="5.3066">
        <ele>308</ele>
        <time>2021-04-03T11:56:14.587Z</time>
      </trkpt>
      <trkpt lat="45.61176" lon="5.30667">
        <ele>308</ele>
        <time>2021-04-03T11:56:15.588Z</time>
      </trkpt>
      <trkpt lat="45.61176" lon="5.30678">
        <ele>308</ele>
        <time>2021-04-03T11:56:16.588Z</time>
      </trkpt>
      <trkpt lat="45.61175" lon="5.30687">
        <ele>308</ele>
        <time>2021-04-03T11:56:17.588Z</time>
      </trkpt>
      <trkpt lat="45.61174" lon="5.30696">
        <ele>308</ele>
        <time>2021-04-03T11:56:18.587Z</time>
      </trkpt>
      <trkpt lat="45.61174" lon="5.30705">
        <ele>308</ele>
        <time>2021-04-03T11:56:19.588Z</time>
      </trkpt>
      <trkpt lat="45.61173" lon="5.30712">
        <ele>308</ele>
        <time>2021-04-03T11:56:20.588Z</time>
      </trkpt>
      <trkpt lat="45.61172" lon="5.30723">
        <ele>309</ele>
        <time>2021-04-03T11:56:21.588Z</time>
      </trkpt>
      <trkpt lat="45.61171" lon="5.30732">
        <ele>309</ele>
        <time>2021-04-03T11:56:22.588Z</time>
      </trkpt>
      <trkpt lat="45.6117" lon="5.30741">
        <ele>309</ele>
        <time>2021-04-03T11:56:23.588Z</time>
      </trkpt>
      <trkpt lat="45.6117" lon="5.3075">
        <ele>309</ele>
        <time>2021-04-03T11:56:24.587Z</time>
      </trkpt>
      <trkpt lat="45.61169" lon="5.30757">
        <ele>309</ele>
        <time>2021-04-03T11:56:25.587Z</time>
      </trkpt>
      <trkpt lat="45.61168" lon="5.30767">
        <ele>309</ele>
        <time>2021-04-03T11:56:26.587Z</time>
      </trkpt>
      <trkpt lat="45.61167" lon="5.30776">
        <ele>309</ele>
        <time>2021-04-03T11:56:27.587Z</time>
      </trkpt>
      <trkpt lat="45.61166" lon="5.30784">
        <ele>309</ele>
        <time>2021-04-03T11:56:28.588Z</time>
      </trkpt>
      <trkpt lat="45.61165" lon="5.30791">
        <ele>310</ele>
        <time>2021-04-03T11:56:29.588Z</time>
      </trkpt>
      <trkpt lat="45.61164" lon="5.30799">
        <ele>310</ele>
        <time>2021-04-03T11:56:30.587Z</time>
      </trkpt>
      <trkpt lat="45.61163" lon="5.3081">
        <ele>310</ele>
        <time>2021-04-03T11:56:31.588Z</time>
      </trkpt>
      <trkpt lat="45.61162" lon="5.30818">
        <ele>311</ele>
        <time>2021-04-03T11:56:32.588Z</time>
      </trkpt>
      <trkpt lat="45.61161" lon="5.30827">
        <ele>311</ele>
        <time>2021-04-03T11:56:33.588Z</time>
      </trkpt>
      <trkpt lat="45.6116" lon="5.30835">
        <ele>311</ele>
        <time>2021-04-03T11:56:34.588Z</time>
      </trkpt>
      <trkpt lat="45.6116" lon="5.30842">
        <ele>311</ele>
        <time>2021-04-03T11:56:35.588Z</time>
      </trkpt>
      <trkpt lat="45.61159" lon="5.30852">
        <ele>312</ele>
        <time>2021-04-03T11:56:36.588Z</time>
      </trkpt>
      <trkpt lat="45.61158" lon="5.3086">
        <ele>312</ele>
        <time>2021-04-03T11:56:37.587Z</time>
      </trkpt>
      <trkpt lat="45.61157" lon="5.30867">
        <ele>312</ele>
        <time>2021-04-03T11:56:38.588Z</time>
      </trkpt>
      <trkpt lat="45.61156" lon="5.30874">
        <ele>312</ele>
        <time>2021-04-03T11:56:39.588Z</time>
      </trkpt>
      <trkpt lat="45.61155" lon="5.30883">
        <ele>312</ele>
        <time>2021-04-03T11:56:40.587Z</time>
      </trkpt>
      <trkpt lat="45.61154" lon="5.30891">
        <ele>312</ele>
        <time>2021-04-03T11:56:41.588Z</time>
      </trkpt>
      <trkpt lat="45.61153" lon="5.30898">
        <ele>313</ele>
        <time>2021-04-03T11:56:42.588Z</time>
      </trkpt>
      <trkpt lat="45.61153" lon="5.30905">
        <ele>313</ele>
        <time>2021-04-03T11:56:43.588Z</time>
      </trkpt>
      <trkpt lat="45.61153" lon="5.30911">
        <ele>313</ele>
        <time>2021-04-03T11:56:44.588Z</time>
      </trkpt>
      <trkpt lat="45.61154" lon="5.3092">
        <ele>314</ele>
        <time>2021-04-03T11:56:45.587Z</time>
      </trkpt>
      <trkpt lat="45.61156" lon="5.30928">
        <ele>314</ele>
        <time>2021-04-03T11:56:46.588Z</time>
      </trkpt>
      <trkpt lat="45.61158" lon="5.30935">
        <ele>315</ele>
        <time>2021-04-03T11:56:47.587Z</time>
      </trkpt>
      <trkpt lat="45.6116" lon="5.3094">
        <ele>315</ele>
        <time>2021-04-03T11:56:48.588Z</time>
      </trkpt>
      <trkpt lat="45.61163" lon="5.30949">
        <ele>315</ele>
        <time>2021-04-03T11:56:49.588Z</time>
      </trkpt>
      <trkpt lat="45.61165" lon="5.30957">
        <ele>315</ele>
        <time>2021-04-03T11:56:50.587Z</time>
      </trkpt>
      <trkpt lat="45.61167" lon="5.30964">
        <ele>315</ele>
        <time>2021-04-03T11:56:51.588Z</time>
      </trkpt>
      <trkpt lat="45.61169" lon="5.30972">
        <ele>316</ele>
        <time>2021-04-03T11:56:52.587Z</time>
      </trkpt>
      <trkpt lat="45.6117" lon="5.3098">
        <ele>316</ele>
        <time>2021-04-03T11:56:53.588Z</time>
      </trkpt>
      <trkpt lat="45.61172" lon="5.30988">
        <ele>316</ele>
        <time>2021-04-03T11:56:54.587Z</time>
      </trkpt>
      <trkpt lat="45.61172" lon="5.30996">
        <ele>317</ele>
        <time>2021-04-03T11:56:55.588Z</time>
      </trkpt>
      <trkpt lat="45.61173" lon="5.31005">
        <ele>317</ele>
        <time>2021-04-03T11:56:56.588Z</time>
      </trkpt>
      <trkpt lat="45.61173" lon="5.31013">
        <ele>317</ele>
        <time>2021-04-03T11:56:57.588Z</time>
      </trkpt>
      <trkpt lat="45.61174" lon="5.3102">
        <ele>317</ele>
        <time>2021-04-03T11:56:58.588Z</time>
      </trkpt>
      <trkpt lat="45.61174" lon="5.31029">
        <ele>318</ele>
        <time>2021-04-03T11:56:59.588Z</time>
      </trkpt>
      <trkpt lat="45.61174" lon="5.31038">
        <ele>318</ele>
        <time>2021-04-03T11:57:00.588Z</time>
      </trkpt>
      <trkpt lat="45.61174" lon="5.31044">
        <ele>318</ele>
        <time>2021-04-03T11:57:01.588Z</time>
      </trkpt>
      <trkpt lat="45.61174" lon="5.31052">
        <ele>318</ele>
        <time>2021-04-03T11:57:02.588Z</time>
      </trkpt>
      <trkpt lat="45.61174" lon="5.31062">
        <ele>318</ele>
        <time>2021-04-03T11:57:03.588Z</time>
      </trkpt>
      <trkpt lat="45.61174" lon="5.3107">
        <ele>318</ele>
        <time>2021-04-03T11:57:04.588Z</time>
      </trkpt>
      <trkpt lat="45.61174" lon="5.31078">
        <ele>319</ele>
        <time>2021-04-03T11:57:05.588Z</time>
      </trkpt>
      <trkpt lat="45.61174" lon="5.31086">
        <ele>319</ele>
        <time>2021-04-03T11:57:06.587Z</time>
      </trkpt>
      <trkpt lat="45.61173" lon="5.31094">
        <ele>319</ele>
        <time>2021-04-03T11:57:07.587Z</time>
      </trkpt>
      <trkpt lat="45.61173" lon="5.31102">
        <ele>319</ele>
        <time>2021-04-03T11:57:08.588Z</time>
      </trkpt>
      <trkpt lat="45.61173" lon="5.31109">
        <ele>319</ele>
        <time>2021-04-03T11:57:09.588Z</time>
      </trkpt>
      <trkpt lat="45.61173" lon="5.31117">
        <ele>318</ele>
        <time>2021-04-03T11:57:10.588Z</time>
      </trkpt>
      <trkpt lat="45.61174" lon="5.31123">
        <ele>318</ele>
        <time>2021-04-03T11:57:11.588Z</time>
      </trkpt>
      <trkpt lat="45.61174" lon="5.3113">
        <ele>319</ele>
        <time>2021-04-03T11:57:12.587Z</time>
      </trkpt>
      <trkpt lat="45.61175" lon="5.31139">
        <ele>319</ele>
        <time>2021-04-03T11:57:13.588Z</time>
      </trkpt>
      <trkpt lat="45.61175" lon="5.31147">
        <ele>319</ele>
        <time>2021-04-03T11:57:14.588Z</time>
      </trkpt>
      <trkpt lat="45.61175" lon="5.31154">
        <ele>320</ele>
        <time>2021-04-03T11:57:15.588Z</time>
      </trkpt>
      <trkpt lat="45.61175" lon="5.31162">
        <ele>320</ele>
        <time>2021-04-03T11:57:16.588Z</time>
      </trkpt>
      <trkpt lat="45.61176" lon="5.31169">
        <ele>320</ele>
        <time>2021-04-03T11:57:17.588Z</time>
      </trkpt>
      <trkpt lat="45.61176" lon="5.31177">
        <ele>321</ele>
        <time>2021-04-03T11:57:18.588Z</time>
      </trkpt>
      <trkpt lat="45.61176" lon="5.31184">
        <ele>321</ele>
        <time>2021-04-03T11:57:19.588Z</time>
      </trkpt>
      <trkpt lat="45.61176" lon="5.3119">
        <ele>321</ele>
        <time>2021-04-03T11:57:20.588Z</time>
      </trkpt>
      <trkpt lat="45.61176" lon="5.31198">
        <ele>321</ele>
        <time>2021-04-03T11:57:21.588Z</time>
      </trkpt>
      <trkpt lat="45.61176" lon="5.31206">
        <ele>322</ele>
        <time>2021-04-03T11:57:22.588Z</time>
      </trkpt>
      <trkpt lat="45.61175" lon="5.31213">
        <ele>322</ele>
        <time>2021-04-03T11:57:23.588Z</time>
      </trkpt>
      <trkpt lat="45.61174" lon="5.3122">
        <ele>322</ele>
        <time>2021-04-03T11:57:24.588Z</time>
      </trkpt>
      <trkpt lat="45.61172" lon="5.31226">
        <ele>322</ele>
        <time>2021-04-03T11:57:25.587Z</time>
      </trkpt>
      <trkpt lat="45.6117" lon="5.31232">
        <ele>322</ele>
        <time>2021-04-03T11:57:26.588Z</time>
      </trkpt>
      <trkpt lat="45.61167" lon="5.31236">
        <ele>323</ele>
        <time>2021-04-03T11:57:27.588Z</time>
      </trkpt>
      <trkpt lat="45.61164" lon="5.3124">
        <ele>323</ele>
        <time>2021-04-03T11:57:28.588Z</time>
      </trkpt>
      <trkpt lat="45.61162" lon="5.31243">
        <ele>324</ele>
        <time>2021-04-03T11:57:29.588Z</time>
      </trkpt>
      <trkpt lat="45.61163" lon="5.31244">
        <ele>324</ele>
        <time>2021-04-03T11:57:30.588Z</time>
      </trkpt>
      <trkpt lat="45.61164" lon="5.31243">
        <ele>324</ele>
        <time>2021-04-03T11:57:31.588Z</time>
      </trkpt>
      <trkpt lat="45.61165" lon="5.31241">
        <ele>324</ele>
        <time>2021-04-03T11:57:32.587Z</time>
      </trkpt>
      <trkpt lat="45.61167" lon="5.31237">
        <ele>324</ele>
        <time>2021-04-03T11:57:33.588Z</time>
      </trkpt>
      <trkpt lat="45.61169" lon="5.31232">
        <ele>323</ele>
        <time>2021-04-03T11:57:34.588Z</time>
      </trkpt>
      <trkpt lat="45.61171" lon="5.31226">
        <ele>323</ele>
        <time>2021-04-03T11:57:35.588Z</time>
      </trkpt>
      <trkpt lat="45.61174" lon="5.3122">
        <ele>323</ele>
        <time>2021-04-03T11:57:36.588Z</time>
      </trkpt>
      <trkpt lat="45.61175" lon="5.31212">
        <ele>323</ele>
        <time>2021-04-03T11:57:37.587Z</time>
      </trkpt>
      <trkpt lat="45.61177" lon="5.31204">
        <ele>323</ele>
        <time>2021-04-03T11:57:38.588Z</time>
      </trkpt>
      <trkpt lat="45.61177" lon="5.31195">
        <ele>323</ele>
        <time>2021-04-03T11:57:39.588Z</time>
      </trkpt>
      <trkpt lat="45.61178" lon="5.31185">
        <ele>323</ele>
        <time>2021-04-03T11:57:40.588Z</time>
      </trkpt>
      <trkpt lat="45.61177" lon="5.31175">
        <ele>323</ele>
        <time>2021-04-03T11:57:41.588Z</time>
      </trkpt>
      <trkpt lat="45.61177" lon="5.31164">
        <ele>323</ele>
        <time>2021-04-03T11:57:42.588Z</time>
      </trkpt>
      <trkpt lat="45.61176" lon="5.31153">
        <ele>323</ele>
        <time>2021-04-03T11:57:43.588Z</time>
      </trkpt>
      <trkpt lat="45.61176" lon="5.31142">
        <ele>323</ele>
        <time>2021-04-03T11:57:44.588Z</time>
      </trkpt>
      <trkpt lat="45.61175" lon="5.31131">
        <ele>323</ele>
        <time>2021-04-03T11:57:45.588Z</time>
      </trkpt>
      <trkpt lat="45.61175" lon="5.3112">
        <ele>322</ele>
        <time>2021-04-03T11:57:46.588Z</time>
      </trkpt>
      <trkpt lat="45.61175" lon="5.31109">
        <ele>322</ele>
        <time>2021-04-03T11:57:47.588Z</time>
      </trkpt>
      <trkpt lat="45.61175" lon="5.31098">
        <ele>321</ele>
        <time>2021-04-03T11:57:48.588Z</time>
      </trkpt>
      <trkpt lat="45.61175" lon="5.31086">
        <ele>321</ele>
        <time>2021-04-03T11:57:49.588Z</time>
      </trkpt>
      <trkpt lat="45.61175" lon="5.31075">
        <ele>320</ele>
        <time>2021-04-03T11:57:50.588Z</time>
      </trkpt>
      <trkpt lat="45.61175" lon="5.31064">
        <ele>320</ele>
        <time>2021-04-03T11:57:51.588Z</time>
      </trkpt>
      <trkpt lat="45.61175" lon="5.31053">
        <ele>320</ele>
        <time>2021-04-03T11:57:52.588Z</time>
      </trkpt>
      <trkpt lat="45.61175" lon="5.31043">
        <ele>320</ele>
        <time>2021-04-03T11:57:53.588Z</time>
      </trkpt>
      <trkpt lat="45.61175" lon="5.3103">
        <ele>320</ele>
        <time>2021-04-03T11:57:54.587Z</time>
      </trkpt>
      <trkpt lat="45.61175" lon="5.31019">
        <ele>320</ele>
        <time>2021-04-03T11:57:55.588Z</time>
      </trkpt>
      <trkpt lat="45.61175" lon="5.3101">
        <ele>319</ele>
        <time>2021-04-03T11:57:56.588Z</time>
      </trkpt>
      <trkpt lat="45.61174" lon="5.30998">
        <ele>319</ele>
        <time>2021-04-03T11:57:57.587Z</time>
      </trkpt>
      <trkpt lat="45.61173" lon="5.30985">
        <ele>319</ele>
        <time>2021-04-03T11:57:58.587Z</time>
      </trkpt>
      <trkpt lat="45.61172" lon="5.30973">
        <ele>318</ele>
        <time>2021-04-03T11:57:59.588Z</time>
      </trkpt>
      <trkpt lat="45.6117" lon="5.30962">
        <ele>318</ele>
        <time>2021-04-03T11:58:00.588Z</time>
      </trkpt>
      <trkpt lat="45.61167" lon="5.30952">
        <ele>318</ele>
        <time>2021-04-03T11:58:01.588Z</time>
      </trkpt>
      <trkpt lat="45.61165" lon="5.30942">
        <ele>318</ele>
        <time>2021-04-03T11:58:02.587Z</time>
      </trkpt>
      <trkpt lat="45.61162" lon="5.30931">
        <ele>318</ele>
        <time>2021-04-03T11:58:03.588Z</time>
      </trkpt>
      <trkpt lat="45.6116" lon="5.30921">
        <ele>317</ele>
        <time>2021-04-03T11:58:04.588Z</time>
      </trkpt>
      <trkpt lat="45.61158" lon="5.30911">
        <ele>317</ele>
        <time>2021-04-03T11:58:05.588Z</time>
      </trkpt>
      <trkpt lat="45.61156" lon="5.309">
        <ele>317</ele>
        <time>2021-04-03T11:58:06.587Z</time>
      </trkpt>
      <trkpt lat="45.61156" lon="5.30889">
        <ele>316</ele>
        <time>2021-04-03T11:58:07.588Z</time>
      </trkpt>
      <trkpt lat="45.61156" lon="5.30877">
        <ele>316</ele>
        <time>2021-04-03T11:58:08.588Z</time>
      </trkpt>
      <trkpt lat="45.61157" lon="5.30866">
        <ele>316</ele>
        <time>2021-04-03T11:58:09.588Z</time>
      </trkpt>
      <trkpt lat="45.61158" lon="5.30854">
        <ele>316</ele>
        <time>2021-04-03T11:58:10.588Z</time>
      </trkpt>
      <trkpt lat="45.61159" lon="5.30842">
        <ele>316</ele>
        <time>2021-04-03T11:58:11.587Z</time>
      </trkpt>
      <trkpt lat="45.61161" lon="5.3083">
        <ele>315</ele>
        <time>2021-04-03T11:58:12.588Z</time>
      </trkpt>
      <trkpt lat="45.61162" lon="5.30818">
        <ele>315</ele>
        <time>2021-04-03T11:58:13.588Z</time>
      </trkpt>
      <trkpt lat="45.61163" lon="5.30808">
        <ele>314</ele>
        <time>2021-04-03T11:58:14.588Z</time>
      </trkpt>
      <trkpt lat="45.61164" lon="5.30796">
        <ele>314</ele>
        <time>2021-04-03T11:58:15.587Z</time>
      </trkpt>
      <trkpt lat="45.61166" lon="5.30781">
        <ele>314</ele>
        <time>2021-04-03T11:58:16.588Z</time>
      </trkpt>
      <trkpt lat="45.61168" lon="5.3077">
        <ele>314</ele>
        <time>2021-04-03T11:58:17.587Z</time>
      </trkpt>
      <trkpt lat="45.61169" lon="5.30759">
        <ele>314</ele>
        <time>2021-04-03T11:58:18.588Z</time>
      </trkpt>
      <trkpt lat="45.61169" lon="5.30752">
        <ele>314</ele>
        <time>2021-04-03T11:58:19.588Z</time>
      </trkpt>
      <trkpt lat="45.6117" lon="5.30743">
        <ele>314</ele>
        <time>2021-04-03T11:58:20.587Z</time>
      </trkpt>
      <trkpt lat="45.61171" lon="5.30734">
        <ele>313</ele>
        <time>2021-04-03T11:58:21.587Z</time>
      </trkpt>
      <trkpt lat="45.61172" lon="5.30727">
        <ele>313</ele>
        <time>2021-04-03T11:58:22.588Z</time>
      </trkpt>
      <trkpt lat="45.61173" lon="5.30721">
        <ele>312</ele>
        <time>2021-04-03T11:58:23.587Z</time>
      </trkpt>
      <trkpt lat="45.61174" lon="5.30717">
        <ele>312</ele>
        <time>2021-04-03T11:58:24.588Z</time>
      </trkpt>
      <trkpt lat="45.61174" lon="5.30713">
        <ele>312</ele>
        <time>2021-04-03T11:58:25.588Z</time>
      </trkpt>
      <trkpt lat="45.61174" lon="5.30711">
        <ele>312</ele>
        <time>2021-04-03T11:58:26.588Z</time>
      </trkpt>
      <trkpt lat="45.61174" lon="5.30711">
        <ele>312</ele>
        <time>2021-04-03T11:58:27.587Z</time>
      </trkpt>
      <trkpt lat="45.61173" lon="5.30713">
        <ele>311</ele>
        <time>2021-04-03T11:58:28.588Z</time>
      </trkpt>
      <trkpt lat="45.61173" lon="5.30716">
        <ele>311</ele>
        <time>2021-04-03T11:58:29.588Z</time>
      </trkpt>
      <trkpt lat="45.61173" lon="5.3072">
        <ele>311</ele>
        <time>2021-04-03T11:58:30.588Z</time>
      </trkpt>
      <trkpt lat="45.61173" lon="5.30725">
        <ele>311</ele>
        <time>2021-04-03T11:58:31.587Z</time>
      </trkpt>
      <trkpt lat="45.61172" lon="5.30732">
        <ele>311</ele>
        <time>2021-04-03T11:58:32.588Z</time>
      </trkpt>
      <trkpt lat="45.61171" lon="5.30738">
        <ele>310</ele>
        <time>2021-04-03T11:58:33.588Z</time>
      </trkpt>
      <trkpt lat="45.6117" lon="5.30746">
        <ele>310</ele>
        <time>2021-04-03T11:58:34.588Z</time>
      </trkpt>
      <trkpt lat="45.61169" lon="5.30754">
        <ele>309</ele>
        <time>2021-04-03T11:58:35.588Z</time>
      </trkpt>
      <trkpt lat="45.61167" lon="5.30763">
        <ele>309</ele>
        <time>2021-04-03T11:58:36.588Z</time>
      </trkpt>
      <trkpt lat="45.61166" lon="5.30773">
        <ele>309</ele>
        <time>2021-04-03T11:58:37.588Z</time>
      </trkpt>
      <trkpt lat="45.61165" lon="5.30784">
        <ele>309</ele>
        <time>2021-04-03T11:58:38.588Z</time>
      </trkpt>
      <trkpt lat="45.61164" lon="5.30794">
        <ele>309</ele>
        <time>2021-04-03T11:58:39.588Z</time>
      </trkpt>
      <trkpt lat="45.61163" lon="5.30804">
        <ele>309</ele>
        <time>2021-04-03T11:58:40.587Z</time>
      </trkpt>
      <trkpt lat="45.61161" lon="5.30813">
        <ele>309</ele>
        <time>2021-04-03T11:58:41.588Z</time>
      </trkpt>
      <trkpt lat="45.61161" lon="5.30823">
        <ele>309</ele>
        <time>2021-04-03T11:58:42.588Z</time>
      </trkpt>
      <trkpt lat="45.6116" lon="5.30832">
        <ele>310</ele>
        <time>2021-04-03T11:58:43.588Z</time>
      </trkpt>
      <trkpt lat="45.61159" lon="5.3084">
        <ele>309</ele>
        <time>2021-04-03T11:58:44.588Z</time>
      </trkpt>
      <trkpt lat="45.61158" lon="5.30848">
        <ele>309</ele>
        <time>2021-04-03T11:58:45.588Z</time>
      </trkpt>
      <trkpt lat="45.61158" lon="5.30856">
        <ele>309</ele>
        <time>2021-04-03T11:58:46.588Z</time>
      </trkpt>
      <trkpt lat="45.61157" lon="5.30864">
        <ele>309</ele>
        <time>2021-04-03T11:58:47.588Z</time>
      </trkpt>
      <trkpt lat="45.61156" lon="5.30871">
        <ele>309</ele>
        <time>2021-04-03T11:58:48.588Z</time>
      </trkpt>
      <trkpt lat="45.61156" lon="5.30878">
        <ele>309</ele>
        <time>2021-04-03T11:58:49.588Z</time>
      </trkpt>
      <trkpt lat="45.61156" lon="5.30885">
        <ele>309</ele>
        <time>2021-04-03T11:58:50.588Z</time>
      </trkpt>
      <trkpt lat="45.61155" lon="5.30892">
        <ele>309</ele>
        <time>2021-04-03T11:58:51.587Z</time>
      </trkpt>
      <trkpt lat="45.61155" lon="5.30899">
        <ele>309</ele>
        <time>2021-04-03T11:58:52.587Z</time>
      </trkpt>
      <trkpt lat="45.61155" lon="5.30906">
        <ele>310</ele>
        <time>2021-04-03T11:58:53.587Z</time>
      </trkpt>
      <trkpt lat="45.61155" lon="5.30913">
        <ele>311</ele>
        <time>2021-04-03T11:58:54.588Z</time>
      </trkpt>
      <trkpt lat="45.61156" lon="5.30919">
        <ele>311</ele>
        <time>2021-04-03T11:58:55.588Z</time>
      </trkpt>
      <trkpt lat="45.61158" lon="5.30926">
        <ele>312</ele>
        <time>2021-04-03T11:58:56.587Z</time>
      </trkpt>
      <trkpt lat="45.6116" lon="5.30932">
        <ele>313</ele>
        <time>2021-04-03T11:58:57.588Z</time>
      </trkpt>
      <trkpt lat="45.61161" lon="5.30939">
        <ele>314</ele>
        <time>2021-04-03T11:58:58.588Z</time>
      </trkpt>
      <trkpt lat="45.61163" lon="5.30946">
        <ele>314</ele>
        <time>2021-04-03T11:58:59.587Z</time>
      </trkpt>
      <trkpt lat="45.61165" lon="5.30952">
        <ele>315</ele>
        <time>2021-04-03T11:59:00.588Z</time>
      </trkpt>
      <trkpt lat="45.61167" lon="5.30958">
        <ele>315</ele>
        <time>2021-04-03T11:59:01.588Z</time>
      </trkpt>
      <trkpt lat="45.61168" lon="5.30963">
        <ele>316</ele>
        <time>2021-04-03T11:59:02.587Z</time>
      </trkpt>
      <trkpt lat="45.6117" lon="5.30969">
        <ele>316</ele>
        <time>2021-04-03T11:59:03.588Z</time>
      </trkpt>
      <trkpt lat="45.61171" lon="5.30974">
        <ele>316</ele>
        <time>2021-04-03T11:59:04.588Z</time>
      </trkpt>
      <trkpt lat="45.61171" lon="5.30979">
        <ele>317</ele>
        <time>2021-04-03T11:59:05.588Z</time>
      </trkpt>
      <trkpt lat="45.61172" lon="5.30984">
        <ele>317</ele>
        <time>2021-04-03T11:59:06.587Z</time>
      </trkpt>
      <trkpt lat="45.61172" lon="5.30989">
        <ele>317</ele>
        <time>2021-04-03T11:59:07.588Z</time>
      </trkpt>
      <trkpt lat="45.61173" lon="5.30995">
        <ele>317</ele>
        <time>2021-04-03T11:59:08.588Z</time>
      </trkpt>
      <trkpt lat="45.61173" lon="5.31">
        <ele>317</ele>
        <time>2021-04-03T11:59:09.588Z</time>
      </trkpt>
      <trkpt lat="45.61174" lon="5.31005">
        <ele>317</ele>
        <time>2021-04-03T11:59:10.588Z</time>
      </trkpt>
      <trkpt lat="45.61174" lon="5.3101">
        <ele>317</ele>
        <time>2021-04-03T11:59:11.588Z</time>
      </trkpt>
      <trkpt lat="45.61174" lon="5.31016">
        <ele>317</ele>
        <time>2021-04-03T11:59:12.587Z</time>
      </trkpt>
      <trkpt lat="45.61175" lon="5.31021">
        <ele>317</ele>
        <time>2021-04-03T11:59:13.587Z</time>
      </trkpt>
      <trkpt lat="45.61175" lon="5.31027">
        <ele>317</ele>
        <time>2021-04-03T11:59:14.588Z</time>
      </trkpt>
      <trkpt lat="45.61175" lon="5.31032">
        <ele>317</ele>
        <time>2021-04-03T11:59:15.588Z</time>
      </trkpt>
      <trkpt lat="45.61174" lon="5.31038">
        <ele>317</ele>
        <time>2021-04-03T11:59:16.587Z</time>
      </trkpt>
      <trkpt lat="45.61174" lon="5.31043">
        <ele>317</ele>
        <time>2021-04-03T11:59:17.588Z</time>
      </trkpt>
      <trkpt lat="45.61175" lon="5.31048">
        <ele>317</ele>
        <time>2021-04-03T11:59:18.588Z</time>
      </trkpt>
      <trkpt lat="45.61175" lon="5.31053">
        <ele>318</ele>
        <time>2021-04-03T11:59:19.588Z</time>
      </trkpt>
      <trkpt lat="45.61175" lon="5.31058">
        <ele>318</ele>
        <time>2021-04-03T11:59:20.588Z</time>
      </trkpt>
      <trkpt lat="45.61175" lon="5.31063">
        <ele>318</ele>
        <time>2021-04-03T11:59:21.588Z</time>
      </trkpt>
      <trkpt lat="45.61175" lon="5.31067">
        <ele>318</ele>
        <time>2021-04-03T11:59:22.587Z</time>
      </trkpt>
      <trkpt lat="45.61174" lon="5.31072">
        <ele>318</ele>
        <time>2021-04-03T11:59:23.588Z</time>
      </trkpt>
      <trkpt lat="45.61174" lon="5.31077">
        <ele>318</ele>
        <time>2021-04-03T11:59:24.588Z</time>
      </trkpt>
      <trkpt lat="45.61174" lon="5.31081">
        <ele>318</ele>
        <time>2021-04-03T11:59:25.588Z</time>
      </trkpt>
      <trkpt lat="45.61175" lon="5.31086">
        <ele>319</ele>
        <time>2021-04-03T11:59:26.588Z</time>
      </trkpt>
      <trkpt lat="45.61174" lon="5.3109">
        <ele>320</ele>
        <time>2021-04-03T11:59:27.588Z</time>
      </trkpt>
      <trkpt lat="45.61175" lon="5.31095">
        <ele>320</ele>
        <time>2021-04-03T11:59:28.587Z</time>
      </trkpt>
      <trkpt lat="45.61175" lon="5.311">
        <ele>320</ele>
        <time>2021-04-03T11:59:29.587Z</time>
      </trkpt>
      <trkpt lat="45.61175" lon="5.31105">
        <ele>321</ele>
        <time>2021-04-03T11:59:30.588Z</time>
      </trkpt>
      <trkpt lat="45.61174" lon="5.3111">
        <ele>321</ele>
        <time>2021-04-03T11:59:31.587Z</time>
      </trkpt>
      <trkpt lat="45.61174" lon="5.31115">
        <ele>321</ele>
        <time>2021-04-03T11:59:32.588Z</time>
      </trkpt>
      <trkpt lat="45.61174" lon="5.3112">
        <ele>321</ele>
        <time>2021-04-03T11:59:33.587Z</time>
      </trkpt>
      <trkpt lat="45.61174" lon="5.31125">
        <ele>321</ele>
        <time>2021-04-03T11:59:34.588Z</time>
      </trkpt>
      <trkpt lat="45.61174" lon="5.3113">
        <ele>321</ele>
        <time>2021-04-03T11:59:35.587Z</time>
      </trkpt>
      <trkpt lat="45.61175" lon="5.31136">
        <ele>321</ele>
        <time>2021-04-03T11:59:36.587Z</time>
      </trkpt>
      <trkpt lat="45.61175" lon="5.31141">
        <ele>321</ele>
        <time>2021-04-03T11:59:37.588Z</time>
      </trkpt>
      <trkpt lat="45.61175" lon="5.31147">
        <ele>321</ele>
        <time>2021-04-03T11:59:38.588Z</time>
      </trkpt>
      <trkpt lat="45.61175" lon="5.31152">
        <ele>321</ele>
        <time>2021-04-03T11:59:39.588Z</time>
      </trkpt>
      <trkpt lat="45.61175" lon="5.31157">
        <ele>321</ele>
        <time>2021-04-03T11:59:40.588Z</time>
      </trkpt>
      <trkpt lat="45.61175" lon="5.31161">
        <ele>321</ele>
        <time>2021-04-03T11:59:41.588Z</time>
      </trkpt>
      <trkpt lat="45.61175" lon="5.31165">
        <ele>321</ele>
        <time>2021-04-03T11:59:42.587Z</time>
      </trkpt>
      <trkpt lat="45.61175" lon="5.31168">
        <ele>321</ele>
        <time>2021-04-03T11:59:43.588Z</time>
      </trkpt>
      <trkpt lat="45.61175" lon="5.31172">
        <ele>322</ele>
        <time>2021-04-03T11:59:44.587Z</time>
      </trkpt>
      <trkpt lat="45.61176" lon="5.31175">
        <ele>322</ele>
        <time>2021-04-03T11:59:45.587Z</time>
      </trkpt>
      <trkpt lat="45.61176" lon="5.31178">
        <ele>322</ele>
        <time>2021-04-03T11:59:46.588Z</time>
      </trkpt>
      <trkpt lat="45.61176" lon="5.31181">
        <ele>322</ele>
        <time>2021-04-03T11:59:47.588Z</time>
      </trkpt>
      <trkpt lat="45.61176" lon="5.31184">
        <ele>322</ele>
        <time>2021-04-03T11:59:48.588Z</time>
      </trkpt>
      <trkpt lat="45.61176" lon="5.31188">
        <ele>322</ele>
        <time>2021-04-03T11:59:49.588Z</time>
      </trkpt>
      <trkpt lat="45.61176" lon="5.31192">
        <ele>322</ele>
        <time>2021-04-03T11:59:50.587Z</time>
      </trkpt>
      <trkpt lat="45.61176" lon="5.31196">
        <ele>323</ele>
        <time>2021-04-03T11:59:51.588Z</time>
      </trkpt>
      <trkpt lat="45.61175" lon="5.312">
        <ele>322</ele>
        <time>2021-04-03T11:59:52.587Z</time>
      </trkpt>
      <trkpt lat="45.61174" lon="5.31204">
        <ele>322</ele>
        <time>2021-04-03T11:59:53.588Z</time>
      </trkpt>
      <trkpt lat="45.61173" lon="5.31208">
        <ele>322</ele>
        <time>2021-04-03T11:59:54.588Z</time>
      </trkpt>
      <trkpt lat="45.61172" lon="5.31213">
        <ele>322</ele>
        <time>2021-04-03T11:59:55.587Z</time>
      </trkpt>
      <trkpt lat="45.61171" lon="5.31218">
        <ele>322</ele>
        <time>2021-04-03T11:59:56.587Z</time>
      </trkpt>
      <trkpt lat="45.61169" lon="5.31223">
        <ele>322</ele>
        <time>2021-04-03T11:59:57.587Z</time>
      </trkpt>
      <trkpt lat="45.61168" lon="5.31227">
        <ele>322</ele>
        <time>2021-04-03T11:59:58.587Z</time>
      </trkpt>
      <trkpt lat="45.61166" lon="5.31231">
        <ele>322</ele>
        <time>2021-04-03T11:59:59.588Z</time>
      </trkpt>
      <trkpt lat="45.61165" lon="5.31233">
        <ele>323</ele>
        <time>2021-04-03T12:00:00.587Z</time>
      </trkpt>
      <trkpt lat="45.61164" lon="5.31236">
        <ele>323</ele>
        <time>2021-04-03T12:00:01.588Z</time>
      </trkpt>
      <trkpt lat="45.61163" lon="5.31237">
        <ele>324</ele>
        <time>2021-04-03T12:00:02.587Z</time>
      </trkpt>
      <trkpt lat="45.61162" lon="5.31238">
        <ele>324</ele>
        <time>2021-04-03T12:00:03.588Z</time>
      </trkpt>
      <trkpt lat="45.61161" lon="5.3124">
        <ele>325</ele>
        <time>2021-04-03T12:00:04.587Z</time>
      </trkpt>
      <trkpt lat="45.6116" lon="5.31242">
        <ele>325</ele>
        <time>2021-04-03T12:00:05.588Z</time>
      </trkpt>
      <trkpt lat="45.6116" lon="5.31243">
        <ele>325</ele>
        <time>2021-04-03T12:00:06.587Z</time>
      </trkpt>
      <trkpt lat="45.6116" lon="5.31245">
        <ele>325</ele>
        <time>2021-04-03T12:00:07.588Z</time>
      </trkpt>
      <trkpt lat="45.61161" lon="5.31248">
        <ele>325</ele>
        <time>2021-04-03T12:00:08.587Z</time>
      </trkpt>
      <trkpt lat="45.61162" lon="5.31251">
        <ele>325</ele>
        <time>2021-04-03T12:00:09.588Z</time>
      </trkpt>
      <trkpt lat="45.61164" lon="5.31255">
        <ele>326</ele>
        <time>2021-04-03T12:00:10.587Z</time>
      </trkpt>
      <trkpt lat="45.61166" lon="5.3126">
        <ele>326</ele>
        <time>2021-04-03T12:00:11.588Z</time>
      </trkpt>
      <trkpt lat="45.61169" lon="5.31265">
        <ele>326</ele>
        <time>2021-04-03T12:00:12.587Z</time>
      </trkpt>
      <trkpt lat="45.61171" lon="5.3127">
        <ele>326</ele>
        <time>2021-04-03T12:00:13.587Z</time>
      </trkpt>
      <trkpt lat="45.61174" lon="5.31275">
        <ele>326</ele>
        <time>2021-04-03T12:00:14.588Z</time>
      </trkpt>
      <trkpt lat="45.61177" lon="5.3128">
        <ele>326</ele>
        <time>2021-04-03T12:00:15.588Z</time>
      </trkpt>
      <trkpt lat="45.61179" lon="5.31285">
        <ele>326</ele>
        <time>2021-04-03T12:00:16.588Z</time>
      </trkpt>
      <trkpt lat="45.61182" lon="5.3129">
        <ele>326</ele>
        <time>2021-04-03T12:00:17.587Z</time>
      </trkpt>
      <trkpt lat="45.61184" lon="5.31295">
        <ele>326</ele>
        <time>2021-04-03T12:00:18.588Z</time>
      </trkpt>
      <trkpt lat="45.61187" lon="5.313">
        <ele>326</ele>
        <time>2021-04-03T12:00:19.588Z</time>
      </trkpt>
      <trkpt lat="45.61189" lon="5.31304">
        <ele>326</ele>
        <time>2021-04-03T12:00:20.588Z</time>
      </trkpt>
      <trkpt lat="45.6119" lon="5.31309">
        <ele>327</ele>
        <time>2021-04-03T12:00:21.588Z</time>
      </trkpt>
      <trkpt lat="45.61192" lon="5.31314">
        <ele>327</ele>
        <time>2021-04-03T12:00:22.588Z</time>
      </trkpt>
      <trkpt lat="45.61194" lon="5.31319">
        <ele>327</ele>
        <time>2021-04-03T12:00:23.588Z</time>
      </trkpt>
      <trkpt lat="45.61195" lon="5.31325">
        <ele>327</ele>
        <time>2021-04-03T12:00:24.588Z</time>
      </trkpt>
      <trkpt lat="45.61197" lon="5.3133">
        <ele>327</ele>
        <time>2021-04-03T12:00:25.588Z</time>
      </trkpt>
      <trkpt lat="45.61198" lon="5.31336">
        <ele>327</ele>
        <time>2021-04-03T12:00:26.588Z</time>
      </trkpt>
      <trkpt lat="45.612" lon="5.31341">
        <ele>327</ele>
        <time>2021-04-03T12:00:27.587Z</time>
      </trkpt>
      <trkpt lat="45.61202" lon="5.31347">
        <ele>328</ele>
        <time>2021-04-03T12:00:28.588Z</time>
      </trkpt>
      <trkpt lat="45.61203" lon="5.31352">
        <ele>328</ele>
        <time>2021-04-03T12:00:29.588Z</time>
      </trkpt>
      <trkpt lat="45.61205" lon="5.31357">
        <ele>328</ele>
        <time>2021-04-03T12:00:30.587Z</time>
      </trkpt>
      <trkpt lat="45.61206" lon="5.31361">
        <ele>328</ele>
        <time>2021-04-03T12:00:31.588Z</time>
      </trkpt>
      <trkpt lat="45.61207" lon="5.31366">
        <ele>328</ele>
        <time>2021-04-03T12:00:32.588Z</time>
      </trkpt>
      <trkpt lat="45.61208" lon="5.3137">
        <ele>328</ele>
        <time>2021-04-03T12:00:33.587Z</time>
      </trkpt>
      <trkpt lat="45.61209" lon="5.31375">
        <ele>328</ele>
        <time>2021-04-03T12:00:34.588Z</time>
      </trkpt>
      <trkpt lat="45.61211" lon="5.31379">
        <ele>329</ele>
        <time>2021-04-03T12:00:35.587Z</time>
      </trkpt>
      <trkpt lat="45.61212" lon="5.31383">
        <ele>329</ele>
        <time>2021-04-03T12:00:36.588Z</time>
      </trkpt>
      <trkpt lat="45.61213" lon="5.31388">
        <ele>328</ele>
        <time>2021-04-03T12:00:37.587Z</time>
      </trkpt>
      <trkpt lat="45.61215" lon="5.31392">
        <ele>328</ele>
        <time>2021-04-03T12:00:38.588Z</time>
      </trkpt>
      <trkpt lat="45.61215" lon="5.31397">
        <ele>328</ele>
        <time>2021-04-03T12:00:39.587Z</time>
      </trkpt>
      <trkpt lat="45.61217" lon="5.31401">
        <ele>328</ele>
        <time>2021-04-03T12:00:40.588Z</time>
      </trkpt>
      <trkpt lat="45.61218" lon="5.31405">
        <ele>328</ele>
        <time>2021-04-03T12:00:41.588Z</time>
      </trkpt>
      <trkpt lat="45.61219" lon="5.3141">
        <ele>327</ele>
        <time>2021-04-03T12:00:42.588Z</time>
      </trkpt>
      <trkpt lat="45.6122" lon="5.31414">
        <ele>327</ele>
        <time>2021-04-03T12:00:43.587Z</time>
      </trkpt>
      <trkpt lat="45.61221" lon="5.31418">
        <ele>327</ele>
        <time>2021-04-03T12:00:44.587Z</time>
      </trkpt>
      <trkpt lat="45.61222" lon="5.31422">
        <ele>327</ele>
        <time>2021-04-03T12:00:45.588Z</time>
      </trkpt>
      <trkpt lat="45.61223" lon="5.31426">
        <ele>328</ele>
        <time>2021-04-03T12:00:46.587Z</time>
      </trkpt>
      <trkpt lat="45.61224" lon="5.3143">
        <ele>328</ele>
        <time>2021-04-03T12:00:47.588Z</time>
      </trkpt>
      <trkpt lat="45.61226" lon="5.31434">
        <ele>329</ele>
        <time>2021-04-03T12:00:48.588Z</time>
      </trkpt>
      <trkpt lat="45.61227" lon="5.31438">
        <ele>329</ele>
        <time>2021-04-03T12:00:49.588Z</time>
      </trkpt>
      <trkpt lat="45.61228" lon="5.31442">
        <ele>329</ele>
        <time>2021-04-03T12:00:50.588Z</time>
      </trkpt>
      <trkpt lat="45.61229" lon="5.31446">
        <ele>330</ele>
        <time>2021-04-03T12:00:51.587Z</time>
      </trkpt>
      <trkpt lat="45.6123" lon="5.31451">
        <ele>330</ele>
        <time>2021-04-03T12:00:52.587Z</time>
      </trkpt>
      <trkpt lat="45.61232" lon="5.31455">
        <ele>330</ele>
        <time>2021-04-03T12:00:53.587Z</time>
      </trkpt>
      <trkpt lat="45.61233" lon="5.31459">
        <ele>330</ele>
        <time>2021-04-03T12:00:54.588Z</time>
      </trkpt>
      <trkpt lat="45.61235" lon="5.31463">
        <ele>330</ele>
        <time>2021-04-03T12:00:55.587Z</time>
      </trkpt>
      <trkpt lat="45.61236" lon="5.31467">
        <ele>330</ele>
        <time>2021-04-03T12:00:56.588Z</time>
      </trkpt>
      <trkpt lat="45.61237" lon="5.31471">
        <ele>330</ele>
        <time>2021-04-03T12:00:57.587Z</time>
      </trkpt>
      <trkpt lat="45.61239" lon="5.31475">
        <ele>330</ele>
        <time>2021-04-03T12:00:58.587Z</time>
      </trkpt>
      <trkpt lat="45.6124" lon="5.31479">
        <ele>330</ele>
        <time>2021-04-03T12:00:59.588Z</time>
      </trkpt>
      <trkpt lat="45.61241" lon="5.31482">
        <ele>330</ele>
        <time>2021-04-03T12:01:00.588Z</time>
      </trkpt>
      <trkpt lat="45.61242" lon="5.31486">
        <ele>330</ele>
        <time>2021-04-03T12:01:01.587Z</time>
      </trkpt>
      <trkpt lat="45.61244" lon="5.3149">
        <ele>331</ele>
        <time>2021-04-03T12:01:02.588Z</time>
      </trkpt>
      <trkpt lat="45.61246" lon="5.31494">
        <ele>331</ele>
        <time>2021-04-03T12:01:03.587Z</time>
      </trkpt>
      <trkpt lat="45.61248" lon="5.31498">
        <ele>331</ele>
        <time>2021-04-03T12:01:04.587Z</time>
      </trkpt>
      <trkpt lat="45.6125" lon="5.31501">
        <ele>331</ele>
        <time>2021-04-03T12:01:05.588Z</time>
      </trkpt>
      <trkpt lat="45.61251" lon="5.31505">
        <ele>332</ele>
        <time>2021-04-03T12:01:06.587Z</time>
      </trkpt>
      <trkpt lat="45.61252" lon="5.31508">
        <ele>332</ele>
        <time>2021-04-03T12:01:07.587Z</time>
      </trkpt>
      <trkpt lat="45.61254" lon="5.31511">
        <ele>332</ele>
        <time>2021-04-03T12:01:08.587Z</time>
      </trkpt>
      <trkpt lat="45.61255" lon="5.31514">
        <ele>333</ele>
        <time>2021-04-03T12:01:09.588Z</time>
      </trkpt>
      <trkpt lat="45.61257" lon="5.31517">
        <ele>333</ele>
        <time>2021-04-03T12:01:10.588Z</time>
      </trkpt>
      <trkpt lat="45.61259" lon="5.3152">
        <ele>334</ele>
        <time>2021-04-03T12:01:11.587Z</time>
      </trkpt>
      <trkpt lat="45.61261" lon="5.31523">
        <ele>334</ele>
        <time>2021-04-03T12:01:12.588Z</time>
      </trkpt>
      <trkpt lat="45.61263" lon="5.31527">
        <ele>334</ele>
        <time>2021-04-03T12:01:13.587Z</time>
      </trkpt>
      <trkpt lat="45.61265" lon="5.3153">
        <ele>335</ele>
        <time>2021-04-03T12:01:14.587Z</time>
      </trkpt>
      <trkpt lat="45.61267" lon="5.31533">
        <ele>335</ele>
        <time>2021-04-03T12:01:15.587Z</time>
      </trkpt>
      <trkpt lat="45.61269" lon="5.31536">
        <ele>335</ele>
        <time>2021-04-03T12:01:16.587Z</time>
      </trkpt>
      <trkpt lat="45.61272" lon="5.31539">
        <ele>336</ele>
        <time>2021-04-03T12:01:17.587Z</time>
      </trkpt>
      <trkpt lat="45.61274" lon="5.31542">
        <ele>336</ele>
        <time>2021-04-03T12:01:18.587Z</time>
      </trkpt>
      <trkpt lat="45.61276" lon="5.31545">
        <ele>336</ele>
        <time>2021-04-03T12:01:19.587Z</time>
      </trkpt>
      <trkpt lat="45.61279" lon="5.31548">
        <ele>336</ele>
        <time>2021-04-03T12:01:20.587Z</time>
      </trkpt>
      <trkpt lat="45.61281" lon="5.31551">
        <ele>336</ele>
        <time>2021-04-03T12:01:21.587Z</time>
      </trkpt>
      <trkpt lat="45.61283" lon="5.31554">
        <ele>336</ele>
        <time>2021-04-03T12:01:22.588Z</time>
      </trkpt>
      <trkpt lat="45.61286" lon="5.31557">
        <ele>336</ele>
        <time>2021-04-03T12:01:23.588Z</time>
      </trkpt>
      <trkpt lat="45.61288" lon="5.3156">
        <ele>337</ele>
        <time>2021-04-03T12:01:24.587Z</time>
      </trkpt>
      <trkpt lat="45.6129" lon="5.31563">
        <ele>337</ele>
        <time>2021-04-03T12:01:25.588Z</time>
      </trkpt>
      <trkpt lat="45.61292" lon="5.31566">
        <ele>337</ele>
        <time>2021-04-03T12:01:26.588Z</time>
      </trkpt>
      <trkpt lat="45.61294" lon="5.31569">
        <ele>337</ele>
        <time>2021-04-03T12:01:27.588Z</time>
      </trkpt>
      <trkpt lat="45.61297" lon="5.31572">
        <ele>337</ele>
        <time>2021-04-03T12:01:28.588Z</time>
      </trkpt>
      <trkpt lat="45.61299" lon="5.31575">
        <ele>337</ele>
        <time>2021-04-03T12:01:29.588Z</time>
      </trkpt>
      <trkpt lat="45.61301" lon="5.31578">
        <ele>337</ele>
        <time>2021-04-03T12:01:30.588Z</time>
      </trkpt>
      <trkpt lat="45.61303" lon="5.31581">
        <ele>338</ele>
        <time>2021-04-03T12:01:31.588Z</time>
      </trkpt>
      <trkpt lat="45.61306" lon="5.31584">
        <ele>338</ele>
        <time>2021-04-03T12:01:32.588Z</time>
      </trkpt>
      <trkpt lat="45.61308" lon="5.31586">
        <ele>338</ele>
        <time>2021-04-03T12:01:33.588Z</time>
      </trkpt>
      <trkpt lat="45.6131" lon="5.31589">
        <ele>338</ele>
        <time>2021-04-03T12:01:34.587Z</time>
      </trkpt>
      <trkpt lat="45.61311" lon="5.31592">
        <ele>338</ele>
        <time>2021-04-03T12:01:35.587Z</time>
      </trkpt>
      <trkpt lat="45.61314" lon="5.31595">
        <ele>339</ele>
        <time>2021-04-03T12:01:36.587Z</time>
      </trkpt>
      <trkpt lat="45.61316" lon="5.31598">
        <ele>339</ele>
        <time>2021-04-03T12:01:37.588Z</time>
      </trkpt>
      <trkpt lat="45.61318" lon="5.316">
        <ele>339</ele>
        <time>2021-04-03T12:01:38.588Z</time>
      </trkpt>
      <trkpt lat="45.6132" lon="5.31603">
        <ele>339</ele>
        <time>2021-04-03T12:01:39.588Z</time>
      </trkpt>
      <trkpt lat="45.61322" lon="5.31605">
        <ele>340</ele>
        <time>2021-04-03T12:01:40.587Z</time>
      </trkpt>
      <trkpt lat="45.61324" lon="5.31608">
        <ele>341</ele>
        <time>2021-04-03T12:01:41.587Z</time>
      </trkpt>
      <trkpt lat="45.61326" lon="5.31611">
        <ele>342</ele>
        <time>2021-04-03T12:01:42.587Z</time>
      </trkpt>
      <trkpt lat="45.61329" lon="5.31613">
        <ele>342</ele>
        <time>2021-04-03T12:01:43.588Z</time>
      </trkpt>
      <trkpt lat="45.61331" lon="5.31616">
        <ele>342</ele>
        <time>2021-04-03T12:01:44.587Z</time>
      </trkpt>
      <trkpt lat="45.61333" lon="5.31619">
        <ele>343</ele>
        <time>2021-04-03T12:01:45.588Z</time>
      </trkpt>
      <trkpt lat="45.61335" lon="5.31621">
        <ele>343</ele>
        <time>2021-04-03T12:01:46.588Z</time>
      </trkpt>
      <trkpt lat="45.61337" lon="5.31624">
        <ele>343</ele>
        <time>2021-04-03T12:01:47.587Z</time>
      </trkpt>
      <trkpt lat="45.61339" lon="5.31627">
        <ele>343</ele>
        <time>2021-04-03T12:01:48.588Z</time>
      </trkpt>
      <trkpt lat="45.61341" lon="5.31629">
        <ele>343</ele>
        <time>2021-04-03T12:01:49.587Z</time>
      </trkpt>
      <trkpt lat="45.61343" lon="5.31632">
        <ele>343</ele>
        <time>2021-04-03T12:01:50.587Z</time>
      </trkpt>
      <trkpt lat="45.61345" lon="5.31635">
        <ele>344</ele>
        <time>2021-04-03T12:01:51.587Z</time>
      </trkpt>
      <trkpt lat="45.61348" lon="5.31638">
        <ele>344</ele>
        <time>2021-04-03T12:01:52.588Z</time>
      </trkpt>
      <trkpt lat="45.6135" lon="5.31641">
        <ele>345</ele>
        <time>2021-04-03T12:01:53.588Z</time>
      </trkpt>
      <trkpt lat="45.61352" lon="5.31643">
        <ele>345</ele>
        <time>2021-04-03T12:01:54.587Z</time>
      </trkpt>
      <trkpt lat="45.61355" lon="5.31646">
        <ele>345</ele>
        <time>2021-04-03T12:01:55.588Z</time>
      </trkpt>
      <trkpt lat="45.61357" lon="5.31649">
        <ele>345</ele>
        <time>2021-04-03T12:01:56.587Z</time>
      </trkpt>
      <trkpt lat="45.61359" lon="5.31651">
        <ele>345</ele>
        <time>2021-04-03T12:01:57.588Z</time>
      </trkpt>
      <trkpt lat="45.61362" lon="5.31654">
        <ele>345</ele>
        <time>2021-04-03T12:01:58.588Z</time>
      </trkpt>
      <trkpt lat="45.61364" lon="5.31656">
        <ele>345</ele>
        <time>2021-04-03T12:01:59.588Z</time>
      </trkpt>
      <trkpt lat="45.61366" lon="5.31659">
        <ele>345</ele>
        <time>2021-04-03T12:02:00.587Z</time>
      </trkpt>
      <trkpt lat="45.61368" lon="5.31661">
        <ele>345</ele>
        <time>2021-04-03T12:02:01.588Z</time>
      </trkpt>
      <trkpt lat="45.6137" lon="5.31664">
        <ele>346</ele>
        <time>2021-04-03T12:02:02.588Z</time>
      </trkpt>
      <trkpt lat="45.61372" lon="5.31667">
        <ele>346</ele>
        <time>2021-04-03T12:02:03.588Z</time>
      </trkpt>
      <trkpt lat="45.61374" lon="5.3167">
        <ele>346</ele>
        <time>2021-04-03T12:02:04.587Z</time>
      </trkpt>
      <trkpt lat="45.61376" lon="5.31673">
        <ele>346</ele>
        <time>2021-04-03T12:02:05.587Z</time>
      </trkpt>
      <trkpt lat="45.61379" lon="5.31675">
        <ele>346</ele>
        <time>2021-04-03T12:02:06.588Z</time>
      </trkpt>
      <trkpt lat="45.61381" lon="5.31678">
        <ele>346</ele>
        <time>2021-04-03T12:02:07.587Z</time>
      </trkpt>
      <trkpt lat="45.61383" lon="5.31681">
        <ele>347</ele>
        <time>2021-04-03T12:02:08.588Z</time>
      </trkpt>
      <trkpt lat="45.61386" lon="5.31684">
        <ele>347</ele>
        <time>2021-04-03T12:02:09.587Z</time>
      </trkpt>
      <trkpt lat="45.61388" lon="5.31687">
        <ele>347</ele>
        <time>2021-04-03T12:02:10.587Z</time>
      </trkpt>
      <trkpt lat="45.6139" lon="5.3169">
        <ele>347</ele>
        <time>2021-04-03T12:02:11.588Z</time>
      </trkpt>
      <trkpt lat="45.61393" lon="5.31693">
        <ele>347</ele>
        <time>2021-04-03T12:02:12.588Z</time>
      </trkpt>
      <trkpt lat="45.61395" lon="5.31696">
        <ele>347</ele>
        <time>2021-04-03T12:02:13.587Z</time>
      </trkpt>
      <trkpt lat="45.61397" lon="5.31699">
        <ele>347</ele>
        <time>2021-04-03T12:02:14.587Z</time>
      </trkpt>
      <trkpt lat="45.61399" lon="5.31701">
        <ele>347</ele>
        <time>2021-04-03T12:02:15.588Z</time>
      </trkpt>
      <trkpt lat="45.61402" lon="5.31704">
        <ele>347</ele>
        <time>2021-04-03T12:02:16.588Z</time>
      </trkpt>
      <trkpt lat="45.61404" lon="5.31707">
        <ele>347</ele>
        <time>2021-04-03T12:02:17.588Z</time>
      </trkpt>
      <trkpt lat="45.61406" lon="5.3171">
        <ele>347</ele>
        <time>2021-04-03T12:02:18.588Z</time>
      </trkpt>
      <trkpt lat="45.61408" lon="5.31712">
        <ele>347</ele>
        <time>2021-04-03T12:02:19.588Z</time>
      </trkpt>
      <trkpt lat="45.6141" lon="5.31715">
        <ele>347</ele>
        <time>2021-04-03T12:02:20.588Z</time>
      </trkpt>
      <trkpt lat="45.61412" lon="5.31718">
        <ele>347</ele>
        <time>2021-04-03T12:02:21.588Z</time>
      </trkpt>
      <trkpt lat="45.61414" lon="5.3172">
        <ele>347</ele>
        <time>2021-04-03T12:02:22.588Z</time>
      </trkpt>
      <trkpt lat="45.61417" lon="5.31723">
        <ele>348</ele>
        <time>2021-04-03T12:02:23.588Z</time>
      </trkpt>
      <trkpt lat="45.61419" lon="5.31726">
        <ele>348</ele>
        <time>2021-04-03T12:02:24.587Z</time>
      </trkpt>
      <trkpt lat="45.61421" lon="5.31729">
        <ele>348</ele>
        <time>2021-04-03T12:02:25.587Z</time>
      </trkpt>
      <trkpt lat="45.61424" lon="5.31732">
        <ele>348</ele>
        <time>2021-04-03T12:02:26.588Z</time>
      </trkpt>
      <trkpt lat="45.61426" lon="5.31735">
        <ele>349</ele>
        <time>2021-04-03T12:02:27.587Z</time>
      </trkpt>
      <trkpt lat="45.61428" lon="5.31737">
        <ele>349</ele>
        <time>2021-04-03T12:02:28.588Z</time>
      </trkpt>
      <trkpt lat="45.6143" lon="5.3174">
        <ele>350</ele>
        <time>2021-04-03T12:02:29.588Z</time>
      </trkpt>
      <trkpt lat="45.61432" lon="5.31743">
        <ele>350</ele>
        <time>2021-04-03T12:02:30.587Z</time>
      </trkpt>
      <trkpt lat="45.61434" lon="5.31746">
        <ele>350</ele>
        <time>2021-04-03T12:02:31.588Z</time>
      </trkpt>
      <trkpt lat="45.61437" lon="5.31749">
        <ele>351</ele>
        <time>2021-04-03T12:02:32.588Z</time>
      </trkpt>
      <trkpt lat="45.61439" lon="5.31752">
        <ele>351</ele>
        <time>2021-04-03T12:02:33.588Z</time>
      </trkpt>
      <trkpt lat="45.61441" lon="5.31755">
        <ele>351</ele>
        <time>2021-04-03T12:02:34.587Z</time>
      </trkpt>
      <trkpt lat="45.61443" lon="5.31758">
        <ele>351</ele>
        <time>2021-04-03T12:02:35.587Z</time>
      </trkpt>
      <trkpt lat="45.61445" lon="5.31761">
        <ele>351</ele>
        <time>2021-04-03T12:02:36.588Z</time>
      </trkpt>
      <trkpt lat="45.61448" lon="5.31764">
        <ele>351</ele>
        <time>2021-04-03T12:02:37.588Z</time>
      </trkpt>
      <trkpt lat="45.6145" lon="5.31767">
        <ele>351</ele>
        <time>2021-04-03T12:02:38.588Z</time>
      </trkpt>
      <trkpt lat="45.61452" lon="5.3177">
        <ele>352</ele>
        <time>2021-04-03T12:02:39.587Z</time>
      </trkpt>
      <trkpt lat="45.61454" lon="5.31773">
        <ele>352</ele>
        <time>2021-04-03T12:02:40.588Z</time>
      </trkpt>
      <trkpt lat="45.61457" lon="5.31777">
        <ele>352</ele>
        <time>2021-04-03T12:02:41.588Z</time>
      </trkpt>
      <trkpt lat="45.61459" lon="5.3178">
        <ele>353</ele>
        <time>2021-04-03T12:02:42.588Z</time>
      </trkpt>
      <trkpt lat="45.61461" lon="5.31783">
        <ele>353</ele>
        <time>2021-04-03T12:02:43.588Z</time>
      </trkpt>
      <trkpt lat="45.61464" lon="5.31787">
        <ele>354</ele>
        <time>2021-04-03T12:02:44.588Z</time>
      </trkpt>
      <trkpt lat="45.61466" lon="5.3179">
        <ele>354</ele>
        <time>2021-04-03T12:02:45.588Z</time>
      </trkpt>
      <trkpt lat="45.61468" lon="5.31793">
        <ele>354</ele>
        <time>2021-04-03T12:02:46.588Z</time>
      </trkpt>
      <trkpt lat="45.61471" lon="5.31796">
        <ele>355</ele>
        <time>2021-04-03T12:02:47.588Z</time>
      </trkpt>
      <trkpt lat="45.61473" lon="5.31799">
        <ele>355</ele>
        <time>2021-04-03T12:02:48.588Z</time>
      </trkpt>
      <trkpt lat="45.61475" lon="5.31802">
        <ele>355</ele>
        <time>2021-04-03T12:02:49.587Z</time>
      </trkpt>
      <trkpt lat="45.61477" lon="5.31805">
        <ele>355</ele>
        <time>2021-04-03T12:02:50.587Z</time>
      </trkpt>
      <trkpt lat="45.61479" lon="5.31808">
        <ele>356</ele>
        <time>2021-04-03T12:02:51.588Z</time>
      </trkpt>
      <trkpt lat="45.61481" lon="5.31811">
        <ele>356</ele>
        <time>2021-04-03T12:02:52.588Z</time>
      </trkpt>
      <trkpt lat="45.61483" lon="5.31814">
        <ele>356</ele>
        <time>2021-04-03T12:02:53.588Z</time>
      </trkpt>
      <trkpt lat="45.61485" lon="5.31816">
        <ele>356</ele>
        <time>2021-04-03T12:02:54.587Z</time>
      </trkpt>
      <trkpt lat="45.61487" lon="5.31819">
        <ele>356</ele>
        <time>2021-04-03T12:02:55.587Z</time>
      </trkpt>
      <trkpt lat="45.61489" lon="5.31822">
        <ele>357</ele>
        <time>2021-04-03T12:02:56.588Z</time>
      </trkpt>
      <trkpt lat="45.61491" lon="5.31825">
        <ele>357</ele>
        <time>2021-04-03T12:02:57.588Z</time>
      </trkpt>
      <trkpt lat="45.61493" lon="5.31828">
        <ele>357</ele>
        <time>2021-04-03T12:02:58.588Z</time>
      </trkpt>
      <trkpt lat="45.61495" lon="5.31831">
        <ele>357</ele>
        <time>2021-04-03T12:02:59.587Z</time>
      </trkpt>
      <trkpt lat="45.61498" lon="5.31834">
        <ele>358</ele>
        <time>2021-04-03T12:03:00.587Z</time>
      </trkpt>
      <trkpt lat="45.615" lon="5.31838">
        <ele>358</ele>
        <time>2021-04-03T12:03:01.588Z</time>
      </trkpt>
      <trkpt lat="45.61502" lon="5.31841">
        <ele>358</ele>
        <time>2021-04-03T12:03:02.588Z</time>
      </trkpt>
      <trkpt lat="45.61504" lon="5.31844">
        <ele>358</ele>
        <time>2021-04-03T12:03:03.588Z</time>
      </trkpt>
      <trkpt lat="45.61507" lon="5.31847">
        <ele>359</ele>
        <time>2021-04-03T12:03:04.587Z</time>
      </trkpt>
      <trkpt lat="45.61509" lon="5.3185">
        <ele>359</ele>
        <time>2021-04-03T12:03:05.588Z</time>
      </trkpt>
      <trkpt lat="45.61511" lon="5.31853">
        <ele>359</ele>
        <time>2021-04-03T12:03:06.588Z</time>
      </trkpt>
      <trkpt lat="45.61513" lon="5.31856">
        <ele>359</ele>
        <time>2021-04-03T12:03:07.588Z</time>
      </trkpt>
      <trkpt lat="45.61516" lon="5.31859">
        <ele>359</ele>
        <time>2021-04-03T12:03:08.588Z</time>
      </trkpt>
      <trkpt lat="45.61518" lon="5.31862">
        <ele>359</ele>
        <time>2021-04-03T12:03:09.588Z</time>
      </trkpt>
      <trkpt lat="45.6152" lon="5.31866">
        <ele>359</ele>
        <time>2021-04-03T12:03:10.588Z</time>
      </trkpt>
      <trkpt lat="45.61522" lon="5.31869">
        <ele>359</ele>
        <time>2021-04-03T12:03:11.588Z</time>
      </trkpt>
      <trkpt lat="45.61525" lon="5.31872">
        <ele>359</ele>
        <time>2021-04-03T12:03:12.588Z</time>
      </trkpt>
      <trkpt lat="45.61527" lon="5.31874">
        <ele>359</ele>
        <time>2021-04-03T12:03:13.588Z</time>
      </trkpt>
      <trkpt lat="45.61529" lon="5.31877">
        <ele>359</ele>
        <time>2021-04-03T12:03:14.587Z</time>
      </trkpt>
      <trkpt lat="45.61531" lon="5.31879">
        <ele>360</ele>
        <time>2021-04-03T12:03:15.588Z</time>
      </trkpt>
      <trkpt lat="45.61533" lon="5.31881">
        <ele>360</ele>
        <time>2021-04-03T12:03:16.588Z</time>
      </trkpt>
      <trkpt lat="45.61535" lon="5.31883">
        <ele>360</ele>
        <time>2021-04-03T12:03:17.587Z</time>
      </trkpt>
      <trkpt lat="45.61537" lon="5.31885">
        <ele>360</ele>
        <time>2021-04-03T12:03:18.588Z</time>
      </trkpt>
      <trkpt lat="45.61539" lon="5.31886">
        <ele>360</ele>
        <time>2021-04-03T12:03:19.588Z</time>
      </trkpt>
      <trkpt lat="45.61541" lon="5.31888">
        <ele>360</ele>
        <time>2021-04-03T12:03:20.588Z</time>
      </trkpt>
      <trkpt lat="45.61544" lon="5.3189">
        <ele>360</ele>
        <time>2021-04-03T12:03:21.588Z</time>
      </trkpt>
      <trkpt lat="45.61546" lon="5.31892">
        <ele>360</ele>
        <time>2021-04-03T12:03:22.588Z</time>
      </trkpt>
      <trkpt lat="45.61548" lon="5.31894">
        <ele>360</ele>
        <time>2021-04-03T12:03:23.588Z</time>
      </trkpt>
      <trkpt lat="45.6155" lon="5.31896">
        <ele>360</ele>
        <time>2021-04-03T12:03:24.588Z</time>
      </trkpt>
      <trkpt lat="45.61552" lon="5.31897">
        <ele>361</ele>
        <time>2021-04-03T12:03:25.588Z</time>
      </trkpt>
      <trkpt lat="45.61554" lon="5.31899">
        <ele>361</ele>
        <time>2021-04-03T12:03:26.588Z</time>
      </trkpt>
      <trkpt lat="45.61556" lon="5.319">
        <ele>360</ele>
        <time>2021-04-03T12:03:27.588Z</time>
      </trkpt>
      <trkpt lat="45.61558" lon="5.31902">
        <ele>360</ele>
        <time>2021-04-03T12:03:28.588Z</time>
      </trkpt>
      <trkpt lat="45.61559" lon="5.31904">
        <ele>360</ele>
        <time>2021-04-03T12:03:29.588Z</time>
      </trkpt>
      <trkpt lat="45.6156" lon="5.31906">
        <ele>360</ele>
        <time>2021-04-03T12:03:30.588Z</time>
      </trkpt>
      <trkpt lat="45.61562" lon="5.31907">
        <ele>360</ele>
        <time>2021-04-03T12:03:31.588Z</time>
      </trkpt>
      <trkpt lat="45.61563" lon="5.31909">
        <ele>360</ele>
        <time>2021-04-03T12:03:32.588Z</time>
      </trkpt>
      <trkpt lat="45.61564" lon="5.3191">
        <ele>361</ele>
        <time>2021-04-03T12:03:33.588Z</time>
      </trkpt>
      <trkpt lat="45.61565" lon="5.31912">
        <ele>361</ele>
        <time>2021-04-03T12:03:34.588Z</time>
      </trkpt>
      <trkpt lat="45.61566" lon="5.31913">
        <ele>360</ele>
        <time>2021-04-03T12:03:35.588Z</time>
      </trkpt>
      <trkpt lat="45.61566" lon="5.31913">
        <ele>360</ele>
        <time>2021-04-03T12:03:36.588Z</time>
      </trkpt>
      <trkpt lat="45.61567" lon="5.31913">
        <ele>360</ele>
        <time>2021-04-03T12:03:37.588Z</time>
      </trkpt>
      <trkpt lat="45.6157" lon="5.31915">
        <ele>360</ele>
        <time>2021-04-03T12:03:38.588Z</time>
      </trkpt>
      <trkpt lat="45.61572" lon="5.31917">
        <ele>360</ele>
        <time>2021-04-03T12:03:39.588Z</time>
      </trkpt>
      <trkpt lat="45.61575" lon="5.3192">
        <ele>360</ele>
        <time>2021-04-03T12:03:40.587Z</time>
      </trkpt>
      <trkpt lat="45.61578" lon="5.31923">
        <ele>360</ele>
        <time>2021-04-03T12:03:41.587Z</time>
      </trkpt>
      <trkpt lat="45.61581" lon="5.31926">
        <ele>360</ele>
        <time>2021-04-03T12:03:42.588Z</time>
      </trkpt>
      <trkpt lat="45.61585" lon="5.3193">
        <ele>360</ele>
        <time>2021-04-03T12:03:43.588Z</time>
      </trkpt>
      <trkpt lat="45.61589" lon="5.31933">
        <ele>360</ele>
        <time>2021-04-03T12:03:44.587Z</time>
      </trkpt>
      <trkpt lat="45.61593" lon="5.31937">
        <ele>359</ele>
        <time>2021-04-03T12:03:45.588Z</time>
      </trkpt>
      <trkpt lat="45.61597" lon="5.31941">
        <ele>359</ele>
        <time>2021-04-03T12:03:46.588Z</time>
      </trkpt>
      <trkpt lat="45.61601" lon="5.31945">
        <ele>359</ele>
        <time>2021-04-03T12:03:47.588Z</time>
      </trkpt>
      <trkpt lat="45.61606" lon="5.31951">
        <ele>359</ele>
        <time>2021-04-03T12:03:48.588Z</time>
      </trkpt>
      <trkpt lat="45.61611" lon="5.31957">
        <ele>358</ele>
        <time>2021-04-03T12:03:49.588Z</time>
      </trkpt>
      <trkpt lat="45.61616" lon="5.31964">
        <ele>358</ele>
        <time>2021-04-03T12:03:50.587Z</time>
      </trkpt>
      <trkpt lat="45.61622" lon="5.31971">
        <ele>358</ele>
        <time>2021-04-03T12:03:51.588Z</time>
      </trkpt>
      <trkpt lat="45.61628" lon="5.31979">
        <ele>358</ele>
        <time>2021-04-03T12:03:52.588Z</time>
      </trkpt>
      <trkpt lat="45.61634" lon="5.31987">
        <ele>357</ele>
        <time>2021-04-03T12:03:53.588Z</time>
      </trkpt>
      <trkpt lat="45.6164" lon="5.31996">
        <ele>357</ele>
        <time>2021-04-03T12:03:54.588Z</time>
      </trkpt>
      <trkpt lat="45.61645" lon="5.32006">
        <ele>357</ele>
        <time>2021-04-03T12:03:55.587Z</time>
      </trkpt>
      <trkpt lat="45.61651" lon="5.32016">
        <ele>357</ele>
        <time>2021-04-03T12:03:56.588Z</time>
      </trkpt>
      <trkpt lat="45.61657" lon="5.32027">
        <ele>357</ele>
        <time>2021-04-03T12:03:57.587Z</time>
      </trkpt>
      <trkpt lat="45.61664" lon="5.32038">
        <ele>356</ele>
        <time>2021-04-03T12:03:58.588Z</time>
      </trkpt>
      <trkpt lat="45.6167" lon="5.32049">
        <ele>355</ele>
        <time>2021-04-03T12:03:59.588Z</time>
      </trkpt>
      <trkpt lat="45.61677" lon="5.3206">
        <ele>355</ele>
        <time>2021-04-03T12:04:00.588Z</time>
      </trkpt>
      <trkpt lat="45.61683" lon="5.32071">
        <ele>354</ele>
        <time>2021-04-03T12:04:01.588Z</time>
      </trkpt>
      <trkpt lat="45.61689" lon="5.32083">
        <ele>353</ele>
        <time>2021-04-03T12:04:02.587Z</time>
      </trkpt>
      <trkpt lat="45.61695" lon="5.32095">
        <ele>352</ele>
        <time>2021-04-03T12:04:03.588Z</time>
      </trkpt>
      <trkpt lat="45.61701" lon="5.32108">
        <ele>352</ele>
        <time>2021-04-03T12:04:04.588Z</time>
      </trkpt>
      <trkpt lat="45.61706" lon="5.32122">
        <ele>351</ele>
        <time>2021-04-03T12:04:05.588Z</time>
      </trkpt>
      <trkpt lat="45.61712" lon="5.32138">
        <ele>350</ele>
        <time>2021-04-03T12:04:06.588Z</time>
      </trkpt>
      <trkpt lat="45.61716" lon="5.32154">
        <ele>349</ele>
        <time>2021-04-03T12:04:07.588Z</time>
      </trkpt>
      <trkpt lat="45.6172" lon="5.32169">
        <ele>348</ele>
        <time>2021-04-03T12:04:08.588Z</time>
      </trkpt>
      <trkpt lat="45.61724" lon="5.32183">
        <ele>348</ele>
        <time>2021-04-03T12:04:09.588Z</time>
      </trkpt>
      <trkpt lat="45.61728" lon="5.32196">
        <ele>347</ele>
        <time>2021-04-03T12:04:10.588Z</time>
      </trkpt>
      <trkpt lat="45.61731" lon="5.32208">
        <ele>347</ele>
        <time>2021-04-03T12:04:11.587Z</time>
      </trkpt>
      <trkpt lat="45.61735" lon="5.32219">
        <ele>346</ele>
        <time>2021-04-03T12:04:12.588Z</time>
      </trkpt>
      <trkpt lat="45.61737" lon="5.32231">
        <ele>346</ele>
        <time>2021-04-03T12:04:13.588Z</time>
      </trkpt>
      <trkpt lat="45.61738" lon="5.32243">
        <ele>345</ele>
        <time>2021-04-03T12:04:14.587Z</time>
      </trkpt>
      <trkpt lat="45.61739" lon="5.32254">
        <ele>345</ele>
        <time>2021-04-03T12:04:15.588Z</time>
      </trkpt>
      <trkpt lat="45.61739" lon="5.32265">
        <ele>345</ele>
        <time>2021-04-03T12:04:16.588Z</time>
      </trkpt>
      <trkpt lat="45.61739" lon="5.32276">
        <ele>345</ele>
        <time>2021-04-03T12:04:17.587Z</time>
      </trkpt>
      <trkpt lat="45.61739" lon="5.32287">
        <ele>345</ele>
        <time>2021-04-03T12:04:18.588Z</time>
      </trkpt>
      <trkpt lat="45.6174" lon="5.32296">
        <ele>345</ele>
        <time>2021-04-03T12:04:19.588Z</time>
      </trkpt>
      <trkpt lat="45.61741" lon="5.32309">
        <ele>345</ele>
        <time>2021-04-03T12:04:20.588Z</time>
      </trkpt>
      <trkpt lat="45.61744" lon="5.32318">
        <ele>345</ele>
        <time>2021-04-03T12:04:21.587Z</time>
      </trkpt>
      <trkpt lat="45.61747" lon="5.32327">
        <ele>345</ele>
        <time>2021-04-03T12:04:22.588Z</time>
      </trkpt>
      <trkpt lat="45.6175" lon="5.32334">
        <ele>345</ele>
        <time>2021-04-03T12:04:23.587Z</time>
      </trkpt>
      <trkpt lat="45.61753" lon="5.32345">
        <ele>345</ele>
        <time>2021-04-03T12:04:24.587Z</time>
      </trkpt>
      <trkpt lat="45.61755" lon="5.32355">
        <ele>346</ele>
        <time>2021-04-03T12:04:25.587Z</time>
      </trkpt>
      <trkpt lat="45.61756" lon="5.32365">
        <ele>346</ele>
        <time>2021-04-03T12:04:26.588Z</time>
      </trkpt>
      <trkpt lat="45.61758" lon="5.32374">
        <ele>346</ele>
        <time>2021-04-03T12:04:27.588Z</time>
      </trkpt>
      <trkpt lat="45.61758" lon="5.32385">
        <ele>346</ele>
        <time>2021-04-03T12:04:28.588Z</time>
      </trkpt>
      <trkpt lat="45.61759" lon="5.32395">
        <ele>346</ele>
        <time>2021-04-03T12:04:29.588Z</time>
      </trkpt>
      <trkpt lat="45.61759" lon="5.32405">
        <ele>346</ele>
        <time>2021-04-03T12:04:30.587Z</time>
      </trkpt>
      <trkpt lat="45.6176" lon="5.32415">
        <ele>346</ele>
        <time>2021-04-03T12:04:31.588Z</time>
      </trkpt>
      <trkpt lat="45.61761" lon="5.32423">
        <ele>346</ele>
        <time>2021-04-03T12:04:32.588Z</time>
      </trkpt>
      <trkpt lat="45.61762" lon="5.32432">
        <ele>346</ele>
        <time>2021-04-03T12:04:33.588Z</time>
      </trkpt>
      <trkpt lat="45.61765" lon="5.32441">
        <ele>346</ele>
        <time>2021-04-03T12:04:34.587Z</time>
      </trkpt>
      <trkpt lat="45.61766" lon="5.32449">
        <ele>346</ele>
        <time>2021-04-03T12:04:35.588Z</time>
      </trkpt>
      <trkpt lat="45.61767" lon="5.32456">
        <ele>346</ele>
        <time>2021-04-03T12:04:36.588Z</time>
      </trkpt>
      <trkpt lat="45.61766" lon="5.32464">
        <ele>346</ele>
        <time>2021-04-03T12:04:37.587Z</time>
      </trkpt>
      <trkpt lat="45.61766" lon="5.32469">
        <ele>346</ele>
        <time>2021-04-03T12:04:38.588Z</time>
      </trkpt>
      <trkpt lat="45.61765" lon="5.32476">
        <ele>346</ele>
        <time>2021-04-03T12:04:39.587Z</time>
      </trkpt>
      <trkpt lat="45.61763" lon="5.32482">
        <ele>346</ele>
        <time>2021-04-03T12:04:40.588Z</time>
      </trkpt>
      <trkpt lat="45.6176" lon="5.32487">
        <ele>346</ele>
        <time>2021-04-03T12:04:41.588Z</time>
      </trkpt>
      <trkpt lat="45.61757" lon="5.32491">
        <ele>346</ele>
        <time>2021-04-03T12:04:42.587Z</time>
      </trkpt>
      <trkpt lat="45.61754" lon="5.32495">
        <ele>346</ele>
        <time>2021-04-03T12:04:43.587Z</time>
      </trkpt>
      <trkpt lat="45.61751" lon="5.325">
        <ele>346</ele>
        <time>2021-04-03T12:04:44.587Z</time>
      </trkpt>
      <trkpt lat="45.61748" lon="5.32505">
        <ele>346</ele>
        <time>2021-04-03T12:04:45.588Z</time>
      </trkpt>
      <trkpt lat="45.61745" lon="5.32508">
        <ele>347</ele>
        <time>2021-04-03T12:04:46.588Z</time>
      </trkpt>
      <trkpt lat="45.61741" lon="5.32515">
        <ele>347</ele>
        <time>2021-04-03T12:04:47.587Z</time>
      </trkpt>
      <trkpt lat="45.61737" lon="5.32521">
        <ele>347</ele>
        <time>2021-04-03T12:04:48.587Z</time>
      </trkpt>
      <trkpt lat="45.61733" lon="5.32527">
        <ele>347</ele>
        <time>2021-04-03T12:04:49.588Z</time>
      </trkpt>
      <trkpt lat="45.6173" lon="5.32533">
        <ele>347</ele>
        <time>2021-04-03T12:04:50.588Z</time>
      </trkpt>
      <trkpt lat="45.61726" lon="5.32539">
        <ele>347</ele>
        <time>2021-04-03T12:04:51.588Z</time>
      </trkpt>
      <trkpt lat="45.61723" lon="5.32546">
        <ele>347</ele>
        <time>2021-04-03T12:04:52.588Z</time>
      </trkpt>
      <trkpt lat="45.61719" lon="5.32552">
        <ele>346</ele>
        <time>2021-04-03T12:04:53.588Z</time>
      </trkpt>
      <trkpt lat="45.61716" lon="5.32558">
        <ele>346</ele>
        <time>2021-04-03T12:04:54.588Z</time>
      </trkpt>
      <trkpt lat="45.61712" lon="5.32565">
        <ele>346</ele>
        <time>2021-04-03T12:04:55.587Z</time>
      </trkpt>
      <trkpt lat="45.61709" lon="5.32571">
        <ele>346</ele>
        <time>2021-04-03T12:04:56.588Z</time>
      </trkpt>
      <trkpt lat="45.61705" lon="5.32577">
        <ele>346</ele>
        <time>2021-04-03T12:04:57.587Z</time>
      </trkpt>
      <trkpt lat="45.61702" lon="5.32584">
        <ele>346</ele>
        <time>2021-04-03T12:04:58.588Z</time>
      </trkpt>
      <trkpt lat="45.617" lon="5.32591">
        <ele>346</ele>
        <time>2021-04-03T12:04:59.587Z</time>
      </trkpt>
      <trkpt lat="45.61698" lon="5.32599">
        <ele>346</ele>
        <time>2021-04-03T12:05:00.587Z</time>
      </trkpt>
      <trkpt lat="45.61696" lon="5.32606">
        <ele>346</ele>
        <time>2021-04-03T12:05:01.587Z</time>
      </trkpt>
      <trkpt lat="45.61694" lon="5.32613">
        <ele>346</ele>
        <time>2021-04-03T12:05:02.588Z</time>
      </trkpt>
      <trkpt lat="45.61692" lon="5.32621">
        <ele>345</ele>
        <time>2021-04-03T12:05:03.588Z</time>
      </trkpt>
      <trkpt lat="45.6169" lon="5.32628">
        <ele>345</ele>
        <time>2021-04-03T12:05:04.588Z</time>
      </trkpt>
      <trkpt lat="45.61688" lon="5.32635">
        <ele>345</ele>
        <time>2021-04-03T12:05:05.588Z</time>
      </trkpt>
      <trkpt lat="45.61687" lon="5.32643">
        <ele>345</ele>
        <time>2021-04-03T12:05:06.588Z</time>
      </trkpt>
      <trkpt lat="45.61685" lon="5.32651">
        <ele>345</ele>
        <time>2021-04-03T12:05:07.588Z</time>
      </trkpt>
      <trkpt lat="45.61683" lon="5.32659">
        <ele>345</ele>
        <time>2021-04-03T12:05:08.588Z</time>
      </trkpt>
      <trkpt lat="45.61681" lon="5.32666">
        <ele>345</ele>
        <time>2021-04-03T12:05:09.588Z</time>
      </trkpt>
      <trkpt lat="45.61679" lon="5.32673">
        <ele>344</ele>
        <time>2021-04-03T12:05:10.587Z</time>
      </trkpt>
      <trkpt lat="45.61678" lon="5.3268">
        <ele>344</ele>
        <time>2021-04-03T12:05:11.588Z</time>
      </trkpt>
      <trkpt lat="45.61676" lon="5.32688">
        <ele>344</ele>
        <time>2021-04-03T12:05:12.588Z</time>
      </trkpt>
      <trkpt lat="45.61675" lon="5.32696">
        <ele>344</ele>
        <time>2021-04-03T12:05:13.588Z</time>
      </trkpt>
      <trkpt lat="45.61673" lon="5.32704">
        <ele>344</ele>
        <time>2021-04-03T12:05:14.588Z</time>
      </trkpt>
      <trkpt lat="45.61671" lon="5.32712">
        <ele>344</ele>
        <time>2021-04-03T12:05:15.587Z</time>
      </trkpt>
      <trkpt lat="45.61669" lon="5.3272">
        <ele>344</ele>
        <time>2021-04-03T12:05:16.588Z</time>
      </trkpt>
      <trkpt lat="45.61668" lon="5.32729">
        <ele>344</ele>
        <time>2021-04-03T12:05:17.587Z</time>
      </trkpt>
      <trkpt lat="45.61666" lon="5.32737">
        <ele>343</ele>
        <time>2021-04-03T12:05:18.587Z</time>
      </trkpt>
      <trkpt lat="45.61664" lon="5.32745">
        <ele>343</ele>
        <time>2021-04-03T12:05:19.588Z</time>
      </trkpt>
      <trkpt lat="45.61661" lon="5.32753">
        <ele>343</ele>
        <time>2021-04-03T12:05:20.587Z</time>
      </trkpt>
      <trkpt lat="45.61659" lon="5.32761">
        <ele>343</ele>
        <time>2021-04-03T12:05:21.588Z</time>
      </trkpt>
      <trkpt lat="45.61657" lon="5.32767">
        <ele>343</ele>
        <time>2021-04-03T12:05:22.588Z</time>
      </trkpt>
      <trkpt lat="45.61655" lon="5.32775">
        <ele>343</ele>
        <time>2021-04-03T12:05:23.588Z</time>
      </trkpt>
      <trkpt lat="45.61652" lon="5.32783">
        <ele>343</ele>
        <time>2021-04-03T12:05:24.587Z</time>
      </trkpt>
      <trkpt lat="45.6165" lon="5.3279">
        <ele>342</ele>
        <time>2021-04-03T12:05:25.587Z</time>
      </trkpt>
      <trkpt lat="45.61648" lon="5.32796">
        <ele>342</ele>
        <time>2021-04-03T12:05:26.588Z</time>
      </trkpt>
      <trkpt lat="45.61646" lon="5.32803">
        <ele>342</ele>
        <time>2021-04-03T12:05:27.588Z</time>
      </trkpt>
      <trkpt lat="45.61643" lon="5.32812">
        <ele>342</ele>
        <time>2021-04-03T12:05:28.588Z</time>
      </trkpt>
      <trkpt lat="45.6164" lon="5.3282">
        <ele>343</ele>
        <time>2021-04-03T12:05:29.588Z</time>
      </trkpt>
      <trkpt lat="45.61638" lon="5.32827">
        <ele>343</ele>
        <time>2021-04-03T12:05:30.588Z</time>
      </trkpt>
      <trkpt lat="45.61636" lon="5.32833">
        <ele>343</ele>
        <time>2021-04-03T12:05:31.588Z</time>
      </trkpt>
      <trkpt lat="45.61633" lon="5.32842">
        <ele>343</ele>
        <time>2021-04-03T12:05:32.588Z</time>
      </trkpt>
      <trkpt lat="45.61631" lon="5.32849">
        <ele>343</ele>
        <time>2021-04-03T12:05:33.588Z</time>
      </trkpt>
      <trkpt lat="45.61628" lon="5.32857">
        <ele>343</ele>
        <time>2021-04-03T12:05:34.588Z</time>
      </trkpt>
      <trkpt lat="45.61625" lon="5.32864">
        <ele>343</ele>
        <time>2021-04-03T12:05:35.588Z</time>
      </trkpt>
      <trkpt lat="45.61623" lon="5.32872">
        <ele>343</ele>
        <time>2021-04-03T12:05:36.588Z</time>
      </trkpt>
      <trkpt lat="45.6162" lon="5.32879">
        <ele>342</ele>
        <time>2021-04-03T12:05:37.588Z</time>
      </trkpt>
      <trkpt lat="45.61617" lon="5.32886">
        <ele>342</ele>
        <time>2021-04-03T12:05:38.588Z</time>
      </trkpt>
      <trkpt lat="45.61614" lon="5.32893">
        <ele>342</ele>
        <time>2021-04-03T12:05:39.588Z</time>
      </trkpt>
      <trkpt lat="45.61611" lon="5.329">
        <ele>342</ele>
        <time>2021-04-03T12:05:40.588Z</time>
      </trkpt>
      <trkpt lat="45.61609" lon="5.32906">
        <ele>342</ele>
        <time>2021-04-03T12:05:41.588Z</time>
      </trkpt>
      <trkpt lat="45.61605" lon="5.32914">
        <ele>342</ele>
        <time>2021-04-03T12:05:42.587Z</time>
      </trkpt>
      <trkpt lat="45.61602" lon="5.3292">
        <ele>343</ele>
        <time>2021-04-03T12:05:43.587Z</time>
      </trkpt>
      <trkpt lat="45.616" lon="5.32926">
        <ele>343</ele>
        <time>2021-04-03T12:05:44.587Z</time>
      </trkpt>
      <trkpt lat="45.61597" lon="5.32932">
        <ele>343</ele>
        <time>2021-04-03T12:05:45.588Z</time>
      </trkpt>
      <trkpt lat="45.61595" lon="5.32938">
        <ele>344</ele>
        <time>2021-04-03T12:05:46.588Z</time>
      </trkpt>
      <trkpt lat="45.61592" lon="5.32944">
        <ele>344</ele>
        <time>2021-04-03T12:05:47.588Z</time>
      </trkpt>
      <trkpt lat="45.6159" lon="5.32949">
        <ele>344</ele>
        <time>2021-04-03T12:05:48.588Z</time>
      </trkpt>
      <trkpt lat="45.61587" lon="5.32955">
        <ele>343</ele>
        <time>2021-04-03T12:05:49.588Z</time>
      </trkpt>
      <trkpt lat="45.61584" lon="5.3296">
        <ele>342</ele>
        <time>2021-04-03T12:05:50.588Z</time>
      </trkpt>
      <trkpt lat="45.61582" lon="5.32965">
        <ele>342</ele>
        <time>2021-04-03T12:05:51.587Z</time>
      </trkpt>
      <trkpt lat="45.6158" lon="5.3297">
        <ele>342</ele>
        <time>2021-04-03T12:05:52.588Z</time>
      </trkpt>
      <trkpt lat="45.61577" lon="5.32974">
        <ele>342</ele>
        <time>2021-04-03T12:05:53.588Z</time>
      </trkpt>
      <trkpt lat="45.61575" lon="5.32978">
        <ele>342</ele>
        <time>2021-04-03T12:05:54.587Z</time>
      </trkpt>
      <trkpt lat="45.61573" lon="5.32983">
        <ele>342</ele>
        <time>2021-04-03T12:05:55.588Z</time>
      </trkpt>
      <trkpt lat="45.61571" lon="5.32986">
        <ele>342</ele>
        <time>2021-04-03T12:05:56.588Z</time>
      </trkpt>
      <trkpt lat="45.61569" lon="5.32991">
        <ele>342</ele>
        <time>2021-04-03T12:05:57.588Z</time>
      </trkpt>
      <trkpt lat="45.61567" lon="5.32995">
        <ele>343</ele>
        <time>2021-04-03T12:05:58.588Z</time>
      </trkpt>
      <trkpt lat="45.61565" lon="5.32999">
        <ele>343</ele>
        <time>2021-04-03T12:05:59.588Z</time>
      </trkpt>
      <trkpt lat="45.61563" lon="5.33003">
        <ele>343</ele>
        <time>2021-04-03T12:06:00.588Z</time>
      </trkpt>
      <trkpt lat="45.61561" lon="5.33008">
        <ele>344</ele>
        <time>2021-04-03T12:06:01.588Z</time>
      </trkpt>
      <trkpt lat="45.61558" lon="5.33013">
        <ele>344</ele>
        <time>2021-04-03T12:06:02.588Z</time>
      </trkpt>
      <trkpt lat="45.61556" lon="5.33017">
        <ele>345</ele>
        <time>2021-04-03T12:06:03.588Z</time>
      </trkpt>
      <trkpt lat="45.61554" lon="5.33021">
        <ele>346</ele>
        <time>2021-04-03T12:06:04.588Z</time>
      </trkpt>
      <trkpt lat="45.61552" lon="5.33025">
        <ele>346</ele>
        <time>2021-04-03T12:06:05.588Z</time>
      </trkpt>
      <trkpt lat="45.6155" lon="5.3303">
        <ele>347</ele>
        <time>2021-04-03T12:06:06.588Z</time>
      </trkpt>
      <trkpt lat="45.61548" lon="5.33035">
        <ele>347</ele>
        <time>2021-04-03T12:06:07.588Z</time>
      </trkpt>
      <trkpt lat="45.61546" lon="5.33039">
        <ele>348</ele>
        <time>2021-04-03T12:06:08.587Z</time>
      </trkpt>
      <trkpt lat="45.61544" lon="5.33043">
        <ele>348</ele>
        <time>2021-04-03T12:06:09.587Z</time>
      </trkpt>
      <trkpt lat="45.61542" lon="5.33047">
        <ele>349</ele>
        <time>2021-04-03T12:06:10.588Z</time>
      </trkpt>
      <trkpt lat="45.6154" lon="5.33051">
        <ele>349</ele>
        <time>2021-04-03T12:06:11.588Z</time>
      </trkpt>
      <trkpt lat="45.61538" lon="5.33055">
        <ele>349</ele>
        <time>2021-04-03T12:06:12.588Z</time>
      </trkpt>
      <trkpt lat="45.61537" lon="5.33059">
        <ele>350</ele>
        <time>2021-04-03T12:06:13.588Z</time>
      </trkpt>
      <trkpt lat="45.61535" lon="5.33062">
        <ele>350</ele>
        <time>2021-04-03T12:06:14.587Z</time>
      </trkpt>
      <trkpt lat="45.61533" lon="5.33067">
        <ele>351</ele>
        <time>2021-04-03T12:06:15.587Z</time>
      </trkpt>
      <trkpt lat="45.61531" lon="5.33072">
        <ele>351</ele>
        <time>2021-04-03T12:06:16.588Z</time>
      </trkpt>
      <trkpt lat="45.61529" lon="5.33076">
        <ele>351</ele>
        <time>2021-04-03T12:06:17.588Z</time>
      </trkpt>
      <trkpt lat="45.61527" lon="5.3308">
        <ele>352</ele>
        <time>2021-04-03T12:06:18.588Z</time>
      </trkpt>
      <trkpt lat="45.61526" lon="5.33083">
        <ele>353</ele>
        <time>2021-04-03T12:06:19.588Z</time>
      </trkpt>
      <trkpt lat="45.61524" lon="5.33087">
        <ele>354</ele>
        <time>2021-04-03T12:06:20.588Z</time>
      </trkpt>
      <trkpt lat="45.61522" lon="5.33092">
        <ele>355</ele>
        <time>2021-04-03T12:06:21.587Z</time>
      </trkpt>
      <trkpt lat="45.61519" lon="5.33097">
        <ele>355</ele>
        <time>2021-04-03T12:06:22.588Z</time>
      </trkpt>
      <trkpt lat="45.61517" lon="5.33101">
        <ele>355</ele>
        <time>2021-04-03T12:06:23.588Z</time>
      </trkpt>
      <trkpt lat="45.61515" lon="5.33105">
        <ele>355</ele>
        <time>2021-04-03T12:06:24.588Z</time>
      </trkpt>
      <trkpt lat="45.61513" lon="5.33109">
        <ele>355</ele>
        <time>2021-04-03T12:06:25.588Z</time>
      </trkpt>
      <trkpt lat="45.61512" lon="5.33113">
        <ele>355</ele>
        <time>2021-04-03T12:06:26.588Z</time>
      </trkpt>
      <trkpt lat="45.6151" lon="5.33117">
        <ele>355</ele>
        <time>2021-04-03T12:06:27.587Z</time>
      </trkpt>
      <trkpt lat="45.61508" lon="5.33121">
        <ele>355</ele>
        <time>2021-04-03T12:06:28.588Z</time>
      </trkpt>
      <trkpt lat="45.61507" lon="5.33124">
        <ele>355</ele>
        <time>2021-04-03T12:06:29.587Z</time>
      </trkpt>
      <trkpt lat="45.61505" lon="5.33127">
        <ele>355</ele>
        <time>2021-04-03T12:06:30.587Z</time>
      </trkpt>
      <trkpt lat="45.61503" lon="5.33132">
        <ele>355</ele>
        <time>2021-04-03T12:06:31.587Z</time>
      </trkpt>
      <trkpt lat="45.61501" lon="5.33136">
        <ele>355</ele>
        <time>2021-04-03T12:06:32.587Z</time>
      </trkpt>
      <trkpt lat="45.61499" lon="5.33139">
        <ele>355</ele>
        <time>2021-04-03T12:06:33.588Z</time>
      </trkpt>
      <trkpt lat="45.61498" lon="5.33142">
        <ele>355</ele>
        <time>2021-04-03T12:06:34.588Z</time>
      </trkpt>
      <trkpt lat="45.61496" lon="5.33146">
        <ele>355</ele>
        <time>2021-04-03T12:06:35.588Z</time>
      </trkpt>
      <trkpt lat="45.61494" lon="5.33151">
        <ele>355</ele>
        <time>2021-04-03T12:06:36.588Z</time>
      </trkpt>
      <trkpt lat="45.61492" lon="5.33155">
        <ele>355</ele>
        <time>2021-04-03T12:06:37.588Z</time>
      </trkpt>
      <trkpt lat="45.61491" lon="5.33158">
        <ele>355</ele>
        <time>2021-04-03T12:06:38.588Z</time>
      </trkpt>
      <trkpt lat="45.61489" lon="5.33162">
        <ele>356</ele>
        <time>2021-04-03T12:06:39.587Z</time>
      </trkpt>
      <trkpt lat="45.61488" lon="5.33166">
        <ele>356</ele>
        <time>2021-04-03T12:06:40.588Z</time>
      </trkpt>
      <trkpt lat="45.61486" lon="5.33169">
        <ele>356</ele>
        <time>2021-04-03T12:06:41.587Z</time>
      </trkpt>
      <trkpt lat="45.61485" lon="5.33173">
        <ele>356</ele>
        <time>2021-04-03T12:06:42.588Z</time>
      </trkpt>
      <trkpt lat="45.61484" lon="5.33176">
        <ele>357</ele>
        <time>2021-04-03T12:06:43.588Z</time>
      </trkpt>
      <trkpt lat="45.61482" lon="5.3318">
        <ele>357</ele>
        <time>2021-04-03T12:06:44.587Z</time>
      </trkpt>
      <trkpt lat="45.61479" lon="5.33185">
        <ele>357</ele>
        <time>2021-04-03T12:06:45.588Z</time>
      </trkpt>
      <trkpt lat="45.61478" lon="5.33189">
        <ele>357</ele>
        <time>2021-04-03T12:06:46.588Z</time>
      </trkpt>
      <trkpt lat="45.61476" lon="5.33193">
        <ele>358</ele>
        <time>2021-04-03T12:06:47.587Z</time>
      </trkpt>
      <trkpt lat="45.61475" lon="5.33197">
        <ele>358</ele>
        <time>2021-04-03T12:06:48.588Z</time>
      </trkpt>
      <trkpt lat="45.61473" lon="5.33201">
        <ele>358</ele>
        <time>2021-04-03T12:06:49.587Z</time>
      </trkpt>
      <trkpt lat="45.61471" lon="5.33206">
        <ele>359</ele>
        <time>2021-04-03T12:06:50.588Z</time>
      </trkpt>
      <trkpt lat="45.6147" lon="5.3321">
        <ele>359</ele>
        <time>2021-04-03T12:06:51.587Z</time>
      </trkpt>
      <trkpt lat="45.61469" lon="5.33214">
        <ele>359</ele>
        <time>2021-04-03T12:06:52.588Z</time>
      </trkpt>
      <trkpt lat="45.61468" lon="5.33217">
        <ele>359</ele>
        <time>2021-04-03T12:06:53.588Z</time>
      </trkpt>
      <trkpt lat="45.61466" lon="5.33222">
        <ele>359</ele>
        <time>2021-04-03T12:06:54.587Z</time>
      </trkpt>
      <trkpt lat="45.61464" lon="5.33226">
        <ele>359</ele>
        <time>2021-04-03T12:06:55.587Z</time>
      </trkpt>
      <trkpt lat="45.61463" lon="5.3323">
        <ele>359</ele>
        <time>2021-04-03T12:06:56.588Z</time>
      </trkpt>
      <trkpt lat="45.61461" lon="5.33234">
        <ele>359</ele>
        <time>2021-04-03T12:06:57.587Z</time>
      </trkpt>
      <trkpt lat="45.6146" lon="5.33239">
        <ele>359</ele>
        <time>2021-04-03T12:06:58.588Z</time>
      </trkpt>
      <trkpt lat="45.61458" lon="5.33243">
        <ele>359</ele>
        <time>2021-04-03T12:06:59.588Z</time>
      </trkpt>
      <trkpt lat="45.61457" lon="5.33247">
        <ele>359</ele>
        <time>2021-04-03T12:07:00.587Z</time>
      </trkpt>
      <trkpt lat="45.61456" lon="5.33251">
        <ele>360</ele>
        <time>2021-04-03T12:07:01.588Z</time>
      </trkpt>
      <trkpt lat="45.61455" lon="5.33255">
        <ele>360</ele>
        <time>2021-04-03T12:07:02.588Z</time>
      </trkpt>
      <trkpt lat="45.61455" lon="5.33258">
        <ele>361</ele>
        <time>2021-04-03T12:07:03.588Z</time>
      </trkpt>
      <trkpt lat="45.61454" lon="5.33262">
        <ele>361</ele>
        <time>2021-04-03T12:07:04.588Z</time>
      </trkpt>
      <trkpt lat="45.61453" lon="5.33266">
        <ele>362</ele>
        <time>2021-04-03T12:07:05.588Z</time>
      </trkpt>
      <trkpt lat="45.61452" lon="5.3327">
        <ele>362</ele>
        <time>2021-04-03T12:07:06.588Z</time>
      </trkpt>
      <trkpt lat="45.61451" lon="5.33274">
        <ele>362</ele>
        <time>2021-04-03T12:07:07.588Z</time>
      </trkpt>
      <trkpt lat="45.61449" lon="5.33279">
        <ele>363</ele>
        <time>2021-04-03T12:07:08.588Z</time>
      </trkpt>
      <trkpt lat="45.61448" lon="5.33283">
        <ele>363</ele>
        <time>2021-04-03T12:07:09.588Z</time>
      </trkpt>
      <trkpt lat="45.61446" lon="5.33288">
        <ele>363</ele>
        <time>2021-04-03T12:07:10.587Z</time>
      </trkpt>
      <trkpt lat="45.61445" lon="5.33293">
        <ele>363</ele>
        <time>2021-04-03T12:07:11.588Z</time>
      </trkpt>
      <trkpt lat="45.61443" lon="5.33297">
        <ele>362</ele>
        <time>2021-04-03T12:07:12.588Z</time>
      </trkpt>
      <trkpt lat="45.61442" lon="5.33301">
        <ele>362</ele>
        <time>2021-04-03T12:07:13.588Z</time>
      </trkpt>
      <trkpt lat="45.61441" lon="5.33305">
        <ele>362</ele>
        <time>2021-04-03T12:07:14.587Z</time>
      </trkpt>
      <trkpt lat="45.61439" lon="5.33309">
        <ele>362</ele>
        <time>2021-04-03T12:07:15.587Z</time>
      </trkpt>
      <trkpt lat="45.61438" lon="5.33313">
        <ele>362</ele>
        <time>2021-04-03T12:07:16.588Z</time>
      </trkpt>
      <trkpt lat="45.61437" lon="5.33316">
        <ele>362</ele>
        <time>2021-04-03T12:07:17.587Z</time>
      </trkpt>
      <trkpt lat="45.61435" lon="5.33321">
        <ele>362</ele>
        <time>2021-04-03T12:07:18.588Z</time>
      </trkpt>
      <trkpt lat="45.61434" lon="5.33325">
        <ele>363</ele>
        <time>2021-04-03T12:07:19.588Z</time>
      </trkpt>
      <trkpt lat="45.61433" lon="5.33329">
        <ele>363</ele>
        <time>2021-04-03T12:07:20.587Z</time>
      </trkpt>
      <trkpt lat="45.61431" lon="5.33333">
        <ele>363</ele>
        <time>2021-04-03T12:07:21.588Z</time>
      </trkpt>
      <trkpt lat="45.6143" lon="5.33337">
        <ele>363</ele>
        <time>2021-04-03T12:07:22.588Z</time>
      </trkpt>
      <trkpt lat="45.61429" lon="5.33341">
        <ele>363</ele>
        <time>2021-04-03T12:07:23.588Z</time>
      </trkpt>
      <trkpt lat="45.61427" lon="5.33346">
        <ele>362</ele>
        <time>2021-04-03T12:07:24.587Z</time>
      </trkpt>
      <trkpt lat="45.61425" lon="5.33351">
        <ele>362</ele>
        <time>2021-04-03T12:07:25.587Z</time>
      </trkpt>
      <trkpt lat="45.61423" lon="5.33356">
        <ele>362</ele>
        <time>2021-04-03T12:07:26.588Z</time>
      </trkpt>
      <trkpt lat="45.61422" lon="5.3336">
        <ele>362</ele>
        <time>2021-04-03T12:07:27.587Z</time>
      </trkpt>
      <trkpt lat="45.6142" lon="5.33366">
        <ele>362</ele>
        <time>2021-04-03T12:07:28.588Z</time>
      </trkpt>
      <trkpt lat="45.61418" lon="5.33372">
        <ele>362</ele>
        <time>2021-04-03T12:07:29.588Z</time>
      </trkpt>
      <trkpt lat="45.61416" lon="5.33377">
        <ele>362</ele>
        <time>2021-04-03T12:07:30.587Z</time>
      </trkpt>
      <trkpt lat="45.61414" lon="5.33381">
        <ele>362</ele>
        <time>2021-04-03T12:07:31.588Z</time>
      </trkpt>
      <trkpt lat="45.61412" lon="5.33386">
        <ele>362</ele>
        <time>2021-04-03T12:07:32.588Z</time>
      </trkpt>
      <trkpt lat="45.6141" lon="5.33391">
        <ele>362</ele>
        <time>2021-04-03T12:07:33.588Z</time>
      </trkpt>
      <trkpt lat="45.61408" lon="5.33396">
        <ele>361</ele>
        <time>2021-04-03T12:07:34.587Z</time>
      </trkpt>
      <trkpt lat="45.61406" lon="5.33401">
        <ele>361</ele>
        <time>2021-04-03T12:07:35.588Z</time>
      </trkpt>
      <trkpt lat="45.61404" lon="5.33405">
        <ele>361</ele>
        <time>2021-04-03T12:07:36.588Z</time>
      </trkpt>
      <trkpt lat="45.61403" lon="5.3341">
        <ele>361</ele>
        <time>2021-04-03T12:07:37.588Z</time>
      </trkpt>
      <trkpt lat="45.614" lon="5.33415">
        <ele>360</ele>
        <time>2021-04-03T12:07:38.587Z</time>
      </trkpt>
      <trkpt lat="45.61398" lon="5.3342">
        <ele>360</ele>
        <time>2021-04-03T12:07:39.588Z</time>
      </trkpt>
      <trkpt lat="45.61396" lon="5.33424">
        <ele>360</ele>
        <time>2021-04-03T12:07:40.587Z</time>
      </trkpt>
      <trkpt lat="45.61395" lon="5.33428">
        <ele>360</ele>
        <time>2021-04-03T12:07:41.587Z</time>
      </trkpt>
      <trkpt lat="45.61392" lon="5.33435">
        <ele>360</ele>
        <time>2021-04-03T12:07:42.587Z</time>
      </trkpt>
      <trkpt lat="45.61391" lon="5.33439">
        <ele>360</ele>
        <time>2021-04-03T12:07:43.587Z</time>
      </trkpt>
      <trkpt lat="45.61389" lon="5.33444">
        <ele>360</ele>
        <time>2021-04-03T12:07:44.588Z</time>
      </trkpt>
      <trkpt lat="45.61387" lon="5.33449">
        <ele>360</ele>
        <time>2021-04-03T12:07:45.588Z</time>
      </trkpt>
      <trkpt lat="45.61386" lon="5.33453">
        <ele>360</ele>
        <time>2021-04-03T12:07:46.588Z</time>
      </trkpt>
      <trkpt lat="45.61384" lon="5.33458">
        <ele>360</ele>
        <time>2021-04-03T12:07:47.588Z</time>
      </trkpt>
      <trkpt lat="45.61382" lon="5.33463">
        <ele>359</ele>
        <time>2021-04-03T12:07:48.587Z</time>
      </trkpt>
      <trkpt lat="45.61381" lon="5.33469">
        <ele>359</ele>
        <time>2021-04-03T12:07:49.587Z</time>
      </trkpt>
      <trkpt lat="45.61379" lon="5.33474">
        <ele>360</ele>
        <time>2021-04-03T12:07:50.587Z</time>
      </trkpt>
      <trkpt lat="45.61377" lon="5.33479">
        <ele>360</ele>
        <time>2021-04-03T12:07:51.587Z</time>
      </trkpt>
      <trkpt lat="45.61376" lon="5.33484">
        <ele>361</ele>
        <time>2021-04-03T12:07:52.587Z</time>
      </trkpt>
      <trkpt lat="45.61374" lon="5.3349">
        <ele>362</ele>
        <time>2021-04-03T12:07:53.587Z</time>
      </trkpt>
      <trkpt lat="45.61372" lon="5.33495">
        <ele>362</ele>
        <time>2021-04-03T12:07:54.588Z</time>
      </trkpt>
      <trkpt lat="45.61371" lon="5.33499">
        <ele>362</ele>
        <time>2021-04-03T12:07:55.587Z</time>
      </trkpt>
      <trkpt lat="45.61368" lon="5.33505">
        <ele>362</ele>
        <time>2021-04-03T12:07:56.588Z</time>
      </trkpt>
      <trkpt lat="45.61367" lon="5.3351">
        <ele>362</ele>
        <time>2021-04-03T12:07:57.588Z</time>
      </trkpt>
      <trkpt lat="45.61365" lon="5.33515">
        <ele>362</ele>
        <time>2021-04-03T12:07:58.588Z</time>
      </trkpt>
      <trkpt lat="45.61363" lon="5.33519">
        <ele>362</ele>
        <time>2021-04-03T12:07:59.587Z</time>
      </trkpt>
      <trkpt lat="45.61361" lon="5.33525">
        <ele>362</ele>
        <time>2021-04-03T12:08:00.588Z</time>
      </trkpt>
      <trkpt lat="45.6136" lon="5.33529">
        <ele>362</ele>
        <time>2021-04-03T12:08:01.588Z</time>
      </trkpt>
      <trkpt lat="45.61358" lon="5.33534">
        <ele>362</ele>
        <time>2021-04-03T12:08:02.588Z</time>
      </trkpt>
      <trkpt lat="45.61357" lon="5.33539">
        <ele>362</ele>
        <time>2021-04-03T12:08:03.588Z</time>
      </trkpt>
      <trkpt lat="45.61355" lon="5.33543">
        <ele>362</ele>
        <time>2021-04-03T12:08:04.588Z</time>
      </trkpt>
      <trkpt lat="45.61354" lon="5.33548">
        <ele>361</ele>
        <time>2021-04-03T12:08:05.588Z</time>
      </trkpt>
      <trkpt lat="45.61352" lon="5.33553">
        <ele>361</ele>
        <time>2021-04-03T12:08:06.588Z</time>
      </trkpt>
      <trkpt lat="45.6135" lon="5.33557">
        <ele>361</ele>
        <time>2021-04-03T12:08:07.588Z</time>
      </trkpt>
      <trkpt lat="45.61349" lon="5.33561">
        <ele>361</ele>
        <time>2021-04-03T12:08:08.588Z</time>
      </trkpt>
      <trkpt lat="45.61347" lon="5.33566">
        <ele>361</ele>
        <time>2021-04-03T12:08:09.588Z</time>
      </trkpt>
      <trkpt lat="45.61345" lon="5.33572">
        <ele>362</ele>
        <time>2021-04-03T12:08:10.588Z</time>
      </trkpt>
      <trkpt lat="45.61343" lon="5.33577">
        <ele>362</ele>
        <time>2021-04-03T12:08:11.587Z</time>
      </trkpt>
      <trkpt lat="45.61342" lon="5.33581">
        <ele>362</ele>
        <time>2021-04-03T12:08:12.588Z</time>
      </trkpt>
      <trkpt lat="45.6134" lon="5.33586">
        <ele>362</ele>
        <time>2021-04-03T12:08:13.587Z</time>
      </trkpt>
      <trkpt lat="45.61338" lon="5.33591">
        <ele>362</ele>
        <time>2021-04-03T12:08:14.587Z</time>
      </trkpt>
      <trkpt lat="45.61337" lon="5.33596">
        <ele>362</ele>
        <time>2021-04-03T12:08:15.587Z</time>
      </trkpt>
      <trkpt lat="45.61335" lon="5.33601">
        <ele>362</ele>
        <time>2021-04-03T12:08:16.587Z</time>
      </trkpt>
      <trkpt lat="45.61333" lon="5.33606">
        <ele>362</ele>
        <time>2021-04-03T12:08:17.588Z</time>
      </trkpt>
      <trkpt lat="45.61332" lon="5.3361">
        <ele>362</ele>
        <time>2021-04-03T12:08:18.587Z</time>
      </trkpt>
      <trkpt lat="45.6133" lon="5.33615">
        <ele>362</ele>
        <time>2021-04-03T12:08:19.588Z</time>
      </trkpt>
      <trkpt lat="45.61328" lon="5.33621">
        <ele>362</ele>
        <time>2021-04-03T12:08:20.587Z</time>
      </trkpt>
      <trkpt lat="45.61326" lon="5.33626">
        <ele>363</ele>
        <time>2021-04-03T12:08:21.588Z</time>
      </trkpt>
      <trkpt lat="45.61324" lon="5.33632">
        <ele>363</ele>
        <time>2021-04-03T12:08:22.588Z</time>
      </trkpt>
      <trkpt lat="45.61322" lon="5.33637">
        <ele>363</ele>
        <time>2021-04-03T12:08:23.588Z</time>
      </trkpt>
      <trkpt lat="45.6132" lon="5.33642">
        <ele>363</ele>
        <time>2021-04-03T12:08:24.588Z</time>
      </trkpt>
      <trkpt lat="45.61318" lon="5.33647">
        <ele>363</ele>
        <time>2021-04-03T12:08:25.588Z</time>
      </trkpt>
      <trkpt lat="45.61316" lon="5.33652">
        <ele>363</ele>
        <time>2021-04-03T12:08:26.588Z</time>
      </trkpt>
      <trkpt lat="45.61313" lon="5.33657">
        <ele>363</ele>
        <time>2021-04-03T12:08:27.587Z</time>
      </trkpt>
      <trkpt lat="45.61311" lon="5.33662">
        <ele>363</ele>
        <time>2021-04-03T12:08:28.588Z</time>
      </trkpt>
      <trkpt lat="45.61308" lon="5.33667">
        <ele>364</ele>
        <time>2021-04-03T12:08:29.587Z</time>
      </trkpt>
      <trkpt lat="45.61306" lon="5.33672">
        <ele>364</ele>
        <time>2021-04-03T12:08:30.587Z</time>
      </trkpt>
      <trkpt lat="45.61303" lon="5.33677">
        <ele>364</ele>
        <time>2021-04-03T12:08:31.587Z</time>
      </trkpt>
      <trkpt lat="45.61301" lon="5.33682">
        <ele>364</ele>
        <time>2021-04-03T12:08:32.588Z</time>
      </trkpt>
      <trkpt lat="45.61298" lon="5.33686">
        <ele>364</ele>
        <time>2021-04-03T12:08:33.588Z</time>
      </trkpt>
      <trkpt lat="45.61296" lon="5.33691">
        <ele>364</ele>
        <time>2021-04-03T12:08:34.587Z</time>
      </trkpt>
      <trkpt lat="45.61293" lon="5.33696">
        <ele>364</ele>
        <time>2021-04-03T12:08:35.588Z</time>
      </trkpt>
      <trkpt lat="45.6129" lon="5.337">
        <ele>364</ele>
        <time>2021-04-03T12:08:36.587Z</time>
      </trkpt>
      <trkpt lat="45.61287" lon="5.33704">
        <ele>364</ele>
        <time>2021-04-03T12:08:37.587Z</time>
      </trkpt>
      <trkpt lat="45.61283" lon="5.33708">
        <ele>364</ele>
        <time>2021-04-03T12:08:38.587Z</time>
      </trkpt>
      <trkpt lat="45.6128" lon="5.33711">
        <ele>364</ele>
        <time>2021-04-03T12:08:39.588Z</time>
      </trkpt>
      <trkpt lat="45.61277" lon="5.33714">
        <ele>363</ele>
        <time>2021-04-03T12:08:40.587Z</time>
      </trkpt>
      <trkpt lat="45.61273" lon="5.33718">
        <ele>363</ele>
        <time>2021-04-03T12:08:41.588Z</time>
      </trkpt>
      <trkpt lat="45.61269" lon="5.33721">
        <ele>363</ele>
        <time>2021-04-03T12:08:42.588Z</time>
      </trkpt>
      <trkpt lat="45.61265" lon="5.33724">
        <ele>363</ele>
        <time>2021-04-03T12:08:43.588Z</time>
      </trkpt>
      <trkpt lat="45.61262" lon="5.33727">
        <ele>362</ele>
        <time>2021-04-03T12:08:44.587Z</time>
      </trkpt>
      <trkpt lat="45.61258" lon="5.3373">
        <ele>362</ele>
        <time>2021-04-03T12:08:45.587Z</time>
      </trkpt>
      <trkpt lat="45.61254" lon="5.33734">
        <ele>362</ele>
        <time>2021-04-03T12:08:46.587Z</time>
      </trkpt>
      <trkpt lat="45.6125" lon="5.33737">
        <ele>362</ele>
        <time>2021-04-03T12:08:47.587Z</time>
      </trkpt>
      <trkpt lat="45.61247" lon="5.3374">
        <ele>363</ele>
        <time>2021-04-03T12:08:48.588Z</time>
      </trkpt>
      <trkpt lat="45.61243" lon="5.33744">
        <ele>363</ele>
        <time>2021-04-03T12:08:49.588Z</time>
      </trkpt>
      <trkpt lat="45.61239" lon="5.33747">
        <ele>363</ele>
        <time>2021-04-03T12:08:50.587Z</time>
      </trkpt>
      <trkpt lat="45.61236" lon="5.3375">
        <ele>362</ele>
        <time>2021-04-03T12:08:51.588Z</time>
      </trkpt>
      <trkpt lat="45.61231" lon="5.33754">
        <ele>362</ele>
        <time>2021-04-03T12:08:52.588Z</time>
      </trkpt>
      <trkpt lat="45.61228" lon="5.33758">
        <ele>362</ele>
        <time>2021-04-03T12:08:53.588Z</time>
      </trkpt>
      <trkpt lat="45.61225" lon="5.33762">
        <ele>363</ele>
        <time>2021-04-03T12:08:54.587Z</time>
      </trkpt>
      <trkpt lat="45.61222" lon="5.33766">
        <ele>363</ele>
        <time>2021-04-03T12:08:55.587Z</time>
      </trkpt>
      <trkpt lat="45.61219" lon="5.33771">
        <ele>363</ele>
        <time>2021-04-03T12:08:56.588Z</time>
      </trkpt>
      <trkpt lat="45.61215" lon="5.33775">
        <ele>363</ele>
        <time>2021-04-03T12:08:57.587Z</time>
      </trkpt>
      <trkpt lat="45.61211" lon="5.3378">
        <ele>363</ele>
        <time>2021-04-03T12:08:58.588Z</time>
      </trkpt>
      <trkpt lat="45.61208" lon="5.33785">
        <ele>363</ele>
        <time>2021-04-03T12:08:59.587Z</time>
      </trkpt>
      <trkpt lat="45.61204" lon="5.3379">
        <ele>363</ele>
        <time>2021-04-03T12:09:00.587Z</time>
      </trkpt>
      <trkpt lat="45.612" lon="5.33795">
        <ele>363</ele>
        <time>2021-04-03T12:09:01.588Z</time>
      </trkpt>
      <trkpt lat="45.61196" lon="5.338">
        <ele>363</ele>
        <time>2021-04-03T12:09:02.588Z</time>
      </trkpt>
      <trkpt lat="45.61193" lon="5.33805">
        <ele>363</ele>
        <time>2021-04-03T12:09:03.587Z</time>
      </trkpt>
      <trkpt lat="45.61189" lon="5.33809">
        <ele>363</ele>
        <time>2021-04-03T12:09:04.588Z</time>
      </trkpt>
      <trkpt lat="45.61185" lon="5.33814">
        <ele>363</ele>
        <time>2021-04-03T12:09:05.588Z</time>
      </trkpt>
      <trkpt lat="45.61182" lon="5.33818">
        <ele>363</ele>
        <time>2021-04-03T12:09:06.588Z</time>
      </trkpt>
      <trkpt lat="45.61178" lon="5.33823">
        <ele>363</ele>
        <time>2021-04-03T12:09:07.588Z</time>
      </trkpt>
      <trkpt lat="45.61174" lon="5.33827">
        <ele>363</ele>
        <time>2021-04-03T12:09:08.588Z</time>
      </trkpt>
      <trkpt lat="45.61171" lon="5.33831">
        <ele>363</ele>
        <time>2021-04-03T12:09:09.588Z</time>
      </trkpt>
      <trkpt lat="45.61167" lon="5.33835">
        <ele>363</ele>
        <time>2021-04-03T12:09:10.588Z</time>
      </trkpt>
      <trkpt lat="45.61164" lon="5.33839">
        <ele>363</ele>
        <time>2021-04-03T12:09:11.588Z</time>
      </trkpt>
      <trkpt lat="45.6116" lon="5.33844">
        <ele>363</ele>
        <time>2021-04-03T12:09:12.588Z</time>
      </trkpt>
      <trkpt lat="45.61157" lon="5.33848">
        <ele>363</ele>
        <time>2021-04-03T12:09:13.588Z</time>
      </trkpt>
      <trkpt lat="45.61153" lon="5.33852">
        <ele>363</ele>
        <time>2021-04-03T12:09:14.588Z</time>
      </trkpt>
      <trkpt lat="45.6115" lon="5.33856">
        <ele>363</ele>
        <time>2021-04-03T12:09:15.588Z</time>
      </trkpt>
      <trkpt lat="45.61147" lon="5.3386">
        <ele>364</ele>
        <time>2021-04-03T12:09:16.588Z</time>
      </trkpt>
      <trkpt lat="45.61143" lon="5.33864">
        <ele>364</ele>
        <time>2021-04-03T12:09:17.587Z</time>
      </trkpt>
      <trkpt lat="45.6114" lon="5.33868">
        <ele>364</ele>
        <time>2021-04-03T12:09:18.588Z</time>
      </trkpt>
      <trkpt lat="45.61137" lon="5.33872">
        <ele>364</ele>
        <time>2021-04-03T12:09:19.588Z</time>
      </trkpt>
      <trkpt lat="45.61134" lon="5.33876">
        <ele>364</ele>
        <time>2021-04-03T12:09:20.587Z</time>
      </trkpt>
      <trkpt lat="45.61132" lon="5.3388">
        <ele>364</ele>
        <time>2021-04-03T12:09:21.587Z</time>
      </trkpt>
      <trkpt lat="45.61129" lon="5.33885">
        <ele>365</ele>
        <time>2021-04-03T12:09:22.588Z</time>
      </trkpt>
      <trkpt lat="45.61127" lon="5.33889">
        <ele>365</ele>
        <time>2021-04-03T12:09:23.588Z</time>
      </trkpt>
      <trkpt lat="45.61125" lon="5.33894">
        <ele>365</ele>
        <time>2021-04-03T12:09:24.587Z</time>
      </trkpt>
      <trkpt lat="45.61121" lon="5.339">
        <ele>365</ele>
        <time>2021-04-03T12:09:25.588Z</time>
      </trkpt>
      <trkpt lat="45.61119" lon="5.33905">
        <ele>365</ele>
        <time>2021-04-03T12:09:26.588Z</time>
      </trkpt>
      <trkpt lat="45.61117" lon="5.33911">
        <ele>365</ele>
        <time>2021-04-03T12:09:27.588Z</time>
      </trkpt>
      <trkpt lat="45.61115" lon="5.33917">
        <ele>365</ele>
        <time>2021-04-03T12:09:28.588Z</time>
      </trkpt>
      <trkpt lat="45.61112" lon="5.33922">
        <ele>365</ele>
        <time>2021-04-03T12:09:29.587Z</time>
      </trkpt>
      <trkpt lat="45.6111" lon="5.33928">
        <ele>366</ele>
        <time>2021-04-03T12:09:30.588Z</time>
      </trkpt>
      <trkpt lat="45.61108" lon="5.33934">
        <ele>366</ele>
        <time>2021-04-03T12:09:31.587Z</time>
      </trkpt>
      <trkpt lat="45.61105" lon="5.33939">
        <ele>366</ele>
        <time>2021-04-03T12:09:32.587Z</time>
      </trkpt>
      <trkpt lat="45.61102" lon="5.33945">
        <ele>366</ele>
        <time>2021-04-03T12:09:33.587Z</time>
      </trkpt>
      <trkpt lat="45.611" lon="5.33951">
        <ele>366</ele>
        <time>2021-04-03T12:09:34.588Z</time>
      </trkpt>
      <trkpt lat="45.61097" lon="5.33956">
        <ele>366</ele>
        <time>2021-04-03T12:09:35.588Z</time>
      </trkpt>
      <trkpt lat="45.61094" lon="5.33961">
        <ele>367</ele>
        <time>2021-04-03T12:09:36.587Z</time>
      </trkpt>
      <trkpt lat="45.61091" lon="5.33966">
        <ele>367</ele>
        <time>2021-04-03T12:09:37.587Z</time>
      </trkpt>
      <trkpt lat="45.61088" lon="5.3397">
        <ele>368</ele>
        <time>2021-04-03T12:09:38.588Z</time>
      </trkpt>
      <trkpt lat="45.61084" lon="5.33975">
        <ele>368</ele>
        <time>2021-04-03T12:09:39.588Z</time>
      </trkpt>
      <trkpt lat="45.61081" lon="5.33979">
        <ele>368</ele>
        <time>2021-04-03T12:09:40.588Z</time>
      </trkpt>
      <trkpt lat="45.61078" lon="5.33984">
        <ele>368</ele>
        <time>2021-04-03T12:09:41.588Z</time>
      </trkpt>
      <trkpt lat="45.61075" lon="5.33988">
        <ele>368</ele>
        <time>2021-04-03T12:09:42.588Z</time>
      </trkpt>
      <trkpt lat="45.61073" lon="5.33992">
        <ele>368</ele>
        <time>2021-04-03T12:09:43.588Z</time>
      </trkpt>
      <trkpt lat="45.61069" lon="5.33997">
        <ele>368</ele>
        <time>2021-04-03T12:09:44.587Z</time>
      </trkpt>
      <trkpt lat="45.61066" lon="5.34001">
        <ele>368</ele>
        <time>2021-04-03T12:09:45.587Z</time>
      </trkpt>
      <trkpt lat="45.61063" lon="5.34005">
        <ele>368</ele>
        <time>2021-04-03T12:09:46.587Z</time>
      </trkpt>
      <trkpt lat="45.6106" lon="5.34009">
        <ele>368</ele>
        <time>2021-04-03T12:09:47.587Z</time>
      </trkpt>
      <trkpt lat="45.61057" lon="5.34013">
        <ele>368</ele>
        <time>2021-04-03T12:09:48.588Z</time>
      </trkpt>
      <trkpt lat="45.61054" lon="5.34018">
        <ele>368</ele>
        <time>2021-04-03T12:09:49.588Z</time>
      </trkpt>
      <trkpt lat="45.61051" lon="5.34022">
        <ele>368</ele>
        <time>2021-04-03T12:09:50.588Z</time>
      </trkpt>
      <trkpt lat="45.61048" lon="5.34026">
        <ele>368</ele>
        <time>2021-04-03T12:09:51.588Z</time>
      </trkpt>
      <trkpt lat="45.61045" lon="5.34031">
        <ele>368</ele>
        <time>2021-04-03T12:09:52.587Z</time>
      </trkpt>
      <trkpt lat="45.61042" lon="5.34035">
        <ele>368</ele>
        <time>2021-04-03T12:09:53.588Z</time>
      </trkpt>
      <trkpt lat="45.61039" lon="5.34039">
        <ele>368</ele>
        <time>2021-04-03T12:09:54.588Z</time>
      </trkpt>
      <trkpt lat="45.61036" lon="5.34043">
        <ele>368</ele>
        <time>2021-04-03T12:09:55.588Z</time>
      </trkpt>
      <trkpt lat="45.61034" lon="5.34046">
        <ele>369</ele>
        <time>2021-04-03T12:09:56.588Z</time>
      </trkpt>
      <trkpt lat="45.6103" lon="5.34051">
        <ele>369</ele>
        <time>2021-04-03T12:09:57.587Z</time>
      </trkpt>
      <trkpt lat="45.61027" lon="5.34055">
        <ele>369</ele>
        <time>2021-04-03T12:09:58.587Z</time>
      </trkpt>
      <trkpt lat="45.61025" lon="5.34059">
        <ele>369</ele>
        <time>2021-04-03T12:09:59.587Z</time>
      </trkpt>
      <trkpt lat="45.61023" lon="5.34062">
        <ele>369</ele>
        <time>2021-04-03T12:10:00.587Z</time>
      </trkpt>
      <trkpt lat="45.6102" lon="5.34066">
        <ele>370</ele>
        <time>2021-04-03T12:10:01.588Z</time>
      </trkpt>
      <trkpt lat="45.61017" lon="5.3407">
        <ele>370</ele>
        <time>2021-04-03T12:10:02.588Z</time>
      </trkpt>
      <trkpt lat="45.61014" lon="5.34074">
        <ele>370</ele>
        <time>2021-04-03T12:10:03.588Z</time>
      </trkpt>
      <trkpt lat="45.61012" lon="5.34078">
        <ele>370</ele>
        <time>2021-04-03T12:10:04.587Z</time>
      </trkpt>
      <trkpt lat="45.61009" lon="5.34082">
        <ele>370</ele>
        <time>2021-04-03T12:10:05.588Z</time>
      </trkpt>
      <trkpt lat="45.61006" lon="5.34086">
        <ele>370</ele>
        <time>2021-04-03T12:10:06.588Z</time>
      </trkpt>
      <trkpt lat="45.61003" lon="5.34091">
        <ele>370</ele>
        <time>2021-04-03T12:10:07.587Z</time>
      </trkpt>
      <trkpt lat="45.61" lon="5.34095">
        <ele>369</ele>
        <time>2021-04-03T12:10:08.587Z</time>
      </trkpt>
      <trkpt lat="45.60996" lon="5.34099">
        <ele>369</ele>
        <time>2021-04-03T12:10:09.588Z</time>
      </trkpt>
      <trkpt lat="45.60994" lon="5.34103">
        <ele>369</ele>
        <time>2021-04-03T12:10:10.588Z</time>
      </trkpt>
      <trkpt lat="45.60991" lon="5.34108">
        <ele>369</ele>
        <time>2021-04-03T12:10:11.588Z</time>
      </trkpt>
      <trkpt lat="45.60987" lon="5.34113">
        <ele>369</ele>
        <time>2021-04-03T12:10:12.588Z</time>
      </trkpt>
      <trkpt lat="45.60984" lon="5.34118">
        <ele>369</ele>
        <time>2021-04-03T12:10:13.588Z</time>
      </trkpt>
      <trkpt lat="45.60982" lon="5.34122">
        <ele>369</ele>
        <time>2021-04-03T12:10:14.588Z</time>
      </trkpt>
      <trkpt lat="45.60979" lon="5.34127">
        <ele>369</ele>
        <time>2021-04-03T12:10:15.587Z</time>
      </trkpt>
      <trkpt lat="45.60976" lon="5.34131">
        <ele>370</ele>
        <time>2021-04-03T12:10:16.587Z</time>
      </trkpt>
      <trkpt lat="45.60973" lon="5.34136">
        <ele>370</ele>
        <time>2021-04-03T12:10:17.588Z</time>
      </trkpt>
      <trkpt lat="45.60969" lon="5.34142">
        <ele>370</ele>
        <time>2021-04-03T12:10:18.588Z</time>
      </trkpt>
      <trkpt lat="45.60966" lon="5.34147">
        <ele>371</ele>
        <time>2021-04-03T12:10:19.588Z</time>
      </trkpt>
      <trkpt lat="45.60963" lon="5.34153">
        <ele>371</ele>
        <time>2021-04-03T12:10:20.588Z</time>
      </trkpt>
      <trkpt lat="45.6096" lon="5.3416">
        <ele>371</ele>
        <time>2021-04-03T12:10:21.588Z</time>
      </trkpt>
      <trkpt lat="45.60957" lon="5.34166">
        <ele>370</ele>
        <time>2021-04-03T12:10:22.588Z</time>
      </trkpt>
      <trkpt lat="45.60955" lon="5.34173">
        <ele>370</ele>
        <time>2021-04-03T12:10:23.588Z</time>
      </trkpt>
      <trkpt lat="45.60952" lon="5.3418">
        <ele>370</ele>
        <time>2021-04-03T12:10:24.587Z</time>
      </trkpt>
      <trkpt lat="45.6095" lon="5.34187">
        <ele>370</ele>
        <time>2021-04-03T12:10:25.587Z</time>
      </trkpt>
      <trkpt lat="45.60947" lon="5.34194">
        <ele>370</ele>
        <time>2021-04-03T12:10:26.588Z</time>
      </trkpt>
      <trkpt lat="45.60944" lon="5.34202">
        <ele>370</ele>
        <time>2021-04-03T12:10:27.588Z</time>
      </trkpt>
      <trkpt lat="45.60941" lon="5.34212">
        <ele>370</ele>
        <time>2021-04-03T12:10:28.588Z</time>
      </trkpt>
      <trkpt lat="45.60938" lon="5.34221">
        <ele>370</ele>
        <time>2021-04-03T12:10:29.588Z</time>
      </trkpt>
      <trkpt lat="45.60935" lon="5.34229">
        <ele>370</ele>
        <time>2021-04-03T12:10:30.587Z</time>
      </trkpt>
      <trkpt lat="45.60933" lon="5.34237">
        <ele>371</ele>
        <time>2021-04-03T12:10:31.588Z</time>
      </trkpt>
      <trkpt lat="45.60929" lon="5.34248">
        <ele>371</ele>
        <time>2021-04-03T12:10:32.588Z</time>
      </trkpt>
      <trkpt lat="45.60926" lon="5.34257">
        <ele>371</ele>
        <time>2021-04-03T12:10:33.588Z</time>
      </trkpt>
      <trkpt lat="45.60922" lon="5.34266">
        <ele>371</ele>
        <time>2021-04-03T12:10:34.588Z</time>
      </trkpt>
      <trkpt lat="45.6092" lon="5.34274">
        <ele>371</ele>
        <time>2021-04-03T12:10:35.588Z</time>
      </trkpt>
      <trkpt lat="45.60916" lon="5.34286">
        <ele>371</ele>
        <time>2021-04-03T12:10:36.588Z</time>
      </trkpt>
      <trkpt lat="45.60913" lon="5.34295">
        <ele>371</ele>
        <time>2021-04-03T12:10:37.588Z</time>
      </trkpt>
      <trkpt lat="45.6091" lon="5.34304">
        <ele>371</ele>
        <time>2021-04-03T12:10:38.587Z</time>
      </trkpt>
      <trkpt lat="45.60906" lon="5.34314">
        <ele>371</ele>
        <time>2021-04-03T12:10:39.588Z</time>
      </trkpt>
      <trkpt lat="45.60904" lon="5.34321">
        <ele>371</ele>
        <time>2021-04-03T12:10:40.588Z</time>
      </trkpt>
      <trkpt lat="45.60899" lon="5.34332">
        <ele>371</ele>
        <time>2021-04-03T12:10:41.588Z</time>
      </trkpt>
      <trkpt lat="45.60896" lon="5.3434">
        <ele>371</ele>
        <time>2021-04-03T12:10:42.588Z</time>
      </trkpt>
      <trkpt lat="45.60893" lon="5.34349">
        <ele>371</ele>
        <time>2021-04-03T12:10:43.588Z</time>
      </trkpt>
      <trkpt lat="45.60889" lon="5.34357">
        <ele>371</ele>
        <time>2021-04-03T12:10:44.588Z</time>
      </trkpt>
      <trkpt lat="45.60886" lon="5.34365">
        <ele>371</ele>
        <time>2021-04-03T12:10:45.588Z</time>
      </trkpt>
      <trkpt lat="45.60883" lon="5.34371">
        <ele>371</ele>
        <time>2021-04-03T12:10:46.588Z</time>
      </trkpt>
      <trkpt lat="45.60879" lon="5.3438">
        <ele>371</ele>
        <time>2021-04-03T12:10:47.588Z</time>
      </trkpt>
      <trkpt lat="45.60876" lon="5.34387">
        <ele>370</ele>
        <time>2021-04-03T12:10:48.588Z</time>
      </trkpt>
      <trkpt lat="45.60873" lon="5.34394">
        <ele>370</ele>
        <time>2021-04-03T12:10:49.588Z</time>
      </trkpt>
      <trkpt lat="45.6087" lon="5.344">
        <ele>370</ele>
        <time>2021-04-03T12:10:50.588Z</time>
      </trkpt>
      <trkpt lat="45.60866" lon="5.34407">
        <ele>370</ele>
        <time>2021-04-03T12:10:51.587Z</time>
      </trkpt>
      <trkpt lat="45.60863" lon="5.34413">
        <ele>370</ele>
        <time>2021-04-03T12:10:52.588Z</time>
      </trkpt>
      <trkpt lat="45.60859" lon="5.34419">
        <ele>371</ele>
        <time>2021-04-03T12:10:53.588Z</time>
      </trkpt>
      <trkpt lat="45.60855" lon="5.34426">
        <ele>371</ele>
        <time>2021-04-03T12:10:54.588Z</time>
      </trkpt>
      <trkpt lat="45.60852" lon="5.34431">
        <ele>371</ele>
        <time>2021-04-03T12:10:55.587Z</time>
      </trkpt>
      <trkpt lat="45.60847" lon="5.34438">
        <ele>371</ele>
        <time>2021-04-03T12:10:56.588Z</time>
      </trkpt>
      <trkpt lat="45.60842" lon="5.34445">
        <ele>371</ele>
        <time>2021-04-03T12:10:57.588Z</time>
      </trkpt>
      <trkpt lat="45.60838" lon="5.34451">
        <ele>371</ele>
        <time>2021-04-03T12:10:58.587Z</time>
      </trkpt>
      <trkpt lat="45.60834" lon="5.34457">
        <ele>370</ele>
        <time>2021-04-03T12:10:59.588Z</time>
      </trkpt>
      <trkpt lat="45.60832" lon="5.34462">
        <ele>370</ele>
        <time>2021-04-03T12:11:00.588Z</time>
      </trkpt>
      <trkpt lat="45.60828" lon="5.34468">
        <ele>370</ele>
        <time>2021-04-03T12:11:01.588Z</time>
      </trkpt>
      <trkpt lat="45.60823" lon="5.34476">
        <ele>370</ele>
        <time>2021-04-03T12:11:02.588Z</time>
      </trkpt>
      <trkpt lat="45.60819" lon="5.34482">
        <ele>370</ele>
        <time>2021-04-03T12:11:03.588Z</time>
      </trkpt>
      <trkpt lat="45.60816" lon="5.34487">
        <ele>370</ele>
        <time>2021-04-03T12:11:04.587Z</time>
      </trkpt>
      <trkpt lat="45.60812" lon="5.34492">
        <ele>370</ele>
        <time>2021-04-03T12:11:05.587Z</time>
      </trkpt>
      <trkpt lat="45.60808" lon="5.34499">
        <ele>370</ele>
        <time>2021-04-03T12:11:06.587Z</time>
      </trkpt>
      <trkpt lat="45.60805" lon="5.34505">
        <ele>370</ele>
        <time>2021-04-03T12:11:07.588Z</time>
      </trkpt>
      <trkpt lat="45.60802" lon="5.34511">
        <ele>371</ele>
        <time>2021-04-03T12:11:08.587Z</time>
      </trkpt>
      <trkpt lat="45.608" lon="5.34515">
        <ele>371</ele>
        <time>2021-04-03T12:11:09.588Z</time>
      </trkpt>
      <trkpt lat="45.60797" lon="5.34521">
        <ele>371</ele>
        <time>2021-04-03T12:11:10.588Z</time>
      </trkpt>
      <trkpt lat="45.60794" lon="5.34527">
        <ele>371</ele>
        <time>2021-04-03T12:11:11.588Z</time>
      </trkpt>
      <trkpt lat="45.60791" lon="5.34534">
        <ele>371</ele>
        <time>2021-04-03T12:11:12.588Z</time>
      </trkpt>
      <trkpt lat="45.60788" lon="5.3454">
        <ele>372</ele>
        <time>2021-04-03T12:11:13.588Z</time>
      </trkpt>
      <trkpt lat="45.60785" lon="5.34546">
        <ele>372</ele>
        <time>2021-04-03T12:11:14.588Z</time>
      </trkpt>
      <trkpt lat="45.60783" lon="5.3455">
        <ele>372</ele>
        <time>2021-04-03T12:11:15.588Z</time>
      </trkpt>
      <trkpt lat="45.6078" lon="5.34556">
        <ele>372</ele>
        <time>2021-04-03T12:11:16.588Z</time>
      </trkpt>
      <trkpt lat="45.60777" lon="5.34563">
        <ele>372</ele>
        <time>2021-04-03T12:11:17.588Z</time>
      </trkpt>
      <trkpt lat="45.60775" lon="5.34568">
        <ele>372</ele>
        <time>2021-04-03T12:11:18.587Z</time>
      </trkpt>
      <trkpt lat="45.60773" lon="5.34574">
        <ele>372</ele>
        <time>2021-04-03T12:11:19.588Z</time>
      </trkpt>
      <trkpt lat="45.6077" lon="5.3458">
        <ele>372</ele>
        <time>2021-04-03T12:11:20.588Z</time>
      </trkpt>
      <trkpt lat="45.60769" lon="5.34584">
        <ele>372</ele>
        <time>2021-04-03T12:11:21.588Z</time>
      </trkpt>
      <trkpt lat="45.60766" lon="5.34591">
        <ele>372</ele>
        <time>2021-04-03T12:11:22.588Z</time>
      </trkpt>
      <trkpt lat="45.60764" lon="5.34597">
        <ele>371</ele>
        <time>2021-04-03T12:11:23.588Z</time>
      </trkpt>
      <trkpt lat="45.60762" lon="5.34604">
        <ele>371</ele>
        <time>2021-04-03T12:11:24.588Z</time>
      </trkpt>
      <trkpt lat="45.60761" lon="5.3461">
        <ele>372</ele>
        <time>2021-04-03T12:11:25.588Z</time>
      </trkpt>
      <trkpt lat="45.60759" lon="5.34616">
        <ele>372</ele>
        <time>2021-04-03T12:11:26.588Z</time>
      </trkpt>
      <trkpt lat="45.60758" lon="5.34622">
        <ele>372</ele>
        <time>2021-04-03T12:11:27.588Z</time>
      </trkpt>
      <trkpt lat="45.60756" lon="5.34628">
        <ele>372</ele>
        <time>2021-04-03T12:11:28.587Z</time>
      </trkpt>
      <trkpt lat="45.60755" lon="5.34633">
        <ele>371</ele>
        <time>2021-04-03T12:11:29.588Z</time>
      </trkpt>
      <trkpt lat="45.60753" lon="5.34639">
        <ele>371</ele>
        <time>2021-04-03T12:11:30.588Z</time>
      </trkpt>
      <trkpt lat="45.60752" lon="5.34646">
        <ele>372</ele>
        <time>2021-04-03T12:11:31.587Z</time>
      </trkpt>
      <trkpt lat="45.6075" lon="5.34653">
        <ele>372</ele>
        <time>2021-04-03T12:11:32.588Z</time>
      </trkpt>
      <trkpt lat="45.60749" lon="5.34659">
        <ele>372</ele>
        <time>2021-04-03T12:11:33.588Z</time>
      </trkpt>
      <trkpt lat="45.60748" lon="5.34665">
        <ele>372</ele>
        <time>2021-04-03T12:11:34.588Z</time>
      </trkpt>
      <trkpt lat="45.60746" lon="5.34669">
        <ele>373</ele>
        <time>2021-04-03T12:11:35.588Z</time>
      </trkpt>
      <trkpt lat="45.60745" lon="5.34676">
        <ele>373</ele>
        <time>2021-04-03T12:11:36.588Z</time>
      </trkpt>
      <trkpt lat="45.60743" lon="5.34682">
        <ele>373</ele>
        <time>2021-04-03T12:11:37.588Z</time>
      </trkpt>
      <trkpt lat="45.60742" lon="5.34687">
        <ele>373</ele>
        <time>2021-04-03T12:11:38.588Z</time>
      </trkpt>
      <trkpt lat="45.60741" lon="5.34693">
        <ele>373</ele>
        <time>2021-04-03T12:11:39.588Z</time>
      </trkpt>
      <trkpt lat="45.6074" lon="5.34698">
        <ele>373</ele>
        <time>2021-04-03T12:11:40.588Z</time>
      </trkpt>
      <trkpt lat="45.60739" lon="5.34704">
        <ele>373</ele>
        <time>2021-04-03T12:11:41.588Z</time>
      </trkpt>
      <trkpt lat="45.60738" lon="5.3471">
        <ele>373</ele>
        <time>2021-04-03T12:11:42.588Z</time>
      </trkpt>
      <trkpt lat="45.60737" lon="5.34716">
        <ele>373</ele>
        <time>2021-04-03T12:11:43.587Z</time>
      </trkpt>
      <trkpt lat="45.60736" lon="5.34722">
        <ele>373</ele>
        <time>2021-04-03T12:11:44.588Z</time>
      </trkpt>
      <trkpt lat="45.60736" lon="5.34728">
        <ele>373</ele>
        <time>2021-04-03T12:11:45.587Z</time>
      </trkpt>
      <trkpt lat="45.60735" lon="5.34734">
        <ele>373</ele>
        <time>2021-04-03T12:11:46.587Z</time>
      </trkpt>
      <trkpt lat="45.60734" lon="5.34741">
        <ele>374</ele>
        <time>2021-04-03T12:11:47.588Z</time>
      </trkpt>
      <trkpt lat="45.60733" lon="5.34747">
        <ele>374</ele>
        <time>2021-04-03T12:11:48.588Z</time>
      </trkpt>
      <trkpt lat="45.60733" lon="5.34752">
        <ele>374</ele>
        <time>2021-04-03T12:11:49.588Z</time>
      </trkpt>
      <trkpt lat="45.60732" lon="5.3476">
        <ele>374</ele>
        <time>2021-04-03T12:11:50.588Z</time>
      </trkpt>
      <trkpt lat="45.60731" lon="5.34766">
        <ele>374</ele>
        <time>2021-04-03T12:11:51.588Z</time>
      </trkpt>
      <trkpt lat="45.6073" lon="5.34772">
        <ele>374</ele>
        <time>2021-04-03T12:11:52.588Z</time>
      </trkpt>
      <trkpt lat="45.60729" lon="5.34777">
        <ele>374</ele>
        <time>2021-04-03T12:11:53.587Z</time>
      </trkpt>
      <trkpt lat="45.60728" lon="5.34785">
        <ele>374</ele>
        <time>2021-04-03T12:11:54.588Z</time>
      </trkpt>
      <trkpt lat="45.60727" lon="5.34789">
        <ele>374</ele>
        <time>2021-04-03T12:11:55.587Z</time>
      </trkpt>
      <trkpt lat="45.60725" lon="5.34796">
        <ele>374</ele>
        <time>2021-04-03T12:11:56.588Z</time>
      </trkpt>
      <trkpt lat="45.60724" lon="5.34802">
        <ele>374</ele>
        <time>2021-04-03T12:11:57.587Z</time>
      </trkpt>
      <trkpt lat="45.60724" lon="5.34807">
        <ele>375</ele>
        <time>2021-04-03T12:11:58.588Z</time>
      </trkpt>
      <trkpt lat="45.60723" lon="5.34813">
        <ele>375</ele>
        <time>2021-04-03T12:11:59.588Z</time>
      </trkpt>
      <trkpt lat="45.60721" lon="5.3482">
        <ele>375</ele>
        <time>2021-04-03T12:12:00.588Z</time>
      </trkpt>
      <trkpt lat="45.60721" lon="5.34826">
        <ele>375</ele>
        <time>2021-04-03T12:12:01.587Z</time>
      </trkpt>
      <trkpt lat="45.60719" lon="5.34832">
        <ele>375</ele>
        <time>2021-04-03T12:12:02.588Z</time>
      </trkpt>
      <trkpt lat="45.60719" lon="5.34837">
        <ele>375</ele>
        <time>2021-04-03T12:12:03.588Z</time>
      </trkpt>
      <trkpt lat="45.60718" lon="5.34843">
        <ele>375</ele>
        <time>2021-04-03T12:12:04.587Z</time>
      </trkpt>
      <trkpt lat="45.60716" lon="5.3485">
        <ele>374</ele>
        <time>2021-04-03T12:12:05.588Z</time>
      </trkpt>
      <trkpt lat="45.60715" lon="5.34856">
        <ele>374</ele>
        <time>2021-04-03T12:12:06.588Z</time>
      </trkpt>
      <trkpt lat="45.60714" lon="5.34862">
        <ele>375</ele>
        <time>2021-04-03T12:12:07.588Z</time>
      </trkpt>
      <trkpt lat="45.60713" lon="5.34867">
        <ele>375</ele>
        <time>2021-04-03T12:12:08.588Z</time>
      </trkpt>
      <trkpt lat="45.60712" lon="5.34873">
        <ele>375</ele>
        <time>2021-04-03T12:12:09.588Z</time>
      </trkpt>
      <trkpt lat="45.6071" lon="5.3488">
        <ele>375</ele>
        <time>2021-04-03T12:12:10.588Z</time>
      </trkpt>
      <trkpt lat="45.60709" lon="5.34885">
        <ele>375</ele>
        <time>2021-04-03T12:12:11.588Z</time>
      </trkpt>
      <trkpt lat="45.60707" lon="5.34889">
        <ele>375</ele>
        <time>2021-04-03T12:12:12.588Z</time>
      </trkpt>
      <trkpt lat="45.60706" lon="5.34893">
        <ele>375</ele>
        <time>2021-04-03T12:12:13.588Z</time>
      </trkpt>
      <trkpt lat="45.60705" lon="5.34898">
        <ele>375</ele>
        <time>2021-04-03T12:12:14.587Z</time>
      </trkpt>
      <trkpt lat="45.60703" lon="5.34905">
        <ele>375</ele>
        <time>2021-04-03T12:12:15.588Z</time>
      </trkpt>
      <trkpt lat="45.60702" lon="5.3491">
        <ele>375</ele>
        <time>2021-04-03T12:12:16.588Z</time>
      </trkpt>
      <trkpt lat="45.607" lon="5.34916">
        <ele>375</ele>
        <time>2021-04-03T12:12:17.588Z</time>
      </trkpt>
      <trkpt lat="45.60699" lon="5.3492">
        <ele>376</ele>
        <time>2021-04-03T12:12:18.588Z</time>
      </trkpt>
      <trkpt lat="45.60698" lon="5.34926">
        <ele>376</ele>
        <time>2021-04-03T12:12:19.588Z</time>
      </trkpt>
      <trkpt lat="45.60697" lon="5.34933">
        <ele>376</ele>
        <time>2021-04-03T12:12:20.588Z</time>
      </trkpt>
      <trkpt lat="45.60696" lon="5.34939">
        <ele>377</ele>
        <time>2021-04-03T12:12:21.587Z</time>
      </trkpt>
      <trkpt lat="45.60695" lon="5.34945">
        <ele>377</ele>
        <time>2021-04-03T12:12:22.588Z</time>
      </trkpt>
      <trkpt lat="45.60694" lon="5.3495">
        <ele>378</ele>
        <time>2021-04-03T12:12:23.587Z</time>
      </trkpt>
      <trkpt lat="45.60692" lon="5.34956">
        <ele>378</ele>
        <time>2021-04-03T12:12:24.588Z</time>
      </trkpt>
      <trkpt lat="45.60691" lon="5.34962">
        <ele>378</ele>
        <time>2021-04-03T12:12:25.588Z</time>
      </trkpt>
      <trkpt lat="45.60689" lon="5.34968">
        <ele>378</ele>
        <time>2021-04-03T12:12:26.588Z</time>
      </trkpt>
      <trkpt lat="45.60688" lon="5.34974">
        <ele>379</ele>
        <time>2021-04-03T12:12:27.588Z</time>
      </trkpt>
      <trkpt lat="45.60687" lon="5.3498">
        <ele>379</ele>
        <time>2021-04-03T12:12:28.588Z</time>
      </trkpt>
      <trkpt lat="45.60686" lon="5.34985">
        <ele>379</ele>
        <time>2021-04-03T12:12:29.588Z</time>
      </trkpt>
      <trkpt lat="45.60685" lon="5.3499">
        <ele>379</ele>
        <time>2021-04-03T12:12:30.587Z</time>
      </trkpt>
      <trkpt lat="45.60684" lon="5.34996">
        <ele>379</ele>
        <time>2021-04-03T12:12:31.588Z</time>
      </trkpt>
      <trkpt lat="45.60682" lon="5.35001">
        <ele>380</ele>
        <time>2021-04-03T12:12:32.588Z</time>
      </trkpt>
      <trkpt lat="45.60681" lon="5.35006">
        <ele>380</ele>
        <time>2021-04-03T12:12:33.588Z</time>
      </trkpt>
      <trkpt lat="45.6068" lon="5.35011">
        <ele>380</ele>
        <time>2021-04-03T12:12:34.587Z</time>
      </trkpt>
      <trkpt lat="45.60679" lon="5.35017">
        <ele>381</ele>
        <time>2021-04-03T12:12:35.588Z</time>
      </trkpt>
      <trkpt lat="45.60678" lon="5.35022">
        <ele>380</ele>
        <time>2021-04-03T12:12:36.588Z</time>
      </trkpt>
      <trkpt lat="45.60677" lon="5.35028">
        <ele>381</ele>
        <time>2021-04-03T12:12:37.587Z</time>
      </trkpt>
      <trkpt lat="45.60676" lon="5.35033">
        <ele>381</ele>
        <time>2021-04-03T12:12:38.588Z</time>
      </trkpt>
      <trkpt lat="45.60674" lon="5.35038">
        <ele>380</ele>
        <time>2021-04-03T12:12:39.588Z</time>
      </trkpt>
      <trkpt lat="45.60673" lon="5.35044">
        <ele>380</ele>
        <time>2021-04-03T12:12:40.587Z</time>
      </trkpt>
      <trkpt lat="45.60672" lon="5.35049">
        <ele>381</ele>
        <time>2021-04-03T12:12:41.587Z</time>
      </trkpt>
      <trkpt lat="45.60671" lon="5.35055">
        <ele>381</ele>
        <time>2021-04-03T12:12:42.587Z</time>
      </trkpt>
      <trkpt lat="45.6067" lon="5.3506">
        <ele>381</ele>
        <time>2021-04-03T12:12:43.587Z</time>
      </trkpt>
      <trkpt lat="45.60669" lon="5.35065">
        <ele>381</ele>
        <time>2021-04-03T12:12:44.587Z</time>
      </trkpt>
      <trkpt lat="45.60668" lon="5.3507">
        <ele>381</ele>
        <time>2021-04-03T12:12:45.588Z</time>
      </trkpt>
      <trkpt lat="45.60667" lon="5.35075">
        <ele>381</ele>
        <time>2021-04-03T12:12:46.588Z</time>
      </trkpt>
      <trkpt lat="45.60666" lon="5.3508">
        <ele>381</ele>
        <time>2021-04-03T12:12:47.588Z</time>
      </trkpt>
      <trkpt lat="45.60665" lon="5.35085">
        <ele>381</ele>
        <time>2021-04-03T12:12:48.588Z</time>
      </trkpt>
      <trkpt lat="45.60664" lon="5.35089">
        <ele>381</ele>
        <time>2021-04-03T12:12:49.587Z</time>
      </trkpt>
      <trkpt lat="45.60663" lon="5.35094">
        <ele>381</ele>
        <time>2021-04-03T12:12:50.588Z</time>
      </trkpt>
      <trkpt lat="45.60662" lon="5.35099">
        <ele>381</ele>
        <time>2021-04-03T12:12:51.587Z</time>
      </trkpt>
      <trkpt lat="45.60662" lon="5.35104">
        <ele>381</ele>
        <time>2021-04-03T12:12:52.588Z</time>
      </trkpt>
      <trkpt lat="45.60661" lon="5.35109">
        <ele>382</ele>
        <time>2021-04-03T12:12:53.588Z</time>
      </trkpt>
      <trkpt lat="45.6066" lon="5.35114">
        <ele>382</ele>
        <time>2021-04-03T12:12:54.588Z</time>
      </trkpt>
      <trkpt lat="45.60659" lon="5.35119">
        <ele>382</ele>
        <time>2021-04-03T12:12:55.588Z</time>
      </trkpt>
      <trkpt lat="45.60659" lon="5.35124">
        <ele>382</ele>
        <time>2021-04-03T12:12:56.588Z</time>
      </trkpt>
      <trkpt lat="45.60658" lon="5.35129">
        <ele>382</ele>
        <time>2021-04-03T12:12:57.588Z</time>
      </trkpt>
      <trkpt lat="45.60657" lon="5.35134">
        <ele>382</ele>
        <time>2021-04-03T12:12:58.588Z</time>
      </trkpt>
      <trkpt lat="45.60656" lon="5.3514">
        <ele>382</ele>
        <time>2021-04-03T12:12:59.588Z</time>
      </trkpt>
      <trkpt lat="45.60656" lon="5.35145">
        <ele>382</ele>
        <time>2021-04-03T12:13:00.587Z</time>
      </trkpt>
      <trkpt lat="45.60655" lon="5.3515">
        <ele>382</ele>
        <time>2021-04-03T12:13:01.588Z</time>
      </trkpt>
      <trkpt lat="45.60655" lon="5.35155">
        <ele>383</ele>
        <time>2021-04-03T12:13:02.588Z</time>
      </trkpt>
      <trkpt lat="45.60654" lon="5.35159">
        <ele>383</ele>
        <time>2021-04-03T12:13:03.588Z</time>
      </trkpt>
      <trkpt lat="45.60653" lon="5.35163">
        <ele>382</ele>
        <time>2021-04-03T12:13:04.588Z</time>
      </trkpt>
      <trkpt lat="45.60652" lon="5.35168">
        <ele>382</ele>
        <time>2021-04-03T12:13:05.588Z</time>
      </trkpt>
      <trkpt lat="45.60651" lon="5.35173">
        <ele>382</ele>
        <time>2021-04-03T12:13:06.587Z</time>
      </trkpt>
      <trkpt lat="45.6065" lon="5.35178">
        <ele>382</ele>
        <time>2021-04-03T12:13:07.588Z</time>
      </trkpt>
      <trkpt lat="45.60649" lon="5.35183">
        <ele>382</ele>
        <time>2021-04-03T12:13:08.588Z</time>
      </trkpt>
      <trkpt lat="45.60649" lon="5.35189">
        <ele>382</ele>
        <time>2021-04-03T12:13:09.588Z</time>
      </trkpt>
      <trkpt lat="45.60648" lon="5.35194">
        <ele>382</ele>
        <time>2021-04-03T12:13:10.588Z</time>
      </trkpt>
      <trkpt lat="45.60647" lon="5.35199">
        <ele>382</ele>
        <time>2021-04-03T12:13:11.588Z</time>
      </trkpt>
      <trkpt lat="45.60647" lon="5.35205">
        <ele>382</ele>
        <time>2021-04-03T12:13:12.588Z</time>
      </trkpt>
      <trkpt lat="45.60646" lon="5.3521">
        <ele>383</ele>
        <time>2021-04-03T12:13:13.587Z</time>
      </trkpt>
      <trkpt lat="45.60646" lon="5.35216">
        <ele>383</ele>
        <time>2021-04-03T12:13:14.588Z</time>
      </trkpt>
      <trkpt lat="45.60645" lon="5.35222">
        <ele>384</ele>
        <time>2021-04-03T12:13:15.587Z</time>
      </trkpt>
      <trkpt lat="45.60645" lon="5.35227">
        <ele>384</ele>
        <time>2021-04-03T12:13:16.588Z</time>
      </trkpt>
      <trkpt lat="45.60644" lon="5.35233">
        <ele>384</ele>
        <time>2021-04-03T12:13:17.587Z</time>
      </trkpt>
      <trkpt lat="45.60644" lon="5.35239">
        <ele>385</ele>
        <time>2021-04-03T12:13:18.587Z</time>
      </trkpt>
      <trkpt lat="45.60644" lon="5.35245">
        <ele>385</ele>
        <time>2021-04-03T12:13:19.587Z</time>
      </trkpt>
      <trkpt lat="45.60643" lon="5.35251">
        <ele>384</ele>
        <time>2021-04-03T12:13:20.587Z</time>
      </trkpt>
      <trkpt lat="45.60642" lon="5.35257">
        <ele>384</ele>
        <time>2021-04-03T12:13:21.588Z</time>
      </trkpt>
      <trkpt lat="45.60642" lon="5.35263">
        <ele>384</ele>
        <time>2021-04-03T12:13:22.587Z</time>
      </trkpt>
      <trkpt lat="45.60642" lon="5.35269">
        <ele>385</ele>
        <time>2021-04-03T12:13:23.587Z</time>
      </trkpt>
      <trkpt lat="45.60642" lon="5.35275">
        <ele>385</ele>
        <time>2021-04-03T12:13:24.587Z</time>
      </trkpt>
      <trkpt lat="45.60642" lon="5.35281">
        <ele>385</ele>
        <time>2021-04-03T12:13:25.588Z</time>
      </trkpt>
      <trkpt lat="45.60642" lon="5.35287">
        <ele>385</ele>
        <time>2021-04-03T12:13:26.588Z</time>
      </trkpt>
      <trkpt lat="45.60642" lon="5.35293">
        <ele>385</ele>
        <time>2021-04-03T12:13:27.588Z</time>
      </trkpt>
      <trkpt lat="45.60642" lon="5.35299">
        <ele>385</ele>
        <time>2021-04-03T12:13:28.588Z</time>
      </trkpt>
      <trkpt lat="45.60642" lon="5.35305">
        <ele>385</ele>
        <time>2021-04-03T12:13:29.588Z</time>
      </trkpt>
      <trkpt lat="45.60642" lon="5.35311">
        <ele>384</ele>
        <time>2021-04-03T12:13:30.587Z</time>
      </trkpt>
      <trkpt lat="45.60643" lon="5.35317">
        <ele>384</ele>
        <time>2021-04-03T12:13:31.588Z</time>
      </trkpt>
      <trkpt lat="45.60643" lon="5.35323">
        <ele>384</ele>
        <time>2021-04-03T12:13:32.587Z</time>
      </trkpt>
      <trkpt lat="45.60643" lon="5.35329">
        <ele>384</ele>
        <time>2021-04-03T12:13:33.588Z</time>
      </trkpt>
      <trkpt lat="45.60643" lon="5.35336">
        <ele>384</ele>
        <time>2021-04-03T12:13:34.588Z</time>
      </trkpt>
      <trkpt lat="45.60644" lon="5.35343">
        <ele>384</ele>
        <time>2021-04-03T12:13:35.587Z</time>
      </trkpt>
      <trkpt lat="45.60644" lon="5.35349">
        <ele>385</ele>
        <time>2021-04-03T12:13:36.587Z</time>
      </trkpt>
      <trkpt lat="45.60644" lon="5.35356">
        <ele>385</ele>
        <time>2021-04-03T12:13:37.587Z</time>
      </trkpt>
      <trkpt lat="45.60644" lon="5.35363">
        <ele>384</ele>
        <time>2021-04-03T12:13:38.588Z</time>
      </trkpt>
      <trkpt lat="45.60643" lon="5.3537">
        <ele>384</ele>
        <time>2021-04-03T12:13:39.588Z</time>
      </trkpt>
      <trkpt lat="45.60643" lon="5.35378">
        <ele>383</ele>
        <time>2021-04-03T12:13:40.588Z</time>
      </trkpt>
      <trkpt lat="45.60641" lon="5.35385">
        <ele>383</ele>
        <time>2021-04-03T12:13:41.587Z</time>
      </trkpt>
      <trkpt lat="45.60639" lon="5.35393">
        <ele>383</ele>
        <time>2021-04-03T12:13:42.588Z</time>
      </trkpt>
      <trkpt lat="45.60637" lon="5.35401">
        <ele>382</ele>
        <time>2021-04-03T12:13:43.588Z</time>
      </trkpt>
      <trkpt lat="45.60634" lon="5.3541">
        <ele>382</ele>
        <time>2021-04-03T12:13:44.587Z</time>
      </trkpt>
      <trkpt lat="45.60631" lon="5.35416">
        <ele>382</ele>
        <time>2021-04-03T12:13:45.588Z</time>
      </trkpt>
      <trkpt lat="45.60628" lon="5.35425">
        <ele>382</ele>
        <time>2021-04-03T12:13:46.588Z</time>
      </trkpt>
      <trkpt lat="45.60625" lon="5.35433">
        <ele>382</ele>
        <time>2021-04-03T12:13:47.588Z</time>
      </trkpt>
      <trkpt lat="45.60621" lon="5.35442">
        <ele>381</ele>
        <time>2021-04-03T12:13:48.588Z</time>
      </trkpt>
      <trkpt lat="45.60618" lon="5.35452">
        <ele>381</ele>
        <time>2021-04-03T12:13:49.588Z</time>
      </trkpt>
      <trkpt lat="45.60614" lon="5.35462">
        <ele>381</ele>
        <time>2021-04-03T12:13:50.588Z</time>
      </trkpt>
      <trkpt lat="45.6061" lon="5.35472">
        <ele>381</ele>
        <time>2021-04-03T12:13:51.588Z</time>
      </trkpt>
      <trkpt lat="45.60607" lon="5.35483">
        <ele>381</ele>
        <time>2021-04-03T12:13:52.587Z</time>
      </trkpt>
      <trkpt lat="45.60604" lon="5.35495">
        <ele>381</ele>
        <time>2021-04-03T12:13:53.588Z</time>
      </trkpt>
      <trkpt lat="45.60603" lon="5.35508">
        <ele>381</ele>
        <time>2021-04-03T12:13:54.588Z</time>
      </trkpt>
      <trkpt lat="45.60602" lon="5.35521">
        <ele>380</ele>
        <time>2021-04-03T12:13:55.588Z</time>
      </trkpt>
      <trkpt lat="45.60603" lon="5.35533">
        <ele>380</ele>
        <time>2021-04-03T12:13:56.588Z</time>
      </trkpt>
      <trkpt lat="45.60605" lon="5.35546">
        <ele>380</ele>
        <time>2021-04-03T12:13:57.587Z</time>
      </trkpt>
      <trkpt lat="45.60608" lon="5.35558">
        <ele>380</ele>
        <time>2021-04-03T12:13:58.588Z</time>
      </trkpt>
      <trkpt lat="45.60611" lon="5.3557">
        <ele>379</ele>
        <time>2021-04-03T12:13:59.588Z</time>
      </trkpt>
      <trkpt lat="45.60615" lon="5.35581">
        <ele>379</ele>
        <time>2021-04-03T12:14:00.588Z</time>
      </trkpt>
      <trkpt lat="45.60618" lon="5.35591">
        <ele>378</ele>
        <time>2021-04-03T12:14:01.588Z</time>
      </trkpt>
      <trkpt lat="45.60622" lon="5.35601">
        <ele>378</ele>
        <time>2021-04-03T12:14:02.588Z</time>
      </trkpt>
      <trkpt lat="45.60625" lon="5.35611">
        <ele>377</ele>
        <time>2021-04-03T12:14:03.588Z</time>
      </trkpt>
      <trkpt lat="45.60628" lon="5.3562">
        <ele>377</ele>
        <time>2021-04-03T12:14:04.588Z</time>
      </trkpt>
      <trkpt lat="45.60631" lon="5.35629">
        <ele>377</ele>
        <time>2021-04-03T12:14:05.588Z</time>
      </trkpt>
      <trkpt lat="45.60634" lon="5.35638">
        <ele>377</ele>
        <time>2021-04-03T12:14:06.588Z</time>
      </trkpt>
      <trkpt lat="45.60637" lon="5.35647">
        <ele>377</ele>
        <time>2021-04-03T12:14:07.587Z</time>
      </trkpt>
      <trkpt lat="45.60639" lon="5.35656">
        <ele>377</ele>
        <time>2021-04-03T12:14:08.588Z</time>
      </trkpt>
      <trkpt lat="45.60641" lon="5.35664">
        <ele>376</ele>
        <time>2021-04-03T12:14:09.587Z</time>
      </trkpt>
      <trkpt lat="45.60642" lon="5.35673">
        <ele>375</ele>
        <time>2021-04-03T12:14:10.588Z</time>
      </trkpt>
      <trkpt lat="45.60643" lon="5.35681">
        <ele>375</ele>
        <time>2021-04-03T12:14:11.588Z</time>
      </trkpt>
      <trkpt lat="45.60643" lon="5.35689">
        <ele>375</ele>
        <time>2021-04-03T12:14:12.588Z</time>
      </trkpt>
      <trkpt lat="45.60643" lon="5.35698">
        <ele>375</ele>
        <time>2021-04-03T12:14:13.588Z</time>
      </trkpt>
      <trkpt lat="45.60643" lon="5.35706">
        <ele>375</ele>
        <time>2021-04-03T12:14:14.587Z</time>
      </trkpt>
      <trkpt lat="45.60643" lon="5.35714">
        <ele>376</ele>
        <time>2021-04-03T12:14:15.587Z</time>
      </trkpt>
      <trkpt lat="45.60643" lon="5.35722">
        <ele>376</ele>
        <time>2021-04-03T12:14:16.588Z</time>
      </trkpt>
      <trkpt lat="45.60642" lon="5.35731">
        <ele>376</ele>
        <time>2021-04-03T12:14:17.587Z</time>
      </trkpt>
      <trkpt lat="45.60642" lon="5.35739">
        <ele>376</ele>
        <time>2021-04-03T12:14:18.588Z</time>
      </trkpt>
      <trkpt lat="45.60641" lon="5.35746">
        <ele>376</ele>
        <time>2021-04-03T12:14:19.588Z</time>
      </trkpt>
      <trkpt lat="45.6064" lon="5.35754">
        <ele>376</ele>
        <time>2021-04-03T12:14:20.587Z</time>
      </trkpt>
      <trkpt lat="45.6064" lon="5.35762">
        <ele>376</ele>
        <time>2021-04-03T12:14:21.587Z</time>
      </trkpt>
      <trkpt lat="45.6064" lon="5.3577">
        <ele>376</ele>
        <time>2021-04-03T12:14:22.587Z</time>
      </trkpt>
      <trkpt lat="45.60639" lon="5.35778">
        <ele>376</ele>
        <time>2021-04-03T12:14:23.587Z</time>
      </trkpt>
      <trkpt lat="45.60638" lon="5.35785">
        <ele>376</ele>
        <time>2021-04-03T12:14:24.587Z</time>
      </trkpt>
      <trkpt lat="45.60637" lon="5.35793">
        <ele>376</ele>
        <time>2021-04-03T12:14:25.587Z</time>
      </trkpt>
      <trkpt lat="45.60637" lon="5.358">
        <ele>377</ele>
        <time>2021-04-03T12:14:26.587Z</time>
      </trkpt>
      <trkpt lat="45.60636" lon="5.35807">
        <ele>377</ele>
        <time>2021-04-03T12:14:27.588Z</time>
      </trkpt>
      <trkpt lat="45.60635" lon="5.35815">
        <ele>377</ele>
        <time>2021-04-03T12:14:28.588Z</time>
      </trkpt>
      <trkpt lat="45.60634" lon="5.35823">
        <ele>378</ele>
        <time>2021-04-03T12:14:29.588Z</time>
      </trkpt>
      <trkpt lat="45.60633" lon="5.3583">
        <ele>378</ele>
        <time>2021-04-03T12:14:30.587Z</time>
      </trkpt>
      <trkpt lat="45.60633" lon="5.35837">
        <ele>378</ele>
        <time>2021-04-03T12:14:31.588Z</time>
      </trkpt>
      <trkpt lat="45.60632" lon="5.35845">
        <ele>378</ele>
        <time>2021-04-03T12:14:32.588Z</time>
      </trkpt>
      <trkpt lat="45.60631" lon="5.35852">
        <ele>377</ele>
        <time>2021-04-03T12:14:33.588Z</time>
      </trkpt>
      <trkpt lat="45.6063" lon="5.35859">
        <ele>377</ele>
        <time>2021-04-03T12:14:34.588Z</time>
      </trkpt>
      <trkpt lat="45.60629" lon="5.35866">
        <ele>377</ele>
        <time>2021-04-03T12:14:35.588Z</time>
      </trkpt>
      <trkpt lat="45.60629" lon="5.35873">
        <ele>377</ele>
        <time>2021-04-03T12:14:36.588Z</time>
      </trkpt>
      <trkpt lat="45.60628" lon="5.3588">
        <ele>377</ele>
        <time>2021-04-03T12:14:37.588Z</time>
      </trkpt>
      <trkpt lat="45.60626" lon="5.35887">
        <ele>377</ele>
        <time>2021-04-03T12:14:38.588Z</time>
      </trkpt>
      <trkpt lat="45.60626" lon="5.35894">
        <ele>377</ele>
        <time>2021-04-03T12:14:39.588Z</time>
      </trkpt>
      <trkpt lat="45.60625" lon="5.359">
        <ele>377</ele>
        <time>2021-04-03T12:14:40.587Z</time>
      </trkpt>
      <trkpt lat="45.60624" lon="5.35906">
        <ele>377</ele>
        <time>2021-04-03T12:14:41.588Z</time>
      </trkpt>
      <trkpt lat="45.60623" lon="5.35912">
        <ele>377</ele>
        <time>2021-04-03T12:14:42.588Z</time>
      </trkpt>
      <trkpt lat="45.60623" lon="5.35918">
        <ele>377</ele>
        <time>2021-04-03T12:14:43.588Z</time>
      </trkpt>
      <trkpt lat="45.60622" lon="5.35923">
        <ele>377</ele>
        <time>2021-04-03T12:14:44.588Z</time>
      </trkpt>
      <trkpt lat="45.60622" lon="5.35927">
        <ele>377</ele>
        <time>2021-04-03T12:14:45.588Z</time>
      </trkpt>
      <trkpt lat="45.60621" lon="5.35931">
        <ele>377</ele>
        <time>2021-04-03T12:14:46.588Z</time>
      </trkpt>
      <trkpt lat="45.60621" lon="5.35935">
        <ele>377</ele>
        <time>2021-04-03T12:14:47.588Z</time>
      </trkpt>
      <trkpt lat="45.6062" lon="5.35938">
        <ele>376</ele>
        <time>2021-04-03T12:14:48.588Z</time>
      </trkpt>
      <trkpt lat="45.6062" lon="5.35941">
        <ele>376</ele>
        <time>2021-04-03T12:14:49.588Z</time>
      </trkpt>
      <trkpt lat="45.60619" lon="5.35944">
        <ele>376</ele>
        <time>2021-04-03T12:14:50.588Z</time>
      </trkpt>
      <trkpt lat="45.60619" lon="5.35947">
        <ele>376</ele>
        <time>2021-04-03T12:14:51.588Z</time>
      </trkpt>
      <trkpt lat="45.60618" lon="5.3595">
        <ele>376</ele>
        <time>2021-04-03T12:14:52.587Z</time>
      </trkpt>
      <trkpt lat="45.60618" lon="5.35953">
        <ele>376</ele>
        <time>2021-04-03T12:14:53.588Z</time>
      </trkpt>
      <trkpt lat="45.60618" lon="5.35956">
        <ele>376</ele>
        <time>2021-04-03T12:14:54.587Z</time>
      </trkpt>
      <trkpt lat="45.60617" lon="5.3596">
        <ele>376</ele>
        <time>2021-04-03T12:14:55.587Z</time>
      </trkpt>
      <trkpt lat="45.60617" lon="5.35963">
        <ele>377</ele>
        <time>2021-04-03T12:14:56.588Z</time>
      </trkpt>
      <trkpt lat="45.60616" lon="5.35966">
        <ele>377</ele>
        <time>2021-04-03T12:14:57.588Z</time>
      </trkpt>
      <trkpt lat="45.60616" lon="5.35969">
        <ele>377</ele>
        <time>2021-04-03T12:14:58.588Z</time>
      </trkpt>
      <trkpt lat="45.60615" lon="5.35972">
        <ele>377</ele>
        <time>2021-04-03T12:14:59.587Z</time>
      </trkpt>
      <trkpt lat="45.60615" lon="5.35976">
        <ele>377</ele>
        <time>2021-04-03T12:15:00.588Z</time>
      </trkpt>
      <trkpt lat="45.60614" lon="5.3598">
        <ele>377</ele>
        <time>2021-04-03T12:15:01.588Z</time>
      </trkpt>
      <trkpt lat="45.60614" lon="5.35985">
        <ele>378</ele>
        <time>2021-04-03T12:15:02.587Z</time>
      </trkpt>
      <trkpt lat="45.60613" lon="5.35989">
        <ele>378</ele>
        <time>2021-04-03T12:15:03.588Z</time>
      </trkpt>
      <trkpt lat="45.60612" lon="5.35994">
        <ele>378</ele>
        <time>2021-04-03T12:15:04.588Z</time>
      </trkpt>
      <trkpt lat="45.60611" lon="5.35998">
        <ele>378</ele>
        <time>2021-04-03T12:15:05.588Z</time>
      </trkpt>
      <trkpt lat="45.6061" lon="5.36003">
        <ele>378</ele>
        <time>2021-04-03T12:15:06.588Z</time>
      </trkpt>
      <trkpt lat="45.6061" lon="5.36008">
        <ele>378</ele>
        <time>2021-04-03T12:15:07.587Z</time>
      </trkpt>
      <trkpt lat="45.60609" lon="5.36012">
        <ele>378</ele>
        <time>2021-04-03T12:15:08.587Z</time>
      </trkpt>
      <trkpt lat="45.60608" lon="5.36016">
        <ele>379</ele>
        <time>2021-04-03T12:15:09.587Z</time>
      </trkpt>
      <trkpt lat="45.60606" lon="5.36019">
        <ele>378</ele>
        <time>2021-04-03T12:15:10.587Z</time>
      </trkpt>
      <trkpt lat="45.60604" lon="5.36023">
        <ele>378</ele>
        <time>2021-04-03T12:15:11.588Z</time>
      </trkpt>
      <trkpt lat="45.60601" lon="5.36027">
        <ele>378</ele>
        <time>2021-04-03T12:15:12.588Z</time>
      </trkpt>
      <trkpt lat="45.60599" lon="5.36032">
        <ele>378</ele>
        <time>2021-04-03T12:15:13.587Z</time>
      </trkpt>
      <trkpt lat="45.60596" lon="5.36035">
        <ele>377</ele>
        <time>2021-04-03T12:15:14.588Z</time>
      </trkpt>
      <trkpt lat="45.60594" lon="5.36039">
        <ele>377</ele>
        <time>2021-04-03T12:15:15.588Z</time>
      </trkpt>
      <trkpt lat="45.60591" lon="5.36042">
        <ele>377</ele>
        <time>2021-04-03T12:15:16.587Z</time>
      </trkpt>
      <trkpt lat="45.60588" lon="5.36045">
        <ele>378</ele>
        <time>2021-04-03T12:15:17.587Z</time>
      </trkpt>
      <trkpt lat="45.60585" lon="5.36049">
        <ele>379</ele>
        <time>2021-04-03T12:15:18.587Z</time>
      </trkpt>
      <trkpt lat="45.60581" lon="5.36052">
        <ele>379</ele>
        <time>2021-04-03T12:15:19.588Z</time>
      </trkpt>
      <trkpt lat="45.60578" lon="5.36056">
        <ele>380</ele>
        <time>2021-04-03T12:15:20.588Z</time>
      </trkpt>
      <trkpt lat="45.60574" lon="5.3606">
        <ele>380</ele>
        <time>2021-04-03T12:15:21.587Z</time>
      </trkpt>
      <trkpt lat="45.6057" lon="5.36064">
        <ele>380</ele>
        <time>2021-04-03T12:15:22.588Z</time>
      </trkpt>
      <trkpt lat="45.60567" lon="5.36068">
        <ele>379</ele>
        <time>2021-04-03T12:15:23.588Z</time>
      </trkpt>
      <trkpt lat="45.60564" lon="5.36072">
        <ele>379</ele>
        <time>2021-04-03T12:15:24.587Z</time>
      </trkpt>
      <trkpt lat="45.60561" lon="5.36075">
        <ele>379</ele>
        <time>2021-04-03T12:15:25.587Z</time>
      </trkpt>
      <trkpt lat="45.60558" lon="5.36079">
        <ele>379</ele>
        <time>2021-04-03T12:15:26.588Z</time>
      </trkpt>
      <trkpt lat="45.60554" lon="5.36083">
        <ele>379</ele>
        <time>2021-04-03T12:15:27.588Z</time>
      </trkpt>
      <trkpt lat="45.60551" lon="5.36087">
        <ele>380</ele>
        <time>2021-04-03T12:15:28.588Z</time>
      </trkpt>
      <trkpt lat="45.60548" lon="5.36091">
        <ele>380</ele>
        <time>2021-04-03T12:15:29.587Z</time>
      </trkpt>
      <trkpt lat="45.60545" lon="5.36094">
        <ele>380</ele>
        <time>2021-04-03T12:15:30.588Z</time>
      </trkpt>
      <trkpt lat="45.60543" lon="5.36098">
        <ele>380</ele>
        <time>2021-04-03T12:15:31.588Z</time>
      </trkpt>
      <trkpt lat="45.6054" lon="5.36101">
        <ele>381</ele>
        <time>2021-04-03T12:15:32.588Z</time>
      </trkpt>
      <trkpt lat="45.60537" lon="5.36105">
        <ele>381</ele>
        <time>2021-04-03T12:15:33.588Z</time>
      </trkpt>
      <trkpt lat="45.60534" lon="5.36108">
        <ele>381</ele>
        <time>2021-04-03T12:15:34.588Z</time>
      </trkpt>
      <trkpt lat="45.60531" lon="5.36112">
        <ele>381</ele>
        <time>2021-04-03T12:15:35.588Z</time>
      </trkpt>
      <trkpt lat="45.60528" lon="5.36116">
        <ele>381</ele>
        <time>2021-04-03T12:15:36.588Z</time>
      </trkpt>
      <trkpt lat="45.60526" lon="5.36118">
        <ele>381</ele>
        <time>2021-04-03T12:15:37.588Z</time>
      </trkpt>
      <trkpt lat="45.60524" lon="5.36121">
        <ele>381</ele>
        <time>2021-04-03T12:15:38.588Z</time>
      </trkpt>
      <trkpt lat="45.60521" lon="5.36125">
        <ele>381</ele>
        <time>2021-04-03T12:15:39.587Z</time>
      </trkpt>
      <trkpt lat="45.60518" lon="5.36129">
        <ele>381</ele>
        <time>2021-04-03T12:15:40.588Z</time>
      </trkpt>
      <trkpt lat="45.60516" lon="5.36132">
        <ele>381</ele>
        <time>2021-04-03T12:15:41.588Z</time>
      </trkpt>
      <trkpt lat="45.60514" lon="5.36135">
        <ele>381</ele>
        <time>2021-04-03T12:15:42.587Z</time>
      </trkpt>
      <trkpt lat="45.60511" lon="5.36139">
        <ele>381</ele>
        <time>2021-04-03T12:15:43.588Z</time>
      </trkpt>
      <trkpt lat="45.60509" lon="5.36143">
        <ele>381</ele>
        <time>2021-04-03T12:15:44.587Z</time>
      </trkpt>
      <trkpt lat="45.60506" lon="5.36147">
        <ele>381</ele>
        <time>2021-04-03T12:15:45.587Z</time>
      </trkpt>
      <trkpt lat="45.60504" lon="5.3615">
        <ele>382</ele>
        <time>2021-04-03T12:15:46.587Z</time>
      </trkpt>
      <trkpt lat="45.60501" lon="5.36154">
        <ele>382</ele>
        <time>2021-04-03T12:15:47.588Z</time>
      </trkpt>
      <trkpt lat="45.60498" lon="5.36157">
        <ele>383</ele>
        <time>2021-04-03T12:15:48.588Z</time>
      </trkpt>
      <trkpt lat="45.60496" lon="5.36161">
        <ele>383</ele>
        <time>2021-04-03T12:15:49.587Z</time>
      </trkpt>
      <trkpt lat="45.60493" lon="5.36164">
        <ele>383</ele>
        <time>2021-04-03T12:15:50.587Z</time>
      </trkpt>
      <trkpt lat="45.60491" lon="5.36168">
        <ele>383</ele>
        <time>2021-04-03T12:15:51.588Z</time>
      </trkpt>
      <trkpt lat="45.60489" lon="5.36171">
        <ele>383</ele>
        <time>2021-04-03T12:15:52.588Z</time>
      </trkpt>
      <trkpt lat="45.60487" lon="5.36175">
        <ele>384</ele>
        <time>2021-04-03T12:15:53.587Z</time>
      </trkpt>
      <trkpt lat="45.60485" lon="5.36178">
        <ele>384</ele>
        <time>2021-04-03T12:15:54.588Z</time>
      </trkpt>
      <trkpt lat="45.60483" lon="5.36181">
        <ele>384</ele>
        <time>2021-04-03T12:15:55.588Z</time>
      </trkpt>
      <trkpt lat="45.60481" lon="5.36184">
        <ele>384</ele>
        <time>2021-04-03T12:15:56.587Z</time>
      </trkpt>
      <trkpt lat="45.60478" lon="5.36188">
        <ele>384</ele>
        <time>2021-04-03T12:15:57.588Z</time>
      </trkpt>
      <trkpt lat="45.60476" lon="5.36192">
        <ele>385</ele>
        <time>2021-04-03T12:15:58.587Z</time>
      </trkpt>
      <trkpt lat="45.60473" lon="5.36195">
        <ele>385</ele>
        <time>2021-04-03T12:15:59.588Z</time>
      </trkpt>
      <trkpt lat="45.60471" lon="5.36199">
        <ele>385</ele>
        <time>2021-04-03T12:16:00.587Z</time>
      </trkpt>
      <trkpt lat="45.60469" lon="5.36203">
        <ele>385</ele>
        <time>2021-04-03T12:16:01.588Z</time>
      </trkpt>
      <trkpt lat="45.60466" lon="5.36207">
        <ele>384</ele>
        <time>2021-04-03T12:16:02.588Z</time>
      </trkpt>
      <trkpt lat="45.60463" lon="5.3621">
        <ele>384</ele>
        <time>2021-04-03T12:16:03.588Z</time>
      </trkpt>
      <trkpt lat="45.6046" lon="5.36214">
        <ele>385</ele>
        <time>2021-04-03T12:16:04.588Z</time>
      </trkpt>
      <trkpt lat="45.60458" lon="5.36217">
        <ele>385</ele>
        <time>2021-04-03T12:16:05.588Z</time>
      </trkpt>
      <trkpt lat="45.60455" lon="5.36222">
        <ele>384</ele>
        <time>2021-04-03T12:16:06.587Z</time>
      </trkpt>
      <trkpt lat="45.60452" lon="5.36225">
        <ele>384</ele>
        <time>2021-04-03T12:16:07.588Z</time>
      </trkpt>
      <trkpt lat="45.60449" lon="5.36229">
        <ele>384</ele>
        <time>2021-04-03T12:16:08.587Z</time>
      </trkpt>
      <trkpt lat="45.60446" lon="5.36233">
        <ele>384</ele>
        <time>2021-04-03T12:16:09.588Z</time>
      </trkpt>
      <trkpt lat="45.60443" lon="5.36237">
        <ele>385</ele>
        <time>2021-04-03T12:16:10.588Z</time>
      </trkpt>
      <trkpt lat="45.6044" lon="5.3624">
        <ele>385</ele>
        <time>2021-04-03T12:16:11.587Z</time>
      </trkpt>
      <trkpt lat="45.60437" lon="5.36244">
        <ele>385</ele>
        <time>2021-04-03T12:16:12.588Z</time>
      </trkpt>
      <trkpt lat="45.60434" lon="5.36248">
        <ele>385</ele>
        <time>2021-04-03T12:16:13.588Z</time>
      </trkpt>
      <trkpt lat="45.60432" lon="5.36251">
        <ele>386</ele>
        <time>2021-04-03T12:16:14.588Z</time>
      </trkpt>
      <trkpt lat="45.60428" lon="5.36255">
        <ele>385</ele>
        <time>2021-04-03T12:16:15.588Z</time>
      </trkpt>
      <trkpt lat="45.60425" lon="5.36258">
        <ele>385</ele>
        <time>2021-04-03T12:16:16.587Z</time>
      </trkpt>
      <trkpt lat="45.60421" lon="5.36261">
        <ele>385</ele>
        <time>2021-04-03T12:16:17.587Z</time>
      </trkpt>
      <trkpt lat="45.60418" lon="5.36264">
        <ele>385</ele>
        <time>2021-04-03T12:16:18.587Z</time>
      </trkpt>
      <trkpt lat="45.60415" lon="5.36267">
        <ele>385</ele>
        <time>2021-04-03T12:16:19.587Z</time>
      </trkpt>
      <trkpt lat="45.60412" lon="5.3627">
        <ele>385</ele>
        <time>2021-04-03T12:16:20.587Z</time>
      </trkpt>
      <trkpt lat="45.60409" lon="5.36273">
        <ele>385</ele>
        <time>2021-04-03T12:16:21.588Z</time>
      </trkpt>
      <trkpt lat="45.60406" lon="5.36276">
        <ele>385</ele>
        <time>2021-04-03T12:16:22.588Z</time>
      </trkpt>
      <trkpt lat="45.60403" lon="5.36279">
        <ele>385</ele>
        <time>2021-04-03T12:16:23.588Z</time>
      </trkpt>
      <trkpt lat="45.60399" lon="5.36282">
        <ele>385</ele>
        <time>2021-04-03T12:16:24.587Z</time>
      </trkpt>
      <trkpt lat="45.60396" lon="5.36286">
        <ele>385</ele>
        <time>2021-04-03T12:16:25.587Z</time>
      </trkpt>
      <trkpt lat="45.60392" lon="5.36289">
        <ele>384</ele>
        <time>2021-04-03T12:16:26.587Z</time>
      </trkpt>
      <trkpt lat="45.6039" lon="5.36291">
        <ele>384</ele>
        <time>2021-04-03T12:16:27.588Z</time>
      </trkpt>
      <trkpt lat="45.60385" lon="5.36295">
        <ele>384</ele>
        <time>2021-04-03T12:16:28.588Z</time>
      </trkpt>
      <trkpt lat="45.60381" lon="5.36298">
        <ele>384</ele>
        <time>2021-04-03T12:16:29.588Z</time>
      </trkpt>
      <trkpt lat="45.60377" lon="5.36301">
        <ele>383</ele>
        <time>2021-04-03T12:16:30.587Z</time>
      </trkpt>
      <trkpt lat="45.60374" lon="5.36303">
        <ele>384</ele>
        <time>2021-04-03T12:16:31.588Z</time>
      </trkpt>
      <trkpt lat="45.60369" lon="5.36306">
        <ele>384</ele>
        <time>2021-04-03T12:16:32.588Z</time>
      </trkpt>
      <trkpt lat="45.60365" lon="5.36309">
        <ele>384</ele>
        <time>2021-04-03T12:16:33.588Z</time>
      </trkpt>
      <trkpt lat="45.60361" lon="5.36311">
        <ele>384</ele>
        <time>2021-04-03T12:16:34.587Z</time>
      </trkpt>
      <trkpt lat="45.60358" lon="5.36313">
        <ele>384</ele>
        <time>2021-04-03T12:16:35.588Z</time>
      </trkpt>
      <trkpt lat="45.60354" lon="5.36316">
        <ele>383</ele>
        <time>2021-04-03T12:16:36.588Z</time>
      </trkpt>
      <trkpt lat="45.60348" lon="5.36319">
        <ele>383</ele>
        <time>2021-04-03T12:16:37.588Z</time>
      </trkpt>
      <trkpt lat="45.60344" lon="5.36321">
        <ele>383</ele>
        <time>2021-04-03T12:16:38.588Z</time>
      </trkpt>
      <trkpt lat="45.60339" lon="5.36323">
        <ele>382</ele>
        <time>2021-04-03T12:16:39.588Z</time>
      </trkpt>
      <trkpt lat="45.60335" lon="5.36325">
        <ele>382</ele>
        <time>2021-04-03T12:16:40.588Z</time>
      </trkpt>
      <trkpt lat="45.6033" lon="5.36327">
        <ele>383</ele>
        <time>2021-04-03T12:16:41.587Z</time>
      </trkpt>
      <trkpt lat="45.60326" lon="5.36328">
        <ele>383</ele>
        <time>2021-04-03T12:16:42.588Z</time>
      </trkpt>
      <trkpt lat="45.60322" lon="5.36329">
        <ele>383</ele>
        <time>2021-04-03T12:16:43.588Z</time>
      </trkpt>
      <trkpt lat="45.60318" lon="5.3633">
        <ele>383</ele>
        <time>2021-04-03T12:16:44.588Z</time>
      </trkpt>
      <trkpt lat="45.60312" lon="5.36332">
        <ele>383</ele>
        <time>2021-04-03T12:16:45.588Z</time>
      </trkpt>
      <trkpt lat="45.60308" lon="5.36334">
        <ele>383</ele>
        <time>2021-04-03T12:16:46.588Z</time>
      </trkpt>
      <trkpt lat="45.60303" lon="5.36336">
        <ele>383</ele>
        <time>2021-04-03T12:16:47.588Z</time>
      </trkpt>
      <trkpt lat="45.60298" lon="5.36338">
        <ele>382</ele>
        <time>2021-04-03T12:16:48.588Z</time>
      </trkpt>
      <trkpt lat="45.60294" lon="5.36339">
        <ele>382</ele>
        <time>2021-04-03T12:16:49.588Z</time>
      </trkpt>
      <trkpt lat="45.60289" lon="5.36341">
        <ele>382</ele>
        <time>2021-04-03T12:16:50.587Z</time>
      </trkpt>
      <trkpt lat="45.60284" lon="5.36344">
        <ele>382</ele>
        <time>2021-04-03T12:16:51.588Z</time>
      </trkpt>
      <trkpt lat="45.60279" lon="5.36346">
        <ele>382</ele>
        <time>2021-04-03T12:16:52.587Z</time>
      </trkpt>
      <trkpt lat="45.60275" lon="5.36349">
        <ele>382</ele>
        <time>2021-04-03T12:16:53.588Z</time>
      </trkpt>
      <trkpt lat="45.60271" lon="5.36351">
        <ele>383</ele>
        <time>2021-04-03T12:16:54.587Z</time>
      </trkpt>
      <trkpt lat="45.60267" lon="5.36354">
        <ele>383</ele>
        <time>2021-04-03T12:16:55.587Z</time>
      </trkpt>
      <trkpt lat="45.60263" lon="5.36358">
        <ele>383</ele>
        <time>2021-04-03T12:16:56.588Z</time>
      </trkpt>
      <trkpt lat="45.60261" lon="5.36361">
        <ele>383</ele>
        <time>2021-04-03T12:16:57.587Z</time>
      </trkpt>
      <trkpt lat="45.60258" lon="5.36365">
        <ele>384</ele>
        <time>2021-04-03T12:16:58.588Z</time>
      </trkpt>
      <trkpt lat="45.60255" lon="5.3637">
        <ele>384</ele>
        <time>2021-04-03T12:16:59.587Z</time>
      </trkpt>
      <trkpt lat="45.60252" lon="5.36373">
        <ele>384</ele>
        <time>2021-04-03T12:17:00.587Z</time>
      </trkpt>
      <trkpt lat="45.60249" lon="5.36376">
        <ele>384</ele>
        <time>2021-04-03T12:17:01.588Z</time>
      </trkpt>
      <trkpt lat="45.60245" lon="5.36379">
        <ele>384</ele>
        <time>2021-04-03T12:17:02.588Z</time>
      </trkpt>
      <trkpt lat="45.60242" lon="5.36382">
        <ele>384</ele>
        <time>2021-04-03T12:17:03.588Z</time>
      </trkpt>
      <trkpt lat="45.60239" lon="5.36386">
        <ele>384</ele>
        <time>2021-04-03T12:17:04.587Z</time>
      </trkpt>
      <trkpt lat="45.60236" lon="5.36389">
        <ele>384</ele>
        <time>2021-04-03T12:17:05.587Z</time>
      </trkpt>
      <trkpt lat="45.60233" lon="5.36392">
        <ele>384</ele>
        <time>2021-04-03T12:17:06.588Z</time>
      </trkpt>
      <trkpt lat="45.60229" lon="5.36396">
        <ele>384</ele>
        <time>2021-04-03T12:17:07.588Z</time>
      </trkpt>
      <trkpt lat="45.60224" lon="5.36402">
        <ele>383</ele>
        <time>2021-04-03T12:17:08.587Z</time>
      </trkpt>
      <trkpt lat="45.60221" lon="5.36406">
        <ele>383</ele>
        <time>2021-04-03T12:17:09.588Z</time>
      </trkpt>
      <trkpt lat="45.60217" lon="5.36411">
        <ele>383</ele>
        <time>2021-04-03T12:17:10.587Z</time>
      </trkpt>
      <trkpt lat="45.60213" lon="5.36415">
        <ele>384</ele>
        <time>2021-04-03T12:17:11.587Z</time>
      </trkpt>
      <trkpt lat="45.60208" lon="5.36421">
        <ele>384</ele>
        <time>2021-04-03T12:17:12.588Z</time>
      </trkpt>
      <trkpt lat="45.60203" lon="5.36426">
        <ele>384</ele>
        <time>2021-04-03T12:17:13.588Z</time>
      </trkpt>
      <trkpt lat="45.60198" lon="5.36432">
        <ele>384</ele>
        <time>2021-04-03T12:17:14.587Z</time>
      </trkpt>
      <trkpt lat="45.60195" lon="5.36437">
        <ele>384</ele>
        <time>2021-04-03T12:17:15.587Z</time>
      </trkpt>
      <trkpt lat="45.60188" lon="5.36445">
        <ele>384</ele>
        <time>2021-04-03T12:17:16.588Z</time>
      </trkpt>
      <trkpt lat="45.60182" lon="5.36451">
        <ele>383</ele>
        <time>2021-04-03T12:17:17.588Z</time>
      </trkpt>
      <trkpt lat="45.60176" lon="5.36458">
        <ele>383</ele>
        <time>2021-04-03T12:17:18.587Z</time>
      </trkpt>
      <trkpt lat="45.6017" lon="5.36464">
        <ele>382</ele>
        <time>2021-04-03T12:17:19.588Z</time>
      </trkpt>
      <trkpt lat="45.60165" lon="5.36468">
        <ele>382</ele>
        <time>2021-04-03T12:17:20.588Z</time>
      </trkpt>
      <trkpt lat="45.60157" lon="5.36475">
        <ele>382</ele>
        <time>2021-04-03T12:17:21.588Z</time>
      </trkpt>
      <trkpt lat="45.60151" lon="5.3648">
        <ele>382</ele>
        <time>2021-04-03T12:17:22.588Z</time>
      </trkpt>
      <trkpt lat="45.60145" lon="5.36485">
        <ele>381</ele>
        <time>2021-04-03T12:17:23.587Z</time>
      </trkpt>
      <trkpt lat="45.60139" lon="5.3649">
        <ele>381</ele>
        <time>2021-04-03T12:17:24.588Z</time>
      </trkpt>
      <trkpt lat="45.60133" lon="5.36493">
        <ele>381</ele>
        <time>2021-04-03T12:17:25.587Z</time>
      </trkpt>
      <trkpt lat="45.60126" lon="5.36493">
        <ele>380</ele>
        <time>2021-04-03T12:17:26.588Z</time>
      </trkpt>
      <trkpt lat="45.60119" lon="5.36492">
        <ele>380</ele>
        <time>2021-04-03T12:17:27.588Z</time>
      </trkpt>
      <trkpt lat="45.60114" lon="5.36489">
        <ele>380</ele>
        <time>2021-04-03T12:17:28.588Z</time>
      </trkpt>
      <trkpt lat="45.60108" lon="5.36486">
        <ele>380</ele>
        <time>2021-04-03T12:17:29.587Z</time>
      </trkpt>
      <trkpt lat="45.601" lon="5.36481">
        <ele>380</ele>
        <time>2021-04-03T12:17:30.587Z</time>
      </trkpt>
      <trkpt lat="45.60095" lon="5.36476">
        <ele>380</ele>
        <time>2021-04-03T12:17:31.588Z</time>
      </trkpt>
      <trkpt lat="45.60089" lon="5.36471">
        <ele>380</ele>
        <time>2021-04-03T12:17:32.588Z</time>
      </trkpt>
      <trkpt lat="45.60085" lon="5.36467">
        <ele>380</ele>
        <time>2021-04-03T12:17:33.587Z</time>
      </trkpt>
      <trkpt lat="45.60078" lon="5.36462">
        <ele>380</ele>
        <time>2021-04-03T12:17:34.588Z</time>
      </trkpt>
      <trkpt lat="45.60073" lon="5.36457">
        <ele>380</ele>
        <time>2021-04-03T12:17:35.588Z</time>
      </trkpt>
      <trkpt lat="45.60068" lon="5.36452">
        <ele>380</ele>
        <time>2021-04-03T12:17:36.588Z</time>
      </trkpt>
      <trkpt lat="45.60064" lon="5.36448">
        <ele>380</ele>
        <time>2021-04-03T12:17:37.588Z</time>
      </trkpt>
      <trkpt lat="45.60059" lon="5.36443">
        <ele>380</ele>
        <time>2021-04-03T12:17:38.587Z</time>
      </trkpt>
      <trkpt lat="45.60053" lon="5.36438">
        <ele>380</ele>
        <time>2021-04-03T12:17:39.588Z</time>
      </trkpt>
      <trkpt lat="45.60049" lon="5.36434">
        <ele>380</ele>
        <time>2021-04-03T12:17:40.587Z</time>
      </trkpt>
      <trkpt lat="45.60044" lon="5.3643">
        <ele>379</ele>
        <time>2021-04-03T12:17:41.588Z</time>
      </trkpt>
      <trkpt lat="45.60041" lon="5.36426">
        <ele>379</ele>
        <time>2021-04-03T12:17:42.587Z</time>
      </trkpt>
      <trkpt lat="45.60035" lon="5.36421">
        <ele>378</ele>
        <time>2021-04-03T12:17:43.587Z</time>
      </trkpt>
      <trkpt lat="45.60031" lon="5.36417">
        <ele>378</ele>
        <time>2021-04-03T12:17:44.587Z</time>
      </trkpt>
      <trkpt lat="45.60027" lon="5.36415">
        <ele>377</ele>
        <time>2021-04-03T12:17:45.587Z</time>
      </trkpt>
      <trkpt lat="45.60024" lon="5.36413">
        <ele>377</ele>
        <time>2021-04-03T12:17:46.588Z</time>
      </trkpt>
      <trkpt lat="45.60021" lon="5.36412">
        <ele>377</ele>
        <time>2021-04-03T12:17:47.588Z</time>
      </trkpt>
      <trkpt lat="45.60017" lon="5.36412">
        <ele>377</ele>
        <time>2021-04-03T12:17:48.587Z</time>
      </trkpt>
      <trkpt lat="45.60015" lon="5.36415">
        <ele>377</ele>
        <time>2021-04-03T12:17:49.587Z</time>
      </trkpt>
      <trkpt lat="45.60013" lon="5.36418">
        <ele>377</ele>
        <time>2021-04-03T12:17:50.588Z</time>
      </trkpt>
      <trkpt lat="45.60012" lon="5.36422">
        <ele>378</ele>
        <time>2021-04-03T12:17:51.588Z</time>
      </trkpt>
      <trkpt lat="45.60011" lon="5.36427">
        <ele>378</ele>
        <time>2021-04-03T12:17:52.588Z</time>
      </trkpt>
      <trkpt lat="45.60011" lon="5.36433">
        <ele>378</ele>
        <time>2021-04-03T12:17:53.588Z</time>
      </trkpt>
      <trkpt lat="45.60011" lon="5.36439">
        <ele>378</ele>
        <time>2021-04-03T12:17:54.587Z</time>
      </trkpt>
      <trkpt lat="45.60011" lon="5.36444">
        <ele>379</ele>
        <time>2021-04-03T12:17:55.588Z</time>
      </trkpt>
      <trkpt lat="45.60012" lon="5.36452">
        <ele>379</ele>
        <time>2021-04-03T12:17:56.588Z</time>
      </trkpt>
      <trkpt lat="45.60012" lon="5.36459">
        <ele>379</ele>
        <time>2021-04-03T12:17:57.588Z</time>
      </trkpt>
      <trkpt lat="45.60011" lon="5.36467">
        <ele>378</ele>
        <time>2021-04-03T12:17:58.588Z</time>
      </trkpt>
      <trkpt lat="45.60011" lon="5.36474">
        <ele>379</ele>
        <time>2021-04-03T12:17:59.587Z</time>
      </trkpt>
      <trkpt lat="45.60011" lon="5.3648">
        <ele>379</ele>
        <time>2021-04-03T12:18:00.587Z</time>
      </trkpt>
      <trkpt lat="45.60012" lon="5.36488">
        <ele>379</ele>
        <time>2021-04-03T12:18:01.588Z</time>
      </trkpt>
      <trkpt lat="45.60012" lon="5.36494">
        <ele>379</ele>
        <time>2021-04-03T12:18:02.587Z</time>
      </trkpt>
      <trkpt lat="45.60012" lon="5.36501">
        <ele>379</ele>
        <time>2021-04-03T12:18:03.587Z</time>
      </trkpt>
      <trkpt lat="45.60012" lon="5.36508">
        <ele>378</ele>
        <time>2021-04-03T12:18:04.587Z</time>
      </trkpt>
      <trkpt lat="45.60012" lon="5.36514">
        <ele>378</ele>
        <time>2021-04-03T12:18:05.587Z</time>
      </trkpt>
      <trkpt lat="45.60011" lon="5.36521">
        <ele>378</ele>
        <time>2021-04-03T12:18:06.587Z</time>
      </trkpt>
      <trkpt lat="45.60011" lon="5.36527">
        <ele>379</ele>
        <time>2021-04-03T12:18:07.588Z</time>
      </trkpt>
      <trkpt lat="45.60011" lon="5.36532">
        <ele>379</ele>
        <time>2021-04-03T12:18:08.588Z</time>
      </trkpt>
      <trkpt lat="45.60011" lon="5.36538">
        <ele>378</ele>
        <time>2021-04-03T12:18:09.588Z</time>
      </trkpt>
      <trkpt lat="45.6001" lon="5.36546">
        <ele>378</ele>
        <time>2021-04-03T12:18:10.588Z</time>
      </trkpt>
      <trkpt lat="45.6001" lon="5.36552">
        <ele>378</ele>
        <time>2021-04-03T12:18:11.587Z</time>
      </trkpt>
      <trkpt lat="45.6001" lon="5.36558">
        <ele>378</ele>
        <time>2021-04-03T12:18:12.588Z</time>
      </trkpt>
      <trkpt lat="45.6001" lon="5.36564">
        <ele>378</ele>
        <time>2021-04-03T12:18:13.588Z</time>
      </trkpt>
      <trkpt lat="45.6001" lon="5.36569">
        <ele>378</ele>
        <time>2021-04-03T12:18:14.588Z</time>
      </trkpt>
      <trkpt lat="45.6001" lon="5.36577">
        <ele>379</ele>
        <time>2021-04-03T12:18:15.587Z</time>
      </trkpt>
      <trkpt lat="45.60009" lon="5.36584">
        <ele>379</ele>
        <time>2021-04-03T12:18:16.588Z</time>
      </trkpt>
      <trkpt lat="45.60009" lon="5.3659">
        <ele>380</ele>
        <time>2021-04-03T12:18:17.588Z</time>
      </trkpt>
      <trkpt lat="45.60008" lon="5.36596">
        <ele>380</ele>
        <time>2021-04-03T12:18:18.588Z</time>
      </trkpt>
      <trkpt lat="45.60008" lon="5.36602">
        <ele>380</ele>
        <time>2021-04-03T12:18:19.587Z</time>
      </trkpt>
      <trkpt lat="45.60007" lon="5.36609">
        <ele>380</ele>
        <time>2021-04-03T12:18:20.587Z</time>
      </trkpt>
      <trkpt lat="45.60006" lon="5.36615">
        <ele>380</ele>
        <time>2021-04-03T12:18:21.587Z</time>
      </trkpt>
      <trkpt lat="45.60006" lon="5.36621">
        <ele>380</ele>
        <time>2021-04-03T12:18:22.587Z</time>
      </trkpt>
      <trkpt lat="45.60004" lon="5.36627">
        <ele>380</ele>
        <time>2021-04-03T12:18:23.588Z</time>
      </trkpt>
      <trkpt lat="45.60003" lon="5.36633">
        <ele>380</ele>
        <time>2021-04-03T12:18:24.587Z</time>
      </trkpt>
      <trkpt lat="45.60002" lon="5.36638">
        <ele>380</ele>
        <time>2021-04-03T12:18:25.587Z</time>
      </trkpt>
      <trkpt lat="45.60001" lon="5.36644">
        <ele>379</ele>
        <time>2021-04-03T12:18:26.587Z</time>
      </trkpt>
      <trkpt lat="45.6" lon="5.3665">
        <ele>379</ele>
        <time>2021-04-03T12:18:27.588Z</time>
      </trkpt>
      <trkpt lat="45.59998" lon="5.36655">
        <ele>379</ele>
        <time>2021-04-03T12:18:28.588Z</time>
      </trkpt>
      <trkpt lat="45.59997" lon="5.36661">
        <ele>379</ele>
        <time>2021-04-03T12:18:29.587Z</time>
      </trkpt>
      <trkpt lat="45.59995" lon="5.36666">
        <ele>379</ele>
        <time>2021-04-03T12:18:30.587Z</time>
      </trkpt>
      <trkpt lat="45.59994" lon="5.36671">
        <ele>379</ele>
        <time>2021-04-03T12:18:31.587Z</time>
      </trkpt>
      <trkpt lat="45.59992" lon="5.36677">
        <ele>380</ele>
        <time>2021-04-03T12:18:32.588Z</time>
      </trkpt>
      <trkpt lat="45.5999" lon="5.36682">
        <ele>380</ele>
        <time>2021-04-03T12:18:33.587Z</time>
      </trkpt>
      <trkpt lat="45.59988" lon="5.36687">
        <ele>380</ele>
        <time>2021-04-03T12:18:34.587Z</time>
      </trkpt>
      <trkpt lat="45.59986" lon="5.36691">
        <ele>380</ele>
        <time>2021-04-03T12:18:35.588Z</time>
      </trkpt>
      <trkpt lat="45.59984" lon="5.36695">
        <ele>381</ele>
        <time>2021-04-03T12:18:36.588Z</time>
      </trkpt>
      <trkpt lat="45.59982" lon="5.367">
        <ele>381</ele>
        <time>2021-04-03T12:18:37.588Z</time>
      </trkpt>
      <trkpt lat="45.5998" lon="5.36704">
        <ele>381</ele>
        <time>2021-04-03T12:18:38.588Z</time>
      </trkpt>
      <trkpt lat="45.59978" lon="5.36708">
        <ele>382</ele>
        <time>2021-04-03T12:18:39.588Z</time>
      </trkpt>
      <trkpt lat="45.59976" lon="5.36711">
        <ele>382</ele>
        <time>2021-04-03T12:18:40.587Z</time>
      </trkpt>
      <trkpt lat="45.59974" lon="5.36714">
        <ele>382</ele>
        <time>2021-04-03T12:18:41.588Z</time>
      </trkpt>
      <trkpt lat="45.59971" lon="5.36717">
        <ele>383</ele>
        <time>2021-04-03T12:18:42.588Z</time>
      </trkpt>
      <trkpt lat="45.59969" lon="5.36721">
        <ele>383</ele>
        <time>2021-04-03T12:18:43.588Z</time>
      </trkpt>
      <trkpt lat="45.59967" lon="5.36724">
        <ele>384</ele>
        <time>2021-04-03T12:18:44.588Z</time>
      </trkpt>
      <trkpt lat="45.59965" lon="5.36728">
        <ele>384</ele>
        <time>2021-04-03T12:18:45.587Z</time>
      </trkpt>
      <trkpt lat="45.59963" lon="5.36731">
        <ele>385</ele>
        <time>2021-04-03T12:18:46.587Z</time>
      </trkpt>
      <trkpt lat="45.59961" lon="5.36735">
        <ele>385</ele>
        <time>2021-04-03T12:18:47.587Z</time>
      </trkpt>
      <trkpt lat="45.59958" lon="5.36739">
        <ele>385</ele>
        <time>2021-04-03T12:18:48.588Z</time>
      </trkpt>
      <trkpt lat="45.59956" lon="5.36743">
        <ele>386</ele>
        <time>2021-04-03T12:18:49.587Z</time>
      </trkpt>
      <trkpt lat="45.59954" lon="5.36747">
        <ele>386</ele>
        <time>2021-04-03T12:18:50.588Z</time>
      </trkpt>
      <trkpt lat="45.59952" lon="5.36752">
        <ele>386</ele>
        <time>2021-04-03T12:18:51.587Z</time>
      </trkpt>
      <trkpt lat="45.5995" lon="5.36756">
        <ele>386</ele>
        <time>2021-04-03T12:18:52.588Z</time>
      </trkpt>
      <trkpt lat="45.59948" lon="5.36761">
        <ele>386</ele>
        <time>2021-04-03T12:18:53.588Z</time>
      </trkpt>
      <trkpt lat="45.59946" lon="5.36767">
        <ele>386</ele>
        <time>2021-04-03T12:18:54.588Z</time>
      </trkpt>
      <trkpt lat="45.59944" lon="5.36772">
        <ele>386</ele>
        <time>2021-04-03T12:18:55.588Z</time>
      </trkpt>
      <trkpt lat="45.59943" lon="5.36778">
        <ele>386</ele>
        <time>2021-04-03T12:18:56.588Z</time>
      </trkpt>
      <trkpt lat="45.59942" lon="5.36782">
        <ele>386</ele>
        <time>2021-04-03T12:18:57.588Z</time>
      </trkpt>
      <trkpt lat="45.5994" lon="5.36789">
        <ele>386</ele>
        <time>2021-04-03T12:18:58.587Z</time>
      </trkpt>
      <trkpt lat="45.5994" lon="5.36795">
        <ele>387</ele>
        <time>2021-04-03T12:18:59.587Z</time>
      </trkpt>
      <trkpt lat="45.5994" lon="5.36801">
        <ele>387</ele>
        <time>2021-04-03T12:19:00.588Z</time>
      </trkpt>
      <trkpt lat="45.5994" lon="5.36807">
        <ele>387</ele>
        <time>2021-04-03T12:19:01.588Z</time>
      </trkpt>
      <trkpt lat="45.59941" lon="5.36813">
        <ele>387</ele>
        <time>2021-04-03T12:19:02.588Z</time>
      </trkpt>
      <trkpt lat="45.59942" lon="5.36818">
        <ele>387</ele>
        <time>2021-04-03T12:19:03.588Z</time>
      </trkpt>
      <trkpt lat="45.59944" lon="5.36825">
        <ele>387</ele>
        <time>2021-04-03T12:19:04.588Z</time>
      </trkpt>
      <trkpt lat="45.59944" lon="5.3683">
        <ele>387</ele>
        <time>2021-04-03T12:19:05.587Z</time>
      </trkpt>
      <trkpt lat="45.59945" lon="5.36837">
        <ele>387</ele>
        <time>2021-04-03T12:19:06.587Z</time>
      </trkpt>
      <trkpt lat="45.59947" lon="5.36842">
        <ele>387</ele>
        <time>2021-04-03T12:19:07.587Z</time>
      </trkpt>
      <trkpt lat="45.59949" lon="5.36847">
        <ele>387</ele>
        <time>2021-04-03T12:19:08.588Z</time>
      </trkpt>
      <trkpt lat="45.5995" lon="5.36852">
        <ele>387</ele>
        <time>2021-04-03T12:19:09.587Z</time>
      </trkpt>
      <trkpt lat="45.59952" lon="5.36857">
        <ele>387</ele>
        <time>2021-04-03T12:19:10.587Z</time>
      </trkpt>
      <trkpt lat="45.59953" lon="5.36862">
        <ele>387</ele>
        <time>2021-04-03T12:19:11.587Z</time>
      </trkpt>
      <trkpt lat="45.59954" lon="5.36867">
        <ele>386</ele>
        <time>2021-04-03T12:19:12.588Z</time>
      </trkpt>
      <trkpt lat="45.59955" lon="5.36872">
        <ele>386</ele>
        <time>2021-04-03T12:19:13.588Z</time>
      </trkpt>
      <trkpt lat="45.59956" lon="5.36877">
        <ele>386</ele>
        <time>2021-04-03T12:19:14.587Z</time>
      </trkpt>
      <trkpt lat="45.59957" lon="5.36882">
        <ele>386</ele>
        <time>2021-04-03T12:19:15.588Z</time>
      </trkpt>
      <trkpt lat="45.59958" lon="5.36888">
        <ele>386</ele>
        <time>2021-04-03T12:19:16.587Z</time>
      </trkpt>
      <trkpt lat="45.59959" lon="5.36893">
        <ele>386</ele>
        <time>2021-04-03T12:19:17.588Z</time>
      </trkpt>
      <trkpt lat="45.5996" lon="5.36898">
        <ele>386</ele>
        <time>2021-04-03T12:19:18.588Z</time>
      </trkpt>
      <trkpt lat="45.59961" lon="5.36903">
        <ele>386</ele>
        <time>2021-04-03T12:19:19.587Z</time>
      </trkpt>
      <trkpt lat="45.59963" lon="5.36908">
        <ele>386</ele>
        <time>2021-04-03T12:19:20.587Z</time>
      </trkpt>
      <trkpt lat="45.59964" lon="5.36913">
        <ele>386</ele>
        <time>2021-04-03T12:19:21.588Z</time>
      </trkpt>
      <trkpt lat="45.59966" lon="5.36918">
        <ele>386</ele>
        <time>2021-04-03T12:19:22.588Z</time>
      </trkpt>
      <trkpt lat="45.59967" lon="5.36922">
        <ele>387</ele>
        <time>2021-04-03T12:19:23.588Z</time>
      </trkpt>
      <trkpt lat="45.59968" lon="5.36927">
        <ele>387</ele>
        <time>2021-04-03T12:19:24.588Z</time>
      </trkpt>
      <trkpt lat="45.5997" lon="5.36932">
        <ele>387</ele>
        <time>2021-04-03T12:19:25.587Z</time>
      </trkpt>
      <trkpt lat="45.59971" lon="5.36937">
        <ele>388</ele>
        <time>2021-04-03T12:19:26.588Z</time>
      </trkpt>
      <trkpt lat="45.59973" lon="5.36942">
        <ele>388</ele>
        <time>2021-04-03T12:19:27.588Z</time>
      </trkpt>
      <trkpt lat="45.59974" lon="5.36947">
        <ele>388</ele>
        <time>2021-04-03T12:19:28.588Z</time>
      </trkpt>
      <trkpt lat="45.59975" lon="5.36953">
        <ele>388</ele>
        <time>2021-04-03T12:19:29.587Z</time>
      </trkpt>
      <trkpt lat="45.59977" lon="5.36959">
        <ele>389</ele>
        <time>2021-04-03T12:19:30.587Z</time>
      </trkpt>
      <trkpt lat="45.59979" lon="5.36965">
        <ele>389</ele>
        <time>2021-04-03T12:19:31.588Z</time>
      </trkpt>
      <trkpt lat="45.5998" lon="5.36971">
        <ele>389</ele>
        <time>2021-04-03T12:19:32.588Z</time>
      </trkpt>
      <trkpt lat="45.59981" lon="5.36977">
        <ele>389</ele>
        <time>2021-04-03T12:19:33.588Z</time>
      </trkpt>
      <trkpt lat="45.59982" lon="5.36983">
        <ele>389</ele>
        <time>2021-04-03T12:19:34.587Z</time>
      </trkpt>
      <trkpt lat="45.59984" lon="5.36989">
        <ele>389</ele>
        <time>2021-04-03T12:19:35.588Z</time>
      </trkpt>
      <trkpt lat="45.59985" lon="5.36994">
        <ele>389</ele>
        <time>2021-04-03T12:19:36.588Z</time>
      </trkpt>
      <trkpt lat="45.59986" lon="5.37">
        <ele>389</ele>
        <time>2021-04-03T12:19:37.587Z</time>
      </trkpt>
      <trkpt lat="45.59987" lon="5.37006">
        <ele>390</ele>
        <time>2021-04-03T12:19:38.588Z</time>
      </trkpt>
      <trkpt lat="45.59989" lon="5.37011">
        <ele>390</ele>
        <time>2021-04-03T12:19:39.588Z</time>
      </trkpt>
      <trkpt lat="45.5999" lon="5.37016">
        <ele>390</ele>
        <time>2021-04-03T12:19:40.588Z</time>
      </trkpt>
      <trkpt lat="45.59992" lon="5.37023">
        <ele>390</ele>
        <time>2021-04-03T12:19:41.588Z</time>
      </trkpt>
      <trkpt lat="45.59993" lon="5.3703">
        <ele>390</ele>
        <time>2021-04-03T12:19:42.588Z</time>
      </trkpt>
      <trkpt lat="45.59994" lon="5.37036">
        <ele>390</ele>
        <time>2021-04-03T12:19:43.588Z</time>
      </trkpt>
      <trkpt lat="45.59996" lon="5.37042">
        <ele>390</ele>
        <time>2021-04-03T12:19:44.588Z</time>
      </trkpt>
      <trkpt lat="45.59997" lon="5.37048">
        <ele>390</ele>
        <time>2021-04-03T12:19:45.588Z</time>
      </trkpt>
      <trkpt lat="45.59999" lon="5.37054">
        <ele>390</ele>
        <time>2021-04-03T12:19:46.588Z</time>
      </trkpt>
      <trkpt lat="45.6" lon="5.3706">
        <ele>390</ele>
        <time>2021-04-03T12:19:47.588Z</time>
      </trkpt>
      <trkpt lat="45.60002" lon="5.37066">
        <ele>390</ele>
        <time>2021-04-03T12:19:48.587Z</time>
      </trkpt>
      <trkpt lat="45.60003" lon="5.37071">
        <ele>390</ele>
        <time>2021-04-03T12:19:49.588Z</time>
      </trkpt>
      <trkpt lat="45.60005" lon="5.37077">
        <ele>390</ele>
        <time>2021-04-03T12:19:50.587Z</time>
      </trkpt>
      <trkpt lat="45.60006" lon="5.37082">
        <ele>390</ele>
        <time>2021-04-03T12:19:51.587Z</time>
      </trkpt>
      <trkpt lat="45.60006" lon="5.37087">
        <ele>390</ele>
        <time>2021-04-03T12:19:52.588Z</time>
      </trkpt>
      <trkpt lat="45.60007" lon="5.37092">
        <ele>390</ele>
        <time>2021-04-03T12:19:53.588Z</time>
      </trkpt>
      <trkpt lat="45.60008" lon="5.37097">
        <ele>390</ele>
        <time>2021-04-03T12:19:54.588Z</time>
      </trkpt>
      <trkpt lat="45.60008" lon="5.37103">
        <ele>390</ele>
        <time>2021-04-03T12:19:55.587Z</time>
      </trkpt>
      <trkpt lat="45.60009" lon="5.37109">
        <ele>390</ele>
        <time>2021-04-03T12:19:56.588Z</time>
      </trkpt>
      <trkpt lat="45.60009" lon="5.37116">
        <ele>391</ele>
        <time>2021-04-03T12:19:57.588Z</time>
      </trkpt>
      <trkpt lat="45.6001" lon="5.37123">
        <ele>391</ele>
        <time>2021-04-03T12:19:58.587Z</time>
      </trkpt>
      <trkpt lat="45.60011" lon="5.3713">
        <ele>392</ele>
        <time>2021-04-03T12:19:59.587Z</time>
      </trkpt>
      <trkpt lat="45.60012" lon="5.37138">
        <ele>392</ele>
        <time>2021-04-03T12:20:00.587Z</time>
      </trkpt>
      <trkpt lat="45.60012" lon="5.37146">
        <ele>392</ele>
        <time>2021-04-03T12:20:01.588Z</time>
      </trkpt>
      <trkpt lat="45.60014" lon="5.37154">
        <ele>393</ele>
        <time>2021-04-03T12:20:02.587Z</time>
      </trkpt>
      <trkpt lat="45.60015" lon="5.37162">
        <ele>394</ele>
        <time>2021-04-03T12:20:03.587Z</time>
      </trkpt>
      <trkpt lat="45.60016" lon="5.37169">
        <ele>394</ele>
        <time>2021-04-03T12:20:04.587Z</time>
      </trkpt>
      <trkpt lat="45.60017" lon="5.37177">
        <ele>395</ele>
        <time>2021-04-03T12:20:05.588Z</time>
      </trkpt>
      <trkpt lat="45.60018" lon="5.37184">
        <ele>395</ele>
        <time>2021-04-03T12:20:06.587Z</time>
      </trkpt>
      <trkpt lat="45.60018" lon="5.37191">
        <ele>396</ele>
        <time>2021-04-03T12:20:07.588Z</time>
      </trkpt>
      <trkpt lat="45.60019" lon="5.37198">
        <ele>396</ele>
        <time>2021-04-03T12:20:08.588Z</time>
      </trkpt>
      <trkpt lat="45.60019" lon="5.37205">
        <ele>396</ele>
        <time>2021-04-03T12:20:09.588Z</time>
      </trkpt>
      <trkpt lat="45.60019" lon="5.37212">
        <ele>396</ele>
        <time>2021-04-03T12:20:10.588Z</time>
      </trkpt>
      <trkpt lat="45.60019" lon="5.37218">
        <ele>397</ele>
        <time>2021-04-03T12:20:11.588Z</time>
      </trkpt>
      <trkpt lat="45.6002" lon="5.37225">
        <ele>397</ele>
        <time>2021-04-03T12:20:12.588Z</time>
      </trkpt>
      <trkpt lat="45.6002" lon="5.37232">
        <ele>397</ele>
        <time>2021-04-03T12:20:13.588Z</time>
      </trkpt>
      <trkpt lat="45.6002" lon="5.37239">
        <ele>398</ele>
        <time>2021-04-03T12:20:14.588Z</time>
      </trkpt>
      <trkpt lat="45.60021" lon="5.37245">
        <ele>398</ele>
        <time>2021-04-03T12:20:15.588Z</time>
      </trkpt>
      <trkpt lat="45.60021" lon="5.37252">
        <ele>399</ele>
        <time>2021-04-03T12:20:16.588Z</time>
      </trkpt>
      <trkpt lat="45.60021" lon="5.37259">
        <ele>399</ele>
        <time>2021-04-03T12:20:17.587Z</time>
      </trkpt>
      <trkpt lat="45.60021" lon="5.37266">
        <ele>400</ele>
        <time>2021-04-03T12:20:18.588Z</time>
      </trkpt>
      <trkpt lat="45.60022" lon="5.37272">
        <ele>400</ele>
        <time>2021-04-03T12:20:19.588Z</time>
      </trkpt>
      <trkpt lat="45.60022" lon="5.37278">
        <ele>400</ele>
        <time>2021-04-03T12:20:20.588Z</time>
      </trkpt>
      <trkpt lat="45.60022" lon="5.37285">
        <ele>400</ele>
        <time>2021-04-03T12:20:21.588Z</time>
      </trkpt>
      <trkpt lat="45.60023" lon="5.37292">
        <ele>400</ele>
        <time>2021-04-03T12:20:22.587Z</time>
      </trkpt>
      <trkpt lat="45.60023" lon="5.37299">
        <ele>400</ele>
        <time>2021-04-03T12:20:23.588Z</time>
      </trkpt>
      <trkpt lat="45.60023" lon="5.37307">
        <ele>400</ele>
        <time>2021-04-03T12:20:24.588Z</time>
      </trkpt>
      <trkpt lat="45.60024" lon="5.37314">
        <ele>401</ele>
        <time>2021-04-03T12:20:25.588Z</time>
      </trkpt>
      <trkpt lat="45.60024" lon="5.37322">
        <ele>401</ele>
        <time>2021-04-03T12:20:26.588Z</time>
      </trkpt>
      <trkpt lat="45.60024" lon="5.37329">
        <ele>401</ele>
        <time>2021-04-03T12:20:27.587Z</time>
      </trkpt>
      <trkpt lat="45.60024" lon="5.37336">
        <ele>402</ele>
        <time>2021-04-03T12:20:28.588Z</time>
      </trkpt>
      <trkpt lat="45.60024" lon="5.37342">
        <ele>402</ele>
        <time>2021-04-03T12:20:29.588Z</time>
      </trkpt>
      <trkpt lat="45.60025" lon="5.37348">
        <ele>403</ele>
        <time>2021-04-03T12:20:30.587Z</time>
      </trkpt>
      <trkpt lat="45.60025" lon="5.37356">
        <ele>404</ele>
        <time>2021-04-03T12:20:31.588Z</time>
      </trkpt>
      <trkpt lat="45.60026" lon="5.37361">
        <ele>404</ele>
        <time>2021-04-03T12:20:32.587Z</time>
      </trkpt>
      <trkpt lat="45.60027" lon="5.3737">
        <ele>405</ele>
        <time>2021-04-03T12:20:33.587Z</time>
      </trkpt>
      <trkpt lat="45.60027" lon="5.37375">
        <ele>405</ele>
        <time>2021-04-03T12:20:34.588Z</time>
      </trkpt>
      <trkpt lat="45.60028" lon="5.37382">
        <ele>405</ele>
        <time>2021-04-03T12:20:35.587Z</time>
      </trkpt>
      <trkpt lat="45.60028" lon="5.37388">
        <ele>404</ele>
        <time>2021-04-03T12:20:36.587Z</time>
      </trkpt>
      <trkpt lat="45.60029" lon="5.37396">
        <ele>404</ele>
        <time>2021-04-03T12:20:37.588Z</time>
      </trkpt>
      <trkpt lat="45.60029" lon="5.37402">
        <ele>405</ele>
        <time>2021-04-03T12:20:38.588Z</time>
      </trkpt>
      <trkpt lat="45.6003" lon="5.37408">
        <ele>405</ele>
        <time>2021-04-03T12:20:39.588Z</time>
      </trkpt>
      <trkpt lat="45.60032" lon="5.37415">
        <ele>406</ele>
        <time>2021-04-03T12:20:40.588Z</time>
      </trkpt>
      <trkpt lat="45.60033" lon="5.37422">
        <ele>407</ele>
        <time>2021-04-03T12:20:41.588Z</time>
      </trkpt>
      <trkpt lat="45.60034" lon="5.3743">
        <ele>407</ele>
        <time>2021-04-03T12:20:42.588Z</time>
      </trkpt>
      <trkpt lat="45.60034" lon="5.37436">
        <ele>408</ele>
        <time>2021-04-03T12:20:43.588Z</time>
      </trkpt>
      <trkpt lat="45.60035" lon="5.37444">
        <ele>409</ele>
        <time>2021-04-03T12:20:44.588Z</time>
      </trkpt>
      <trkpt lat="45.60036" lon="5.37451">
        <ele>409</ele>
        <time>2021-04-03T12:20:45.588Z</time>
      </trkpt>
      <trkpt lat="45.60037" lon="5.37458">
        <ele>410</ele>
        <time>2021-04-03T12:20:46.588Z</time>
      </trkpt>
      <trkpt lat="45.60038" lon="5.37464">
        <ele>410</ele>
        <time>2021-04-03T12:20:47.587Z</time>
      </trkpt>
      <trkpt lat="45.60039" lon="5.37471">
        <ele>411</ele>
        <time>2021-04-03T12:20:48.587Z</time>
      </trkpt>
      <trkpt lat="45.60039" lon="5.37478">
        <ele>411</ele>
        <time>2021-04-03T12:20:49.588Z</time>
      </trkpt>
      <trkpt lat="45.6004" lon="5.37485">
        <ele>412</ele>
        <time>2021-04-03T12:20:50.588Z</time>
      </trkpt>
      <trkpt lat="45.60041" lon="5.37491">
        <ele>412</ele>
        <time>2021-04-03T12:20:51.588Z</time>
      </trkpt>
      <trkpt lat="45.60042" lon="5.37499">
        <ele>413</ele>
        <time>2021-04-03T12:20:52.588Z</time>
      </trkpt>
      <trkpt lat="45.60043" lon="5.37506">
        <ele>413</ele>
        <time>2021-04-03T12:20:53.588Z</time>
      </trkpt>
      <trkpt lat="45.60043" lon="5.37513">
        <ele>414</ele>
        <time>2021-04-03T12:20:54.588Z</time>
      </trkpt>
      <trkpt lat="45.60044" lon="5.3752">
        <ele>414</ele>
        <time>2021-04-03T12:20:55.587Z</time>
      </trkpt>
      <trkpt lat="45.60045" lon="5.37526">
        <ele>414</ele>
        <time>2021-04-03T12:20:56.587Z</time>
      </trkpt>
      <trkpt lat="45.60045" lon="5.37533">
        <ele>414</ele>
        <time>2021-04-03T12:20:57.588Z</time>
      </trkpt>
      <trkpt lat="45.60046" lon="5.3754">
        <ele>414</ele>
        <time>2021-04-03T12:20:58.587Z</time>
      </trkpt>
      <trkpt lat="45.60046" lon="5.37547">
        <ele>414</ele>
        <time>2021-04-03T12:20:59.588Z</time>
      </trkpt>
      <trkpt lat="45.60047" lon="5.37554">
        <ele>414</ele>
        <time>2021-04-03T12:21:00.587Z</time>
      </trkpt>
      <trkpt lat="45.60048" lon="5.37561">
        <ele>415</ele>
        <time>2021-04-03T12:21:01.587Z</time>
      </trkpt>
      <trkpt lat="45.60048" lon="5.37566">
        <ele>415</ele>
        <time>2021-04-03T12:21:02.588Z</time>
      </trkpt>
      <trkpt lat="45.60049" lon="5.37573">
        <ele>415</ele>
        <time>2021-04-03T12:21:03.588Z</time>
      </trkpt>
      <trkpt lat="45.60049" lon="5.3758">
        <ele>415</ele>
        <time>2021-04-03T12:21:04.588Z</time>
      </trkpt>
      <trkpt lat="45.6005" lon="5.37587">
        <ele>415</ele>
        <time>2021-04-03T12:21:05.587Z</time>
      </trkpt>
      <trkpt lat="45.60051" lon="5.37594">
        <ele>415</ele>
        <time>2021-04-03T12:21:06.588Z</time>
      </trkpt>
      <trkpt lat="45.60051" lon="5.37601">
        <ele>415</ele>
        <time>2021-04-03T12:21:07.588Z</time>
      </trkpt>
      <trkpt lat="45.60052" lon="5.37609">
        <ele>416</ele>
        <time>2021-04-03T12:21:08.588Z</time>
      </trkpt>
      <trkpt lat="45.60052" lon="5.37616">
        <ele>416</ele>
        <time>2021-04-03T12:21:09.588Z</time>
      </trkpt>
      <trkpt lat="45.60053" lon="5.37622">
        <ele>416</ele>
        <time>2021-04-03T12:21:10.587Z</time>
      </trkpt>
      <trkpt lat="45.60053" lon="5.37629">
        <ele>417</ele>
        <time>2021-04-03T12:21:11.587Z</time>
      </trkpt>
      <trkpt lat="45.60054" lon="5.37636">
        <ele>417</ele>
        <time>2021-04-03T12:21:12.588Z</time>
      </trkpt>
      <trkpt lat="45.60054" lon="5.37643">
        <ele>417</ele>
        <time>2021-04-03T12:21:13.587Z</time>
      </trkpt>
      <trkpt lat="45.60054" lon="5.3765">
        <ele>417</ele>
        <time>2021-04-03T12:21:14.588Z</time>
      </trkpt>
      <trkpt lat="45.60055" lon="5.37659">
        <ele>417</ele>
        <time>2021-04-03T12:21:15.587Z</time>
      </trkpt>
      <trkpt lat="45.60055" lon="5.37665">
        <ele>417</ele>
        <time>2021-04-03T12:21:16.588Z</time>
      </trkpt>
      <trkpt lat="45.60055" lon="5.37674">
        <ele>417</ele>
        <time>2021-04-03T12:21:17.588Z</time>
      </trkpt>
      <trkpt lat="45.60054" lon="5.3768">
        <ele>417</ele>
        <time>2021-04-03T12:21:18.588Z</time>
      </trkpt>
      <trkpt lat="45.60054" lon="5.37688">
        <ele>417</ele>
        <time>2021-04-03T12:21:19.587Z</time>
      </trkpt>
      <trkpt lat="45.60053" lon="5.37695">
        <ele>418</ele>
        <time>2021-04-03T12:21:20.588Z</time>
      </trkpt>
      <trkpt lat="45.60053" lon="5.37705">
        <ele>418</ele>
        <time>2021-04-03T12:21:21.588Z</time>
      </trkpt>
      <trkpt lat="45.60052" lon="5.37712">
        <ele>418</ele>
        <time>2021-04-03T12:21:22.587Z</time>
      </trkpt>
      <trkpt lat="45.60051" lon="5.3772">
        <ele>418</ele>
        <time>2021-04-03T12:21:23.588Z</time>
      </trkpt>
      <trkpt lat="45.6005" lon="5.37728">
        <ele>418</ele>
        <time>2021-04-03T12:21:24.588Z</time>
      </trkpt>
      <trkpt lat="45.60048" lon="5.37735">
        <ele>418</ele>
        <time>2021-04-03T12:21:25.588Z</time>
      </trkpt>
      <trkpt lat="45.60046" lon="5.37743">
        <ele>418</ele>
        <time>2021-04-03T12:21:26.588Z</time>
      </trkpt>
      <trkpt lat="45.60044" lon="5.3775">
        <ele>418</ele>
        <time>2021-04-03T12:21:27.588Z</time>
      </trkpt>
      <trkpt lat="45.60042" lon="5.37758">
        <ele>419</ele>
        <time>2021-04-03T12:21:28.588Z</time>
      </trkpt>
      <trkpt lat="45.6004" lon="5.37765">
        <ele>419</ele>
        <time>2021-04-03T12:21:29.587Z</time>
      </trkpt>
      <trkpt lat="45.60038" lon="5.37772">
        <ele>419</ele>
        <time>2021-04-03T12:21:30.588Z</time>
      </trkpt>
      <trkpt lat="45.60035" lon="5.3778">
        <ele>419</ele>
        <time>2021-04-03T12:21:31.588Z</time>
      </trkpt>
      <trkpt lat="45.60033" lon="5.37787">
        <ele>419</ele>
        <time>2021-04-03T12:21:32.588Z</time>
      </trkpt>
      <trkpt lat="45.60031" lon="5.37794">
        <ele>419</ele>
        <time>2021-04-03T12:21:33.588Z</time>
      </trkpt>
      <trkpt lat="45.60028" lon="5.37801">
        <ele>419</ele>
        <time>2021-04-03T12:21:34.587Z</time>
      </trkpt>
      <trkpt lat="45.60026" lon="5.37808">
        <ele>419</ele>
        <time>2021-04-03T12:21:35.588Z</time>
      </trkpt>
      <trkpt lat="45.60023" lon="5.37815">
        <ele>420</ele>
        <time>2021-04-03T12:21:36.588Z</time>
      </trkpt>
      <trkpt lat="45.60021" lon="5.37821">
        <ele>420</ele>
        <time>2021-04-03T12:21:37.588Z</time>
      </trkpt>
      <trkpt lat="45.60018" lon="5.37828">
        <ele>420</ele>
        <time>2021-04-03T12:21:38.588Z</time>
      </trkpt>
      <trkpt lat="45.60016" lon="5.37834">
        <ele>421</ele>
        <time>2021-04-03T12:21:39.588Z</time>
      </trkpt>
      <trkpt lat="45.60014" lon="5.37841">
        <ele>422</ele>
        <time>2021-04-03T12:21:40.587Z</time>
      </trkpt>
      <trkpt lat="45.60011" lon="5.37847">
        <ele>422</ele>
        <time>2021-04-03T12:21:41.587Z</time>
      </trkpt>
      <trkpt lat="45.60008" lon="5.37854">
        <ele>422</ele>
        <time>2021-04-03T12:21:42.588Z</time>
      </trkpt>
      <trkpt lat="45.60006" lon="5.3786">
        <ele>422</ele>
        <time>2021-04-03T12:21:43.588Z</time>
      </trkpt>
      <trkpt lat="45.60003" lon="5.37866">
        <ele>423</ele>
        <time>2021-04-03T12:21:44.587Z</time>
      </trkpt>
      <trkpt lat="45.6" lon="5.37872">
        <ele>423</ele>
        <time>2021-04-03T12:21:45.588Z</time>
      </trkpt>
      <trkpt lat="45.59997" lon="5.37878">
        <ele>424</ele>
        <time>2021-04-03T12:21:46.588Z</time>
      </trkpt>
      <trkpt lat="45.59994" lon="5.37885">
        <ele>424</ele>
        <time>2021-04-03T12:21:47.588Z</time>
      </trkpt>
      <trkpt lat="45.5999" lon="5.37891">
        <ele>425</ele>
        <time>2021-04-03T12:21:48.588Z</time>
      </trkpt>
      <trkpt lat="45.59987" lon="5.37898">
        <ele>425</ele>
        <time>2021-04-03T12:21:49.588Z</time>
      </trkpt>
      <trkpt lat="45.59984" lon="5.37903">
        <ele>425</ele>
        <time>2021-04-03T12:21:50.587Z</time>
      </trkpt>
      <trkpt lat="45.5998" lon="5.37911">
        <ele>425</ele>
        <time>2021-04-03T12:21:51.588Z</time>
      </trkpt>
      <trkpt lat="45.59976" lon="5.37918">
        <ele>425</ele>
        <time>2021-04-03T12:21:52.588Z</time>
      </trkpt>
      <trkpt lat="45.59973" lon="5.37925">
        <ele>425</ele>
        <time>2021-04-03T12:21:53.588Z</time>
      </trkpt>
      <trkpt lat="45.5997" lon="5.37931">
        <ele>425</ele>
        <time>2021-04-03T12:21:54.588Z</time>
      </trkpt>
      <trkpt lat="45.59967" lon="5.37938">
        <ele>426</ele>
        <time>2021-04-03T12:21:55.588Z</time>
      </trkpt>
      <trkpt lat="45.59963" lon="5.37944">
        <ele>426</ele>
        <time>2021-04-03T12:21:56.588Z</time>
      </trkpt>
      <trkpt lat="45.5996" lon="5.3795">
        <ele>426</ele>
        <time>2021-04-03T12:21:57.588Z</time>
      </trkpt>
      <trkpt lat="45.59957" lon="5.37955">
        <ele>427</ele>
        <time>2021-04-03T12:21:58.588Z</time>
      </trkpt>
      <trkpt lat="45.59954" lon="5.3796">
        <ele>428</ele>
        <time>2021-04-03T12:21:59.587Z</time>
      </trkpt>
      <trkpt lat="45.5995" lon="5.37966">
        <ele>429</ele>
        <time>2021-04-03T12:22:00.587Z</time>
      </trkpt>
      <trkpt lat="45.59946" lon="5.37973">
        <ele>429</ele>
        <time>2021-04-03T12:22:01.587Z</time>
      </trkpt>
      <trkpt lat="45.59942" lon="5.37977">
        <ele>429</ele>
        <time>2021-04-03T12:22:02.588Z</time>
      </trkpt>
      <trkpt lat="45.59938" lon="5.37982">
        <ele>430</ele>
        <time>2021-04-03T12:22:03.587Z</time>
      </trkpt>
      <trkpt lat="45.59933" lon="5.37988">
        <ele>430</ele>
        <time>2021-04-03T12:22:04.588Z</time>
      </trkpt>
      <trkpt lat="45.5993" lon="5.37991">
        <ele>429</ele>
        <time>2021-04-03T12:22:05.587Z</time>
      </trkpt>
      <trkpt lat="45.59926" lon="5.37997">
        <ele>429</ele>
        <time>2021-04-03T12:22:06.587Z</time>
      </trkpt>
      <trkpt lat="45.59923" lon="5.38002">
        <ele>429</ele>
        <time>2021-04-03T12:22:07.588Z</time>
      </trkpt>
      <trkpt lat="45.59919" lon="5.38007">
        <ele>429</ele>
        <time>2021-04-03T12:22:08.588Z</time>
      </trkpt>
      <trkpt lat="45.59915" lon="5.38015">
        <ele>429</ele>
        <time>2021-04-03T12:22:09.587Z</time>
      </trkpt>
      <trkpt lat="45.59911" lon="5.38021">
        <ele>429</ele>
        <time>2021-04-03T12:22:10.588Z</time>
      </trkpt>
      <trkpt lat="45.59908" lon="5.38026">
        <ele>429</ele>
        <time>2021-04-03T12:22:11.588Z</time>
      </trkpt>
      <trkpt lat="45.59904" lon="5.38033">
        <ele>430</ele>
        <time>2021-04-03T12:22:12.588Z</time>
      </trkpt>
      <trkpt lat="45.59899" lon="5.38041">
        <ele>430</ele>
        <time>2021-04-03T12:22:13.588Z</time>
      </trkpt>
      <trkpt lat="45.59896" lon="5.38046">
        <ele>430</ele>
        <time>2021-04-03T12:22:14.587Z</time>
      </trkpt>
      <trkpt lat="45.59892" lon="5.38053">
        <ele>430</ele>
        <time>2021-04-03T12:22:15.587Z</time>
      </trkpt>
      <trkpt lat="45.59889" lon="5.38057">
        <ele>430</ele>
        <time>2021-04-03T12:22:16.587Z</time>
      </trkpt>
      <trkpt lat="45.59885" lon="5.38063">
        <ele>431</ele>
        <time>2021-04-03T12:22:17.588Z</time>
      </trkpt>
      <trkpt lat="45.59881" lon="5.38068">
        <ele>431</ele>
        <time>2021-04-03T12:22:18.588Z</time>
      </trkpt>
      <trkpt lat="45.59877" lon="5.38073">
        <ele>431</ele>
        <time>2021-04-03T12:22:19.588Z</time>
      </trkpt>
      <trkpt lat="45.59872" lon="5.3808">
        <ele>431</ele>
        <time>2021-04-03T12:22:20.588Z</time>
      </trkpt>
      <trkpt lat="45.59868" lon="5.38085">
        <ele>431</ele>
        <time>2021-04-03T12:22:21.587Z</time>
      </trkpt>
      <trkpt lat="45.59864" lon="5.3809">
        <ele>432</ele>
        <time>2021-04-03T12:22:22.588Z</time>
      </trkpt>
      <trkpt lat="45.5986" lon="5.38095">
        <ele>432</ele>
        <time>2021-04-03T12:22:23.587Z</time>
      </trkpt>
      <trkpt lat="45.59856" lon="5.381">
        <ele>433</ele>
        <time>2021-04-03T12:22:24.588Z</time>
      </trkpt>
      <trkpt lat="45.59852" lon="5.38104">
        <ele>433</ele>
        <time>2021-04-03T12:22:25.587Z</time>
      </trkpt>
      <trkpt lat="45.59847" lon="5.38108">
        <ele>433</ele>
        <time>2021-04-03T12:22:26.588Z</time>
      </trkpt>
      <trkpt lat="45.59842" lon="5.38112">
        <ele>433</ele>
        <time>2021-04-03T12:22:27.588Z</time>
      </trkpt>
      <trkpt lat="45.59838" lon="5.38115">
        <ele>433</ele>
        <time>2021-04-03T12:22:28.588Z</time>
      </trkpt>
      <trkpt lat="45.59833" lon="5.38117">
        <ele>433</ele>
        <time>2021-04-03T12:22:29.588Z</time>
      </trkpt>
      <trkpt lat="45.59828" lon="5.3812">
        <ele>433</ele>
        <time>2021-04-03T12:22:30.587Z</time>
      </trkpt>
      <trkpt lat="45.59823" lon="5.38122">
        <ele>432</ele>
        <time>2021-04-03T12:22:31.587Z</time>
      </trkpt>
      <trkpt lat="45.59819" lon="5.38124">
        <ele>432</ele>
        <time>2021-04-03T12:22:32.587Z</time>
      </trkpt>
      <trkpt lat="45.59813" lon="5.38127">
        <ele>432</ele>
        <time>2021-04-03T12:22:33.587Z</time>
      </trkpt>
      <trkpt lat="45.59808" lon="5.38129">
        <ele>432</ele>
        <time>2021-04-03T12:22:34.588Z</time>
      </trkpt>
      <trkpt lat="45.59803" lon="5.38131">
        <ele>432</ele>
        <time>2021-04-03T12:22:35.588Z</time>
      </trkpt>
      <trkpt lat="45.59798" lon="5.38132">
        <ele>432</ele>
        <time>2021-04-03T12:22:36.587Z</time>
      </trkpt>
      <trkpt lat="45.59793" lon="5.38134">
        <ele>432</ele>
        <time>2021-04-03T12:22:37.588Z</time>
      </trkpt>
      <trkpt lat="45.59788" lon="5.38137">
        <ele>431</ele>
        <time>2021-04-03T12:22:38.588Z</time>
      </trkpt>
      <trkpt lat="45.59783" lon="5.38139">
        <ele>431</ele>
        <time>2021-04-03T12:22:39.588Z</time>
      </trkpt>
      <trkpt lat="45.59778" lon="5.38142">
        <ele>431</ele>
        <time>2021-04-03T12:22:40.587Z</time>
      </trkpt>
      <trkpt lat="45.59773" lon="5.38144">
        <ele>431</ele>
        <time>2021-04-03T12:22:41.588Z</time>
      </trkpt>
      <trkpt lat="45.59769" lon="5.38146">
        <ele>431</ele>
        <time>2021-04-03T12:22:42.588Z</time>
      </trkpt>
      <trkpt lat="45.59764" lon="5.38148">
        <ele>431</ele>
        <time>2021-04-03T12:22:43.587Z</time>
      </trkpt>
      <trkpt lat="45.59761" lon="5.38149">
        <ele>431</ele>
        <time>2021-04-03T12:22:44.587Z</time>
      </trkpt>
      <trkpt lat="45.59758" lon="5.38151">
        <ele>431</ele>
        <time>2021-04-03T12:22:45.587Z</time>
      </trkpt>
      <trkpt lat="45.59757" lon="5.38153">
        <ele>431</ele>
        <time>2021-04-03T12:22:46.587Z</time>
      </trkpt>
      <trkpt lat="45.59757" lon="5.38156">
        <ele>431</ele>
        <time>2021-04-03T12:22:47.587Z</time>
      </trkpt>
      <trkpt lat="45.59758" lon="5.38157">
        <ele>431</ele>
        <time>2021-04-03T12:22:48.587Z</time>
      </trkpt>
      <trkpt lat="45.5976" lon="5.38157">
        <ele>431</ele>
        <time>2021-04-03T12:22:49.588Z</time>
      </trkpt>
      <trkpt lat="45.59763" lon="5.38156">
        <ele>431</ele>
        <time>2021-04-03T12:22:50.588Z</time>
      </trkpt>
      <trkpt lat="45.59766" lon="5.38153">
        <ele>431</ele>
        <time>2021-04-03T12:22:51.588Z</time>
      </trkpt>
      <trkpt lat="45.59769" lon="5.38151">
        <ele>432</ele>
        <time>2021-04-03T12:22:52.588Z</time>
      </trkpt>
      <trkpt lat="45.59774" lon="5.38148">
        <ele>431</ele>
        <time>2021-04-03T12:22:53.588Z</time>
      </trkpt>
      <trkpt lat="45.59779" lon="5.38145">
        <ele>431</ele>
        <time>2021-04-03T12:22:54.588Z</time>
      </trkpt>
      <trkpt lat="45.59784" lon="5.38142">
        <ele>431</ele>
        <time>2021-04-03T12:22:55.588Z</time>
      </trkpt>
      <trkpt lat="45.5979" lon="5.38139">
        <ele>431</ele>
        <time>2021-04-03T12:22:56.588Z</time>
      </trkpt>
      <trkpt lat="45.59795" lon="5.38136">
        <ele>431</ele>
        <time>2021-04-03T12:22:57.588Z</time>
      </trkpt>
      <trkpt lat="45.59801" lon="5.38134">
        <ele>431</ele>
        <time>2021-04-03T12:22:58.588Z</time>
      </trkpt>
      <trkpt lat="45.59807" lon="5.38131">
        <ele>431</ele>
        <time>2021-04-03T12:22:59.588Z</time>
      </trkpt>
      <trkpt lat="45.59813" lon="5.38128">
        <ele>431</ele>
        <time>2021-04-03T12:23:00.588Z</time>
      </trkpt>
      <trkpt lat="45.59819" lon="5.38126">
        <ele>431</ele>
        <time>2021-04-03T12:23:01.587Z</time>
      </trkpt>
      <trkpt lat="45.59826" lon="5.38122">
        <ele>431</ele>
        <time>2021-04-03T12:23:02.588Z</time>
      </trkpt>
      <trkpt lat="45.59832" lon="5.38119">
        <ele>431</ele>
        <time>2021-04-03T12:23:03.588Z</time>
      </trkpt>
      <trkpt lat="45.59838" lon="5.38116">
        <ele>431</ele>
        <time>2021-04-03T12:23:04.588Z</time>
      </trkpt>
      <trkpt lat="45.59844" lon="5.38113">
        <ele>431</ele>
        <time>2021-04-03T12:23:05.588Z</time>
      </trkpt>
      <trkpt lat="45.5985" lon="5.38108">
        <ele>431</ele>
        <time>2021-04-03T12:23:06.588Z</time>
      </trkpt>
      <trkpt lat="45.59855" lon="5.38103">
        <ele>431</ele>
        <time>2021-04-03T12:23:07.587Z</time>
      </trkpt>
      <trkpt lat="45.59861" lon="5.38097">
        <ele>431</ele>
        <time>2021-04-03T12:23:08.587Z</time>
      </trkpt>
      <trkpt lat="45.59866" lon="5.38092">
        <ele>431</ele>
        <time>2021-04-03T12:23:09.588Z</time>
      </trkpt>
      <trkpt lat="45.59871" lon="5.38085">
        <ele>431</ele>
        <time>2021-04-03T12:23:10.588Z</time>
      </trkpt>
      <trkpt lat="45.59876" lon="5.38079">
        <ele>430</ele>
        <time>2021-04-03T12:23:11.587Z</time>
      </trkpt>
      <trkpt lat="45.59881" lon="5.38072">
        <ele>430</ele>
        <time>2021-04-03T12:23:12.588Z</time>
      </trkpt>
      <trkpt lat="45.59886" lon="5.38065">
        <ele>430</ele>
        <time>2021-04-03T12:23:13.588Z</time>
      </trkpt>
      <trkpt lat="45.5989" lon="5.38059">
        <ele>430</ele>
        <time>2021-04-03T12:23:14.587Z</time>
      </trkpt>
      <trkpt lat="45.59895" lon="5.38051">
        <ele>430</ele>
        <time>2021-04-03T12:23:15.587Z</time>
      </trkpt>
      <trkpt lat="45.599" lon="5.38044">
        <ele>430</ele>
        <time>2021-04-03T12:23:16.588Z</time>
      </trkpt>
      <trkpt lat="45.59904" lon="5.38036">
        <ele>430</ele>
        <time>2021-04-03T12:23:17.588Z</time>
      </trkpt>
      <trkpt lat="45.59908" lon="5.38029">
        <ele>430</ele>
        <time>2021-04-03T12:23:18.587Z</time>
      </trkpt>
      <trkpt lat="45.59912" lon="5.38021">
        <ele>430</ele>
        <time>2021-04-03T12:23:19.587Z</time>
      </trkpt>
      <trkpt lat="45.59917" lon="5.38014">
        <ele>430</ele>
        <time>2021-04-03T12:23:20.588Z</time>
      </trkpt>
      <trkpt lat="45.59921" lon="5.38008">
        <ele>430</ele>
        <time>2021-04-03T12:23:21.588Z</time>
      </trkpt>
      <trkpt lat="45.59924" lon="5.38002">
        <ele>430</ele>
        <time>2021-04-03T12:23:22.588Z</time>
      </trkpt>
      <trkpt lat="45.59928" lon="5.37996">
        <ele>430</ele>
        <time>2021-04-03T12:23:23.587Z</time>
      </trkpt>
      <trkpt lat="45.5993" lon="5.37992">
        <ele>431</ele>
        <time>2021-04-03T12:23:24.588Z</time>
      </trkpt>
      <trkpt lat="45.59932" lon="5.37989">
        <ele>431</ele>
        <time>2021-04-03T12:23:25.588Z</time>
      </trkpt>
      <trkpt lat="45.59932" lon="5.37987">
        <ele>431</ele>
        <time>2021-04-03T12:23:26.587Z</time>
      </trkpt>
      <trkpt lat="45.59932" lon="5.37987">
        <ele>431</ele>
        <time>2021-04-03T12:23:27.588Z</time>
      </trkpt>
      <trkpt lat="45.59931" lon="5.37988">
        <ele>431</ele>
        <time>2021-04-03T12:23:28.588Z</time>
      </trkpt>
      <trkpt lat="45.5993" lon="5.3799">
        <ele>432</ele>
        <time>2021-04-03T12:23:29.587Z</time>
      </trkpt>
      <trkpt lat="45.59929" lon="5.37993">
        <ele>432</ele>
        <time>2021-04-03T12:23:30.588Z</time>
      </trkpt>
      <trkpt lat="45.59927" lon="5.37996">
        <ele>432</ele>
        <time>2021-04-03T12:23:31.588Z</time>
      </trkpt>
      <trkpt lat="45.59924" lon="5.38">
        <ele>432</ele>
        <time>2021-04-03T12:23:32.587Z</time>
      </trkpt>
      <trkpt lat="45.59921" lon="5.38005">
        <ele>432</ele>
        <time>2021-04-03T12:23:33.588Z</time>
      </trkpt>
      <trkpt lat="45.59917" lon="5.38009">
        <ele>431</ele>
        <time>2021-04-03T12:23:34.588Z</time>
      </trkpt>
      <trkpt lat="45.59913" lon="5.38015">
        <ele>431</ele>
        <time>2021-04-03T12:23:35.588Z</time>
      </trkpt>
      <trkpt lat="45.5991" lon="5.3802">
        <ele>431</ele>
        <time>2021-04-03T12:23:36.587Z</time>
      </trkpt>
      <trkpt lat="45.59907" lon="5.38025">
        <ele>431</ele>
        <time>2021-04-03T12:23:37.587Z</time>
      </trkpt>
      <trkpt lat="45.59904" lon="5.38031">
        <ele>431</ele>
        <time>2021-04-03T12:23:38.588Z</time>
      </trkpt>
      <trkpt lat="45.59902" lon="5.38035">
        <ele>431</ele>
        <time>2021-04-03T12:23:39.588Z</time>
      </trkpt>
      <trkpt lat="45.599" lon="5.3804">
        <ele>431</ele>
        <time>2021-04-03T12:23:40.587Z</time>
      </trkpt>
      <trkpt lat="45.59898" lon="5.38043">
        <ele>430</ele>
        <time>2021-04-03T12:23:41.588Z</time>
      </trkpt>
      <trkpt lat="45.59895" lon="5.38048">
        <ele>430</ele>
        <time>2021-04-03T12:23:42.587Z</time>
      </trkpt>
      <trkpt lat="45.59893" lon="5.38051">
        <ele>430</ele>
        <time>2021-04-03T12:23:43.588Z</time>
      </trkpt>
      <trkpt lat="45.59891" lon="5.38055">
        <ele>430</ele>
        <time>2021-04-03T12:23:44.587Z</time>
      </trkpt>
      <trkpt lat="45.59889" lon="5.38058">
        <ele>430</ele>
        <time>2021-04-03T12:23:45.588Z</time>
      </trkpt>
      <trkpt lat="45.59887" lon="5.3806">
        <ele>430</ele>
        <time>2021-04-03T12:23:46.588Z</time>
      </trkpt>
      <trkpt lat="45.59886" lon="5.38063">
        <ele>430</ele>
        <time>2021-04-03T12:23:47.587Z</time>
      </trkpt>
      <trkpt lat="45.59884" lon="5.38065">
        <ele>430</ele>
        <time>2021-04-03T12:23:48.588Z</time>
      </trkpt>
      <trkpt lat="45.59882" lon="5.38067">
        <ele>431</ele>
        <time>2021-04-03T12:23:49.587Z</time>
      </trkpt>
      <trkpt lat="45.5988" lon="5.38069">
        <ele>431</ele>
        <time>2021-04-03T12:23:50.588Z</time>
      </trkpt>
      <trkpt lat="45.59879" lon="5.38071">
        <ele>432</ele>
        <time>2021-04-03T12:23:51.587Z</time>
      </trkpt>
      <trkpt lat="45.59877" lon="5.38073">
        <ele>432</ele>
        <time>2021-04-03T12:23:52.588Z</time>
      </trkpt>
      <trkpt lat="45.59876" lon="5.38076">
        <ele>432</ele>
        <time>2021-04-03T12:23:53.587Z</time>
      </trkpt>
      <trkpt lat="45.59874" lon="5.38079">
        <ele>432</ele>
        <time>2021-04-03T12:23:54.588Z</time>
      </trkpt>
      <trkpt lat="45.59872" lon="5.38081">
        <ele>432</ele>
        <time>2021-04-03T12:23:55.588Z</time>
      </trkpt>
      <trkpt lat="45.5987" lon="5.38084">
        <ele>432</ele>
        <time>2021-04-03T12:23:56.588Z</time>
      </trkpt>
      <trkpt lat="45.59867" lon="5.38087">
        <ele>432</ele>
        <time>2021-04-03T12:23:57.588Z</time>
      </trkpt>
      <trkpt lat="45.59863" lon="5.38091">
        <ele>432</ele>
        <time>2021-04-03T12:23:58.587Z</time>
      </trkpt>
      <trkpt lat="45.5986" lon="5.38095">
        <ele>433</ele>
        <time>2021-04-03T12:23:59.587Z</time>
      </trkpt>
      <trkpt lat="45.59857" lon="5.38098">
        <ele>432</ele>
        <time>2021-04-03T12:24:00.587Z</time>
      </trkpt>
      <trkpt lat="45.59853" lon="5.38102">
        <ele>432</ele>
        <time>2021-04-03T12:24:01.587Z</time>
      </trkpt>
      <trkpt lat="45.59849" lon="5.38104">
        <ele>433</ele>
        <time>2021-04-03T12:24:02.587Z</time>
      </trkpt>
      <trkpt lat="45.59845" lon="5.38107">
        <ele>432</ele>
        <time>2021-04-03T12:24:03.588Z</time>
      </trkpt>
      <trkpt lat="45.59841" lon="5.3811">
        <ele>432</ele>
        <time>2021-04-03T12:24:04.588Z</time>
      </trkpt>
      <trkpt lat="45.59838" lon="5.38112">
        <ele>432</ele>
        <time>2021-04-03T12:24:05.587Z</time>
      </trkpt>
      <trkpt lat="45.59834" lon="5.38115">
        <ele>432</ele>
        <time>2021-04-03T12:24:06.588Z</time>
      </trkpt>
      <trkpt lat="45.5983" lon="5.38117">
        <ele>432</ele>
        <time>2021-04-03T12:24:07.588Z</time>
      </trkpt>
      <trkpt lat="45.59827" lon="5.38118">
        <ele>432</ele>
        <time>2021-04-03T12:24:08.588Z</time>
      </trkpt>
      <trkpt lat="45.59823" lon="5.3812">
        <ele>432</ele>
        <time>2021-04-03T12:24:09.588Z</time>
      </trkpt>
      <trkpt lat="45.59819" lon="5.38122">
        <ele>432</ele>
        <time>2021-04-03T12:24:10.588Z</time>
      </trkpt>
      <trkpt lat="45.59816" lon="5.38124">
        <ele>433</ele>
        <time>2021-04-03T12:24:11.588Z</time>
      </trkpt>
      <trkpt lat="45.59812" lon="5.38126">
        <ele>433</ele>
        <time>2021-04-03T12:24:12.588Z</time>
      </trkpt>
      <trkpt lat="45.59808" lon="5.38128">
        <ele>433</ele>
        <time>2021-04-03T12:24:13.588Z</time>
      </trkpt>
      <trkpt lat="45.59804" lon="5.38129">
        <ele>432</ele>
        <time>2021-04-03T12:24:14.588Z</time>
      </trkpt>
      <trkpt lat="45.598" lon="5.38131">
        <ele>432</ele>
        <time>2021-04-03T12:24:15.587Z</time>
      </trkpt>
      <trkpt lat="45.59796" lon="5.38133">
        <ele>432</ele>
        <time>2021-04-03T12:24:16.588Z</time>
      </trkpt>
      <trkpt lat="45.59792" lon="5.38135">
        <ele>432</ele>
        <time>2021-04-03T12:24:17.588Z</time>
      </trkpt>
      <trkpt lat="45.59789" lon="5.38136">
        <ele>432</ele>
        <time>2021-04-03T12:24:18.588Z</time>
      </trkpt>
      <trkpt lat="45.59785" lon="5.38138">
        <ele>432</ele>
        <time>2021-04-03T12:24:19.588Z</time>
      </trkpt>
      <trkpt lat="45.59782" lon="5.3814">
        <ele>432</ele>
        <time>2021-04-03T12:24:20.588Z</time>
      </trkpt>
      <trkpt lat="45.59778" lon="5.38142">
        <ele>432</ele>
        <time>2021-04-03T12:24:21.587Z</time>
      </trkpt>
      <trkpt lat="45.59775" lon="5.38144">
        <ele>432</ele>
        <time>2021-04-03T12:24:22.588Z</time>
      </trkpt>
      <trkpt lat="45.59772" lon="5.38145">
        <ele>432</ele>
        <time>2021-04-03T12:24:23.587Z</time>
      </trkpt>
      <trkpt lat="45.59769" lon="5.38146">
        <ele>432</ele>
        <time>2021-04-03T12:24:24.587Z</time>
      </trkpt>
      <trkpt lat="45.59766" lon="5.38147">
        <ele>432</ele>
        <time>2021-04-03T12:24:25.588Z</time>
      </trkpt>
      <trkpt lat="45.59764" lon="5.38149">
        <ele>432</ele>
        <time>2021-04-03T12:24:26.588Z</time>
      </trkpt>
      <trkpt lat="45.59762" lon="5.3815">
        <ele>432</ele>
        <time>2021-04-03T12:24:27.588Z</time>
      </trkpt>
      <trkpt lat="45.59761" lon="5.38152">
        <ele>432</ele>
        <time>2021-04-03T12:24:28.587Z</time>
      </trkpt>
      <trkpt lat="45.59759" lon="5.38155">
        <ele>432</ele>
        <time>2021-04-03T12:24:29.588Z</time>
      </trkpt>
      <trkpt lat="45.59759" lon="5.38159">
        <ele>432</ele>
        <time>2021-04-03T12:24:30.587Z</time>
      </trkpt>
      <trkpt lat="45.59758" lon="5.38163">
        <ele>431</ele>
        <time>2021-04-03T12:24:31.587Z</time>
      </trkpt>
      <trkpt lat="45.59758" lon="5.38168">
        <ele>431</ele>
        <time>2021-04-03T12:24:32.588Z</time>
      </trkpt>
      <trkpt lat="45.59757" lon="5.38173">
        <ele>431</ele>
        <time>2021-04-03T12:24:33.588Z</time>
      </trkpt>
      <trkpt lat="45.59756" lon="5.38178">
        <ele>431</ele>
        <time>2021-04-03T12:24:34.587Z</time>
      </trkpt>
      <trkpt lat="45.59755" lon="5.38183">
        <ele>431</ele>
        <time>2021-04-03T12:24:35.588Z</time>
      </trkpt>
      <trkpt lat="45.59754" lon="5.38189">
        <ele>431</ele>
        <time>2021-04-03T12:24:36.588Z</time>
      </trkpt>
      <trkpt lat="45.59752" lon="5.38194">
        <ele>431</ele>
        <time>2021-04-03T12:24:37.587Z</time>
      </trkpt>
      <trkpt lat="45.5975" lon="5.38199">
        <ele>430</ele>
        <time>2021-04-03T12:24:38.587Z</time>
      </trkpt>
      <trkpt lat="45.59748" lon="5.38203">
        <ele>430</ele>
        <time>2021-04-03T12:24:39.588Z</time>
      </trkpt>
      <trkpt lat="45.59745" lon="5.38208">
        <ele>429</ele>
        <time>2021-04-03T12:24:40.587Z</time>
      </trkpt>
      <trkpt lat="45.59743" lon="5.38213">
        <ele>429</ele>
        <time>2021-04-03T12:24:41.587Z</time>
      </trkpt>
      <trkpt lat="45.59741" lon="5.38218">
        <ele>428</ele>
        <time>2021-04-03T12:24:42.588Z</time>
      </trkpt>
      <trkpt lat="45.59739" lon="5.38224">
        <ele>428</ele>
        <time>2021-04-03T12:24:43.588Z</time>
      </trkpt>
      <trkpt lat="45.59738" lon="5.3823">
        <ele>428</ele>
        <time>2021-04-03T12:24:44.587Z</time>
      </trkpt>
      <trkpt lat="45.59736" lon="5.38237">
        <ele>428</ele>
        <time>2021-04-03T12:24:45.587Z</time>
      </trkpt>
      <trkpt lat="45.59735" lon="5.38243">
        <ele>428</ele>
        <time>2021-04-03T12:24:46.587Z</time>
      </trkpt>
      <trkpt lat="45.59735" lon="5.38251">
        <ele>428</ele>
        <time>2021-04-03T12:24:47.588Z</time>
      </trkpt>
      <trkpt lat="45.59734" lon="5.38256">
        <ele>428</ele>
        <time>2021-04-03T12:24:48.587Z</time>
      </trkpt>
      <trkpt lat="45.59733" lon="5.38265">
        <ele>429</ele>
        <time>2021-04-03T12:24:49.588Z</time>
      </trkpt>
      <trkpt lat="45.59733" lon="5.38272">
        <ele>429</ele>
        <time>2021-04-03T12:24:50.588Z</time>
      </trkpt>
      <trkpt lat="45.59733" lon="5.3828">
        <ele>429</ele>
        <time>2021-04-03T12:24:51.588Z</time>
      </trkpt>
      <trkpt lat="45.59733" lon="5.38285">
        <ele>429</ele>
        <time>2021-04-03T12:24:52.588Z</time>
      </trkpt>
      <trkpt lat="45.59733" lon="5.38294">
        <ele>429</ele>
        <time>2021-04-03T12:24:53.588Z</time>
      </trkpt>
      <trkpt lat="45.59733" lon="5.38301">
        <ele>430</ele>
        <time>2021-04-03T12:24:54.588Z</time>
      </trkpt>
      <trkpt lat="45.59733" lon="5.38308">
        <ele>430</ele>
        <time>2021-04-03T12:24:55.588Z</time>
      </trkpt>
      <trkpt lat="45.59733" lon="5.38315">
        <ele>430</ele>
        <time>2021-04-03T12:24:56.588Z</time>
      </trkpt>
      <trkpt lat="45.59733" lon="5.38322">
        <ele>430</ele>
        <time>2021-04-03T12:24:57.587Z</time>
      </trkpt>
      <trkpt lat="45.59734" lon="5.3833">
        <ele>430</ele>
        <time>2021-04-03T12:24:58.588Z</time>
      </trkpt>
      <trkpt lat="45.59735" lon="5.38337">
        <ele>430</ele>
        <time>2021-04-03T12:24:59.588Z</time>
      </trkpt>
      <trkpt lat="45.59736" lon="5.38345">
        <ele>429</ele>
        <time>2021-04-03T12:25:00.588Z</time>
      </trkpt>
      <trkpt lat="45.59736" lon="5.38352">
        <ele>429</ele>
        <time>2021-04-03T12:25:01.588Z</time>
      </trkpt>
      <trkpt lat="45.59737" lon="5.3836">
        <ele>429</ele>
        <time>2021-04-03T12:25:02.587Z</time>
      </trkpt>
      <trkpt lat="45.59737" lon="5.38368">
        <ele>430</ele>
        <time>2021-04-03T12:25:03.587Z</time>
      </trkpt>
      <trkpt lat="45.59738" lon="5.38376">
        <ele>430</ele>
        <time>2021-04-03T12:25:04.587Z</time>
      </trkpt>
      <trkpt lat="45.59738" lon="5.38384">
        <ele>430</ele>
        <time>2021-04-03T12:25:05.588Z</time>
      </trkpt>
      <trkpt lat="45.59737" lon="5.38391">
        <ele>429</ele>
        <time>2021-04-03T12:25:06.588Z</time>
      </trkpt>
      <trkpt lat="45.59737" lon="5.38399">
        <ele>429</ele>
        <time>2021-04-03T12:25:07.588Z</time>
      </trkpt>
      <trkpt lat="45.59737" lon="5.38407">
        <ele>429</ele>
        <time>2021-04-03T12:25:08.588Z</time>
      </trkpt>
      <trkpt lat="45.59737" lon="5.38414">
        <ele>430</ele>
        <time>2021-04-03T12:25:09.588Z</time>
      </trkpt>
      <trkpt lat="45.59736" lon="5.38421">
        <ele>430</ele>
        <time>2021-04-03T12:25:10.587Z</time>
      </trkpt>
      <trkpt lat="45.59736" lon="5.38429">
        <ele>430</ele>
        <time>2021-04-03T12:25:11.588Z</time>
      </trkpt>
      <trkpt lat="45.59736" lon="5.38436">
        <ele>430</ele>
        <time>2021-04-03T12:25:12.588Z</time>
      </trkpt>
      <trkpt lat="45.59735" lon="5.38444">
        <ele>430</ele>
        <time>2021-04-03T12:25:13.588Z</time>
      </trkpt>
      <trkpt lat="45.59735" lon="5.38451">
        <ele>430</ele>
        <time>2021-04-03T12:25:14.587Z</time>
      </trkpt>
      <trkpt lat="45.59734" lon="5.38459">
        <ele>430</ele>
        <time>2021-04-03T12:25:15.588Z</time>
      </trkpt>
      <trkpt lat="45.59733" lon="5.38467">
        <ele>430</ele>
        <time>2021-04-03T12:25:16.587Z</time>
      </trkpt>
      <trkpt lat="45.59733" lon="5.38475">
        <ele>431</ele>
        <time>2021-04-03T12:25:17.588Z</time>
      </trkpt>
      <trkpt lat="45.59732" lon="5.38482">
        <ele>431</ele>
        <time>2021-04-03T12:25:18.588Z</time>
      </trkpt>
      <trkpt lat="45.5973" lon="5.3849">
        <ele>431</ele>
        <time>2021-04-03T12:25:19.587Z</time>
      </trkpt>
      <trkpt lat="45.59728" lon="5.38497">
        <ele>431</ele>
        <time>2021-04-03T12:25:20.588Z</time>
      </trkpt>
      <trkpt lat="45.59726" lon="5.38505">
        <ele>431</ele>
        <time>2021-04-03T12:25:21.587Z</time>
      </trkpt>
      <trkpt lat="45.59724" lon="5.38512">
        <ele>431</ele>
        <time>2021-04-03T12:25:22.588Z</time>
      </trkpt>
      <trkpt lat="45.59721" lon="5.38519">
        <ele>430</ele>
        <time>2021-04-03T12:25:23.588Z</time>
      </trkpt>
      <trkpt lat="45.59719" lon="5.38524">
        <ele>430</ele>
        <time>2021-04-03T12:25:24.588Z</time>
      </trkpt>
      <trkpt lat="45.59715" lon="5.38532">
        <ele>430</ele>
        <time>2021-04-03T12:25:25.588Z</time>
      </trkpt>
      <trkpt lat="45.59713" lon="5.38538">
        <ele>429</ele>
        <time>2021-04-03T12:25:26.587Z</time>
      </trkpt>
      <trkpt lat="45.5971" lon="5.38545">
        <ele>429</ele>
        <time>2021-04-03T12:25:27.588Z</time>
      </trkpt>
      <trkpt lat="45.59708" lon="5.38552">
        <ele>429</ele>
        <time>2021-04-03T12:25:28.588Z</time>
      </trkpt>
      <trkpt lat="45.59706" lon="5.38559">
        <ele>429</ele>
        <time>2021-04-03T12:25:29.587Z</time>
      </trkpt>
      <trkpt lat="45.59704" lon="5.38567">
        <ele>429</ele>
        <time>2021-04-03T12:25:30.587Z</time>
      </trkpt>
      <trkpt lat="45.59701" lon="5.38574">
        <ele>430</ele>
        <time>2021-04-03T12:25:31.588Z</time>
      </trkpt>
      <trkpt lat="45.59699" lon="5.38582">
        <ele>430</ele>
        <time>2021-04-03T12:25:32.588Z</time>
      </trkpt>
      <trkpt lat="45.59697" lon="5.38589">
        <ele>431</ele>
        <time>2021-04-03T12:25:33.588Z</time>
      </trkpt>
      <trkpt lat="45.59695" lon="5.38597">
        <ele>431</ele>
        <time>2021-04-03T12:25:34.587Z</time>
      </trkpt>
      <trkpt lat="45.59692" lon="5.38606">
        <ele>431</ele>
        <time>2021-04-03T12:25:35.587Z</time>
      </trkpt>
      <trkpt lat="45.5969" lon="5.38614">
        <ele>430</ele>
        <time>2021-04-03T12:25:36.587Z</time>
      </trkpt>
      <trkpt lat="45.59687" lon="5.38622">
        <ele>430</ele>
        <time>2021-04-03T12:25:37.587Z</time>
      </trkpt>
      <trkpt lat="45.59685" lon="5.3863">
        <ele>429</ele>
        <time>2021-04-03T12:25:38.588Z</time>
      </trkpt>
      <trkpt lat="45.59683" lon="5.38638">
        <ele>429</ele>
        <time>2021-04-03T12:25:39.587Z</time>
      </trkpt>
      <trkpt lat="45.5968" lon="5.38646">
        <ele>429</ele>
        <time>2021-04-03T12:25:40.587Z</time>
      </trkpt>
      <trkpt lat="45.59678" lon="5.38653">
        <ele>429</ele>
        <time>2021-04-03T12:25:41.588Z</time>
      </trkpt>
      <trkpt lat="45.59677" lon="5.38658">
        <ele>428</ele>
        <time>2021-04-03T12:25:42.588Z</time>
      </trkpt>
      <trkpt lat="45.59674" lon="5.38665">
        <ele>429</ele>
        <time>2021-04-03T12:25:43.588Z</time>
      </trkpt>
      <trkpt lat="45.59672" lon="5.38671">
        <ele>429</ele>
        <time>2021-04-03T12:25:44.588Z</time>
      </trkpt>
      <trkpt lat="45.59671" lon="5.38676">
        <ele>428</ele>
        <time>2021-04-03T12:25:45.588Z</time>
      </trkpt>
      <trkpt lat="45.5967" lon="5.38681">
        <ele>428</ele>
        <time>2021-04-03T12:25:46.587Z</time>
      </trkpt>
      <trkpt lat="45.59668" lon="5.38687">
        <ele>427</ele>
        <time>2021-04-03T12:25:47.588Z</time>
      </trkpt>
      <trkpt lat="45.59666" lon="5.38693">
        <ele>427</ele>
        <time>2021-04-03T12:25:48.588Z</time>
      </trkpt>
      <trkpt lat="45.59665" lon="5.38698">
        <ele>427</ele>
        <time>2021-04-03T12:25:49.588Z</time>
      </trkpt>
      <trkpt lat="45.59663" lon="5.38704">
        <ele>427</ele>
        <time>2021-04-03T12:25:50.588Z</time>
      </trkpt>
      <trkpt lat="45.59662" lon="5.38709">
        <ele>427</ele>
        <time>2021-04-03T12:25:51.587Z</time>
      </trkpt>
      <trkpt lat="45.5966" lon="5.38715">
        <ele>428</ele>
        <time>2021-04-03T12:25:52.588Z</time>
      </trkpt>
      <trkpt lat="45.59658" lon="5.38722">
        <ele>427</ele>
        <time>2021-04-03T12:25:53.588Z</time>
      </trkpt>
      <trkpt lat="45.59656" lon="5.38728">
        <ele>428</ele>
        <time>2021-04-03T12:25:54.588Z</time>
      </trkpt>
      <trkpt lat="45.59655" lon="5.38735">
        <ele>428</ele>
        <time>2021-04-03T12:25:55.588Z</time>
      </trkpt>
      <trkpt lat="45.59653" lon="5.38742">
        <ele>428</ele>
        <time>2021-04-03T12:25:56.587Z</time>
      </trkpt>
      <trkpt lat="45.5965" lon="5.3875">
        <ele>429</ele>
        <time>2021-04-03T12:25:57.588Z</time>
      </trkpt>
      <trkpt lat="45.59648" lon="5.38758">
        <ele>428</ele>
        <time>2021-04-03T12:25:58.588Z</time>
      </trkpt>
      <trkpt lat="45.59646" lon="5.38765">
        <ele>428</ele>
        <time>2021-04-03T12:25:59.588Z</time>
      </trkpt>
      <trkpt lat="45.59643" lon="5.38777">
        <ele>428</ele>
        <time>2021-04-03T12:26:00.588Z</time>
      </trkpt>
      <trkpt lat="45.59641" lon="5.38788">
        <ele>428</ele>
        <time>2021-04-03T12:26:01.588Z</time>
      </trkpt>
      <trkpt lat="45.59641" lon="5.38799">
        <ele>427</ele>
        <time>2021-04-03T12:26:02.587Z</time>
      </trkpt>
      <trkpt lat="45.59641" lon="5.38811">
        <ele>427</ele>
        <time>2021-04-03T12:26:03.587Z</time>
      </trkpt>
      <trkpt lat="45.59644" lon="5.38822">
        <ele>427</ele>
        <time>2021-04-03T12:26:04.588Z</time>
      </trkpt>
      <trkpt lat="45.59648" lon="5.38832">
        <ele>426</ele>
        <time>2021-04-03T12:26:05.587Z</time>
      </trkpt>
      <trkpt lat="45.59654" lon="5.3884">
        <ele>426</ele>
        <time>2021-04-03T12:26:06.588Z</time>
      </trkpt>
      <trkpt lat="45.5966" lon="5.38846">
        <ele>427</ele>
        <time>2021-04-03T12:26:07.588Z</time>
      </trkpt>
      <trkpt lat="45.59666" lon="5.38849">
        <ele>427</ele>
        <time>2021-04-03T12:26:08.588Z</time>
      </trkpt>
      <trkpt lat="45.59674" lon="5.38853">
        <ele>428</ele>
        <time>2021-04-03T12:26:09.588Z</time>
      </trkpt>
      <trkpt lat="45.5968" lon="5.38856">
        <ele>429</ele>
        <time>2021-04-03T12:26:10.587Z</time>
      </trkpt>
      <trkpt lat="45.59687" lon="5.38859">
        <ele>430</ele>
        <time>2021-04-03T12:26:11.588Z</time>
      </trkpt>
      <trkpt lat="45.59693" lon="5.38863">
        <ele>430</ele>
        <time>2021-04-03T12:26:12.588Z</time>
      </trkpt>
      <trkpt lat="45.59698" lon="5.38869">
        <ele>431</ele>
        <time>2021-04-03T12:26:13.588Z</time>
      </trkpt>
      <trkpt lat="45.59703" lon="5.38875">
        <ele>430</ele>
        <time>2021-04-03T12:26:14.588Z</time>
      </trkpt>
      <trkpt lat="45.59705" lon="5.38883">
        <ele>430</ele>
        <time>2021-04-03T12:26:15.587Z</time>
      </trkpt>
      <trkpt lat="45.59707" lon="5.38891">
        <ele>429</ele>
        <time>2021-04-03T12:26:16.588Z</time>
      </trkpt>
      <trkpt lat="45.59708" lon="5.38899">
        <ele>428</ele>
        <time>2021-04-03T12:26:17.588Z</time>
      </trkpt>
      <trkpt lat="45.59709" lon="5.38907">
        <ele>428</ele>
        <time>2021-04-03T12:26:18.588Z</time>
      </trkpt>
      <trkpt lat="45.59709" lon="5.38915">
        <ele>427</ele>
        <time>2021-04-03T12:26:19.588Z</time>
      </trkpt>
      <trkpt lat="45.59708" lon="5.38923">
        <ele>427</ele>
        <time>2021-04-03T12:26:20.588Z</time>
      </trkpt>
      <trkpt lat="45.59707" lon="5.38931">
        <ele>428</ele>
        <time>2021-04-03T12:26:21.587Z</time>
      </trkpt>
      <trkpt lat="45.59706" lon="5.38939">
        <ele>428</ele>
        <time>2021-04-03T12:26:22.588Z</time>
      </trkpt>
      <trkpt lat="45.59705" lon="5.38946">
        <ele>428</ele>
        <time>2021-04-03T12:26:23.588Z</time>
      </trkpt>
      <trkpt lat="45.59704" lon="5.38953">
        <ele>428</ele>
        <time>2021-04-03T12:26:24.588Z</time>
      </trkpt>
      <trkpt lat="45.59702" lon="5.3896">
        <ele>429</ele>
        <time>2021-04-03T12:26:25.588Z</time>
      </trkpt>
      <trkpt lat="45.59701" lon="5.38967">
        <ele>429</ele>
        <time>2021-04-03T12:26:26.588Z</time>
      </trkpt>
      <trkpt lat="45.59699" lon="5.38974">
        <ele>429</ele>
        <time>2021-04-03T12:26:27.587Z</time>
      </trkpt>
      <trkpt lat="45.59697" lon="5.38981">
        <ele>429</ele>
        <time>2021-04-03T12:26:28.588Z</time>
      </trkpt>
      <trkpt lat="45.59696" lon="5.38988">
        <ele>429</ele>
        <time>2021-04-03T12:26:29.587Z</time>
      </trkpt>
      <trkpt lat="45.59695" lon="5.38995">
        <ele>429</ele>
        <time>2021-04-03T12:26:30.587Z</time>
      </trkpt>
      <trkpt lat="45.59693" lon="5.39001">
        <ele>430</ele>
        <time>2021-04-03T12:26:31.588Z</time>
      </trkpt>
      <trkpt lat="45.59691" lon="5.39007">
        <ele>430</ele>
        <time>2021-04-03T12:26:32.588Z</time>
      </trkpt>
      <trkpt lat="45.59689" lon="5.39013">
        <ele>430</ele>
        <time>2021-04-03T12:26:33.588Z</time>
      </trkpt>
      <trkpt lat="45.59687" lon="5.39019">
        <ele>431</ele>
        <time>2021-04-03T12:26:34.587Z</time>
      </trkpt>
      <trkpt lat="45.59685" lon="5.39024">
        <ele>431</ele>
        <time>2021-04-03T12:26:35.588Z</time>
      </trkpt>
      <trkpt lat="45.59683" lon="5.3903">
        <ele>431</ele>
        <time>2021-04-03T12:26:36.587Z</time>
      </trkpt>
      <trkpt lat="45.59681" lon="5.39035">
        <ele>431</ele>
        <time>2021-04-03T12:26:37.588Z</time>
      </trkpt>
      <trkpt lat="45.59679" lon="5.39041">
        <ele>432</ele>
        <time>2021-04-03T12:26:38.587Z</time>
      </trkpt>
      <trkpt lat="45.59677" lon="5.39046">
        <ele>432</ele>
        <time>2021-04-03T12:26:39.588Z</time>
      </trkpt>
      <trkpt lat="45.59675" lon="5.39051">
        <ele>432</ele>
        <time>2021-04-03T12:26:40.588Z</time>
      </trkpt>
      <trkpt lat="45.59673" lon="5.39057">
        <ele>431</ele>
        <time>2021-04-03T12:26:41.588Z</time>
      </trkpt>
      <trkpt lat="45.59671" lon="5.39062">
        <ele>432</ele>
        <time>2021-04-03T12:26:42.588Z</time>
      </trkpt>
      <trkpt lat="45.5967" lon="5.39067">
        <ele>432</ele>
        <time>2021-04-03T12:26:43.587Z</time>
      </trkpt>
      <trkpt lat="45.59668" lon="5.39072">
        <ele>432</ele>
        <time>2021-04-03T12:26:44.588Z</time>
      </trkpt>
      <trkpt lat="45.59667" lon="5.39077">
        <ele>432</ele>
        <time>2021-04-03T12:26:45.588Z</time>
      </trkpt>
      <trkpt lat="45.59666" lon="5.39081">
        <ele>432</ele>
        <time>2021-04-03T12:26:46.588Z</time>
      </trkpt>
      <trkpt lat="45.59665" lon="5.39086">
        <ele>433</ele>
        <time>2021-04-03T12:26:47.588Z</time>
      </trkpt>
      <trkpt lat="45.59663" lon="5.39091">
        <ele>433</ele>
        <time>2021-04-03T12:26:48.588Z</time>
      </trkpt>
      <trkpt lat="45.59661" lon="5.39096">
        <ele>433</ele>
        <time>2021-04-03T12:26:49.588Z</time>
      </trkpt>
      <trkpt lat="45.5966" lon="5.39102">
        <ele>433</ele>
        <time>2021-04-03T12:26:50.587Z</time>
      </trkpt>
      <trkpt lat="45.59658" lon="5.39107">
        <ele>433</ele>
        <time>2021-04-03T12:26:51.588Z</time>
      </trkpt>
      <trkpt lat="45.59657" lon="5.39112">
        <ele>434</ele>
        <time>2021-04-03T12:26:52.587Z</time>
      </trkpt>
      <trkpt lat="45.59655" lon="5.39117">
        <ele>434</ele>
        <time>2021-04-03T12:26:53.588Z</time>
      </trkpt>
      <trkpt lat="45.59653" lon="5.39122">
        <ele>434</ele>
        <time>2021-04-03T12:26:54.588Z</time>
      </trkpt>
      <trkpt lat="45.59652" lon="5.39128">
        <ele>434</ele>
        <time>2021-04-03T12:26:55.588Z</time>
      </trkpt>
      <trkpt lat="45.5965" lon="5.39133">
        <ele>434</ele>
        <time>2021-04-03T12:26:56.588Z</time>
      </trkpt>
      <trkpt lat="45.59648" lon="5.39138">
        <ele>434</ele>
        <time>2021-04-03T12:26:57.588Z</time>
      </trkpt>
      <trkpt lat="45.59647" lon="5.39143">
        <ele>434</ele>
        <time>2021-04-03T12:26:58.588Z</time>
      </trkpt>
      <trkpt lat="45.59646" lon="5.39148">
        <ele>435</ele>
        <time>2021-04-03T12:26:59.588Z</time>
      </trkpt>
      <trkpt lat="45.59644" lon="5.39152">
        <ele>435</ele>
        <time>2021-04-03T12:27:00.588Z</time>
      </trkpt>
      <trkpt lat="45.59643" lon="5.39156">
        <ele>435</ele>
        <time>2021-04-03T12:27:01.588Z</time>
      </trkpt>
      <trkpt lat="45.59642" lon="5.3916">
        <ele>435</ele>
        <time>2021-04-03T12:27:02.587Z</time>
      </trkpt>
      <trkpt lat="45.5964" lon="5.39164">
        <ele>435</ele>
        <time>2021-04-03T12:27:03.588Z</time>
      </trkpt>
      <trkpt lat="45.59638" lon="5.39168">
        <ele>435</ele>
        <time>2021-04-03T12:27:04.588Z</time>
      </trkpt>
      <trkpt lat="45.59636" lon="5.39172">
        <ele>435</ele>
        <time>2021-04-03T12:27:05.587Z</time>
      </trkpt>
      <trkpt lat="45.59634" lon="5.39176">
        <ele>434</ele>
        <time>2021-04-03T12:27:06.588Z</time>
      </trkpt>
      <trkpt lat="45.59632" lon="5.39182">
        <ele>435</ele>
        <time>2021-04-03T12:27:07.587Z</time>
      </trkpt>
      <trkpt lat="45.59631" lon="5.39186">
        <ele>435</ele>
        <time>2021-04-03T12:27:08.588Z</time>
      </trkpt>
      <trkpt lat="45.59628" lon="5.39191">
        <ele>436</ele>
        <time>2021-04-03T12:27:09.588Z</time>
      </trkpt>
      <trkpt lat="45.59625" lon="5.39196">
        <ele>436</ele>
        <time>2021-04-03T12:27:10.588Z</time>
      </trkpt>
      <trkpt lat="45.59622" lon="5.39201">
        <ele>437</ele>
        <time>2021-04-03T12:27:11.588Z</time>
      </trkpt>
      <trkpt lat="45.59619" lon="5.39206">
        <ele>437</ele>
        <time>2021-04-03T12:27:12.587Z</time>
      </trkpt>
      <trkpt lat="45.59616" lon="5.39211">
        <ele>437</ele>
        <time>2021-04-03T12:27:13.588Z</time>
      </trkpt>
      <trkpt lat="45.59614" lon="5.39215">
        <ele>438</ele>
        <time>2021-04-03T12:27:14.588Z</time>
      </trkpt>
      <trkpt lat="45.59611" lon="5.3922">
        <ele>438</ele>
        <time>2021-04-03T12:27:15.588Z</time>
      </trkpt>
      <trkpt lat="45.59608" lon="5.39226">
        <ele>437</ele>
        <time>2021-04-03T12:27:16.587Z</time>
      </trkpt>
      <trkpt lat="45.59606" lon="5.3923">
        <ele>437</ele>
        <time>2021-04-03T12:27:17.588Z</time>
      </trkpt>
      <trkpt lat="45.59603" lon="5.39236">
        <ele>437</ele>
        <time>2021-04-03T12:27:18.588Z</time>
      </trkpt>
      <trkpt lat="45.59602" lon="5.3924">
        <ele>437</ele>
        <time>2021-04-03T12:27:19.587Z</time>
      </trkpt>
      <trkpt lat="45.59599" lon="5.39245">
        <ele>437</ele>
        <time>2021-04-03T12:27:20.588Z</time>
      </trkpt>
      <trkpt lat="45.59597" lon="5.3925">
        <ele>437</ele>
        <time>2021-04-03T12:27:21.588Z</time>
      </trkpt>
      <trkpt lat="45.59595" lon="5.39256">
        <ele>438</ele>
        <time>2021-04-03T12:27:22.588Z</time>
      </trkpt>
      <trkpt lat="45.59593" lon="5.39261">
        <ele>438</ele>
        <time>2021-04-03T12:27:23.588Z</time>
      </trkpt>
      <trkpt lat="45.59591" lon="5.39267">
        <ele>438</ele>
        <time>2021-04-03T12:27:24.588Z</time>
      </trkpt>
      <trkpt lat="45.59589" lon="5.39273">
        <ele>438</ele>
        <time>2021-04-03T12:27:25.587Z</time>
      </trkpt>
      <trkpt lat="45.59587" lon="5.39278">
        <ele>439</ele>
        <time>2021-04-03T12:27:26.587Z</time>
      </trkpt>
      <trkpt lat="45.59585" lon="5.39284">
        <ele>439</ele>
        <time>2021-04-03T12:27:27.588Z</time>
      </trkpt>
      <trkpt lat="45.59584" lon="5.3929">
        <ele>439</ele>
        <time>2021-04-03T12:27:28.587Z</time>
      </trkpt>
      <trkpt lat="45.59582" lon="5.39296">
        <ele>440</ele>
        <time>2021-04-03T12:27:29.588Z</time>
      </trkpt>
      <trkpt lat="45.59581" lon="5.39301">
        <ele>441</ele>
        <time>2021-04-03T12:27:30.588Z</time>
      </trkpt>
      <trkpt lat="45.59579" lon="5.39307">
        <ele>441</ele>
        <time>2021-04-03T12:27:31.588Z</time>
      </trkpt>
      <trkpt lat="45.59578" lon="5.39312">
        <ele>441</ele>
        <time>2021-04-03T12:27:32.587Z</time>
      </trkpt>
      <trkpt lat="45.59577" lon="5.39318">
        <ele>441</ele>
        <time>2021-04-03T12:27:33.588Z</time>
      </trkpt>
      <trkpt lat="45.59575" lon="5.39323">
        <ele>441</ele>
        <time>2021-04-03T12:27:34.588Z</time>
      </trkpt>
      <trkpt lat="45.59573" lon="5.39329">
        <ele>441</ele>
        <time>2021-04-03T12:27:35.588Z</time>
      </trkpt>
      <trkpt lat="45.59572" lon="5.39335">
        <ele>441</ele>
        <time>2021-04-03T12:27:36.587Z</time>
      </trkpt>
      <trkpt lat="45.5957" lon="5.39341">
        <ele>442</ele>
        <time>2021-04-03T12:27:37.588Z</time>
      </trkpt>
      <trkpt lat="45.59568" lon="5.39347">
        <ele>442</ele>
        <time>2021-04-03T12:27:38.588Z</time>
      </trkpt>
      <trkpt lat="45.59566" lon="5.39352">
        <ele>442</ele>
        <time>2021-04-03T12:27:39.588Z</time>
      </trkpt>
      <trkpt lat="45.59563" lon="5.39358">
        <ele>442</ele>
        <time>2021-04-03T12:27:40.588Z</time>
      </trkpt>
      <trkpt lat="45.59561" lon="5.39364">
        <ele>442</ele>
        <time>2021-04-03T12:27:41.588Z</time>
      </trkpt>
      <trkpt lat="45.59559" lon="5.39369">
        <ele>442</ele>
        <time>2021-04-03T12:27:42.588Z</time>
      </trkpt>
      <trkpt lat="45.59557" lon="5.39375">
        <ele>442</ele>
        <time>2021-04-03T12:27:43.588Z</time>
      </trkpt>
      <trkpt lat="45.59555" lon="5.39381">
        <ele>442</ele>
        <time>2021-04-03T12:27:44.587Z</time>
      </trkpt>
      <trkpt lat="45.59553" lon="5.39386">
        <ele>442</ele>
        <time>2021-04-03T12:27:45.588Z</time>
      </trkpt>
      <trkpt lat="45.59551" lon="5.39392">
        <ele>443</ele>
        <time>2021-04-03T12:27:46.588Z</time>
      </trkpt>
      <trkpt lat="45.59548" lon="5.39398">
        <ele>443</ele>
        <time>2021-04-03T12:27:47.587Z</time>
      </trkpt>
      <trkpt lat="45.59546" lon="5.39404">
        <ele>443</ele>
        <time>2021-04-03T12:27:48.588Z</time>
      </trkpt>
      <trkpt lat="45.59543" lon="5.3941">
        <ele>443</ele>
        <time>2021-04-03T12:27:49.588Z</time>
      </trkpt>
      <trkpt lat="45.59541" lon="5.39415">
        <ele>443</ele>
        <time>2021-04-03T12:27:50.588Z</time>
      </trkpt>
      <trkpt lat="45.59539" lon="5.3942">
        <ele>444</ele>
        <time>2021-04-03T12:27:51.588Z</time>
      </trkpt>
      <trkpt lat="45.59536" lon="5.39425">
        <ele>444</ele>
        <time>2021-04-03T12:27:52.587Z</time>
      </trkpt>
      <trkpt lat="45.59534" lon="5.39431">
        <ele>444</ele>
        <time>2021-04-03T12:27:53.588Z</time>
      </trkpt>
      <trkpt lat="45.59531" lon="5.39436">
        <ele>445</ele>
        <time>2021-04-03T12:27:54.587Z</time>
      </trkpt>
      <trkpt lat="45.59529" lon="5.3944">
        <ele>445</ele>
        <time>2021-04-03T12:27:55.588Z</time>
      </trkpt>
      <trkpt lat="45.59527" lon="5.39445">
        <ele>446</ele>
        <time>2021-04-03T12:27:56.588Z</time>
      </trkpt>
      <trkpt lat="45.59523" lon="5.39451">
        <ele>446</ele>
        <time>2021-04-03T12:27:57.588Z</time>
      </trkpt>
      <trkpt lat="45.59521" lon="5.39456">
        <ele>446</ele>
        <time>2021-04-03T12:27:58.587Z</time>
      </trkpt>
      <trkpt lat="45.59519" lon="5.3946">
        <ele>446</ele>
        <time>2021-04-03T12:27:59.587Z</time>
      </trkpt>
      <trkpt lat="45.59516" lon="5.39465">
        <ele>446</ele>
        <time>2021-04-03T12:28:00.588Z</time>
      </trkpt>
      <trkpt lat="45.59513" lon="5.39471">
        <ele>447</ele>
        <time>2021-04-03T12:28:01.587Z</time>
      </trkpt>
      <trkpt lat="45.59511" lon="5.39475">
        <ele>447</ele>
        <time>2021-04-03T12:28:02.588Z</time>
      </trkpt>
      <trkpt lat="45.59509" lon="5.39479">
        <ele>447</ele>
        <time>2021-04-03T12:28:03.588Z</time>
      </trkpt>
      <trkpt lat="45.59507" lon="5.39483">
        <ele>447</ele>
        <time>2021-04-03T12:28:04.587Z</time>
      </trkpt>
      <trkpt lat="45.59504" lon="5.39488">
        <ele>447</ele>
        <time>2021-04-03T12:28:05.587Z</time>
      </trkpt>
      <trkpt lat="45.59502" lon="5.39492">
        <ele>448</ele>
        <time>2021-04-03T12:28:06.588Z</time>
      </trkpt>
      <trkpt lat="45.595" lon="5.39497">
        <ele>448</ele>
        <time>2021-04-03T12:28:07.588Z</time>
      </trkpt>
      <trkpt lat="45.59498" lon="5.395">
        <ele>448</ele>
        <time>2021-04-03T12:28:08.588Z</time>
      </trkpt>
      <trkpt lat="45.59496" lon="5.39505">
        <ele>448</ele>
        <time>2021-04-03T12:28:09.588Z</time>
      </trkpt>
      <trkpt lat="45.59493" lon="5.3951">
        <ele>448</ele>
        <time>2021-04-03T12:28:10.588Z</time>
      </trkpt>
      <trkpt lat="45.5949" lon="5.39515">
        <ele>447</ele>
        <time>2021-04-03T12:28:11.588Z</time>
      </trkpt>
      <trkpt lat="45.59488" lon="5.39519">
        <ele>447</ele>
        <time>2021-04-03T12:28:12.587Z</time>
      </trkpt>
      <trkpt lat="45.59486" lon="5.39524">
        <ele>447</ele>
        <time>2021-04-03T12:28:13.587Z</time>
      </trkpt>
      <trkpt lat="45.59483" lon="5.39529">
        <ele>447</ele>
        <time>2021-04-03T12:28:14.588Z</time>
      </trkpt>
      <trkpt lat="45.59481" lon="5.39534">
        <ele>447</ele>
        <time>2021-04-03T12:28:15.588Z</time>
      </trkpt>
      <trkpt lat="45.59479" lon="5.39538">
        <ele>447</ele>
        <time>2021-04-03T12:28:16.588Z</time>
      </trkpt>
      <trkpt lat="45.59476" lon="5.39543">
        <ele>447</ele>
        <time>2021-04-03T12:28:17.587Z</time>
      </trkpt>
      <trkpt lat="45.59474" lon="5.39548">
        <ele>447</ele>
        <time>2021-04-03T12:28:18.588Z</time>
      </trkpt>
      <trkpt lat="45.59471" lon="5.39553">
        <ele>447</ele>
        <time>2021-04-03T12:28:19.588Z</time>
      </trkpt>
      <trkpt lat="45.59468" lon="5.39558">
        <ele>447</ele>
        <time>2021-04-03T12:28:20.588Z</time>
      </trkpt>
      <trkpt lat="45.59466" lon="5.39562">
        <ele>447</ele>
        <time>2021-04-03T12:28:21.588Z</time>
      </trkpt>
      <trkpt lat="45.59464" lon="5.39567">
        <ele>447</ele>
        <time>2021-04-03T12:28:22.588Z</time>
      </trkpt>
      <trkpt lat="45.59461" lon="5.39573">
        <ele>448</ele>
        <time>2021-04-03T12:28:23.587Z</time>
      </trkpt>
      <trkpt lat="45.59458" lon="5.39577">
        <ele>448</ele>
        <time>2021-04-03T12:28:24.588Z</time>
      </trkpt>
      <trkpt lat="45.59456" lon="5.39581">
        <ele>448</ele>
        <time>2021-04-03T12:28:25.588Z</time>
      </trkpt>
      <trkpt lat="45.59454" lon="5.39586">
        <ele>448</ele>
        <time>2021-04-03T12:28:26.588Z</time>
      </trkpt>
      <trkpt lat="45.59451" lon="5.39592">
        <ele>448</ele>
        <time>2021-04-03T12:28:27.588Z</time>
      </trkpt>
      <trkpt lat="45.59449" lon="5.39596">
        <ele>448</ele>
        <time>2021-04-03T12:28:28.588Z</time>
      </trkpt>
      <trkpt lat="45.59446" lon="5.39601">
        <ele>448</ele>
        <time>2021-04-03T12:28:29.587Z</time>
      </trkpt>
      <trkpt lat="45.59444" lon="5.39605">
        <ele>448</ele>
        <time>2021-04-03T12:28:30.588Z</time>
      </trkpt>
      <trkpt lat="45.59442" lon="5.3961">
        <ele>448</ele>
        <time>2021-04-03T12:28:31.588Z</time>
      </trkpt>
      <trkpt lat="45.59439" lon="5.39616">
        <ele>448</ele>
        <time>2021-04-03T12:28:32.588Z</time>
      </trkpt>
      <trkpt lat="45.59437" lon="5.3962">
        <ele>448</ele>
        <time>2021-04-03T12:28:33.588Z</time>
      </trkpt>
      <trkpt lat="45.59435" lon="5.39624">
        <ele>448</ele>
        <time>2021-04-03T12:28:34.587Z</time>
      </trkpt>
      <trkpt lat="45.59433" lon="5.3963">
        <ele>448</ele>
        <time>2021-04-03T12:28:35.587Z</time>
      </trkpt>
      <trkpt lat="45.5943" lon="5.39636">
        <ele>448</ele>
        <time>2021-04-03T12:28:36.588Z</time>
      </trkpt>
      <trkpt lat="45.59428" lon="5.3964">
        <ele>448</ele>
        <time>2021-04-03T12:28:37.588Z</time>
      </trkpt>
      <trkpt lat="45.59426" lon="5.39645">
        <ele>448</ele>
        <time>2021-04-03T12:28:38.587Z</time>
      </trkpt>
      <trkpt lat="45.59423" lon="5.3965">
        <ele>449</ele>
        <time>2021-04-03T12:28:39.587Z</time>
      </trkpt>
      <trkpt lat="45.59421" lon="5.39655">
        <ele>449</ele>
        <time>2021-04-03T12:28:40.588Z</time>
      </trkpt>
      <trkpt lat="45.59419" lon="5.3966">
        <ele>449</ele>
        <time>2021-04-03T12:28:41.588Z</time>
      </trkpt>
      <trkpt lat="45.59417" lon="5.39665">
        <ele>448</ele>
        <time>2021-04-03T12:28:42.587Z</time>
      </trkpt>
      <trkpt lat="45.59415" lon="5.3967">
        <ele>448</ele>
        <time>2021-04-03T12:28:43.588Z</time>
      </trkpt>
      <trkpt lat="45.59413" lon="5.39675">
        <ele>448</ele>
        <time>2021-04-03T12:28:44.587Z</time>
      </trkpt>
      <trkpt lat="45.5941" lon="5.39682">
        <ele>448</ele>
        <time>2021-04-03T12:28:45.588Z</time>
      </trkpt>
      <trkpt lat="45.59407" lon="5.39687">
        <ele>449</ele>
        <time>2021-04-03T12:28:46.588Z</time>
      </trkpt>
      <trkpt lat="45.59405" lon="5.39692">
        <ele>449</ele>
        <time>2021-04-03T12:28:47.587Z</time>
      </trkpt>
      <trkpt lat="45.59403" lon="5.39696">
        <ele>449</ele>
        <time>2021-04-03T12:28:48.587Z</time>
      </trkpt>
      <trkpt lat="45.59401" lon="5.397">
        <ele>449</ele>
        <time>2021-04-03T12:28:49.588Z</time>
      </trkpt>
      <trkpt lat="45.59399" lon="5.39706">
        <ele>449</ele>
        <time>2021-04-03T12:28:50.587Z</time>
      </trkpt>
      <trkpt lat="45.59397" lon="5.39711">
        <ele>449</ele>
        <time>2021-04-03T12:28:51.587Z</time>
      </trkpt>
      <trkpt lat="45.59396" lon="5.39714">
        <ele>450</ele>
        <time>2021-04-03T12:28:52.588Z</time>
      </trkpt>
      <trkpt lat="45.59394" lon="5.39719">
        <ele>449</ele>
        <time>2021-04-03T12:28:53.588Z</time>
      </trkpt>
      <trkpt lat="45.59393" lon="5.39723">
        <ele>449</ele>
        <time>2021-04-03T12:28:54.587Z</time>
      </trkpt>
      <trkpt lat="45.59391" lon="5.39727">
        <ele>450</ele>
        <time>2021-04-03T12:28:55.587Z</time>
      </trkpt>
      <trkpt lat="45.59389" lon="5.3973">
        <ele>450</ele>
        <time>2021-04-03T12:28:56.588Z</time>
      </trkpt>
      <trkpt lat="45.59387" lon="5.39734">
        <ele>450</ele>
        <time>2021-04-03T12:28:57.588Z</time>
      </trkpt>
      <trkpt lat="45.59386" lon="5.39737">
        <ele>451</ele>
        <time>2021-04-03T12:28:58.588Z</time>
      </trkpt>
      <trkpt lat="45.59386" lon="5.39739">
        <ele>450</ele>
        <time>2021-04-03T12:28:59.588Z</time>
      </trkpt>
      <trkpt lat="45.59386" lon="5.3974">
        <ele>450</ele>
        <time>2021-04-03T12:29:00.588Z</time>
      </trkpt>
      <trkpt lat="45.59387" lon="5.39739">
        <ele>451</ele>
        <time>2021-04-03T12:29:01.588Z</time>
      </trkpt>
      <trkpt lat="45.59387" lon="5.39738">
        <ele>451</ele>
        <time>2021-04-03T12:29:02.588Z</time>
      </trkpt>
      <trkpt lat="45.59388" lon="5.39735">
        <ele>451</ele>
        <time>2021-04-03T12:29:03.587Z</time>
      </trkpt>
      <trkpt lat="45.5939" lon="5.39732">
        <ele>451</ele>
        <time>2021-04-03T12:29:04.588Z</time>
      </trkpt>
      <trkpt lat="45.59392" lon="5.39727">
        <ele>451</ele>
        <time>2021-04-03T12:29:05.587Z</time>
      </trkpt>
      <trkpt lat="45.59393" lon="5.39723">
        <ele>451</ele>
        <time>2021-04-03T12:29:06.588Z</time>
      </trkpt>
      <trkpt lat="45.59396" lon="5.39718">
        <ele>451</ele>
        <time>2021-04-03T12:29:07.587Z</time>
      </trkpt>
      <trkpt lat="45.59399" lon="5.39712">
        <ele>451</ele>
        <time>2021-04-03T12:29:08.588Z</time>
      </trkpt>
      <trkpt lat="45.59401" lon="5.39707">
        <ele>451</ele>
        <time>2021-04-03T12:29:09.588Z</time>
      </trkpt>
      <trkpt lat="45.59403" lon="5.39702">
        <ele>451</ele>
        <time>2021-04-03T12:29:10.588Z</time>
      </trkpt>
      <trkpt lat="45.59405" lon="5.39698">
        <ele>451</ele>
        <time>2021-04-03T12:29:11.587Z</time>
      </trkpt>
      <trkpt lat="45.59407" lon="5.39692">
        <ele>451</ele>
        <time>2021-04-03T12:29:12.588Z</time>
      </trkpt>
      <trkpt lat="45.59409" lon="5.39688">
        <ele>451</ele>
        <time>2021-04-03T12:29:13.587Z</time>
      </trkpt>
      <trkpt lat="45.59411" lon="5.39683">
        <ele>451</ele>
        <time>2021-04-03T12:29:14.588Z</time>
      </trkpt>
      <trkpt lat="45.59412" lon="5.3968">
        <ele>450</ele>
        <time>2021-04-03T12:29:15.588Z</time>
      </trkpt>
      <trkpt lat="45.59415" lon="5.39674">
        <ele>450</ele>
        <time>2021-04-03T12:29:16.588Z</time>
      </trkpt>
      <trkpt lat="45.59417" lon="5.39669">
        <ele>450</ele>
        <time>2021-04-03T12:29:17.588Z</time>
      </trkpt>
      <trkpt lat="45.5942" lon="5.39665">
        <ele>449</ele>
        <time>2021-04-03T12:29:18.588Z</time>
      </trkpt>
      <trkpt lat="45.59422" lon="5.39661">
        <ele>449</ele>
        <time>2021-04-03T12:29:19.587Z</time>
      </trkpt>
      <trkpt lat="45.59424" lon="5.39655">
        <ele>449</ele>
        <time>2021-04-03T12:29:20.588Z</time>
      </trkpt>
      <trkpt lat="45.59426" lon="5.3965">
        <ele>450</ele>
        <time>2021-04-03T12:29:21.588Z</time>
      </trkpt>
      <trkpt lat="45.59429" lon="5.39645">
        <ele>450</ele>
        <time>2021-04-03T12:29:22.587Z</time>
      </trkpt>
      <trkpt lat="45.59431" lon="5.3964">
        <ele>449</ele>
        <time>2021-04-03T12:29:23.588Z</time>
      </trkpt>
      <trkpt lat="45.59433" lon="5.39636">
        <ele>449</ele>
        <time>2021-04-03T12:29:24.587Z</time>
      </trkpt>
      <trkpt lat="45.59435" lon="5.3963">
        <ele>449</ele>
        <time>2021-04-03T12:29:25.588Z</time>
      </trkpt>
      <trkpt lat="45.59438" lon="5.39625">
        <ele>450</ele>
        <time>2021-04-03T12:29:26.588Z</time>
      </trkpt>
      <trkpt lat="45.5944" lon="5.3962">
        <ele>450</ele>
        <time>2021-04-03T12:29:27.587Z</time>
      </trkpt>
      <trkpt lat="45.59442" lon="5.39616">
        <ele>450</ele>
        <time>2021-04-03T12:29:28.587Z</time>
      </trkpt>
      <trkpt lat="45.59444" lon="5.39611">
        <ele>451</ele>
        <time>2021-04-03T12:29:29.587Z</time>
      </trkpt>
      <trkpt lat="45.59444" lon="5.39608">
        <ele>451</ele>
        <time>2021-04-03T12:29:30.588Z</time>
      </trkpt>
      <trkpt lat="45.59444" lon="5.39607">
        <ele>451</ele>
        <time>2021-04-03T12:29:31.588Z</time>
      </trkpt>
      <trkpt lat="45.59443" lon="5.39609">
        <ele>452</ele>
        <time>2021-04-03T12:29:32.588Z</time>
      </trkpt>
      <trkpt lat="45.59442" lon="5.39611">
        <ele>452</ele>
        <time>2021-04-03T12:29:33.588Z</time>
      </trkpt>
      <trkpt lat="45.5944" lon="5.39616">
        <ele>452</ele>
        <time>2021-04-03T12:29:34.587Z</time>
      </trkpt>
      <trkpt lat="45.59437" lon="5.39622">
        <ele>453</ele>
        <time>2021-04-03T12:29:35.588Z</time>
      </trkpt>
      <trkpt lat="45.59433" lon="5.3963">
        <ele>453</ele>
        <time>2021-04-03T12:29:36.587Z</time>
      </trkpt>
      <trkpt lat="45.5943" lon="5.39636">
        <ele>453</ele>
        <time>2021-04-03T12:29:37.587Z</time>
      </trkpt>
      <trkpt lat="45.59427" lon="5.39643">
        <ele>453</ele>
        <time>2021-04-03T12:29:38.588Z</time>
      </trkpt>
      <trkpt lat="45.59424" lon="5.3965">
        <ele>453</ele>
        <time>2021-04-03T12:29:39.588Z</time>
      </trkpt>
      <trkpt lat="45.59421" lon="5.39657">
        <ele>454</ele>
        <time>2021-04-03T12:29:40.587Z</time>
      </trkpt>
      <trkpt lat="45.59418" lon="5.39663">
        <ele>454</ele>
        <time>2021-04-03T12:29:41.587Z</time>
      </trkpt>
      <trkpt lat="45.59416" lon="5.39668">
        <ele>454</ele>
        <time>2021-04-03T12:29:42.587Z</time>
      </trkpt>
      <trkpt lat="45.59413" lon="5.39674">
        <ele>454</ele>
        <time>2021-04-03T12:29:43.587Z</time>
      </trkpt>
      <trkpt lat="45.59409" lon="5.39682">
        <ele>454</ele>
        <time>2021-04-03T12:29:44.587Z</time>
      </trkpt>
      <trkpt lat="45.59407" lon="5.39688">
        <ele>454</ele>
        <time>2021-04-03T12:29:45.588Z</time>
      </trkpt>
      <trkpt lat="45.59405" lon="5.39693">
        <ele>454</ele>
        <time>2021-04-03T12:29:46.588Z</time>
      </trkpt>
      <trkpt lat="45.59402" lon="5.39701">
        <ele>454</ele>
        <time>2021-04-03T12:29:47.587Z</time>
      </trkpt>
      <trkpt lat="45.594" lon="5.39706">
        <ele>454</ele>
        <time>2021-04-03T12:29:48.588Z</time>
      </trkpt>
      <trkpt lat="45.59396" lon="5.39714">
        <ele>454</ele>
        <time>2021-04-03T12:29:49.587Z</time>
      </trkpt>
      <trkpt lat="45.59394" lon="5.39719">
        <ele>454</ele>
        <time>2021-04-03T12:29:50.588Z</time>
      </trkpt>
      <trkpt lat="45.59391" lon="5.39725">
        <ele>454</ele>
        <time>2021-04-03T12:29:51.588Z</time>
      </trkpt>
      <trkpt lat="45.59387" lon="5.39733">
        <ele>454</ele>
        <time>2021-04-03T12:29:52.587Z</time>
      </trkpt>
      <trkpt lat="45.59384" lon="5.39738">
        <ele>454</ele>
        <time>2021-04-03T12:29:53.588Z</time>
      </trkpt>
      <trkpt lat="45.59381" lon="5.39745">
        <ele>454</ele>
        <time>2021-04-03T12:29:54.588Z</time>
      </trkpt>
      <trkpt lat="45.59378" lon="5.39751">
        <ele>454</ele>
        <time>2021-04-03T12:29:55.588Z</time>
      </trkpt>
      <trkpt lat="45.59375" lon="5.39758">
        <ele>454</ele>
        <time>2021-04-03T12:29:56.587Z</time>
      </trkpt>
      <trkpt lat="45.59372" lon="5.39763">
        <ele>454</ele>
        <time>2021-04-03T12:29:57.588Z</time>
      </trkpt>
      <trkpt lat="45.59369" lon="5.39771">
        <ele>454</ele>
        <time>2021-04-03T12:29:58.587Z</time>
      </trkpt>
      <trkpt lat="45.59367" lon="5.39776">
        <ele>454</ele>
        <time>2021-04-03T12:29:59.588Z</time>
      </trkpt>
      <trkpt lat="45.59364" lon="5.39783">
        <ele>454</ele>
        <time>2021-04-03T12:30:00.588Z</time>
      </trkpt>
      <trkpt lat="45.5936" lon="5.39791">
        <ele>454</ele>
        <time>2021-04-03T12:30:01.588Z</time>
      </trkpt>
      <trkpt lat="45.59357" lon="5.39798">
        <ele>454</ele>
        <time>2021-04-03T12:30:02.587Z</time>
      </trkpt>
      <trkpt lat="45.59354" lon="5.39806">
        <ele>454</ele>
        <time>2021-04-03T12:30:03.587Z</time>
      </trkpt>
      <trkpt lat="45.59352" lon="5.39812">
        <ele>454</ele>
        <time>2021-04-03T12:30:04.587Z</time>
      </trkpt>
      <trkpt lat="45.59349" lon="5.39819">
        <ele>454</ele>
        <time>2021-04-03T12:30:05.587Z</time>
      </trkpt>
      <trkpt lat="45.59347" lon="5.39829">
        <ele>454</ele>
        <time>2021-04-03T12:30:06.588Z</time>
      </trkpt>
      <trkpt lat="45.59344" lon="5.39837">
        <ele>454</ele>
        <time>2021-04-03T12:30:07.587Z</time>
      </trkpt>
      <trkpt lat="45.59343" lon="5.39843">
        <ele>454</ele>
        <time>2021-04-03T12:30:08.587Z</time>
      </trkpt>
      <trkpt lat="45.5934" lon="5.39852">
        <ele>454</ele>
        <time>2021-04-03T12:30:09.587Z</time>
      </trkpt>
      <trkpt lat="45.59338" lon="5.39859">
        <ele>454</ele>
        <time>2021-04-03T12:30:10.587Z</time>
      </trkpt>
      <trkpt lat="45.59336" lon="5.39867">
        <ele>454</ele>
        <time>2021-04-03T12:30:11.588Z</time>
      </trkpt>
      <trkpt lat="45.59334" lon="5.39874">
        <ele>454</ele>
        <time>2021-04-03T12:30:12.587Z</time>
      </trkpt>
      <trkpt lat="45.59332" lon="5.39881">
        <ele>454</ele>
        <time>2021-04-03T12:30:13.587Z</time>
      </trkpt>
      <trkpt lat="45.5933" lon="5.3989">
        <ele>454</ele>
        <time>2021-04-03T12:30:14.588Z</time>
      </trkpt>
      <trkpt lat="45.59328" lon="5.39898">
        <ele>454</ele>
        <time>2021-04-03T12:30:15.587Z</time>
      </trkpt>
      <trkpt lat="45.59326" lon="5.39906">
        <ele>454</ele>
        <time>2021-04-03T12:30:16.588Z</time>
      </trkpt>
      <trkpt lat="45.59324" lon="5.39912">
        <ele>454</ele>
        <time>2021-04-03T12:30:17.587Z</time>
      </trkpt>
      <trkpt lat="45.59321" lon="5.39922">
        <ele>454</ele>
        <time>2021-04-03T12:30:18.587Z</time>
      </trkpt>
      <trkpt lat="45.59319" lon="5.39929">
        <ele>454</ele>
        <time>2021-04-03T12:30:19.587Z</time>
      </trkpt>
      <trkpt lat="45.59317" lon="5.39939">
        <ele>455</ele>
        <time>2021-04-03T12:30:20.587Z</time>
      </trkpt>
      <trkpt lat="45.59315" lon="5.39946">
        <ele>455</ele>
        <time>2021-04-03T12:30:21.587Z</time>
      </trkpt>
      <trkpt lat="45.59312" lon="5.39955">
        <ele>455</ele>
        <time>2021-04-03T12:30:22.588Z</time>
      </trkpt>
      <trkpt lat="45.59309" lon="5.39965">
        <ele>455</ele>
        <time>2021-04-03T12:30:23.587Z</time>
      </trkpt>
      <trkpt lat="45.59306" lon="5.39974">
        <ele>455</ele>
        <time>2021-04-03T12:30:24.587Z</time>
      </trkpt>
      <trkpt lat="45.59304" lon="5.39981">
        <ele>455</ele>
        <time>2021-04-03T12:30:25.587Z</time>
      </trkpt>
      <trkpt lat="45.59301" lon="5.3999">
        <ele>455</ele>
        <time>2021-04-03T12:30:26.588Z</time>
      </trkpt>
      <trkpt lat="45.59298" lon="5.4">
        <ele>455</ele>
        <time>2021-04-03T12:30:27.588Z</time>
      </trkpt>
      <trkpt lat="45.59294" lon="5.40009">
        <ele>455</ele>
        <time>2021-04-03T12:30:28.587Z</time>
      </trkpt>
      <trkpt lat="45.59291" lon="5.40017">
        <ele>454</ele>
        <time>2021-04-03T12:30:29.587Z</time>
      </trkpt>
      <trkpt lat="45.59288" lon="5.40024">
        <ele>454</ele>
        <time>2021-04-03T12:30:30.588Z</time>
      </trkpt>
      <trkpt lat="45.59285" lon="5.40033">
        <ele>453</ele>
        <time>2021-04-03T12:30:31.588Z</time>
      </trkpt>
      <trkpt lat="45.59281" lon="5.40045">
        <ele>453</ele>
        <time>2021-04-03T12:30:32.587Z</time>
      </trkpt>
      <trkpt lat="45.59278" lon="5.40054">
        <ele>453</ele>
        <time>2021-04-03T12:30:33.587Z</time>
      </trkpt>
      <trkpt lat="45.59275" lon="5.40065">
        <ele>453</ele>
        <time>2021-04-03T12:30:34.587Z</time>
      </trkpt>
      <trkpt lat="45.59272" lon="5.40073">
        <ele>454</ele>
        <time>2021-04-03T12:30:35.587Z</time>
      </trkpt>
      <trkpt lat="45.59268" lon="5.40086">
        <ele>453</ele>
        <time>2021-04-03T12:30:36.588Z</time>
      </trkpt>
      <trkpt lat="45.59264" lon="5.40096">
        <ele>453</ele>
        <time>2021-04-03T12:30:37.587Z</time>
      </trkpt>
      <trkpt lat="45.59261" lon="5.40107">
        <ele>452</ele>
        <time>2021-04-03T12:30:38.587Z</time>
      </trkpt>
      <trkpt lat="45.59259" lon="5.40116">
        <ele>452</ele>
        <time>2021-04-03T12:30:39.587Z</time>
      </trkpt>
      <trkpt lat="45.59255" lon="5.4013">
        <ele>452</ele>
        <time>2021-04-03T12:30:40.587Z</time>
      </trkpt>
      <trkpt lat="45.59252" lon="5.40138">
        <ele>452</ele>
        <time>2021-04-03T12:30:41.588Z</time>
      </trkpt>
      <trkpt lat="45.59249" lon="5.40152">
        <ele>452</ele>
        <time>2021-04-03T12:30:42.587Z</time>
      </trkpt>
      <trkpt lat="45.59247" lon="5.40161">
        <ele>452</ele>
        <time>2021-04-03T12:30:43.588Z</time>
      </trkpt>
      <trkpt lat="45.59245" lon="5.40173">
        <ele>452</ele>
        <time>2021-04-03T12:30:44.587Z</time>
      </trkpt>
      <trkpt lat="45.59242" lon="5.40186">
        <ele>452</ele>
        <time>2021-04-03T12:30:45.588Z</time>
      </trkpt>
      <trkpt lat="45.5924" lon="5.40198">
        <ele>452</ele>
        <time>2021-04-03T12:30:46.588Z</time>
      </trkpt>
      <trkpt lat="45.59239" lon="5.40207">
        <ele>452</ele>
        <time>2021-04-03T12:30:47.588Z</time>
      </trkpt>
      <trkpt lat="45.59236" lon="5.40218">
        <ele>451</ele>
        <time>2021-04-03T12:30:48.587Z</time>
      </trkpt>
      <trkpt lat="45.59234" lon="5.40232">
        <ele>451</ele>
        <time>2021-04-03T12:30:49.587Z</time>
      </trkpt>
      <trkpt lat="45.59232" lon="5.40241">
        <ele>450</ele>
        <time>2021-04-03T12:30:50.587Z</time>
      </trkpt>
      <trkpt lat="45.59231" lon="5.40255">
        <ele>450</ele>
        <time>2021-04-03T12:30:51.588Z</time>
      </trkpt>
      <trkpt lat="45.59229" lon="5.40264">
        <ele>450</ele>
        <time>2021-04-03T12:30:52.587Z</time>
      </trkpt>
      <trkpt lat="45.59228" lon="5.40276">
        <ele>450</ele>
        <time>2021-04-03T12:30:53.587Z</time>
      </trkpt>
      <trkpt lat="45.59227" lon="5.40287">
        <ele>449</ele>
        <time>2021-04-03T12:30:54.587Z</time>
      </trkpt>
      <trkpt lat="45.59225" lon="5.403">
        <ele>449</ele>
        <time>2021-04-03T12:30:55.588Z</time>
      </trkpt>
      <trkpt lat="45.59224" lon="5.40312">
        <ele>448</ele>
        <time>2021-04-03T12:30:56.587Z</time>
      </trkpt>
      <trkpt lat="45.59222" lon="5.4032">
        <ele>448</ele>
        <time>2021-04-03T12:30:57.587Z</time>
      </trkpt>
      <trkpt lat="45.5922" lon="5.40333">
        <ele>448</ele>
        <time>2021-04-03T12:30:58.587Z</time>
      </trkpt>
      <trkpt lat="45.59217" lon="5.40343">
        <ele>448</ele>
        <time>2021-04-03T12:30:59.587Z</time>
      </trkpt>
      <trkpt lat="45.59213" lon="5.40351">
        <ele>448</ele>
        <time>2021-04-03T12:31:00.588Z</time>
      </trkpt>
      <trkpt lat="45.5921" lon="5.40358">
        <ele>448</ele>
        <time>2021-04-03T12:31:01.587Z</time>
      </trkpt>
      <trkpt lat="45.59204" lon="5.40366">
        <ele>448</ele>
        <time>2021-04-03T12:31:02.587Z</time>
      </trkpt>
      <trkpt lat="45.59199" lon="5.40373">
        <ele>448</ele>
        <time>2021-04-03T12:31:03.587Z</time>
      </trkpt>
      <trkpt lat="45.59193" lon="5.40379">
        <ele>448</ele>
        <time>2021-04-03T12:31:04.588Z</time>
      </trkpt>
      <trkpt lat="45.59187" lon="5.40384">
        <ele>448</ele>
        <time>2021-04-03T12:31:05.587Z</time>
      </trkpt>
      <trkpt lat="45.59182" lon="5.40388">
        <ele>449</ele>
        <time>2021-04-03T12:31:06.588Z</time>
      </trkpt>
      <trkpt lat="45.59175" lon="5.40394">
        <ele>449</ele>
        <time>2021-04-03T12:31:07.587Z</time>
      </trkpt>
      <trkpt lat="45.5917" lon="5.40399">
        <ele>449</ele>
        <time>2021-04-03T12:31:08.587Z</time>
      </trkpt>
      <trkpt lat="45.59165" lon="5.40404">
        <ele>449</ele>
        <time>2021-04-03T12:31:09.587Z</time>
      </trkpt>
      <trkpt lat="45.59159" lon="5.40409">
        <ele>450</ele>
        <time>2021-04-03T12:31:10.587Z</time>
      </trkpt>
      <trkpt lat="45.59152" lon="5.40415">
        <ele>450</ele>
        <time>2021-04-03T12:31:11.587Z</time>
      </trkpt>
      <trkpt lat="45.59146" lon="5.40419">
        <ele>450</ele>
        <time>2021-04-03T12:31:12.587Z</time>
      </trkpt>
      <trkpt lat="45.5914" lon="5.40424">
        <ele>450</ele>
        <time>2021-04-03T12:31:13.587Z</time>
      </trkpt>
      <trkpt lat="45.59135" lon="5.40427">
        <ele>451</ele>
        <time>2021-04-03T12:31:14.587Z</time>
      </trkpt>
      <trkpt lat="45.59129" lon="5.40431">
        <ele>451</ele>
        <time>2021-04-03T12:31:15.587Z</time>
      </trkpt>
      <trkpt lat="45.59123" lon="5.40436">
        <ele>451</ele>
        <time>2021-04-03T12:31:16.588Z</time>
      </trkpt>
      <trkpt lat="45.59119" lon="5.4044">
        <ele>452</ele>
        <time>2021-04-03T12:31:17.588Z</time>
      </trkpt>
      <trkpt lat="45.59115" lon="5.40443">
        <ele>452</ele>
        <time>2021-04-03T12:31:18.588Z</time>
      </trkpt>
      <trkpt lat="45.59112" lon="5.40446">
        <ele>452</ele>
        <time>2021-04-03T12:31:19.588Z</time>
      </trkpt>
      <trkpt lat="45.59108" lon="5.40449">
        <ele>453</ele>
        <time>2021-04-03T12:31:20.588Z</time>
      </trkpt>
      <trkpt lat="45.59106" lon="5.40451">
        <ele>453</ele>
        <time>2021-04-03T12:31:21.588Z</time>
      </trkpt>
      <trkpt lat="45.59102" lon="5.40454">
        <ele>453</ele>
        <time>2021-04-03T12:31:22.588Z</time>
      </trkpt>
      <trkpt lat="45.59099" lon="5.40456">
        <ele>454</ele>
        <time>2021-04-03T12:31:23.588Z</time>
      </trkpt>
      <trkpt lat="45.59096" lon="5.40459">
        <ele>454</ele>
        <time>2021-04-03T12:31:24.588Z</time>
      </trkpt>
      <trkpt lat="45.59093" lon="5.40462">
        <ele>454</ele>
        <time>2021-04-03T12:31:25.588Z</time>
      </trkpt>
      <trkpt lat="45.59089" lon="5.40465">
        <ele>454</ele>
        <time>2021-04-03T12:31:26.587Z</time>
      </trkpt>
      <trkpt lat="45.59086" lon="5.40468">
        <ele>454</ele>
        <time>2021-04-03T12:31:27.588Z</time>
      </trkpt>
      <trkpt lat="45.59083" lon="5.4047">
        <ele>454</ele>
        <time>2021-04-03T12:31:28.588Z</time>
      </trkpt>
      <trkpt lat="45.59079" lon="5.40473">
        <ele>454</ele>
        <time>2021-04-03T12:31:29.588Z</time>
      </trkpt>
      <trkpt lat="45.59076" lon="5.40476">
        <ele>454</ele>
        <time>2021-04-03T12:31:30.587Z</time>
      </trkpt>
      <trkpt lat="45.59073" lon="5.40479">
        <ele>454</ele>
        <time>2021-04-03T12:31:31.587Z</time>
      </trkpt>
      <trkpt lat="45.5907" lon="5.40483">
        <ele>454</ele>
        <time>2021-04-03T12:31:32.588Z</time>
      </trkpt>
      <trkpt lat="45.59065" lon="5.40487">
        <ele>455</ele>
        <time>2021-04-03T12:31:33.588Z</time>
      </trkpt>
      <trkpt lat="45.59063" lon="5.4049">
        <ele>455</ele>
        <time>2021-04-03T12:31:34.588Z</time>
      </trkpt>
      <trkpt lat="45.59058" lon="5.40495">
        <ele>455</ele>
        <time>2021-04-03T12:31:35.587Z</time>
      </trkpt>
      <trkpt lat="45.59056" lon="5.40498">
        <ele>456</ele>
        <time>2021-04-03T12:31:36.588Z</time>
      </trkpt>
      <trkpt lat="45.59052" lon="5.40503">
        <ele>456</ele>
        <time>2021-04-03T12:31:37.588Z</time>
      </trkpt>
      <trkpt lat="45.59049" lon="5.40508">
        <ele>456</ele>
        <time>2021-04-03T12:31:38.587Z</time>
      </trkpt>
      <trkpt lat="45.59044" lon="5.40514">
        <ele>456</ele>
        <time>2021-04-03T12:31:39.588Z</time>
      </trkpt>
      <trkpt lat="45.59041" lon="5.40518">
        <ele>456</ele>
        <time>2021-04-03T12:31:40.587Z</time>
      </trkpt>
      <trkpt lat="45.59038" lon="5.40523">
        <ele>456</ele>
        <time>2021-04-03T12:31:41.588Z</time>
      </trkpt>
      <trkpt lat="45.59034" lon="5.4053">
        <ele>456</ele>
        <time>2021-04-03T12:31:42.587Z</time>
      </trkpt>
      <trkpt lat="45.5903" lon="5.40537">
        <ele>456</ele>
        <time>2021-04-03T12:31:43.588Z</time>
      </trkpt>
      <trkpt lat="45.59027" lon="5.40543">
        <ele>456</ele>
        <time>2021-04-03T12:31:44.588Z</time>
      </trkpt>
      <trkpt lat="45.59025" lon="5.40549">
        <ele>456</ele>
        <time>2021-04-03T12:31:45.588Z</time>
      </trkpt>
      <trkpt lat="45.59022" lon="5.40556">
        <ele>455</ele>
        <time>2021-04-03T12:31:46.588Z</time>
      </trkpt>
      <trkpt lat="45.59018" lon="5.40565">
        <ele>455</ele>
        <time>2021-04-03T12:31:47.588Z</time>
      </trkpt>
      <trkpt lat="45.59014" lon="5.40573">
        <ele>455</ele>
        <time>2021-04-03T12:31:48.588Z</time>
      </trkpt>
      <trkpt lat="45.59011" lon="5.40581">
        <ele>455</ele>
        <time>2021-04-03T12:31:49.588Z</time>
      </trkpt>
      <trkpt lat="45.59008" lon="5.40587">
        <ele>455</ele>
        <time>2021-04-03T12:31:50.587Z</time>
      </trkpt>
      <trkpt lat="45.59004" lon="5.40597">
        <ele>455</ele>
        <time>2021-04-03T12:31:51.587Z</time>
      </trkpt>
      <trkpt lat="45.59001" lon="5.40603">
        <ele>455</ele>
        <time>2021-04-03T12:31:52.587Z</time>
      </trkpt>
      <trkpt lat="45.58997" lon="5.40612">
        <ele>454</ele>
        <time>2021-04-03T12:31:53.588Z</time>
      </trkpt>
      <trkpt lat="45.58994" lon="5.40619">
        <ele>454</ele>
        <time>2021-04-03T12:31:54.587Z</time>
      </trkpt>
      <trkpt lat="45.58989" lon="5.40626">
        <ele>454</ele>
        <time>2021-04-03T12:31:55.587Z</time>
      </trkpt>
      <trkpt lat="45.58985" lon="5.40634">
        <ele>454</ele>
        <time>2021-04-03T12:31:56.587Z</time>
      </trkpt>
      <trkpt lat="45.58979" lon="5.40643">
        <ele>455</ele>
        <time>2021-04-03T12:31:57.587Z</time>
      </trkpt>
      <trkpt lat="45.58975" lon="5.40651">
        <ele>454</ele>
        <time>2021-04-03T12:31:58.588Z</time>
      </trkpt>
      <trkpt lat="45.58971" lon="5.40658">
        <ele>454</ele>
        <time>2021-04-03T12:31:59.588Z</time>
      </trkpt>
      <trkpt lat="45.58965" lon="5.40668">
        <ele>454</ele>
        <time>2021-04-03T12:32:00.587Z</time>
      </trkpt>
      <trkpt lat="45.58959" lon="5.40676">
        <ele>454</ele>
        <time>2021-04-03T12:32:01.588Z</time>
      </trkpt>
      <trkpt lat="45.58953" lon="5.40685">
        <ele>453</ele>
        <time>2021-04-03T12:32:02.588Z</time>
      </trkpt>
      <trkpt lat="45.58949" lon="5.40692">
        <ele>453</ele>
        <time>2021-04-03T12:32:03.587Z</time>
      </trkpt>
      <trkpt lat="45.58942" lon="5.40702">
        <ele>453</ele>
        <time>2021-04-03T12:32:04.588Z</time>
      </trkpt>
      <trkpt lat="45.58937" lon="5.4071">
        <ele>453</ele>
        <time>2021-04-03T12:32:05.587Z</time>
      </trkpt>
      <trkpt lat="45.58931" lon="5.40721">
        <ele>452</ele>
        <time>2021-04-03T12:32:06.587Z</time>
      </trkpt>
      <trkpt lat="45.58926" lon="5.40728">
        <ele>452</ele>
        <time>2021-04-03T12:32:07.587Z</time>
      </trkpt>
      <trkpt lat="45.5892" lon="5.40738">
        <ele>452</ele>
        <time>2021-04-03T12:32:08.587Z</time>
      </trkpt>
      <trkpt lat="45.58913" lon="5.40748">
        <ele>452</ele>
        <time>2021-04-03T12:32:09.588Z</time>
      </trkpt>
      <trkpt lat="45.58907" lon="5.40757">
        <ele>452</ele>
        <time>2021-04-03T12:32:10.587Z</time>
      </trkpt>
      <trkpt lat="45.58902" lon="5.40764">
        <ele>452</ele>
        <time>2021-04-03T12:32:11.587Z</time>
      </trkpt>
      <trkpt lat="45.58896" lon="5.40772">
        <ele>451</ele>
        <time>2021-04-03T12:32:12.588Z</time>
      </trkpt>
      <trkpt lat="45.58891" lon="5.4078">
        <ele>451</ele>
        <time>2021-04-03T12:32:13.587Z</time>
      </trkpt>
      <trkpt lat="45.58886" lon="5.40788">
        <ele>451</ele>
        <time>2021-04-03T12:32:14.588Z</time>
      </trkpt>
      <trkpt lat="45.58881" lon="5.40797">
        <ele>450</ele>
        <time>2021-04-03T12:32:15.587Z</time>
      </trkpt>
      <trkpt lat="45.58877" lon="5.40803">
        <ele>450</ele>
        <time>2021-04-03T12:32:16.587Z</time>
      </trkpt>
      <trkpt lat="45.58872" lon="5.40812">
        <ele>451</ele>
        <time>2021-04-03T12:32:17.587Z</time>
      </trkpt>
      <trkpt lat="45.58868" lon="5.40818">
        <ele>451</ele>
        <time>2021-04-03T12:32:18.588Z</time>
      </trkpt>
      <trkpt lat="45.58864" lon="5.40825">
        <ele>451</ele>
        <time>2021-04-03T12:32:19.588Z</time>
      </trkpt>
      <trkpt lat="45.5886" lon="5.4083">
        <ele>451</ele>
        <time>2021-04-03T12:32:20.587Z</time>
      </trkpt>
      <trkpt lat="45.58855" lon="5.40836">
        <ele>451</ele>
        <time>2021-04-03T12:32:21.587Z</time>
      </trkpt>
      <trkpt lat="45.58851" lon="5.40841">
        <ele>451</ele>
        <time>2021-04-03T12:32:22.588Z</time>
      </trkpt>
      <trkpt lat="45.58846" lon="5.40845">
        <ele>451</ele>
        <time>2021-04-03T12:32:23.587Z</time>
      </trkpt>
      <trkpt lat="45.58842" lon="5.40849">
        <ele>451</ele>
        <time>2021-04-03T12:32:24.588Z</time>
      </trkpt>
      <trkpt lat="45.58837" lon="5.40852">
        <ele>451</ele>
        <time>2021-04-03T12:32:25.588Z</time>
      </trkpt>
      <trkpt lat="45.58833" lon="5.40856">
        <ele>451</ele>
        <time>2021-04-03T12:32:26.588Z</time>
      </trkpt>
      <trkpt lat="45.58828" lon="5.4086">
        <ele>451</ele>
        <time>2021-04-03T12:32:27.588Z</time>
      </trkpt>
      <trkpt lat="45.58824" lon="5.40863">
        <ele>451</ele>
        <time>2021-04-03T12:32:28.587Z</time>
      </trkpt>
      <trkpt lat="45.5882" lon="5.40867">
        <ele>452</ele>
        <time>2021-04-03T12:32:29.588Z</time>
      </trkpt>
      <trkpt lat="45.58815" lon="5.40871">
        <ele>452</ele>
        <time>2021-04-03T12:32:30.588Z</time>
      </trkpt>
      <trkpt lat="45.58811" lon="5.40875">
        <ele>452</ele>
        <time>2021-04-03T12:32:31.587Z</time>
      </trkpt>
      <trkpt lat="45.58807" lon="5.4088">
        <ele>452</ele>
        <time>2021-04-03T12:32:32.588Z</time>
      </trkpt>
      <trkpt lat="45.58804" lon="5.40885">
        <ele>452</ele>
        <time>2021-04-03T12:32:33.587Z</time>
      </trkpt>
      <trkpt lat="45.58801" lon="5.40891">
        <ele>453</ele>
        <time>2021-04-03T12:32:34.587Z</time>
      </trkpt>
      <trkpt lat="45.58798" lon="5.40897">
        <ele>453</ele>
        <time>2021-04-03T12:32:35.587Z</time>
      </trkpt>
      <trkpt lat="45.58796" lon="5.40903">
        <ele>453</ele>
        <time>2021-04-03T12:32:36.587Z</time>
      </trkpt>
      <trkpt lat="45.58794" lon="5.4091">
        <ele>453</ele>
        <time>2021-04-03T12:32:37.588Z</time>
      </trkpt>
      <trkpt lat="45.58792" lon="5.40916">
        <ele>453</ele>
        <time>2021-04-03T12:32:38.588Z</time>
      </trkpt>
      <trkpt lat="45.5879" lon="5.40922">
        <ele>452</ele>
        <time>2021-04-03T12:32:39.588Z</time>
      </trkpt>
      <trkpt lat="45.58788" lon="5.40928">
        <ele>452</ele>
        <time>2021-04-03T12:32:40.588Z</time>
      </trkpt>
      <trkpt lat="45.58786" lon="5.40934">
        <ele>452</ele>
        <time>2021-04-03T12:32:41.588Z</time>
      </trkpt>
      <trkpt lat="45.58785" lon="5.40939">
        <ele>452</ele>
        <time>2021-04-03T12:32:42.588Z</time>
      </trkpt>
      <trkpt lat="45.58783" lon="5.40945">
        <ele>452</ele>
        <time>2021-04-03T12:32:43.588Z</time>
      </trkpt>
      <trkpt lat="45.58781" lon="5.4095">
        <ele>452</ele>
        <time>2021-04-03T12:32:44.588Z</time>
      </trkpt>
      <trkpt lat="45.58778" lon="5.40955">
        <ele>451</ele>
        <time>2021-04-03T12:32:45.588Z</time>
      </trkpt>
      <trkpt lat="45.58776" lon="5.40961">
        <ele>451</ele>
        <time>2021-04-03T12:32:46.587Z</time>
      </trkpt>
      <trkpt lat="45.58773" lon="5.40966">
        <ele>451</ele>
        <time>2021-04-03T12:32:47.587Z</time>
      </trkpt>
      <trkpt lat="45.58771" lon="5.40971">
        <ele>451</ele>
        <time>2021-04-03T12:32:48.588Z</time>
      </trkpt>
      <trkpt lat="45.58769" lon="5.40976">
        <ele>451</ele>
        <time>2021-04-03T12:32:49.587Z</time>
      </trkpt>
      <trkpt lat="45.58766" lon="5.40981">
        <ele>451</ele>
        <time>2021-04-03T12:32:50.587Z</time>
      </trkpt>
      <trkpt lat="45.58764" lon="5.40987">
        <ele>451</ele>
        <time>2021-04-03T12:32:51.588Z</time>
      </trkpt>
      <trkpt lat="45.58761" lon="5.40992">
        <ele>452</ele>
        <time>2021-04-03T12:32:52.587Z</time>
      </trkpt>
      <trkpt lat="45.58759" lon="5.40997">
        <ele>452</ele>
        <time>2021-04-03T12:32:53.588Z</time>
      </trkpt>
      <trkpt lat="45.58757" lon="5.41002">
        <ele>452</ele>
        <time>2021-04-03T12:32:54.587Z</time>
      </trkpt>
      <trkpt lat="45.58754" lon="5.41007">
        <ele>453</ele>
        <time>2021-04-03T12:32:55.587Z</time>
      </trkpt>
      <trkpt lat="45.58752" lon="5.41013">
        <ele>453</ele>
        <time>2021-04-03T12:32:56.588Z</time>
      </trkpt>
      <trkpt lat="45.5875" lon="5.41017">
        <ele>453</ele>
        <time>2021-04-03T12:32:57.588Z</time>
      </trkpt>
      <trkpt lat="45.58747" lon="5.41022">
        <ele>454</ele>
        <time>2021-04-03T12:32:58.588Z</time>
      </trkpt>
      <trkpt lat="45.58744" lon="5.41027">
        <ele>454</ele>
        <time>2021-04-03T12:32:59.588Z</time>
      </trkpt>
      <trkpt lat="45.58741" lon="5.41032">
        <ele>454</ele>
        <time>2021-04-03T12:33:00.588Z</time>
      </trkpt>
      <trkpt lat="45.58738" lon="5.41037">
        <ele>454</ele>
        <time>2021-04-03T12:33:01.588Z</time>
      </trkpt>
      <trkpt lat="45.58735" lon="5.41042">
        <ele>454</ele>
        <time>2021-04-03T12:33:02.588Z</time>
      </trkpt>
      <trkpt lat="45.58732" lon="5.41047">
        <ele>454</ele>
        <time>2021-04-03T12:33:03.588Z</time>
      </trkpt>
      <trkpt lat="45.58729" lon="5.41053">
        <ele>454</ele>
        <time>2021-04-03T12:33:04.587Z</time>
      </trkpt>
      <trkpt lat="45.58726" lon="5.41058">
        <ele>454</ele>
        <time>2021-04-03T12:33:05.588Z</time>
      </trkpt>
      <trkpt lat="45.58722" lon="5.41064">
        <ele>454</ele>
        <time>2021-04-03T12:33:06.587Z</time>
      </trkpt>
      <trkpt lat="45.58718" lon="5.4107">
        <ele>453</ele>
        <time>2021-04-03T12:33:07.588Z</time>
      </trkpt>
      <trkpt lat="45.58715" lon="5.41077">
        <ele>453</ele>
        <time>2021-04-03T12:33:08.588Z</time>
      </trkpt>
      <trkpt lat="45.58711" lon="5.41083">
        <ele>453</ele>
        <time>2021-04-03T12:33:09.588Z</time>
      </trkpt>
      <trkpt lat="45.58708" lon="5.41089">
        <ele>453</ele>
        <time>2021-04-03T12:33:10.588Z</time>
      </trkpt>
      <trkpt lat="45.58704" lon="5.41095">
        <ele>453</ele>
        <time>2021-04-03T12:33:11.588Z</time>
      </trkpt>
      <trkpt lat="45.587" lon="5.41102">
        <ele>453</ele>
        <time>2021-04-03T12:33:12.587Z</time>
      </trkpt>
      <trkpt lat="45.58696" lon="5.41108">
        <ele>453</ele>
        <time>2021-04-03T12:33:13.587Z</time>
      </trkpt>
      <trkpt lat="45.58693" lon="5.41114">
        <ele>452</ele>
        <time>2021-04-03T12:33:14.588Z</time>
      </trkpt>
      <trkpt lat="45.58689" lon="5.4112">
        <ele>452</ele>
        <time>2021-04-03T12:33:15.587Z</time>
      </trkpt>
      <trkpt lat="45.58685" lon="5.41127">
        <ele>452</ele>
        <time>2021-04-03T12:33:16.588Z</time>
      </trkpt>
      <trkpt lat="45.58681" lon="5.41133">
        <ele>452</ele>
        <time>2021-04-03T12:33:17.588Z</time>
      </trkpt>
      <trkpt lat="45.58678" lon="5.41138">
        <ele>452</ele>
        <time>2021-04-03T12:33:18.588Z</time>
      </trkpt>
      <trkpt lat="45.58673" lon="5.41146">
        <ele>452</ele>
        <time>2021-04-03T12:33:19.588Z</time>
      </trkpt>
      <trkpt lat="45.5867" lon="5.41153">
        <ele>451</ele>
        <time>2021-04-03T12:33:20.588Z</time>
      </trkpt>
      <trkpt lat="45.58666" lon="5.41159">
        <ele>451</ele>
        <time>2021-04-03T12:33:21.588Z</time>
      </trkpt>
      <trkpt lat="45.58662" lon="5.41165">
        <ele>451</ele>
        <time>2021-04-03T12:33:22.588Z</time>
      </trkpt>
      <trkpt lat="45.58659" lon="5.41171">
        <ele>451</ele>
        <time>2021-04-03T12:33:23.587Z</time>
      </trkpt>
      <trkpt lat="45.58655" lon="5.41178">
        <ele>451</ele>
        <time>2021-04-03T12:33:24.587Z</time>
      </trkpt>
      <trkpt lat="45.58652" lon="5.41185">
        <ele>451</ele>
        <time>2021-04-03T12:33:25.587Z</time>
      </trkpt>
      <trkpt lat="45.58648" lon="5.41192">
        <ele>451</ele>
        <time>2021-04-03T12:33:26.587Z</time>
      </trkpt>
      <trkpt lat="45.58644" lon="5.41198">
        <ele>451</ele>
        <time>2021-04-03T12:33:27.588Z</time>
      </trkpt>
      <trkpt lat="45.58641" lon="5.41205">
        <ele>451</ele>
        <time>2021-04-03T12:33:28.588Z</time>
      </trkpt>
      <trkpt lat="45.58637" lon="5.41211">
        <ele>451</ele>
        <time>2021-04-03T12:33:29.588Z</time>
      </trkpt>
      <trkpt lat="45.58634" lon="5.41218">
        <ele>451</ele>
        <time>2021-04-03T12:33:30.587Z</time>
      </trkpt>
      <trkpt lat="45.5863" lon="5.41225">
        <ele>450</ele>
        <time>2021-04-03T12:33:31.588Z</time>
      </trkpt>
      <trkpt lat="45.58627" lon="5.4123">
        <ele>450</ele>
        <time>2021-04-03T12:33:32.588Z</time>
      </trkpt>
      <trkpt lat="45.58622" lon="5.41238">
        <ele>450</ele>
        <time>2021-04-03T12:33:33.588Z</time>
      </trkpt>
      <trkpt lat="45.58617" lon="5.41245">
        <ele>449</ele>
        <time>2021-04-03T12:33:34.587Z</time>
      </trkpt>
      <trkpt lat="45.58613" lon="5.41251">
        <ele>449</ele>
        <time>2021-04-03T12:33:35.588Z</time>
      </trkpt>
      <trkpt lat="45.5861" lon="5.41256">
        <ele>449</ele>
        <time>2021-04-03T12:33:36.587Z</time>
      </trkpt>
      <trkpt lat="45.58605" lon="5.41262">
        <ele>449</ele>
        <time>2021-04-03T12:33:37.588Z</time>
      </trkpt>
      <trkpt lat="45.586" lon="5.41268">
        <ele>449</ele>
        <time>2021-04-03T12:33:38.587Z</time>
      </trkpt>
      <trkpt lat="45.58596" lon="5.41272">
        <ele>449</ele>
        <time>2021-04-03T12:33:39.587Z</time>
      </trkpt>
      <trkpt lat="45.58592" lon="5.41277">
        <ele>449</ele>
        <time>2021-04-03T12:33:40.587Z</time>
      </trkpt>
      <trkpt lat="45.58588" lon="5.41282">
        <ele>449</ele>
        <time>2021-04-03T12:33:41.588Z</time>
      </trkpt>
      <trkpt lat="45.58584" lon="5.41286">
        <ele>450</ele>
        <time>2021-04-03T12:33:42.588Z</time>
      </trkpt>
      <trkpt lat="45.5858" lon="5.41291">
        <ele>450</ele>
        <time>2021-04-03T12:33:43.587Z</time>
      </trkpt>
      <trkpt lat="45.58576" lon="5.41295">
        <ele>450</ele>
        <time>2021-04-03T12:33:44.588Z</time>
      </trkpt>
      <trkpt lat="45.58572" lon="5.41301">
        <ele>450</ele>
        <time>2021-04-03T12:33:45.588Z</time>
      </trkpt>
      <trkpt lat="45.58568" lon="5.41306">
        <ele>450</ele>
        <time>2021-04-03T12:33:46.588Z</time>
      </trkpt>
      <trkpt lat="45.58565" lon="5.41312">
        <ele>450</ele>
        <time>2021-04-03T12:33:47.588Z</time>
      </trkpt>
      <trkpt lat="45.58563" lon="5.41318">
        <ele>450</ele>
        <time>2021-04-03T12:33:48.587Z</time>
      </trkpt>
      <trkpt lat="45.5856" lon="5.41323">
        <ele>450</ele>
        <time>2021-04-03T12:33:49.588Z</time>
      </trkpt>
      <trkpt lat="45.58556" lon="5.41327">
        <ele>450</ele>
        <time>2021-04-03T12:33:50.587Z</time>
      </trkpt>
      <trkpt lat="45.58551" lon="5.4133">
        <ele>450</ele>
        <time>2021-04-03T12:33:51.588Z</time>
      </trkpt>
      <trkpt lat="45.58546" lon="5.41333">
        <ele>450</ele>
        <time>2021-04-03T12:33:52.588Z</time>
      </trkpt>
      <trkpt lat="45.58541" lon="5.41337">
        <ele>450</ele>
        <time>2021-04-03T12:33:53.588Z</time>
      </trkpt>
      <trkpt lat="45.58535" lon="5.4134">
        <ele>450</ele>
        <time>2021-04-03T12:33:54.588Z</time>
      </trkpt>
      <trkpt lat="45.58529" lon="5.41344">
        <ele>450</ele>
        <time>2021-04-03T12:33:55.587Z</time>
      </trkpt>
      <trkpt lat="45.58523" lon="5.41347">
        <ele>450</ele>
        <time>2021-04-03T12:33:56.588Z</time>
      </trkpt>
      <trkpt lat="45.58516" lon="5.41351">
        <ele>450</ele>
        <time>2021-04-03T12:33:57.588Z</time>
      </trkpt>
      <trkpt lat="45.58509" lon="5.41354">
        <ele>450</ele>
        <time>2021-04-03T12:33:58.588Z</time>
      </trkpt>
      <trkpt lat="45.58502" lon="5.41358">
        <ele>450</ele>
        <time>2021-04-03T12:33:59.588Z</time>
      </trkpt>
      <trkpt lat="45.58496" lon="5.41361">
        <ele>450</ele>
        <time>2021-04-03T12:34:00.588Z</time>
      </trkpt>
      <trkpt lat="45.5849" lon="5.41365">
        <ele>450</ele>
        <time>2021-04-03T12:34:01.588Z</time>
      </trkpt>
      <trkpt lat="45.58484" lon="5.41369">
        <ele>450</ele>
        <time>2021-04-03T12:34:02.587Z</time>
      </trkpt>
      <trkpt lat="45.58478" lon="5.41373">
        <ele>450</ele>
        <time>2021-04-03T12:34:03.588Z</time>
      </trkpt>
      <trkpt lat="45.58472" lon="5.41376">
        <ele>450</ele>
        <time>2021-04-03T12:34:04.588Z</time>
      </trkpt>
      <trkpt lat="45.58466" lon="5.4138">
        <ele>450</ele>
        <time>2021-04-03T12:34:05.587Z</time>
      </trkpt>
      <trkpt lat="45.5846" lon="5.41383">
        <ele>450</ele>
        <time>2021-04-03T12:34:06.588Z</time>
      </trkpt>
      <trkpt lat="45.58456" lon="5.41386">
        <ele>451</ele>
        <time>2021-04-03T12:34:07.588Z</time>
      </trkpt>
      <trkpt lat="45.5845" lon="5.4139">
        <ele>451</ele>
        <time>2021-04-03T12:34:08.588Z</time>
      </trkpt>
      <trkpt lat="45.58443" lon="5.41394">
        <ele>451</ele>
        <time>2021-04-03T12:34:09.587Z</time>
      </trkpt>
      <trkpt lat="45.58437" lon="5.41397">
        <ele>451</ele>
        <time>2021-04-03T12:34:10.588Z</time>
      </trkpt>
      <trkpt lat="45.58432" lon="5.41399">
        <ele>451</ele>
        <time>2021-04-03T12:34:11.588Z</time>
      </trkpt>
      <trkpt lat="45.58425" lon="5.41402">
        <ele>451</ele>
        <time>2021-04-03T12:34:12.587Z</time>
      </trkpt>
      <trkpt lat="45.58419" lon="5.41405">
        <ele>452</ele>
        <time>2021-04-03T12:34:13.588Z</time>
      </trkpt>
      <trkpt lat="45.58414" lon="5.41408">
        <ele>452</ele>
        <time>2021-04-03T12:34:14.588Z</time>
      </trkpt>
      <trkpt lat="45.58408" lon="5.41411">
        <ele>452</ele>
        <time>2021-04-03T12:34:15.588Z</time>
      </trkpt>
      <trkpt lat="45.58404" lon="5.41413">
        <ele>452</ele>
        <time>2021-04-03T12:34:16.588Z</time>
      </trkpt>
      <trkpt lat="45.58397" lon="5.41416">
        <ele>452</ele>
        <time>2021-04-03T12:34:17.588Z</time>
      </trkpt>
      <trkpt lat="45.58392" lon="5.41419">
        <ele>453</ele>
        <time>2021-04-03T12:34:18.588Z</time>
      </trkpt>
      <trkpt lat="45.58386" lon="5.41422">
        <ele>452</ele>
        <time>2021-04-03T12:34:19.588Z</time>
      </trkpt>
      <trkpt lat="45.58381" lon="5.41425">
        <ele>452</ele>
        <time>2021-04-03T12:34:20.588Z</time>
      </trkpt>
      <trkpt lat="45.58375" lon="5.41428">
        <ele>452</ele>
        <time>2021-04-03T12:34:21.587Z</time>
      </trkpt>
      <trkpt lat="45.5837" lon="5.41431">
        <ele>451</ele>
        <time>2021-04-03T12:34:22.588Z</time>
      </trkpt>
      <trkpt lat="45.58365" lon="5.41434">
        <ele>451</ele>
        <time>2021-04-03T12:34:23.587Z</time>
      </trkpt>
      <trkpt lat="45.58359" lon="5.41437">
        <ele>450</ele>
        <time>2021-04-03T12:34:24.587Z</time>
      </trkpt>
      <trkpt lat="45.58354" lon="5.4144">
        <ele>450</ele>
        <time>2021-04-03T12:34:25.587Z</time>
      </trkpt>
      <trkpt lat="45.58348" lon="5.41443">
        <ele>449</ele>
        <time>2021-04-03T12:34:26.587Z</time>
      </trkpt>
      <trkpt lat="45.58343" lon="5.41446">
        <ele>449</ele>
        <time>2021-04-03T12:34:27.588Z</time>
      </trkpt>
      <trkpt lat="45.58338" lon="5.41449">
        <ele>449</ele>
        <time>2021-04-03T12:34:28.587Z</time>
      </trkpt>
      <trkpt lat="45.58332" lon="5.41453">
        <ele>449</ele>
        <time>2021-04-03T12:34:29.588Z</time>
      </trkpt>
      <trkpt lat="45.58327" lon="5.41456">
        <ele>449</ele>
        <time>2021-04-03T12:34:30.588Z</time>
      </trkpt>
      <trkpt lat="45.58322" lon="5.41459">
        <ele>449</ele>
        <time>2021-04-03T12:34:31.588Z</time>
      </trkpt>
      <trkpt lat="45.58316" lon="5.41462">
        <ele>450</ele>
        <time>2021-04-03T12:34:32.588Z</time>
      </trkpt>
      <trkpt lat="45.58311" lon="5.41465">
        <ele>450</ele>
        <time>2021-04-03T12:34:33.588Z</time>
      </trkpt>
      <trkpt lat="45.58306" lon="5.41468">
        <ele>450</ele>
        <time>2021-04-03T12:34:34.587Z</time>
      </trkpt>
      <trkpt lat="45.58301" lon="5.41471">
        <ele>451</ele>
        <time>2021-04-03T12:34:35.588Z</time>
      </trkpt>
      <trkpt lat="45.58295" lon="5.41474">
        <ele>450</ele>
        <time>2021-04-03T12:34:36.588Z</time>
      </trkpt>
      <trkpt lat="45.5829" lon="5.41477">
        <ele>450</ele>
        <time>2021-04-03T12:34:37.587Z</time>
      </trkpt>
      <trkpt lat="45.58287" lon="5.4148">
        <ele>450</ele>
        <time>2021-04-03T12:34:38.588Z</time>
      </trkpt>
      <trkpt lat="45.58281" lon="5.41484">
        <ele>451</ele>
        <time>2021-04-03T12:34:39.587Z</time>
      </trkpt>
      <trkpt lat="45.58277" lon="5.41487">
        <ele>451</ele>
        <time>2021-04-03T12:34:40.588Z</time>
      </trkpt>
      <trkpt lat="45.58272" lon="5.41491">
        <ele>451</ele>
        <time>2021-04-03T12:34:41.588Z</time>
      </trkpt>
      <trkpt lat="45.58268" lon="5.41495">
        <ele>451</ele>
        <time>2021-04-03T12:34:42.588Z</time>
      </trkpt>
      <trkpt lat="45.58265" lon="5.41498">
        <ele>452</ele>
        <time>2021-04-03T12:34:43.588Z</time>
      </trkpt>
      <trkpt lat="45.58262" lon="5.41501">
        <ele>452</ele>
        <time>2021-04-03T12:34:44.588Z</time>
      </trkpt>
      <trkpt lat="45.58257" lon="5.41505">
        <ele>452</ele>
        <time>2021-04-03T12:34:45.588Z</time>
      </trkpt>
      <trkpt lat="45.58254" lon="5.41509">
        <ele>452</ele>
        <time>2021-04-03T12:34:46.587Z</time>
      </trkpt>
      <trkpt lat="45.5825" lon="5.41513">
        <ele>452</ele>
        <time>2021-04-03T12:34:47.588Z</time>
      </trkpt>
      <trkpt lat="45.58246" lon="5.41517">
        <ele>452</ele>
        <time>2021-04-03T12:34:48.587Z</time>
      </trkpt>
      <trkpt lat="45.58241" lon="5.41522">
        <ele>453</ele>
        <time>2021-04-03T12:34:49.588Z</time>
      </trkpt>
      <trkpt lat="45.58237" lon="5.41527">
        <ele>453</ele>
        <time>2021-04-03T12:34:50.587Z</time>
      </trkpt>
      <trkpt lat="45.58233" lon="5.41533">
        <ele>453</ele>
        <time>2021-04-03T12:34:51.588Z</time>
      </trkpt>
      <trkpt lat="45.58229" lon="5.41539">
        <ele>453</ele>
        <time>2021-04-03T12:34:52.588Z</time>
      </trkpt>
      <trkpt lat="45.58226" lon="5.41546">
        <ele>454</ele>
        <time>2021-04-03T12:34:53.588Z</time>
      </trkpt>
      <trkpt lat="45.58222" lon="5.41552">
        <ele>454</ele>
        <time>2021-04-03T12:34:54.588Z</time>
      </trkpt>
      <trkpt lat="45.58219" lon="5.41559">
        <ele>454</ele>
        <time>2021-04-03T12:34:55.588Z</time>
      </trkpt>
      <trkpt lat="45.58217" lon="5.41566">
        <ele>454</ele>
        <time>2021-04-03T12:34:56.588Z</time>
      </trkpt>
      <trkpt lat="45.58214" lon="5.41572">
        <ele>454</ele>
        <time>2021-04-03T12:34:57.587Z</time>
      </trkpt>
      <trkpt lat="45.58212" lon="5.41579">
        <ele>454</ele>
        <time>2021-04-03T12:34:58.588Z</time>
      </trkpt>
      <trkpt lat="45.5821" lon="5.41586">
        <ele>454</ele>
        <time>2021-04-03T12:34:59.588Z</time>
      </trkpt>
      <trkpt lat="45.58207" lon="5.41593">
        <ele>454</ele>
        <time>2021-04-03T12:35:00.587Z</time>
      </trkpt>
      <trkpt lat="45.58205" lon="5.416">
        <ele>455</ele>
        <time>2021-04-03T12:35:01.588Z</time>
      </trkpt>
      <trkpt lat="45.58203" lon="5.41605">
        <ele>455</ele>
        <time>2021-04-03T12:35:02.588Z</time>
      </trkpt>
      <trkpt lat="45.582" lon="5.41612">
        <ele>455</ele>
        <time>2021-04-03T12:35:03.588Z</time>
      </trkpt>
      <trkpt lat="45.58198" lon="5.41618">
        <ele>454</ele>
        <time>2021-04-03T12:35:04.588Z</time>
      </trkpt>
      <trkpt lat="45.58196" lon="5.41625">
        <ele>454</ele>
        <time>2021-04-03T12:35:05.588Z</time>
      </trkpt>
      <trkpt lat="45.58193" lon="5.41633">
        <ele>454</ele>
        <time>2021-04-03T12:35:06.587Z</time>
      </trkpt>
      <trkpt lat="45.5819" lon="5.4164">
        <ele>454</ele>
        <time>2021-04-03T12:35:07.588Z</time>
      </trkpt>
      <trkpt lat="45.58188" lon="5.41645">
        <ele>454</ele>
        <time>2021-04-03T12:35:08.588Z</time>
      </trkpt>
      <trkpt lat="45.58186" lon="5.41652">
        <ele>454</ele>
        <time>2021-04-03T12:35:09.588Z</time>
      </trkpt>
      <trkpt lat="45.58184" lon="5.41659">
        <ele>454</ele>
        <time>2021-04-03T12:35:10.588Z</time>
      </trkpt>
      <trkpt lat="45.58182" lon="5.41666">
        <ele>454</ele>
        <time>2021-04-03T12:35:11.587Z</time>
      </trkpt>
      <trkpt lat="45.5818" lon="5.41673">
        <ele>454</ele>
        <time>2021-04-03T12:35:12.588Z</time>
      </trkpt>
      <trkpt lat="45.58178" lon="5.4168">
        <ele>454</ele>
        <time>2021-04-03T12:35:13.588Z</time>
      </trkpt>
      <trkpt lat="45.58176" lon="5.41688">
        <ele>455</ele>
        <time>2021-04-03T12:35:14.587Z</time>
      </trkpt>
      <trkpt lat="45.58175" lon="5.41695">
        <ele>455</ele>
        <time>2021-04-03T12:35:15.587Z</time>
      </trkpt>
      <trkpt lat="45.58173" lon="5.41703">
        <ele>455</ele>
        <time>2021-04-03T12:35:16.588Z</time>
      </trkpt>
      <trkpt lat="45.58171" lon="5.41712">
        <ele>455</ele>
        <time>2021-04-03T12:35:17.587Z</time>
      </trkpt>
      <trkpt lat="45.5817" lon="5.41718">
        <ele>455</ele>
        <time>2021-04-03T12:35:18.588Z</time>
      </trkpt>
      <trkpt lat="45.58168" lon="5.41725">
        <ele>454</ele>
        <time>2021-04-03T12:35:19.588Z</time>
      </trkpt>
      <trkpt lat="45.58166" lon="5.41732">
        <ele>453</ele>
        <time>2021-04-03T12:35:20.588Z</time>
      </trkpt>
      <trkpt lat="45.58164" lon="5.4174">
        <ele>453</ele>
        <time>2021-04-03T12:35:21.588Z</time>
      </trkpt>
      <trkpt lat="45.58162" lon="5.41749">
        <ele>453</ele>
        <time>2021-04-03T12:35:22.588Z</time>
      </trkpt>
      <trkpt lat="45.5816" lon="5.41758">
        <ele>453</ele>
        <time>2021-04-03T12:35:23.588Z</time>
      </trkpt>
      <trkpt lat="45.58158" lon="5.41766">
        <ele>453</ele>
        <time>2021-04-03T12:35:24.588Z</time>
      </trkpt>
      <trkpt lat="45.58157" lon="5.41773">
        <ele>453</ele>
        <time>2021-04-03T12:35:25.588Z</time>
      </trkpt>
      <trkpt lat="45.58155" lon="5.41782">
        <ele>454</ele>
        <time>2021-04-03T12:35:26.588Z</time>
      </trkpt>
      <trkpt lat="45.58153" lon="5.41791">
        <ele>454</ele>
        <time>2021-04-03T12:35:27.588Z</time>
      </trkpt>
      <trkpt lat="45.58152" lon="5.418">
        <ele>454</ele>
        <time>2021-04-03T12:35:28.588Z</time>
      </trkpt>
      <trkpt lat="45.5815" lon="5.41809">
        <ele>454</ele>
        <time>2021-04-03T12:35:29.587Z</time>
      </trkpt>
      <trkpt lat="45.58148" lon="5.41818">
        <ele>454</ele>
        <time>2021-04-03T12:35:30.587Z</time>
      </trkpt>
      <trkpt lat="45.58146" lon="5.41828">
        <ele>454</ele>
        <time>2021-04-03T12:35:31.588Z</time>
      </trkpt>
      <trkpt lat="45.58144" lon="5.41837">
        <ele>454</ele>
        <time>2021-04-03T12:35:32.588Z</time>
      </trkpt>
      <trkpt lat="45.58142" lon="5.41847">
        <ele>454</ele>
        <time>2021-04-03T12:35:33.588Z</time>
      </trkpt>
      <trkpt lat="45.5814" lon="5.41857">
        <ele>453</ele>
        <time>2021-04-03T12:35:34.588Z</time>
      </trkpt>
      <trkpt lat="45.58137" lon="5.41867">
        <ele>453</ele>
        <time>2021-04-03T12:35:35.588Z</time>
      </trkpt>
      <trkpt lat="45.58135" lon="5.41879">
        <ele>452</ele>
        <time>2021-04-03T12:35:36.587Z</time>
      </trkpt>
      <trkpt lat="45.58133" lon="5.41887">
        <ele>452</ele>
        <time>2021-04-03T12:35:37.588Z</time>
      </trkpt>
      <trkpt lat="45.58131" lon="5.41898">
        <ele>452</ele>
        <time>2021-04-03T12:35:38.588Z</time>
      </trkpt>
      <trkpt lat="45.58129" lon="5.41911">
        <ele>452</ele>
        <time>2021-04-03T12:35:39.587Z</time>
      </trkpt>
      <trkpt lat="45.58128" lon="5.41919">
        <ele>452</ele>
        <time>2021-04-03T12:35:40.587Z</time>
      </trkpt>
      <trkpt lat="45.58126" lon="5.41933">
        <ele>452</ele>
        <time>2021-04-03T12:35:41.587Z</time>
      </trkpt>
      <trkpt lat="45.58124" lon="5.41942">
        <ele>452</ele>
        <time>2021-04-03T12:35:42.588Z</time>
      </trkpt>
      <trkpt lat="45.58122" lon="5.41954">
        <ele>452</ele>
        <time>2021-04-03T12:35:43.588Z</time>
      </trkpt>
      <trkpt lat="45.5812" lon="5.41966">
        <ele>451</ele>
        <time>2021-04-03T12:35:44.588Z</time>
      </trkpt>
      <trkpt lat="45.58118" lon="5.41978">
        <ele>451</ele>
        <time>2021-04-03T12:35:45.588Z</time>
      </trkpt>
      <trkpt lat="45.58116" lon="5.41991">
        <ele>450</ele>
        <time>2021-04-03T12:35:46.587Z</time>
      </trkpt>
      <trkpt lat="45.58114" lon="5.42003">
        <ele>450</ele>
        <time>2021-04-03T12:35:47.587Z</time>
      </trkpt>
      <trkpt lat="45.58111" lon="5.42016">
        <ele>449</ele>
        <time>2021-04-03T12:35:48.588Z</time>
      </trkpt>
      <trkpt lat="45.58109" lon="5.42031">
        <ele>449</ele>
        <time>2021-04-03T12:35:49.588Z</time>
      </trkpt>
      <trkpt lat="45.58107" lon="5.42043">
        <ele>449</ele>
        <time>2021-04-03T12:35:50.588Z</time>
      </trkpt>
      <trkpt lat="45.58105" lon="5.42056">
        <ele>448</ele>
        <time>2021-04-03T12:35:51.588Z</time>
      </trkpt>
      <trkpt lat="45.58102" lon="5.42069">
        <ele>448</ele>
        <time>2021-04-03T12:35:52.588Z</time>
      </trkpt>
      <trkpt lat="45.581" lon="5.42081">
        <ele>448</ele>
        <time>2021-04-03T12:35:53.588Z</time>
      </trkpt>
      <trkpt lat="45.58097" lon="5.42094">
        <ele>447</ele>
        <time>2021-04-03T12:35:54.588Z</time>
      </trkpt>
      <trkpt lat="45.58095" lon="5.42107">
        <ele>447</ele>
        <time>2021-04-03T12:35:55.588Z</time>
      </trkpt>
      <trkpt lat="45.58092" lon="5.4212">
        <ele>447</ele>
        <time>2021-04-03T12:35:56.588Z</time>
      </trkpt>
      <trkpt lat="45.5809" lon="5.42133">
        <ele>446</ele>
        <time>2021-04-03T12:35:57.587Z</time>
      </trkpt>
      <trkpt lat="45.58088" lon="5.42143">
        <ele>445</ele>
        <time>2021-04-03T12:35:58.588Z</time>
      </trkpt>
      <trkpt lat="45.58086" lon="5.42157">
        <ele>445</ele>
        <time>2021-04-03T12:35:59.588Z</time>
      </trkpt>
      <trkpt lat="45.58085" lon="5.42171">
        <ele>445</ele>
        <time>2021-04-03T12:36:00.587Z</time>
      </trkpt>
      <trkpt lat="45.58083" lon="5.42185">
        <ele>444</ele>
        <time>2021-04-03T12:36:01.587Z</time>
      </trkpt>
      <trkpt lat="45.58082" lon="5.42199">
        <ele>444</ele>
        <time>2021-04-03T12:36:02.588Z</time>
      </trkpt>
      <trkpt lat="45.5808" lon="5.42213">
        <ele>444</ele>
        <time>2021-04-03T12:36:03.587Z</time>
      </trkpt>
      <trkpt lat="45.58078" lon="5.42227">
        <ele>443</ele>
        <time>2021-04-03T12:36:04.588Z</time>
      </trkpt>
      <trkpt lat="45.58076" lon="5.42241">
        <ele>443</ele>
        <time>2021-04-03T12:36:05.588Z</time>
      </trkpt>
      <trkpt lat="45.58074" lon="5.42254">
        <ele>442</ele>
        <time>2021-04-03T12:36:06.588Z</time>
      </trkpt>
      <trkpt lat="45.58073" lon="5.42267">
        <ele>442</ele>
        <time>2021-04-03T12:36:07.587Z</time>
      </trkpt>
      <trkpt lat="45.58071" lon="5.4228">
        <ele>442</ele>
        <time>2021-04-03T12:36:08.588Z</time>
      </trkpt>
      <trkpt lat="45.58069" lon="5.42293">
        <ele>442</ele>
        <time>2021-04-03T12:36:09.588Z</time>
      </trkpt>
      <trkpt lat="45.58068" lon="5.42305">
        <ele>441</ele>
        <time>2021-04-03T12:36:10.588Z</time>
      </trkpt>
      <trkpt lat="45.58066" lon="5.42318">
        <ele>441</ele>
        <time>2021-04-03T12:36:11.588Z</time>
      </trkpt>
      <trkpt lat="45.58064" lon="5.4233">
        <ele>441</ele>
        <time>2021-04-03T12:36:12.587Z</time>
      </trkpt>
      <trkpt lat="45.58063" lon="5.42343">
        <ele>441</ele>
        <time>2021-04-03T12:36:13.588Z</time>
      </trkpt>
      <trkpt lat="45.58061" lon="5.42355">
        <ele>441</ele>
        <time>2021-04-03T12:36:14.588Z</time>
      </trkpt>
      <trkpt lat="45.5806" lon="5.42367">
        <ele>441</ele>
        <time>2021-04-03T12:36:15.588Z</time>
      </trkpt>
      <trkpt lat="45.58058" lon="5.42379">
        <ele>441</ele>
        <time>2021-04-03T12:36:16.588Z</time>
      </trkpt>
      <trkpt lat="45.58057" lon="5.42391">
        <ele>441</ele>
        <time>2021-04-03T12:36:17.587Z</time>
      </trkpt>
      <trkpt lat="45.58055" lon="5.42403">
        <ele>441</ele>
        <time>2021-04-03T12:36:18.588Z</time>
      </trkpt>
      <trkpt lat="45.58054" lon="5.42416">
        <ele>441</ele>
        <time>2021-04-03T12:36:19.588Z</time>
      </trkpt>
      <trkpt lat="45.58053" lon="5.42428">
        <ele>442</ele>
        <time>2021-04-03T12:36:20.588Z</time>
      </trkpt>
      <trkpt lat="45.58052" lon="5.4244">
        <ele>442</ele>
        <time>2021-04-03T12:36:21.587Z</time>
      </trkpt>
      <trkpt lat="45.58052" lon="5.42452">
        <ele>442</ele>
        <time>2021-04-03T12:36:22.587Z</time>
      </trkpt>
      <trkpt lat="45.58051" lon="5.42464">
        <ele>442</ele>
        <time>2021-04-03T12:36:23.588Z</time>
      </trkpt>
      <trkpt lat="45.5805" lon="5.42476">
        <ele>442</ele>
        <time>2021-04-03T12:36:24.587Z</time>
      </trkpt>
      <trkpt lat="45.5805" lon="5.42489">
        <ele>441</ele>
        <time>2021-04-03T12:36:25.587Z</time>
      </trkpt>
      <trkpt lat="45.5805" lon="5.42502">
        <ele>441</ele>
        <time>2021-04-03T12:36:26.588Z</time>
      </trkpt>
      <trkpt lat="45.58049" lon="5.42515">
        <ele>440</ele>
        <time>2021-04-03T12:36:27.588Z</time>
      </trkpt>
      <trkpt lat="45.58049" lon="5.42528">
        <ele>440</ele>
        <time>2021-04-03T12:36:28.588Z</time>
      </trkpt>
      <trkpt lat="45.58048" lon="5.42542">
        <ele>440</ele>
        <time>2021-04-03T12:36:29.588Z</time>
      </trkpt>
      <trkpt lat="45.58048" lon="5.42555">
        <ele>440</ele>
        <time>2021-04-03T12:36:30.588Z</time>
      </trkpt>
      <trkpt lat="45.58047" lon="5.42569">
        <ele>440</ele>
        <time>2021-04-03T12:36:31.588Z</time>
      </trkpt>
      <trkpt lat="45.58047" lon="5.42584">
        <ele>440</ele>
        <time>2021-04-03T12:36:32.587Z</time>
      </trkpt>
      <trkpt lat="45.58046" lon="5.42598">
        <ele>440</ele>
        <time>2021-04-03T12:36:33.588Z</time>
      </trkpt>
      <trkpt lat="45.58045" lon="5.42613">
        <ele>440</ele>
        <time>2021-04-03T12:36:34.588Z</time>
      </trkpt>
      <trkpt lat="45.58045" lon="5.42627">
        <ele>440</ele>
        <time>2021-04-03T12:36:35.587Z</time>
      </trkpt>
      <trkpt lat="45.58044" lon="5.42642">
        <ele>439</ele>
        <time>2021-04-03T12:36:36.588Z</time>
      </trkpt>
      <trkpt lat="45.58043" lon="5.42657">
        <ele>439</ele>
        <time>2021-04-03T12:36:37.588Z</time>
      </trkpt>
      <trkpt lat="45.58041" lon="5.42672">
        <ele>439</ele>
        <time>2021-04-03T12:36:38.588Z</time>
      </trkpt>
      <trkpt lat="45.5804" lon="5.42687">
        <ele>439</ele>
        <time>2021-04-03T12:36:39.588Z</time>
      </trkpt>
      <trkpt lat="45.58039" lon="5.42702">
        <ele>438</ele>
        <time>2021-04-03T12:36:40.588Z</time>
      </trkpt>
      <trkpt lat="45.58038" lon="5.42718">
        <ele>438</ele>
        <time>2021-04-03T12:36:41.588Z</time>
      </trkpt>
      <trkpt lat="45.58038" lon="5.42733">
        <ele>437</ele>
        <time>2021-04-03T12:36:42.587Z</time>
      </trkpt>
      <trkpt lat="45.58037" lon="5.42747">
        <ele>437</ele>
        <time>2021-04-03T12:36:43.588Z</time>
      </trkpt>
      <trkpt lat="45.58037" lon="5.42762">
        <ele>437</ele>
        <time>2021-04-03T12:36:44.588Z</time>
      </trkpt>
      <trkpt lat="45.58037" lon="5.42779">
        <ele>437</ele>
        <time>2021-04-03T12:36:45.588Z</time>
      </trkpt>
      <trkpt lat="45.58036" lon="5.4279">
        <ele>436</ele>
        <time>2021-04-03T12:36:46.587Z</time>
      </trkpt>
      <trkpt lat="45.58036" lon="5.42803">
        <ele>436</ele>
        <time>2021-04-03T12:36:47.588Z</time>
      </trkpt>
      <trkpt lat="45.58035" lon="5.42817">
        <ele>436</ele>
        <time>2021-04-03T12:36:48.587Z</time>
      </trkpt>
      <trkpt lat="45.58036" lon="5.4283">
        <ele>436</ele>
        <time>2021-04-03T12:36:49.587Z</time>
      </trkpt>
      <trkpt lat="45.58036" lon="5.42843">
        <ele>435</ele>
        <time>2021-04-03T12:36:50.587Z</time>
      </trkpt>
      <trkpt lat="45.58037" lon="5.42855">
        <ele>435</ele>
        <time>2021-04-03T12:36:51.588Z</time>
      </trkpt>
      <trkpt lat="45.58038" lon="5.42866">
        <ele>435</ele>
        <time>2021-04-03T12:36:52.588Z</time>
      </trkpt>
      <trkpt lat="45.5804" lon="5.42876">
        <ele>435</ele>
        <time>2021-04-03T12:36:53.587Z</time>
      </trkpt>
      <trkpt lat="45.58041" lon="5.42886">
        <ele>435</ele>
        <time>2021-04-03T12:36:54.588Z</time>
      </trkpt>
      <trkpt lat="45.58043" lon="5.42896">
        <ele>435</ele>
        <time>2021-04-03T12:36:55.588Z</time>
      </trkpt>
      <trkpt lat="45.58045" lon="5.42905">
        <ele>435</ele>
        <time>2021-04-03T12:36:56.588Z</time>
      </trkpt>
      <trkpt lat="45.58048" lon="5.42913">
        <ele>436</ele>
        <time>2021-04-03T12:36:57.588Z</time>
      </trkpt>
      <trkpt lat="45.5805" lon="5.42922">
        <ele>436</ele>
        <time>2021-04-03T12:36:58.587Z</time>
      </trkpt>
      <trkpt lat="45.58053" lon="5.4293">
        <ele>436</ele>
        <time>2021-04-03T12:36:59.587Z</time>
      </trkpt>
      <trkpt lat="45.58055" lon="5.42938">
        <ele>436</ele>
        <time>2021-04-03T12:37:00.587Z</time>
      </trkpt>
      <trkpt lat="45.58058" lon="5.42947">
        <ele>436</ele>
        <time>2021-04-03T12:37:01.587Z</time>
      </trkpt>
      <trkpt lat="45.5806" lon="5.42955">
        <ele>436</ele>
        <time>2021-04-03T12:37:02.587Z</time>
      </trkpt>
      <trkpt lat="45.58063" lon="5.42963">
        <ele>435</ele>
        <time>2021-04-03T12:37:03.587Z</time>
      </trkpt>
      <trkpt lat="45.58065" lon="5.4297">
        <ele>435</ele>
        <time>2021-04-03T12:37:04.587Z</time>
      </trkpt>
      <trkpt lat="45.58068" lon="5.42978">
        <ele>435</ele>
        <time>2021-04-03T12:37:05.588Z</time>
      </trkpt>
      <trkpt lat="45.5807" lon="5.42986">
        <ele>435</ele>
        <time>2021-04-03T12:37:06.588Z</time>
      </trkpt>
      <trkpt lat="45.58073" lon="5.42995">
        <ele>435</ele>
        <time>2021-04-03T12:37:07.588Z</time>
      </trkpt>
      <trkpt lat="45.58075" lon="5.43002">
        <ele>435</ele>
        <time>2021-04-03T12:37:08.588Z</time>
      </trkpt>
      <trkpt lat="45.58077" lon="5.4301">
        <ele>435</ele>
        <time>2021-04-03T12:37:09.588Z</time>
      </trkpt>
      <trkpt lat="45.5808" lon="5.43019">
        <ele>435</ele>
        <time>2021-04-03T12:37:10.588Z</time>
      </trkpt>
      <trkpt lat="45.58082" lon="5.43027">
        <ele>435</ele>
        <time>2021-04-03T12:37:11.587Z</time>
      </trkpt>
      <trkpt lat="45.58085" lon="5.43036">
        <ele>435</ele>
        <time>2021-04-03T12:37:12.588Z</time>
      </trkpt>
      <trkpt lat="45.58088" lon="5.43045">
        <ele>434</ele>
        <time>2021-04-03T12:37:13.588Z</time>
      </trkpt>
      <trkpt lat="45.58091" lon="5.43054">
        <ele>434</ele>
        <time>2021-04-03T12:37:14.588Z</time>
      </trkpt>
      <trkpt lat="45.58094" lon="5.43063">
        <ele>434</ele>
        <time>2021-04-03T12:37:15.587Z</time>
      </trkpt>
      <trkpt lat="45.58098" lon="5.43072">
        <ele>434</ele>
        <time>2021-04-03T12:37:16.588Z</time>
      </trkpt>
      <trkpt lat="45.58101" lon="5.43081">
        <ele>434</ele>
        <time>2021-04-03T12:37:17.587Z</time>
      </trkpt>
      <trkpt lat="45.58105" lon="5.43091">
        <ele>435</ele>
        <time>2021-04-03T12:37:18.588Z</time>
      </trkpt>
      <trkpt lat="45.58108" lon="5.431">
        <ele>435</ele>
        <time>2021-04-03T12:37:19.588Z</time>
      </trkpt>
      <trkpt lat="45.58112" lon="5.4311">
        <ele>435</ele>
        <time>2021-04-03T12:37:20.587Z</time>
      </trkpt>
      <trkpt lat="45.58115" lon="5.43121">
        <ele>435</ele>
        <time>2021-04-03T12:37:21.587Z</time>
      </trkpt>
      <trkpt lat="45.58118" lon="5.43131">
        <ele>434</ele>
        <time>2021-04-03T12:37:22.587Z</time>
      </trkpt>
      <trkpt lat="45.58121" lon="5.43141">
        <ele>434</ele>
        <time>2021-04-03T12:37:23.588Z</time>
      </trkpt>
      <trkpt lat="45.58125" lon="5.43151">
        <ele>434</ele>
        <time>2021-04-03T12:37:24.588Z</time>
      </trkpt>
      <trkpt lat="45.58129" lon="5.43161">
        <ele>433</ele>
        <time>2021-04-03T12:37:25.587Z</time>
      </trkpt>
      <trkpt lat="45.58133" lon="5.43172">
        <ele>433</ele>
        <time>2021-04-03T12:37:26.587Z</time>
      </trkpt>
      <trkpt lat="45.58137" lon="5.43182">
        <ele>432</ele>
        <time>2021-04-03T12:37:27.588Z</time>
      </trkpt>
      <trkpt lat="45.58141" lon="5.43193">
        <ele>432</ele>
        <time>2021-04-03T12:37:28.588Z</time>
      </trkpt>
      <trkpt lat="45.58146" lon="5.43206">
        <ele>432</ele>
        <time>2021-04-03T12:37:29.587Z</time>
      </trkpt>
      <trkpt lat="45.5815" lon="5.43214">
        <ele>432</ele>
        <time>2021-04-03T12:37:30.588Z</time>
      </trkpt>
      <trkpt lat="45.58155" lon="5.43224">
        <ele>432</ele>
        <time>2021-04-03T12:37:31.588Z</time>
      </trkpt>
      <trkpt lat="45.58159" lon="5.43235">
        <ele>431</ele>
        <time>2021-04-03T12:37:32.588Z</time>
      </trkpt>
      <trkpt lat="45.58163" lon="5.43246">
        <ele>431</ele>
        <time>2021-04-03T12:37:33.588Z</time>
      </trkpt>
      <trkpt lat="45.58166" lon="5.43257">
        <ele>430</ele>
        <time>2021-04-03T12:37:34.587Z</time>
      </trkpt>
      <trkpt lat="45.5817" lon="5.43269">
        <ele>430</ele>
        <time>2021-04-03T12:37:35.587Z</time>
      </trkpt>
      <trkpt lat="45.58174" lon="5.4328">
        <ele>429</ele>
        <time>2021-04-03T12:37:36.587Z</time>
      </trkpt>
      <trkpt lat="45.58178" lon="5.43292">
        <ele>429</ele>
        <time>2021-04-03T12:37:37.587Z</time>
      </trkpt>
      <trkpt lat="45.58182" lon="5.43306">
        <ele>429</ele>
        <time>2021-04-03T12:37:38.588Z</time>
      </trkpt>
      <trkpt lat="45.58184" lon="5.43316">
        <ele>428</ele>
        <time>2021-04-03T12:37:39.588Z</time>
      </trkpt>
      <trkpt lat="45.58185" lon="5.43329">
        <ele>428</ele>
        <time>2021-04-03T12:37:40.587Z</time>
      </trkpt>
      <trkpt lat="45.58186" lon="5.43342">
        <ele>428</ele>
        <time>2021-04-03T12:37:41.588Z</time>
      </trkpt>
      <trkpt lat="45.58185" lon="5.43355">
        <ele>427</ele>
        <time>2021-04-03T12:37:42.588Z</time>
      </trkpt>
      <trkpt lat="45.58184" lon="5.43368">
        <ele>427</ele>
        <time>2021-04-03T12:37:43.588Z</time>
      </trkpt>
      <trkpt lat="45.58183" lon="5.43383">
        <ele>427</ele>
        <time>2021-04-03T12:37:44.588Z</time>
      </trkpt>
      <trkpt lat="45.58183" lon="5.43393">
        <ele>427</ele>
        <time>2021-04-03T12:37:45.588Z</time>
      </trkpt>
      <trkpt lat="45.58182" lon="5.43407">
        <ele>426</ele>
        <time>2021-04-03T12:37:46.587Z</time>
      </trkpt>
      <trkpt lat="45.58182" lon="5.43416">
        <ele>426</ele>
        <time>2021-04-03T12:37:47.588Z</time>
      </trkpt>
      <trkpt lat="45.58183" lon="5.43429">
        <ele>426</ele>
        <time>2021-04-03T12:37:48.588Z</time>
      </trkpt>
      <trkpt lat="45.58183" lon="5.43437">
        <ele>426</ele>
        <time>2021-04-03T12:37:49.588Z</time>
      </trkpt>
      <trkpt lat="45.58184" lon="5.43448">
        <ele>427</ele>
        <time>2021-04-03T12:37:50.587Z</time>
      </trkpt>
      <trkpt lat="45.58184" lon="5.4346">
        <ele>427</ele>
        <time>2021-04-03T12:37:51.587Z</time>
      </trkpt>
      <trkpt lat="45.58184" lon="5.43468">
        <ele>427</ele>
        <time>2021-04-03T12:37:52.588Z</time>
      </trkpt>
      <trkpt lat="45.58185" lon="5.43477">
        <ele>427</ele>
        <time>2021-04-03T12:37:53.588Z</time>
      </trkpt>
      <trkpt lat="45.58185" lon="5.43486">
        <ele>427</ele>
        <time>2021-04-03T12:37:54.588Z</time>
      </trkpt>
      <trkpt lat="45.58186" lon="5.43494">
        <ele>428</ele>
        <time>2021-04-03T12:37:55.587Z</time>
      </trkpt>
      <trkpt lat="45.58186" lon="5.43502">
        <ele>428</ele>
        <time>2021-04-03T12:37:56.588Z</time>
      </trkpt>
      <trkpt lat="45.58187" lon="5.43509">
        <ele>427</ele>
        <time>2021-04-03T12:37:57.588Z</time>
      </trkpt>
      <trkpt lat="45.58188" lon="5.43517">
        <ele>427</ele>
        <time>2021-04-03T12:37:58.588Z</time>
      </trkpt>
      <trkpt lat="45.58189" lon="5.43524">
        <ele>427</ele>
        <time>2021-04-03T12:37:59.588Z</time>
      </trkpt>
      <trkpt lat="45.58189" lon="5.43532">
        <ele>427</ele>
        <time>2021-04-03T12:38:00.587Z</time>
      </trkpt>
      <trkpt lat="45.58189" lon="5.4354">
        <ele>427</ele>
        <time>2021-04-03T12:38:01.587Z</time>
      </trkpt>
      <trkpt lat="45.5819" lon="5.43548">
        <ele>428</ele>
        <time>2021-04-03T12:38:02.588Z</time>
      </trkpt>
      <trkpt lat="45.58191" lon="5.43556">
        <ele>428</ele>
        <time>2021-04-03T12:38:03.588Z</time>
      </trkpt>
      <trkpt lat="45.58192" lon="5.43564">
        <ele>428</ele>
        <time>2021-04-03T12:38:04.588Z</time>
      </trkpt>
      <trkpt lat="45.58193" lon="5.43572">
        <ele>428</ele>
        <time>2021-04-03T12:38:05.588Z</time>
      </trkpt>
      <trkpt lat="45.58194" lon="5.43579">
        <ele>428</ele>
        <time>2021-04-03T12:38:06.587Z</time>
      </trkpt>
      <trkpt lat="45.58195" lon="5.43587">
        <ele>428</ele>
        <time>2021-04-03T12:38:07.588Z</time>
      </trkpt>
      <trkpt lat="45.58196" lon="5.43595">
        <ele>428</ele>
        <time>2021-04-03T12:38:08.588Z</time>
      </trkpt>
      <trkpt lat="45.58197" lon="5.43602">
        <ele>428</ele>
        <time>2021-04-03T12:38:09.587Z</time>
      </trkpt>
      <trkpt lat="45.58199" lon="5.4361">
        <ele>429</ele>
        <time>2021-04-03T12:38:10.587Z</time>
      </trkpt>
      <trkpt lat="45.582" lon="5.43617">
        <ele>429</ele>
        <time>2021-04-03T12:38:11.587Z</time>
      </trkpt>
      <trkpt lat="45.58202" lon="5.43624">
        <ele>429</ele>
        <time>2021-04-03T12:38:12.587Z</time>
      </trkpt>
      <trkpt lat="45.58204" lon="5.43632">
        <ele>429</ele>
        <time>2021-04-03T12:38:13.588Z</time>
      </trkpt>
      <trkpt lat="45.58205" lon="5.43639">
        <ele>429</ele>
        <time>2021-04-03T12:38:14.588Z</time>
      </trkpt>
      <trkpt lat="45.58206" lon="5.43646">
        <ele>429</ele>
        <time>2021-04-03T12:38:15.587Z</time>
      </trkpt>
      <trkpt lat="45.58208" lon="5.43652">
        <ele>429</ele>
        <time>2021-04-03T12:38:16.587Z</time>
      </trkpt>
      <trkpt lat="45.58209" lon="5.43658">
        <ele>429</ele>
        <time>2021-04-03T12:38:17.588Z</time>
      </trkpt>
      <trkpt lat="45.58211" lon="5.43664">
        <ele>429</ele>
        <time>2021-04-03T12:38:18.587Z</time>
      </trkpt>
      <trkpt lat="45.58212" lon="5.43671">
        <ele>429</ele>
        <time>2021-04-03T12:38:19.588Z</time>
      </trkpt>
      <trkpt lat="45.58213" lon="5.43676">
        <ele>429</ele>
        <time>2021-04-03T12:38:20.587Z</time>
      </trkpt>
      <trkpt lat="45.58215" lon="5.43682">
        <ele>429</ele>
        <time>2021-04-03T12:38:21.587Z</time>
      </trkpt>
      <trkpt lat="45.58217" lon="5.43687">
        <ele>429</ele>
        <time>2021-04-03T12:38:22.587Z</time>
      </trkpt>
      <trkpt lat="45.58217" lon="5.43692">
        <ele>429</ele>
        <time>2021-04-03T12:38:23.588Z</time>
      </trkpt>
      <trkpt lat="45.58218" lon="5.43696">
        <ele>429</ele>
        <time>2021-04-03T12:38:24.587Z</time>
      </trkpt>
      <trkpt lat="45.58219" lon="5.43701">
        <ele>429</ele>
        <time>2021-04-03T12:38:25.587Z</time>
      </trkpt>
      <trkpt lat="45.5822" lon="5.43705">
        <ele>429</ele>
        <time>2021-04-03T12:38:26.588Z</time>
      </trkpt>
      <trkpt lat="45.58222" lon="5.43709">
        <ele>429</ele>
        <time>2021-04-03T12:38:27.587Z</time>
      </trkpt>
      <trkpt lat="45.58224" lon="5.43715">
        <ele>430</ele>
        <time>2021-04-03T12:38:28.588Z</time>
      </trkpt>
      <trkpt lat="45.58225" lon="5.43721">
        <ele>430</ele>
        <time>2021-04-03T12:38:29.588Z</time>
      </trkpt>
      <trkpt lat="45.58227" lon="5.43728">
        <ele>431</ele>
        <time>2021-04-03T12:38:30.587Z</time>
      </trkpt>
      <trkpt lat="45.58229" lon="5.43735">
        <ele>431</ele>
        <time>2021-04-03T12:38:31.587Z</time>
      </trkpt>
      <trkpt lat="45.5823" lon="5.43743">
        <ele>431</ele>
        <time>2021-04-03T12:38:32.587Z</time>
      </trkpt>
      <trkpt lat="45.5823" lon="5.43752">
        <ele>430</ele>
        <time>2021-04-03T12:38:33.587Z</time>
      </trkpt>
      <trkpt lat="45.58231" lon="5.43761">
        <ele>431</ele>
        <time>2021-04-03T12:38:34.588Z</time>
      </trkpt>
      <trkpt lat="45.58232" lon="5.4377">
        <ele>431</ele>
        <time>2021-04-03T12:38:35.588Z</time>
      </trkpt>
      <trkpt lat="45.58232" lon="5.4378">
        <ele>431</ele>
        <time>2021-04-03T12:38:36.587Z</time>
      </trkpt>
      <trkpt lat="45.58234" lon="5.43789">
        <ele>431</ele>
        <time>2021-04-03T12:38:37.588Z</time>
      </trkpt>
      <trkpt lat="45.58235" lon="5.43799">
        <ele>432</ele>
        <time>2021-04-03T12:38:38.588Z</time>
      </trkpt>
      <trkpt lat="45.58236" lon="5.43808">
        <ele>432</ele>
        <time>2021-04-03T12:38:39.588Z</time>
      </trkpt>
      <trkpt lat="45.58236" lon="5.43816">
        <ele>432</ele>
        <time>2021-04-03T12:38:40.587Z</time>
      </trkpt>
      <trkpt lat="45.58237" lon="5.43825">
        <ele>432</ele>
        <time>2021-04-03T12:38:41.587Z</time>
      </trkpt>
      <trkpt lat="45.58238" lon="5.43833">
        <ele>432</ele>
        <time>2021-04-03T12:38:42.588Z</time>
      </trkpt>
      <trkpt lat="45.58239" lon="5.43841">
        <ele>433</ele>
        <time>2021-04-03T12:38:43.588Z</time>
      </trkpt>
      <trkpt lat="45.5824" lon="5.43849">
        <ele>434</ele>
        <time>2021-04-03T12:38:44.588Z</time>
      </trkpt>
      <trkpt lat="45.5824" lon="5.43856">
        <ele>435</ele>
        <time>2021-04-03T12:38:45.587Z</time>
      </trkpt>
      <trkpt lat="45.58241" lon="5.43863">
        <ele>436</ele>
        <time>2021-04-03T12:38:46.588Z</time>
      </trkpt>
      <trkpt lat="45.58242" lon="5.43871">
        <ele>436</ele>
        <time>2021-04-03T12:38:47.588Z</time>
      </trkpt>
      <trkpt lat="45.58242" lon="5.43879">
        <ele>436</ele>
        <time>2021-04-03T12:38:48.588Z</time>
      </trkpt>
      <trkpt lat="45.58243" lon="5.43886">
        <ele>436</ele>
        <time>2021-04-03T12:38:49.587Z</time>
      </trkpt>
      <trkpt lat="45.58243" lon="5.43894">
        <ele>436</ele>
        <time>2021-04-03T12:38:50.588Z</time>
      </trkpt>
      <trkpt lat="45.58244" lon="5.43902">
        <ele>436</ele>
        <time>2021-04-03T12:38:51.588Z</time>
      </trkpt>
      <trkpt lat="45.58244" lon="5.4391">
        <ele>436</ele>
        <time>2021-04-03T12:38:52.588Z</time>
      </trkpt>
      <trkpt lat="45.58245" lon="5.43918">
        <ele>436</ele>
        <time>2021-04-03T12:38:53.588Z</time>
      </trkpt>
      <trkpt lat="45.58246" lon="5.43926">
        <ele>435</ele>
        <time>2021-04-03T12:38:54.588Z</time>
      </trkpt>
      <trkpt lat="45.58247" lon="5.43934">
        <ele>436</ele>
        <time>2021-04-03T12:38:55.588Z</time>
      </trkpt>
      <trkpt lat="45.58248" lon="5.43942">
        <ele>436</ele>
        <time>2021-04-03T12:38:56.587Z</time>
      </trkpt>
      <trkpt lat="45.58249" lon="5.43951">
        <ele>436</ele>
        <time>2021-04-03T12:38:57.588Z</time>
      </trkpt>
      <trkpt lat="45.58249" lon="5.43959">
        <ele>436</ele>
        <time>2021-04-03T12:38:58.588Z</time>
      </trkpt>
      <trkpt lat="45.5825" lon="5.43967">
        <ele>436</ele>
        <time>2021-04-03T12:38:59.588Z</time>
      </trkpt>
      <trkpt lat="45.58251" lon="5.43975">
        <ele>436</ele>
        <time>2021-04-03T12:39:00.587Z</time>
      </trkpt>
      <trkpt lat="45.58251" lon="5.43983">
        <ele>436</ele>
        <time>2021-04-03T12:39:01.588Z</time>
      </trkpt>
      <trkpt lat="45.58252" lon="5.43991">
        <ele>436</ele>
        <time>2021-04-03T12:39:02.588Z</time>
      </trkpt>
      <trkpt lat="45.58253" lon="5.43998">
        <ele>435</ele>
        <time>2021-04-03T12:39:03.588Z</time>
      </trkpt>
      <trkpt lat="45.58253" lon="5.44006">
        <ele>435</ele>
        <time>2021-04-03T12:39:04.588Z</time>
      </trkpt>
      <trkpt lat="45.58254" lon="5.44014">
        <ele>435</ele>
        <time>2021-04-03T12:39:05.588Z</time>
      </trkpt>
      <trkpt lat="45.58255" lon="5.44023">
        <ele>435</ele>
        <time>2021-04-03T12:39:06.587Z</time>
      </trkpt>
      <trkpt lat="45.58255" lon="5.4403">
        <ele>435</ele>
        <time>2021-04-03T12:39:07.587Z</time>
      </trkpt>
      <trkpt lat="45.58256" lon="5.44038">
        <ele>435</ele>
        <time>2021-04-03T12:39:08.587Z</time>
      </trkpt>
      <trkpt lat="45.58257" lon="5.44046">
        <ele>436</ele>
        <time>2021-04-03T12:39:09.588Z</time>
      </trkpt>
      <trkpt lat="45.58258" lon="5.44054">
        <ele>436</ele>
        <time>2021-04-03T12:39:10.588Z</time>
      </trkpt>
      <trkpt lat="45.58258" lon="5.44062">
        <ele>436</ele>
        <time>2021-04-03T12:39:11.587Z</time>
      </trkpt>
      <trkpt lat="45.58259" lon="5.4407">
        <ele>436</ele>
        <time>2021-04-03T12:39:12.588Z</time>
      </trkpt>
      <trkpt lat="45.58259" lon="5.44078">
        <ele>436</ele>
        <time>2021-04-03T12:39:13.588Z</time>
      </trkpt>
      <trkpt lat="45.5826" lon="5.44086">
        <ele>436</ele>
        <time>2021-04-03T12:39:14.588Z</time>
      </trkpt>
      <trkpt lat="45.58261" lon="5.44095">
        <ele>436</ele>
        <time>2021-04-03T12:39:15.587Z</time>
      </trkpt>
      <trkpt lat="45.58261" lon="5.44103">
        <ele>436</ele>
        <time>2021-04-03T12:39:16.588Z</time>
      </trkpt>
      <trkpt lat="45.58262" lon="5.44111">
        <ele>436</ele>
        <time>2021-04-03T12:39:17.588Z</time>
      </trkpt>
      <trkpt lat="45.58262" lon="5.44119">
        <ele>436</ele>
        <time>2021-04-03T12:39:18.588Z</time>
      </trkpt>
      <trkpt lat="45.58263" lon="5.44127">
        <ele>436</ele>
        <time>2021-04-03T12:39:19.588Z</time>
      </trkpt>
      <trkpt lat="45.58263" lon="5.44135">
        <ele>436</ele>
        <time>2021-04-03T12:39:20.587Z</time>
      </trkpt>
      <trkpt lat="45.58263" lon="5.44143">
        <ele>436</ele>
        <time>2021-04-03T12:39:21.588Z</time>
      </trkpt>
      <trkpt lat="45.58263" lon="5.44151">
        <ele>437</ele>
        <time>2021-04-03T12:39:22.587Z</time>
      </trkpt>
      <trkpt lat="45.58263" lon="5.44159">
        <ele>437</ele>
        <time>2021-04-03T12:39:23.588Z</time>
      </trkpt>
      <trkpt lat="45.58263" lon="5.44167">
        <ele>436</ele>
        <time>2021-04-03T12:39:24.587Z</time>
      </trkpt>
      <trkpt lat="45.58263" lon="5.44175">
        <ele>436</ele>
        <time>2021-04-03T12:39:25.588Z</time>
      </trkpt>
      <trkpt lat="45.58263" lon="5.44183">
        <ele>437</ele>
        <time>2021-04-03T12:39:26.588Z</time>
      </trkpt>
      <trkpt lat="45.58263" lon="5.44191">
        <ele>437</ele>
        <time>2021-04-03T12:39:27.588Z</time>
      </trkpt>
      <trkpt lat="45.58263" lon="5.44199">
        <ele>437</ele>
        <time>2021-04-03T12:39:28.588Z</time>
      </trkpt>
      <trkpt lat="45.58263" lon="5.44206">
        <ele>438</ele>
        <time>2021-04-03T12:39:29.587Z</time>
      </trkpt>
      <trkpt lat="45.58263" lon="5.44213">
        <ele>438</ele>
        <time>2021-04-03T12:39:30.588Z</time>
      </trkpt>
      <trkpt lat="45.58263" lon="5.4422">
        <ele>438</ele>
        <time>2021-04-03T12:39:31.588Z</time>
      </trkpt>
      <trkpt lat="45.58263" lon="5.44228">
        <ele>438</ele>
        <time>2021-04-03T12:39:32.588Z</time>
      </trkpt>
      <trkpt lat="45.58263" lon="5.44235">
        <ele>438</ele>
        <time>2021-04-03T12:39:33.587Z</time>
      </trkpt>
      <trkpt lat="45.58262" lon="5.44243">
        <ele>438</ele>
        <time>2021-04-03T12:39:34.588Z</time>
      </trkpt>
      <trkpt lat="45.58262" lon="5.44251">
        <ele>437</ele>
        <time>2021-04-03T12:39:35.588Z</time>
      </trkpt>
      <trkpt lat="45.58261" lon="5.44259">
        <ele>437</ele>
        <time>2021-04-03T12:39:36.588Z</time>
      </trkpt>
      <trkpt lat="45.58261" lon="5.44267">
        <ele>436</ele>
        <time>2021-04-03T12:39:37.587Z</time>
      </trkpt>
      <trkpt lat="45.58261" lon="5.44276">
        <ele>436</ele>
        <time>2021-04-03T12:39:38.588Z</time>
      </trkpt>
      <trkpt lat="45.58262" lon="5.44284">
        <ele>436</ele>
        <time>2021-04-03T12:39:39.588Z</time>
      </trkpt>
      <trkpt lat="45.58264" lon="5.44292">
        <ele>436</ele>
        <time>2021-04-03T12:39:40.587Z</time>
      </trkpt>
      <trkpt lat="45.58267" lon="5.44299">
        <ele>437</ele>
        <time>2021-04-03T12:39:41.588Z</time>
      </trkpt>
      <trkpt lat="45.58271" lon="5.44304">
        <ele>437</ele>
        <time>2021-04-03T12:39:42.588Z</time>
      </trkpt>
      <trkpt lat="45.58276" lon="5.44309">
        <ele>437</ele>
        <time>2021-04-03T12:39:43.587Z</time>
      </trkpt>
      <trkpt lat="45.5828" lon="5.44314">
        <ele>437</ele>
        <time>2021-04-03T12:39:44.587Z</time>
      </trkpt>
      <trkpt lat="45.58286" lon="5.44318">
        <ele>436</ele>
        <time>2021-04-03T12:39:45.588Z</time>
      </trkpt>
      <trkpt lat="45.58291" lon="5.44322">
        <ele>436</ele>
        <time>2021-04-03T12:39:46.588Z</time>
      </trkpt>
      <trkpt lat="45.58297" lon="5.44327">
        <ele>436</ele>
        <time>2021-04-03T12:39:47.587Z</time>
      </trkpt>
      <trkpt lat="45.58302" lon="5.44332">
        <ele>437</ele>
        <time>2021-04-03T12:39:48.588Z</time>
      </trkpt>
      <trkpt lat="45.58307" lon="5.44336">
        <ele>437</ele>
        <time>2021-04-03T12:39:49.588Z</time>
      </trkpt>
      <trkpt lat="45.58311" lon="5.44341">
        <ele>437</ele>
        <time>2021-04-03T12:39:50.588Z</time>
      </trkpt>
      <trkpt lat="45.58315" lon="5.44346">
        <ele>438</ele>
        <time>2021-04-03T12:39:51.588Z</time>
      </trkpt>
      <trkpt lat="45.58319" lon="5.44351">
        <ele>438</ele>
        <time>2021-04-03T12:39:52.587Z</time>
      </trkpt>
      <trkpt lat="45.58323" lon="5.44356">
        <ele>439</ele>
        <time>2021-04-03T12:39:53.587Z</time>
      </trkpt>
      <trkpt lat="45.58326" lon="5.44361">
        <ele>439</ele>
        <time>2021-04-03T12:39:54.588Z</time>
      </trkpt>
      <trkpt lat="45.5833" lon="5.44366">
        <ele>440</ele>
        <time>2021-04-03T12:39:55.588Z</time>
      </trkpt>
      <trkpt lat="45.58333" lon="5.44371">
        <ele>440</ele>
        <time>2021-04-03T12:39:56.587Z</time>
      </trkpt>
      <trkpt lat="45.58336" lon="5.44376">
        <ele>440</ele>
        <time>2021-04-03T12:39:57.588Z</time>
      </trkpt>
      <trkpt lat="45.5834" lon="5.44381">
        <ele>440</ele>
        <time>2021-04-03T12:39:58.588Z</time>
      </trkpt>
      <trkpt lat="45.58343" lon="5.44387">
        <ele>440</ele>
        <time>2021-04-03T12:39:59.588Z</time>
      </trkpt>
      <trkpt lat="45.58346" lon="5.44394">
        <ele>440</ele>
        <time>2021-04-03T12:40:00.588Z</time>
      </trkpt>
      <trkpt lat="45.5835" lon="5.444">
        <ele>440</ele>
        <time>2021-04-03T12:40:01.587Z</time>
      </trkpt>
      <trkpt lat="45.58353" lon="5.44407">
        <ele>440</ele>
        <time>2021-04-03T12:40:02.588Z</time>
      </trkpt>
      <trkpt lat="45.58356" lon="5.44414">
        <ele>440</ele>
        <time>2021-04-03T12:40:03.588Z</time>
      </trkpt>
      <trkpt lat="45.58359" lon="5.44421">
        <ele>440</ele>
        <time>2021-04-03T12:40:04.588Z</time>
      </trkpt>
      <trkpt lat="45.58362" lon="5.44428">
        <ele>440</ele>
        <time>2021-04-03T12:40:05.587Z</time>
      </trkpt>
      <trkpt lat="45.58365" lon="5.44435">
        <ele>440</ele>
        <time>2021-04-03T12:40:06.588Z</time>
      </trkpt>
      <trkpt lat="45.58368" lon="5.44441">
        <ele>439</ele>
        <time>2021-04-03T12:40:07.588Z</time>
      </trkpt>
      <trkpt lat="45.58371" lon="5.44448">
        <ele>439</ele>
        <time>2021-04-03T12:40:08.588Z</time>
      </trkpt>
      <trkpt lat="45.58374" lon="5.44455">
        <ele>439</ele>
        <time>2021-04-03T12:40:09.587Z</time>
      </trkpt>
      <trkpt lat="45.58377" lon="5.44462">
        <ele>439</ele>
        <time>2021-04-03T12:40:10.587Z</time>
      </trkpt>
      <trkpt lat="45.5838" lon="5.4447">
        <ele>439</ele>
        <time>2021-04-03T12:40:11.588Z</time>
      </trkpt>
      <trkpt lat="45.58383" lon="5.44476">
        <ele>439</ele>
        <time>2021-04-03T12:40:12.588Z</time>
      </trkpt>
      <trkpt lat="45.58385" lon="5.44483">
        <ele>439</ele>
        <time>2021-04-03T12:40:13.588Z</time>
      </trkpt>
      <trkpt lat="45.58388" lon="5.4449">
        <ele>438</ele>
        <time>2021-04-03T12:40:14.587Z</time>
      </trkpt>
      <trkpt lat="45.58391" lon="5.44497">
        <ele>438</ele>
        <time>2021-04-03T12:40:15.588Z</time>
      </trkpt>
      <trkpt lat="45.58393" lon="5.44504">
        <ele>438</ele>
        <time>2021-04-03T12:40:16.588Z</time>
      </trkpt>
      <trkpt lat="45.58396" lon="5.44511">
        <ele>438</ele>
        <time>2021-04-03T12:40:17.588Z</time>
      </trkpt>
      <trkpt lat="45.58398" lon="5.44518">
        <ele>438</ele>
        <time>2021-04-03T12:40:18.588Z</time>
      </trkpt>
      <trkpt lat="45.584" lon="5.44525">
        <ele>438</ele>
        <time>2021-04-03T12:40:19.588Z</time>
      </trkpt>
      <trkpt lat="45.58402" lon="5.44533">
        <ele>438</ele>
        <time>2021-04-03T12:40:20.587Z</time>
      </trkpt>
      <trkpt lat="45.58405" lon="5.4454">
        <ele>439</ele>
        <time>2021-04-03T12:40:21.587Z</time>
      </trkpt>
      <trkpt lat="45.58406" lon="5.44548">
        <ele>439</ele>
        <time>2021-04-03T12:40:22.588Z</time>
      </trkpt>
      <trkpt lat="45.58408" lon="5.44555">
        <ele>439</ele>
        <time>2021-04-03T12:40:23.588Z</time>
      </trkpt>
      <trkpt lat="45.5841" lon="5.44563">
        <ele>439</ele>
        <time>2021-04-03T12:40:24.587Z</time>
      </trkpt>
      <trkpt lat="45.58411" lon="5.44571">
        <ele>438</ele>
        <time>2021-04-03T12:40:25.588Z</time>
      </trkpt>
      <trkpt lat="45.58413" lon="5.44579">
        <ele>438</ele>
        <time>2021-04-03T12:40:26.587Z</time>
      </trkpt>
      <trkpt lat="45.58414" lon="5.44587">
        <ele>438</ele>
        <time>2021-04-03T12:40:27.587Z</time>
      </trkpt>
      <trkpt lat="45.58416" lon="5.44595">
        <ele>438</ele>
        <time>2021-04-03T12:40:28.588Z</time>
      </trkpt>
      <trkpt lat="45.58417" lon="5.44604">
        <ele>438</ele>
        <time>2021-04-03T12:40:29.587Z</time>
      </trkpt>
      <trkpt lat="45.58419" lon="5.44612">
        <ele>438</ele>
        <time>2021-04-03T12:40:30.588Z</time>
      </trkpt>
      <trkpt lat="45.5842" lon="5.4462">
        <ele>438</ele>
        <time>2021-04-03T12:40:31.588Z</time>
      </trkpt>
      <trkpt lat="45.58422" lon="5.44629">
        <ele>438</ele>
        <time>2021-04-03T12:40:32.587Z</time>
      </trkpt>
      <trkpt lat="45.58423" lon="5.44637">
        <ele>438</ele>
        <time>2021-04-03T12:40:33.588Z</time>
      </trkpt>
      <trkpt lat="45.58424" lon="5.44646">
        <ele>438</ele>
        <time>2021-04-03T12:40:34.588Z</time>
      </trkpt>
      <trkpt lat="45.58426" lon="5.44654">
        <ele>438</ele>
        <time>2021-04-03T12:40:35.588Z</time>
      </trkpt>
      <trkpt lat="45.58427" lon="5.44663">
        <ele>438</ele>
        <time>2021-04-03T12:40:36.588Z</time>
      </trkpt>
      <trkpt lat="45.58428" lon="5.44672">
        <ele>439</ele>
        <time>2021-04-03T12:40:37.588Z</time>
      </trkpt>
      <trkpt lat="45.58429" lon="5.4468">
        <ele>439</ele>
        <time>2021-04-03T12:40:38.587Z</time>
      </trkpt>
      <trkpt lat="45.5843" lon="5.44689">
        <ele>440</ele>
        <time>2021-04-03T12:40:39.587Z</time>
      </trkpt>
      <trkpt lat="45.58431" lon="5.44698">
        <ele>440</ele>
        <time>2021-04-03T12:40:40.588Z</time>
      </trkpt>
      <trkpt lat="45.58432" lon="5.44707">
        <ele>440</ele>
        <time>2021-04-03T12:40:41.588Z</time>
      </trkpt>
      <trkpt lat="45.58433" lon="5.44716">
        <ele>440</ele>
        <time>2021-04-03T12:40:42.588Z</time>
      </trkpt>
      <trkpt lat="45.58434" lon="5.44725">
        <ele>440</ele>
        <time>2021-04-03T12:40:43.588Z</time>
      </trkpt>
      <trkpt lat="45.58435" lon="5.44734">
        <ele>441</ele>
        <time>2021-04-03T12:40:44.588Z</time>
      </trkpt>
      <trkpt lat="45.58435" lon="5.44743">
        <ele>440</ele>
        <time>2021-04-03T12:40:45.588Z</time>
      </trkpt>
      <trkpt lat="45.58436" lon="5.44752">
        <ele>440</ele>
        <time>2021-04-03T12:40:46.587Z</time>
      </trkpt>
      <trkpt lat="45.58437" lon="5.4476">
        <ele>440</ele>
        <time>2021-04-03T12:40:47.588Z</time>
      </trkpt>
      <trkpt lat="45.58438" lon="5.44769">
        <ele>440</ele>
        <time>2021-04-03T12:40:48.587Z</time>
      </trkpt>
      <trkpt lat="45.58439" lon="5.44776">
        <ele>440</ele>
        <time>2021-04-03T12:40:49.588Z</time>
      </trkpt>
      <trkpt lat="45.5844" lon="5.44783">
        <ele>440</ele>
        <time>2021-04-03T12:40:50.587Z</time>
      </trkpt>
      <trkpt lat="45.58441" lon="5.4479">
        <ele>440</ele>
        <time>2021-04-03T12:40:51.587Z</time>
      </trkpt>
      <trkpt lat="45.58441" lon="5.44796">
        <ele>440</ele>
        <time>2021-04-03T12:40:52.588Z</time>
      </trkpt>
      <trkpt lat="45.58442" lon="5.44803">
        <ele>440</ele>
        <time>2021-04-03T12:40:53.588Z</time>
      </trkpt>
      <trkpt lat="45.58444" lon="5.4481">
        <ele>440</ele>
        <time>2021-04-03T12:40:54.588Z</time>
      </trkpt>
      <trkpt lat="45.58445" lon="5.44817">
        <ele>440</ele>
        <time>2021-04-03T12:40:55.587Z</time>
      </trkpt>
      <trkpt lat="45.58446" lon="5.44825">
        <ele>440</ele>
        <time>2021-04-03T12:40:56.588Z</time>
      </trkpt>
      <trkpt lat="45.58448" lon="5.44832">
        <ele>441</ele>
        <time>2021-04-03T12:40:57.588Z</time>
      </trkpt>
      <trkpt lat="45.5845" lon="5.4484">
        <ele>441</ele>
        <time>2021-04-03T12:40:58.588Z</time>
      </trkpt>
      <trkpt lat="45.58451" lon="5.44847">
        <ele>441</ele>
        <time>2021-04-03T12:40:59.588Z</time>
      </trkpt>
      <trkpt lat="45.58453" lon="5.44855">
        <ele>442</ele>
        <time>2021-04-03T12:41:00.588Z</time>
      </trkpt>
      <trkpt lat="45.58455" lon="5.44862">
        <ele>443</ele>
        <time>2021-04-03T12:41:01.588Z</time>
      </trkpt>
      <trkpt lat="45.58457" lon="5.4487">
        <ele>443</ele>
        <time>2021-04-03T12:41:02.587Z</time>
      </trkpt>
      <trkpt lat="45.58459" lon="5.44877">
        <ele>443</ele>
        <time>2021-04-03T12:41:03.587Z</time>
      </trkpt>
      <trkpt lat="45.58461" lon="5.44884">
        <ele>443</ele>
        <time>2021-04-03T12:41:04.587Z</time>
      </trkpt>
      <trkpt lat="45.58462" lon="5.44892">
        <ele>443</ele>
        <time>2021-04-03T12:41:05.587Z</time>
      </trkpt>
      <trkpt lat="45.58464" lon="5.44899">
        <ele>443</ele>
        <time>2021-04-03T12:41:06.588Z</time>
      </trkpt>
      <trkpt lat="45.58466" lon="5.44907">
        <ele>443</ele>
        <time>2021-04-03T12:41:07.588Z</time>
      </trkpt>
      <trkpt lat="45.58468" lon="5.44914">
        <ele>443</ele>
        <time>2021-04-03T12:41:08.588Z</time>
      </trkpt>
      <trkpt lat="45.58469" lon="5.44922">
        <ele>444</ele>
        <time>2021-04-03T12:41:09.587Z</time>
      </trkpt>
      <trkpt lat="45.5847" lon="5.4493">
        <ele>444</ele>
        <time>2021-04-03T12:41:10.588Z</time>
      </trkpt>
      <trkpt lat="45.58471" lon="5.44937">
        <ele>444</ele>
        <time>2021-04-03T12:41:11.588Z</time>
      </trkpt>
      <trkpt lat="45.58472" lon="5.44944">
        <ele>444</ele>
        <time>2021-04-03T12:41:12.588Z</time>
      </trkpt>
      <trkpt lat="45.58473" lon="5.44952">
        <ele>443</ele>
        <time>2021-04-03T12:41:13.588Z</time>
      </trkpt>
      <trkpt lat="45.58474" lon="5.44959">
        <ele>444</ele>
        <time>2021-04-03T12:41:14.587Z</time>
      </trkpt>
      <trkpt lat="45.58475" lon="5.44967">
        <ele>444</ele>
        <time>2021-04-03T12:41:15.587Z</time>
      </trkpt>
      <trkpt lat="45.58476" lon="5.44974">
        <ele>444</ele>
        <time>2021-04-03T12:41:16.588Z</time>
      </trkpt>
      <trkpt lat="45.58477" lon="5.44981">
        <ele>444</ele>
        <time>2021-04-03T12:41:17.587Z</time>
      </trkpt>
      <trkpt lat="45.58479" lon="5.44988">
        <ele>444</ele>
        <time>2021-04-03T12:41:18.588Z</time>
      </trkpt>
      <trkpt lat="45.5848" lon="5.44996">
        <ele>444</ele>
        <time>2021-04-03T12:41:19.587Z</time>
      </trkpt>
      <trkpt lat="45.58481" lon="5.45003">
        <ele>444</ele>
        <time>2021-04-03T12:41:20.588Z</time>
      </trkpt>
      <trkpt lat="45.58482" lon="5.4501">
        <ele>444</ele>
        <time>2021-04-03T12:41:21.588Z</time>
      </trkpt>
      <trkpt lat="45.58483" lon="5.45017">
        <ele>444</ele>
        <time>2021-04-03T12:41:22.588Z</time>
      </trkpt>
      <trkpt lat="45.58484" lon="5.45025">
        <ele>444</ele>
        <time>2021-04-03T12:41:23.587Z</time>
      </trkpt>
      <trkpt lat="45.58485" lon="5.45032">
        <ele>444</ele>
        <time>2021-04-03T12:41:24.588Z</time>
      </trkpt>
      <trkpt lat="45.58486" lon="5.45039">
        <ele>444</ele>
        <time>2021-04-03T12:41:25.588Z</time>
      </trkpt>
      <trkpt lat="45.58487" lon="5.45046">
        <ele>444</ele>
        <time>2021-04-03T12:41:26.587Z</time>
      </trkpt>
      <trkpt lat="45.58488" lon="5.45053">
        <ele>444</ele>
        <time>2021-04-03T12:41:27.587Z</time>
      </trkpt>
      <trkpt lat="45.58489" lon="5.45059">
        <ele>444</ele>
        <time>2021-04-03T12:41:28.588Z</time>
      </trkpt>
      <trkpt lat="45.5849" lon="5.45065">
        <ele>444</ele>
        <time>2021-04-03T12:41:29.587Z</time>
      </trkpt>
      <trkpt lat="45.58491" lon="5.45072">
        <ele>443</ele>
        <time>2021-04-03T12:41:30.587Z</time>
      </trkpt>
      <trkpt lat="45.58492" lon="5.45078">
        <ele>443</ele>
        <time>2021-04-03T12:41:31.588Z</time>
      </trkpt>
      <trkpt lat="45.58493" lon="5.45084">
        <ele>443</ele>
        <time>2021-04-03T12:41:32.587Z</time>
      </trkpt>
      <trkpt lat="45.58494" lon="5.4509">
        <ele>443</ele>
        <time>2021-04-03T12:41:33.588Z</time>
      </trkpt>
      <trkpt lat="45.58496" lon="5.45096">
        <ele>443</ele>
        <time>2021-04-03T12:41:34.588Z</time>
      </trkpt>
      <trkpt lat="45.58497" lon="5.45102">
        <ele>442</ele>
        <time>2021-04-03T12:41:35.588Z</time>
      </trkpt>
      <trkpt lat="45.58497" lon="5.45109">
        <ele>441</ele>
        <time>2021-04-03T12:41:36.588Z</time>
      </trkpt>
      <trkpt lat="45.58498" lon="5.45116">
        <ele>441</ele>
        <time>2021-04-03T12:41:37.588Z</time>
      </trkpt>
      <trkpt lat="45.585" lon="5.45122">
        <ele>441</ele>
        <time>2021-04-03T12:41:38.588Z</time>
      </trkpt>
      <trkpt lat="45.58501" lon="5.45129">
        <ele>440</ele>
        <time>2021-04-03T12:41:39.588Z</time>
      </trkpt>
      <trkpt lat="45.58503" lon="5.45136">
        <ele>440</ele>
        <time>2021-04-03T12:41:40.587Z</time>
      </trkpt>
      <trkpt lat="45.58504" lon="5.45143">
        <ele>440</ele>
        <time>2021-04-03T12:41:41.587Z</time>
      </trkpt>
      <trkpt lat="45.58505" lon="5.4515">
        <ele>439</ele>
        <time>2021-04-03T12:41:42.587Z</time>
      </trkpt>
      <trkpt lat="45.58507" lon="5.45157">
        <ele>439</ele>
        <time>2021-04-03T12:41:43.588Z</time>
      </trkpt>
      <trkpt lat="45.58508" lon="5.45166">
        <ele>438</ele>
        <time>2021-04-03T12:41:44.588Z</time>
      </trkpt>
      <trkpt lat="45.58509" lon="5.45174">
        <ele>438</ele>
        <time>2021-04-03T12:41:45.588Z</time>
      </trkpt>
      <trkpt lat="45.58511" lon="5.45182">
        <ele>438</ele>
        <time>2021-04-03T12:41:46.588Z</time>
      </trkpt>
      <trkpt lat="45.58512" lon="5.45191">
        <ele>438</ele>
        <time>2021-04-03T12:41:47.588Z</time>
      </trkpt>
      <trkpt lat="45.58514" lon="5.45199">
        <ele>438</ele>
        <time>2021-04-03T12:41:48.588Z</time>
      </trkpt>
      <trkpt lat="45.58516" lon="5.45207">
        <ele>438</ele>
        <time>2021-04-03T12:41:49.588Z</time>
      </trkpt>
      <trkpt lat="45.58519" lon="5.45216">
        <ele>438</ele>
        <time>2021-04-03T12:41:50.588Z</time>
      </trkpt>
      <trkpt lat="45.58521" lon="5.45225">
        <ele>437</ele>
        <time>2021-04-03T12:41:51.587Z</time>
      </trkpt>
      <trkpt lat="45.58523" lon="5.45233">
        <ele>437</ele>
        <time>2021-04-03T12:41:52.587Z</time>
      </trkpt>
      <trkpt lat="45.58526" lon="5.45242">
        <ele>437</ele>
        <time>2021-04-03T12:41:53.588Z</time>
      </trkpt>
      <trkpt lat="45.58529" lon="5.4525">
        <ele>437</ele>
        <time>2021-04-03T12:41:54.588Z</time>
      </trkpt>
      <trkpt lat="45.58532" lon="5.45258">
        <ele>437</ele>
        <time>2021-04-03T12:41:55.588Z</time>
      </trkpt>
      <trkpt lat="45.58535" lon="5.45266">
        <ele>436</ele>
        <time>2021-04-03T12:41:56.587Z</time>
      </trkpt>
      <trkpt lat="45.58539" lon="5.45274">
        <ele>436</ele>
        <time>2021-04-03T12:41:57.588Z</time>
      </trkpt>
      <trkpt lat="45.58542" lon="5.45282">
        <ele>436</ele>
        <time>2021-04-03T12:41:58.588Z</time>
      </trkpt>
      <trkpt lat="45.58546" lon="5.4529">
        <ele>436</ele>
        <time>2021-04-03T12:41:59.588Z</time>
      </trkpt>
      <trkpt lat="45.5855" lon="5.45297">
        <ele>435</ele>
        <time>2021-04-03T12:42:00.587Z</time>
      </trkpt>
      <trkpt lat="45.58554" lon="5.45304">
        <ele>435</ele>
        <time>2021-04-03T12:42:01.588Z</time>
      </trkpt>
      <trkpt lat="45.58558" lon="5.4531">
        <ele>434</ele>
        <time>2021-04-03T12:42:02.588Z</time>
      </trkpt>
      <trkpt lat="45.58562" lon="5.45317">
        <ele>434</ele>
        <time>2021-04-03T12:42:03.588Z</time>
      </trkpt>
      <trkpt lat="45.58567" lon="5.45324">
        <ele>435</ele>
        <time>2021-04-03T12:42:04.587Z</time>
      </trkpt>
      <trkpt lat="45.58571" lon="5.4533">
        <ele>435</ele>
        <time>2021-04-03T12:42:05.588Z</time>
      </trkpt>
      <trkpt lat="45.58575" lon="5.45336">
        <ele>435</ele>
        <time>2021-04-03T12:42:06.588Z</time>
      </trkpt>
      <trkpt lat="45.58579" lon="5.45342">
        <ele>435</ele>
        <time>2021-04-03T12:42:07.588Z</time>
      </trkpt>
      <trkpt lat="45.58583" lon="5.45348">
        <ele>435</ele>
        <time>2021-04-03T12:42:08.588Z</time>
      </trkpt>
      <trkpt lat="45.58587" lon="5.45354">
        <ele>435</ele>
        <time>2021-04-03T12:42:09.588Z</time>
      </trkpt>
      <trkpt lat="45.58591" lon="5.4536">
        <ele>434</ele>
        <time>2021-04-03T12:42:10.588Z</time>
      </trkpt>
      <trkpt lat="45.58595" lon="5.45367">
        <ele>434</ele>
        <time>2021-04-03T12:42:11.588Z</time>
      </trkpt>
      <trkpt lat="45.586" lon="5.45374">
        <ele>433</ele>
        <time>2021-04-03T12:42:12.588Z</time>
      </trkpt>
      <trkpt lat="45.58604" lon="5.45381">
        <ele>433</ele>
        <time>2021-04-03T12:42:13.588Z</time>
      </trkpt>
      <trkpt lat="45.58608" lon="5.45388">
        <ele>434</ele>
        <time>2021-04-03T12:42:14.587Z</time>
      </trkpt>
      <trkpt lat="45.58612" lon="5.45395">
        <ele>434</ele>
        <time>2021-04-03T12:42:15.587Z</time>
      </trkpt>
      <trkpt lat="45.58615" lon="5.45403">
        <ele>434</ele>
        <time>2021-04-03T12:42:16.588Z</time>
      </trkpt>
      <trkpt lat="45.58618" lon="5.45411">
        <ele>434</ele>
        <time>2021-04-03T12:42:17.588Z</time>
      </trkpt>
      <trkpt lat="45.5862" lon="5.4542">
        <ele>434</ele>
        <time>2021-04-03T12:42:18.587Z</time>
      </trkpt>
      <trkpt lat="45.58622" lon="5.45428">
        <ele>434</ele>
        <time>2021-04-03T12:42:19.588Z</time>
      </trkpt>
      <trkpt lat="45.58624" lon="5.45438">
        <ele>434</ele>
        <time>2021-04-03T12:42:20.587Z</time>
      </trkpt>
      <trkpt lat="45.58625" lon="5.45447">
        <ele>434</ele>
        <time>2021-04-03T12:42:21.587Z</time>
      </trkpt>
      <trkpt lat="45.58626" lon="5.45457">
        <ele>434</ele>
        <time>2021-04-03T12:42:22.588Z</time>
      </trkpt>
      <trkpt lat="45.58627" lon="5.45466">
        <ele>433</ele>
        <time>2021-04-03T12:42:23.588Z</time>
      </trkpt>
      <trkpt lat="45.58628" lon="5.45475">
        <ele>433</ele>
        <time>2021-04-03T12:42:24.587Z</time>
      </trkpt>
      <trkpt lat="45.58629" lon="5.45484">
        <ele>433</ele>
        <time>2021-04-03T12:42:25.587Z</time>
      </trkpt>
      <trkpt lat="45.58629" lon="5.45493">
        <ele>433</ele>
        <time>2021-04-03T12:42:26.588Z</time>
      </trkpt>
      <trkpt lat="45.58629" lon="5.45502">
        <ele>433</ele>
        <time>2021-04-03T12:42:27.588Z</time>
      </trkpt>
      <trkpt lat="45.5863" lon="5.45511">
        <ele>432</ele>
        <time>2021-04-03T12:42:28.587Z</time>
      </trkpt>
      <trkpt lat="45.58631" lon="5.4552">
        <ele>432</ele>
        <time>2021-04-03T12:42:29.587Z</time>
      </trkpt>
      <trkpt lat="45.58631" lon="5.45528">
        <ele>432</ele>
        <time>2021-04-03T12:42:30.588Z</time>
      </trkpt>
      <trkpt lat="45.58632" lon="5.45537">
        <ele>432</ele>
        <time>2021-04-03T12:42:31.588Z</time>
      </trkpt>
      <trkpt lat="45.58633" lon="5.45546">
        <ele>432</ele>
        <time>2021-04-03T12:42:32.588Z</time>
      </trkpt>
      <trkpt lat="45.58634" lon="5.45554">
        <ele>432</ele>
        <time>2021-04-03T12:42:33.588Z</time>
      </trkpt>
      <trkpt lat="45.58634" lon="5.45563">
        <ele>432</ele>
        <time>2021-04-03T12:42:34.588Z</time>
      </trkpt>
      <trkpt lat="45.58636" lon="5.45573">
        <ele>432</ele>
        <time>2021-04-03T12:42:35.588Z</time>
      </trkpt>
      <trkpt lat="45.58636" lon="5.4558">
        <ele>432</ele>
        <time>2021-04-03T12:42:36.587Z</time>
      </trkpt>
      <trkpt lat="45.58637" lon="5.45588">
        <ele>431</ele>
        <time>2021-04-03T12:42:37.588Z</time>
      </trkpt>
      <trkpt lat="45.58638" lon="5.45597">
        <ele>431</ele>
        <time>2021-04-03T12:42:38.587Z</time>
      </trkpt>
      <trkpt lat="45.58639" lon="5.45605">
        <ele>431</ele>
        <time>2021-04-03T12:42:39.587Z</time>
      </trkpt>
      <trkpt lat="45.58641" lon="5.45613">
        <ele>431</ele>
        <time>2021-04-03T12:42:40.588Z</time>
      </trkpt>
      <trkpt lat="45.58642" lon="5.45622">
        <ele>430</ele>
        <time>2021-04-03T12:42:41.588Z</time>
      </trkpt>
      <trkpt lat="45.58644" lon="5.4563">
        <ele>430</ele>
        <time>2021-04-03T12:42:42.588Z</time>
      </trkpt>
      <trkpt lat="45.58645" lon="5.45639">
        <ele>430</ele>
        <time>2021-04-03T12:42:43.588Z</time>
      </trkpt>
      <trkpt lat="45.58647" lon="5.45647">
        <ele>430</ele>
        <time>2021-04-03T12:42:44.588Z</time>
      </trkpt>
      <trkpt lat="45.58649" lon="5.45655">
        <ele>431</ele>
        <time>2021-04-03T12:42:45.587Z</time>
      </trkpt>
      <trkpt lat="45.58651" lon="5.45663">
        <ele>431</ele>
        <time>2021-04-03T12:42:46.587Z</time>
      </trkpt>
      <trkpt lat="45.58653" lon="5.45671">
        <ele>431</ele>
        <time>2021-04-03T12:42:47.588Z</time>
      </trkpt>
      <trkpt lat="45.58655" lon="5.45679">
        <ele>432</ele>
        <time>2021-04-03T12:42:48.588Z</time>
      </trkpt>
      <trkpt lat="45.58657" lon="5.45687">
        <ele>432</ele>
        <time>2021-04-03T12:42:49.588Z</time>
      </trkpt>
      <trkpt lat="45.58659" lon="5.45695">
        <ele>432</ele>
        <time>2021-04-03T12:42:50.588Z</time>
      </trkpt>
      <trkpt lat="45.58662" lon="5.45702">
        <ele>432</ele>
        <time>2021-04-03T12:42:51.587Z</time>
      </trkpt>
      <trkpt lat="45.58664" lon="5.45709">
        <ele>431</ele>
        <time>2021-04-03T12:42:52.587Z</time>
      </trkpt>
      <trkpt lat="45.58667" lon="5.45717">
        <ele>431</ele>
        <time>2021-04-03T12:42:53.587Z</time>
      </trkpt>
      <trkpt lat="45.5867" lon="5.45724">
        <ele>431</ele>
        <time>2021-04-03T12:42:54.588Z</time>
      </trkpt>
      <trkpt lat="45.58672" lon="5.45731">
        <ele>431</ele>
        <time>2021-04-03T12:42:55.588Z</time>
      </trkpt>
      <trkpt lat="45.58675" lon="5.45739">
        <ele>431</ele>
        <time>2021-04-03T12:42:56.588Z</time>
      </trkpt>
      <trkpt lat="45.58678" lon="5.45746">
        <ele>430</ele>
        <time>2021-04-03T12:42:57.588Z</time>
      </trkpt>
      <trkpt lat="45.58681" lon="5.45753">
        <ele>430</ele>
        <time>2021-04-03T12:42:58.588Z</time>
      </trkpt>
      <trkpt lat="45.58683" lon="5.45761">
        <ele>430</ele>
        <time>2021-04-03T12:42:59.588Z</time>
      </trkpt>
      <trkpt lat="45.58686" lon="5.45768">
        <ele>430</ele>
        <time>2021-04-03T12:43:00.588Z</time>
      </trkpt>
      <trkpt lat="45.58689" lon="5.45776">
        <ele>430</ele>
        <time>2021-04-03T12:43:01.588Z</time>
      </trkpt>
      <trkpt lat="45.58691" lon="5.45783">
        <ele>430</ele>
        <time>2021-04-03T12:43:02.588Z</time>
      </trkpt>
      <trkpt lat="45.58693" lon="5.45791">
        <ele>430</ele>
        <time>2021-04-03T12:43:03.587Z</time>
      </trkpt>
      <trkpt lat="45.58695" lon="5.45799">
        <ele>431</ele>
        <time>2021-04-03T12:43:04.587Z</time>
      </trkpt>
      <trkpt lat="45.58697" lon="5.45806">
        <ele>430</ele>
        <time>2021-04-03T12:43:05.587Z</time>
      </trkpt>
      <trkpt lat="45.58699" lon="5.45814">
        <ele>430</ele>
        <time>2021-04-03T12:43:06.587Z</time>
      </trkpt>
      <trkpt lat="45.587" lon="5.45822">
        <ele>430</ele>
        <time>2021-04-03T12:43:07.588Z</time>
      </trkpt>
      <trkpt lat="45.58702" lon="5.4583">
        <ele>430</ele>
        <time>2021-04-03T12:43:08.588Z</time>
      </trkpt>
      <trkpt lat="45.58703" lon="5.45838">
        <ele>430</ele>
        <time>2021-04-03T12:43:09.588Z</time>
      </trkpt>
      <trkpt lat="45.58704" lon="5.45847">
        <ele>430</ele>
        <time>2021-04-03T12:43:10.587Z</time>
      </trkpt>
      <trkpt lat="45.58705" lon="5.45855">
        <ele>430</ele>
        <time>2021-04-03T12:43:11.587Z</time>
      </trkpt>
      <trkpt lat="45.58706" lon="5.45864">
        <ele>430</ele>
        <time>2021-04-03T12:43:12.588Z</time>
      </trkpt>
      <trkpt lat="45.58707" lon="5.45872">
        <ele>431</ele>
        <time>2021-04-03T12:43:13.588Z</time>
      </trkpt>
      <trkpt lat="45.58708" lon="5.45881">
        <ele>431</ele>
        <time>2021-04-03T12:43:14.588Z</time>
      </trkpt>
      <trkpt lat="45.58709" lon="5.45889">
        <ele>431</ele>
        <time>2021-04-03T12:43:15.587Z</time>
      </trkpt>
      <trkpt lat="45.58709" lon="5.45897">
        <ele>431</ele>
        <time>2021-04-03T12:43:16.588Z</time>
      </trkpt>
      <trkpt lat="45.5871" lon="5.45906">
        <ele>431</ele>
        <time>2021-04-03T12:43:17.588Z</time>
      </trkpt>
      <trkpt lat="45.5871" lon="5.45914">
        <ele>431</ele>
        <time>2021-04-03T12:43:18.587Z</time>
      </trkpt>
      <trkpt lat="45.5871" lon="5.45922">
        <ele>431</ele>
        <time>2021-04-03T12:43:19.588Z</time>
      </trkpt>
      <trkpt lat="45.58711" lon="5.4593">
        <ele>431</ele>
        <time>2021-04-03T12:43:20.588Z</time>
      </trkpt>
      <trkpt lat="45.58711" lon="5.45938">
        <ele>431</ele>
        <time>2021-04-03T12:43:21.588Z</time>
      </trkpt>
      <trkpt lat="45.58712" lon="5.45946">
        <ele>431</ele>
        <time>2021-04-03T12:43:22.588Z</time>
      </trkpt>
      <trkpt lat="45.58712" lon="5.45954">
        <ele>431</ele>
        <time>2021-04-03T12:43:23.588Z</time>
      </trkpt>
      <trkpt lat="45.58712" lon="5.45962">
        <ele>431</ele>
        <time>2021-04-03T12:43:24.587Z</time>
      </trkpt>
      <trkpt lat="45.58713" lon="5.45971">
        <ele>431</ele>
        <time>2021-04-03T12:43:25.587Z</time>
      </trkpt>
      <trkpt lat="45.58713" lon="5.45978">
        <ele>431</ele>
        <time>2021-04-03T12:43:26.587Z</time>
      </trkpt>
      <trkpt lat="45.58713" lon="5.45986">
        <ele>431</ele>
        <time>2021-04-03T12:43:27.588Z</time>
      </trkpt>
      <trkpt lat="45.58714" lon="5.45994">
        <ele>431</ele>
        <time>2021-04-03T12:43:28.588Z</time>
      </trkpt>
      <trkpt lat="45.58714" lon="5.46002">
        <ele>432</ele>
        <time>2021-04-03T12:43:29.587Z</time>
      </trkpt>
      <trkpt lat="45.58714" lon="5.4601">
        <ele>432</ele>
        <time>2021-04-03T12:43:30.587Z</time>
      </trkpt>
      <trkpt lat="45.58714" lon="5.46018">
        <ele>432</ele>
        <time>2021-04-03T12:43:31.587Z</time>
      </trkpt>
      <trkpt lat="45.58715" lon="5.46026">
        <ele>432</ele>
        <time>2021-04-03T12:43:32.587Z</time>
      </trkpt>
      <trkpt lat="45.58715" lon="5.46034">
        <ele>432</ele>
        <time>2021-04-03T12:43:33.588Z</time>
      </trkpt>
      <trkpt lat="45.58715" lon="5.46043">
        <ele>432</ele>
        <time>2021-04-03T12:43:34.587Z</time>
      </trkpt>
      <trkpt lat="45.58716" lon="5.46049">
        <ele>432</ele>
        <time>2021-04-03T12:43:35.587Z</time>
      </trkpt>
      <trkpt lat="45.58716" lon="5.46057">
        <ele>432</ele>
        <time>2021-04-03T12:43:36.588Z</time>
      </trkpt>
      <trkpt lat="45.58716" lon="5.46065">
        <ele>432</ele>
        <time>2021-04-03T12:43:37.588Z</time>
      </trkpt>
      <trkpt lat="45.58716" lon="5.46073">
        <ele>431</ele>
        <time>2021-04-03T12:43:38.587Z</time>
      </trkpt>
      <trkpt lat="45.58717" lon="5.4608">
        <ele>431</ele>
        <time>2021-04-03T12:43:39.588Z</time>
      </trkpt>
      <trkpt lat="45.58717" lon="5.46088">
        <ele>431</ele>
        <time>2021-04-03T12:43:40.588Z</time>
      </trkpt>
      <trkpt lat="45.58717" lon="5.46096">
        <ele>431</ele>
        <time>2021-04-03T12:43:41.587Z</time>
      </trkpt>
      <trkpt lat="45.58718" lon="5.46104">
        <ele>431</ele>
        <time>2021-04-03T12:43:42.588Z</time>
      </trkpt>
      <trkpt lat="45.58718" lon="5.46112">
        <ele>432</ele>
        <time>2021-04-03T12:43:43.588Z</time>
      </trkpt>
      <trkpt lat="45.58719" lon="5.4612">
        <ele>432</ele>
        <time>2021-04-03T12:43:44.587Z</time>
      </trkpt>
      <trkpt lat="45.58719" lon="5.46127">
        <ele>433</ele>
        <time>2021-04-03T12:43:45.588Z</time>
      </trkpt>
      <trkpt lat="45.5872" lon="5.46137">
        <ele>433</ele>
        <time>2021-04-03T12:43:46.588Z</time>
      </trkpt>
      <trkpt lat="45.5872" lon="5.46143">
        <ele>433</ele>
        <time>2021-04-03T12:43:47.588Z</time>
      </trkpt>
      <trkpt lat="45.58721" lon="5.46152">
        <ele>433</ele>
        <time>2021-04-03T12:43:48.587Z</time>
      </trkpt>
      <trkpt lat="45.58722" lon="5.46158">
        <ele>433</ele>
        <time>2021-04-03T12:43:49.588Z</time>
      </trkpt>
      <trkpt lat="45.58722" lon="5.46166">
        <ele>433</ele>
        <time>2021-04-03T12:43:50.587Z</time>
      </trkpt>
      <trkpt lat="45.58723" lon="5.46173">
        <ele>433</ele>
        <time>2021-04-03T12:43:51.588Z</time>
      </trkpt>
      <trkpt lat="45.58724" lon="5.46181">
        <ele>434</ele>
        <time>2021-04-03T12:43:52.588Z</time>
      </trkpt>
      <trkpt lat="45.58725" lon="5.46189">
        <ele>434</ele>
        <time>2021-04-03T12:43:53.587Z</time>
      </trkpt>
      <trkpt lat="45.58727" lon="5.46197">
        <ele>434</ele>
        <time>2021-04-03T12:43:54.587Z</time>
      </trkpt>
      <trkpt lat="45.58728" lon="5.46205">
        <ele>435</ele>
        <time>2021-04-03T12:43:55.588Z</time>
      </trkpt>
      <trkpt lat="45.58729" lon="5.46214">
        <ele>435</ele>
        <time>2021-04-03T12:43:56.587Z</time>
      </trkpt>
      <trkpt lat="45.58731" lon="5.46222">
        <ele>435</ele>
        <time>2021-04-03T12:43:57.588Z</time>
      </trkpt>
      <trkpt lat="45.58732" lon="5.46228">
        <ele>435</ele>
        <time>2021-04-03T12:43:58.588Z</time>
      </trkpt>
      <trkpt lat="45.58733" lon="5.46236">
        <ele>435</ele>
        <time>2021-04-03T12:43:59.588Z</time>
      </trkpt>
      <trkpt lat="45.58735" lon="5.46243">
        <ele>435</ele>
        <time>2021-04-03T12:44:00.587Z</time>
      </trkpt>
      <trkpt lat="45.58737" lon="5.46253">
        <ele>436</ele>
        <time>2021-04-03T12:44:01.588Z</time>
      </trkpt>
      <trkpt lat="45.58738" lon="5.46258">
        <ele>436</ele>
        <time>2021-04-03T12:44:02.588Z</time>
      </trkpt>
      <trkpt lat="45.5874" lon="5.46266">
        <ele>436</ele>
        <time>2021-04-03T12:44:03.587Z</time>
      </trkpt>
      <trkpt lat="45.58742" lon="5.46275">
        <ele>436</ele>
        <time>2021-04-03T12:44:04.587Z</time>
      </trkpt>
      <trkpt lat="45.58744" lon="5.46282">
        <ele>436</ele>
        <time>2021-04-03T12:44:05.588Z</time>
      </trkpt>
      <trkpt lat="45.58745" lon="5.4629">
        <ele>436</ele>
        <time>2021-04-03T12:44:06.587Z</time>
      </trkpt>
      <trkpt lat="45.58747" lon="5.46295">
        <ele>436</ele>
        <time>2021-04-03T12:44:07.588Z</time>
      </trkpt>
      <trkpt lat="45.58749" lon="5.46304">
        <ele>436</ele>
        <time>2021-04-03T12:44:08.588Z</time>
      </trkpt>
      <trkpt lat="45.5875" lon="5.46312">
        <ele>436</ele>
        <time>2021-04-03T12:44:09.588Z</time>
      </trkpt>
      <trkpt lat="45.58752" lon="5.46319">
        <ele>436</ele>
        <time>2021-04-03T12:44:10.588Z</time>
      </trkpt>
      <trkpt lat="45.58754" lon="5.46325">
        <ele>437</ele>
        <time>2021-04-03T12:44:11.587Z</time>
      </trkpt>
      <trkpt lat="45.58756" lon="5.46334">
        <ele>437</ele>
        <time>2021-04-03T12:44:12.587Z</time>
      </trkpt>
      <trkpt lat="45.58757" lon="5.4634">
        <ele>437</ele>
        <time>2021-04-03T12:44:13.588Z</time>
      </trkpt>
      <trkpt lat="45.5876" lon="5.46349">
        <ele>437</ele>
        <time>2021-04-03T12:44:14.588Z</time>
      </trkpt>
      <trkpt lat="45.58761" lon="5.46355">
        <ele>437</ele>
        <time>2021-04-03T12:44:15.588Z</time>
      </trkpt>
      <trkpt lat="45.58763" lon="5.46362">
        <ele>436</ele>
        <time>2021-04-03T12:44:16.588Z</time>
      </trkpt>
      <trkpt lat="45.58765" lon="5.4637">
        <ele>436</ele>
        <time>2021-04-03T12:44:17.588Z</time>
      </trkpt>
      <trkpt lat="45.58767" lon="5.46377">
        <ele>436</ele>
        <time>2021-04-03T12:44:18.588Z</time>
      </trkpt>
      <trkpt lat="45.58768" lon="5.46384">
        <ele>436</ele>
        <time>2021-04-03T12:44:19.587Z</time>
      </trkpt>
      <trkpt lat="45.58769" lon="5.46389">
        <ele>435</ele>
        <time>2021-04-03T12:44:20.588Z</time>
      </trkpt>
      <trkpt lat="45.58771" lon="5.46397">
        <ele>435</ele>
        <time>2021-04-03T12:44:21.587Z</time>
      </trkpt>
      <trkpt lat="45.58772" lon="5.46402">
        <ele>435</ele>
        <time>2021-04-03T12:44:22.588Z</time>
      </trkpt>
      <trkpt lat="45.58774" lon="5.4641">
        <ele>436</ele>
        <time>2021-04-03T12:44:23.588Z</time>
      </trkpt>
      <trkpt lat="45.58775" lon="5.46415">
        <ele>436</ele>
        <time>2021-04-03T12:44:24.588Z</time>
      </trkpt>
      <trkpt lat="45.58775" lon="5.46421">
        <ele>436</ele>
        <time>2021-04-03T12:44:25.588Z</time>
      </trkpt>
      <trkpt lat="45.58776" lon="5.46428">
        <ele>436</ele>
        <time>2021-04-03T12:44:26.588Z</time>
      </trkpt>
      <trkpt lat="45.58776" lon="5.46432">
        <ele>436</ele>
        <time>2021-04-03T12:44:27.587Z</time>
      </trkpt>
      <trkpt lat="45.58775" lon="5.46436">
        <ele>436</ele>
        <time>2021-04-03T12:44:28.588Z</time>
      </trkpt>
      <trkpt lat="45.58775" lon="5.46438">
        <ele>437</ele>
        <time>2021-04-03T12:44:29.588Z</time>
      </trkpt>
      <trkpt lat="45.58775" lon="5.4644">
        <ele>437</ele>
        <time>2021-04-03T12:44:30.588Z</time>
      </trkpt>
      <trkpt lat="45.58774" lon="5.4644">
        <ele>438</ele>
        <time>2021-04-03T12:44:31.587Z</time>
      </trkpt>
      <trkpt lat="45.58774" lon="5.46441">
        <ele>438</ele>
        <time>2021-04-03T12:44:32.588Z</time>
      </trkpt>
      <trkpt lat="45.58769" lon="5.46436">
        <ele>438</ele>
        <time>2021-04-03T12:44:33.588Z</time>
      </trkpt>
      <trkpt lat="45.58765" lon="5.46437">
        <ele>438</ele>
        <time>2021-04-03T12:44:34.589Z</time>
      </trkpt>
      <trkpt lat="45.58763" lon="5.46437">
        <ele>438</ele>
        <time>2021-04-03T12:44:35.588Z</time>
      </trkpt>
      <trkpt lat="45.58759" lon="5.46437">
        <ele>438</ele>
        <time>2021-04-03T12:44:36.589Z</time>
      </trkpt>
      <trkpt lat="45.58754" lon="5.46437">
        <ele>438</ele>
        <time>2021-04-03T12:44:37.589Z</time>
      </trkpt>
      <trkpt lat="45.5875" lon="5.46437">
        <ele>437</ele>
        <time>2021-04-03T12:44:38.589Z</time>
      </trkpt>
      <trkpt lat="45.58745" lon="5.46436">
        <ele>437</ele>
        <time>2021-04-03T12:44:39.588Z</time>
      </trkpt>
      <trkpt lat="45.5874" lon="5.46436">
        <ele>437</ele>
        <time>2021-04-03T12:44:40.588Z</time>
      </trkpt>
      <trkpt lat="45.58736" lon="5.46436">
        <ele>437</ele>
        <time>2021-04-03T12:44:41.588Z</time>
      </trkpt>
      <trkpt lat="45.5873" lon="5.46435">
        <ele>437</ele>
        <time>2021-04-03T12:44:42.589Z</time>
      </trkpt>
      <trkpt lat="45.58725" lon="5.46434">
        <ele>437</ele>
        <time>2021-04-03T12:44:43.589Z</time>
      </trkpt>
      <trkpt lat="45.5872" lon="5.46433">
        <ele>437</ele>
        <time>2021-04-03T12:44:44.589Z</time>
      </trkpt>
      <trkpt lat="45.58717" lon="5.46431">
        <ele>437</ele>
        <time>2021-04-03T12:44:45.589Z</time>
      </trkpt>
      <trkpt lat="45.58712" lon="5.4643">
        <ele>437</ele>
        <time>2021-04-03T12:44:46.589Z</time>
      </trkpt>
      <trkpt lat="45.58707" lon="5.46428">
        <ele>437</ele>
        <time>2021-04-03T12:44:47.589Z</time>
      </trkpt>
      <trkpt lat="45.58702" lon="5.46427">
        <ele>437</ele>
        <time>2021-04-03T12:44:48.589Z</time>
      </trkpt>
      <trkpt lat="45.58698" lon="5.46426">
        <ele>437</ele>
        <time>2021-04-03T12:44:49.589Z</time>
      </trkpt>
      <trkpt lat="45.58693" lon="5.46425">
        <ele>437</ele>
        <time>2021-04-03T12:44:50.589Z</time>
      </trkpt>
      <trkpt lat="45.58687" lon="5.46423">
        <ele>438</ele>
        <time>2021-04-03T12:44:51.589Z</time>
      </trkpt>
      <trkpt lat="45.58682" lon="5.46422">
        <ele>438</ele>
        <time>2021-04-03T12:44:52.589Z</time>
      </trkpt>
      <trkpt lat="45.58676" lon="5.4642">
        <ele>438</ele>
        <time>2021-04-03T12:44:53.589Z</time>
      </trkpt>
      <trkpt lat="45.58672" lon="5.46419">
        <ele>437</ele>
        <time>2021-04-03T12:44:54.588Z</time>
      </trkpt>
      <trkpt lat="45.58665" lon="5.46418">
        <ele>437</ele>
        <time>2021-04-03T12:44:55.589Z</time>
      </trkpt>
      <trkpt lat="45.5866" lon="5.46417">
        <ele>437</ele>
        <time>2021-04-03T12:44:56.588Z</time>
      </trkpt>
      <trkpt lat="45.58653" lon="5.46415">
        <ele>437</ele>
        <time>2021-04-03T12:44:57.589Z</time>
      </trkpt>
      <trkpt lat="45.58648" lon="5.46414">
        <ele>437</ele>
        <time>2021-04-03T12:44:58.589Z</time>
      </trkpt>
      <trkpt lat="45.58642" lon="5.46411">
        <ele>436</ele>
        <time>2021-04-03T12:44:59.588Z</time>
      </trkpt>
      <trkpt lat="45.58635" lon="5.46408">
        <ele>436</ele>
        <time>2021-04-03T12:45:00.589Z</time>
      </trkpt>
      <trkpt lat="45.58628" lon="5.46406">
        <ele>436</ele>
        <time>2021-04-03T12:45:01.589Z</time>
      </trkpt>
      <trkpt lat="45.58622" lon="5.46404">
        <ele>435</ele>
        <time>2021-04-03T12:45:02.589Z</time>
      </trkpt>
      <trkpt lat="45.58616" lon="5.46402">
        <ele>435</ele>
        <time>2021-04-03T12:45:03.588Z</time>
      </trkpt>
      <trkpt lat="45.58609" lon="5.46398">
        <ele>435</ele>
        <time>2021-04-03T12:45:04.589Z</time>
      </trkpt>
      <trkpt lat="45.58602" lon="5.46395">
        <ele>435</ele>
        <time>2021-04-03T12:45:05.589Z</time>
      </trkpt>
      <trkpt lat="45.58595" lon="5.46393">
        <ele>435</ele>
        <time>2021-04-03T12:45:06.589Z</time>
      </trkpt>
      <trkpt lat="45.58588" lon="5.46392">
        <ele>435</ele>
        <time>2021-04-03T12:45:07.589Z</time>
      </trkpt>
      <trkpt lat="45.58578" lon="5.4639">
        <ele>434</ele>
        <time>2021-04-03T12:45:08.589Z</time>
      </trkpt>
      <trkpt lat="45.58571" lon="5.46389">
        <ele>434</ele>
        <time>2021-04-03T12:45:09.589Z</time>
      </trkpt>
      <trkpt lat="45.58563" lon="5.46387">
        <ele>435</ele>
        <time>2021-04-03T12:45:10.588Z</time>
      </trkpt>
      <trkpt lat="45.58557" lon="5.46386">
        <ele>435</ele>
        <time>2021-04-03T12:45:11.589Z</time>
      </trkpt>
      <trkpt lat="45.58549" lon="5.46385">
        <ele>435</ele>
        <time>2021-04-03T12:45:12.588Z</time>
      </trkpt>
      <trkpt lat="45.5854" lon="5.46383">
        <ele>435</ele>
        <time>2021-04-03T12:45:13.589Z</time>
      </trkpt>
      <trkpt lat="45.58534" lon="5.46382">
        <ele>435</ele>
        <time>2021-04-03T12:45:14.589Z</time>
      </trkpt>
      <trkpt lat="45.58528" lon="5.46381">
        <ele>435</ele>
        <time>2021-04-03T12:45:15.589Z</time>
      </trkpt>
      <trkpt lat="45.58522" lon="5.4638">
        <ele>435</ele>
        <time>2021-04-03T12:45:16.588Z</time>
      </trkpt>
      <trkpt lat="45.58517" lon="5.46378">
        <ele>435</ele>
        <time>2021-04-03T12:45:17.589Z</time>
      </trkpt>
      <trkpt lat="45.58511" lon="5.46378">
        <ele>434</ele>
        <time>2021-04-03T12:45:18.588Z</time>
      </trkpt>
      <trkpt lat="45.58505" lon="5.46378">
        <ele>434</ele>
        <time>2021-04-03T12:45:19.589Z</time>
      </trkpt>
      <trkpt lat="45.58502" lon="5.4638">
        <ele>434</ele>
        <time>2021-04-03T12:45:20.589Z</time>
      </trkpt>
      <trkpt lat="45.58499" lon="5.46384">
        <ele>434</ele>
        <time>2021-04-03T12:45:21.589Z</time>
      </trkpt>
      <trkpt lat="45.58498" lon="5.46393">
        <ele>435</ele>
        <time>2021-04-03T12:45:22.589Z</time>
      </trkpt>
      <trkpt lat="45.58498" lon="5.46401">
        <ele>435</ele>
        <time>2021-04-03T12:45:23.589Z</time>
      </trkpt>
      <trkpt lat="45.58498" lon="5.46407">
        <ele>435</ele>
        <time>2021-04-03T12:45:24.589Z</time>
      </trkpt>
      <trkpt lat="45.58498" lon="5.46415">
        <ele>435</ele>
        <time>2021-04-03T12:45:25.589Z</time>
      </trkpt>
      <trkpt lat="45.58499" lon="5.46425">
        <ele>436</ele>
        <time>2021-04-03T12:45:26.589Z</time>
      </trkpt>
      <trkpt lat="45.58498" lon="5.46431">
        <ele>436</ele>
        <time>2021-04-03T12:45:27.588Z</time>
      </trkpt>
      <trkpt lat="45.58498" lon="5.4644">
        <ele>436</ele>
        <time>2021-04-03T12:45:28.588Z</time>
      </trkpt>
      <trkpt lat="45.58498" lon="5.46446">
        <ele>435</ele>
        <time>2021-04-03T12:45:29.588Z</time>
      </trkpt>
      <trkpt lat="45.58497" lon="5.46453">
        <ele>435</ele>
        <time>2021-04-03T12:45:30.589Z</time>
      </trkpt>
      <trkpt lat="45.58497" lon="5.46462">
        <ele>435</ele>
        <time>2021-04-03T12:45:31.589Z</time>
      </trkpt>
      <trkpt lat="45.58497" lon="5.46468">
        <ele>435</ele>
        <time>2021-04-03T12:45:32.589Z</time>
      </trkpt>
      <trkpt lat="45.58497" lon="5.46476">
        <ele>435</ele>
        <time>2021-04-03T12:45:33.589Z</time>
      </trkpt>
      <trkpt lat="45.58498" lon="5.46483">
        <ele>435</ele>
        <time>2021-04-03T12:45:34.588Z</time>
      </trkpt>
      <trkpt lat="45.58497" lon="5.46491">
        <ele>435</ele>
        <time>2021-04-03T12:45:35.588Z</time>
      </trkpt>
      <trkpt lat="45.58497" lon="5.46498">
        <ele>434</ele>
        <time>2021-04-03T12:45:36.588Z</time>
      </trkpt>
      <trkpt lat="45.58497" lon="5.46506">
        <ele>434</ele>
        <time>2021-04-03T12:45:37.588Z</time>
      </trkpt>
      <trkpt lat="45.58497" lon="5.46513">
        <ele>433</ele>
        <time>2021-04-03T12:45:38.589Z</time>
      </trkpt>
      <trkpt lat="45.58497" lon="5.4652">
        <ele>433</ele>
        <time>2021-04-03T12:45:39.589Z</time>
      </trkpt>
      <trkpt lat="45.58496" lon="5.46527">
        <ele>433</ele>
        <time>2021-04-03T12:45:40.589Z</time>
      </trkpt>
      <trkpt lat="45.58496" lon="5.46536">
        <ele>432</ele>
        <time>2021-04-03T12:45:41.588Z</time>
      </trkpt>
      <trkpt lat="45.58496" lon="5.46541">
        <ele>432</ele>
        <time>2021-04-03T12:45:42.589Z</time>
      </trkpt>
      <trkpt lat="45.58495" lon="5.46548">
        <ele>432</ele>
        <time>2021-04-03T12:45:43.589Z</time>
      </trkpt>
      <trkpt lat="45.58495" lon="5.46556">
        <ele>432</ele>
        <time>2021-04-03T12:45:44.589Z</time>
      </trkpt>
      <trkpt lat="45.58495" lon="5.46561">
        <ele>432</ele>
        <time>2021-04-03T12:45:45.589Z</time>
      </trkpt>
      <trkpt lat="45.58495" lon="5.46569">
        <ele>433</ele>
        <time>2021-04-03T12:45:46.589Z</time>
      </trkpt>
      <trkpt lat="45.58495" lon="5.46574">
        <ele>433</ele>
        <time>2021-04-03T12:45:47.589Z</time>
      </trkpt>
      <trkpt lat="45.58495" lon="5.46581">
        <ele>433</ele>
        <time>2021-04-03T12:45:48.589Z</time>
      </trkpt>
      <trkpt lat="45.58495" lon="5.46589">
        <ele>433</ele>
        <time>2021-04-03T12:45:49.588Z</time>
      </trkpt>
      <trkpt lat="45.58495" lon="5.46595">
        <ele>433</ele>
        <time>2021-04-03T12:45:50.588Z</time>
      </trkpt>
      <trkpt lat="45.58495" lon="5.466">
        <ele>433</ele>
        <time>2021-04-03T12:45:51.589Z</time>
      </trkpt>
      <trkpt lat="45.58494" lon="5.46606">
        <ele>433</ele>
        <time>2021-04-03T12:45:52.589Z</time>
      </trkpt>
      <trkpt lat="45.58494" lon="5.46613">
        <ele>433</ele>
        <time>2021-04-03T12:45:53.589Z</time>
      </trkpt>
      <trkpt lat="45.58494" lon="5.46619">
        <ele>434</ele>
        <time>2021-04-03T12:45:54.588Z</time>
      </trkpt>
      <trkpt lat="45.58495" lon="5.46623">
        <ele>434</ele>
        <time>2021-04-03T12:45:55.589Z</time>
      </trkpt>
      <trkpt lat="45.58496" lon="5.46628">
        <ele>435</ele>
        <time>2021-04-03T12:45:56.588Z</time>
      </trkpt>
      <trkpt lat="45.58496" lon="5.46634">
        <ele>436</ele>
        <time>2021-04-03T12:45:57.588Z</time>
      </trkpt>
      <trkpt lat="45.58498" lon="5.46638">
        <ele>436</ele>
        <time>2021-04-03T12:45:58.589Z</time>
      </trkpt>
      <trkpt lat="45.585" lon="5.46644">
        <ele>437</ele>
        <time>2021-04-03T12:45:59.589Z</time>
      </trkpt>
      <trkpt lat="45.58503" lon="5.46648">
        <ele>439</ele>
        <time>2021-04-03T12:46:00.589Z</time>
      </trkpt>
      <trkpt lat="45.58505" lon="5.46654">
        <ele>440</ele>
        <time>2021-04-03T12:46:01.588Z</time>
      </trkpt>
      <trkpt lat="45.58506" lon="5.46661">
        <ele>441</ele>
        <time>2021-04-03T12:46:02.589Z</time>
      </trkpt>
      <trkpt lat="45.58505" lon="5.46669">
        <ele>441</ele>
        <time>2021-04-03T12:46:03.588Z</time>
      </trkpt>
      <trkpt lat="45.58505" lon="5.46676">
        <ele>441</ele>
        <time>2021-04-03T12:46:04.589Z</time>
      </trkpt>
      <trkpt lat="45.58505" lon="5.46681">
        <ele>440</ele>
        <time>2021-04-03T12:46:05.589Z</time>
      </trkpt>
      <trkpt lat="45.58505" lon="5.46688">
        <ele>440</ele>
        <time>2021-04-03T12:46:06.588Z</time>
      </trkpt>
      <trkpt lat="45.58505" lon="5.46695">
        <ele>439</ele>
        <time>2021-04-03T12:46:07.589Z</time>
      </trkpt>
      <trkpt lat="45.58505" lon="5.46701">
        <ele>439</ele>
        <time>2021-04-03T12:46:08.589Z</time>
      </trkpt>
      <trkpt lat="45.58504" lon="5.46706">
        <ele>438</ele>
        <time>2021-04-03T12:46:09.589Z</time>
      </trkpt>
      <trkpt lat="45.58504" lon="5.46712">
        <ele>438</ele>
        <time>2021-04-03T12:46:10.589Z</time>
      </trkpt>
      <trkpt lat="45.58504" lon="5.46719">
        <ele>438</ele>
        <time>2021-04-03T12:46:11.588Z</time>
      </trkpt>
      <trkpt lat="45.58503" lon="5.46726">
        <ele>439</ele>
        <time>2021-04-03T12:46:12.589Z</time>
      </trkpt>
      <trkpt lat="45.58503" lon="5.46732">
        <ele>439</ele>
        <time>2021-04-03T12:46:13.589Z</time>
      </trkpt>
      <trkpt lat="45.58503" lon="5.46738">
        <ele>439</ele>
        <time>2021-04-03T12:46:14.589Z</time>
      </trkpt>
      <trkpt lat="45.58502" lon="5.46746">
        <ele>439</ele>
        <time>2021-04-03T12:46:15.589Z</time>
      </trkpt>
      <trkpt lat="45.58502" lon="5.46751">
        <ele>439</ele>
        <time>2021-04-03T12:46:16.589Z</time>
      </trkpt>
      <trkpt lat="45.58502" lon="5.46759">
        <ele>439</ele>
        <time>2021-04-03T12:46:17.588Z</time>
      </trkpt>
      <trkpt lat="45.58501" lon="5.46765">
        <ele>439</ele>
        <time>2021-04-03T12:46:18.589Z</time>
      </trkpt>
      <trkpt lat="45.58501" lon="5.46771">
        <ele>439</ele>
        <time>2021-04-03T12:46:19.589Z</time>
      </trkpt>
      <trkpt lat="45.585" lon="5.46779">
        <ele>438</ele>
        <time>2021-04-03T12:46:20.589Z</time>
      </trkpt>
      <trkpt lat="45.58499" lon="5.46786">
        <ele>438</ele>
        <time>2021-04-03T12:46:21.589Z</time>
      </trkpt>
      <trkpt lat="45.58499" lon="5.46792">
        <ele>438</ele>
        <time>2021-04-03T12:46:22.588Z</time>
      </trkpt>
      <trkpt lat="45.58499" lon="5.46799">
        <ele>438</ele>
        <time>2021-04-03T12:46:23.589Z</time>
      </trkpt>
      <trkpt lat="45.58498" lon="5.46807">
        <ele>438</ele>
        <time>2021-04-03T12:46:24.589Z</time>
      </trkpt>
      <trkpt lat="45.58498" lon="5.46814">
        <ele>438</ele>
        <time>2021-04-03T12:46:25.589Z</time>
      </trkpt>
      <trkpt lat="45.58497" lon="5.46823">
        <ele>439</ele>
        <time>2021-04-03T12:46:26.589Z</time>
      </trkpt>
      <trkpt lat="45.58497" lon="5.46829">
        <ele>439</ele>
        <time>2021-04-03T12:46:27.588Z</time>
      </trkpt>
      <trkpt lat="45.58496" lon="5.46836">
        <ele>439</ele>
        <time>2021-04-03T12:46:28.588Z</time>
      </trkpt>
      <trkpt lat="45.58496" lon="5.46844">
        <ele>439</ele>
        <time>2021-04-03T12:46:29.589Z</time>
      </trkpt>
      <trkpt lat="45.58496" lon="5.46852">
        <ele>438</ele>
        <time>2021-04-03T12:46:30.589Z</time>
      </trkpt>
      <trkpt lat="45.58496" lon="5.46862">
        <ele>438</ele>
        <time>2021-04-03T12:46:31.588Z</time>
      </trkpt>
      <trkpt lat="45.58496" lon="5.46869">
        <ele>439</ele>
        <time>2021-04-03T12:46:32.589Z</time>
      </trkpt>
      <trkpt lat="45.58497" lon="5.46879">
        <ele>439</ele>
        <time>2021-04-03T12:46:33.589Z</time>
      </trkpt>
      <trkpt lat="45.58497" lon="5.46885">
        <ele>439</ele>
        <time>2021-04-03T12:46:34.589Z</time>
      </trkpt>
      <trkpt lat="45.58497" lon="5.46894">
        <ele>439</ele>
        <time>2021-04-03T12:46:35.589Z</time>
      </trkpt>
      <trkpt lat="45.58497" lon="5.469">
        <ele>439</ele>
        <time>2021-04-03T12:46:36.589Z</time>
      </trkpt>
      <trkpt lat="45.58498" lon="5.46907">
        <ele>439</ele>
        <time>2021-04-03T12:46:37.588Z</time>
      </trkpt>
      <trkpt lat="45.58498" lon="5.46915">
        <ele>439</ele>
        <time>2021-04-03T12:46:38.589Z</time>
      </trkpt>
      <trkpt lat="45.585" lon="5.46924">
        <ele>439</ele>
        <time>2021-04-03T12:46:39.589Z</time>
      </trkpt>
      <trkpt lat="45.585" lon="5.46931">
        <ele>439</ele>
        <time>2021-04-03T12:46:40.589Z</time>
      </trkpt>
      <trkpt lat="45.58501" lon="5.46938">
        <ele>439</ele>
        <time>2021-04-03T12:46:41.589Z</time>
      </trkpt>
      <trkpt lat="45.58502" lon="5.46948">
        <ele>440</ele>
        <time>2021-04-03T12:46:42.588Z</time>
      </trkpt>
      <trkpt lat="45.58503" lon="5.46955">
        <ele>440</ele>
        <time>2021-04-03T12:46:43.589Z</time>
      </trkpt>
      <trkpt lat="45.58504" lon="5.46962">
        <ele>440</ele>
        <time>2021-04-03T12:46:44.589Z</time>
      </trkpt>
      <trkpt lat="45.58504" lon="5.4697">
        <ele>440</ele>
        <time>2021-04-03T12:46:45.589Z</time>
      </trkpt>
      <trkpt lat="45.58505" lon="5.46977">
        <ele>440</ele>
        <time>2021-04-03T12:46:46.588Z</time>
      </trkpt>
      <trkpt lat="45.58506" lon="5.46984">
        <ele>440</ele>
        <time>2021-04-03T12:46:47.588Z</time>
      </trkpt>
      <trkpt lat="45.58506" lon="5.46992">
        <ele>440</ele>
        <time>2021-04-03T12:46:48.589Z</time>
      </trkpt>
      <trkpt lat="45.58507" lon="5.46997">
        <ele>440</ele>
        <time>2021-04-03T12:46:49.589Z</time>
      </trkpt>
      <trkpt lat="45.58508" lon="5.47003">
        <ele>440</ele>
        <time>2021-04-03T12:46:50.588Z</time>
      </trkpt>
      <trkpt lat="45.58508" lon="5.47011">
        <ele>440</ele>
        <time>2021-04-03T12:46:51.588Z</time>
      </trkpt>
      <trkpt lat="45.58509" lon="5.47017">
        <ele>440</ele>
        <time>2021-04-03T12:46:52.588Z</time>
      </trkpt>
      <trkpt lat="45.58509" lon="5.47022">
        <ele>440</ele>
        <time>2021-04-03T12:46:53.588Z</time>
      </trkpt>
      <trkpt lat="45.5851" lon="5.47027">
        <ele>440</ele>
        <time>2021-04-03T12:46:54.589Z</time>
      </trkpt>
      <trkpt lat="45.58511" lon="5.47033">
        <ele>441</ele>
        <time>2021-04-03T12:46:55.589Z</time>
      </trkpt>
      <trkpt lat="45.58511" lon="5.47038">
        <ele>441</ele>
        <time>2021-04-03T12:46:56.589Z</time>
      </trkpt>
      <trkpt lat="45.58512" lon="5.47044">
        <ele>441</ele>
        <time>2021-04-03T12:46:57.589Z</time>
      </trkpt>
      <trkpt lat="45.58512" lon="5.47048">
        <ele>441</ele>
        <time>2021-04-03T12:46:58.589Z</time>
      </trkpt>
      <trkpt lat="45.58513" lon="5.47053">
        <ele>440</ele>
        <time>2021-04-03T12:46:59.589Z</time>
      </trkpt>
      <trkpt lat="45.58514" lon="5.47058">
        <ele>440</ele>
        <time>2021-04-03T12:47:00.588Z</time>
      </trkpt>
      <trkpt lat="45.58515" lon="5.47064">
        <ele>440</ele>
        <time>2021-04-03T12:47:01.589Z</time>
      </trkpt>
      <trkpt lat="45.58515" lon="5.47068">
        <ele>440</ele>
        <time>2021-04-03T12:47:02.588Z</time>
      </trkpt>
      <trkpt lat="45.58516" lon="5.47073">
        <ele>440</ele>
        <time>2021-04-03T12:47:03.588Z</time>
      </trkpt>
      <trkpt lat="45.58517" lon="5.4708">
        <ele>440</ele>
        <time>2021-04-03T12:47:04.589Z</time>
      </trkpt>
      <trkpt lat="45.58517" lon="5.47085">
        <ele>440</ele>
        <time>2021-04-03T12:47:05.589Z</time>
      </trkpt>
      <trkpt lat="45.58518" lon="5.47092">
        <ele>440</ele>
        <time>2021-04-03T12:47:06.588Z</time>
      </trkpt>
      <trkpt lat="45.5852" lon="5.47099">
        <ele>439</ele>
        <time>2021-04-03T12:47:07.589Z</time>
      </trkpt>
      <trkpt lat="45.58521" lon="5.47105">
        <ele>439</ele>
        <time>2021-04-03T12:47:08.588Z</time>
      </trkpt>
      <trkpt lat="45.58523" lon="5.47112">
        <ele>439</ele>
        <time>2021-04-03T12:47:09.589Z</time>
      </trkpt>
      <trkpt lat="45.58526" lon="5.47118">
        <ele>439</ele>
        <time>2021-04-03T12:47:10.588Z</time>
      </trkpt>
      <trkpt lat="45.58528" lon="5.47123">
        <ele>439</ele>
        <time>2021-04-03T12:47:11.588Z</time>
      </trkpt>
      <trkpt lat="45.5853" lon="5.47129">
        <ele>439</ele>
        <time>2021-04-03T12:47:12.589Z</time>
      </trkpt>
      <trkpt lat="45.58532" lon="5.47136">
        <ele>439</ele>
        <time>2021-04-03T12:47:13.588Z</time>
      </trkpt>
      <trkpt lat="45.58534" lon="5.47142">
        <ele>438</ele>
        <time>2021-04-03T12:47:14.589Z</time>
      </trkpt>
      <trkpt lat="45.58536" lon="5.4715">
        <ele>438</ele>
        <time>2021-04-03T12:47:15.589Z</time>
      </trkpt>
      <trkpt lat="45.58536" lon="5.47156">
        <ele>437</ele>
        <time>2021-04-03T12:47:16.589Z</time>
      </trkpt>
      <trkpt lat="45.58537" lon="5.47164">
        <ele>437</ele>
        <time>2021-04-03T12:47:17.589Z</time>
      </trkpt>
      <trkpt lat="45.58537" lon="5.47174">
        <ele>436</ele>
        <time>2021-04-03T12:47:18.589Z</time>
      </trkpt>
      <trkpt lat="45.58537" lon="5.47183">
        <ele>436</ele>
        <time>2021-04-03T12:47:19.588Z</time>
      </trkpt>
      <trkpt lat="45.58536" lon="5.47192">
        <ele>436</ele>
        <time>2021-04-03T12:47:20.589Z</time>
      </trkpt>
      <trkpt lat="45.58536" lon="5.472">
        <ele>436</ele>
        <time>2021-04-03T12:47:21.589Z</time>
      </trkpt>
      <trkpt lat="45.58535" lon="5.47212">
        <ele>436</ele>
        <time>2021-04-03T12:47:22.589Z</time>
      </trkpt>
      <trkpt lat="45.58535" lon="5.47221">
        <ele>435</ele>
        <time>2021-04-03T12:47:23.589Z</time>
      </trkpt>
      <trkpt lat="45.58533" lon="5.47234">
        <ele>435</ele>
        <time>2021-04-03T12:47:24.589Z</time>
      </trkpt>
      <trkpt lat="45.58532" lon="5.47243">
        <ele>435</ele>
        <time>2021-04-03T12:47:25.589Z</time>
      </trkpt>
      <trkpt lat="45.5853" lon="5.47254">
        <ele>434</ele>
        <time>2021-04-03T12:47:26.588Z</time>
      </trkpt>
      <trkpt lat="45.58529" lon="5.47266">
        <ele>434</ele>
        <time>2021-04-03T12:47:27.589Z</time>
      </trkpt>
      <trkpt lat="45.58528" lon="5.4728">
        <ele>434</ele>
        <time>2021-04-03T12:47:28.589Z</time>
      </trkpt>
      <trkpt lat="45.58528" lon="5.47293">
        <ele>434</ele>
        <time>2021-04-03T12:47:29.588Z</time>
      </trkpt>
      <trkpt lat="45.5853" lon="5.47303">
        <ele>434</ele>
        <time>2021-04-03T12:47:30.589Z</time>
      </trkpt>
      <trkpt lat="45.58535" lon="5.47317">
        <ele>434</ele>
        <time>2021-04-03T12:47:31.588Z</time>
      </trkpt>
      <trkpt lat="45.5854" lon="5.47326">
        <ele>435</ele>
        <time>2021-04-03T12:47:32.589Z</time>
      </trkpt>
      <trkpt lat="45.58549" lon="5.47336">
        <ele>435</ele>
        <time>2021-04-03T12:47:33.588Z</time>
      </trkpt>
      <trkpt lat="45.58557" lon="5.47341">
        <ele>435</ele>
        <time>2021-04-03T12:47:34.588Z</time>
      </trkpt>
      <trkpt lat="45.58566" lon="5.47347">
        <ele>435</ele>
        <time>2021-04-03T12:47:35.589Z</time>
      </trkpt>
      <trkpt lat="45.58576" lon="5.47354">
        <ele>435</ele>
        <time>2021-04-03T12:47:36.589Z</time>
      </trkpt>
      <trkpt lat="45.58585" lon="5.47358">
        <ele>435</ele>
        <time>2021-04-03T12:47:37.588Z</time>
      </trkpt>
      <trkpt lat="45.58592" lon="5.47361">
        <ele>435</ele>
        <time>2021-04-03T12:47:38.589Z</time>
      </trkpt>
      <trkpt lat="45.586" lon="5.47365">
        <ele>435</ele>
        <time>2021-04-03T12:47:39.588Z</time>
      </trkpt>
      <trkpt lat="45.58609" lon="5.47369">
        <ele>435</ele>
        <time>2021-04-03T12:47:40.588Z</time>
      </trkpt>
      <trkpt lat="45.58617" lon="5.47371">
        <ele>435</ele>
        <time>2021-04-03T12:47:41.588Z</time>
      </trkpt>
      <trkpt lat="45.58623" lon="5.47373">
        <ele>435</ele>
        <time>2021-04-03T12:47:42.589Z</time>
      </trkpt>
      <trkpt lat="45.5863" lon="5.47375">
        <ele>434</ele>
        <time>2021-04-03T12:47:43.589Z</time>
      </trkpt>
      <trkpt lat="45.58638" lon="5.47377">
        <ele>434</ele>
        <time>2021-04-03T12:47:44.589Z</time>
      </trkpt>
      <trkpt lat="45.58645" lon="5.47378">
        <ele>433</ele>
        <time>2021-04-03T12:47:45.589Z</time>
      </trkpt>
      <trkpt lat="45.58653" lon="5.47379">
        <ele>432</ele>
        <time>2021-04-03T12:47:46.589Z</time>
      </trkpt>
      <trkpt lat="45.58659" lon="5.47378">
        <ele>432</ele>
        <time>2021-04-03T12:47:47.589Z</time>
      </trkpt>
      <trkpt lat="45.58666" lon="5.47378">
        <ele>432</ele>
        <time>2021-04-03T12:47:48.589Z</time>
      </trkpt>
      <trkpt lat="45.58673" lon="5.47377">
        <ele>432</ele>
        <time>2021-04-03T12:47:49.589Z</time>
      </trkpt>
      <trkpt lat="45.58682" lon="5.47375">
        <ele>432</ele>
        <time>2021-04-03T12:47:50.589Z</time>
      </trkpt>
      <trkpt lat="45.58689" lon="5.47374">
        <ele>431</ele>
        <time>2021-04-03T12:47:51.588Z</time>
      </trkpt>
      <trkpt lat="45.58694" lon="5.47373">
        <ele>431</ele>
        <time>2021-04-03T12:47:52.589Z</time>
      </trkpt>
      <trkpt lat="45.58703" lon="5.47371">
        <ele>430</ele>
        <time>2021-04-03T12:47:53.589Z</time>
      </trkpt>
      <trkpt lat="45.58709" lon="5.4737">
        <ele>430</ele>
        <time>2021-04-03T12:47:54.589Z</time>
      </trkpt>
      <trkpt lat="45.58718" lon="5.47368">
        <ele>429</ele>
        <time>2021-04-03T12:47:55.588Z</time>
      </trkpt>
      <trkpt lat="45.58725" lon="5.47367">
        <ele>429</ele>
        <time>2021-04-03T12:47:56.589Z</time>
      </trkpt>
      <trkpt lat="45.58733" lon="5.47367">
        <ele>428</ele>
        <time>2021-04-03T12:47:57.589Z</time>
      </trkpt>
      <trkpt lat="45.58743" lon="5.47368">
        <ele>427</ele>
        <time>2021-04-03T12:47:58.589Z</time>
      </trkpt>
      <trkpt lat="45.58751" lon="5.47371">
        <ele>427</ele>
        <time>2021-04-03T12:47:59.589Z</time>
      </trkpt>
      <trkpt lat="45.58758" lon="5.47375">
        <ele>426</ele>
        <time>2021-04-03T12:48:00.589Z</time>
      </trkpt>
      <trkpt lat="45.58766" lon="5.4738">
        <ele>426</ele>
        <time>2021-04-03T12:48:01.588Z</time>
      </trkpt>
      <trkpt lat="45.58774" lon="5.47387">
        <ele>426</ele>
        <time>2021-04-03T12:48:02.588Z</time>
      </trkpt>
      <trkpt lat="45.5878" lon="5.47393">
        <ele>425</ele>
        <time>2021-04-03T12:48:03.588Z</time>
      </trkpt>
      <trkpt lat="45.58787" lon="5.47401">
        <ele>425</ele>
        <time>2021-04-03T12:48:04.589Z</time>
      </trkpt>
      <trkpt lat="45.58792" lon="5.47406">
        <ele>424</ele>
        <time>2021-04-03T12:48:05.589Z</time>
      </trkpt>
      <trkpt lat="45.58798" lon="5.47414">
        <ele>424</ele>
        <time>2021-04-03T12:48:06.588Z</time>
      </trkpt>
      <trkpt lat="45.58805" lon="5.47423">
        <ele>424</ele>
        <time>2021-04-03T12:48:07.589Z</time>
      </trkpt>
      <trkpt lat="45.58809" lon="5.4743">
        <ele>424</ele>
        <time>2021-04-03T12:48:08.589Z</time>
      </trkpt>
      <trkpt lat="45.58813" lon="5.47438">
        <ele>424</ele>
        <time>2021-04-03T12:48:09.589Z</time>
      </trkpt>
      <trkpt lat="45.58818" lon="5.47446">
        <ele>423</ele>
        <time>2021-04-03T12:48:10.589Z</time>
      </trkpt>
      <trkpt lat="45.58822" lon="5.47454">
        <ele>423</ele>
        <time>2021-04-03T12:48:11.589Z</time>
      </trkpt>
      <trkpt lat="45.58825" lon="5.47461">
        <ele>424</ele>
        <time>2021-04-03T12:48:12.589Z</time>
      </trkpt>
      <trkpt lat="45.5883" lon="5.4747">
        <ele>424</ele>
        <time>2021-04-03T12:48:13.589Z</time>
      </trkpt>
      <trkpt lat="45.58832" lon="5.47476">
        <ele>424</ele>
        <time>2021-04-03T12:48:14.589Z</time>
      </trkpt>
      <trkpt lat="45.58835" lon="5.47482">
        <ele>424</ele>
        <time>2021-04-03T12:48:15.589Z</time>
      </trkpt>
      <trkpt lat="45.58837" lon="5.47488">
        <ele>424</ele>
        <time>2021-04-03T12:48:16.589Z</time>
      </trkpt>
      <trkpt lat="45.58839" lon="5.47495">
        <ele>424</ele>
        <time>2021-04-03T12:48:17.589Z</time>
      </trkpt>
      <trkpt lat="45.58841" lon="5.47501">
        <ele>424</ele>
        <time>2021-04-03T12:48:18.589Z</time>
      </trkpt>
      <trkpt lat="45.58843" lon="5.47507">
        <ele>424</ele>
        <time>2021-04-03T12:48:19.588Z</time>
      </trkpt>
      <trkpt lat="45.58844" lon="5.47514">
        <ele>424</ele>
        <time>2021-04-03T12:48:20.589Z</time>
      </trkpt>
      <trkpt lat="45.58845" lon="5.4752">
        <ele>424</ele>
        <time>2021-04-03T12:48:21.589Z</time>
      </trkpt>
      <trkpt lat="45.58845" lon="5.47527">
        <ele>424</ele>
        <time>2021-04-03T12:48:22.589Z</time>
      </trkpt>
      <trkpt lat="45.58845" lon="5.47533">
        <ele>424</ele>
        <time>2021-04-03T12:48:23.589Z</time>
      </trkpt>
      <trkpt lat="45.58846" lon="5.47539">
        <ele>424</ele>
        <time>2021-04-03T12:48:24.589Z</time>
      </trkpt>
      <trkpt lat="45.58847" lon="5.47546">
        <ele>424</ele>
        <time>2021-04-03T12:48:25.589Z</time>
      </trkpt>
      <trkpt lat="45.58847" lon="5.47551">
        <ele>425</ele>
        <time>2021-04-03T12:48:26.588Z</time>
      </trkpt>
      <trkpt lat="45.58847" lon="5.47556">
        <ele>425</ele>
        <time>2021-04-03T12:48:27.589Z</time>
      </trkpt>
      <trkpt lat="45.58847" lon="5.47562">
        <ele>425</ele>
        <time>2021-04-03T12:48:28.589Z</time>
      </trkpt>
      <trkpt lat="45.58846" lon="5.47568">
        <ele>425</ele>
        <time>2021-04-03T12:48:29.589Z</time>
      </trkpt>
      <trkpt lat="45.58844" lon="5.47573">
        <ele>425</ele>
        <time>2021-04-03T12:48:30.589Z</time>
      </trkpt>
      <trkpt lat="45.58843" lon="5.47578">
        <ele>425</ele>
        <time>2021-04-03T12:48:31.588Z</time>
      </trkpt>
      <trkpt lat="45.58842" lon="5.47584">
        <ele>424</ele>
        <time>2021-04-03T12:48:32.589Z</time>
      </trkpt>
      <trkpt lat="45.58842" lon="5.4759">
        <ele>425</ele>
        <time>2021-04-03T12:48:33.589Z</time>
      </trkpt>
      <trkpt lat="45.58842" lon="5.47597">
        <ele>425</ele>
        <time>2021-04-03T12:48:34.589Z</time>
      </trkpt>
      <trkpt lat="45.58841" lon="5.47602">
        <ele>424</ele>
        <time>2021-04-03T12:48:35.589Z</time>
      </trkpt>
      <trkpt lat="45.5884" lon="5.47609">
        <ele>424</ele>
        <time>2021-04-03T12:48:36.589Z</time>
      </trkpt>
      <trkpt lat="45.58839" lon="5.47615">
        <ele>424</ele>
        <time>2021-04-03T12:48:37.589Z</time>
      </trkpt>
      <trkpt lat="45.58838" lon="5.47624">
        <ele>424</ele>
        <time>2021-04-03T12:48:38.589Z</time>
      </trkpt>
      <trkpt lat="45.58838" lon="5.47631">
        <ele>423</ele>
        <time>2021-04-03T12:48:39.589Z</time>
      </trkpt>
      <trkpt lat="45.58837" lon="5.47638">
        <ele>423</ele>
        <time>2021-04-03T12:48:40.589Z</time>
      </trkpt>
      <trkpt lat="45.58837" lon="5.47646">
        <ele>423</ele>
        <time>2021-04-03T12:48:41.589Z</time>
      </trkpt>
      <trkpt lat="45.58837" lon="5.47655">
        <ele>422</ele>
        <time>2021-04-03T12:48:42.589Z</time>
      </trkpt>
      <trkpt lat="45.58837" lon="5.47664">
        <ele>423</ele>
        <time>2021-04-03T12:48:43.589Z</time>
      </trkpt>
      <trkpt lat="45.58838" lon="5.47674">
        <ele>423</ele>
        <time>2021-04-03T12:48:44.589Z</time>
      </trkpt>
      <trkpt lat="45.58838" lon="5.47683">
        <ele>423</ele>
        <time>2021-04-03T12:48:45.588Z</time>
      </trkpt>
      <trkpt lat="45.58839" lon="5.47691">
        <ele>423</ele>
        <time>2021-04-03T12:48:46.589Z</time>
      </trkpt>
      <trkpt lat="45.58839" lon="5.47702">
        <ele>423</ele>
        <time>2021-04-03T12:48:47.589Z</time>
      </trkpt>
      <trkpt lat="45.5884" lon="5.47712">
        <ele>424</ele>
        <time>2021-04-03T12:48:48.589Z</time>
      </trkpt>
      <trkpt lat="45.58841" lon="5.47719">
        <ele>424</ele>
        <time>2021-04-03T12:48:49.589Z</time>
      </trkpt>
      <trkpt lat="45.58842" lon="5.47729">
        <ele>424</ele>
        <time>2021-04-03T12:48:50.589Z</time>
      </trkpt>
      <trkpt lat="45.58844" lon="5.47741">
        <ele>425</ele>
        <time>2021-04-03T12:48:51.588Z</time>
      </trkpt>
      <trkpt lat="45.58846" lon="5.4775">
        <ele>425</ele>
        <time>2021-04-03T12:48:52.589Z</time>
      </trkpt>
      <trkpt lat="45.5885" lon="5.4776">
        <ele>425</ele>
        <time>2021-04-03T12:48:53.589Z</time>
      </trkpt>
      <trkpt lat="45.58853" lon="5.4777">
        <ele>425</ele>
        <time>2021-04-03T12:48:54.589Z</time>
      </trkpt>
      <trkpt lat="45.58857" lon="5.47781">
        <ele>425</ele>
        <time>2021-04-03T12:48:55.588Z</time>
      </trkpt>
      <trkpt lat="45.5886" lon="5.47795">
        <ele>425</ele>
        <time>2021-04-03T12:48:56.589Z</time>
      </trkpt>
      <trkpt lat="45.58863" lon="5.47808">
        <ele>425</ele>
        <time>2021-04-03T12:48:57.588Z</time>
      </trkpt>
      <trkpt lat="45.58867" lon="5.4782">
        <ele>425</ele>
        <time>2021-04-03T12:48:58.588Z</time>
      </trkpt>
      <trkpt lat="45.5887" lon="5.47831">
        <ele>424</ele>
        <time>2021-04-03T12:48:59.589Z</time>
      </trkpt>
      <trkpt lat="45.58875" lon="5.47847">
        <ele>423</ele>
        <time>2021-04-03T12:49:00.589Z</time>
      </trkpt>
      <trkpt lat="45.5888" lon="5.47858">
        <ele>423</ele>
        <time>2021-04-03T12:49:01.589Z</time>
      </trkpt>
      <trkpt lat="45.58886" lon="5.47875">
        <ele>422</ele>
        <time>2021-04-03T12:49:02.589Z</time>
      </trkpt>
      <trkpt lat="45.58889" lon="5.47887">
        <ele>421</ele>
        <time>2021-04-03T12:49:03.589Z</time>
      </trkpt>
      <trkpt lat="45.58894" lon="5.47902">
        <ele>421</ele>
        <time>2021-04-03T12:49:04.589Z</time>
      </trkpt>
      <trkpt lat="45.58898" lon="5.47918">
        <ele>420</ele>
        <time>2021-04-03T12:49:05.589Z</time>
      </trkpt>
      <trkpt lat="45.58901" lon="5.47935">
        <ele>419</ele>
        <time>2021-04-03T12:49:06.588Z</time>
      </trkpt>
      <trkpt lat="45.58903" lon="5.47953">
        <ele>418</ele>
        <time>2021-04-03T12:49:07.589Z</time>
      </trkpt>
      <trkpt lat="45.58903" lon="5.47971">
        <ele>417</ele>
        <time>2021-04-03T12:49:08.588Z</time>
      </trkpt>
      <trkpt lat="45.58903" lon="5.47989">
        <ele>416</ele>
        <time>2021-04-03T12:49:09.589Z</time>
      </trkpt>
      <trkpt lat="45.58902" lon="5.48006">
        <ele>415</ele>
        <time>2021-04-03T12:49:10.589Z</time>
      </trkpt>
      <trkpt lat="45.58901" lon="5.48024">
        <ele>413</ele>
        <time>2021-04-03T12:49:11.589Z</time>
      </trkpt>
      <trkpt lat="45.58899" lon="5.48042">
        <ele>412</ele>
        <time>2021-04-03T12:49:12.588Z</time>
      </trkpt>
      <trkpt lat="45.58897" lon="5.48061">
        <ele>411</ele>
        <time>2021-04-03T12:49:13.589Z</time>
      </trkpt>
      <trkpt lat="45.58896" lon="5.48079">
        <ele>409</ele>
        <time>2021-04-03T12:49:14.588Z</time>
      </trkpt>
      <trkpt lat="45.58893" lon="5.48096">
        <ele>408</ele>
        <time>2021-04-03T12:49:15.589Z</time>
      </trkpt>
      <trkpt lat="45.58891" lon="5.48115">
        <ele>407</ele>
        <time>2021-04-03T12:49:16.589Z</time>
      </trkpt>
      <trkpt lat="45.58889" lon="5.48132">
        <ele>406</ele>
        <time>2021-04-03T12:49:17.589Z</time>
      </trkpt>
      <trkpt lat="45.58888" lon="5.48148">
        <ele>405</ele>
        <time>2021-04-03T12:49:18.588Z</time>
      </trkpt>
      <trkpt lat="45.58886" lon="5.48168">
        <ele>404</ele>
        <time>2021-04-03T12:49:19.589Z</time>
      </trkpt>
      <trkpt lat="45.58885" lon="5.4818">
        <ele>403</ele>
        <time>2021-04-03T12:49:20.589Z</time>
      </trkpt>
      <trkpt lat="45.58882" lon="5.48199">
        <ele>402</ele>
        <time>2021-04-03T12:49:21.588Z</time>
      </trkpt>
      <trkpt lat="45.5888" lon="5.4821">
        <ele>402</ele>
        <time>2021-04-03T12:49:22.589Z</time>
      </trkpt>
      <trkpt lat="45.58877" lon="5.48227">
        <ele>401</ele>
        <time>2021-04-03T12:49:23.589Z</time>
      </trkpt>
      <trkpt lat="45.58875" lon="5.48238">
        <ele>400</ele>
        <time>2021-04-03T12:49:24.589Z</time>
      </trkpt>
      <trkpt lat="45.58872" lon="5.48252">
        <ele>399</ele>
        <time>2021-04-03T12:49:25.589Z</time>
      </trkpt>
      <trkpt lat="45.58869" lon="5.48265">
        <ele>398</ele>
        <time>2021-04-03T12:49:26.589Z</time>
      </trkpt>
      <trkpt lat="45.58866" lon="5.48278">
        <ele>397</ele>
        <time>2021-04-03T12:49:27.589Z</time>
      </trkpt>
      <trkpt lat="45.58864" lon="5.4829">
        <ele>397</ele>
        <time>2021-04-03T12:49:28.589Z</time>
      </trkpt>
      <trkpt lat="45.58861" lon="5.48303">
        <ele>396</ele>
        <time>2021-04-03T12:49:29.589Z</time>
      </trkpt>
      <trkpt lat="45.58858" lon="5.48317">
        <ele>396</ele>
        <time>2021-04-03T12:49:30.589Z</time>
      </trkpt>
      <trkpt lat="45.58857" lon="5.48326">
        <ele>396</ele>
        <time>2021-04-03T12:49:31.589Z</time>
      </trkpt>
      <trkpt lat="45.58854" lon="5.48339">
        <ele>396</ele>
        <time>2021-04-03T12:49:32.589Z</time>
      </trkpt>
      <trkpt lat="45.58851" lon="5.48349">
        <ele>396</ele>
        <time>2021-04-03T12:49:33.588Z</time>
      </trkpt>
      <trkpt lat="45.58849" lon="5.48358">
        <ele>396</ele>
        <time>2021-04-03T12:49:34.589Z</time>
      </trkpt>
      <trkpt lat="45.58848" lon="5.48369">
        <ele>396</ele>
        <time>2021-04-03T12:49:35.589Z</time>
      </trkpt>
      <trkpt lat="45.58846" lon="5.4838">
        <ele>396</ele>
        <time>2021-04-03T12:49:36.589Z</time>
      </trkpt>
      <trkpt lat="45.58844" lon="5.48389">
        <ele>396</ele>
        <time>2021-04-03T12:49:37.588Z</time>
      </trkpt>
      <trkpt lat="45.58841" lon="5.48402">
        <ele>396</ele>
        <time>2021-04-03T12:49:38.589Z</time>
      </trkpt>
      <trkpt lat="45.58839" lon="5.48412">
        <ele>396</ele>
        <time>2021-04-03T12:49:39.589Z</time>
      </trkpt>
      <trkpt lat="45.58838" lon="5.4842">
        <ele>397</ele>
        <time>2021-04-03T12:49:40.588Z</time>
      </trkpt>
      <trkpt lat="45.58836" lon="5.48432">
        <ele>397</ele>
        <time>2021-04-03T12:49:41.588Z</time>
      </trkpt>
      <trkpt lat="45.58834" lon="5.48439">
        <ele>397</ele>
        <time>2021-04-03T12:49:42.589Z</time>
      </trkpt>
      <trkpt lat="45.58832" lon="5.48449">
        <ele>397</ele>
        <time>2021-04-03T12:49:43.588Z</time>
      </trkpt>
      <trkpt lat="45.5883" lon="5.48459">
        <ele>397</ele>
        <time>2021-04-03T12:49:44.589Z</time>
      </trkpt>
      <trkpt lat="45.58828" lon="5.4847">
        <ele>397</ele>
        <time>2021-04-03T12:49:45.589Z</time>
      </trkpt>
      <trkpt lat="45.58826" lon="5.48477">
        <ele>398</ele>
        <time>2021-04-03T12:49:46.589Z</time>
      </trkpt>
      <trkpt lat="45.58824" lon="5.48488">
        <ele>398</ele>
        <time>2021-04-03T12:49:47.589Z</time>
      </trkpt>
      <trkpt lat="45.58823" lon="5.48497">
        <ele>398</ele>
        <time>2021-04-03T12:49:48.588Z</time>
      </trkpt>
      <trkpt lat="45.58821" lon="5.48505">
        <ele>398</ele>
        <time>2021-04-03T12:49:49.588Z</time>
      </trkpt>
      <trkpt lat="45.58819" lon="5.48514">
        <ele>398</ele>
        <time>2021-04-03T12:49:50.589Z</time>
      </trkpt>
      <trkpt lat="45.58818" lon="5.48523">
        <ele>398</ele>
        <time>2021-04-03T12:49:51.589Z</time>
      </trkpt>
      <trkpt lat="45.58816" lon="5.48532">
        <ele>398</ele>
        <time>2021-04-03T12:49:52.589Z</time>
      </trkpt>
      <trkpt lat="45.58814" lon="5.48541">
        <ele>398</ele>
        <time>2021-04-03T12:49:53.588Z</time>
      </trkpt>
      <trkpt lat="45.58812" lon="5.48551">
        <ele>398</ele>
        <time>2021-04-03T12:49:54.589Z</time>
      </trkpt>
      <trkpt lat="45.58811" lon="5.4856">
        <ele>398</ele>
        <time>2021-04-03T12:49:55.589Z</time>
      </trkpt>
      <trkpt lat="45.58809" lon="5.48569">
        <ele>398</ele>
        <time>2021-04-03T12:49:56.589Z</time>
      </trkpt>
      <trkpt lat="45.58807" lon="5.48578">
        <ele>398</ele>
        <time>2021-04-03T12:49:57.588Z</time>
      </trkpt>
      <trkpt lat="45.58805" lon="5.48587">
        <ele>399</ele>
        <time>2021-04-03T12:49:58.589Z</time>
      </trkpt>
      <trkpt lat="45.58804" lon="5.48595">
        <ele>398</ele>
        <time>2021-04-03T12:49:59.588Z</time>
      </trkpt>
      <trkpt lat="45.58802" lon="5.48604">
        <ele>398</ele>
        <time>2021-04-03T12:50:00.589Z</time>
      </trkpt>
      <trkpt lat="45.588" lon="5.48613">
        <ele>398</ele>
        <time>2021-04-03T12:50:01.588Z</time>
      </trkpt>
      <trkpt lat="45.58799" lon="5.48621">
        <ele>398</ele>
        <time>2021-04-03T12:50:02.588Z</time>
      </trkpt>
      <trkpt lat="45.58797" lon="5.4863">
        <ele>398</ele>
        <time>2021-04-03T12:50:03.588Z</time>
      </trkpt>
      <trkpt lat="45.58796" lon="5.48638">
        <ele>398</ele>
        <time>2021-04-03T12:50:04.588Z</time>
      </trkpt>
      <trkpt lat="45.58794" lon="5.48646">
        <ele>399</ele>
        <time>2021-04-03T12:50:05.588Z</time>
      </trkpt>
      <trkpt lat="45.58792" lon="5.48656">
        <ele>399</ele>
        <time>2021-04-03T12:50:06.588Z</time>
      </trkpt>
      <trkpt lat="45.58791" lon="5.48663">
        <ele>399</ele>
        <time>2021-04-03T12:50:07.588Z</time>
      </trkpt>
      <trkpt lat="45.58789" lon="5.4867">
        <ele>399</ele>
        <time>2021-04-03T12:50:08.588Z</time>
      </trkpt>
      <trkpt lat="45.58787" lon="5.48679">
        <ele>399</ele>
        <time>2021-04-03T12:50:09.589Z</time>
      </trkpt>
      <trkpt lat="45.58786" lon="5.48685">
        <ele>399</ele>
        <time>2021-04-03T12:50:10.588Z</time>
      </trkpt>
      <trkpt lat="45.58785" lon="5.48693">
        <ele>399</ele>
        <time>2021-04-03T12:50:11.589Z</time>
      </trkpt>
      <trkpt lat="45.58783" lon="5.487">
        <ele>399</ele>
        <time>2021-04-03T12:50:12.589Z</time>
      </trkpt>
      <trkpt lat="45.58781" lon="5.48708">
        <ele>399</ele>
        <time>2021-04-03T12:50:13.589Z</time>
      </trkpt>
      <trkpt lat="45.5878" lon="5.48716">
        <ele>399</ele>
        <time>2021-04-03T12:50:14.589Z</time>
      </trkpt>
      <trkpt lat="45.58778" lon="5.48726">
        <ele>399</ele>
        <time>2021-04-03T12:50:15.589Z</time>
      </trkpt>
      <trkpt lat="45.58777" lon="5.48732">
        <ele>399</ele>
        <time>2021-04-03T12:50:16.589Z</time>
      </trkpt>
      <trkpt lat="45.58775" lon="5.4874">
        <ele>399</ele>
        <time>2021-04-03T12:50:17.588Z</time>
      </trkpt>
      <trkpt lat="45.58774" lon="5.48747">
        <ele>399</ele>
        <time>2021-04-03T12:50:18.589Z</time>
      </trkpt>
      <trkpt lat="45.58773" lon="5.48755">
        <ele>400</ele>
        <time>2021-04-03T12:50:19.588Z</time>
      </trkpt>
      <trkpt lat="45.58771" lon="5.48763">
        <ele>400</ele>
        <time>2021-04-03T12:50:20.589Z</time>
      </trkpt>
      <trkpt lat="45.5877" lon="5.4877">
        <ele>400</ele>
        <time>2021-04-03T12:50:21.589Z</time>
      </trkpt>
      <trkpt lat="45.58768" lon="5.48778">
        <ele>400</ele>
        <time>2021-04-03T12:50:22.589Z</time>
      </trkpt>
      <trkpt lat="45.58767" lon="5.48787">
        <ele>400</ele>
        <time>2021-04-03T12:50:23.588Z</time>
      </trkpt>
      <trkpt lat="45.58765" lon="5.48794">
        <ele>400</ele>
        <time>2021-04-03T12:50:24.589Z</time>
      </trkpt>
      <trkpt lat="45.58764" lon="5.48799">
        <ele>399</ele>
        <time>2021-04-03T12:50:25.589Z</time>
      </trkpt>
      <trkpt lat="45.58762" lon="5.48808">
        <ele>399</ele>
        <time>2021-04-03T12:50:26.589Z</time>
      </trkpt>
      <trkpt lat="45.5876" lon="5.48815">
        <ele>399</ele>
        <time>2021-04-03T12:50:27.589Z</time>
      </trkpt>
      <trkpt lat="45.58759" lon="5.48822">
        <ele>399</ele>
        <time>2021-04-03T12:50:28.589Z</time>
      </trkpt>
      <trkpt lat="45.58758" lon="5.48828">
        <ele>400</ele>
        <time>2021-04-03T12:50:29.588Z</time>
      </trkpt>
      <trkpt lat="45.58757" lon="5.48835">
        <ele>400</ele>
        <time>2021-04-03T12:50:30.589Z</time>
      </trkpt>
      <trkpt lat="45.58755" lon="5.48844">
        <ele>399</ele>
        <time>2021-04-03T12:50:31.589Z</time>
      </trkpt>
      <trkpt lat="45.58754" lon="5.48849">
        <ele>399</ele>
        <time>2021-04-03T12:50:32.589Z</time>
      </trkpt>
      <trkpt lat="45.58753" lon="5.48856">
        <ele>400</ele>
        <time>2021-04-03T12:50:33.589Z</time>
      </trkpt>
      <trkpt lat="45.58751" lon="5.48862">
        <ele>400</ele>
        <time>2021-04-03T12:50:34.589Z</time>
      </trkpt>
      <trkpt lat="45.5875" lon="5.48869">
        <ele>400</ele>
        <time>2021-04-03T12:50:35.589Z</time>
      </trkpt>
      <trkpt lat="45.58748" lon="5.48876">
        <ele>400</ele>
        <time>2021-04-03T12:50:36.588Z</time>
      </trkpt>
      <trkpt lat="45.58747" lon="5.48883">
        <ele>401</ele>
        <time>2021-04-03T12:50:37.589Z</time>
      </trkpt>
      <trkpt lat="45.58746" lon="5.4889">
        <ele>401</ele>
        <time>2021-04-03T12:50:38.589Z</time>
      </trkpt>
      <trkpt lat="45.58744" lon="5.48896">
        <ele>401</ele>
        <time>2021-04-03T12:50:39.589Z</time>
      </trkpt>
      <trkpt lat="45.58743" lon="5.48903">
        <ele>401</ele>
        <time>2021-04-03T12:50:40.588Z</time>
      </trkpt>
      <trkpt lat="45.58742" lon="5.48909">
        <ele>402</ele>
        <time>2021-04-03T12:50:41.589Z</time>
      </trkpt>
      <trkpt lat="45.58741" lon="5.48916">
        <ele>402</ele>
        <time>2021-04-03T12:50:42.589Z</time>
      </trkpt>
      <trkpt lat="45.5874" lon="5.48922">
        <ele>403</ele>
        <time>2021-04-03T12:50:43.589Z</time>
      </trkpt>
      <trkpt lat="45.58738" lon="5.48929">
        <ele>403</ele>
        <time>2021-04-03T12:50:44.589Z</time>
      </trkpt>
      <trkpt lat="45.58737" lon="5.48936">
        <ele>403</ele>
        <time>2021-04-03T12:50:45.589Z</time>
      </trkpt>
      <trkpt lat="45.58736" lon="5.48941">
        <ele>403</ele>
        <time>2021-04-03T12:50:46.588Z</time>
      </trkpt>
      <trkpt lat="45.58734" lon="5.48947">
        <ele>403</ele>
        <time>2021-04-03T12:50:47.588Z</time>
      </trkpt>
      <trkpt lat="45.58733" lon="5.48953">
        <ele>403</ele>
        <time>2021-04-03T12:50:48.589Z</time>
      </trkpt>
      <trkpt lat="45.58732" lon="5.4896">
        <ele>403</ele>
        <time>2021-04-03T12:50:49.589Z</time>
      </trkpt>
      <trkpt lat="45.58731" lon="5.48966">
        <ele>403</ele>
        <time>2021-04-03T12:50:50.589Z</time>
      </trkpt>
      <trkpt lat="45.5873" lon="5.48971">
        <ele>403</ele>
        <time>2021-04-03T12:50:51.588Z</time>
      </trkpt>
      <trkpt lat="45.58729" lon="5.48976">
        <ele>403</ele>
        <time>2021-04-03T12:50:52.588Z</time>
      </trkpt>
      <trkpt lat="45.58728" lon="5.48983">
        <ele>404</ele>
        <time>2021-04-03T12:50:53.589Z</time>
      </trkpt>
      <trkpt lat="45.58727" lon="5.48988">
        <ele>404</ele>
        <time>2021-04-03T12:50:54.589Z</time>
      </trkpt>
      <trkpt lat="45.58726" lon="5.48995">
        <ele>405</ele>
        <time>2021-04-03T12:50:55.588Z</time>
      </trkpt>
      <trkpt lat="45.58725" lon="5.48999">
        <ele>406</ele>
        <time>2021-04-03T12:50:56.589Z</time>
      </trkpt>
      <trkpt lat="45.58724" lon="5.49005">
        <ele>406</ele>
        <time>2021-04-03T12:50:57.588Z</time>
      </trkpt>
      <trkpt lat="45.58722" lon="5.49012">
        <ele>407</ele>
        <time>2021-04-03T12:50:58.589Z</time>
      </trkpt>
      <trkpt lat="45.58721" lon="5.49017">
        <ele>407</ele>
        <time>2021-04-03T12:50:59.589Z</time>
      </trkpt>
      <trkpt lat="45.5872" lon="5.49022">
        <ele>407</ele>
        <time>2021-04-03T12:51:00.588Z</time>
      </trkpt>
      <trkpt lat="45.58719" lon="5.49027">
        <ele>408</ele>
        <time>2021-04-03T12:51:01.589Z</time>
      </trkpt>
      <trkpt lat="45.58717" lon="5.49032">
        <ele>408</ele>
        <time>2021-04-03T12:51:02.588Z</time>
      </trkpt>
      <trkpt lat="45.58716" lon="5.49038">
        <ele>408</ele>
        <time>2021-04-03T12:51:03.589Z</time>
      </trkpt>
      <trkpt lat="45.58715" lon="5.49045">
        <ele>408</ele>
        <time>2021-04-03T12:51:04.589Z</time>
      </trkpt>
      <trkpt lat="45.58714" lon="5.49049">
        <ele>408</ele>
        <time>2021-04-03T12:51:05.589Z</time>
      </trkpt>
      <trkpt lat="45.58713" lon="5.49054">
        <ele>409</ele>
        <time>2021-04-03T12:51:06.589Z</time>
      </trkpt>
      <trkpt lat="45.58711" lon="5.49061">
        <ele>409</ele>
        <time>2021-04-03T12:51:07.589Z</time>
      </trkpt>
      <trkpt lat="45.5871" lon="5.49066">
        <ele>409</ele>
        <time>2021-04-03T12:51:08.588Z</time>
      </trkpt>
      <trkpt lat="45.58709" lon="5.4907">
        <ele>409</ele>
        <time>2021-04-03T12:51:09.589Z</time>
      </trkpt>
      <trkpt lat="45.58707" lon="5.49075">
        <ele>408</ele>
        <time>2021-04-03T12:51:10.589Z</time>
      </trkpt>
      <trkpt lat="45.58705" lon="5.49081">
        <ele>409</ele>
        <time>2021-04-03T12:51:11.589Z</time>
      </trkpt>
      <trkpt lat="45.58704" lon="5.49087">
        <ele>409</ele>
        <time>2021-04-03T12:51:12.588Z</time>
      </trkpt>
      <trkpt lat="45.58702" lon="5.49091">
        <ele>409</ele>
        <time>2021-04-03T12:51:13.589Z</time>
      </trkpt>
      <trkpt lat="45.58701" lon="5.49097">
        <ele>409</ele>
        <time>2021-04-03T12:51:14.589Z</time>
      </trkpt>
      <trkpt lat="45.58698" lon="5.49103">
        <ele>410</ele>
        <time>2021-04-03T12:51:15.588Z</time>
      </trkpt>
      <trkpt lat="45.58697" lon="5.49108">
        <ele>410</ele>
        <time>2021-04-03T12:51:16.589Z</time>
      </trkpt>
      <trkpt lat="45.58695" lon="5.49115">
        <ele>410</ele>
        <time>2021-04-03T12:51:17.589Z</time>
      </trkpt>
      <trkpt lat="45.58693" lon="5.4912">
        <ele>411</ele>
        <time>2021-04-03T12:51:18.588Z</time>
      </trkpt>
      <trkpt lat="45.58691" lon="5.49126">
        <ele>411</ele>
        <time>2021-04-03T12:51:19.589Z</time>
      </trkpt>
      <trkpt lat="45.58689" lon="5.49131">
        <ele>411</ele>
        <time>2021-04-03T12:51:20.589Z</time>
      </trkpt>
      <trkpt lat="45.58687" lon="5.49138">
        <ele>412</ele>
        <time>2021-04-03T12:51:21.589Z</time>
      </trkpt>
      <trkpt lat="45.58685" lon="5.49142">
        <ele>412</ele>
        <time>2021-04-03T12:51:22.589Z</time>
      </trkpt>
      <trkpt lat="45.58683" lon="5.49148">
        <ele>413</ele>
        <time>2021-04-03T12:51:23.589Z</time>
      </trkpt>
      <trkpt lat="45.58681" lon="5.49154">
        <ele>413</ele>
        <time>2021-04-03T12:51:24.588Z</time>
      </trkpt>
      <trkpt lat="45.58679" lon="5.49158">
        <ele>413</ele>
        <time>2021-04-03T12:51:25.588Z</time>
      </trkpt>
      <trkpt lat="45.58677" lon="5.49164">
        <ele>413</ele>
        <time>2021-04-03T12:51:26.589Z</time>
      </trkpt>
      <trkpt lat="45.58675" lon="5.49169">
        <ele>413</ele>
        <time>2021-04-03T12:51:27.589Z</time>
      </trkpt>
      <trkpt lat="45.58673" lon="5.49174">
        <ele>413</ele>
        <time>2021-04-03T12:51:28.589Z</time>
      </trkpt>
      <trkpt lat="45.58671" lon="5.4918">
        <ele>413</ele>
        <time>2021-04-03T12:51:29.589Z</time>
      </trkpt>
      <trkpt lat="45.58669" lon="5.49186">
        <ele>413</ele>
        <time>2021-04-03T12:51:30.589Z</time>
      </trkpt>
      <trkpt lat="45.58668" lon="5.4919">
        <ele>413</ele>
        <time>2021-04-03T12:51:31.589Z</time>
      </trkpt>
      <trkpt lat="45.58666" lon="5.49196">
        <ele>413</ele>
        <time>2021-04-03T12:51:32.589Z</time>
      </trkpt>
      <trkpt lat="45.58663" lon="5.49202">
        <ele>413</ele>
        <time>2021-04-03T12:51:33.588Z</time>
      </trkpt>
      <trkpt lat="45.58661" lon="5.49207">
        <ele>413</ele>
        <time>2021-04-03T12:51:34.589Z</time>
      </trkpt>
      <trkpt lat="45.58659" lon="5.49213">
        <ele>413</ele>
        <time>2021-04-03T12:51:35.589Z</time>
      </trkpt>
      <trkpt lat="45.58657" lon="5.49217">
        <ele>414</ele>
        <time>2021-04-03T12:51:36.589Z</time>
      </trkpt>
      <trkpt lat="45.58655" lon="5.49223">
        <ele>414</ele>
        <time>2021-04-03T12:51:37.588Z</time>
      </trkpt>
      <trkpt lat="45.58653" lon="5.4923">
        <ele>415</ele>
        <time>2021-04-03T12:51:38.588Z</time>
      </trkpt>
      <trkpt lat="45.58651" lon="5.49235">
        <ele>415</ele>
        <time>2021-04-03T12:51:39.589Z</time>
      </trkpt>
      <trkpt lat="45.5865" lon="5.4924">
        <ele>415</ele>
        <time>2021-04-03T12:51:40.589Z</time>
      </trkpt>
      <trkpt lat="45.58648" lon="5.49245">
        <ele>415</ele>
        <time>2021-04-03T12:51:41.589Z</time>
      </trkpt>
      <trkpt lat="45.58645" lon="5.49252">
        <ele>415</ele>
        <time>2021-04-03T12:51:42.589Z</time>
      </trkpt>
      <trkpt lat="45.58644" lon="5.49256">
        <ele>415</ele>
        <time>2021-04-03T12:51:43.589Z</time>
      </trkpt>
      <trkpt lat="45.58642" lon="5.49262">
        <ele>415</ele>
        <time>2021-04-03T12:51:44.588Z</time>
      </trkpt>
      <trkpt lat="45.5864" lon="5.49267">
        <ele>415</ele>
        <time>2021-04-03T12:51:45.588Z</time>
      </trkpt>
      <trkpt lat="45.58638" lon="5.49273">
        <ele>415</ele>
        <time>2021-04-03T12:51:46.589Z</time>
      </trkpt>
      <trkpt lat="45.58636" lon="5.4928">
        <ele>415</ele>
        <time>2021-04-03T12:51:47.588Z</time>
      </trkpt>
      <trkpt lat="45.58634" lon="5.49285">
        <ele>416</ele>
        <time>2021-04-03T12:51:48.589Z</time>
      </trkpt>
      <trkpt lat="45.58633" lon="5.49291">
        <ele>416</ele>
        <time>2021-04-03T12:51:49.588Z</time>
      </trkpt>
      <trkpt lat="45.58631" lon="5.49296">
        <ele>417</ele>
        <time>2021-04-03T12:51:50.589Z</time>
      </trkpt>
      <trkpt lat="45.58629" lon="5.49304">
        <ele>417</ele>
        <time>2021-04-03T12:51:51.589Z</time>
      </trkpt>
      <trkpt lat="45.58628" lon="5.49308">
        <ele>417</ele>
        <time>2021-04-03T12:51:52.588Z</time>
      </trkpt>
      <trkpt lat="45.58626" lon="5.49315">
        <ele>417</ele>
        <time>2021-04-03T12:51:53.589Z</time>
      </trkpt>
      <trkpt lat="45.58624" lon="5.49321">
        <ele>417</ele>
        <time>2021-04-03T12:51:54.589Z</time>
      </trkpt>
      <trkpt lat="45.58623" lon="5.49329">
        <ele>418</ele>
        <time>2021-04-03T12:51:55.589Z</time>
      </trkpt>
      <trkpt lat="45.58622" lon="5.49335">
        <ele>418</ele>
        <time>2021-04-03T12:51:56.589Z</time>
      </trkpt>
      <trkpt lat="45.5862" lon="5.49343">
        <ele>418</ele>
        <time>2021-04-03T12:51:57.588Z</time>
      </trkpt>
      <trkpt lat="45.5862" lon="5.49348">
        <ele>419</ele>
        <time>2021-04-03T12:51:58.589Z</time>
      </trkpt>
      <trkpt lat="45.58619" lon="5.49355">
        <ele>419</ele>
        <time>2021-04-03T12:51:59.589Z</time>
      </trkpt>
      <trkpt lat="45.58617" lon="5.49363">
        <ele>419</ele>
        <time>2021-04-03T12:52:00.588Z</time>
      </trkpt>
      <trkpt lat="45.58616" lon="5.49369">
        <ele>418</ele>
        <time>2021-04-03T12:52:01.589Z</time>
      </trkpt>
      <trkpt lat="45.58615" lon="5.49375">
        <ele>418</ele>
        <time>2021-04-03T12:52:02.589Z</time>
      </trkpt>
      <trkpt lat="45.58614" lon="5.4938">
        <ele>418</ele>
        <time>2021-04-03T12:52:03.588Z</time>
      </trkpt>
      <trkpt lat="45.58613" lon="5.49386">
        <ele>418</ele>
        <time>2021-04-03T12:52:04.588Z</time>
      </trkpt>
      <trkpt lat="45.58612" lon="5.4939">
        <ele>418</ele>
        <time>2021-04-03T12:52:05.589Z</time>
      </trkpt>
      <trkpt lat="45.58612" lon="5.49395">
        <ele>419</ele>
        <time>2021-04-03T12:52:06.588Z</time>
      </trkpt>
      <trkpt lat="45.58611" lon="5.49399">
        <ele>419</ele>
        <time>2021-04-03T12:52:07.589Z</time>
      </trkpt>
      <trkpt lat="45.5861" lon="5.49403">
        <ele>419</ele>
        <time>2021-04-03T12:52:08.589Z</time>
      </trkpt>
      <trkpt lat="45.58609" lon="5.49408">
        <ele>420</ele>
        <time>2021-04-03T12:52:09.588Z</time>
      </trkpt>
      <trkpt lat="45.58609" lon="5.49412">
        <ele>420</ele>
        <time>2021-04-03T12:52:10.589Z</time>
      </trkpt>
      <trkpt lat="45.58608" lon="5.49415">
        <ele>420</ele>
        <time>2021-04-03T12:52:11.589Z</time>
      </trkpt>
      <trkpt lat="45.58607" lon="5.4942">
        <ele>420</ele>
        <time>2021-04-03T12:52:12.589Z</time>
      </trkpt>
      <trkpt lat="45.58607" lon="5.49425">
        <ele>419</ele>
        <time>2021-04-03T12:52:13.589Z</time>
      </trkpt>
      <trkpt lat="45.58607" lon="5.49428">
        <ele>420</ele>
        <time>2021-04-03T12:52:14.589Z</time>
      </trkpt>
      <trkpt lat="45.58606" lon="5.49433">
        <ele>419</ele>
        <time>2021-04-03T12:52:15.589Z</time>
      </trkpt>
      <trkpt lat="45.58605" lon="5.49436">
        <ele>419</ele>
        <time>2021-04-03T12:52:16.589Z</time>
      </trkpt>
      <trkpt lat="45.58605" lon="5.49439">
        <ele>419</ele>
        <time>2021-04-03T12:52:17.589Z</time>
      </trkpt>
      <trkpt lat="45.58604" lon="5.49444">
        <ele>419</ele>
        <time>2021-04-03T12:52:18.589Z</time>
      </trkpt>
      <trkpt lat="45.58604" lon="5.49448">
        <ele>418</ele>
        <time>2021-04-03T12:52:19.589Z</time>
      </trkpt>
      <trkpt lat="45.58603" lon="5.49451">
        <ele>418</ele>
        <time>2021-04-03T12:52:20.589Z</time>
      </trkpt>
      <trkpt lat="45.58603" lon="5.49454">
        <ele>419</ele>
        <time>2021-04-03T12:52:21.588Z</time>
      </trkpt>
      <trkpt lat="45.58603" lon="5.49458">
        <ele>418</ele>
        <time>2021-04-03T12:52:22.589Z</time>
      </trkpt>
      <trkpt lat="45.58602" lon="5.4946">
        <ele>418</ele>
        <time>2021-04-03T12:52:23.588Z</time>
      </trkpt>
      <trkpt lat="45.58601" lon="5.49464">
        <ele>418</ele>
        <time>2021-04-03T12:52:24.589Z</time>
      </trkpt>
      <trkpt lat="45.586" lon="5.49467">
        <ele>418</ele>
        <time>2021-04-03T12:52:25.589Z</time>
      </trkpt>
      <trkpt lat="45.58599" lon="5.49473">
        <ele>418</ele>
        <time>2021-04-03T12:52:26.588Z</time>
      </trkpt>
      <trkpt lat="45.58598" lon="5.49477">
        <ele>418</ele>
        <time>2021-04-03T12:52:27.589Z</time>
      </trkpt>
      <trkpt lat="45.58596" lon="5.49484">
        <ele>418</ele>
        <time>2021-04-03T12:52:28.589Z</time>
      </trkpt>
      <trkpt lat="45.58595" lon="5.49493">
        <ele>418</ele>
        <time>2021-04-03T12:52:29.589Z</time>
      </trkpt>
      <trkpt lat="45.58594" lon="5.49498">
        <ele>418</ele>
        <time>2021-04-03T12:52:30.589Z</time>
      </trkpt>
      <trkpt lat="45.58592" lon="5.49507">
        <ele>417</ele>
        <time>2021-04-03T12:52:31.589Z</time>
      </trkpt>
      <trkpt lat="45.5859" lon="5.49514">
        <ele>417</ele>
        <time>2021-04-03T12:52:32.589Z</time>
      </trkpt>
      <trkpt lat="45.58589" lon="5.4952">
        <ele>417</ele>
        <time>2021-04-03T12:52:33.588Z</time>
      </trkpt>
      <trkpt lat="45.58588" lon="5.49527">
        <ele>417</ele>
        <time>2021-04-03T12:52:34.589Z</time>
      </trkpt>
      <trkpt lat="45.58587" lon="5.49536">
        <ele>417</ele>
        <time>2021-04-03T12:52:35.589Z</time>
      </trkpt>
      <trkpt lat="45.58586" lon="5.49541">
        <ele>418</ele>
        <time>2021-04-03T12:52:36.589Z</time>
      </trkpt>
      <trkpt lat="45.58584" lon="5.4955">
        <ele>418</ele>
        <time>2021-04-03T12:52:37.589Z</time>
      </trkpt>
      <trkpt lat="45.58584" lon="5.49555">
        <ele>418</ele>
        <time>2021-04-03T12:52:38.588Z</time>
      </trkpt>
      <trkpt lat="45.58583" lon="5.49562">
        <ele>418</ele>
        <time>2021-04-03T12:52:39.588Z</time>
      </trkpt>
      <trkpt lat="45.58581" lon="5.4957">
        <ele>418</ele>
        <time>2021-04-03T12:52:40.589Z</time>
      </trkpt>
      <trkpt lat="45.5858" lon="5.49577">
        <ele>418</ele>
        <time>2021-04-03T12:52:41.589Z</time>
      </trkpt>
      <trkpt lat="45.58579" lon="5.49583">
        <ele>418</ele>
        <time>2021-04-03T12:52:42.589Z</time>
      </trkpt>
      <trkpt lat="45.58577" lon="5.49589">
        <ele>418</ele>
        <time>2021-04-03T12:52:43.589Z</time>
      </trkpt>
      <trkpt lat="45.58576" lon="5.49598">
        <ele>418</ele>
        <time>2021-04-03T12:52:44.589Z</time>
      </trkpt>
      <trkpt lat="45.58574" lon="5.49604">
        <ele>418</ele>
        <time>2021-04-03T12:52:45.589Z</time>
      </trkpt>
      <trkpt lat="45.58573" lon="5.49612">
        <ele>418</ele>
        <time>2021-04-03T12:52:46.588Z</time>
      </trkpt>
      <trkpt lat="45.58572" lon="5.49618">
        <ele>418</ele>
        <time>2021-04-03T12:52:47.588Z</time>
      </trkpt>
      <trkpt lat="45.5857" lon="5.49624">
        <ele>419</ele>
        <time>2021-04-03T12:52:48.588Z</time>
      </trkpt>
      <trkpt lat="45.58569" lon="5.49631">
        <ele>419</ele>
        <time>2021-04-03T12:52:49.589Z</time>
      </trkpt>
      <trkpt lat="45.58568" lon="5.49638">
        <ele>419</ele>
        <time>2021-04-03T12:52:50.589Z</time>
      </trkpt>
      <trkpt lat="45.58567" lon="5.49644">
        <ele>419</ele>
        <time>2021-04-03T12:52:51.588Z</time>
      </trkpt>
      <trkpt lat="45.58565" lon="5.49651">
        <ele>419</ele>
        <time>2021-04-03T12:52:52.589Z</time>
      </trkpt>
      <trkpt lat="45.58564" lon="5.49659">
        <ele>419</ele>
        <time>2021-04-03T12:52:53.589Z</time>
      </trkpt>
      <trkpt lat="45.58563" lon="5.49664">
        <ele>419</ele>
        <time>2021-04-03T12:52:54.589Z</time>
      </trkpt>
      <trkpt lat="45.58562" lon="5.49672">
        <ele>419</ele>
        <time>2021-04-03T12:52:55.589Z</time>
      </trkpt>
      <trkpt lat="45.58561" lon="5.49678">
        <ele>419</ele>
        <time>2021-04-03T12:52:56.589Z</time>
      </trkpt>
      <trkpt lat="45.58559" lon="5.49685">
        <ele>419</ele>
        <time>2021-04-03T12:52:57.588Z</time>
      </trkpt>
      <trkpt lat="45.58558" lon="5.49693">
        <ele>419</ele>
        <time>2021-04-03T12:52:58.589Z</time>
      </trkpt>
      <trkpt lat="45.58556" lon="5.497">
        <ele>419</ele>
        <time>2021-04-03T12:52:59.589Z</time>
      </trkpt>
      <trkpt lat="45.58555" lon="5.49705">
        <ele>419</ele>
        <time>2021-04-03T12:53:00.589Z</time>
      </trkpt>
      <trkpt lat="45.58554" lon="5.49712">
        <ele>419</ele>
        <time>2021-04-03T12:53:01.589Z</time>
      </trkpt>
      <trkpt lat="45.58553" lon="5.49719">
        <ele>419</ele>
        <time>2021-04-03T12:53:02.589Z</time>
      </trkpt>
      <trkpt lat="45.58551" lon="5.49726">
        <ele>419</ele>
        <time>2021-04-03T12:53:03.589Z</time>
      </trkpt>
      <trkpt lat="45.5855" lon="5.49734">
        <ele>418</ele>
        <time>2021-04-03T12:53:04.589Z</time>
      </trkpt>
      <trkpt lat="45.58549" lon="5.49739">
        <ele>419</ele>
        <time>2021-04-03T12:53:05.589Z</time>
      </trkpt>
      <trkpt lat="45.58547" lon="5.49746">
        <ele>419</ele>
        <time>2021-04-03T12:53:06.589Z</time>
      </trkpt>
      <trkpt lat="45.58546" lon="5.49753">
        <ele>419</ele>
        <time>2021-04-03T12:53:07.589Z</time>
      </trkpt>
      <trkpt lat="45.58544" lon="5.49758">
        <ele>419</ele>
        <time>2021-04-03T12:53:08.588Z</time>
      </trkpt>
      <trkpt lat="45.58543" lon="5.49765">
        <ele>419</ele>
        <time>2021-04-03T12:53:09.588Z</time>
      </trkpt>
      <trkpt lat="45.58541" lon="5.49772">
        <ele>419</ele>
        <time>2021-04-03T12:53:10.589Z</time>
      </trkpt>
      <trkpt lat="45.5854" lon="5.49779">
        <ele>419</ele>
        <time>2021-04-03T12:53:11.589Z</time>
      </trkpt>
      <trkpt lat="45.58538" lon="5.49786">
        <ele>419</ele>
        <time>2021-04-03T12:53:12.589Z</time>
      </trkpt>
      <trkpt lat="45.58536" lon="5.49794">
        <ele>420</ele>
        <time>2021-04-03T12:53:13.589Z</time>
      </trkpt>
      <trkpt lat="45.58535" lon="5.498">
        <ele>420</ele>
        <time>2021-04-03T12:53:14.588Z</time>
      </trkpt>
      <trkpt lat="45.58533" lon="5.49807">
        <ele>421</ele>
        <time>2021-04-03T12:53:15.589Z</time>
      </trkpt>
      <trkpt lat="45.58531" lon="5.49814">
        <ele>421</ele>
        <time>2021-04-03T12:53:16.588Z</time>
      </trkpt>
      <trkpt lat="45.58529" lon="5.49822">
        <ele>421</ele>
        <time>2021-04-03T12:53:17.589Z</time>
      </trkpt>
      <trkpt lat="45.58527" lon="5.49829">
        <ele>421</ele>
        <time>2021-04-03T12:53:18.589Z</time>
      </trkpt>
      <trkpt lat="45.58525" lon="5.49836">
        <ele>421</ele>
        <time>2021-04-03T12:53:19.589Z</time>
      </trkpt>
      <trkpt lat="45.58523" lon="5.49843">
        <ele>421</ele>
        <time>2021-04-03T12:53:20.589Z</time>
      </trkpt>
      <trkpt lat="45.58521" lon="5.49851">
        <ele>421</ele>
        <time>2021-04-03T12:53:21.589Z</time>
      </trkpt>
      <trkpt lat="45.58518" lon="5.4986">
        <ele>421</ele>
        <time>2021-04-03T12:53:22.589Z</time>
      </trkpt>
      <trkpt lat="45.58516" lon="5.49866">
        <ele>421</ele>
        <time>2021-04-03T12:53:23.589Z</time>
      </trkpt>
      <trkpt lat="45.58514" lon="5.49873">
        <ele>421</ele>
        <time>2021-04-03T12:53:24.589Z</time>
      </trkpt>
      <trkpt lat="45.58512" lon="5.49881">
        <ele>421</ele>
        <time>2021-04-03T12:53:25.589Z</time>
      </trkpt>
      <trkpt lat="45.5851" lon="5.49888">
        <ele>421</ele>
        <time>2021-04-03T12:53:26.589Z</time>
      </trkpt>
      <trkpt lat="45.58508" lon="5.49896">
        <ele>421</ele>
        <time>2021-04-03T12:53:27.589Z</time>
      </trkpt>
      <trkpt lat="45.58506" lon="5.49903">
        <ele>422</ele>
        <time>2021-04-03T12:53:28.588Z</time>
      </trkpt>
      <trkpt lat="45.58504" lon="5.4991">
        <ele>422</ele>
        <time>2021-04-03T12:53:29.589Z</time>
      </trkpt>
      <trkpt lat="45.58502" lon="5.49917">
        <ele>422</ele>
        <time>2021-04-03T12:53:30.589Z</time>
      </trkpt>
      <trkpt lat="45.585" lon="5.49924">
        <ele>423</ele>
        <time>2021-04-03T12:53:31.589Z</time>
      </trkpt>
      <trkpt lat="45.58498" lon="5.49931">
        <ele>423</ele>
        <time>2021-04-03T12:53:32.589Z</time>
      </trkpt>
      <trkpt lat="45.58495" lon="5.49938">
        <ele>422</ele>
        <time>2021-04-03T12:53:33.588Z</time>
      </trkpt>
      <trkpt lat="45.58494" lon="5.49945">
        <ele>423</ele>
        <time>2021-04-03T12:53:34.589Z</time>
      </trkpt>
      <trkpt lat="45.58492" lon="5.49952">
        <ele>423</ele>
        <time>2021-04-03T12:53:35.589Z</time>
      </trkpt>
      <trkpt lat="45.58489" lon="5.4996">
        <ele>422</ele>
        <time>2021-04-03T12:53:36.589Z</time>
      </trkpt>
      <trkpt lat="45.58487" lon="5.49965">
        <ele>422</ele>
        <time>2021-04-03T12:53:37.588Z</time>
      </trkpt>
      <trkpt lat="45.58485" lon="5.49974">
        <ele>423</ele>
        <time>2021-04-03T12:53:38.588Z</time>
      </trkpt>
      <trkpt lat="45.58483" lon="5.49981">
        <ele>423</ele>
        <time>2021-04-03T12:53:39.588Z</time>
      </trkpt>
      <trkpt lat="45.58481" lon="5.49987">
        <ele>423</ele>
        <time>2021-04-03T12:53:40.589Z</time>
      </trkpt>
      <trkpt lat="45.58479" lon="5.49994">
        <ele>422</ele>
        <time>2021-04-03T12:53:41.589Z</time>
      </trkpt>
      <trkpt lat="45.58477" lon="5.50002">
        <ele>422</ele>
        <time>2021-04-03T12:53:42.589Z</time>
      </trkpt>
      <trkpt lat="45.58475" lon="5.50009">
        <ele>422</ele>
        <time>2021-04-03T12:53:43.589Z</time>
      </trkpt>
      <trkpt lat="45.58473" lon="5.50018">
        <ele>422</ele>
        <time>2021-04-03T12:53:44.589Z</time>
      </trkpt>
      <trkpt lat="45.58472" lon="5.50024">
        <ele>421</ele>
        <time>2021-04-03T12:53:45.589Z</time>
      </trkpt>
      <trkpt lat="45.5847" lon="5.50032">
        <ele>421</ele>
        <time>2021-04-03T12:53:46.589Z</time>
      </trkpt>
      <trkpt lat="45.58469" lon="5.50041">
        <ele>421</ele>
        <time>2021-04-03T12:53:47.589Z</time>
      </trkpt>
      <trkpt lat="45.58468" lon="5.50049">
        <ele>422</ele>
        <time>2021-04-03T12:53:48.589Z</time>
      </trkpt>
      <trkpt lat="45.58467" lon="5.50057">
        <ele>422</ele>
        <time>2021-04-03T12:53:49.589Z</time>
      </trkpt>
      <trkpt lat="45.58466" lon="5.50065">
        <ele>422</ele>
        <time>2021-04-03T12:53:50.589Z</time>
      </trkpt>
      <trkpt lat="45.58465" lon="5.50074">
        <ele>422</ele>
        <time>2021-04-03T12:53:51.588Z</time>
      </trkpt>
      <trkpt lat="45.58464" lon="5.50081">
        <ele>422</ele>
        <time>2021-04-03T12:53:52.589Z</time>
      </trkpt>
      <trkpt lat="45.58463" lon="5.50089">
        <ele>421</ele>
        <time>2021-04-03T12:53:53.588Z</time>
      </trkpt>
      <trkpt lat="45.58462" lon="5.50097">
        <ele>421</ele>
        <time>2021-04-03T12:53:54.589Z</time>
      </trkpt>
      <trkpt lat="45.58462" lon="5.50105">
        <ele>421</ele>
        <time>2021-04-03T12:53:55.589Z</time>
      </trkpt>
      <trkpt lat="45.58461" lon="5.50113">
        <ele>421</ele>
        <time>2021-04-03T12:53:56.588Z</time>
      </trkpt>
      <trkpt lat="45.5846" lon="5.50124">
        <ele>422</ele>
        <time>2021-04-03T12:53:57.589Z</time>
      </trkpt>
      <trkpt lat="45.58459" lon="5.50131">
        <ele>422</ele>
        <time>2021-04-03T12:53:58.589Z</time>
      </trkpt>
      <trkpt lat="45.58458" lon="5.5014">
        <ele>422</ele>
        <time>2021-04-03T12:53:59.588Z</time>
      </trkpt>
      <trkpt lat="45.58457" lon="5.50151">
        <ele>422</ele>
        <time>2021-04-03T12:54:00.588Z</time>
      </trkpt>
      <trkpt lat="45.58456" lon="5.50158">
        <ele>422</ele>
        <time>2021-04-03T12:54:01.589Z</time>
      </trkpt>
      <trkpt lat="45.58455" lon="5.50169">
        <ele>422</ele>
        <time>2021-04-03T12:54:02.588Z</time>
      </trkpt>
      <trkpt lat="45.58454" lon="5.50177">
        <ele>422</ele>
        <time>2021-04-03T12:54:03.588Z</time>
      </trkpt>
      <trkpt lat="45.58453" lon="5.50187">
        <ele>422</ele>
        <time>2021-04-03T12:54:04.588Z</time>
      </trkpt>
      <trkpt lat="45.58451" lon="5.50197">
        <ele>421</ele>
        <time>2021-04-03T12:54:05.588Z</time>
      </trkpt>
      <trkpt lat="45.5845" lon="5.50209">
        <ele>421</ele>
        <time>2021-04-03T12:54:06.588Z</time>
      </trkpt>
      <trkpt lat="45.58449" lon="5.50217">
        <ele>421</ele>
        <time>2021-04-03T12:54:07.588Z</time>
      </trkpt>
      <trkpt lat="45.58448" lon="5.50227">
        <ele>421</ele>
        <time>2021-04-03T12:54:08.589Z</time>
      </trkpt>
      <trkpt lat="45.58447" lon="5.5024">
        <ele>421</ele>
        <time>2021-04-03T12:54:09.589Z</time>
      </trkpt>
      <trkpt lat="45.58445" lon="5.50247">
        <ele>421</ele>
        <time>2021-04-03T12:54:10.589Z</time>
      </trkpt>
      <trkpt lat="45.58443" lon="5.50259">
        <ele>421</ele>
        <time>2021-04-03T12:54:11.588Z</time>
      </trkpt>
      <trkpt lat="45.58442" lon="5.50267">
        <ele>420</ele>
        <time>2021-04-03T12:54:12.588Z</time>
      </trkpt>
      <trkpt lat="45.5844" lon="5.50277">
        <ele>420</ele>
        <time>2021-04-03T12:54:13.589Z</time>
      </trkpt>
      <trkpt lat="45.58438" lon="5.50287">
        <ele>420</ele>
        <time>2021-04-03T12:54:14.589Z</time>
      </trkpt>
      <trkpt lat="45.58436" lon="5.50297">
        <ele>420</ele>
        <time>2021-04-03T12:54:15.589Z</time>
      </trkpt>
      <trkpt lat="45.58435" lon="5.50306">
        <ele>420</ele>
        <time>2021-04-03T12:54:16.588Z</time>
      </trkpt>
      <trkpt lat="45.58433" lon="5.50316">
        <ele>419</ele>
        <time>2021-04-03T12:54:17.588Z</time>
      </trkpt>
      <trkpt lat="45.58431" lon="5.50325">
        <ele>419</ele>
        <time>2021-04-03T12:54:18.588Z</time>
      </trkpt>
      <trkpt lat="45.58429" lon="5.50334">
        <ele>418</ele>
        <time>2021-04-03T12:54:19.589Z</time>
      </trkpt>
      <trkpt lat="45.58427" lon="5.50345">
        <ele>418</ele>
        <time>2021-04-03T12:54:20.589Z</time>
      </trkpt>
      <trkpt lat="45.58425" lon="5.50353">
        <ele>418</ele>
        <time>2021-04-03T12:54:21.589Z</time>
      </trkpt>
      <trkpt lat="45.58424" lon="5.50362">
        <ele>417</ele>
        <time>2021-04-03T12:54:22.589Z</time>
      </trkpt>
      <trkpt lat="45.58422" lon="5.50371">
        <ele>417</ele>
        <time>2021-04-03T12:54:23.589Z</time>
      </trkpt>
      <trkpt lat="45.5842" lon="5.50379">
        <ele>417</ele>
        <time>2021-04-03T12:54:24.588Z</time>
      </trkpt>
      <trkpt lat="45.58419" lon="5.50388">
        <ele>417</ele>
        <time>2021-04-03T12:54:25.589Z</time>
      </trkpt>
      <trkpt lat="45.58418" lon="5.50396">
        <ele>417</ele>
        <time>2021-04-03T12:54:26.589Z</time>
      </trkpt>
      <trkpt lat="45.58416" lon="5.50405">
        <ele>417</ele>
        <time>2021-04-03T12:54:27.589Z</time>
      </trkpt>
      <trkpt lat="45.58415" lon="5.50414">
        <ele>418</ele>
        <time>2021-04-03T12:54:28.588Z</time>
      </trkpt>
      <trkpt lat="45.58413" lon="5.50423">
        <ele>418</ele>
        <time>2021-04-03T12:54:29.589Z</time>
      </trkpt>
      <trkpt lat="45.58412" lon="5.50432">
        <ele>418</ele>
        <time>2021-04-03T12:54:30.589Z</time>
      </trkpt>
      <trkpt lat="45.5841" lon="5.50441">
        <ele>418</ele>
        <time>2021-04-03T12:54:31.589Z</time>
      </trkpt>
      <trkpt lat="45.58408" lon="5.50451">
        <ele>418</ele>
        <time>2021-04-03T12:54:32.588Z</time>
      </trkpt>
      <trkpt lat="45.58407" lon="5.50459">
        <ele>418</ele>
        <time>2021-04-03T12:54:33.588Z</time>
      </trkpt>
      <trkpt lat="45.58405" lon="5.50467">
        <ele>418</ele>
        <time>2021-04-03T12:54:34.589Z</time>
      </trkpt>
      <trkpt lat="45.58404" lon="5.50476">
        <ele>418</ele>
        <time>2021-04-03T12:54:35.588Z</time>
      </trkpt>
      <trkpt lat="45.58402" lon="5.50485">
        <ele>418</ele>
        <time>2021-04-03T12:54:36.589Z</time>
      </trkpt>
      <trkpt lat="45.58401" lon="5.50493">
        <ele>418</ele>
        <time>2021-04-03T12:54:37.588Z</time>
      </trkpt>
      <trkpt lat="45.58399" lon="5.50501">
        <ele>418</ele>
        <time>2021-04-03T12:54:38.589Z</time>
      </trkpt>
      <trkpt lat="45.58398" lon="5.50509">
        <ele>418</ele>
        <time>2021-04-03T12:54:39.589Z</time>
      </trkpt>
      <trkpt lat="45.58396" lon="5.50517">
        <ele>418</ele>
        <time>2021-04-03T12:54:40.589Z</time>
      </trkpt>
      <trkpt lat="45.58394" lon="5.50526">
        <ele>418</ele>
        <time>2021-04-03T12:54:41.589Z</time>
      </trkpt>
      <trkpt lat="45.58393" lon="5.50534">
        <ele>418</ele>
        <time>2021-04-03T12:54:42.588Z</time>
      </trkpt>
      <trkpt lat="45.58391" lon="5.50542">
        <ele>417</ele>
        <time>2021-04-03T12:54:43.589Z</time>
      </trkpt>
      <trkpt lat="45.5839" lon="5.5055">
        <ele>417</ele>
        <time>2021-04-03T12:54:44.589Z</time>
      </trkpt>
      <trkpt lat="45.58389" lon="5.50558">
        <ele>417</ele>
        <time>2021-04-03T12:54:45.588Z</time>
      </trkpt>
      <trkpt lat="45.58388" lon="5.50563">
        <ele>417</ele>
        <time>2021-04-03T12:54:46.589Z</time>
      </trkpt>
      <trkpt lat="45.58386" lon="5.50571">
        <ele>416</ele>
        <time>2021-04-03T12:54:47.589Z</time>
      </trkpt>
      <trkpt lat="45.58386" lon="5.50575">
        <ele>416</ele>
        <time>2021-04-03T12:54:48.589Z</time>
      </trkpt>
      <trkpt lat="45.58384" lon="5.50579">
        <ele>416</ele>
        <time>2021-04-03T12:54:49.589Z</time>
      </trkpt>
      <trkpt lat="45.58383" lon="5.50583">
        <ele>416</ele>
        <time>2021-04-03T12:54:50.589Z</time>
      </trkpt>
      <trkpt lat="45.58381" lon="5.50585">
        <ele>416</ele>
        <time>2021-04-03T12:54:51.589Z</time>
      </trkpt>
      <trkpt lat="45.5838" lon="5.50588">
        <ele>416</ele>
        <time>2021-04-03T12:54:52.589Z</time>
      </trkpt>
      <trkpt lat="45.58378" lon="5.5059">
        <ele>416</ele>
        <time>2021-04-03T12:54:53.589Z</time>
      </trkpt>
      <trkpt lat="45.58377" lon="5.50592">
        <ele>417</ele>
        <time>2021-04-03T12:54:54.589Z</time>
      </trkpt>
      <trkpt lat="45.58376" lon="5.50594">
        <ele>417</ele>
        <time>2021-04-03T12:54:55.588Z</time>
      </trkpt>
      <trkpt lat="45.58375" lon="5.50595">
        <ele>417</ele>
        <time>2021-04-03T12:54:56.588Z</time>
      </trkpt>
      <trkpt lat="45.58375" lon="5.50597">
        <ele>417</ele>
        <time>2021-04-03T12:54:57.589Z</time>
      </trkpt>
      <trkpt lat="45.58374" lon="5.50598">
        <ele>418</ele>
        <time>2021-04-03T12:54:58.588Z</time>
      </trkpt>
      <trkpt lat="45.58373" lon="5.50599">
        <ele>418</ele>
        <time>2021-04-03T12:54:59.589Z</time>
      </trkpt>
      <trkpt lat="45.58372" lon="5.506">
        <ele>418</ele>
        <time>2021-04-03T12:55:00.589Z</time>
      </trkpt>
      <trkpt lat="45.58371" lon="5.50601">
        <ele>418</ele>
        <time>2021-04-03T12:55:01.589Z</time>
      </trkpt>
      <trkpt lat="45.5837" lon="5.50604">
        <ele>418</ele>
        <time>2021-04-03T12:55:02.589Z</time>
      </trkpt>
      <trkpt lat="45.58369" lon="5.50607">
        <ele>418</ele>
        <time>2021-04-03T12:55:03.588Z</time>
      </trkpt>
      <trkpt lat="45.58368" lon="5.50611">
        <ele>419</ele>
        <time>2021-04-03T12:55:04.588Z</time>
      </trkpt>
      <trkpt lat="45.58367" lon="5.50616">
        <ele>419</ele>
        <time>2021-04-03T12:55:05.589Z</time>
      </trkpt>
      <trkpt lat="45.58367" lon="5.50623">
        <ele>419</ele>
        <time>2021-04-03T12:55:06.589Z</time>
      </trkpt>
      <trkpt lat="45.58367" lon="5.50631">
        <ele>419</ele>
        <time>2021-04-03T12:55:07.589Z</time>
      </trkpt>
      <trkpt lat="45.58368" lon="5.5064">
        <ele>420</ele>
        <time>2021-04-03T12:55:08.588Z</time>
      </trkpt>
      <trkpt lat="45.58369" lon="5.50649">
        <ele>420</ele>
        <time>2021-04-03T12:55:09.589Z</time>
      </trkpt>
      <trkpt lat="45.5837" lon="5.50658">
        <ele>420</ele>
        <time>2021-04-03T12:55:10.589Z</time>
      </trkpt>
      <trkpt lat="45.58371" lon="5.50668">
        <ele>420</ele>
        <time>2021-04-03T12:55:11.589Z</time>
      </trkpt>
      <trkpt lat="45.58372" lon="5.50677">
        <ele>420</ele>
        <time>2021-04-03T12:55:12.588Z</time>
      </trkpt>
      <trkpt lat="45.58373" lon="5.50686">
        <ele>420</ele>
        <time>2021-04-03T12:55:13.588Z</time>
      </trkpt>
      <trkpt lat="45.58374" lon="5.50695">
        <ele>419</ele>
        <time>2021-04-03T12:55:14.589Z</time>
      </trkpt>
      <trkpt lat="45.58375" lon="5.50705">
        <ele>419</ele>
        <time>2021-04-03T12:55:15.589Z</time>
      </trkpt>
      <trkpt lat="45.58376" lon="5.50714">
        <ele>419</ele>
        <time>2021-04-03T12:55:16.589Z</time>
      </trkpt>
      <trkpt lat="45.58377" lon="5.50723">
        <ele>419</ele>
        <time>2021-04-03T12:55:17.589Z</time>
      </trkpt>
      <trkpt lat="45.58377" lon="5.50733">
        <ele>419</ele>
        <time>2021-04-03T12:55:18.589Z</time>
      </trkpt>
      <trkpt lat="45.58376" lon="5.50741">
        <ele>419</ele>
        <time>2021-04-03T12:55:19.588Z</time>
      </trkpt>
      <trkpt lat="45.58374" lon="5.5075">
        <ele>419</ele>
        <time>2021-04-03T12:55:20.588Z</time>
      </trkpt>
      <trkpt lat="45.58372" lon="5.50759">
        <ele>419</ele>
        <time>2021-04-03T12:55:21.589Z</time>
      </trkpt>
      <trkpt lat="45.5837" lon="5.50769">
        <ele>419</ele>
        <time>2021-04-03T12:55:22.589Z</time>
      </trkpt>
      <trkpt lat="45.58368" lon="5.50776">
        <ele>419</ele>
        <time>2021-04-03T12:55:23.589Z</time>
      </trkpt>
      <trkpt lat="45.58366" lon="5.50785">
        <ele>419</ele>
        <time>2021-04-03T12:55:24.588Z</time>
      </trkpt>
      <trkpt lat="45.58364" lon="5.50794">
        <ele>419</ele>
        <time>2021-04-03T12:55:25.589Z</time>
      </trkpt>
      <trkpt lat="45.58362" lon="5.50803">
        <ele>419</ele>
        <time>2021-04-03T12:55:26.589Z</time>
      </trkpt>
      <trkpt lat="45.5836" lon="5.50812">
        <ele>419</ele>
        <time>2021-04-03T12:55:27.589Z</time>
      </trkpt>
      <trkpt lat="45.58358" lon="5.50821">
        <ele>418</ele>
        <time>2021-04-03T12:55:28.588Z</time>
      </trkpt>
      <trkpt lat="45.58356" lon="5.50829">
        <ele>418</ele>
        <time>2021-04-03T12:55:29.588Z</time>
      </trkpt>
      <trkpt lat="45.58354" lon="5.50838">
        <ele>418</ele>
        <time>2021-04-03T12:55:30.588Z</time>
      </trkpt>
      <trkpt lat="45.58352" lon="5.50846">
        <ele>418</ele>
        <time>2021-04-03T12:55:31.589Z</time>
      </trkpt>
      <trkpt lat="45.5835" lon="5.50855">
        <ele>418</ele>
        <time>2021-04-03T12:55:32.589Z</time>
      </trkpt>
      <trkpt lat="45.58349" lon="5.50863">
        <ele>417</ele>
        <time>2021-04-03T12:55:33.589Z</time>
      </trkpt>
      <trkpt lat="45.58347" lon="5.50871">
        <ele>417</ele>
        <time>2021-04-03T12:55:34.589Z</time>
      </trkpt>
      <trkpt lat="45.58345" lon="5.5088">
        <ele>417</ele>
        <time>2021-04-03T12:55:35.589Z</time>
      </trkpt>
      <trkpt lat="45.58343" lon="5.50888">
        <ele>418</ele>
        <time>2021-04-03T12:55:36.589Z</time>
      </trkpt>
      <trkpt lat="45.58342" lon="5.50897">
        <ele>418</ele>
        <time>2021-04-03T12:55:37.588Z</time>
      </trkpt>
      <trkpt lat="45.5834" lon="5.50906">
        <ele>418</ele>
        <time>2021-04-03T12:55:38.589Z</time>
      </trkpt>
      <trkpt lat="45.58339" lon="5.50917">
        <ele>418</ele>
        <time>2021-04-03T12:55:39.589Z</time>
      </trkpt>
      <trkpt lat="45.58338" lon="5.50924">
        <ele>418</ele>
        <time>2021-04-03T12:55:40.589Z</time>
      </trkpt>
      <trkpt lat="45.58336" lon="5.50934">
        <ele>417</ele>
        <time>2021-04-03T12:55:41.588Z</time>
      </trkpt>
      <trkpt lat="45.58335" lon="5.50943">
        <ele>417</ele>
        <time>2021-04-03T12:55:42.588Z</time>
      </trkpt>
      <trkpt lat="45.58333" lon="5.50955">
        <ele>418</ele>
        <time>2021-04-03T12:55:43.589Z</time>
      </trkpt>
      <trkpt lat="45.58332" lon="5.50963">
        <ele>418</ele>
        <time>2021-04-03T12:55:44.589Z</time>
      </trkpt>
      <trkpt lat="45.5833" lon="5.50975">
        <ele>417</ele>
        <time>2021-04-03T12:55:45.588Z</time>
      </trkpt>
      <trkpt lat="45.58329" lon="5.50983">
        <ele>417</ele>
        <time>2021-04-03T12:55:46.589Z</time>
      </trkpt>
      <trkpt lat="45.58328" lon="5.50993">
        <ele>417</ele>
        <time>2021-04-03T12:55:47.589Z</time>
      </trkpt>
      <trkpt lat="45.58327" lon="5.51004">
        <ele>416</ele>
        <time>2021-04-03T12:55:48.589Z</time>
      </trkpt>
      <trkpt lat="45.58326" lon="5.51014">
        <ele>416</ele>
        <time>2021-04-03T12:55:49.588Z</time>
      </trkpt>
      <trkpt lat="45.58325" lon="5.51024">
        <ele>416</ele>
        <time>2021-04-03T12:55:50.588Z</time>
      </trkpt>
      <trkpt lat="45.58325" lon="5.51034">
        <ele>416</ele>
        <time>2021-04-03T12:55:51.589Z</time>
      </trkpt>
      <trkpt lat="45.58324" lon="5.51045">
        <ele>416</ele>
        <time>2021-04-03T12:55:52.588Z</time>
      </trkpt>
      <trkpt lat="45.58324" lon="5.51056">
        <ele>416</ele>
        <time>2021-04-03T12:55:53.588Z</time>
      </trkpt>
      <trkpt lat="45.58324" lon="5.51064">
        <ele>415</ele>
        <time>2021-04-03T12:55:54.589Z</time>
      </trkpt>
      <trkpt lat="45.58324" lon="5.51074">
        <ele>415</ele>
        <time>2021-04-03T12:55:55.589Z</time>
      </trkpt>
      <trkpt lat="45.58323" lon="5.51083">
        <ele>415</ele>
        <time>2021-04-03T12:55:56.589Z</time>
      </trkpt>
      <trkpt lat="45.58323" lon="5.51092">
        <ele>415</ele>
        <time>2021-04-03T12:55:57.588Z</time>
      </trkpt>
      <trkpt lat="45.58323" lon="5.51102">
        <ele>414</ele>
        <time>2021-04-03T12:55:58.589Z</time>
      </trkpt>
      <trkpt lat="45.58322" lon="5.51111">
        <ele>414</ele>
        <time>2021-04-03T12:55:59.588Z</time>
      </trkpt>
      <trkpt lat="45.58322" lon="5.5112">
        <ele>414</ele>
        <time>2021-04-03T12:56:00.588Z</time>
      </trkpt>
      <trkpt lat="45.58321" lon="5.5113">
        <ele>413</ele>
        <time>2021-04-03T12:56:01.588Z</time>
      </trkpt>
      <trkpt lat="45.5832" lon="5.51139">
        <ele>413</ele>
        <time>2021-04-03T12:56:02.589Z</time>
      </trkpt>
      <trkpt lat="45.5832" lon="5.51149">
        <ele>412</ele>
        <time>2021-04-03T12:56:03.589Z</time>
      </trkpt>
      <trkpt lat="45.58319" lon="5.51159">
        <ele>412</ele>
        <time>2021-04-03T12:56:04.588Z</time>
      </trkpt>
      <trkpt lat="45.58318" lon="5.51169">
        <ele>412</ele>
        <time>2021-04-03T12:56:05.589Z</time>
      </trkpt>
      <trkpt lat="45.58318" lon="5.51179">
        <ele>412</ele>
        <time>2021-04-03T12:56:06.589Z</time>
      </trkpt>
      <trkpt lat="45.58317" lon="5.5119">
        <ele>412</ele>
        <time>2021-04-03T12:56:07.589Z</time>
      </trkpt>
      <trkpt lat="45.58317" lon="5.512">
        <ele>412</ele>
        <time>2021-04-03T12:56:08.589Z</time>
      </trkpt>
      <trkpt lat="45.58316" lon="5.5121">
        <ele>412</ele>
        <time>2021-04-03T12:56:09.589Z</time>
      </trkpt>
      <trkpt lat="45.58315" lon="5.51221">
        <ele>413</ele>
        <time>2021-04-03T12:56:10.588Z</time>
      </trkpt>
      <trkpt lat="45.58315" lon="5.51232">
        <ele>413</ele>
        <time>2021-04-03T12:56:11.589Z</time>
      </trkpt>
      <trkpt lat="45.58314" lon="5.51242">
        <ele>413</ele>
        <time>2021-04-03T12:56:12.589Z</time>
      </trkpt>
      <trkpt lat="45.58314" lon="5.51253">
        <ele>414</ele>
        <time>2021-04-03T12:56:13.589Z</time>
      </trkpt>
      <trkpt lat="45.58313" lon="5.51263">
        <ele>414</ele>
        <time>2021-04-03T12:56:14.588Z</time>
      </trkpt>
      <trkpt lat="45.58312" lon="5.51273">
        <ele>413</ele>
        <time>2021-04-03T12:56:15.588Z</time>
      </trkpt>
      <trkpt lat="45.58311" lon="5.51284">
        <ele>413</ele>
        <time>2021-04-03T12:56:16.589Z</time>
      </trkpt>
      <trkpt lat="45.58311" lon="5.51294">
        <ele>412</ele>
        <time>2021-04-03T12:56:17.588Z</time>
      </trkpt>
      <trkpt lat="45.5831" lon="5.51304">
        <ele>412</ele>
        <time>2021-04-03T12:56:18.589Z</time>
      </trkpt>
      <trkpt lat="45.58309" lon="5.51315">
        <ele>412</ele>
        <time>2021-04-03T12:56:19.589Z</time>
      </trkpt>
      <trkpt lat="45.58309" lon="5.51325">
        <ele>412</ele>
        <time>2021-04-03T12:56:20.589Z</time>
      </trkpt>
      <trkpt lat="45.58308" lon="5.51335">
        <ele>411</ele>
        <time>2021-04-03T12:56:21.588Z</time>
      </trkpt>
      <trkpt lat="45.58307" lon="5.51346">
        <ele>411</ele>
        <time>2021-04-03T12:56:22.589Z</time>
      </trkpt>
      <trkpt lat="45.58306" lon="5.51356">
        <ele>411</ele>
        <time>2021-04-03T12:56:23.589Z</time>
      </trkpt>
      <trkpt lat="45.58305" lon="5.51367">
        <ele>411</ele>
        <time>2021-04-03T12:56:24.589Z</time>
      </trkpt>
      <trkpt lat="45.58304" lon="5.51377">
        <ele>411</ele>
        <time>2021-04-03T12:56:25.589Z</time>
      </trkpt>
      <trkpt lat="45.58303" lon="5.51388">
        <ele>411</ele>
        <time>2021-04-03T12:56:26.588Z</time>
      </trkpt>
      <trkpt lat="45.58301" lon="5.51399">
        <ele>411</ele>
        <time>2021-04-03T12:56:27.589Z</time>
      </trkpt>
      <trkpt lat="45.58299" lon="5.51409">
        <ele>411</ele>
        <time>2021-04-03T12:56:28.589Z</time>
      </trkpt>
      <trkpt lat="45.58296" lon="5.51418">
        <ele>411</ele>
        <time>2021-04-03T12:56:29.588Z</time>
      </trkpt>
      <trkpt lat="45.58292" lon="5.51428">
        <ele>411</ele>
        <time>2021-04-03T12:56:30.589Z</time>
      </trkpt>
      <trkpt lat="45.58289" lon="5.51437">
        <ele>411</ele>
        <time>2021-04-03T12:56:31.589Z</time>
      </trkpt>
      <trkpt lat="45.58285" lon="5.51446">
        <ele>411</ele>
        <time>2021-04-03T12:56:32.588Z</time>
      </trkpt>
      <trkpt lat="45.58281" lon="5.51455">
        <ele>411</ele>
        <time>2021-04-03T12:56:33.589Z</time>
      </trkpt>
      <trkpt lat="45.58276" lon="5.51463">
        <ele>411</ele>
        <time>2021-04-03T12:56:34.589Z</time>
      </trkpt>
      <trkpt lat="45.58272" lon="5.51472">
        <ele>410</ele>
        <time>2021-04-03T12:56:35.588Z</time>
      </trkpt>
      <trkpt lat="45.58267" lon="5.5148">
        <ele>410</ele>
        <time>2021-04-03T12:56:36.589Z</time>
      </trkpt>
      <trkpt lat="45.58262" lon="5.51489">
        <ele>410</ele>
        <time>2021-04-03T12:56:37.589Z</time>
      </trkpt>
      <trkpt lat="45.58257" lon="5.51497">
        <ele>410</ele>
        <time>2021-04-03T12:56:38.589Z</time>
      </trkpt>
      <trkpt lat="45.58253" lon="5.51506">
        <ele>410</ele>
        <time>2021-04-03T12:56:39.588Z</time>
      </trkpt>
      <trkpt lat="45.58248" lon="5.51514">
        <ele>410</ele>
        <time>2021-04-03T12:56:40.588Z</time>
      </trkpt>
      <trkpt lat="45.58244" lon="5.51523">
        <ele>410</ele>
        <time>2021-04-03T12:56:41.589Z</time>
      </trkpt>
      <trkpt lat="45.58239" lon="5.51532">
        <ele>410</ele>
        <time>2021-04-03T12:56:42.588Z</time>
      </trkpt>
      <trkpt lat="45.58235" lon="5.51541">
        <ele>410</ele>
        <time>2021-04-03T12:56:43.588Z</time>
      </trkpt>
      <trkpt lat="45.5823" lon="5.5155">
        <ele>410</ele>
        <time>2021-04-03T12:56:44.589Z</time>
      </trkpt>
      <trkpt lat="45.58226" lon="5.5156">
        <ele>410</ele>
        <time>2021-04-03T12:56:45.588Z</time>
      </trkpt>
      <trkpt lat="45.58221" lon="5.51571">
        <ele>410</ele>
        <time>2021-04-03T12:56:46.589Z</time>
      </trkpt>
      <trkpt lat="45.58216" lon="5.51582">
        <ele>409</ele>
        <time>2021-04-03T12:56:47.588Z</time>
      </trkpt>
      <trkpt lat="45.58212" lon="5.51593">
        <ele>409</ele>
        <time>2021-04-03T12:56:48.589Z</time>
      </trkpt>
      <trkpt lat="45.58207" lon="5.51605">
        <ele>409</ele>
        <time>2021-04-03T12:56:49.588Z</time>
      </trkpt>
      <trkpt lat="45.58203" lon="5.51618">
        <ele>409</ele>
        <time>2021-04-03T12:56:50.589Z</time>
      </trkpt>
      <trkpt lat="45.58199" lon="5.51631">
        <ele>408</ele>
        <time>2021-04-03T12:56:51.589Z</time>
      </trkpt>
      <trkpt lat="45.58195" lon="5.51645">
        <ele>408</ele>
        <time>2021-04-03T12:56:52.589Z</time>
      </trkpt>
      <trkpt lat="45.58192" lon="5.51659">
        <ele>408</ele>
        <time>2021-04-03T12:56:53.589Z</time>
      </trkpt>
      <trkpt lat="45.58188" lon="5.51674">
        <ele>407</ele>
        <time>2021-04-03T12:56:54.588Z</time>
      </trkpt>
      <trkpt lat="45.58185" lon="5.51688">
        <ele>407</ele>
        <time>2021-04-03T12:56:55.589Z</time>
      </trkpt>
      <trkpt lat="45.58182" lon="5.51703">
        <ele>406</ele>
        <time>2021-04-03T12:56:56.589Z</time>
      </trkpt>
      <trkpt lat="45.58179" lon="5.51718">
        <ele>406</ele>
        <time>2021-04-03T12:56:57.589Z</time>
      </trkpt>
      <trkpt lat="45.58176" lon="5.51733">
        <ele>405</ele>
        <time>2021-04-03T12:56:58.589Z</time>
      </trkpt>
      <trkpt lat="45.58172" lon="5.51748">
        <ele>405</ele>
        <time>2021-04-03T12:56:59.589Z</time>
      </trkpt>
      <trkpt lat="45.58169" lon="5.51763">
        <ele>404</ele>
        <time>2021-04-03T12:57:00.589Z</time>
      </trkpt>
      <trkpt lat="45.58166" lon="5.51778">
        <ele>404</ele>
        <time>2021-04-03T12:57:01.589Z</time>
      </trkpt>
      <trkpt lat="45.58162" lon="5.51793">
        <ele>403</ele>
        <time>2021-04-03T12:57:02.589Z</time>
      </trkpt>
      <trkpt lat="45.58159" lon="5.51807">
        <ele>403</ele>
        <time>2021-04-03T12:57:03.588Z</time>
      </trkpt>
      <trkpt lat="45.58156" lon="5.51821">
        <ele>402</ele>
        <time>2021-04-03T12:57:04.589Z</time>
      </trkpt>
      <trkpt lat="45.58152" lon="5.51835">
        <ele>402</ele>
        <time>2021-04-03T12:57:05.589Z</time>
      </trkpt>
      <trkpt lat="45.58149" lon="5.51849">
        <ele>401</ele>
        <time>2021-04-03T12:57:06.589Z</time>
      </trkpt>
      <trkpt lat="45.58146" lon="5.51863">
        <ele>401</ele>
        <time>2021-04-03T12:57:07.589Z</time>
      </trkpt>
      <trkpt lat="45.58143" lon="5.51876">
        <ele>401</ele>
        <time>2021-04-03T12:57:08.588Z</time>
      </trkpt>
      <trkpt lat="45.58139" lon="5.5189">
        <ele>400</ele>
        <time>2021-04-03T12:57:09.589Z</time>
      </trkpt>
      <trkpt lat="45.58136" lon="5.51903">
        <ele>400</ele>
        <time>2021-04-03T12:57:10.589Z</time>
      </trkpt>
      <trkpt lat="45.58132" lon="5.51915">
        <ele>399</ele>
        <time>2021-04-03T12:57:11.589Z</time>
      </trkpt>
      <trkpt lat="45.58128" lon="5.51928">
        <ele>399</ele>
        <time>2021-04-03T12:57:12.588Z</time>
      </trkpt>
      <trkpt lat="45.58125" lon="5.5194">
        <ele>399</ele>
        <time>2021-04-03T12:57:13.589Z</time>
      </trkpt>
      <trkpt lat="45.58122" lon="5.51952">
        <ele>398</ele>
        <time>2021-04-03T12:57:14.589Z</time>
      </trkpt>
      <trkpt lat="45.58118" lon="5.51964">
        <ele>398</ele>
        <time>2021-04-03T12:57:15.589Z</time>
      </trkpt>
      <trkpt lat="45.58115" lon="5.51976">
        <ele>397</ele>
        <time>2021-04-03T12:57:16.589Z</time>
      </trkpt>
      <trkpt lat="45.58112" lon="5.51988">
        <ele>397</ele>
        <time>2021-04-03T12:57:17.589Z</time>
      </trkpt>
      <trkpt lat="45.5811" lon="5.52">
        <ele>397</ele>
        <time>2021-04-03T12:57:18.589Z</time>
      </trkpt>
      <trkpt lat="45.58107" lon="5.52011">
        <ele>396</ele>
        <time>2021-04-03T12:57:19.589Z</time>
      </trkpt>
      <trkpt lat="45.58105" lon="5.52023">
        <ele>396</ele>
        <time>2021-04-03T12:57:20.589Z</time>
      </trkpt>
      <trkpt lat="45.58102" lon="5.52034">
        <ele>396</ele>
        <time>2021-04-03T12:57:21.589Z</time>
      </trkpt>
      <trkpt lat="45.581" lon="5.52046">
        <ele>396</ele>
        <time>2021-04-03T12:57:22.589Z</time>
      </trkpt>
      <trkpt lat="45.58097" lon="5.52057">
        <ele>396</ele>
        <time>2021-04-03T12:57:23.588Z</time>
      </trkpt>
      <trkpt lat="45.58094" lon="5.52069">
        <ele>395</ele>
        <time>2021-04-03T12:57:24.588Z</time>
      </trkpt>
      <trkpt lat="45.58092" lon="5.5208">
        <ele>395</ele>
        <time>2021-04-03T12:57:25.589Z</time>
      </trkpt>
      <trkpt lat="45.58089" lon="5.52092">
        <ele>395</ele>
        <time>2021-04-03T12:57:26.589Z</time>
      </trkpt>
      <trkpt lat="45.58086" lon="5.52103">
        <ele>395</ele>
        <time>2021-04-03T12:57:27.589Z</time>
      </trkpt>
      <trkpt lat="45.58083" lon="5.52115">
        <ele>395</ele>
        <time>2021-04-03T12:57:28.588Z</time>
      </trkpt>
      <trkpt lat="45.58079" lon="5.52126">
        <ele>394</ele>
        <time>2021-04-03T12:57:29.589Z</time>
      </trkpt>
      <trkpt lat="45.58076" lon="5.52138">
        <ele>394</ele>
        <time>2021-04-03T12:57:30.589Z</time>
      </trkpt>
      <trkpt lat="45.58073" lon="5.5215">
        <ele>394</ele>
        <time>2021-04-03T12:57:31.589Z</time>
      </trkpt>
      <trkpt lat="45.58069" lon="5.52162">
        <ele>393</ele>
        <time>2021-04-03T12:57:32.588Z</time>
      </trkpt>
      <trkpt lat="45.58066" lon="5.52174">
        <ele>393</ele>
        <time>2021-04-03T12:57:33.589Z</time>
      </trkpt>
      <trkpt lat="45.58062" lon="5.52187">
        <ele>393</ele>
        <time>2021-04-03T12:57:34.589Z</time>
      </trkpt>
      <trkpt lat="45.58059" lon="5.52199">
        <ele>393</ele>
        <time>2021-04-03T12:57:35.589Z</time>
      </trkpt>
      <trkpt lat="45.58056" lon="5.52212">
        <ele>394</ele>
        <time>2021-04-03T12:57:36.589Z</time>
      </trkpt>
      <trkpt lat="45.58052" lon="5.52224">
        <ele>394</ele>
        <time>2021-04-03T12:57:37.588Z</time>
      </trkpt>
      <trkpt lat="45.58049" lon="5.52235">
        <ele>394</ele>
        <time>2021-04-03T12:57:38.589Z</time>
      </trkpt>
      <trkpt lat="45.58046" lon="5.52245">
        <ele>393</ele>
        <time>2021-04-03T12:57:39.589Z</time>
      </trkpt>
      <trkpt lat="45.58044" lon="5.52255">
        <ele>393</ele>
        <time>2021-04-03T12:57:40.589Z</time>
      </trkpt>
      <trkpt lat="45.58041" lon="5.52264">
        <ele>393</ele>
        <time>2021-04-03T12:57:41.588Z</time>
      </trkpt>
      <trkpt lat="45.58038" lon="5.52274">
        <ele>392</ele>
        <time>2021-04-03T12:57:42.589Z</time>
      </trkpt>
      <trkpt lat="45.58035" lon="5.52283">
        <ele>392</ele>
        <time>2021-04-03T12:57:43.589Z</time>
      </trkpt>
      <trkpt lat="45.58033" lon="5.52293">
        <ele>391</ele>
        <time>2021-04-03T12:57:44.589Z</time>
      </trkpt>
      <trkpt lat="45.58029" lon="5.52303">
        <ele>391</ele>
        <time>2021-04-03T12:57:45.588Z</time>
      </trkpt>
      <trkpt lat="45.58027" lon="5.52313">
        <ele>391</ele>
        <time>2021-04-03T12:57:46.589Z</time>
      </trkpt>
      <trkpt lat="45.58024" lon="5.52323">
        <ele>390</ele>
        <time>2021-04-03T12:57:47.589Z</time>
      </trkpt>
      <trkpt lat="45.5802" lon="5.52332">
        <ele>390</ele>
        <time>2021-04-03T12:57:48.589Z</time>
      </trkpt>
      <trkpt lat="45.58017" lon="5.52342">
        <ele>390</ele>
        <time>2021-04-03T12:57:49.589Z</time>
      </trkpt>
      <trkpt lat="45.58013" lon="5.52351">
        <ele>389</ele>
        <time>2021-04-03T12:57:50.589Z</time>
      </trkpt>
      <trkpt lat="45.58009" lon="5.52361">
        <ele>389</ele>
        <time>2021-04-03T12:57:51.589Z</time>
      </trkpt>
      <trkpt lat="45.58005" lon="5.52371">
        <ele>389</ele>
        <time>2021-04-03T12:57:52.589Z</time>
      </trkpt>
      <trkpt lat="45.58001" lon="5.52381">
        <ele>389</ele>
        <time>2021-04-03T12:57:53.589Z</time>
      </trkpt>
      <trkpt lat="45.57996" lon="5.52391">
        <ele>389</ele>
        <time>2021-04-03T12:57:54.589Z</time>
      </trkpt>
      <trkpt lat="45.57992" lon="5.52401">
        <ele>389</ele>
        <time>2021-04-03T12:57:55.588Z</time>
      </trkpt>
      <trkpt lat="45.57987" lon="5.52411">
        <ele>388</ele>
        <time>2021-04-03T12:57:56.589Z</time>
      </trkpt>
      <trkpt lat="45.57982" lon="5.52421">
        <ele>387</ele>
        <time>2021-04-03T12:57:57.589Z</time>
      </trkpt>
      <trkpt lat="45.57978" lon="5.52431">
        <ele>387</ele>
        <time>2021-04-03T12:57:58.588Z</time>
      </trkpt>
      <trkpt lat="45.57974" lon="5.52441">
        <ele>387</ele>
        <time>2021-04-03T12:57:59.589Z</time>
      </trkpt>
      <trkpt lat="45.57969" lon="5.52451">
        <ele>386</ele>
        <time>2021-04-03T12:58:00.589Z</time>
      </trkpt>
      <trkpt lat="45.57965" lon="5.5246">
        <ele>386</ele>
        <time>2021-04-03T12:58:01.589Z</time>
      </trkpt>
      <trkpt lat="45.5796" lon="5.5247">
        <ele>386</ele>
        <time>2021-04-03T12:58:02.589Z</time>
      </trkpt>
      <trkpt lat="45.57955" lon="5.5248">
        <ele>385</ele>
        <time>2021-04-03T12:58:03.589Z</time>
      </trkpt>
      <trkpt lat="45.5795" lon="5.5249">
        <ele>385</ele>
        <time>2021-04-03T12:58:04.589Z</time>
      </trkpt>
      <trkpt lat="45.57945" lon="5.525">
        <ele>385</ele>
        <time>2021-04-03T12:58:05.589Z</time>
      </trkpt>
      <trkpt lat="45.5794" lon="5.5251">
        <ele>385</ele>
        <time>2021-04-03T12:58:06.588Z</time>
      </trkpt>
      <trkpt lat="45.57935" lon="5.5252">
        <ele>384</ele>
        <time>2021-04-03T12:58:07.589Z</time>
      </trkpt>
      <trkpt lat="45.57929" lon="5.5253">
        <ele>384</ele>
        <time>2021-04-03T12:58:08.589Z</time>
      </trkpt>
      <trkpt lat="45.57924" lon="5.5254">
        <ele>384</ele>
        <time>2021-04-03T12:58:09.589Z</time>
      </trkpt>
      <trkpt lat="45.5792" lon="5.5255">
        <ele>383</ele>
        <time>2021-04-03T12:58:10.588Z</time>
      </trkpt>
      <trkpt lat="45.57915" lon="5.5256">
        <ele>383</ele>
        <time>2021-04-03T12:58:11.589Z</time>
      </trkpt>
      <trkpt lat="45.57911" lon="5.5257">
        <ele>383</ele>
        <time>2021-04-03T12:58:12.589Z</time>
      </trkpt>
      <trkpt lat="45.57907" lon="5.5258">
        <ele>383</ele>
        <time>2021-04-03T12:58:13.589Z</time>
      </trkpt>
      <trkpt lat="45.57903" lon="5.52589">
        <ele>383</ele>
        <time>2021-04-03T12:58:14.589Z</time>
      </trkpt>
      <trkpt lat="45.57899" lon="5.52597">
        <ele>383</ele>
        <time>2021-04-03T12:58:15.589Z</time>
      </trkpt>
      <trkpt lat="45.57896" lon="5.52605">
        <ele>383</ele>
        <time>2021-04-03T12:58:16.589Z</time>
      </trkpt>
      <trkpt lat="45.57894" lon="5.52613">
        <ele>382</ele>
        <time>2021-04-03T12:58:17.589Z</time>
      </trkpt>
      <trkpt lat="45.57891" lon="5.52619">
        <ele>382</ele>
        <time>2021-04-03T12:58:18.588Z</time>
      </trkpt>
      <trkpt lat="45.57889" lon="5.52624">
        <ele>382</ele>
        <time>2021-04-03T12:58:19.589Z</time>
      </trkpt>
      <trkpt lat="45.57886" lon="5.52627">
        <ele>382</ele>
        <time>2021-04-03T12:58:20.589Z</time>
      </trkpt>
      <trkpt lat="45.57883" lon="5.52628">
        <ele>382</ele>
        <time>2021-04-03T12:58:21.589Z</time>
      </trkpt>
      <trkpt lat="45.5788" lon="5.52628">
        <ele>381</ele>
        <time>2021-04-03T12:58:22.589Z</time>
      </trkpt>
      <trkpt lat="45.57878" lon="5.52626">
        <ele>381</ele>
        <time>2021-04-03T12:58:23.589Z</time>
      </trkpt>
      <trkpt lat="45.57877" lon="5.52625">
        <ele>381</ele>
        <time>2021-04-03T12:58:24.589Z</time>
      </trkpt>
      <trkpt lat="45.57875" lon="5.52624">
        <ele>380</ele>
        <time>2021-04-03T12:58:25.589Z</time>
      </trkpt>
      <trkpt lat="45.57873" lon="5.52622">
        <ele>380</ele>
        <time>2021-04-03T12:58:26.589Z</time>
      </trkpt>
      <trkpt lat="45.5787" lon="5.52618">
        <ele>380</ele>
        <time>2021-04-03T12:58:27.589Z</time>
      </trkpt>
      <trkpt lat="45.57867" lon="5.52616">
        <ele>379</ele>
        <time>2021-04-03T12:58:28.589Z</time>
      </trkpt>
      <trkpt lat="45.57863" lon="5.52614">
        <ele>378</ele>
        <time>2021-04-03T12:58:29.588Z</time>
      </trkpt>
      <trkpt lat="45.57861" lon="5.52613">
        <ele>378</ele>
        <time>2021-04-03T12:58:30.589Z</time>
      </trkpt>
      <trkpt lat="45.57858" lon="5.52611">
        <ele>378</ele>
        <time>2021-04-03T12:58:31.589Z</time>
      </trkpt>
      <trkpt lat="45.57854" lon="5.5261">
        <ele>378</ele>
        <time>2021-04-03T12:58:32.589Z</time>
      </trkpt>
      <trkpt lat="45.57852" lon="5.52608">
        <ele>378</ele>
        <time>2021-04-03T12:58:33.589Z</time>
      </trkpt>
      <trkpt lat="45.5785" lon="5.52607">
        <ele>378</ele>
        <time>2021-04-03T12:58:34.589Z</time>
      </trkpt>
      <trkpt lat="45.57848" lon="5.52607">
        <ele>379</ele>
        <time>2021-04-03T12:58:35.589Z</time>
      </trkpt>
      <trkpt lat="45.57847" lon="5.52606">
        <ele>379</ele>
        <time>2021-04-03T12:58:36.589Z</time>
      </trkpt>
      <trkpt lat="45.57846" lon="5.52605">
        <ele>379</ele>
        <time>2021-04-03T12:58:37.589Z</time>
      </trkpt>
      <trkpt lat="45.57846" lon="5.52604">
        <ele>378</ele>
        <time>2021-04-03T12:58:38.589Z</time>
      </trkpt>
      <trkpt lat="45.57845" lon="5.52604">
        <ele>378</ele>
        <time>2021-04-03T12:58:39.588Z</time>
      </trkpt>
      <trkpt lat="45.57846" lon="5.52603">
        <ele>377</ele>
        <time>2021-04-03T12:58:40.589Z</time>
      </trkpt>
      <trkpt lat="45.57845" lon="5.52602">
        <ele>377</ele>
        <time>2021-04-03T12:58:41.589Z</time>
      </trkpt>
      <trkpt lat="45.57845" lon="5.52602">
        <ele>376</ele>
        <time>2021-04-03T12:58:42.589Z</time>
      </trkpt>
      <trkpt lat="45.57845" lon="5.52602">
        <ele>376</ele>
        <time>2021-04-03T12:58:43.589Z</time>
      </trkpt>
      <trkpt lat="45.57844" lon="5.52601">
        <ele>375</ele>
        <time>2021-04-03T12:58:44.589Z</time>
      </trkpt>
      <trkpt lat="45.57844" lon="5.52602">
        <ele>375</ele>
        <time>2021-04-03T12:58:45.589Z</time>
      </trkpt>
      <trkpt lat="45.57843" lon="5.52603">
        <ele>375</ele>
        <time>2021-04-03T12:58:46.589Z</time>
      </trkpt>
      <trkpt lat="45.57842" lon="5.52606">
        <ele>375</ele>
        <time>2021-04-03T12:58:47.588Z</time>
      </trkpt>
      <trkpt lat="45.57841" lon="5.52608">
        <ele>375</ele>
        <time>2021-04-03T12:58:48.588Z</time>
      </trkpt>
      <trkpt lat="45.57841" lon="5.52612">
        <ele>375</ele>
        <time>2021-04-03T12:58:49.589Z</time>
      </trkpt>
      <trkpt lat="45.57841" lon="5.52617">
        <ele>375</ele>
        <time>2021-04-03T12:58:50.589Z</time>
      </trkpt>
      <trkpt lat="45.57843" lon="5.52623">
        <ele>376</ele>
        <time>2021-04-03T12:58:51.588Z</time>
      </trkpt>
      <trkpt lat="45.57844" lon="5.52629">
        <ele>376</ele>
        <time>2021-04-03T12:58:52.588Z</time>
      </trkpt>
      <trkpt lat="45.57845" lon="5.52636">
        <ele>376</ele>
        <time>2021-04-03T12:58:53.589Z</time>
      </trkpt>
      <trkpt lat="45.57846" lon="5.52643">
        <ele>376</ele>
        <time>2021-04-03T12:58:54.589Z</time>
      </trkpt>
      <trkpt lat="45.57847" lon="5.52652">
        <ele>376</ele>
        <time>2021-04-03T12:58:55.589Z</time>
      </trkpt>
      <trkpt lat="45.57848" lon="5.5266">
        <ele>376</ele>
        <time>2021-04-03T12:58:56.589Z</time>
      </trkpt>
      <trkpt lat="45.57849" lon="5.52669">
        <ele>375</ele>
        <time>2021-04-03T12:58:57.589Z</time>
      </trkpt>
      <trkpt lat="45.5785" lon="5.52679">
        <ele>375</ele>
        <time>2021-04-03T12:58:58.589Z</time>
      </trkpt>
      <trkpt lat="45.57852" lon="5.52689">
        <ele>375</ele>
        <time>2021-04-03T12:58:59.589Z</time>
      </trkpt>
      <trkpt lat="45.57854" lon="5.52699">
        <ele>375</ele>
        <time>2021-04-03T12:59:00.588Z</time>
      </trkpt>
      <trkpt lat="45.57856" lon="5.52708">
        <ele>374</ele>
        <time>2021-04-03T12:59:01.588Z</time>
      </trkpt>
      <trkpt lat="45.5786" lon="5.52718">
        <ele>374</ele>
        <time>2021-04-03T12:59:02.589Z</time>
      </trkpt>
      <trkpt lat="45.57863" lon="5.52728">
        <ele>374</ele>
        <time>2021-04-03T12:59:03.589Z</time>
      </trkpt>
      <trkpt lat="45.57866" lon="5.52739">
        <ele>374</ele>
        <time>2021-04-03T12:59:04.589Z</time>
      </trkpt>
      <trkpt lat="45.57869" lon="5.5275">
        <ele>374</ele>
        <time>2021-04-03T12:59:05.588Z</time>
      </trkpt>
      <trkpt lat="45.57873" lon="5.5276">
        <ele>374</ele>
        <time>2021-04-03T12:59:06.589Z</time>
      </trkpt>
      <trkpt lat="45.57876" lon="5.52769">
        <ele>375</ele>
        <time>2021-04-03T12:59:07.588Z</time>
      </trkpt>
      <trkpt lat="45.5788" lon="5.52778">
        <ele>375</ele>
        <time>2021-04-03T12:59:08.588Z</time>
      </trkpt>
      <trkpt lat="45.57883" lon="5.52788">
        <ele>375</ele>
        <time>2021-04-03T12:59:09.589Z</time>
      </trkpt>
      <trkpt lat="45.57884" lon="5.52797">
        <ele>375</ele>
        <time>2021-04-03T12:59:10.588Z</time>
      </trkpt>
      <trkpt lat="45.57884" lon="5.52806">
        <ele>374</ele>
        <time>2021-04-03T12:59:11.588Z</time>
      </trkpt>
      <trkpt lat="45.57883" lon="5.52815">
        <ele>374</ele>
        <time>2021-04-03T12:59:12.588Z</time>
      </trkpt>
      <trkpt lat="45.57883" lon="5.52824">
        <ele>374</ele>
        <time>2021-04-03T12:59:13.589Z</time>
      </trkpt>
      <trkpt lat="45.57881" lon="5.52832">
        <ele>373</ele>
        <time>2021-04-03T12:59:14.589Z</time>
      </trkpt>
      <trkpt lat="45.5788" lon="5.5284">
        <ele>373</ele>
        <time>2021-04-03T12:59:15.589Z</time>
      </trkpt>
      <trkpt lat="45.57879" lon="5.52848">
        <ele>373</ele>
        <time>2021-04-03T12:59:16.588Z</time>
      </trkpt>
      <trkpt lat="45.57878" lon="5.52854">
        <ele>373</ele>
        <time>2021-04-03T12:59:17.588Z</time>
      </trkpt>
      <trkpt lat="45.57876" lon="5.52859">
        <ele>372</ele>
        <time>2021-04-03T12:59:18.589Z</time>
      </trkpt>
      <trkpt lat="45.57875" lon="5.52864">
        <ele>372</ele>
        <time>2021-04-03T12:59:19.588Z</time>
      </trkpt>
      <trkpt lat="45.57874" lon="5.52869">
        <ele>372</ele>
        <time>2021-04-03T12:59:20.588Z</time>
      </trkpt>
      <trkpt lat="45.57873" lon="5.52871">
        <ele>372</ele>
        <time>2021-04-03T12:59:21.588Z</time>
      </trkpt>
      <trkpt lat="45.57872" lon="5.52875">
        <ele>372</ele>
        <time>2021-04-03T12:59:22.589Z</time>
      </trkpt>
      <trkpt lat="45.57871" lon="5.52876">
        <ele>371</ele>
        <time>2021-04-03T12:59:23.589Z</time>
      </trkpt>
      <trkpt lat="45.5787" lon="5.52879">
        <ele>371</ele>
        <time>2021-04-03T12:59:24.589Z</time>
      </trkpt>
      <trkpt lat="45.57869" lon="5.52882">
        <ele>371</ele>
        <time>2021-04-03T12:59:25.588Z</time>
      </trkpt>
      <trkpt lat="45.57868" lon="5.52885">
        <ele>372</ele>
        <time>2021-04-03T12:59:26.588Z</time>
      </trkpt>
      <trkpt lat="45.57868" lon="5.52888">
        <ele>372</ele>
        <time>2021-04-03T12:59:27.589Z</time>
      </trkpt>
      <trkpt lat="45.57867" lon="5.52892">
        <ele>373</ele>
        <time>2021-04-03T12:59:28.588Z</time>
      </trkpt>
      <trkpt lat="45.57865" lon="5.52896">
        <ele>373</ele>
        <time>2021-04-03T12:59:29.589Z</time>
      </trkpt>
      <trkpt lat="45.57865" lon="5.52899">
        <ele>373</ele>
        <time>2021-04-03T12:59:30.588Z</time>
      </trkpt>
      <trkpt lat="45.57864" lon="5.52902">
        <ele>373</ele>
        <time>2021-04-03T12:59:31.588Z</time>
      </trkpt>
      <trkpt lat="45.57863" lon="5.52905">
        <ele>373</ele>
        <time>2021-04-03T12:59:32.588Z</time>
      </trkpt>
      <trkpt lat="45.57862" lon="5.52907">
        <ele>373</ele>
        <time>2021-04-03T12:59:33.589Z</time>
      </trkpt>
      <trkpt lat="45.57861" lon="5.52909">
        <ele>373</ele>
        <time>2021-04-03T12:59:34.589Z</time>
      </trkpt>
      <trkpt lat="45.5786" lon="5.52911">
        <ele>374</ele>
        <time>2021-04-03T12:59:35.588Z</time>
      </trkpt>
      <trkpt lat="45.57858" lon="5.52913">
        <ele>374</ele>
        <time>2021-04-03T12:59:36.588Z</time>
      </trkpt>
      <trkpt lat="45.57857" lon="5.52915">
        <ele>374</ele>
        <time>2021-04-03T12:59:37.589Z</time>
      </trkpt>
      <trkpt lat="45.57856" lon="5.52917">
        <ele>374</ele>
        <time>2021-04-03T12:59:38.589Z</time>
      </trkpt>
      <trkpt lat="45.57855" lon="5.5292">
        <ele>374</ele>
        <time>2021-04-03T12:59:39.589Z</time>
      </trkpt>
      <trkpt lat="45.57856" lon="5.52921">
        <ele>374</ele>
        <time>2021-04-03T12:59:40.588Z</time>
      </trkpt>
      <trkpt lat="45.57857" lon="5.52921">
        <ele>373</ele>
        <time>2021-04-03T12:59:41.588Z</time>
      </trkpt>
      <trkpt lat="45.57858" lon="5.52919">
        <ele>373</ele>
        <time>2021-04-03T12:59:42.588Z</time>
      </trkpt>
      <trkpt lat="45.57859" lon="5.52917">
        <ele>373</ele>
        <time>2021-04-03T12:59:43.589Z</time>
      </trkpt>
      <trkpt lat="45.57858" lon="5.52916">
        <ele>373</ele>
        <time>2021-04-03T12:59:44.588Z</time>
      </trkpt>
      <trkpt lat="45.57857" lon="5.52916">
        <ele>373</ele>
        <time>2021-04-03T12:59:45.589Z</time>
      </trkpt>
      <trkpt lat="45.57856" lon="5.52917">
        <ele>372</ele>
        <time>2021-04-03T12:59:46.589Z</time>
      </trkpt>
      <trkpt lat="45.57854" lon="5.52919">
        <ele>372</ele>
        <time>2021-04-03T12:59:47.589Z</time>
      </trkpt>
      <trkpt lat="45.57853" lon="5.52921">
        <ele>372</ele>
        <time>2021-04-03T12:59:48.589Z</time>
      </trkpt>
      <trkpt lat="45.57851" lon="5.52924">
        <ele>372</ele>
        <time>2021-04-03T12:59:49.588Z</time>
      </trkpt>
      <trkpt lat="45.57849" lon="5.52927">
        <ele>373</ele>
        <time>2021-04-03T12:59:50.589Z</time>
      </trkpt>
      <trkpt lat="45.57846" lon="5.5293">
        <ele>373</ele>
        <time>2021-04-03T12:59:51.588Z</time>
      </trkpt>
      <trkpt lat="45.57844" lon="5.52933">
        <ele>373</ele>
        <time>2021-04-03T12:59:52.589Z</time>
      </trkpt>
      <trkpt lat="45.57842" lon="5.52937">
        <ele>373</ele>
        <time>2021-04-03T12:59:53.589Z</time>
      </trkpt>
      <trkpt lat="45.5784" lon="5.5294">
        <ele>373</ele>
        <time>2021-04-03T12:59:54.589Z</time>
      </trkpt>
      <trkpt lat="45.57838" lon="5.52945">
        <ele>374</ele>
        <time>2021-04-03T12:59:55.588Z</time>
      </trkpt>
      <trkpt lat="45.57836" lon="5.52948">
        <ele>374</ele>
        <time>2021-04-03T12:59:56.588Z</time>
      </trkpt>
      <trkpt lat="45.57834" lon="5.52951">
        <ele>375</ele>
        <time>2021-04-03T12:59:57.588Z</time>
      </trkpt>
      <trkpt lat="45.57832" lon="5.52955">
        <ele>375</ele>
        <time>2021-04-03T12:59:58.589Z</time>
      </trkpt>
      <trkpt lat="45.5783" lon="5.52959">
        <ele>375</ele>
        <time>2021-04-03T12:59:59.588Z</time>
      </trkpt>
      <trkpt lat="45.57828" lon="5.52962">
        <ele>376</ele>
        <time>2021-04-03T13:00:00.589Z</time>
      </trkpt>
      <trkpt lat="45.57825" lon="5.52966">
        <ele>376</ele>
        <time>2021-04-03T13:00:01.588Z</time>
      </trkpt>
      <trkpt lat="45.57823" lon="5.5297">
        <ele>377</ele>
        <time>2021-04-03T13:00:02.589Z</time>
      </trkpt>
      <trkpt lat="45.5782" lon="5.52973">
        <ele>377</ele>
        <time>2021-04-03T13:00:03.588Z</time>
      </trkpt>
      <trkpt lat="45.57818" lon="5.52976">
        <ele>378</ele>
        <time>2021-04-03T13:00:04.588Z</time>
      </trkpt>
      <trkpt lat="45.57815" lon="5.52979">
        <ele>378</ele>
        <time>2021-04-03T13:00:05.589Z</time>
      </trkpt>
      <trkpt lat="45.57813" lon="5.52982">
        <ele>379</ele>
        <time>2021-04-03T13:00:06.589Z</time>
      </trkpt>
      <trkpt lat="45.5781" lon="5.52986">
        <ele>379</ele>
        <time>2021-04-03T13:00:07.589Z</time>
      </trkpt>
      <trkpt lat="45.57808" lon="5.52989">
        <ele>380</ele>
        <time>2021-04-03T13:00:08.589Z</time>
      </trkpt>
      <trkpt lat="45.57805" lon="5.52992">
        <ele>380</ele>
        <time>2021-04-03T13:00:09.588Z</time>
      </trkpt>
      <trkpt lat="45.57803" lon="5.52995">
        <ele>380</ele>
        <time>2021-04-03T13:00:10.588Z</time>
      </trkpt>
      <trkpt lat="45.57801" lon="5.52999">
        <ele>380</ele>
        <time>2021-04-03T13:00:11.588Z</time>
      </trkpt>
      <trkpt lat="45.57798" lon="5.53004">
        <ele>381</ele>
        <time>2021-04-03T13:00:12.589Z</time>
      </trkpt>
      <trkpt lat="45.57796" lon="5.53009">
        <ele>382</ele>
        <time>2021-04-03T13:00:13.589Z</time>
      </trkpt>
      <trkpt lat="45.57794" lon="5.53013">
        <ele>382</ele>
        <time>2021-04-03T13:00:14.588Z</time>
      </trkpt>
      <trkpt lat="45.57792" lon="5.53016">
        <ele>382</ele>
        <time>2021-04-03T13:00:15.588Z</time>
      </trkpt>
      <trkpt lat="45.57789" lon="5.53021">
        <ele>382</ele>
        <time>2021-04-03T13:00:16.588Z</time>
      </trkpt>
      <trkpt lat="45.57787" lon="5.53025">
        <ele>382</ele>
        <time>2021-04-03T13:00:17.589Z</time>
      </trkpt>
      <trkpt lat="45.57784" lon="5.53031">
        <ele>382</ele>
        <time>2021-04-03T13:00:18.588Z</time>
      </trkpt>
      <trkpt lat="45.57781" lon="5.53036">
        <ele>382</ele>
        <time>2021-04-03T13:00:19.588Z</time>
      </trkpt>
      <trkpt lat="45.57778" lon="5.53043">
        <ele>382</ele>
        <time>2021-04-03T13:00:20.588Z</time>
      </trkpt>
      <trkpt lat="45.57773" lon="5.53051">
        <ele>383</ele>
        <time>2021-04-03T13:00:21.588Z</time>
      </trkpt>
      <trkpt lat="45.5777" lon="5.53056">
        <ele>383</ele>
        <time>2021-04-03T13:00:22.588Z</time>
      </trkpt>
      <trkpt lat="45.57765" lon="5.53063">
        <ele>383</ele>
        <time>2021-04-03T13:00:23.588Z</time>
      </trkpt>
      <trkpt lat="45.57761" lon="5.5307">
        <ele>383</ele>
        <time>2021-04-03T13:00:24.589Z</time>
      </trkpt>
      <trkpt lat="45.57757" lon="5.53076">
        <ele>383</ele>
        <time>2021-04-03T13:00:25.588Z</time>
      </trkpt>
      <trkpt lat="45.57754" lon="5.53082">
        <ele>383</ele>
        <time>2021-04-03T13:00:26.588Z</time>
      </trkpt>
      <trkpt lat="45.57751" lon="5.53088">
        <ele>383</ele>
        <time>2021-04-03T13:00:27.588Z</time>
      </trkpt>
      <trkpt lat="45.57748" lon="5.53093">
        <ele>383</ele>
        <time>2021-04-03T13:00:28.588Z</time>
      </trkpt>
      <trkpt lat="45.57746" lon="5.53098">
        <ele>383</ele>
        <time>2021-04-03T13:00:29.588Z</time>
      </trkpt>
      <trkpt lat="45.57744" lon="5.53103">
        <ele>383</ele>
        <time>2021-04-03T13:00:30.588Z</time>
      </trkpt>
      <trkpt lat="45.57742" lon="5.53107">
        <ele>383</ele>
        <time>2021-04-03T13:00:31.588Z</time>
      </trkpt>
      <trkpt lat="45.5774" lon="5.53112">
        <ele>383</ele>
        <time>2021-04-03T13:00:32.588Z</time>
      </trkpt>
      <trkpt lat="45.57738" lon="5.53117">
        <ele>383</ele>
        <time>2021-04-03T13:00:33.589Z</time>
      </trkpt>
      <trkpt lat="45.57736" lon="5.53123">
        <ele>383</ele>
        <time>2021-04-03T13:00:34.588Z</time>
      </trkpt>
      <trkpt lat="45.57733" lon="5.53128">
        <ele>382</ele>
        <time>2021-04-03T13:00:35.589Z</time>
      </trkpt>
      <trkpt lat="45.57731" lon="5.53132">
        <ele>382</ele>
        <time>2021-04-03T13:00:36.588Z</time>
      </trkpt>
      <trkpt lat="45.57728" lon="5.53137">
        <ele>382</ele>
        <time>2021-04-03T13:00:37.588Z</time>
      </trkpt>
      <trkpt lat="45.57726" lon="5.53142">
        <ele>382</ele>
        <time>2021-04-03T13:00:38.589Z</time>
      </trkpt>
      <trkpt lat="45.57723" lon="5.53147">
        <ele>382</ele>
        <time>2021-04-03T13:00:39.588Z</time>
      </trkpt>
      <trkpt lat="45.5772" lon="5.53152">
        <ele>382</ele>
        <time>2021-04-03T13:00:40.589Z</time>
      </trkpt>
      <trkpt lat="45.57718" lon="5.53156">
        <ele>382</ele>
        <time>2021-04-03T13:00:41.588Z</time>
      </trkpt>
      <trkpt lat="45.57715" lon="5.53159">
        <ele>383</ele>
        <time>2021-04-03T13:00:42.589Z</time>
      </trkpt>
      <trkpt lat="45.57713" lon="5.53162">
        <ele>383</ele>
        <time>2021-04-03T13:00:43.588Z</time>
      </trkpt>
      <trkpt lat="45.57711" lon="5.53166">
        <ele>383</ele>
        <time>2021-04-03T13:00:44.588Z</time>
      </trkpt>
      <trkpt lat="45.57708" lon="5.53169">
        <ele>383</ele>
        <time>2021-04-03T13:00:45.588Z</time>
      </trkpt>
      <trkpt lat="45.57705" lon="5.53173">
        <ele>383</ele>
        <time>2021-04-03T13:00:46.588Z</time>
      </trkpt>
      <trkpt lat="45.57703" lon="5.53176">
        <ele>383</ele>
        <time>2021-04-03T13:00:47.588Z</time>
      </trkpt>
      <trkpt lat="45.57701" lon="5.5318">
        <ele>383</ele>
        <time>2021-04-03T13:00:48.588Z</time>
      </trkpt>
      <trkpt lat="45.57698" lon="5.53184">
        <ele>383</ele>
        <time>2021-04-03T13:00:49.588Z</time>
      </trkpt>
      <trkpt lat="45.57695" lon="5.53188">
        <ele>383</ele>
        <time>2021-04-03T13:00:50.588Z</time>
      </trkpt>
      <trkpt lat="45.57692" lon="5.53192">
        <ele>383</ele>
        <time>2021-04-03T13:00:51.588Z</time>
      </trkpt>
      <trkpt lat="45.57688" lon="5.53194">
        <ele>383</ele>
        <time>2021-04-03T13:00:52.589Z</time>
      </trkpt>
      <trkpt lat="45.57685" lon="5.53198">
        <ele>383</ele>
        <time>2021-04-03T13:00:53.589Z</time>
      </trkpt>
      <trkpt lat="45.57683" lon="5.53202">
        <ele>382</ele>
        <time>2021-04-03T13:00:54.589Z</time>
      </trkpt>
      <trkpt lat="45.5768" lon="5.53206">
        <ele>382</ele>
        <time>2021-04-03T13:00:55.588Z</time>
      </trkpt>
      <trkpt lat="45.57677" lon="5.5321">
        <ele>382</ele>
        <time>2021-04-03T13:00:56.588Z</time>
      </trkpt>
      <trkpt lat="45.57673" lon="5.53213">
        <ele>382</ele>
        <time>2021-04-03T13:00:57.589Z</time>
      </trkpt>
      <trkpt lat="45.5767" lon="5.53216">
        <ele>382</ele>
        <time>2021-04-03T13:00:58.589Z</time>
      </trkpt>
      <trkpt lat="45.57666" lon="5.53219">
        <ele>382</ele>
        <time>2021-04-03T13:00:59.588Z</time>
      </trkpt>
      <trkpt lat="45.57663" lon="5.53223">
        <ele>382</ele>
        <time>2021-04-03T13:01:00.589Z</time>
      </trkpt>
      <trkpt lat="45.57659" lon="5.53225">
        <ele>383</ele>
        <time>2021-04-03T13:01:01.588Z</time>
      </trkpt>
      <trkpt lat="45.57656" lon="5.53228">
        <ele>383</ele>
        <time>2021-04-03T13:01:02.588Z</time>
      </trkpt>
      <trkpt lat="45.57652" lon="5.5323">
        <ele>383</ele>
        <time>2021-04-03T13:01:03.588Z</time>
      </trkpt>
      <trkpt lat="45.57649" lon="5.53233">
        <ele>383</ele>
        <time>2021-04-03T13:01:04.588Z</time>
      </trkpt>
      <trkpt lat="45.57646" lon="5.53235">
        <ele>383</ele>
        <time>2021-04-03T13:01:05.588Z</time>
      </trkpt>
      <trkpt lat="45.57642" lon="5.53238">
        <ele>383</ele>
        <time>2021-04-03T13:01:06.588Z</time>
      </trkpt>
      <trkpt lat="45.57638" lon="5.5324">
        <ele>383</ele>
        <time>2021-04-03T13:01:07.588Z</time>
      </trkpt>
      <trkpt lat="45.57635" lon="5.53243">
        <ele>384</ele>
        <time>2021-04-03T13:01:08.588Z</time>
      </trkpt>
      <trkpt lat="45.57632" lon="5.53245">
        <ele>384</ele>
        <time>2021-04-03T13:01:09.588Z</time>
      </trkpt>
      <trkpt lat="45.57628" lon="5.53247">
        <ele>385</ele>
        <time>2021-04-03T13:01:10.588Z</time>
      </trkpt>
      <trkpt lat="45.57625" lon="5.53249">
        <ele>385</ele>
        <time>2021-04-03T13:01:11.588Z</time>
      </trkpt>
      <trkpt lat="45.57621" lon="5.5325">
        <ele>385</ele>
        <time>2021-04-03T13:01:12.589Z</time>
      </trkpt>
      <trkpt lat="45.57617" lon="5.53252">
        <ele>386</ele>
        <time>2021-04-03T13:01:13.589Z</time>
      </trkpt>
      <trkpt lat="45.57613" lon="5.53253">
        <ele>386</ele>
        <time>2021-04-03T13:01:14.589Z</time>
      </trkpt>
      <trkpt lat="45.5761" lon="5.53254">
        <ele>386</ele>
        <time>2021-04-03T13:01:15.589Z</time>
      </trkpt>
      <trkpt lat="45.57606" lon="5.53254">
        <ele>387</ele>
        <time>2021-04-03T13:01:16.589Z</time>
      </trkpt>
      <trkpt lat="45.57602" lon="5.53255">
        <ele>387</ele>
        <time>2021-04-03T13:01:17.589Z</time>
      </trkpt>
      <trkpt lat="45.57598" lon="5.53255">
        <ele>387</ele>
        <time>2021-04-03T13:01:18.589Z</time>
      </trkpt>
      <trkpt lat="45.57595" lon="5.53256">
        <ele>387</ele>
        <time>2021-04-03T13:01:19.588Z</time>
      </trkpt>
      <trkpt lat="45.57592" lon="5.53256">
        <ele>388</ele>
        <time>2021-04-03T13:01:20.589Z</time>
      </trkpt>
      <trkpt lat="45.57588" lon="5.53256">
        <ele>388</ele>
        <time>2021-04-03T13:01:21.588Z</time>
      </trkpt>
      <trkpt lat="45.57585" lon="5.53257">
        <ele>388</ele>
        <time>2021-04-03T13:01:22.589Z</time>
      </trkpt>
      <trkpt lat="45.57582" lon="5.53257">
        <ele>389</ele>
        <time>2021-04-03T13:01:23.588Z</time>
      </trkpt>
      <trkpt lat="45.57578" lon="5.53258">
        <ele>389</ele>
        <time>2021-04-03T13:01:24.589Z</time>
      </trkpt>
      <trkpt lat="45.57575" lon="5.53258">
        <ele>389</ele>
        <time>2021-04-03T13:01:25.589Z</time>
      </trkpt>
      <trkpt lat="45.57572" lon="5.53258">
        <ele>389</ele>
        <time>2021-04-03T13:01:26.589Z</time>
      </trkpt>
      <trkpt lat="45.57569" lon="5.53259">
        <ele>390</ele>
        <time>2021-04-03T13:01:27.589Z</time>
      </trkpt>
      <trkpt lat="45.57566" lon="5.53259">
        <ele>390</ele>
        <time>2021-04-03T13:01:28.588Z</time>
      </trkpt>
      <trkpt lat="45.57563" lon="5.53259">
        <ele>390</ele>
        <time>2021-04-03T13:01:29.589Z</time>
      </trkpt>
      <trkpt lat="45.5756" lon="5.53258">
        <ele>390</ele>
        <time>2021-04-03T13:01:30.589Z</time>
      </trkpt>
      <trkpt lat="45.57556" lon="5.53257">
        <ele>391</ele>
        <time>2021-04-03T13:01:31.589Z</time>
      </trkpt>
      <trkpt lat="45.57553" lon="5.53257">
        <ele>391</ele>
        <time>2021-04-03T13:01:32.589Z</time>
      </trkpt>
      <trkpt lat="45.5755" lon="5.53257">
        <ele>391</ele>
        <time>2021-04-03T13:01:33.589Z</time>
      </trkpt>
      <trkpt lat="45.57547" lon="5.53259">
        <ele>390</ele>
        <time>2021-04-03T13:01:34.588Z</time>
      </trkpt>
      <trkpt lat="45.57543" lon="5.5326">
        <ele>390</ele>
        <time>2021-04-03T13:01:35.589Z</time>
      </trkpt>
      <trkpt lat="45.57539" lon="5.53262">
        <ele>390</ele>
        <time>2021-04-03T13:01:36.589Z</time>
      </trkpt>
      <trkpt lat="45.57534" lon="5.53264">
        <ele>390</ele>
        <time>2021-04-03T13:01:37.589Z</time>
      </trkpt>
      <trkpt lat="45.5753" lon="5.53266">
        <ele>390</ele>
        <time>2021-04-03T13:01:38.589Z</time>
      </trkpt>
      <trkpt lat="45.57525" lon="5.53268">
        <ele>390</ele>
        <time>2021-04-03T13:01:39.589Z</time>
      </trkpt>
      <trkpt lat="45.5752" lon="5.5327">
        <ele>390</ele>
        <time>2021-04-03T13:01:40.589Z</time>
      </trkpt>
      <trkpt lat="45.57514" lon="5.53272">
        <ele>389</ele>
        <time>2021-04-03T13:01:41.589Z</time>
      </trkpt>
      <trkpt lat="45.57508" lon="5.53275">
        <ele>388</ele>
        <time>2021-04-03T13:01:42.589Z</time>
      </trkpt>
      <trkpt lat="45.57501" lon="5.53278">
        <ele>388</ele>
        <time>2021-04-03T13:01:43.589Z</time>
      </trkpt>
      <trkpt lat="45.57493" lon="5.53281">
        <ele>388</ele>
        <time>2021-04-03T13:01:44.588Z</time>
      </trkpt>
      <trkpt lat="45.57485" lon="5.53284">
        <ele>388</ele>
        <time>2021-04-03T13:01:45.589Z</time>
      </trkpt>
      <trkpt lat="45.57478" lon="5.53287">
        <ele>387</ele>
        <time>2021-04-03T13:01:46.588Z</time>
      </trkpt>
      <trkpt lat="45.57469" lon="5.5329">
        <ele>387</ele>
        <time>2021-04-03T13:01:47.589Z</time>
      </trkpt>
      <trkpt lat="45.57461" lon="5.53293">
        <ele>387</ele>
        <time>2021-04-03T13:01:48.589Z</time>
      </trkpt>
      <trkpt lat="45.57452" lon="5.53296">
        <ele>386</ele>
        <time>2021-04-03T13:01:49.589Z</time>
      </trkpt>
      <trkpt lat="45.57443" lon="5.533">
        <ele>386</ele>
        <time>2021-04-03T13:01:50.589Z</time>
      </trkpt>
      <trkpt lat="45.57433" lon="5.53304">
        <ele>386</ele>
        <time>2021-04-03T13:01:51.589Z</time>
      </trkpt>
      <trkpt lat="45.57423" lon="5.53308">
        <ele>385</ele>
        <time>2021-04-03T13:01:52.589Z</time>
      </trkpt>
      <trkpt lat="45.57412" lon="5.53312">
        <ele>385</ele>
        <time>2021-04-03T13:01:53.588Z</time>
      </trkpt>
      <trkpt lat="45.57402" lon="5.53315">
        <ele>384</ele>
        <time>2021-04-03T13:01:54.589Z</time>
      </trkpt>
      <trkpt lat="45.57391" lon="5.53319">
        <ele>384</ele>
        <time>2021-04-03T13:01:55.589Z</time>
      </trkpt>
      <trkpt lat="45.57381" lon="5.53323">
        <ele>383</ele>
        <time>2021-04-03T13:01:56.589Z</time>
      </trkpt>
      <trkpt lat="45.5737" lon="5.53327">
        <ele>383</ele>
        <time>2021-04-03T13:01:57.588Z</time>
      </trkpt>
      <trkpt lat="45.57359" lon="5.53331">
        <ele>382</ele>
        <time>2021-04-03T13:01:58.589Z</time>
      </trkpt>
      <trkpt lat="45.57349" lon="5.53335">
        <ele>382</ele>
        <time>2021-04-03T13:01:59.589Z</time>
      </trkpt>
      <trkpt lat="45.57339" lon="5.53339">
        <ele>381</ele>
        <time>2021-04-03T13:02:00.588Z</time>
      </trkpt>
      <trkpt lat="45.57328" lon="5.53343">
        <ele>381</ele>
        <time>2021-04-03T13:02:01.589Z</time>
      </trkpt>
      <trkpt lat="45.57318" lon="5.53346">
        <ele>381</ele>
        <time>2021-04-03T13:02:02.588Z</time>
      </trkpt>
      <trkpt lat="45.57308" lon="5.5335">
        <ele>380</ele>
        <time>2021-04-03T13:02:03.589Z</time>
      </trkpt>
      <trkpt lat="45.57298" lon="5.53354">
        <ele>380</ele>
        <time>2021-04-03T13:02:04.588Z</time>
      </trkpt>
      <trkpt lat="45.57289" lon="5.53357">
        <ele>379</ele>
        <time>2021-04-03T13:02:05.588Z</time>
      </trkpt>
      <trkpt lat="45.5728" lon="5.5336">
        <ele>379</ele>
        <time>2021-04-03T13:02:06.589Z</time>
      </trkpt>
      <trkpt lat="45.57271" lon="5.53364">
        <ele>378</ele>
        <time>2021-04-03T13:02:07.589Z</time>
      </trkpt>
      <trkpt lat="45.57262" lon="5.53367">
        <ele>378</ele>
        <time>2021-04-03T13:02:08.589Z</time>
      </trkpt>
      <trkpt lat="45.57254" lon="5.5337">
        <ele>378</ele>
        <time>2021-04-03T13:02:09.588Z</time>
      </trkpt>
      <trkpt lat="45.57245" lon="5.53372">
        <ele>378</ele>
        <time>2021-04-03T13:02:10.589Z</time>
      </trkpt>
      <trkpt lat="45.57237" lon="5.53374">
        <ele>378</ele>
        <time>2021-04-03T13:02:11.589Z</time>
      </trkpt>
      <trkpt lat="45.57229" lon="5.53375">
        <ele>377</ele>
        <time>2021-04-03T13:02:12.589Z</time>
      </trkpt>
      <trkpt lat="45.57221" lon="5.53375">
        <ele>377</ele>
        <time>2021-04-03T13:02:13.588Z</time>
      </trkpt>
      <trkpt lat="45.57214" lon="5.53376">
        <ele>377</ele>
        <time>2021-04-03T13:02:14.588Z</time>
      </trkpt>
      <trkpt lat="45.57207" lon="5.53376">
        <ele>377</ele>
        <time>2021-04-03T13:02:15.589Z</time>
      </trkpt>
      <trkpt lat="45.572" lon="5.53377">
        <ele>376</ele>
        <time>2021-04-03T13:02:16.589Z</time>
      </trkpt>
      <trkpt lat="45.57193" lon="5.53377">
        <ele>376</ele>
        <time>2021-04-03T13:02:17.589Z</time>
      </trkpt>
      <trkpt lat="45.57186" lon="5.53377">
        <ele>376</ele>
        <time>2021-04-03T13:02:18.589Z</time>
      </trkpt>
      <trkpt lat="45.5718" lon="5.53378">
        <ele>376</ele>
        <time>2021-04-03T13:02:19.588Z</time>
      </trkpt>
      <trkpt lat="45.57173" lon="5.53378">
        <ele>377</ele>
        <time>2021-04-03T13:02:20.589Z</time>
      </trkpt>
      <trkpt lat="45.57166" lon="5.53379">
        <ele>377</ele>
        <time>2021-04-03T13:02:21.588Z</time>
      </trkpt>
      <trkpt lat="45.5716" lon="5.53379">
        <ele>377</ele>
        <time>2021-04-03T13:02:22.588Z</time>
      </trkpt>
      <trkpt lat="45.57154" lon="5.53379">
        <ele>378</ele>
        <time>2021-04-03T13:02:23.589Z</time>
      </trkpt>
      <trkpt lat="45.57149" lon="5.5338">
        <ele>378</ele>
        <time>2021-04-03T13:02:24.589Z</time>
      </trkpt>
      <trkpt lat="45.57143" lon="5.5338">
        <ele>378</ele>
        <time>2021-04-03T13:02:25.589Z</time>
      </trkpt>
      <trkpt lat="45.57137" lon="5.5338">
        <ele>378</ele>
        <time>2021-04-03T13:02:26.589Z</time>
      </trkpt>
      <trkpt lat="45.57131" lon="5.5338">
        <ele>379</ele>
        <time>2021-04-03T13:02:27.589Z</time>
      </trkpt>
      <trkpt lat="45.57125" lon="5.5338">
        <ele>379</ele>
        <time>2021-04-03T13:02:28.589Z</time>
      </trkpt>
      <trkpt lat="45.5712" lon="5.5338">
        <ele>380</ele>
        <time>2021-04-03T13:02:29.589Z</time>
      </trkpt>
      <trkpt lat="45.57114" lon="5.5338">
        <ele>380</ele>
        <time>2021-04-03T13:02:30.589Z</time>
      </trkpt>
      <trkpt lat="45.57109" lon="5.53381">
        <ele>381</ele>
        <time>2021-04-03T13:02:31.589Z</time>
      </trkpt>
      <trkpt lat="45.57104" lon="5.53381">
        <ele>381</ele>
        <time>2021-04-03T13:02:32.589Z</time>
      </trkpt>
      <trkpt lat="45.57098" lon="5.53381">
        <ele>381</ele>
        <time>2021-04-03T13:02:33.589Z</time>
      </trkpt>
      <trkpt lat="45.57093" lon="5.53382">
        <ele>381</ele>
        <time>2021-04-03T13:02:34.589Z</time>
      </trkpt>
      <trkpt lat="45.57087" lon="5.53382">
        <ele>382</ele>
        <time>2021-04-03T13:02:35.589Z</time>
      </trkpt>
      <trkpt lat="45.57082" lon="5.53382">
        <ele>382</ele>
        <time>2021-04-03T13:02:36.589Z</time>
      </trkpt>
      <trkpt lat="45.57077" lon="5.53382">
        <ele>382</ele>
        <time>2021-04-03T13:02:37.588Z</time>
      </trkpt>
      <trkpt lat="45.57071" lon="5.53383">
        <ele>382</ele>
        <time>2021-04-03T13:02:38.589Z</time>
      </trkpt>
      <trkpt lat="45.57065" lon="5.53383">
        <ele>382</ele>
        <time>2021-04-03T13:02:39.589Z</time>
      </trkpt>
      <trkpt lat="45.5706" lon="5.53383">
        <ele>382</ele>
        <time>2021-04-03T13:02:40.589Z</time>
      </trkpt>
      <trkpt lat="45.57054" lon="5.53383">
        <ele>383</ele>
        <time>2021-04-03T13:02:41.589Z</time>
      </trkpt>
      <trkpt lat="45.57049" lon="5.53384">
        <ele>382</ele>
        <time>2021-04-03T13:02:42.589Z</time>
      </trkpt>
      <trkpt lat="45.57044" lon="5.53384">
        <ele>382</ele>
        <time>2021-04-03T13:02:43.588Z</time>
      </trkpt>
      <trkpt lat="45.57038" lon="5.53384">
        <ele>382</ele>
        <time>2021-04-03T13:02:44.589Z</time>
      </trkpt>
      <trkpt lat="45.57033" lon="5.53384">
        <ele>382</ele>
        <time>2021-04-03T13:02:45.589Z</time>
      </trkpt>
      <trkpt lat="45.57028" lon="5.53385">
        <ele>382</ele>
        <time>2021-04-03T13:02:46.588Z</time>
      </trkpt>
      <trkpt lat="45.57022" lon="5.53385">
        <ele>382</ele>
        <time>2021-04-03T13:02:47.588Z</time>
      </trkpt>
      <trkpt lat="45.57017" lon="5.53385">
        <ele>382</ele>
        <time>2021-04-03T13:02:48.589Z</time>
      </trkpt>
      <trkpt lat="45.57012" lon="5.53385">
        <ele>382</ele>
        <time>2021-04-03T13:02:49.589Z</time>
      </trkpt>
      <trkpt lat="45.57006" lon="5.53385">
        <ele>382</ele>
        <time>2021-04-03T13:02:50.589Z</time>
      </trkpt>
      <trkpt lat="45.57001" lon="5.53384">
        <ele>382</ele>
        <time>2021-04-03T13:02:51.589Z</time>
      </trkpt>
      <trkpt lat="45.56995" lon="5.53384">
        <ele>382</ele>
        <time>2021-04-03T13:02:52.589Z</time>
      </trkpt>
      <trkpt lat="45.5699" lon="5.53384">
        <ele>382</ele>
        <time>2021-04-03T13:02:53.589Z</time>
      </trkpt>
      <trkpt lat="45.56985" lon="5.53384">
        <ele>382</ele>
        <time>2021-04-03T13:02:54.588Z</time>
      </trkpt>
      <trkpt lat="45.5698" lon="5.53384">
        <ele>382</ele>
        <time>2021-04-03T13:02:55.589Z</time>
      </trkpt>
      <trkpt lat="45.56974" lon="5.53384">
        <ele>383</ele>
        <time>2021-04-03T13:02:56.589Z</time>
      </trkpt>
      <trkpt lat="45.56969" lon="5.53384">
        <ele>383</ele>
        <time>2021-04-03T13:02:57.589Z</time>
      </trkpt>
      <trkpt lat="45.56964" lon="5.53384">
        <ele>383</ele>
        <time>2021-04-03T13:02:58.588Z</time>
      </trkpt>
      <trkpt lat="45.56959" lon="5.53384">
        <ele>384</ele>
        <time>2021-04-03T13:02:59.589Z</time>
      </trkpt>
      <trkpt lat="45.56954" lon="5.53384">
        <ele>384</ele>
        <time>2021-04-03T13:03:00.589Z</time>
      </trkpt>
      <trkpt lat="45.56949" lon="5.53384">
        <ele>384</ele>
        <time>2021-04-03T13:03:01.588Z</time>
      </trkpt>
      <trkpt lat="45.56943" lon="5.53385">
        <ele>385</ele>
        <time>2021-04-03T13:03:02.588Z</time>
      </trkpt>
      <trkpt lat="45.56938" lon="5.53385">
        <ele>385</ele>
        <time>2021-04-03T13:03:03.588Z</time>
      </trkpt>
      <trkpt lat="45.56934" lon="5.53385">
        <ele>385</ele>
        <time>2021-04-03T13:03:04.589Z</time>
      </trkpt>
      <trkpt lat="45.5693" lon="5.53385">
        <ele>385</ele>
        <time>2021-04-03T13:03:05.589Z</time>
      </trkpt>
      <trkpt lat="45.56926" lon="5.53385">
        <ele>386</ele>
        <time>2021-04-03T13:03:06.589Z</time>
      </trkpt>
      <trkpt lat="45.56922" lon="5.53385">
        <ele>386</ele>
        <time>2021-04-03T13:03:07.589Z</time>
      </trkpt>
      <trkpt lat="45.56918" lon="5.53385">
        <ele>385</ele>
        <time>2021-04-03T13:03:08.588Z</time>
      </trkpt>
      <trkpt lat="45.56914" lon="5.53385">
        <ele>385</ele>
        <time>2021-04-03T13:03:09.589Z</time>
      </trkpt>
      <trkpt lat="45.56909" lon="5.53385">
        <ele>385</ele>
        <time>2021-04-03T13:03:10.588Z</time>
      </trkpt>
      <trkpt lat="45.56904" lon="5.53385">
        <ele>385</ele>
        <time>2021-04-03T13:03:11.589Z</time>
      </trkpt>
      <trkpt lat="45.569" lon="5.53385">
        <ele>385</ele>
        <time>2021-04-03T13:03:12.588Z</time>
      </trkpt>
      <trkpt lat="45.56895" lon="5.53385">
        <ele>385</ele>
        <time>2021-04-03T13:03:13.589Z</time>
      </trkpt>
      <trkpt lat="45.56889" lon="5.53385">
        <ele>385</ele>
        <time>2021-04-03T13:03:14.589Z</time>
      </trkpt>
      <trkpt lat="45.56884" lon="5.53386">
        <ele>385</ele>
        <time>2021-04-03T13:03:15.589Z</time>
      </trkpt>
      <trkpt lat="45.56878" lon="5.53386">
        <ele>385</ele>
        <time>2021-04-03T13:03:16.589Z</time>
      </trkpt>
      <trkpt lat="45.56872" lon="5.53386">
        <ele>385</ele>
        <time>2021-04-03T13:03:17.588Z</time>
      </trkpt>
      <trkpt lat="45.56865" lon="5.53386">
        <ele>384</ele>
        <time>2021-04-03T13:03:18.589Z</time>
      </trkpt>
      <trkpt lat="45.56859" lon="5.53387">
        <ele>384</ele>
        <time>2021-04-03T13:03:19.589Z</time>
      </trkpt>
      <trkpt lat="45.56852" lon="5.53387">
        <ele>384</ele>
        <time>2021-04-03T13:03:20.589Z</time>
      </trkpt>
      <trkpt lat="45.56845" lon="5.53388">
        <ele>383</ele>
        <time>2021-04-03T13:03:21.589Z</time>
      </trkpt>
      <trkpt lat="45.56837" lon="5.53389">
        <ele>383</ele>
        <time>2021-04-03T13:03:22.589Z</time>
      </trkpt>
      <trkpt lat="45.5683" lon="5.53391">
        <ele>383</ele>
        <time>2021-04-03T13:03:23.589Z</time>
      </trkpt>
      <trkpt lat="45.56822" lon="5.53393">
        <ele>383</ele>
        <time>2021-04-03T13:03:24.589Z</time>
      </trkpt>
      <trkpt lat="45.56814" lon="5.53396">
        <ele>382</ele>
        <time>2021-04-03T13:03:25.589Z</time>
      </trkpt>
      <trkpt lat="45.56805" lon="5.53399">
        <ele>382</ele>
        <time>2021-04-03T13:03:26.589Z</time>
      </trkpt>
      <trkpt lat="45.56797" lon="5.53404">
        <ele>381</ele>
        <time>2021-04-03T13:03:27.589Z</time>
      </trkpt>
      <trkpt lat="45.56788" lon="5.53409">
        <ele>381</ele>
        <time>2021-04-03T13:03:28.589Z</time>
      </trkpt>
      <trkpt lat="45.56779" lon="5.53414">
        <ele>380</ele>
        <time>2021-04-03T13:03:29.589Z</time>
      </trkpt>
      <trkpt lat="45.5677" lon="5.5342">
        <ele>380</ele>
        <time>2021-04-03T13:03:30.589Z</time>
      </trkpt>
      <trkpt lat="45.5676" lon="5.53426">
        <ele>379</ele>
        <time>2021-04-03T13:03:31.589Z</time>
      </trkpt>
      <trkpt lat="45.56751" lon="5.53433">
        <ele>379</ele>
        <time>2021-04-03T13:03:32.588Z</time>
      </trkpt>
      <trkpt lat="45.56741" lon="5.53439">
        <ele>378</ele>
        <time>2021-04-03T13:03:33.588Z</time>
      </trkpt>
      <trkpt lat="45.56731" lon="5.53446">
        <ele>378</ele>
        <time>2021-04-03T13:03:34.589Z</time>
      </trkpt>
      <trkpt lat="45.5672" lon="5.53453">
        <ele>378</ele>
        <time>2021-04-03T13:03:35.588Z</time>
      </trkpt>
      <trkpt lat="45.5671" lon="5.5346">
        <ele>377</ele>
        <time>2021-04-03T13:03:36.589Z</time>
      </trkpt>
      <trkpt lat="45.56699" lon="5.53467">
        <ele>377</ele>
        <time>2021-04-03T13:03:37.589Z</time>
      </trkpt>
      <trkpt lat="45.56688" lon="5.53475">
        <ele>376</ele>
        <time>2021-04-03T13:03:38.589Z</time>
      </trkpt>
      <trkpt lat="45.56677" lon="5.53482">
        <ele>376</ele>
        <time>2021-04-03T13:03:39.588Z</time>
      </trkpt>
      <trkpt lat="45.56666" lon="5.53489">
        <ele>376</ele>
        <time>2021-04-03T13:03:40.589Z</time>
      </trkpt>
      <trkpt lat="45.56655" lon="5.53496">
        <ele>376</ele>
        <time>2021-04-03T13:03:41.589Z</time>
      </trkpt>
      <trkpt lat="45.56641" lon="5.53505">
        <ele>375</ele>
        <time>2021-04-03T13:03:42.588Z</time>
      </trkpt>
      <trkpt lat="45.56629" lon="5.53511">
        <ele>375</ele>
        <time>2021-04-03T13:03:43.589Z</time>
      </trkpt>
      <trkpt lat="45.5662" lon="5.53517">
        <ele>375</ele>
        <time>2021-04-03T13:03:44.589Z</time>
      </trkpt>
      <trkpt lat="45.56609" lon="5.53524">
        <ele>374</ele>
        <time>2021-04-03T13:03:45.588Z</time>
      </trkpt>
      <trkpt lat="45.566" lon="5.53532">
        <ele>374</ele>
        <time>2021-04-03T13:03:46.589Z</time>
      </trkpt>
      <trkpt lat="45.56589" lon="5.5354">
        <ele>373</ele>
        <time>2021-04-03T13:03:47.589Z</time>
      </trkpt>
      <trkpt lat="45.56578" lon="5.53549">
        <ele>372</ele>
        <time>2021-04-03T13:03:48.589Z</time>
      </trkpt>
      <trkpt lat="45.56567" lon="5.53557">
        <ele>372</ele>
        <time>2021-04-03T13:03:49.589Z</time>
      </trkpt>
      <trkpt lat="45.56555" lon="5.53565">
        <ele>371</ele>
        <time>2021-04-03T13:03:50.589Z</time>
      </trkpt>
      <trkpt lat="45.56545" lon="5.53573">
        <ele>370</ele>
        <time>2021-04-03T13:03:51.589Z</time>
      </trkpt>
      <trkpt lat="45.56534" lon="5.53581">
        <ele>369</ele>
        <time>2021-04-03T13:03:52.589Z</time>
      </trkpt>
      <trkpt lat="45.56523" lon="5.5359">
        <ele>369</ele>
        <time>2021-04-03T13:03:53.588Z</time>
      </trkpt>
      <trkpt lat="45.56514" lon="5.53599">
        <ele>368</ele>
        <time>2021-04-03T13:03:54.589Z</time>
      </trkpt>
      <trkpt lat="45.56505" lon="5.53609">
        <ele>368</ele>
        <time>2021-04-03T13:03:55.589Z</time>
      </trkpt>
      <trkpt lat="45.56497" lon="5.5362">
        <ele>367</ele>
        <time>2021-04-03T13:03:56.588Z</time>
      </trkpt>
      <trkpt lat="45.56489" lon="5.53632">
        <ele>367</ele>
        <time>2021-04-03T13:03:57.588Z</time>
      </trkpt>
      <trkpt lat="45.56482" lon="5.53644">
        <ele>367</ele>
        <time>2021-04-03T13:03:58.589Z</time>
      </trkpt>
      <trkpt lat="45.56475" lon="5.53656">
        <ele>367</ele>
        <time>2021-04-03T13:03:59.588Z</time>
      </trkpt>
      <trkpt lat="45.56469" lon="5.53669">
        <ele>367</ele>
        <time>2021-04-03T13:04:00.589Z</time>
      </trkpt>
      <trkpt lat="45.56463" lon="5.53681">
        <ele>366</ele>
        <time>2021-04-03T13:04:01.589Z</time>
      </trkpt>
      <trkpt lat="45.56456" lon="5.53692">
        <ele>366</ele>
        <time>2021-04-03T13:04:02.588Z</time>
      </trkpt>
      <trkpt lat="45.56451" lon="5.53703">
        <ele>366</ele>
        <time>2021-04-03T13:04:03.589Z</time>
      </trkpt>
      <trkpt lat="45.56445" lon="5.53714">
        <ele>366</ele>
        <time>2021-04-03T13:04:04.588Z</time>
      </trkpt>
      <trkpt lat="45.56439" lon="5.53725">
        <ele>366</ele>
        <time>2021-04-03T13:04:05.588Z</time>
      </trkpt>
      <trkpt lat="45.56433" lon="5.53736">
        <ele>366</ele>
        <time>2021-04-03T13:04:06.589Z</time>
      </trkpt>
      <trkpt lat="45.56427" lon="5.53747">
        <ele>366</ele>
        <time>2021-04-03T13:04:07.589Z</time>
      </trkpt>
      <trkpt lat="45.56421" lon="5.53756">
        <ele>366</ele>
        <time>2021-04-03T13:04:08.589Z</time>
      </trkpt>
      <trkpt lat="45.56416" lon="5.53766">
        <ele>365</ele>
        <time>2021-04-03T13:04:09.588Z</time>
      </trkpt>
      <trkpt lat="45.56411" lon="5.53775">
        <ele>365</ele>
        <time>2021-04-03T13:04:10.589Z</time>
      </trkpt>
      <trkpt lat="45.56406" lon="5.53784">
        <ele>364</ele>
        <time>2021-04-03T13:04:11.588Z</time>
      </trkpt>
      <trkpt lat="45.56401" lon="5.53792">
        <ele>364</ele>
        <time>2021-04-03T13:04:12.589Z</time>
      </trkpt>
      <trkpt lat="45.56396" lon="5.538">
        <ele>363</ele>
        <time>2021-04-03T13:04:13.589Z</time>
      </trkpt>
      <trkpt lat="45.56392" lon="5.53809">
        <ele>363</ele>
        <time>2021-04-03T13:04:14.589Z</time>
      </trkpt>
      <trkpt lat="45.56387" lon="5.53817">
        <ele>362</ele>
        <time>2021-04-03T13:04:15.589Z</time>
      </trkpt>
      <trkpt lat="45.56383" lon="5.53825">
        <ele>362</ele>
        <time>2021-04-03T13:04:16.588Z</time>
      </trkpt>
      <trkpt lat="45.56378" lon="5.53834">
        <ele>362</ele>
        <time>2021-04-03T13:04:17.589Z</time>
      </trkpt>
      <trkpt lat="45.56373" lon="5.53842">
        <ele>362</ele>
        <time>2021-04-03T13:04:18.588Z</time>
      </trkpt>
      <trkpt lat="45.56369" lon="5.53848">
        <ele>362</ele>
        <time>2021-04-03T13:04:19.589Z</time>
      </trkpt>
      <trkpt lat="45.56364" lon="5.53856">
        <ele>362</ele>
        <time>2021-04-03T13:04:20.588Z</time>
      </trkpt>
      <trkpt lat="45.5636" lon="5.53864">
        <ele>362</ele>
        <time>2021-04-03T13:04:21.589Z</time>
      </trkpt>
      <trkpt lat="45.56356" lon="5.5387">
        <ele>361</ele>
        <time>2021-04-03T13:04:22.588Z</time>
      </trkpt>
      <trkpt lat="45.56352" lon="5.53877">
        <ele>361</ele>
        <time>2021-04-03T13:04:23.588Z</time>
      </trkpt>
      <trkpt lat="45.56347" lon="5.53884">
        <ele>361</ele>
        <time>2021-04-03T13:04:24.589Z</time>
      </trkpt>
      <trkpt lat="45.56343" lon="5.5389">
        <ele>361</ele>
        <time>2021-04-03T13:04:25.589Z</time>
      </trkpt>
      <trkpt lat="45.5634" lon="5.53897">
        <ele>361</ele>
        <time>2021-04-03T13:04:26.589Z</time>
      </trkpt>
      <trkpt lat="45.56336" lon="5.53903">
        <ele>361</ele>
        <time>2021-04-03T13:04:27.589Z</time>
      </trkpt>
      <trkpt lat="45.56332" lon="5.5391">
        <ele>361</ele>
        <time>2021-04-03T13:04:28.589Z</time>
      </trkpt>
      <trkpt lat="45.56328" lon="5.53917">
        <ele>361</ele>
        <time>2021-04-03T13:04:29.588Z</time>
      </trkpt>
      <trkpt lat="45.56324" lon="5.53924">
        <ele>361</ele>
        <time>2021-04-03T13:04:30.589Z</time>
      </trkpt>
      <trkpt lat="45.56321" lon="5.53931">
        <ele>362</ele>
        <time>2021-04-03T13:04:31.589Z</time>
      </trkpt>
      <trkpt lat="45.56317" lon="5.53938">
        <ele>362</ele>
        <time>2021-04-03T13:04:32.589Z</time>
      </trkpt>
      <trkpt lat="45.56313" lon="5.53946">
        <ele>362</ele>
        <time>2021-04-03T13:04:33.589Z</time>
      </trkpt>
      <trkpt lat="45.56309" lon="5.53952">
        <ele>362</ele>
        <time>2021-04-03T13:04:34.589Z</time>
      </trkpt>
      <trkpt lat="45.56305" lon="5.53959">
        <ele>363</ele>
        <time>2021-04-03T13:04:35.588Z</time>
      </trkpt>
      <trkpt lat="45.563" lon="5.53965">
        <ele>363</ele>
        <time>2021-04-03T13:04:36.589Z</time>
      </trkpt>
      <trkpt lat="45.56297" lon="5.53972">
        <ele>363</ele>
        <time>2021-04-03T13:04:37.589Z</time>
      </trkpt>
      <trkpt lat="45.56293" lon="5.53979">
        <ele>364</ele>
        <time>2021-04-03T13:04:38.589Z</time>
      </trkpt>
      <trkpt lat="45.5629" lon="5.53986">
        <ele>364</ele>
        <time>2021-04-03T13:04:39.588Z</time>
      </trkpt>
      <trkpt lat="45.56286" lon="5.53993">
        <ele>365</ele>
        <time>2021-04-03T13:04:40.589Z</time>
      </trkpt>
      <trkpt lat="45.56283" lon="5.54">
        <ele>365</ele>
        <time>2021-04-03T13:04:41.589Z</time>
      </trkpt>
      <trkpt lat="45.56279" lon="5.54006">
        <ele>365</ele>
        <time>2021-04-03T13:04:42.589Z</time>
      </trkpt>
      <trkpt lat="45.56275" lon="5.54013">
        <ele>366</ele>
        <time>2021-04-03T13:04:43.588Z</time>
      </trkpt>
      <trkpt lat="45.56271" lon="5.5402">
        <ele>366</ele>
        <time>2021-04-03T13:04:44.589Z</time>
      </trkpt>
      <trkpt lat="45.56267" lon="5.54026">
        <ele>366</ele>
        <time>2021-04-03T13:04:45.589Z</time>
      </trkpt>
      <trkpt lat="45.56263" lon="5.54033">
        <ele>366</ele>
        <time>2021-04-03T13:04:46.589Z</time>
      </trkpt>
      <trkpt lat="45.56259" lon="5.54039">
        <ele>366</ele>
        <time>2021-04-03T13:04:47.588Z</time>
      </trkpt>
      <trkpt lat="45.56255" lon="5.54045">
        <ele>367</ele>
        <time>2021-04-03T13:04:48.589Z</time>
      </trkpt>
      <trkpt lat="45.56252" lon="5.54051">
        <ele>366</ele>
        <time>2021-04-03T13:04:49.588Z</time>
      </trkpt>
      <trkpt lat="45.56248" lon="5.54057">
        <ele>366</ele>
        <time>2021-04-03T13:04:50.589Z</time>
      </trkpt>
      <trkpt lat="45.56244" lon="5.54063">
        <ele>367</ele>
        <time>2021-04-03T13:04:51.589Z</time>
      </trkpt>
      <trkpt lat="45.5624" lon="5.54068">
        <ele>367</ele>
        <time>2021-04-03T13:04:52.588Z</time>
      </trkpt>
      <trkpt lat="45.56235" lon="5.54073">
        <ele>367</ele>
        <time>2021-04-03T13:04:53.589Z</time>
      </trkpt>
      <trkpt lat="45.5623" lon="5.54077">
        <ele>367</ele>
        <time>2021-04-03T13:04:54.589Z</time>
      </trkpt>
      <trkpt lat="45.56223" lon="5.54082">
        <ele>368</ele>
        <time>2021-04-03T13:04:55.589Z</time>
      </trkpt>
      <trkpt lat="45.56217" lon="5.54086">
        <ele>368</ele>
        <time>2021-04-03T13:04:56.588Z</time>
      </trkpt>
      <trkpt lat="45.5621" lon="5.54089">
        <ele>368</ele>
        <time>2021-04-03T13:04:57.589Z</time>
      </trkpt>
      <trkpt lat="45.56203" lon="5.5409">
        <ele>368</ele>
        <time>2021-04-03T13:04:58.589Z</time>
      </trkpt>
      <trkpt lat="45.56195" lon="5.54087">
        <ele>368</ele>
        <time>2021-04-03T13:04:59.589Z</time>
      </trkpt>
      <trkpt lat="45.56187" lon="5.54085">
        <ele>367</ele>
        <time>2021-04-03T13:05:00.589Z</time>
      </trkpt>
      <trkpt lat="45.56179" lon="5.54082">
        <ele>367</ele>
        <time>2021-04-03T13:05:01.589Z</time>
      </trkpt>
      <trkpt lat="45.56172" lon="5.54078">
        <ele>366</ele>
        <time>2021-04-03T13:05:02.589Z</time>
      </trkpt>
      <trkpt lat="45.56163" lon="5.54074">
        <ele>366</ele>
        <time>2021-04-03T13:05:03.588Z</time>
      </trkpt>
      <trkpt lat="45.56156" lon="5.54069">
        <ele>366</ele>
        <time>2021-04-03T13:05:04.589Z</time>
      </trkpt>
      <trkpt lat="45.56149" lon="5.54064">
        <ele>366</ele>
        <time>2021-04-03T13:05:05.589Z</time>
      </trkpt>
      <trkpt lat="45.56142" lon="5.54058">
        <ele>365</ele>
        <time>2021-04-03T13:05:06.589Z</time>
      </trkpt>
      <trkpt lat="45.56134" lon="5.54052">
        <ele>365</ele>
        <time>2021-04-03T13:05:07.589Z</time>
      </trkpt>
      <trkpt lat="45.56127" lon="5.54047">
        <ele>364</ele>
        <time>2021-04-03T13:05:08.589Z</time>
      </trkpt>
      <trkpt lat="45.56119" lon="5.54041">
        <ele>364</ele>
        <time>2021-04-03T13:05:09.589Z</time>
      </trkpt>
      <trkpt lat="45.56113" lon="5.54037">
        <ele>364</ele>
        <time>2021-04-03T13:05:10.588Z</time>
      </trkpt>
      <trkpt lat="45.56106" lon="5.54032">
        <ele>363</ele>
        <time>2021-04-03T13:05:11.588Z</time>
      </trkpt>
      <trkpt lat="45.561" lon="5.54029">
        <ele>363</ele>
        <time>2021-04-03T13:05:12.588Z</time>
      </trkpt>
      <trkpt lat="45.56093" lon="5.54026">
        <ele>363</ele>
        <time>2021-04-03T13:05:13.588Z</time>
      </trkpt>
      <trkpt lat="45.56086" lon="5.54024">
        <ele>363</ele>
        <time>2021-04-03T13:05:14.589Z</time>
      </trkpt>
      <trkpt lat="45.56079" lon="5.54022">
        <ele>363</ele>
        <time>2021-04-03T13:05:15.588Z</time>
      </trkpt>
      <trkpt lat="45.56072" lon="5.54022">
        <ele>363</ele>
        <time>2021-04-03T13:05:16.588Z</time>
      </trkpt>
      <trkpt lat="45.56065" lon="5.54022">
        <ele>363</ele>
        <time>2021-04-03T13:05:17.589Z</time>
      </trkpt>
      <trkpt lat="45.56058" lon="5.54025">
        <ele>363</ele>
        <time>2021-04-03T13:05:18.589Z</time>
      </trkpt>
      <trkpt lat="45.56051" lon="5.54027">
        <ele>363</ele>
        <time>2021-04-03T13:05:19.589Z</time>
      </trkpt>
      <trkpt lat="45.56045" lon="5.54029">
        <ele>363</ele>
        <time>2021-04-03T13:05:20.589Z</time>
      </trkpt>
      <trkpt lat="45.56039" lon="5.5403">
        <ele>363</ele>
        <time>2021-04-03T13:05:21.588Z</time>
      </trkpt>
      <trkpt lat="45.56033" lon="5.54032">
        <ele>363</ele>
        <time>2021-04-03T13:05:22.589Z</time>
      </trkpt>
      <trkpt lat="45.56026" lon="5.54035">
        <ele>363</ele>
        <time>2021-04-03T13:05:23.589Z</time>
      </trkpt>
      <trkpt lat="45.56019" lon="5.54037">
        <ele>363</ele>
        <time>2021-04-03T13:05:24.589Z</time>
      </trkpt>
      <trkpt lat="45.56012" lon="5.54039">
        <ele>363</ele>
        <time>2021-04-03T13:05:25.589Z</time>
      </trkpt>
      <trkpt lat="45.56004" lon="5.5404">
        <ele>363</ele>
        <time>2021-04-03T13:05:26.589Z</time>
      </trkpt>
      <trkpt lat="45.55997" lon="5.54043">
        <ele>363</ele>
        <time>2021-04-03T13:05:27.589Z</time>
      </trkpt>
      <trkpt lat="45.55989" lon="5.54045">
        <ele>362</ele>
        <time>2021-04-03T13:05:28.588Z</time>
      </trkpt>
      <trkpt lat="45.55982" lon="5.54047">
        <ele>362</ele>
        <time>2021-04-03T13:05:29.589Z</time>
      </trkpt>
      <trkpt lat="45.55975" lon="5.54049">
        <ele>362</ele>
        <time>2021-04-03T13:05:30.588Z</time>
      </trkpt>
      <trkpt lat="45.55969" lon="5.54052">
        <ele>362</ele>
        <time>2021-04-03T13:05:31.589Z</time>
      </trkpt>
      <trkpt lat="45.55961" lon="5.54054">
        <ele>362</ele>
        <time>2021-04-03T13:05:32.589Z</time>
      </trkpt>
      <trkpt lat="45.55955" lon="5.54057">
        <ele>362</ele>
        <time>2021-04-03T13:05:33.589Z</time>
      </trkpt>
      <trkpt lat="45.55948" lon="5.54059">
        <ele>361</ele>
        <time>2021-04-03T13:05:34.588Z</time>
      </trkpt>
      <trkpt lat="45.55941" lon="5.54061">
        <ele>361</ele>
        <time>2021-04-03T13:05:35.589Z</time>
      </trkpt>
      <trkpt lat="45.55934" lon="5.54063">
        <ele>362</ele>
        <time>2021-04-03T13:05:36.589Z</time>
      </trkpt>
      <trkpt lat="45.55928" lon="5.54065">
        <ele>362</ele>
        <time>2021-04-03T13:05:37.588Z</time>
      </trkpt>
      <trkpt lat="45.55921" lon="5.54067">
        <ele>362</ele>
        <time>2021-04-03T13:05:38.589Z</time>
      </trkpt>
      <trkpt lat="45.55914" lon="5.54069">
        <ele>363</ele>
        <time>2021-04-03T13:05:39.588Z</time>
      </trkpt>
      <trkpt lat="45.55907" lon="5.54071">
        <ele>363</ele>
        <time>2021-04-03T13:05:40.589Z</time>
      </trkpt>
      <trkpt lat="45.55901" lon="5.54071">
        <ele>364</ele>
        <time>2021-04-03T13:05:41.589Z</time>
      </trkpt>
      <trkpt lat="45.55894" lon="5.54072">
        <ele>364</ele>
        <time>2021-04-03T13:05:42.589Z</time>
      </trkpt>
      <trkpt lat="45.55888" lon="5.54071">
        <ele>364</ele>
        <time>2021-04-03T13:05:43.589Z</time>
      </trkpt>
      <trkpt lat="45.55882" lon="5.54069">
        <ele>364</ele>
        <time>2021-04-03T13:05:44.589Z</time>
      </trkpt>
      <trkpt lat="45.55876" lon="5.54067">
        <ele>364</ele>
        <time>2021-04-03T13:05:45.588Z</time>
      </trkpt>
      <trkpt lat="45.5587" lon="5.54063">
        <ele>364</ele>
        <time>2021-04-03T13:05:46.589Z</time>
      </trkpt>
      <trkpt lat="45.55864" lon="5.54059">
        <ele>364</ele>
        <time>2021-04-03T13:05:47.589Z</time>
      </trkpt>
      <trkpt lat="45.55858" lon="5.54055">
        <ele>364</ele>
        <time>2021-04-03T13:05:48.589Z</time>
      </trkpt>
      <trkpt lat="45.55852" lon="5.54051">
        <ele>365</ele>
        <time>2021-04-03T13:05:49.589Z</time>
      </trkpt>
      <trkpt lat="45.55847" lon="5.54046">
        <ele>365</ele>
        <time>2021-04-03T13:05:50.589Z</time>
      </trkpt>
      <trkpt lat="45.55843" lon="5.5404">
        <ele>365</ele>
        <time>2021-04-03T13:05:51.588Z</time>
      </trkpt>
      <trkpt lat="45.55838" lon="5.54035">
        <ele>365</ele>
        <time>2021-04-03T13:05:52.589Z</time>
      </trkpt>
      <trkpt lat="45.55833" lon="5.5403">
        <ele>365</ele>
        <time>2021-04-03T13:05:53.588Z</time>
      </trkpt>
      <trkpt lat="45.55828" lon="5.54025">
        <ele>365</ele>
        <time>2021-04-03T13:05:54.589Z</time>
      </trkpt>
      <trkpt lat="45.55823" lon="5.5402">
        <ele>365</ele>
        <time>2021-04-03T13:05:55.589Z</time>
      </trkpt>
      <trkpt lat="45.55819" lon="5.54015">
        <ele>365</ele>
        <time>2021-04-03T13:05:56.589Z</time>
      </trkpt>
      <trkpt lat="45.55814" lon="5.5401">
        <ele>365</ele>
        <time>2021-04-03T13:05:57.588Z</time>
      </trkpt>
      <trkpt lat="45.5581" lon="5.54005">
        <ele>365</ele>
        <time>2021-04-03T13:05:58.589Z</time>
      </trkpt>
      <trkpt lat="45.55805" lon="5.54001">
        <ele>365</ele>
        <time>2021-04-03T13:05:59.588Z</time>
      </trkpt>
      <trkpt lat="45.55801" lon="5.53996">
        <ele>364</ele>
        <time>2021-04-03T13:06:00.589Z</time>
      </trkpt>
      <trkpt lat="45.55797" lon="5.53992">
        <ele>364</ele>
        <time>2021-04-03T13:06:01.589Z</time>
      </trkpt>
      <trkpt lat="45.55792" lon="5.53987">
        <ele>364</ele>
        <time>2021-04-03T13:06:02.588Z</time>
      </trkpt>
      <trkpt lat="45.55788" lon="5.53981">
        <ele>364</ele>
        <time>2021-04-03T13:06:03.589Z</time>
      </trkpt>
      <trkpt lat="45.55783" lon="5.53975">
        <ele>364</ele>
        <time>2021-04-03T13:06:04.589Z</time>
      </trkpt>
      <trkpt lat="45.5578" lon="5.53967">
        <ele>365</ele>
        <time>2021-04-03T13:06:05.589Z</time>
      </trkpt>
      <trkpt lat="45.55777" lon="5.5396">
        <ele>365</ele>
        <time>2021-04-03T13:06:06.589Z</time>
      </trkpt>
      <trkpt lat="45.55775" lon="5.53952">
        <ele>365</ele>
        <time>2021-04-03T13:06:07.589Z</time>
      </trkpt>
      <trkpt lat="45.55772" lon="5.53944">
        <ele>365</ele>
        <time>2021-04-03T13:06:08.589Z</time>
      </trkpt>
      <trkpt lat="45.5577" lon="5.53936">
        <ele>366</ele>
        <time>2021-04-03T13:06:09.589Z</time>
      </trkpt>
      <trkpt lat="45.55769" lon="5.53929">
        <ele>366</ele>
        <time>2021-04-03T13:06:10.588Z</time>
      </trkpt>
      <trkpt lat="45.55767" lon="5.53921">
        <ele>366</ele>
        <time>2021-04-03T13:06:11.589Z</time>
      </trkpt>
      <trkpt lat="45.55765" lon="5.53914">
        <ele>367</ele>
        <time>2021-04-03T13:06:12.589Z</time>
      </trkpt>
      <trkpt lat="45.55763" lon="5.53907">
        <ele>367</ele>
        <time>2021-04-03T13:06:13.589Z</time>
      </trkpt>
      <trkpt lat="45.55762" lon="5.53901">
        <ele>367</ele>
        <time>2021-04-03T13:06:14.589Z</time>
      </trkpt>
      <trkpt lat="45.55761" lon="5.53895">
        <ele>367</ele>
        <time>2021-04-03T13:06:15.588Z</time>
      </trkpt>
      <trkpt lat="45.55759" lon="5.53889">
        <ele>368</ele>
        <time>2021-04-03T13:06:16.589Z</time>
      </trkpt>
      <trkpt lat="45.55758" lon="5.53883">
        <ele>368</ele>
        <time>2021-04-03T13:06:17.589Z</time>
      </trkpt>
      <trkpt lat="45.55756" lon="5.53877">
        <ele>368</ele>
        <time>2021-04-03T13:06:18.588Z</time>
      </trkpt>
      <trkpt lat="45.55756" lon="5.53871">
        <ele>367</ele>
        <time>2021-04-03T13:06:19.589Z</time>
      </trkpt>
      <trkpt lat="45.55754" lon="5.53864">
        <ele>367</ele>
        <time>2021-04-03T13:06:20.589Z</time>
      </trkpt>
      <trkpt lat="45.55753" lon="5.53858">
        <ele>367</ele>
        <time>2021-04-03T13:06:21.589Z</time>
      </trkpt>
      <trkpt lat="45.55752" lon="5.53852">
        <ele>366</ele>
        <time>2021-04-03T13:06:22.588Z</time>
      </trkpt>
      <trkpt lat="45.55751" lon="5.53847">
        <ele>366</ele>
        <time>2021-04-03T13:06:23.589Z</time>
      </trkpt>
      <trkpt lat="45.55749" lon="5.5384">
        <ele>366</ele>
        <time>2021-04-03T13:06:24.588Z</time>
      </trkpt>
      <trkpt lat="45.55748" lon="5.53834">
        <ele>366</ele>
        <time>2021-04-03T13:06:25.588Z</time>
      </trkpt>
      <trkpt lat="45.55747" lon="5.53828">
        <ele>366</ele>
        <time>2021-04-03T13:06:26.589Z</time>
      </trkpt>
      <trkpt lat="45.55745" lon="5.53822">
        <ele>366</ele>
        <time>2021-04-03T13:06:27.589Z</time>
      </trkpt>
      <trkpt lat="45.55743" lon="5.53814">
        <ele>365</ele>
        <time>2021-04-03T13:06:28.588Z</time>
      </trkpt>
      <trkpt lat="45.55742" lon="5.53809">
        <ele>365</ele>
        <time>2021-04-03T13:06:29.589Z</time>
      </trkpt>
      <trkpt lat="45.5574" lon="5.53804">
        <ele>365</ele>
        <time>2021-04-03T13:06:30.589Z</time>
      </trkpt>
      <trkpt lat="45.55739" lon="5.53796">
        <ele>365</ele>
        <time>2021-04-03T13:06:31.589Z</time>
      </trkpt>
      <trkpt lat="45.55738" lon="5.53792">
        <ele>365</ele>
        <time>2021-04-03T13:06:32.589Z</time>
      </trkpt>
      <trkpt lat="45.55736" lon="5.53786">
        <ele>365</ele>
        <time>2021-04-03T13:06:33.589Z</time>
      </trkpt>
      <trkpt lat="45.55735" lon="5.53781">
        <ele>365</ele>
        <time>2021-04-03T13:06:34.589Z</time>
      </trkpt>
      <trkpt lat="45.55733" lon="5.53775">
        <ele>365</ele>
        <time>2021-04-03T13:06:35.589Z</time>
      </trkpt>
      <trkpt lat="45.55731" lon="5.5377">
        <ele>365</ele>
        <time>2021-04-03T13:06:36.589Z</time>
      </trkpt>
      <trkpt lat="45.55729" lon="5.53764">
        <ele>365</ele>
        <time>2021-04-03T13:06:37.589Z</time>
      </trkpt>
      <trkpt lat="45.55728" lon="5.53759">
        <ele>365</ele>
        <time>2021-04-03T13:06:38.589Z</time>
      </trkpt>
      <trkpt lat="45.55726" lon="5.53754">
        <ele>365</ele>
        <time>2021-04-03T13:06:39.589Z</time>
      </trkpt>
      <trkpt lat="45.55725" lon="5.53749">
        <ele>365</ele>
        <time>2021-04-03T13:06:40.589Z</time>
      </trkpt>
      <trkpt lat="45.55723" lon="5.53744">
        <ele>366</ele>
        <time>2021-04-03T13:06:41.589Z</time>
      </trkpt>
      <trkpt lat="45.55721" lon="5.53738">
        <ele>366</ele>
        <time>2021-04-03T13:06:42.588Z</time>
      </trkpt>
      <trkpt lat="45.55719" lon="5.53733">
        <ele>367</ele>
        <time>2021-04-03T13:06:43.588Z</time>
      </trkpt>
      <trkpt lat="45.55718" lon="5.53728">
        <ele>367</ele>
        <time>2021-04-03T13:06:44.589Z</time>
      </trkpt>
      <trkpt lat="45.55716" lon="5.53723">
        <ele>367</ele>
        <time>2021-04-03T13:06:45.588Z</time>
      </trkpt>
      <trkpt lat="45.55714" lon="5.53718">
        <ele>367</ele>
        <time>2021-04-03T13:06:46.589Z</time>
      </trkpt>
      <trkpt lat="45.55713" lon="5.53713">
        <ele>367</ele>
        <time>2021-04-03T13:06:47.588Z</time>
      </trkpt>
      <trkpt lat="45.55711" lon="5.53709">
        <ele>367</ele>
        <time>2021-04-03T13:06:48.589Z</time>
      </trkpt>
      <trkpt lat="45.55709" lon="5.53704">
        <ele>368</ele>
        <time>2021-04-03T13:06:49.588Z</time>
      </trkpt>
      <trkpt lat="45.55707" lon="5.53699">
        <ele>368</ele>
        <time>2021-04-03T13:06:50.588Z</time>
      </trkpt>
      <trkpt lat="45.55705" lon="5.53694">
        <ele>369</ele>
        <time>2021-04-03T13:06:51.589Z</time>
      </trkpt>
      <trkpt lat="45.55704" lon="5.53689">
        <ele>369</ele>
        <time>2021-04-03T13:06:52.589Z</time>
      </trkpt>
      <trkpt lat="45.55703" lon="5.53684">
        <ele>369</ele>
        <time>2021-04-03T13:06:53.589Z</time>
      </trkpt>
      <trkpt lat="45.55701" lon="5.53679">
        <ele>369</ele>
        <time>2021-04-03T13:06:54.588Z</time>
      </trkpt>
      <trkpt lat="45.557" lon="5.53674">
        <ele>369</ele>
        <time>2021-04-03T13:06:55.589Z</time>
      </trkpt>
      <trkpt lat="45.55697" lon="5.53669">
        <ele>369</ele>
        <time>2021-04-03T13:06:56.589Z</time>
      </trkpt>
      <trkpt lat="45.55695" lon="5.53663">
        <ele>369</ele>
        <time>2021-04-03T13:06:57.589Z</time>
      </trkpt>
      <trkpt lat="45.55694" lon="5.53657">
        <ele>370</ele>
        <time>2021-04-03T13:06:58.589Z</time>
      </trkpt>
      <trkpt lat="45.55692" lon="5.53652">
        <ele>370</ele>
        <time>2021-04-03T13:06:59.589Z</time>
      </trkpt>
      <trkpt lat="45.5569" lon="5.53647">
        <ele>370</ele>
        <time>2021-04-03T13:07:00.588Z</time>
      </trkpt>
      <trkpt lat="45.55688" lon="5.53642">
        <ele>370</ele>
        <time>2021-04-03T13:07:01.588Z</time>
      </trkpt>
      <trkpt lat="45.55687" lon="5.53636">
        <ele>370</ele>
        <time>2021-04-03T13:07:02.588Z</time>
      </trkpt>
      <trkpt lat="45.55685" lon="5.53631">
        <ele>370</ele>
        <time>2021-04-03T13:07:03.588Z</time>
      </trkpt>
      <trkpt lat="45.55683" lon="5.53625">
        <ele>369</ele>
        <time>2021-04-03T13:07:04.589Z</time>
      </trkpt>
      <trkpt lat="45.55682" lon="5.5362">
        <ele>368</ele>
        <time>2021-04-03T13:07:05.589Z</time>
      </trkpt>
      <trkpt lat="45.55681" lon="5.53615">
        <ele>367</ele>
        <time>2021-04-03T13:07:06.588Z</time>
      </trkpt>
      <trkpt lat="45.55679" lon="5.53609">
        <ele>368</ele>
        <time>2021-04-03T13:07:07.589Z</time>
      </trkpt>
      <trkpt lat="45.55677" lon="5.53604">
        <ele>368</ele>
        <time>2021-04-03T13:07:08.589Z</time>
      </trkpt>
      <trkpt lat="45.55676" lon="5.53598">
        <ele>368</ele>
        <time>2021-04-03T13:07:09.589Z</time>
      </trkpt>
      <trkpt lat="45.55674" lon="5.53593">
        <ele>368</ele>
        <time>2021-04-03T13:07:10.588Z</time>
      </trkpt>
      <trkpt lat="45.55672" lon="5.53587">
        <ele>368</ele>
        <time>2021-04-03T13:07:11.589Z</time>
      </trkpt>
      <trkpt lat="45.55671" lon="5.53581">
        <ele>368</ele>
        <time>2021-04-03T13:07:12.588Z</time>
      </trkpt>
      <trkpt lat="45.55669" lon="5.53575">
        <ele>368</ele>
        <time>2021-04-03T13:07:13.589Z</time>
      </trkpt>
      <trkpt lat="45.55667" lon="5.53569">
        <ele>368</ele>
        <time>2021-04-03T13:07:14.589Z</time>
      </trkpt>
      <trkpt lat="45.55665" lon="5.53563">
        <ele>369</ele>
        <time>2021-04-03T13:07:15.589Z</time>
      </trkpt>
      <trkpt lat="45.55663" lon="5.53557">
        <ele>369</ele>
        <time>2021-04-03T13:07:16.588Z</time>
      </trkpt>
      <trkpt lat="45.55661" lon="5.53551">
        <ele>369</ele>
        <time>2021-04-03T13:07:17.589Z</time>
      </trkpt>
      <trkpt lat="45.55659" lon="5.53545">
        <ele>370</ele>
        <time>2021-04-03T13:07:18.588Z</time>
      </trkpt>
      <trkpt lat="45.55656" lon="5.53539">
        <ele>370</ele>
        <time>2021-04-03T13:07:19.588Z</time>
      </trkpt>
      <trkpt lat="45.55653" lon="5.53534">
        <ele>370</ele>
        <time>2021-04-03T13:07:20.589Z</time>
      </trkpt>
      <trkpt lat="45.55649" lon="5.53529">
        <ele>370</ele>
        <time>2021-04-03T13:07:21.588Z</time>
      </trkpt>
      <trkpt lat="45.55645" lon="5.53525">
        <ele>370</ele>
        <time>2021-04-03T13:07:22.588Z</time>
      </trkpt>
      <trkpt lat="45.55642" lon="5.53521">
        <ele>370</ele>
        <time>2021-04-03T13:07:23.589Z</time>
      </trkpt>
      <trkpt lat="45.55637" lon="5.53518">
        <ele>370</ele>
        <time>2021-04-03T13:07:24.589Z</time>
      </trkpt>
      <trkpt lat="45.55633" lon="5.53515">
        <ele>370</ele>
        <time>2021-04-03T13:07:25.588Z</time>
      </trkpt>
      <trkpt lat="45.55629" lon="5.53513">
        <ele>370</ele>
        <time>2021-04-03T13:07:26.589Z</time>
      </trkpt>
      <trkpt lat="45.55624" lon="5.53511">
        <ele>370</ele>
        <time>2021-04-03T13:07:27.589Z</time>
      </trkpt>
      <trkpt lat="45.5562" lon="5.53509">
        <ele>370</ele>
        <time>2021-04-03T13:07:28.589Z</time>
      </trkpt>
      <trkpt lat="45.55615" lon="5.53508">
        <ele>370</ele>
        <time>2021-04-03T13:07:29.589Z</time>
      </trkpt>
      <trkpt lat="45.55611" lon="5.53507">
        <ele>370</ele>
        <time>2021-04-03T13:07:30.589Z</time>
      </trkpt>
      <trkpt lat="45.55606" lon="5.53507">
        <ele>370</ele>
        <time>2021-04-03T13:07:31.588Z</time>
      </trkpt>
      <trkpt lat="45.55602" lon="5.53507">
        <ele>371</ele>
        <time>2021-04-03T13:07:32.589Z</time>
      </trkpt>
      <trkpt lat="45.55598" lon="5.53507">
        <ele>371</ele>
        <time>2021-04-03T13:07:33.588Z</time>
      </trkpt>
      <trkpt lat="45.55593" lon="5.53507">
        <ele>372</ele>
        <time>2021-04-03T13:07:34.589Z</time>
      </trkpt>
      <trkpt lat="45.55589" lon="5.53507">
        <ele>371</ele>
        <time>2021-04-03T13:07:35.589Z</time>
      </trkpt>
      <trkpt lat="45.55585" lon="5.53508">
        <ele>371</ele>
        <time>2021-04-03T13:07:36.589Z</time>
      </trkpt>
      <trkpt lat="45.5558" lon="5.53508">
        <ele>371</ele>
        <time>2021-04-03T13:07:37.588Z</time>
      </trkpt>
      <trkpt lat="45.55575" lon="5.53509">
        <ele>371</ele>
        <time>2021-04-03T13:07:38.589Z</time>
      </trkpt>
      <trkpt lat="45.55571" lon="5.53509">
        <ele>371</ele>
        <time>2021-04-03T13:07:39.589Z</time>
      </trkpt>
      <trkpt lat="45.55567" lon="5.5351">
        <ele>371</ele>
        <time>2021-04-03T13:07:40.589Z</time>
      </trkpt>
      <trkpt lat="45.55562" lon="5.53511">
        <ele>371</ele>
        <time>2021-04-03T13:07:41.589Z</time>
      </trkpt>
      <trkpt lat="45.55558" lon="5.53512">
        <ele>371</ele>
        <time>2021-04-03T13:07:42.589Z</time>
      </trkpt>
      <trkpt lat="45.55554" lon="5.53512">
        <ele>371</ele>
        <time>2021-04-03T13:07:43.589Z</time>
      </trkpt>
      <trkpt lat="45.5555" lon="5.53512">
        <ele>371</ele>
        <time>2021-04-03T13:07:44.589Z</time>
      </trkpt>
      <trkpt lat="45.55546" lon="5.53512">
        <ele>372</ele>
        <time>2021-04-03T13:07:45.589Z</time>
      </trkpt>
      <trkpt lat="45.55542" lon="5.53513">
        <ele>372</ele>
        <time>2021-04-03T13:07:46.588Z</time>
      </trkpt>
      <trkpt lat="45.55539" lon="5.53513">
        <ele>372</ele>
        <time>2021-04-03T13:07:47.588Z</time>
      </trkpt>
      <trkpt lat="45.55535" lon="5.53513">
        <ele>373</ele>
        <time>2021-04-03T13:07:48.588Z</time>
      </trkpt>
      <trkpt lat="45.55532" lon="5.53513">
        <ele>373</ele>
        <time>2021-04-03T13:07:49.588Z</time>
      </trkpt>
      <trkpt lat="45.55528" lon="5.53513">
        <ele>373</ele>
        <time>2021-04-03T13:07:50.589Z</time>
      </trkpt>
      <trkpt lat="45.55524" lon="5.53514">
        <ele>374</ele>
        <time>2021-04-03T13:07:51.589Z</time>
      </trkpt>
      <trkpt lat="45.55521" lon="5.53514">
        <ele>374</ele>
        <time>2021-04-03T13:07:52.589Z</time>
      </trkpt>
      <trkpt lat="45.55517" lon="5.53514">
        <ele>374</ele>
        <time>2021-04-03T13:07:53.589Z</time>
      </trkpt>
      <trkpt lat="45.55513" lon="5.53515">
        <ele>374</ele>
        <time>2021-04-03T13:07:54.589Z</time>
      </trkpt>
      <trkpt lat="45.5551" lon="5.53515">
        <ele>374</ele>
        <time>2021-04-03T13:07:55.589Z</time>
      </trkpt>
      <trkpt lat="45.55506" lon="5.53515">
        <ele>374</ele>
        <time>2021-04-03T13:07:56.589Z</time>
      </trkpt>
      <trkpt lat="45.55503" lon="5.53515">
        <ele>374</ele>
        <time>2021-04-03T13:07:57.588Z</time>
      </trkpt>
      <trkpt lat="45.55499" lon="5.53514">
        <ele>375</ele>
        <time>2021-04-03T13:07:58.589Z</time>
      </trkpt>
      <trkpt lat="45.55495" lon="5.53514">
        <ele>375</ele>
        <time>2021-04-03T13:07:59.589Z</time>
      </trkpt>
      <trkpt lat="45.55492" lon="5.53514">
        <ele>375</ele>
        <time>2021-04-03T13:08:00.588Z</time>
      </trkpt>
      <trkpt lat="45.55488" lon="5.53514">
        <ele>375</ele>
        <time>2021-04-03T13:08:01.589Z</time>
      </trkpt>
      <trkpt lat="45.55484" lon="5.53514">
        <ele>376</ele>
        <time>2021-04-03T13:08:02.588Z</time>
      </trkpt>
      <trkpt lat="45.55481" lon="5.53515">
        <ele>376</ele>
        <time>2021-04-03T13:08:03.589Z</time>
      </trkpt>
      <trkpt lat="45.55477" lon="5.53515">
        <ele>376</ele>
        <time>2021-04-03T13:08:04.589Z</time>
      </trkpt>
      <trkpt lat="45.55474" lon="5.53515">
        <ele>376</ele>
        <time>2021-04-03T13:08:05.589Z</time>
      </trkpt>
      <trkpt lat="45.5547" lon="5.53515">
        <ele>376</ele>
        <time>2021-04-03T13:08:06.589Z</time>
      </trkpt>
      <trkpt lat="45.55467" lon="5.53515">
        <ele>376</ele>
        <time>2021-04-03T13:08:07.589Z</time>
      </trkpt>
      <trkpt lat="45.55463" lon="5.53516">
        <ele>376</ele>
        <time>2021-04-03T13:08:08.589Z</time>
      </trkpt>
      <trkpt lat="45.55459" lon="5.53515">
        <ele>376</ele>
        <time>2021-04-03T13:08:09.588Z</time>
      </trkpt>
      <trkpt lat="45.55456" lon="5.53516">
        <ele>377</ele>
        <time>2021-04-03T13:08:10.588Z</time>
      </trkpt>
      <trkpt lat="45.55452" lon="5.53515">
        <ele>377</ele>
        <time>2021-04-03T13:08:11.589Z</time>
      </trkpt>
      <trkpt lat="45.55449" lon="5.53515">
        <ele>377</ele>
        <time>2021-04-03T13:08:12.589Z</time>
      </trkpt>
      <trkpt lat="45.55446" lon="5.53515">
        <ele>377</ele>
        <time>2021-04-03T13:08:13.589Z</time>
      </trkpt>
      <trkpt lat="45.55442" lon="5.53514">
        <ele>377</ele>
        <time>2021-04-03T13:08:14.589Z</time>
      </trkpt>
      <trkpt lat="45.55439" lon="5.53513">
        <ele>377</ele>
        <time>2021-04-03T13:08:15.589Z</time>
      </trkpt>
      <trkpt lat="45.55435" lon="5.53513">
        <ele>378</ele>
        <time>2021-04-03T13:08:16.588Z</time>
      </trkpt>
      <trkpt lat="45.55432" lon="5.53512">
        <ele>378</ele>
        <time>2021-04-03T13:08:17.589Z</time>
      </trkpt>
      <trkpt lat="45.55428" lon="5.53511">
        <ele>378</ele>
        <time>2021-04-03T13:08:18.588Z</time>
      </trkpt>
      <trkpt lat="45.55425" lon="5.5351">
        <ele>379</ele>
        <time>2021-04-03T13:08:19.588Z</time>
      </trkpt>
      <trkpt lat="45.55421" lon="5.53509">
        <ele>379</ele>
        <time>2021-04-03T13:08:20.589Z</time>
      </trkpt>
      <trkpt lat="45.55418" lon="5.53507">
        <ele>379</ele>
        <time>2021-04-03T13:08:21.589Z</time>
      </trkpt>
      <trkpt lat="45.55414" lon="5.53506">
        <ele>380</ele>
        <time>2021-04-03T13:08:22.588Z</time>
      </trkpt>
      <trkpt lat="45.55411" lon="5.53505">
        <ele>380</ele>
        <time>2021-04-03T13:08:23.588Z</time>
      </trkpt>
      <trkpt lat="45.55407" lon="5.53503">
        <ele>380</ele>
        <time>2021-04-03T13:08:24.589Z</time>
      </trkpt>
      <trkpt lat="45.55404" lon="5.53501">
        <ele>381</ele>
        <time>2021-04-03T13:08:25.589Z</time>
      </trkpt>
      <trkpt lat="45.554" lon="5.53499">
        <ele>381</ele>
        <time>2021-04-03T13:08:26.589Z</time>
      </trkpt>
      <trkpt lat="45.55397" lon="5.53497">
        <ele>382</ele>
        <time>2021-04-03T13:08:27.589Z</time>
      </trkpt>
      <trkpt lat="45.55393" lon="5.53495">
        <ele>382</ele>
        <time>2021-04-03T13:08:28.589Z</time>
      </trkpt>
      <trkpt lat="45.5539" lon="5.53494">
        <ele>383</ele>
        <time>2021-04-03T13:08:29.589Z</time>
      </trkpt>
      <trkpt lat="45.55387" lon="5.53492">
        <ele>383</ele>
        <time>2021-04-03T13:08:30.589Z</time>
      </trkpt>
      <trkpt lat="45.55383" lon="5.5349">
        <ele>383</ele>
        <time>2021-04-03T13:08:31.589Z</time>
      </trkpt>
      <trkpt lat="45.5538" lon="5.53488">
        <ele>383</ele>
        <time>2021-04-03T13:08:32.589Z</time>
      </trkpt>
      <trkpt lat="45.55376" lon="5.53486">
        <ele>383</ele>
        <time>2021-04-03T13:08:33.589Z</time>
      </trkpt>
      <trkpt lat="45.55373" lon="5.53484">
        <ele>383</ele>
        <time>2021-04-03T13:08:34.589Z</time>
      </trkpt>
      <trkpt lat="45.55369" lon="5.53482">
        <ele>383</ele>
        <time>2021-04-03T13:08:35.588Z</time>
      </trkpt>
      <trkpt lat="45.55366" lon="5.5348">
        <ele>384</ele>
        <time>2021-04-03T13:08:36.588Z</time>
      </trkpt>
      <trkpt lat="45.55362" lon="5.53478">
        <ele>384</ele>
        <time>2021-04-03T13:08:37.589Z</time>
      </trkpt>
      <trkpt lat="45.55359" lon="5.53477">
        <ele>385</ele>
        <time>2021-04-03T13:08:38.589Z</time>
      </trkpt>
      <trkpt lat="45.55356" lon="5.53475">
        <ele>385</ele>
        <time>2021-04-03T13:08:39.589Z</time>
      </trkpt>
      <trkpt lat="45.55352" lon="5.53473">
        <ele>386</ele>
        <time>2021-04-03T13:08:40.589Z</time>
      </trkpt>
      <trkpt lat="45.55349" lon="5.53471">
        <ele>386</ele>
        <time>2021-04-03T13:08:41.588Z</time>
      </trkpt>
      <trkpt lat="45.55345" lon="5.53469">
        <ele>387</ele>
        <time>2021-04-03T13:08:42.589Z</time>
      </trkpt>
      <trkpt lat="45.55342" lon="5.53468">
        <ele>387</ele>
        <time>2021-04-03T13:08:43.588Z</time>
      </trkpt>
      <trkpt lat="45.55338" lon="5.53466">
        <ele>386</ele>
        <time>2021-04-03T13:08:44.589Z</time>
      </trkpt>
      <trkpt lat="45.55335" lon="5.53464">
        <ele>386</ele>
        <time>2021-04-03T13:08:45.589Z</time>
      </trkpt>
      <trkpt lat="45.55331" lon="5.53463">
        <ele>386</ele>
        <time>2021-04-03T13:08:46.588Z</time>
      </trkpt>
      <trkpt lat="45.55327" lon="5.53461">
        <ele>386</ele>
        <time>2021-04-03T13:08:47.588Z</time>
      </trkpt>
      <trkpt lat="45.55324" lon="5.53459">
        <ele>386</ele>
        <time>2021-04-03T13:08:48.588Z</time>
      </trkpt>
      <trkpt lat="45.5532" lon="5.53458">
        <ele>386</ele>
        <time>2021-04-03T13:08:49.589Z</time>
      </trkpt>
      <trkpt lat="45.55316" lon="5.53456">
        <ele>386</ele>
        <time>2021-04-03T13:08:50.589Z</time>
      </trkpt>
      <trkpt lat="45.55313" lon="5.53455">
        <ele>386</ele>
        <time>2021-04-03T13:08:51.588Z</time>
      </trkpt>
      <trkpt lat="45.55309" lon="5.53453">
        <ele>386</ele>
        <time>2021-04-03T13:08:52.589Z</time>
      </trkpt>
      <trkpt lat="45.55305" lon="5.53452">
        <ele>386</ele>
        <time>2021-04-03T13:08:53.588Z</time>
      </trkpt>
      <trkpt lat="45.55301" lon="5.5345">
        <ele>386</ele>
        <time>2021-04-03T13:08:54.589Z</time>
      </trkpt>
      <trkpt lat="45.55298" lon="5.53449">
        <ele>386</ele>
        <time>2021-04-03T13:08:55.589Z</time>
      </trkpt>
      <trkpt lat="45.55294" lon="5.53448">
        <ele>386</ele>
        <time>2021-04-03T13:08:56.588Z</time>
      </trkpt>
      <trkpt lat="45.5529" lon="5.53446">
        <ele>386</ele>
        <time>2021-04-03T13:08:57.589Z</time>
      </trkpt>
      <trkpt lat="45.55287" lon="5.53445">
        <ele>386</ele>
        <time>2021-04-03T13:08:58.588Z</time>
      </trkpt>
      <trkpt lat="45.55283" lon="5.53443">
        <ele>386</ele>
        <time>2021-04-03T13:08:59.589Z</time>
      </trkpt>
      <trkpt lat="45.55279" lon="5.53442">
        <ele>386</ele>
        <time>2021-04-03T13:09:00.589Z</time>
      </trkpt>
      <trkpt lat="45.55275" lon="5.5344">
        <ele>386</ele>
        <time>2021-04-03T13:09:01.589Z</time>
      </trkpt>
      <trkpt lat="45.55271" lon="5.53439">
        <ele>386</ele>
        <time>2021-04-03T13:09:02.589Z</time>
      </trkpt>
      <trkpt lat="45.55267" lon="5.53437">
        <ele>387</ele>
        <time>2021-04-03T13:09:03.588Z</time>
      </trkpt>
      <trkpt lat="45.55263" lon="5.53436">
        <ele>387</ele>
        <time>2021-04-03T13:09:04.589Z</time>
      </trkpt>
      <trkpt lat="45.55259" lon="5.53434">
        <ele>387</ele>
        <time>2021-04-03T13:09:05.589Z</time>
      </trkpt>
      <trkpt lat="45.55256" lon="5.53433">
        <ele>388</ele>
        <time>2021-04-03T13:09:06.588Z</time>
      </trkpt>
      <trkpt lat="45.55252" lon="5.53431">
        <ele>388</ele>
        <time>2021-04-03T13:09:07.589Z</time>
      </trkpt>
      <trkpt lat="45.55248" lon="5.5343">
        <ele>388</ele>
        <time>2021-04-03T13:09:08.589Z</time>
      </trkpt>
      <trkpt lat="45.55244" lon="5.53428">
        <ele>388</ele>
        <time>2021-04-03T13:09:09.589Z</time>
      </trkpt>
      <trkpt lat="45.5524" lon="5.53427">
        <ele>388</ele>
        <time>2021-04-03T13:09:10.589Z</time>
      </trkpt>
      <trkpt lat="45.55237" lon="5.53425">
        <ele>388</ele>
        <time>2021-04-03T13:09:11.589Z</time>
      </trkpt>
      <trkpt lat="45.55233" lon="5.53423">
        <ele>388</ele>
        <time>2021-04-03T13:09:12.589Z</time>
      </trkpt>
      <trkpt lat="45.55229" lon="5.53422">
        <ele>388</ele>
        <time>2021-04-03T13:09:13.589Z</time>
      </trkpt>
      <trkpt lat="45.55226" lon="5.53421">
        <ele>388</ele>
        <time>2021-04-03T13:09:14.589Z</time>
      </trkpt>
      <trkpt lat="45.55222" lon="5.53419">
        <ele>388</ele>
        <time>2021-04-03T13:09:15.589Z</time>
      </trkpt>
      <trkpt lat="45.55218" lon="5.53418">
        <ele>388</ele>
        <time>2021-04-03T13:09:16.589Z</time>
      </trkpt>
      <trkpt lat="45.55214" lon="5.53417">
        <ele>388</ele>
        <time>2021-04-03T13:09:17.589Z</time>
      </trkpt>
      <trkpt lat="45.55211" lon="5.53415">
        <ele>388</ele>
        <time>2021-04-03T13:09:18.588Z</time>
      </trkpt>
      <trkpt lat="45.55207" lon="5.53414">
        <ele>389</ele>
        <time>2021-04-03T13:09:19.589Z</time>
      </trkpt>
      <trkpt lat="45.55203" lon="5.53412">
        <ele>390</ele>
        <time>2021-04-03T13:09:20.589Z</time>
      </trkpt>
      <trkpt lat="45.55199" lon="5.53411">
        <ele>390</ele>
        <time>2021-04-03T13:09:21.589Z</time>
      </trkpt>
      <trkpt lat="45.55195" lon="5.53409">
        <ele>390</ele>
        <time>2021-04-03T13:09:22.589Z</time>
      </trkpt>
      <trkpt lat="45.55191" lon="5.53408">
        <ele>390</ele>
        <time>2021-04-03T13:09:23.589Z</time>
      </trkpt>
      <trkpt lat="45.55187" lon="5.53407">
        <ele>390</ele>
        <time>2021-04-03T13:09:24.589Z</time>
      </trkpt>
      <trkpt lat="45.55184" lon="5.53405">
        <ele>390</ele>
        <time>2021-04-03T13:09:25.588Z</time>
      </trkpt>
      <trkpt lat="45.5518" lon="5.53404">
        <ele>390</ele>
        <time>2021-04-03T13:09:26.589Z</time>
      </trkpt>
      <trkpt lat="45.55176" lon="5.53402">
        <ele>390</ele>
        <time>2021-04-03T13:09:27.589Z</time>
      </trkpt>
      <trkpt lat="45.55172" lon="5.53401">
        <ele>391</ele>
        <time>2021-04-03T13:09:28.588Z</time>
      </trkpt>
      <trkpt lat="45.55168" lon="5.534">
        <ele>391</ele>
        <time>2021-04-03T13:09:29.589Z</time>
      </trkpt>
      <trkpt lat="45.55165" lon="5.53399">
        <ele>391</ele>
        <time>2021-04-03T13:09:30.589Z</time>
      </trkpt>
      <trkpt lat="45.55161" lon="5.53398">
        <ele>391</ele>
        <time>2021-04-03T13:09:31.589Z</time>
      </trkpt>
      <trkpt lat="45.55158" lon="5.53397">
        <ele>391</ele>
        <time>2021-04-03T13:09:32.588Z</time>
      </trkpt>
      <trkpt lat="45.55155" lon="5.53396">
        <ele>391</ele>
        <time>2021-04-03T13:09:33.589Z</time>
      </trkpt>
      <trkpt lat="45.55151" lon="5.53395">
        <ele>391</ele>
        <time>2021-04-03T13:09:34.589Z</time>
      </trkpt>
      <trkpt lat="45.55147" lon="5.53395">
        <ele>391</ele>
        <time>2021-04-03T13:09:35.589Z</time>
      </trkpt>
      <trkpt lat="45.55143" lon="5.53395">
        <ele>391</ele>
        <time>2021-04-03T13:09:36.589Z</time>
      </trkpt>
      <trkpt lat="45.55139" lon="5.53395">
        <ele>391</ele>
        <time>2021-04-03T13:09:37.589Z</time>
      </trkpt>
      <trkpt lat="45.55135" lon="5.53394">
        <ele>392</ele>
        <time>2021-04-03T13:09:38.589Z</time>
      </trkpt>
      <trkpt lat="45.55131" lon="5.53394">
        <ele>392</ele>
        <time>2021-04-03T13:09:39.588Z</time>
      </trkpt>
      <trkpt lat="45.55128" lon="5.53393">
        <ele>393</ele>
        <time>2021-04-03T13:09:40.589Z</time>
      </trkpt>
      <trkpt lat="45.55124" lon="5.53393">
        <ele>394</ele>
        <time>2021-04-03T13:09:41.589Z</time>
      </trkpt>
      <trkpt lat="45.55121" lon="5.53392">
        <ele>395</ele>
        <time>2021-04-03T13:09:42.588Z</time>
      </trkpt>
      <trkpt lat="45.55117" lon="5.53392">
        <ele>396</ele>
        <time>2021-04-03T13:09:43.589Z</time>
      </trkpt>
      <trkpt lat="45.55113" lon="5.53391">
        <ele>397</ele>
        <time>2021-04-03T13:09:44.589Z</time>
      </trkpt>
      <trkpt lat="45.5511" lon="5.53391">
        <ele>398</ele>
        <time>2021-04-03T13:09:45.588Z</time>
      </trkpt>
      <trkpt lat="45.55106" lon="5.53391">
        <ele>399</ele>
        <time>2021-04-03T13:09:46.589Z</time>
      </trkpt>
      <trkpt lat="45.55103" lon="5.5339">
        <ele>399</ele>
        <time>2021-04-03T13:09:47.589Z</time>
      </trkpt>
      <trkpt lat="45.551" lon="5.53391">
        <ele>399</ele>
        <time>2021-04-03T13:09:48.589Z</time>
      </trkpt>
      <trkpt lat="45.55096" lon="5.53391">
        <ele>400</ele>
        <time>2021-04-03T13:09:49.589Z</time>
      </trkpt>
      <trkpt lat="45.55092" lon="5.53391">
        <ele>400</ele>
        <time>2021-04-03T13:09:50.589Z</time>
      </trkpt>
      <trkpt lat="45.55088" lon="5.53391">
        <ele>401</ele>
        <time>2021-04-03T13:09:51.589Z</time>
      </trkpt>
      <trkpt lat="45.55085" lon="5.53391">
        <ele>401</ele>
        <time>2021-04-03T13:09:52.588Z</time>
      </trkpt>
      <trkpt lat="45.55081" lon="5.53391">
        <ele>401</ele>
        <time>2021-04-03T13:09:53.588Z</time>
      </trkpt>
      <trkpt lat="45.55077" lon="5.53392">
        <ele>401</ele>
        <time>2021-04-03T13:09:54.588Z</time>
      </trkpt>
      <trkpt lat="45.55074" lon="5.53392">
        <ele>401</ele>
        <time>2021-04-03T13:09:55.588Z</time>
      </trkpt>
      <trkpt lat="45.55071" lon="5.53393">
        <ele>401</ele>
        <time>2021-04-03T13:09:56.588Z</time>
      </trkpt>
      <trkpt lat="45.55067" lon="5.53393">
        <ele>401</ele>
        <time>2021-04-03T13:09:57.589Z</time>
      </trkpt>
      <trkpt lat="45.55064" lon="5.53394">
        <ele>401</ele>
        <time>2021-04-03T13:09:58.589Z</time>
      </trkpt>
      <trkpt lat="45.55061" lon="5.53394">
        <ele>401</ele>
        <time>2021-04-03T13:09:59.589Z</time>
      </trkpt>
      <trkpt lat="45.55058" lon="5.53395">
        <ele>400</ele>
        <time>2021-04-03T13:10:00.589Z</time>
      </trkpt>
      <trkpt lat="45.55055" lon="5.53396">
        <ele>400</ele>
        <time>2021-04-03T13:10:01.588Z</time>
      </trkpt>
      <trkpt lat="45.55052" lon="5.53397">
        <ele>400</ele>
        <time>2021-04-03T13:10:02.589Z</time>
      </trkpt>
      <trkpt lat="45.55048" lon="5.53398">
        <ele>400</ele>
        <time>2021-04-03T13:10:03.589Z</time>
      </trkpt>
      <trkpt lat="45.55045" lon="5.53399">
        <ele>400</ele>
        <time>2021-04-03T13:10:04.589Z</time>
      </trkpt>
      <trkpt lat="45.55042" lon="5.53401">
        <ele>400</ele>
        <time>2021-04-03T13:10:05.588Z</time>
      </trkpt>
      <trkpt lat="45.55039" lon="5.53402">
        <ele>400</ele>
        <time>2021-04-03T13:10:06.588Z</time>
      </trkpt>
      <trkpt lat="45.55036" lon="5.53404">
        <ele>400</ele>
        <time>2021-04-03T13:10:07.589Z</time>
      </trkpt>
      <trkpt lat="45.55033" lon="5.53406">
        <ele>400</ele>
        <time>2021-04-03T13:10:08.589Z</time>
      </trkpt>
      <trkpt lat="45.5503" lon="5.53408">
        <ele>400</ele>
        <time>2021-04-03T13:10:09.589Z</time>
      </trkpt>
      <trkpt lat="45.55027" lon="5.5341">
        <ele>401</ele>
        <time>2021-04-03T13:10:10.588Z</time>
      </trkpt>
      <trkpt lat="45.55024" lon="5.53412">
        <ele>401</ele>
        <time>2021-04-03T13:10:11.588Z</time>
      </trkpt>
      <trkpt lat="45.55021" lon="5.53415">
        <ele>402</ele>
        <time>2021-04-03T13:10:12.589Z</time>
      </trkpt>
      <trkpt lat="45.55018" lon="5.53417">
        <ele>403</ele>
        <time>2021-04-03T13:10:13.589Z</time>
      </trkpt>
      <trkpt lat="45.55014" lon="5.53419">
        <ele>403</ele>
        <time>2021-04-03T13:10:14.588Z</time>
      </trkpt>
      <trkpt lat="45.55011" lon="5.53421">
        <ele>404</ele>
        <time>2021-04-03T13:10:15.589Z</time>
      </trkpt>
      <trkpt lat="45.55008" lon="5.53424">
        <ele>405</ele>
        <time>2021-04-03T13:10:16.589Z</time>
      </trkpt>
      <trkpt lat="45.55005" lon="5.53426">
        <ele>405</ele>
        <time>2021-04-03T13:10:17.589Z</time>
      </trkpt>
      <trkpt lat="45.55001" lon="5.53429">
        <ele>405</ele>
        <time>2021-04-03T13:10:18.588Z</time>
      </trkpt>
      <trkpt lat="45.54998" lon="5.53431">
        <ele>406</ele>
        <time>2021-04-03T13:10:19.589Z</time>
      </trkpt>
      <trkpt lat="45.54994" lon="5.53434">
        <ele>406</ele>
        <time>2021-04-03T13:10:20.589Z</time>
      </trkpt>
      <trkpt lat="45.54991" lon="5.53436">
        <ele>407</ele>
        <time>2021-04-03T13:10:21.589Z</time>
      </trkpt>
      <trkpt lat="45.54987" lon="5.53438">
        <ele>407</ele>
        <time>2021-04-03T13:10:22.588Z</time>
      </trkpt>
      <trkpt lat="45.54984" lon="5.5344">
        <ele>407</ele>
        <time>2021-04-03T13:10:23.588Z</time>
      </trkpt>
      <trkpt lat="45.54981" lon="5.53442">
        <ele>407</ele>
        <time>2021-04-03T13:10:24.589Z</time>
      </trkpt>
      <trkpt lat="45.54978" lon="5.53444">
        <ele>407</ele>
        <time>2021-04-03T13:10:25.588Z</time>
      </trkpt>
      <trkpt lat="45.54974" lon="5.53446">
        <ele>407</ele>
        <time>2021-04-03T13:10:26.588Z</time>
      </trkpt>
      <trkpt lat="45.5497" lon="5.53447">
        <ele>407</ele>
        <time>2021-04-03T13:10:27.589Z</time>
      </trkpt>
      <trkpt lat="45.54967" lon="5.53449">
        <ele>407</ele>
        <time>2021-04-03T13:10:28.589Z</time>
      </trkpt>
      <trkpt lat="45.54963" lon="5.53451">
        <ele>407</ele>
        <time>2021-04-03T13:10:29.589Z</time>
      </trkpt>
      <trkpt lat="45.5496" lon="5.53452">
        <ele>407</ele>
        <time>2021-04-03T13:10:30.589Z</time>
      </trkpt>
      <trkpt lat="45.54956" lon="5.53453">
        <ele>407</ele>
        <time>2021-04-03T13:10:31.588Z</time>
      </trkpt>
      <trkpt lat="45.54953" lon="5.53455">
        <ele>407</ele>
        <time>2021-04-03T13:10:32.589Z</time>
      </trkpt>
      <trkpt lat="45.5495" lon="5.53456">
        <ele>407</ele>
        <time>2021-04-03T13:10:33.588Z</time>
      </trkpt>
      <trkpt lat="45.54946" lon="5.53458">
        <ele>407</ele>
        <time>2021-04-03T13:10:34.589Z</time>
      </trkpt>
      <trkpt lat="45.54943" lon="5.53459">
        <ele>407</ele>
        <time>2021-04-03T13:10:35.589Z</time>
      </trkpt>
      <trkpt lat="45.54939" lon="5.5346">
        <ele>406</ele>
        <time>2021-04-03T13:10:36.589Z</time>
      </trkpt>
      <trkpt lat="45.54936" lon="5.53461">
        <ele>406</ele>
        <time>2021-04-03T13:10:37.589Z</time>
      </trkpt>
      <trkpt lat="45.54932" lon="5.53462">
        <ele>406</ele>
        <time>2021-04-03T13:10:38.589Z</time>
      </trkpt>
      <trkpt lat="45.54929" lon="5.53464">
        <ele>406</ele>
        <time>2021-04-03T13:10:39.589Z</time>
      </trkpt>
      <trkpt lat="45.54926" lon="5.53464">
        <ele>406</ele>
        <time>2021-04-03T13:10:40.589Z</time>
      </trkpt>
      <trkpt lat="45.54923" lon="5.53465">
        <ele>406</ele>
        <time>2021-04-03T13:10:41.588Z</time>
      </trkpt>
      <trkpt lat="45.54919" lon="5.53466">
        <ele>406</ele>
        <time>2021-04-03T13:10:42.589Z</time>
      </trkpt>
      <trkpt lat="45.54916" lon="5.53467">
        <ele>406</ele>
        <time>2021-04-03T13:10:43.589Z</time>
      </trkpt>
      <trkpt lat="45.54913" lon="5.53468">
        <ele>406</ele>
        <time>2021-04-03T13:10:44.588Z</time>
      </trkpt>
      <trkpt lat="45.54909" lon="5.53468">
        <ele>406</ele>
        <time>2021-04-03T13:10:45.589Z</time>
      </trkpt>
      <trkpt lat="45.54905" lon="5.53469">
        <ele>406</ele>
        <time>2021-04-03T13:10:46.589Z</time>
      </trkpt>
      <trkpt lat="45.54901" lon="5.53469">
        <ele>407</ele>
        <time>2021-04-03T13:10:47.588Z</time>
      </trkpt>
      <trkpt lat="45.54897" lon="5.53469">
        <ele>407</ele>
        <time>2021-04-03T13:10:48.588Z</time>
      </trkpt>
      <trkpt lat="45.54893" lon="5.53468">
        <ele>407</ele>
        <time>2021-04-03T13:10:49.588Z</time>
      </trkpt>
      <trkpt lat="45.54889" lon="5.53468">
        <ele>407</ele>
        <time>2021-04-03T13:10:50.588Z</time>
      </trkpt>
      <trkpt lat="45.54886" lon="5.53467">
        <ele>407</ele>
        <time>2021-04-03T13:10:51.589Z</time>
      </trkpt>
      <trkpt lat="45.54883" lon="5.53467">
        <ele>408</ele>
        <time>2021-04-03T13:10:52.588Z</time>
      </trkpt>
      <trkpt lat="45.5488" lon="5.53466">
        <ele>408</ele>
        <time>2021-04-03T13:10:53.589Z</time>
      </trkpt>
      <trkpt lat="45.54878" lon="5.53465">
        <ele>409</ele>
        <time>2021-04-03T13:10:54.589Z</time>
      </trkpt>
      <trkpt lat="45.54876" lon="5.53464">
        <ele>410</ele>
        <time>2021-04-03T13:10:55.589Z</time>
      </trkpt>
      <trkpt lat="45.54873" lon="5.53464">
        <ele>411</ele>
        <time>2021-04-03T13:10:56.589Z</time>
      </trkpt>
      <trkpt lat="45.54871" lon="5.53463">
        <ele>412</ele>
        <time>2021-04-03T13:10:57.588Z</time>
      </trkpt>
      <trkpt lat="45.5487" lon="5.53462">
        <ele>413</ele>
        <time>2021-04-03T13:10:58.589Z</time>
      </trkpt>
      <trkpt lat="45.54869" lon="5.5346">
        <ele>413</ele>
        <time>2021-04-03T13:10:59.589Z</time>
      </trkpt>
      <trkpt lat="45.54868" lon="5.53458">
        <ele>413</ele>
        <time>2021-04-03T13:11:00.589Z</time>
      </trkpt>
      <trkpt lat="45.54866" lon="5.53458">
        <ele>413</ele>
        <time>2021-04-03T13:11:01.589Z</time>
      </trkpt>
      <trkpt lat="45.54865" lon="5.53458">
        <ele>413</ele>
        <time>2021-04-03T13:11:02.589Z</time>
      </trkpt>
      <trkpt lat="45.54865" lon="5.53459">
        <ele>413</ele>
        <time>2021-04-03T13:11:03.588Z</time>
      </trkpt>
      <trkpt lat="45.54865" lon="5.53459">
        <ele>413</ele>
        <time>2021-04-03T13:11:04.589Z</time>
      </trkpt>
      <trkpt lat="45.54865" lon="5.53459">
        <ele>413</ele>
        <time>2021-04-03T13:11:05.589Z</time>
      </trkpt>
      <trkpt lat="45.54865" lon="5.53463">
        <ele>412</ele>
        <time>2021-04-03T13:11:06.589Z</time>
      </trkpt>
      <trkpt lat="45.54865" lon="5.53466">
        <ele>411</ele>
        <time>2021-04-03T13:11:07.590Z</time>
      </trkpt>
      <trkpt lat="45.54864" lon="5.53467">
        <ele>411</ele>
        <time>2021-04-03T13:11:08.589Z</time>
      </trkpt>
      <trkpt lat="45.54864" lon="5.53468">
        <ele>410</ele>
        <time>2021-04-03T13:11:09.590Z</time>
      </trkpt>
      <trkpt lat="45.54864" lon="5.53469">
        <ele>410</ele>
        <time>2021-04-03T13:11:10.589Z</time>
      </trkpt>
      <trkpt lat="45.54865" lon="5.53469">
        <ele>409</ele>
        <time>2021-04-03T13:11:11.589Z</time>
      </trkpt>
      <trkpt lat="45.54867" lon="5.53468">
        <ele>409</ele>
        <time>2021-04-03T13:11:12.589Z</time>
      </trkpt>
      <trkpt lat="45.54868" lon="5.53466">
        <ele>408</ele>
        <time>2021-04-03T13:11:13.590Z</time>
      </trkpt>
      <trkpt lat="45.54868" lon="5.53463">
        <ele>407</ele>
        <time>2021-04-03T13:11:14.590Z</time>
      </trkpt>
      <trkpt lat="45.54869" lon="5.5346">
        <ele>407</ele>
        <time>2021-04-03T13:11:15.590Z</time>
      </trkpt>
      <trkpt lat="45.54869" lon="5.53456">
        <ele>406</ele>
        <time>2021-04-03T13:11:16.590Z</time>
      </trkpt>
      <trkpt lat="45.54869" lon="5.53453">
        <ele>406</ele>
        <time>2021-04-03T13:11:17.589Z</time>
      </trkpt>
      <trkpt lat="45.54869" lon="5.53451">
        <ele>405</ele>
        <time>2021-04-03T13:11:18.590Z</time>
      </trkpt>
      <trkpt lat="45.54868" lon="5.53449">
        <ele>405</ele>
        <time>2021-04-03T13:11:19.589Z</time>
      </trkpt>
      <trkpt lat="45.54868" lon="5.53448">
        <ele>404</ele>
        <time>2021-04-03T13:11:20.589Z</time>
      </trkpt>
      <trkpt lat="45.54868" lon="5.53448">
        <ele>404</ele>
        <time>2021-04-03T13:11:21.590Z</time>
      </trkpt>
      <trkpt lat="45.54867" lon="5.53444">
        <ele>404</ele>
        <time>2021-04-03T13:11:22.589Z</time>
      </trkpt>
      <trkpt lat="45.54868" lon="5.5344">
        <ele>404</ele>
        <time>2021-04-03T13:11:23.589Z</time>
      </trkpt>
      <trkpt lat="45.54868" lon="5.53437">
        <ele>404</ele>
        <time>2021-04-03T13:11:24.589Z</time>
      </trkpt>
      <trkpt lat="45.54868" lon="5.53433">
        <ele>404</ele>
        <time>2021-04-03T13:11:25.590Z</time>
      </trkpt>
      <trkpt lat="45.54867" lon="5.53427">
        <ele>404</ele>
        <time>2021-04-03T13:11:26.590Z</time>
      </trkpt>
      <trkpt lat="45.54867" lon="5.53422">
        <ele>403</ele>
        <time>2021-04-03T13:11:27.589Z</time>
      </trkpt>
      <trkpt lat="45.54865" lon="5.53416">
        <ele>403</ele>
        <time>2021-04-03T13:11:28.589Z</time>
      </trkpt>
      <trkpt lat="45.54864" lon="5.53409">
        <ele>403</ele>
        <time>2021-04-03T13:11:29.590Z</time>
      </trkpt>
      <trkpt lat="45.54862" lon="5.53402">
        <ele>403</ele>
        <time>2021-04-03T13:11:30.590Z</time>
      </trkpt>
      <trkpt lat="45.54861" lon="5.53395">
        <ele>404</ele>
        <time>2021-04-03T13:11:31.590Z</time>
      </trkpt>
      <trkpt lat="45.54859" lon="5.53388">
        <ele>404</ele>
        <time>2021-04-03T13:11:32.589Z</time>
      </trkpt>
      <trkpt lat="45.54856" lon="5.53381">
        <ele>405</ele>
        <time>2021-04-03T13:11:33.590Z</time>
      </trkpt>
      <trkpt lat="45.54854" lon="5.53375">
        <ele>405</ele>
        <time>2021-04-03T13:11:34.589Z</time>
      </trkpt>
      <trkpt lat="45.54851" lon="5.53367">
        <ele>405</ele>
        <time>2021-04-03T13:11:35.590Z</time>
      </trkpt>
      <trkpt lat="45.54848" lon="5.5336">
        <ele>406</ele>
        <time>2021-04-03T13:11:36.589Z</time>
      </trkpt>
      <trkpt lat="45.54846" lon="5.53353">
        <ele>406</ele>
        <time>2021-04-03T13:11:37.590Z</time>
      </trkpt>
      <trkpt lat="45.54845" lon="5.53345">
        <ele>406</ele>
        <time>2021-04-03T13:11:38.590Z</time>
      </trkpt>
      <trkpt lat="45.54843" lon="5.53337">
        <ele>406</ele>
        <time>2021-04-03T13:11:39.590Z</time>
      </trkpt>
      <trkpt lat="45.54842" lon="5.5333">
        <ele>406</ele>
        <time>2021-04-03T13:11:40.590Z</time>
      </trkpt>
      <trkpt lat="45.5484" lon="5.53323">
        <ele>405</ele>
        <time>2021-04-03T13:11:41.589Z</time>
      </trkpt>
      <trkpt lat="45.54839" lon="5.53316">
        <ele>405</ele>
        <time>2021-04-03T13:11:42.590Z</time>
      </trkpt>
      <trkpt lat="45.54838" lon="5.53309">
        <ele>405</ele>
        <time>2021-04-03T13:11:43.590Z</time>
      </trkpt>
      <trkpt lat="45.54838" lon="5.53302">
        <ele>405</ele>
        <time>2021-04-03T13:11:44.590Z</time>
      </trkpt>
      <trkpt lat="45.54838" lon="5.53296">
        <ele>405</ele>
        <time>2021-04-03T13:11:45.590Z</time>
      </trkpt>
      <trkpt lat="45.54839" lon="5.5329">
        <ele>404</ele>
        <time>2021-04-03T13:11:46.590Z</time>
      </trkpt>
      <trkpt lat="45.54839" lon="5.53284">
        <ele>404</ele>
        <time>2021-04-03T13:11:47.590Z</time>
      </trkpt>
      <trkpt lat="45.54841" lon="5.53279">
        <ele>403</ele>
        <time>2021-04-03T13:11:48.590Z</time>
      </trkpt>
      <trkpt lat="45.54842" lon="5.53274">
        <ele>403</ele>
        <time>2021-04-03T13:11:49.590Z</time>
      </trkpt>
      <trkpt lat="45.54843" lon="5.53268">
        <ele>403</ele>
        <time>2021-04-03T13:11:50.590Z</time>
      </trkpt>
      <trkpt lat="45.54844" lon="5.53263">
        <ele>403</ele>
        <time>2021-04-03T13:11:51.590Z</time>
      </trkpt>
      <trkpt lat="45.54844" lon="5.53257">
        <ele>403</ele>
        <time>2021-04-03T13:11:52.590Z</time>
      </trkpt>
      <trkpt lat="45.54844" lon="5.53252">
        <ele>403</ele>
        <time>2021-04-03T13:11:53.590Z</time>
      </trkpt>
      <trkpt lat="45.54844" lon="5.53247">
        <ele>404</ele>
        <time>2021-04-03T13:11:54.589Z</time>
      </trkpt>
      <trkpt lat="45.54845" lon="5.53243">
        <ele>404</ele>
        <time>2021-04-03T13:11:55.590Z</time>
      </trkpt>
      <trkpt lat="45.54846" lon="5.53238">
        <ele>405</ele>
        <time>2021-04-03T13:11:56.590Z</time>
      </trkpt>
      <trkpt lat="45.54846" lon="5.53234">
        <ele>405</ele>
        <time>2021-04-03T13:11:57.589Z</time>
      </trkpt>
      <trkpt lat="45.54847" lon="5.5323">
        <ele>405</ele>
        <time>2021-04-03T13:11:58.590Z</time>
      </trkpt>
      <trkpt lat="45.54848" lon="5.53227">
        <ele>405</ele>
        <time>2021-04-03T13:11:59.590Z</time>
      </trkpt>
      <trkpt lat="45.54848" lon="5.53223">
        <ele>405</ele>
        <time>2021-04-03T13:12:00.590Z</time>
      </trkpt>
      <trkpt lat="45.54849" lon="5.53219">
        <ele>405</ele>
        <time>2021-04-03T13:12:01.589Z</time>
      </trkpt>
      <trkpt lat="45.5485" lon="5.53216">
        <ele>405</ele>
        <time>2021-04-03T13:12:02.590Z</time>
      </trkpt>
      <trkpt lat="45.5485" lon="5.53211">
        <ele>405</ele>
        <time>2021-04-03T13:12:03.590Z</time>
      </trkpt>
      <trkpt lat="45.54851" lon="5.53207">
        <ele>405</ele>
        <time>2021-04-03T13:12:04.590Z</time>
      </trkpt>
      <trkpt lat="45.54851" lon="5.53202">
        <ele>405</ele>
        <time>2021-04-03T13:12:05.589Z</time>
      </trkpt>
      <trkpt lat="45.54852" lon="5.53197">
        <ele>405</ele>
        <time>2021-04-03T13:12:06.590Z</time>
      </trkpt>
      <trkpt lat="45.54852" lon="5.53192">
        <ele>406</ele>
        <time>2021-04-03T13:12:07.590Z</time>
      </trkpt>
      <trkpt lat="45.54851" lon="5.53187">
        <ele>406</ele>
        <time>2021-04-03T13:12:08.590Z</time>
      </trkpt>
      <trkpt lat="45.54851" lon="5.53182">
        <ele>406</ele>
        <time>2021-04-03T13:12:09.590Z</time>
      </trkpt>
      <trkpt lat="45.54851" lon="5.53178">
        <ele>406</ele>
        <time>2021-04-03T13:12:10.590Z</time>
      </trkpt>
      <trkpt lat="45.54851" lon="5.53173">
        <ele>407</ele>
        <time>2021-04-03T13:12:11.589Z</time>
      </trkpt>
      <trkpt lat="45.54852" lon="5.53169">
        <ele>407</ele>
        <time>2021-04-03T13:12:12.590Z</time>
      </trkpt>
      <trkpt lat="45.54852" lon="5.53164">
        <ele>407</ele>
        <time>2021-04-03T13:12:13.589Z</time>
      </trkpt>
      <trkpt lat="45.54852" lon="5.5316">
        <ele>407</ele>
        <time>2021-04-03T13:12:14.590Z</time>
      </trkpt>
      <trkpt lat="45.54853" lon="5.53155">
        <ele>408</ele>
        <time>2021-04-03T13:12:15.590Z</time>
      </trkpt>
      <trkpt lat="45.54853" lon="5.53151">
        <ele>408</ele>
        <time>2021-04-03T13:12:16.590Z</time>
      </trkpt>
      <trkpt lat="45.54854" lon="5.53147">
        <ele>407</ele>
        <time>2021-04-03T13:12:17.589Z</time>
      </trkpt>
      <trkpt lat="45.54854" lon="5.53142">
        <ele>408</ele>
        <time>2021-04-03T13:12:18.589Z</time>
      </trkpt>
      <trkpt lat="45.54854" lon="5.53138">
        <ele>408</ele>
        <time>2021-04-03T13:12:19.590Z</time>
      </trkpt>
      <trkpt lat="45.54855" lon="5.53133">
        <ele>408</ele>
        <time>2021-04-03T13:12:20.590Z</time>
      </trkpt>
      <trkpt lat="45.54855" lon="5.53129">
        <ele>408</ele>
        <time>2021-04-03T13:12:21.590Z</time>
      </trkpt>
      <trkpt lat="45.54856" lon="5.53124">
        <ele>408</ele>
        <time>2021-04-03T13:12:22.590Z</time>
      </trkpt>
      <trkpt lat="45.54857" lon="5.5312">
        <ele>408</ele>
        <time>2021-04-03T13:12:23.589Z</time>
      </trkpt>
      <trkpt lat="45.54858" lon="5.53116">
        <ele>408</ele>
        <time>2021-04-03T13:12:24.590Z</time>
      </trkpt>
      <trkpt lat="45.5486" lon="5.53111">
        <ele>408</ele>
        <time>2021-04-03T13:12:25.590Z</time>
      </trkpt>
      <trkpt lat="45.54863" lon="5.53107">
        <ele>408</ele>
        <time>2021-04-03T13:12:26.590Z</time>
      </trkpt>
      <trkpt lat="45.54864" lon="5.53103">
        <ele>409</ele>
        <time>2021-04-03T13:12:27.589Z</time>
      </trkpt>
      <trkpt lat="45.54863" lon="5.53098">
        <ele>409</ele>
        <time>2021-04-03T13:12:28.590Z</time>
      </trkpt>
      <trkpt lat="45.54863" lon="5.53094">
        <ele>410</ele>
        <time>2021-04-03T13:12:29.589Z</time>
      </trkpt>
      <trkpt lat="45.54864" lon="5.53089">
        <ele>410</ele>
        <time>2021-04-03T13:12:30.590Z</time>
      </trkpt>
      <trkpt lat="45.54864" lon="5.53084">
        <ele>410</ele>
        <time>2021-04-03T13:12:31.590Z</time>
      </trkpt>
      <trkpt lat="45.54865" lon="5.53079">
        <ele>411</ele>
        <time>2021-04-03T13:12:32.589Z</time>
      </trkpt>
      <trkpt lat="45.54865" lon="5.53074">
        <ele>411</ele>
        <time>2021-04-03T13:12:33.590Z</time>
      </trkpt>
      <trkpt lat="45.54865" lon="5.5307">
        <ele>411</ele>
        <time>2021-04-03T13:12:34.590Z</time>
      </trkpt>
      <trkpt lat="45.54866" lon="5.53065">
        <ele>411</ele>
        <time>2021-04-03T13:12:35.590Z</time>
      </trkpt>
      <trkpt lat="45.54866" lon="5.5306">
        <ele>410</ele>
        <time>2021-04-03T13:12:36.590Z</time>
      </trkpt>
      <trkpt lat="45.54867" lon="5.53055">
        <ele>411</ele>
        <time>2021-04-03T13:12:37.590Z</time>
      </trkpt>
      <trkpt lat="45.54867" lon="5.5305">
        <ele>411</ele>
        <time>2021-04-03T13:12:38.590Z</time>
      </trkpt>
      <trkpt lat="45.54867" lon="5.53044">
        <ele>411</ele>
        <time>2021-04-03T13:12:39.590Z</time>
      </trkpt>
      <trkpt lat="45.54867" lon="5.53039">
        <ele>411</ele>
        <time>2021-04-03T13:12:40.589Z</time>
      </trkpt>
      <trkpt lat="45.54866" lon="5.53033">
        <ele>411</ele>
        <time>2021-04-03T13:12:41.590Z</time>
      </trkpt>
      <trkpt lat="45.54866" lon="5.53028">
        <ele>411</ele>
        <time>2021-04-03T13:12:42.590Z</time>
      </trkpt>
      <trkpt lat="45.54866" lon="5.53022">
        <ele>411</ele>
        <time>2021-04-03T13:12:43.590Z</time>
      </trkpt>
      <trkpt lat="45.54867" lon="5.53017">
        <ele>411</ele>
        <time>2021-04-03T13:12:44.590Z</time>
      </trkpt>
      <trkpt lat="45.54867" lon="5.53012">
        <ele>411</ele>
        <time>2021-04-03T13:12:45.589Z</time>
      </trkpt>
      <trkpt lat="45.54867" lon="5.53006">
        <ele>411</ele>
        <time>2021-04-03T13:12:46.589Z</time>
      </trkpt>
      <trkpt lat="45.54867" lon="5.53001">
        <ele>410</ele>
        <time>2021-04-03T13:12:47.589Z</time>
      </trkpt>
      <trkpt lat="45.54867" lon="5.52995">
        <ele>410</ele>
        <time>2021-04-03T13:12:48.590Z</time>
      </trkpt>
      <trkpt lat="45.54868" lon="5.5299">
        <ele>409</ele>
        <time>2021-04-03T13:12:49.590Z</time>
      </trkpt>
      <trkpt lat="45.54868" lon="5.52984">
        <ele>409</ele>
        <time>2021-04-03T13:12:50.590Z</time>
      </trkpt>
      <trkpt lat="45.54867" lon="5.52979">
        <ele>409</ele>
        <time>2021-04-03T13:12:51.590Z</time>
      </trkpt>
      <trkpt lat="45.54867" lon="5.52973">
        <ele>409</ele>
        <time>2021-04-03T13:12:52.590Z</time>
      </trkpt>
      <trkpt lat="45.54867" lon="5.52968">
        <ele>409</ele>
        <time>2021-04-03T13:12:53.590Z</time>
      </trkpt>
      <trkpt lat="45.54867" lon="5.52962">
        <ele>409</ele>
        <time>2021-04-03T13:12:54.590Z</time>
      </trkpt>
      <trkpt lat="45.54868" lon="5.52957">
        <ele>409</ele>
        <time>2021-04-03T13:12:55.590Z</time>
      </trkpt>
      <trkpt lat="45.54868" lon="5.52951">
        <ele>409</ele>
        <time>2021-04-03T13:12:56.590Z</time>
      </trkpt>
      <trkpt lat="45.54867" lon="5.52945">
        <ele>409</ele>
        <time>2021-04-03T13:12:57.589Z</time>
      </trkpt>
      <trkpt lat="45.54867" lon="5.52939">
        <ele>409</ele>
        <time>2021-04-03T13:12:58.590Z</time>
      </trkpt>
      <trkpt lat="45.54867" lon="5.52933">
        <ele>410</ele>
        <time>2021-04-03T13:12:59.590Z</time>
      </trkpt>
      <trkpt lat="45.54867" lon="5.52927">
        <ele>410</ele>
        <time>2021-04-03T13:13:00.590Z</time>
      </trkpt>
      <trkpt lat="45.54867" lon="5.52922">
        <ele>410</ele>
        <time>2021-04-03T13:13:01.590Z</time>
      </trkpt>
      <trkpt lat="45.54867" lon="5.52916">
        <ele>410</ele>
        <time>2021-04-03T13:13:02.590Z</time>
      </trkpt>
      <trkpt lat="45.54867" lon="5.5291">
        <ele>410</ele>
        <time>2021-04-03T13:13:03.590Z</time>
      </trkpt>
      <trkpt lat="45.54867" lon="5.52903">
        <ele>410</ele>
        <time>2021-04-03T13:13:04.590Z</time>
      </trkpt>
      <trkpt lat="45.54867" lon="5.52897">
        <ele>410</ele>
        <time>2021-04-03T13:13:05.589Z</time>
      </trkpt>
      <trkpt lat="45.54867" lon="5.52891">
        <ele>410</ele>
        <time>2021-04-03T13:13:06.590Z</time>
      </trkpt>
      <trkpt lat="45.54867" lon="5.52885">
        <ele>410</ele>
        <time>2021-04-03T13:13:07.590Z</time>
      </trkpt>
      <trkpt lat="45.54867" lon="5.52879">
        <ele>410</ele>
        <time>2021-04-03T13:13:08.590Z</time>
      </trkpt>
      <trkpt lat="45.54867" lon="5.52872">
        <ele>410</ele>
        <time>2021-04-03T13:13:09.590Z</time>
      </trkpt>
      <trkpt lat="45.54868" lon="5.52866">
        <ele>409</ele>
        <time>2021-04-03T13:13:10.590Z</time>
      </trkpt>
      <trkpt lat="45.54868" lon="5.5286">
        <ele>409</ele>
        <time>2021-04-03T13:13:11.590Z</time>
      </trkpt>
      <trkpt lat="45.54868" lon="5.52854">
        <ele>408</ele>
        <time>2021-04-03T13:13:12.590Z</time>
      </trkpt>
      <trkpt lat="45.54869" lon="5.52848">
        <ele>408</ele>
        <time>2021-04-03T13:13:13.590Z</time>
      </trkpt>
      <trkpt lat="45.54869" lon="5.52841">
        <ele>408</ele>
        <time>2021-04-03T13:13:14.590Z</time>
      </trkpt>
      <trkpt lat="45.54868" lon="5.52836">
        <ele>408</ele>
        <time>2021-04-03T13:13:15.590Z</time>
      </trkpt>
      <trkpt lat="45.54868" lon="5.5283">
        <ele>408</ele>
        <time>2021-04-03T13:13:16.590Z</time>
      </trkpt>
      <trkpt lat="45.54868" lon="5.52824">
        <ele>408</ele>
        <time>2021-04-03T13:13:17.590Z</time>
      </trkpt>
      <trkpt lat="45.54868" lon="5.52818">
        <ele>408</ele>
        <time>2021-04-03T13:13:18.590Z</time>
      </trkpt>
      <trkpt lat="45.54868" lon="5.52811">
        <ele>408</ele>
        <time>2021-04-03T13:13:19.590Z</time>
      </trkpt>
      <trkpt lat="45.54867" lon="5.52805">
        <ele>408</ele>
        <time>2021-04-03T13:13:20.590Z</time>
      </trkpt>
      <trkpt lat="45.54867" lon="5.52799">
        <ele>408</ele>
        <time>2021-04-03T13:13:21.590Z</time>
      </trkpt>
      <trkpt lat="45.54867" lon="5.52793">
        <ele>409</ele>
        <time>2021-04-03T13:13:22.590Z</time>
      </trkpt>
      <trkpt lat="45.54866" lon="5.52786">
        <ele>409</ele>
        <time>2021-04-03T13:13:23.590Z</time>
      </trkpt>
      <trkpt lat="45.54866" lon="5.52779">
        <ele>410</ele>
        <time>2021-04-03T13:13:24.590Z</time>
      </trkpt>
      <trkpt lat="45.54865" lon="5.52773">
        <ele>410</ele>
        <time>2021-04-03T13:13:25.590Z</time>
      </trkpt>
      <trkpt lat="45.54864" lon="5.52766">
        <ele>410</ele>
        <time>2021-04-03T13:13:26.590Z</time>
      </trkpt>
      <trkpt lat="45.54863" lon="5.52758">
        <ele>410</ele>
        <time>2021-04-03T13:13:27.590Z</time>
      </trkpt>
      <trkpt lat="45.54863" lon="5.52752">
        <ele>410</ele>
        <time>2021-04-03T13:13:28.590Z</time>
      </trkpt>
      <trkpt lat="45.54862" lon="5.52745">
        <ele>411</ele>
        <time>2021-04-03T13:13:29.589Z</time>
      </trkpt>
      <trkpt lat="45.54862" lon="5.52737">
        <ele>411</ele>
        <time>2021-04-03T13:13:30.590Z</time>
      </trkpt>
      <trkpt lat="45.54861" lon="5.5273">
        <ele>411</ele>
        <time>2021-04-03T13:13:31.590Z</time>
      </trkpt>
      <trkpt lat="45.5486" lon="5.52722">
        <ele>410</ele>
        <time>2021-04-03T13:13:32.590Z</time>
      </trkpt>
      <trkpt lat="45.54858" lon="5.52714">
        <ele>410</ele>
        <time>2021-04-03T13:13:33.590Z</time>
      </trkpt>
      <trkpt lat="45.54857" lon="5.52706">
        <ele>410</ele>
        <time>2021-04-03T13:13:34.589Z</time>
      </trkpt>
      <trkpt lat="45.54856" lon="5.52698">
        <ele>410</ele>
        <time>2021-04-03T13:13:35.590Z</time>
      </trkpt>
      <trkpt lat="45.54855" lon="5.5269">
        <ele>410</ele>
        <time>2021-04-03T13:13:36.589Z</time>
      </trkpt>
      <trkpt lat="45.54853" lon="5.52682">
        <ele>410</ele>
        <time>2021-04-03T13:13:37.590Z</time>
      </trkpt>
      <trkpt lat="45.54852" lon="5.52674">
        <ele>410</ele>
        <time>2021-04-03T13:13:38.590Z</time>
      </trkpt>
      <trkpt lat="45.5485" lon="5.52666">
        <ele>410</ele>
        <time>2021-04-03T13:13:39.589Z</time>
      </trkpt>
      <trkpt lat="45.54849" lon="5.52658">
        <ele>409</ele>
        <time>2021-04-03T13:13:40.590Z</time>
      </trkpt>
      <trkpt lat="45.54848" lon="5.52651">
        <ele>409</ele>
        <time>2021-04-03T13:13:41.590Z</time>
      </trkpt>
      <trkpt lat="45.54846" lon="5.52643">
        <ele>408</ele>
        <time>2021-04-03T13:13:42.590Z</time>
      </trkpt>
      <trkpt lat="45.54845" lon="5.52636">
        <ele>408</ele>
        <time>2021-04-03T13:13:43.590Z</time>
      </trkpt>
      <trkpt lat="45.54843" lon="5.52628">
        <ele>408</ele>
        <time>2021-04-03T13:13:44.589Z</time>
      </trkpt>
      <trkpt lat="45.54841" lon="5.52621">
        <ele>409</ele>
        <time>2021-04-03T13:13:45.590Z</time>
      </trkpt>
      <trkpt lat="45.5484" lon="5.52614">
        <ele>409</ele>
        <time>2021-04-03T13:13:46.590Z</time>
      </trkpt>
      <trkpt lat="45.54838" lon="5.52607">
        <ele>409</ele>
        <time>2021-04-03T13:13:47.589Z</time>
      </trkpt>
      <trkpt lat="45.54836" lon="5.52601">
        <ele>409</ele>
        <time>2021-04-03T13:13:48.590Z</time>
      </trkpt>
      <trkpt lat="45.54835" lon="5.52594">
        <ele>409</ele>
        <time>2021-04-03T13:13:49.590Z</time>
      </trkpt>
      <trkpt lat="45.54834" lon="5.52588">
        <ele>409</ele>
        <time>2021-04-03T13:13:50.590Z</time>
      </trkpt>
      <trkpt lat="45.54833" lon="5.52582">
        <ele>408</ele>
        <time>2021-04-03T13:13:51.590Z</time>
      </trkpt>
      <trkpt lat="45.54832" lon="5.52576">
        <ele>408</ele>
        <time>2021-04-03T13:13:52.590Z</time>
      </trkpt>
      <trkpt lat="45.54831" lon="5.5257">
        <ele>407</ele>
        <time>2021-04-03T13:13:53.589Z</time>
      </trkpt>
      <trkpt lat="45.54829" lon="5.52565">
        <ele>407</ele>
        <time>2021-04-03T13:13:54.590Z</time>
      </trkpt>
      <trkpt lat="45.54828" lon="5.52559">
        <ele>407</ele>
        <time>2021-04-03T13:13:55.590Z</time>
      </trkpt>
      <trkpt lat="45.54827" lon="5.52553">
        <ele>407</ele>
        <time>2021-04-03T13:13:56.590Z</time>
      </trkpt>
      <trkpt lat="45.54826" lon="5.52547">
        <ele>407</ele>
        <time>2021-04-03T13:13:57.590Z</time>
      </trkpt>
      <trkpt lat="45.54824" lon="5.52541">
        <ele>407</ele>
        <time>2021-04-03T13:13:58.590Z</time>
      </trkpt>
      <trkpt lat="45.54823" lon="5.52534">
        <ele>407</ele>
        <time>2021-04-03T13:13:59.590Z</time>
      </trkpt>
      <trkpt lat="45.54822" lon="5.52527">
        <ele>407</ele>
        <time>2021-04-03T13:14:00.590Z</time>
      </trkpt>
      <trkpt lat="45.54821" lon="5.52521">
        <ele>407</ele>
        <time>2021-04-03T13:14:01.590Z</time>
      </trkpt>
      <trkpt lat="45.54819" lon="5.52514">
        <ele>408</ele>
        <time>2021-04-03T13:14:02.590Z</time>
      </trkpt>
      <trkpt lat="45.54818" lon="5.52507">
        <ele>408</ele>
        <time>2021-04-03T13:14:03.589Z</time>
      </trkpt>
      <trkpt lat="45.54817" lon="5.525">
        <ele>408</ele>
        <time>2021-04-03T13:14:04.589Z</time>
      </trkpt>
      <trkpt lat="45.54815" lon="5.52494">
        <ele>408</ele>
        <time>2021-04-03T13:14:05.590Z</time>
      </trkpt>
      <trkpt lat="45.54814" lon="5.52487">
        <ele>408</ele>
        <time>2021-04-03T13:14:06.590Z</time>
      </trkpt>
      <trkpt lat="45.54813" lon="5.5248">
        <ele>408</ele>
        <time>2021-04-03T13:14:07.589Z</time>
      </trkpt>
      <trkpt lat="45.54812" lon="5.52474">
        <ele>409</ele>
        <time>2021-04-03T13:14:08.590Z</time>
      </trkpt>
      <trkpt lat="45.54811" lon="5.52467">
        <ele>409</ele>
        <time>2021-04-03T13:14:09.590Z</time>
      </trkpt>
      <trkpt lat="45.5481" lon="5.5246">
        <ele>409</ele>
        <time>2021-04-03T13:14:10.590Z</time>
      </trkpt>
      <trkpt lat="45.54809" lon="5.52454">
        <ele>410</ele>
        <time>2021-04-03T13:14:11.590Z</time>
      </trkpt>
      <trkpt lat="45.54808" lon="5.52447">
        <ele>410</ele>
        <time>2021-04-03T13:14:12.590Z</time>
      </trkpt>
      <trkpt lat="45.54807" lon="5.5244">
        <ele>410</ele>
        <time>2021-04-03T13:14:13.589Z</time>
      </trkpt>
      <trkpt lat="45.54806" lon="5.52432">
        <ele>410</ele>
        <time>2021-04-03T13:14:14.590Z</time>
      </trkpt>
      <trkpt lat="45.54806" lon="5.52425">
        <ele>410</ele>
        <time>2021-04-03T13:14:15.589Z</time>
      </trkpt>
      <trkpt lat="45.54805" lon="5.52418">
        <ele>409</ele>
        <time>2021-04-03T13:14:16.589Z</time>
      </trkpt>
      <trkpt lat="45.54804" lon="5.5241">
        <ele>409</ele>
        <time>2021-04-03T13:14:17.589Z</time>
      </trkpt>
      <trkpt lat="45.54803" lon="5.52402">
        <ele>409</ele>
        <time>2021-04-03T13:14:18.589Z</time>
      </trkpt>
      <trkpt lat="45.54802" lon="5.52394">
        <ele>409</ele>
        <time>2021-04-03T13:14:19.589Z</time>
      </trkpt>
      <trkpt lat="45.54801" lon="5.52387">
        <ele>409</ele>
        <time>2021-04-03T13:14:20.590Z</time>
      </trkpt>
      <trkpt lat="45.548" lon="5.52379">
        <ele>408</ele>
        <time>2021-04-03T13:14:21.590Z</time>
      </trkpt>
      <trkpt lat="45.54799" lon="5.52372">
        <ele>408</ele>
        <time>2021-04-03T13:14:22.589Z</time>
      </trkpt>
      <trkpt lat="45.54798" lon="5.52365">
        <ele>407</ele>
        <time>2021-04-03T13:14:23.590Z</time>
      </trkpt>
      <trkpt lat="45.54797" lon="5.52358">
        <ele>408</ele>
        <time>2021-04-03T13:14:24.590Z</time>
      </trkpt>
      <trkpt lat="45.54796" lon="5.52352">
        <ele>408</ele>
        <time>2021-04-03T13:14:25.590Z</time>
      </trkpt>
      <trkpt lat="45.54795" lon="5.52345">
        <ele>408</ele>
        <time>2021-04-03T13:14:26.590Z</time>
      </trkpt>
      <trkpt lat="45.54795" lon="5.52338">
        <ele>408</ele>
        <time>2021-04-03T13:14:27.590Z</time>
      </trkpt>
      <trkpt lat="45.54794" lon="5.52332">
        <ele>408</ele>
        <time>2021-04-03T13:14:28.590Z</time>
      </trkpt>
      <trkpt lat="45.54794" lon="5.52325">
        <ele>409</ele>
        <time>2021-04-03T13:14:29.590Z</time>
      </trkpt>
      <trkpt lat="45.54793" lon="5.52319">
        <ele>409</ele>
        <time>2021-04-03T13:14:30.589Z</time>
      </trkpt>
      <trkpt lat="45.54793" lon="5.52312">
        <ele>409</ele>
        <time>2021-04-03T13:14:31.590Z</time>
      </trkpt>
      <trkpt lat="45.54792" lon="5.52306">
        <ele>409</ele>
        <time>2021-04-03T13:14:32.590Z</time>
      </trkpt>
      <trkpt lat="45.54792" lon="5.52299">
        <ele>409</ele>
        <time>2021-04-03T13:14:33.590Z</time>
      </trkpt>
      <trkpt lat="45.54791" lon="5.52292">
        <ele>409</ele>
        <time>2021-04-03T13:14:34.590Z</time>
      </trkpt>
      <trkpt lat="45.54791" lon="5.52286">
        <ele>409</ele>
        <time>2021-04-03T13:14:35.590Z</time>
      </trkpt>
      <trkpt lat="45.54791" lon="5.52279">
        <ele>409</ele>
        <time>2021-04-03T13:14:36.589Z</time>
      </trkpt>
      <trkpt lat="45.54791" lon="5.52273">
        <ele>409</ele>
        <time>2021-04-03T13:14:37.590Z</time>
      </trkpt>
      <trkpt lat="45.54792" lon="5.52268">
        <ele>409</ele>
        <time>2021-04-03T13:14:38.589Z</time>
      </trkpt>
      <trkpt lat="45.54793" lon="5.52264">
        <ele>409</ele>
        <time>2021-04-03T13:14:39.590Z</time>
      </trkpt>
      <trkpt lat="45.54795" lon="5.52259">
        <ele>409</ele>
        <time>2021-04-03T13:14:40.590Z</time>
      </trkpt>
      <trkpt lat="45.54797" lon="5.52255">
        <ele>409</ele>
        <time>2021-04-03T13:14:41.590Z</time>
      </trkpt>
      <trkpt lat="45.54799" lon="5.52252">
        <ele>409</ele>
        <time>2021-04-03T13:14:42.590Z</time>
      </trkpt>
      <trkpt lat="45.54802" lon="5.5225">
        <ele>409</ele>
        <time>2021-04-03T13:14:43.589Z</time>
      </trkpt>
      <trkpt lat="45.54806" lon="5.52248">
        <ele>409</ele>
        <time>2021-04-03T13:14:44.589Z</time>
      </trkpt>
      <trkpt lat="45.5481" lon="5.52246">
        <ele>409</ele>
        <time>2021-04-03T13:14:45.590Z</time>
      </trkpt>
      <trkpt lat="45.54814" lon="5.52244">
        <ele>410</ele>
        <time>2021-04-03T13:14:46.590Z</time>
      </trkpt>
      <trkpt lat="45.54817" lon="5.52244">
        <ele>410</ele>
        <time>2021-04-03T13:14:47.590Z</time>
      </trkpt>
      <trkpt lat="45.54821" lon="5.52245">
        <ele>410</ele>
        <time>2021-04-03T13:14:48.590Z</time>
      </trkpt>
      <trkpt lat="45.54826" lon="5.52247">
        <ele>410</ele>
        <time>2021-04-03T13:14:49.590Z</time>
      </trkpt>
      <trkpt lat="45.54831" lon="5.52249">
        <ele>410</ele>
        <time>2021-04-03T13:14:50.590Z</time>
      </trkpt>
      <trkpt lat="45.54835" lon="5.52251">
        <ele>410</ele>
        <time>2021-04-03T13:14:51.589Z</time>
      </trkpt>
      <trkpt lat="45.54839" lon="5.52253">
        <ele>410</ele>
        <time>2021-04-03T13:14:52.589Z</time>
      </trkpt>
      <trkpt lat="45.54844" lon="5.52253">
        <ele>410</ele>
        <time>2021-04-03T13:14:53.590Z</time>
      </trkpt>
      <trkpt lat="45.54848" lon="5.52252">
        <ele>410</ele>
        <time>2021-04-03T13:14:54.590Z</time>
      </trkpt>
      <trkpt lat="45.54854" lon="5.52252">
        <ele>410</ele>
        <time>2021-04-03T13:14:55.589Z</time>
      </trkpt>
      <trkpt lat="45.54858" lon="5.5225">
        <ele>410</ele>
        <time>2021-04-03T13:14:56.590Z</time>
      </trkpt>
      <trkpt lat="45.54861" lon="5.52249">
        <ele>410</ele>
        <time>2021-04-03T13:14:57.590Z</time>
      </trkpt>
      <trkpt lat="45.54865" lon="5.52247">
        <ele>410</ele>
        <time>2021-04-03T13:14:58.589Z</time>
      </trkpt>
      <trkpt lat="45.54869" lon="5.52244">
        <ele>410</ele>
        <time>2021-04-03T13:14:59.589Z</time>
      </trkpt>
      <trkpt lat="45.54873" lon="5.52242">
        <ele>410</ele>
        <time>2021-04-03T13:15:00.590Z</time>
      </trkpt>
      <trkpt lat="45.54876" lon="5.5224">
        <ele>409</ele>
        <time>2021-04-03T13:15:01.590Z</time>
      </trkpt>
      <trkpt lat="45.5488" lon="5.52238">
        <ele>409</ele>
        <time>2021-04-03T13:15:02.590Z</time>
      </trkpt>
      <trkpt lat="45.54885" lon="5.52235">
        <ele>409</ele>
        <time>2021-04-03T13:15:03.590Z</time>
      </trkpt>
      <trkpt lat="45.54888" lon="5.52233">
        <ele>409</ele>
        <time>2021-04-03T13:15:04.590Z</time>
      </trkpt>
      <trkpt lat="45.54892" lon="5.5223">
        <ele>409</ele>
        <time>2021-04-03T13:15:05.589Z</time>
      </trkpt>
      <trkpt lat="45.54896" lon="5.52228">
        <ele>409</ele>
        <time>2021-04-03T13:15:06.590Z</time>
      </trkpt>
      <trkpt lat="45.549" lon="5.52225">
        <ele>409</ele>
        <time>2021-04-03T13:15:07.590Z</time>
      </trkpt>
      <trkpt lat="45.54904" lon="5.52222">
        <ele>409</ele>
        <time>2021-04-03T13:15:08.590Z</time>
      </trkpt>
      <trkpt lat="45.54907" lon="5.5222">
        <ele>409</ele>
        <time>2021-04-03T13:15:09.589Z</time>
      </trkpt>
      <trkpt lat="45.5491" lon="5.52217">
        <ele>410</ele>
        <time>2021-04-03T13:15:10.590Z</time>
      </trkpt>
      <trkpt lat="45.54914" lon="5.52215">
        <ele>410</ele>
        <time>2021-04-03T13:15:11.590Z</time>
      </trkpt>
      <trkpt lat="45.54919" lon="5.52212">
        <ele>410</ele>
        <time>2021-04-03T13:15:12.589Z</time>
      </trkpt>
      <trkpt lat="45.54923" lon="5.52209">
        <ele>410</ele>
        <time>2021-04-03T13:15:13.590Z</time>
      </trkpt>
      <trkpt lat="45.54927" lon="5.52207">
        <ele>410</ele>
        <time>2021-04-03T13:15:14.590Z</time>
      </trkpt>
      <trkpt lat="45.5493" lon="5.52205">
        <ele>410</ele>
        <time>2021-04-03T13:15:15.590Z</time>
      </trkpt>
      <trkpt lat="45.54934" lon="5.52202">
        <ele>411</ele>
        <time>2021-04-03T13:15:16.590Z</time>
      </trkpt>
      <trkpt lat="45.54937" lon="5.522">
        <ele>411</ele>
        <time>2021-04-03T13:15:17.590Z</time>
      </trkpt>
      <trkpt lat="45.54941" lon="5.52198">
        <ele>411</ele>
        <time>2021-04-03T13:15:18.590Z</time>
      </trkpt>
      <trkpt lat="45.54946" lon="5.52195">
        <ele>412</ele>
        <time>2021-04-03T13:15:19.589Z</time>
      </trkpt>
      <trkpt lat="45.54949" lon="5.52193">
        <ele>412</ele>
        <time>2021-04-03T13:15:20.589Z</time>
      </trkpt>
      <trkpt lat="45.54954" lon="5.5219">
        <ele>413</ele>
        <time>2021-04-03T13:15:21.590Z</time>
      </trkpt>
      <trkpt lat="45.54958" lon="5.52188">
        <ele>413</ele>
        <time>2021-04-03T13:15:22.590Z</time>
      </trkpt>
      <trkpt lat="45.54962" lon="5.52186">
        <ele>414</ele>
        <time>2021-04-03T13:15:23.589Z</time>
      </trkpt>
      <trkpt lat="45.54965" lon="5.52184">
        <ele>414</ele>
        <time>2021-04-03T13:15:24.590Z</time>
      </trkpt>
      <trkpt lat="45.5497" lon="5.52182">
        <ele>414</ele>
        <time>2021-04-03T13:15:25.590Z</time>
      </trkpt>
      <trkpt lat="45.54973" lon="5.5218">
        <ele>414</ele>
        <time>2021-04-03T13:15:26.590Z</time>
      </trkpt>
      <trkpt lat="45.54977" lon="5.52178">
        <ele>415</ele>
        <time>2021-04-03T13:15:27.589Z</time>
      </trkpt>
      <trkpt lat="45.54981" lon="5.52176">
        <ele>415</ele>
        <time>2021-04-03T13:15:28.589Z</time>
      </trkpt>
      <trkpt lat="45.54984" lon="5.52174">
        <ele>415</ele>
        <time>2021-04-03T13:15:29.589Z</time>
      </trkpt>
      <trkpt lat="45.54989" lon="5.52171">
        <ele>415</ele>
        <time>2021-04-03T13:15:30.590Z</time>
      </trkpt>
      <trkpt lat="45.54993" lon="5.52169">
        <ele>415</ele>
        <time>2021-04-03T13:15:31.590Z</time>
      </trkpt>
      <trkpt lat="45.54997" lon="5.52167">
        <ele>415</ele>
        <time>2021-04-03T13:15:32.590Z</time>
      </trkpt>
      <trkpt lat="45.55001" lon="5.52166">
        <ele>415</ele>
        <time>2021-04-03T13:15:33.590Z</time>
      </trkpt>
      <trkpt lat="45.55006" lon="5.52164">
        <ele>415</ele>
        <time>2021-04-03T13:15:34.589Z</time>
      </trkpt>
      <trkpt lat="45.5501" lon="5.52162">
        <ele>414</ele>
        <time>2021-04-03T13:15:35.589Z</time>
      </trkpt>
      <trkpt lat="45.55015" lon="5.5216">
        <ele>414</ele>
        <time>2021-04-03T13:15:36.590Z</time>
      </trkpt>
      <trkpt lat="45.55019" lon="5.52158">
        <ele>414</ele>
        <time>2021-04-03T13:15:37.590Z</time>
      </trkpt>
      <trkpt lat="45.55024" lon="5.52156">
        <ele>414</ele>
        <time>2021-04-03T13:15:38.590Z</time>
      </trkpt>
      <trkpt lat="45.55028" lon="5.52154">
        <ele>413</ele>
        <time>2021-04-03T13:15:39.590Z</time>
      </trkpt>
      <trkpt lat="45.55033" lon="5.52152">
        <ele>413</ele>
        <time>2021-04-03T13:15:40.590Z</time>
      </trkpt>
      <trkpt lat="45.55039" lon="5.5215">
        <ele>413</ele>
        <time>2021-04-03T13:15:41.590Z</time>
      </trkpt>
      <trkpt lat="45.55043" lon="5.52149">
        <ele>413</ele>
        <time>2021-04-03T13:15:42.590Z</time>
      </trkpt>
      <trkpt lat="45.55048" lon="5.52147">
        <ele>414</ele>
        <time>2021-04-03T13:15:43.590Z</time>
      </trkpt>
      <trkpt lat="45.55053" lon="5.52146">
        <ele>414</ele>
        <time>2021-04-03T13:15:44.590Z</time>
      </trkpt>
      <trkpt lat="45.5506" lon="5.52144">
        <ele>413</ele>
        <time>2021-04-03T13:15:45.589Z</time>
      </trkpt>
      <trkpt lat="45.55065" lon="5.52142">
        <ele>413</ele>
        <time>2021-04-03T13:15:46.590Z</time>
      </trkpt>
      <trkpt lat="45.55069" lon="5.52141">
        <ele>413</ele>
        <time>2021-04-03T13:15:47.589Z</time>
      </trkpt>
      <trkpt lat="45.55075" lon="5.52139">
        <ele>413</ele>
        <time>2021-04-03T13:15:48.589Z</time>
      </trkpt>
      <trkpt lat="45.55081" lon="5.52137">
        <ele>413</ele>
        <time>2021-04-03T13:15:49.590Z</time>
      </trkpt>
      <trkpt lat="45.55086" lon="5.52136">
        <ele>414</ele>
        <time>2021-04-03T13:15:50.589Z</time>
      </trkpt>
      <trkpt lat="45.55089" lon="5.52134">
        <ele>414</ele>
        <time>2021-04-03T13:15:51.590Z</time>
      </trkpt>
      <trkpt lat="45.55095" lon="5.52132">
        <ele>414</ele>
        <time>2021-04-03T13:15:52.590Z</time>
      </trkpt>
      <trkpt lat="45.55099" lon="5.52131">
        <ele>414</ele>
        <time>2021-04-03T13:15:53.590Z</time>
      </trkpt>
      <trkpt lat="45.55104" lon="5.52129">
        <ele>414</ele>
        <time>2021-04-03T13:15:54.590Z</time>
      </trkpt>
      <trkpt lat="45.55108" lon="5.52128">
        <ele>414</ele>
        <time>2021-04-03T13:15:55.590Z</time>
      </trkpt>
      <trkpt lat="45.55111" lon="5.52126">
        <ele>414</ele>
        <time>2021-04-03T13:15:56.589Z</time>
      </trkpt>
      <trkpt lat="45.55116" lon="5.52123">
        <ele>414</ele>
        <time>2021-04-03T13:15:57.590Z</time>
      </trkpt>
      <trkpt lat="45.5512" lon="5.5212">
        <ele>413</ele>
        <time>2021-04-03T13:15:58.589Z</time>
      </trkpt>
      <trkpt lat="45.55123" lon="5.52117">
        <ele>413</ele>
        <time>2021-04-03T13:15:59.590Z</time>
      </trkpt>
      <trkpt lat="45.55126" lon="5.52113">
        <ele>413</ele>
        <time>2021-04-03T13:16:00.590Z</time>
      </trkpt>
      <trkpt lat="45.5513" lon="5.52108">
        <ele>413</ele>
        <time>2021-04-03T13:16:01.590Z</time>
      </trkpt>
      <trkpt lat="45.55132" lon="5.52104">
        <ele>413</ele>
        <time>2021-04-03T13:16:02.589Z</time>
      </trkpt>
      <trkpt lat="45.55135" lon="5.52099">
        <ele>413</ele>
        <time>2021-04-03T13:16:03.589Z</time>
      </trkpt>
      <trkpt lat="45.55138" lon="5.52095">
        <ele>413</ele>
        <time>2021-04-03T13:16:04.590Z</time>
      </trkpt>
      <trkpt lat="45.55141" lon="5.52089">
        <ele>413</ele>
        <time>2021-04-03T13:16:05.589Z</time>
      </trkpt>
      <trkpt lat="45.55144" lon="5.52082">
        <ele>412</ele>
        <time>2021-04-03T13:16:06.590Z</time>
      </trkpt>
      <trkpt lat="45.55147" lon="5.52076">
        <ele>412</ele>
        <time>2021-04-03T13:16:07.590Z</time>
      </trkpt>
      <trkpt lat="45.55149" lon="5.5207">
        <ele>412</ele>
        <time>2021-04-03T13:16:08.589Z</time>
      </trkpt>
      <trkpt lat="45.55151" lon="5.52065">
        <ele>412</ele>
        <time>2021-04-03T13:16:09.590Z</time>
      </trkpt>
      <trkpt lat="45.55155" lon="5.52058">
        <ele>412</ele>
        <time>2021-04-03T13:16:10.590Z</time>
      </trkpt>
      <trkpt lat="45.55157" lon="5.52052">
        <ele>412</ele>
        <time>2021-04-03T13:16:11.590Z</time>
      </trkpt>
      <trkpt lat="45.5516" lon="5.52046">
        <ele>413</ele>
        <time>2021-04-03T13:16:12.590Z</time>
      </trkpt>
      <trkpt lat="45.55162" lon="5.52041">
        <ele>413</ele>
        <time>2021-04-03T13:16:13.590Z</time>
      </trkpt>
      <trkpt lat="45.55165" lon="5.52035">
        <ele>413</ele>
        <time>2021-04-03T13:16:14.590Z</time>
      </trkpt>
      <trkpt lat="45.55168" lon="5.52028">
        <ele>413</ele>
        <time>2021-04-03T13:16:15.590Z</time>
      </trkpt>
      <trkpt lat="45.55171" lon="5.52024">
        <ele>413</ele>
        <time>2021-04-03T13:16:16.590Z</time>
      </trkpt>
      <trkpt lat="45.55174" lon="5.52016">
        <ele>414</ele>
        <time>2021-04-03T13:16:17.590Z</time>
      </trkpt>
      <trkpt lat="45.55177" lon="5.52011">
        <ele>414</ele>
        <time>2021-04-03T13:16:18.590Z</time>
      </trkpt>
      <trkpt lat="45.55181" lon="5.52003">
        <ele>414</ele>
        <time>2021-04-03T13:16:19.590Z</time>
      </trkpt>
      <trkpt lat="45.55184" lon="5.51997">
        <ele>415</ele>
        <time>2021-04-03T13:16:20.590Z</time>
      </trkpt>
      <trkpt lat="45.55187" lon="5.51991">
        <ele>415</ele>
        <time>2021-04-03T13:16:21.590Z</time>
      </trkpt>
      <trkpt lat="45.5519" lon="5.51986">
        <ele>415</ele>
        <time>2021-04-03T13:16:22.590Z</time>
      </trkpt>
      <trkpt lat="45.55194" lon="5.51978">
        <ele>416</ele>
        <time>2021-04-03T13:16:23.589Z</time>
      </trkpt>
      <trkpt lat="45.55197" lon="5.51972">
        <ele>416</ele>
        <time>2021-04-03T13:16:24.590Z</time>
      </trkpt>
      <trkpt lat="45.552" lon="5.51967">
        <ele>416</ele>
        <time>2021-04-03T13:16:25.590Z</time>
      </trkpt>
      <trkpt lat="45.55203" lon="5.51961">
        <ele>415</ele>
        <time>2021-04-03T13:16:26.590Z</time>
      </trkpt>
      <trkpt lat="45.55206" lon="5.51956">
        <ele>415</ele>
        <time>2021-04-03T13:16:27.589Z</time>
      </trkpt>
      <trkpt lat="45.55209" lon="5.5195">
        <ele>415</ele>
        <time>2021-04-03T13:16:28.590Z</time>
      </trkpt>
      <trkpt lat="45.55212" lon="5.51944">
        <ele>415</ele>
        <time>2021-04-03T13:16:29.589Z</time>
      </trkpt>
      <trkpt lat="45.55215" lon="5.51938">
        <ele>415</ele>
        <time>2021-04-03T13:16:30.589Z</time>
      </trkpt>
      <trkpt lat="45.55217" lon="5.51933">
        <ele>416</ele>
        <time>2021-04-03T13:16:31.590Z</time>
      </trkpt>
      <trkpt lat="45.55221" lon="5.51927">
        <ele>416</ele>
        <time>2021-04-03T13:16:32.589Z</time>
      </trkpt>
      <trkpt lat="45.55223" lon="5.51922">
        <ele>415</ele>
        <time>2021-04-03T13:16:33.590Z</time>
      </trkpt>
      <trkpt lat="45.55226" lon="5.51917">
        <ele>415</ele>
        <time>2021-04-03T13:16:34.590Z</time>
      </trkpt>
      <trkpt lat="45.55229" lon="5.51912">
        <ele>415</ele>
        <time>2021-04-03T13:16:35.589Z</time>
      </trkpt>
      <trkpt lat="45.55232" lon="5.51907">
        <ele>415</ele>
        <time>2021-04-03T13:16:36.590Z</time>
      </trkpt>
      <trkpt lat="45.55236" lon="5.51901">
        <ele>415</ele>
        <time>2021-04-03T13:16:37.590Z</time>
      </trkpt>
      <trkpt lat="45.55239" lon="5.51896">
        <ele>415</ele>
        <time>2021-04-03T13:16:38.590Z</time>
      </trkpt>
      <trkpt lat="45.55242" lon="5.51891">
        <ele>415</ele>
        <time>2021-04-03T13:16:39.590Z</time>
      </trkpt>
      <trkpt lat="45.55244" lon="5.51887">
        <ele>414</ele>
        <time>2021-04-03T13:16:40.590Z</time>
      </trkpt>
      <trkpt lat="45.55247" lon="5.5188">
        <ele>415</ele>
        <time>2021-04-03T13:16:41.590Z</time>
      </trkpt>
      <trkpt lat="45.55251" lon="5.51876">
        <ele>414</ele>
        <time>2021-04-03T13:16:42.590Z</time>
      </trkpt>
      <trkpt lat="45.55253" lon="5.51871">
        <ele>414</ele>
        <time>2021-04-03T13:16:43.590Z</time>
      </trkpt>
      <trkpt lat="45.55256" lon="5.51866">
        <ele>414</ele>
        <time>2021-04-03T13:16:44.590Z</time>
      </trkpt>
      <trkpt lat="45.55259" lon="5.51861">
        <ele>414</ele>
        <time>2021-04-03T13:16:45.590Z</time>
      </trkpt>
      <trkpt lat="45.55262" lon="5.51855">
        <ele>414</ele>
        <time>2021-04-03T13:16:46.589Z</time>
      </trkpt>
      <trkpt lat="45.55265" lon="5.51851">
        <ele>414</ele>
        <time>2021-04-03T13:16:47.590Z</time>
      </trkpt>
      <trkpt lat="45.55267" lon="5.51845">
        <ele>414</ele>
        <time>2021-04-03T13:16:48.590Z</time>
      </trkpt>
      <trkpt lat="45.55269" lon="5.51841">
        <ele>414</ele>
        <time>2021-04-03T13:16:49.590Z</time>
      </trkpt>
      <trkpt lat="45.55272" lon="5.51834">
        <ele>414</ele>
        <time>2021-04-03T13:16:50.589Z</time>
      </trkpt>
      <trkpt lat="45.55274" lon="5.51829">
        <ele>415</ele>
        <time>2021-04-03T13:16:51.590Z</time>
      </trkpt>
      <trkpt lat="45.55276" lon="5.51823">
        <ele>414</ele>
        <time>2021-04-03T13:16:52.590Z</time>
      </trkpt>
      <trkpt lat="45.55278" lon="5.51819">
        <ele>414</ele>
        <time>2021-04-03T13:16:53.589Z</time>
      </trkpt>
      <trkpt lat="45.5528" lon="5.51812">
        <ele>414</ele>
        <time>2021-04-03T13:16:54.590Z</time>
      </trkpt>
      <trkpt lat="45.55281" lon="5.51806">
        <ele>414</ele>
        <time>2021-04-03T13:16:55.589Z</time>
      </trkpt>
      <trkpt lat="45.55283" lon="5.51801">
        <ele>414</ele>
        <time>2021-04-03T13:16:56.589Z</time>
      </trkpt>
      <trkpt lat="45.55285" lon="5.51795">
        <ele>414</ele>
        <time>2021-04-03T13:16:57.590Z</time>
      </trkpt>
      <trkpt lat="45.55287" lon="5.51791">
        <ele>414</ele>
        <time>2021-04-03T13:16:58.590Z</time>
      </trkpt>
      <trkpt lat="45.5529" lon="5.51784">
        <ele>414</ele>
        <time>2021-04-03T13:16:59.590Z</time>
      </trkpt>
      <trkpt lat="45.55292" lon="5.51779">
        <ele>414</ele>
        <time>2021-04-03T13:17:00.590Z</time>
      </trkpt>
      <trkpt lat="45.55294" lon="5.51773">
        <ele>414</ele>
        <time>2021-04-03T13:17:01.590Z</time>
      </trkpt>
      <trkpt lat="45.55296" lon="5.51769">
        <ele>414</ele>
        <time>2021-04-03T13:17:02.590Z</time>
      </trkpt>
      <trkpt lat="45.55299" lon="5.51762">
        <ele>414</ele>
        <time>2021-04-03T13:17:03.590Z</time>
      </trkpt>
      <trkpt lat="45.55301" lon="5.51756">
        <ele>415</ele>
        <time>2021-04-03T13:17:04.590Z</time>
      </trkpt>
      <trkpt lat="45.55304" lon="5.5175">
        <ele>415</ele>
        <time>2021-04-03T13:17:05.590Z</time>
      </trkpt>
      <trkpt lat="45.55306" lon="5.51746">
        <ele>415</ele>
        <time>2021-04-03T13:17:06.590Z</time>
      </trkpt>
      <trkpt lat="45.55308" lon="5.5174">
        <ele>416</ele>
        <time>2021-04-03T13:17:07.590Z</time>
      </trkpt>
      <trkpt lat="45.5531" lon="5.51734">
        <ele>416</ele>
        <time>2021-04-03T13:17:08.589Z</time>
      </trkpt>
      <trkpt lat="45.55313" lon="5.51729">
        <ele>416</ele>
        <time>2021-04-03T13:17:09.590Z</time>
      </trkpt>
      <trkpt lat="45.55315" lon="5.51725">
        <ele>416</ele>
        <time>2021-04-03T13:17:10.590Z</time>
      </trkpt>
      <trkpt lat="45.55317" lon="5.51721">
        <ele>416</ele>
        <time>2021-04-03T13:17:11.590Z</time>
      </trkpt>
      <trkpt lat="45.55319" lon="5.51716">
        <ele>416</ele>
        <time>2021-04-03T13:17:12.590Z</time>
      </trkpt>
      <trkpt lat="45.5532" lon="5.51712">
        <ele>416</ele>
        <time>2021-04-03T13:17:13.590Z</time>
      </trkpt>
      <trkpt lat="45.55321" lon="5.51709">
        <ele>417</ele>
        <time>2021-04-03T13:17:14.589Z</time>
      </trkpt>
      <trkpt lat="45.55322" lon="5.51706">
        <ele>417</ele>
        <time>2021-04-03T13:17:15.590Z</time>
      </trkpt>
      <trkpt lat="45.55323" lon="5.51703">
        <ele>417</ele>
        <time>2021-04-03T13:17:16.590Z</time>
      </trkpt>
      <trkpt lat="45.55325" lon="5.51701">
        <ele>418</ele>
        <time>2021-04-03T13:17:17.590Z</time>
      </trkpt>
      <trkpt lat="45.55326" lon="5.51698">
        <ele>417</ele>
        <time>2021-04-03T13:17:18.590Z</time>
      </trkpt>
      <trkpt lat="45.55328" lon="5.51696">
        <ele>417</ele>
        <time>2021-04-03T13:17:19.590Z</time>
      </trkpt>
      <trkpt lat="45.5533" lon="5.51692">
        <ele>417</ele>
        <time>2021-04-03T13:17:20.590Z</time>
      </trkpt>
      <trkpt lat="45.55332" lon="5.51687">
        <ele>417</ele>
        <time>2021-04-03T13:17:21.590Z</time>
      </trkpt>
      <trkpt lat="45.55334" lon="5.51682">
        <ele>417</ele>
        <time>2021-04-03T13:17:22.590Z</time>
      </trkpt>
      <trkpt lat="45.55336" lon="5.51678">
        <ele>417</ele>
        <time>2021-04-03T13:17:23.590Z</time>
      </trkpt>
      <trkpt lat="45.55338" lon="5.51674">
        <ele>418</ele>
        <time>2021-04-03T13:17:24.590Z</time>
      </trkpt>
      <trkpt lat="45.5534" lon="5.5167">
        <ele>418</ele>
        <time>2021-04-03T13:17:25.590Z</time>
      </trkpt>
      <trkpt lat="45.55343" lon="5.51666">
        <ele>418</ele>
        <time>2021-04-03T13:17:26.590Z</time>
      </trkpt>
      <trkpt lat="45.55346" lon="5.51662">
        <ele>418</ele>
        <time>2021-04-03T13:17:27.590Z</time>
      </trkpt>
      <trkpt lat="45.5535" lon="5.51659">
        <ele>418</ele>
        <time>2021-04-03T13:17:28.590Z</time>
      </trkpt>
      <trkpt lat="45.55354" lon="5.51656">
        <ele>418</ele>
        <time>2021-04-03T13:17:29.590Z</time>
      </trkpt>
      <trkpt lat="45.55359" lon="5.51652">
        <ele>418</ele>
        <time>2021-04-03T13:17:30.590Z</time>
      </trkpt>
      <trkpt lat="45.55364" lon="5.5165">
        <ele>418</ele>
        <time>2021-04-03T13:17:31.590Z</time>
      </trkpt>
      <trkpt lat="45.5537" lon="5.51648">
        <ele>417</ele>
        <time>2021-04-03T13:17:32.590Z</time>
      </trkpt>
      <trkpt lat="45.55375" lon="5.51646">
        <ele>417</ele>
        <time>2021-04-03T13:17:33.590Z</time>
      </trkpt>
      <trkpt lat="45.55381" lon="5.51644">
        <ele>417</ele>
        <time>2021-04-03T13:17:34.589Z</time>
      </trkpt>
      <trkpt lat="45.55389" lon="5.51643">
        <ele>417</ele>
        <time>2021-04-03T13:17:35.590Z</time>
      </trkpt>
      <trkpt lat="45.55396" lon="5.51641">
        <ele>417</ele>
        <time>2021-04-03T13:17:36.589Z</time>
      </trkpt>
      <trkpt lat="45.55403" lon="5.5164">
        <ele>416</ele>
        <time>2021-04-03T13:17:37.589Z</time>
      </trkpt>
      <trkpt lat="45.55412" lon="5.51637">
        <ele>416</ele>
        <time>2021-04-03T13:17:38.590Z</time>
      </trkpt>
      <trkpt lat="45.55419" lon="5.51635">
        <ele>416</ele>
        <time>2021-04-03T13:17:39.590Z</time>
      </trkpt>
      <trkpt lat="45.55427" lon="5.51633">
        <ele>416</ele>
        <time>2021-04-03T13:17:40.589Z</time>
      </trkpt>
      <trkpt lat="45.55434" lon="5.5163">
        <ele>415</ele>
        <time>2021-04-03T13:17:41.590Z</time>
      </trkpt>
      <trkpt lat="45.55439" lon="5.51628">
        <ele>415</ele>
        <time>2021-04-03T13:17:42.590Z</time>
      </trkpt>
      <trkpt lat="45.55447" lon="5.51624">
        <ele>415</ele>
        <time>2021-04-03T13:17:43.590Z</time>
      </trkpt>
      <trkpt lat="45.55454" lon="5.51621">
        <ele>415</ele>
        <time>2021-04-03T13:17:44.590Z</time>
      </trkpt>
      <trkpt lat="45.5546" lon="5.51617">
        <ele>415</ele>
        <time>2021-04-03T13:17:45.590Z</time>
      </trkpt>
      <trkpt lat="45.55465" lon="5.51614">
        <ele>414</ele>
        <time>2021-04-03T13:17:46.590Z</time>
      </trkpt>
      <trkpt lat="45.55471" lon="5.51608">
        <ele>414</ele>
        <time>2021-04-03T13:17:47.590Z</time>
      </trkpt>
      <trkpt lat="45.55475" lon="5.51605">
        <ele>414</ele>
        <time>2021-04-03T13:17:48.589Z</time>
      </trkpt>
      <trkpt lat="45.55481" lon="5.516">
        <ele>413</ele>
        <time>2021-04-03T13:17:49.589Z</time>
      </trkpt>
      <trkpt lat="45.55485" lon="5.51595">
        <ele>413</ele>
        <time>2021-04-03T13:17:50.590Z</time>
      </trkpt>
      <trkpt lat="45.55489" lon="5.51592">
        <ele>414</ele>
        <time>2021-04-03T13:17:51.590Z</time>
      </trkpt>
      <trkpt lat="45.55495" lon="5.51587">
        <ele>414</ele>
        <time>2021-04-03T13:17:52.590Z</time>
      </trkpt>
      <trkpt lat="45.55499" lon="5.51583">
        <ele>414</ele>
        <time>2021-04-03T13:17:53.589Z</time>
      </trkpt>
      <trkpt lat="45.55504" lon="5.51579">
        <ele>414</ele>
        <time>2021-04-03T13:17:54.589Z</time>
      </trkpt>
      <trkpt lat="45.55507" lon="5.51576">
        <ele>414</ele>
        <time>2021-04-03T13:17:55.590Z</time>
      </trkpt>
      <trkpt lat="45.55511" lon="5.51573">
        <ele>414</ele>
        <time>2021-04-03T13:17:56.590Z</time>
      </trkpt>
      <trkpt lat="45.55516" lon="5.51569">
        <ele>414</ele>
        <time>2021-04-03T13:17:57.590Z</time>
      </trkpt>
      <trkpt lat="45.5552" lon="5.51566">
        <ele>414</ele>
        <time>2021-04-03T13:17:58.589Z</time>
      </trkpt>
      <trkpt lat="45.55523" lon="5.51562">
        <ele>414</ele>
        <time>2021-04-03T13:17:59.590Z</time>
      </trkpt>
      <trkpt lat="45.55525" lon="5.51559">
        <ele>414</ele>
        <time>2021-04-03T13:18:00.590Z</time>
      </trkpt>
      <trkpt lat="45.55528" lon="5.51555">
        <ele>415</ele>
        <time>2021-04-03T13:18:01.590Z</time>
      </trkpt>
      <trkpt lat="45.55531" lon="5.51552">
        <ele>415</ele>
        <time>2021-04-03T13:18:02.590Z</time>
      </trkpt>
      <trkpt lat="45.55534" lon="5.51548">
        <ele>415</ele>
        <time>2021-04-03T13:18:03.590Z</time>
      </trkpt>
      <trkpt lat="45.55537" lon="5.51546">
        <ele>415</ele>
        <time>2021-04-03T13:18:04.590Z</time>
      </trkpt>
      <trkpt lat="45.55541" lon="5.51542">
        <ele>416</ele>
        <time>2021-04-03T13:18:05.590Z</time>
      </trkpt>
      <trkpt lat="45.55544" lon="5.51539">
        <ele>416</ele>
        <time>2021-04-03T13:18:06.590Z</time>
      </trkpt>
      <trkpt lat="45.5555" lon="5.51535">
        <ele>416</ele>
        <time>2021-04-03T13:18:07.589Z</time>
      </trkpt>
      <trkpt lat="45.55554" lon="5.51531">
        <ele>416</ele>
        <time>2021-04-03T13:18:08.590Z</time>
      </trkpt>
      <trkpt lat="45.5556" lon="5.51528">
        <ele>416</ele>
        <time>2021-04-03T13:18:09.589Z</time>
      </trkpt>
      <trkpt lat="45.55567" lon="5.51525">
        <ele>416</ele>
        <time>2021-04-03T13:18:10.590Z</time>
      </trkpt>
      <trkpt lat="45.55576" lon="5.51521">
        <ele>415</ele>
        <time>2021-04-03T13:18:11.590Z</time>
      </trkpt>
      <trkpt lat="45.55583" lon="5.51519">
        <ele>415</ele>
        <time>2021-04-03T13:18:12.590Z</time>
      </trkpt>
      <trkpt lat="45.55591" lon="5.51516">
        <ele>415</ele>
        <time>2021-04-03T13:18:13.590Z</time>
      </trkpt>
      <trkpt lat="45.55599" lon="5.51513">
        <ele>414</ele>
        <time>2021-04-03T13:18:14.590Z</time>
      </trkpt>
      <trkpt lat="45.55607" lon="5.51509">
        <ele>414</ele>
        <time>2021-04-03T13:18:15.590Z</time>
      </trkpt>
      <trkpt lat="45.55615" lon="5.51504">
        <ele>413</ele>
        <time>2021-04-03T13:18:16.589Z</time>
      </trkpt>
      <trkpt lat="45.55619" lon="5.51501">
        <ele>412</ele>
        <time>2021-04-03T13:18:17.590Z</time>
      </trkpt>
      <trkpt lat="45.55626" lon="5.51496">
        <ele>411</ele>
        <time>2021-04-03T13:18:18.590Z</time>
      </trkpt>
      <trkpt lat="45.55632" lon="5.51492">
        <ele>411</ele>
        <time>2021-04-03T13:18:19.590Z</time>
      </trkpt>
      <trkpt lat="45.55637" lon="5.51489">
        <ele>411</ele>
        <time>2021-04-03T13:18:20.590Z</time>
      </trkpt>
      <trkpt lat="45.55642" lon="5.51485">
        <ele>411</ele>
        <time>2021-04-03T13:18:21.590Z</time>
      </trkpt>
      <trkpt lat="45.55646" lon="5.51481">
        <ele>411</ele>
        <time>2021-04-03T13:18:22.589Z</time>
      </trkpt>
      <trkpt lat="45.55651" lon="5.51476">
        <ele>411</ele>
        <time>2021-04-03T13:18:23.589Z</time>
      </trkpt>
      <trkpt lat="45.55655" lon="5.51472">
        <ele>411</ele>
        <time>2021-04-03T13:18:24.590Z</time>
      </trkpt>
      <trkpt lat="45.55659" lon="5.51468">
        <ele>410</ele>
        <time>2021-04-03T13:18:25.589Z</time>
      </trkpt>
      <trkpt lat="45.55663" lon="5.51465">
        <ele>410</ele>
        <time>2021-04-03T13:18:26.590Z</time>
      </trkpt>
      <trkpt lat="45.55667" lon="5.5146">
        <ele>410</ele>
        <time>2021-04-03T13:18:27.590Z</time>
      </trkpt>
      <trkpt lat="45.55671" lon="5.51456">
        <ele>410</ele>
        <time>2021-04-03T13:18:28.590Z</time>
      </trkpt>
      <trkpt lat="45.55678" lon="5.51451">
        <ele>409</ele>
        <time>2021-04-03T13:18:29.590Z</time>
      </trkpt>
      <trkpt lat="45.55684" lon="5.51448">
        <ele>409</ele>
        <time>2021-04-03T13:18:30.590Z</time>
      </trkpt>
      <trkpt lat="45.55689" lon="5.51444">
        <ele>409</ele>
        <time>2021-04-03T13:18:31.590Z</time>
      </trkpt>
      <trkpt lat="45.55695" lon="5.5144">
        <ele>409</ele>
        <time>2021-04-03T13:18:32.589Z</time>
      </trkpt>
      <trkpt lat="45.55703" lon="5.51435">
        <ele>409</ele>
        <time>2021-04-03T13:18:33.590Z</time>
      </trkpt>
      <trkpt lat="45.5571" lon="5.51431">
        <ele>409</ele>
        <time>2021-04-03T13:18:34.590Z</time>
      </trkpt>
      <trkpt lat="45.55715" lon="5.51428">
        <ele>409</ele>
        <time>2021-04-03T13:18:35.590Z</time>
      </trkpt>
      <trkpt lat="45.5572" lon="5.51423">
        <ele>409</ele>
        <time>2021-04-03T13:18:36.590Z</time>
      </trkpt>
      <trkpt lat="45.55726" lon="5.51417">
        <ele>408</ele>
        <time>2021-04-03T13:18:37.590Z</time>
      </trkpt>
      <trkpt lat="45.5573" lon="5.51412">
        <ele>408</ele>
        <time>2021-04-03T13:18:38.590Z</time>
      </trkpt>
      <trkpt lat="45.55734" lon="5.51406">
        <ele>408</ele>
        <time>2021-04-03T13:18:39.590Z</time>
      </trkpt>
      <trkpt lat="45.55737" lon="5.51401">
        <ele>408</ele>
        <time>2021-04-03T13:18:40.589Z</time>
      </trkpt>
      <trkpt lat="45.55743" lon="5.51395">
        <ele>408</ele>
        <time>2021-04-03T13:18:41.590Z</time>
      </trkpt>
      <trkpt lat="45.55748" lon="5.51392">
        <ele>408</ele>
        <time>2021-04-03T13:18:42.590Z</time>
      </trkpt>
      <trkpt lat="45.55754" lon="5.51389">
        <ele>407</ele>
        <time>2021-04-03T13:18:43.590Z</time>
      </trkpt>
      <trkpt lat="45.55758" lon="5.51388">
        <ele>407</ele>
        <time>2021-04-03T13:18:44.590Z</time>
      </trkpt>
      <trkpt lat="45.55765" lon="5.51388">
        <ele>407</ele>
        <time>2021-04-03T13:18:45.590Z</time>
      </trkpt>
      <trkpt lat="45.5577" lon="5.51389">
        <ele>407</ele>
        <time>2021-04-03T13:18:46.590Z</time>
      </trkpt>
      <trkpt lat="45.55776" lon="5.5139">
        <ele>407</ele>
        <time>2021-04-03T13:18:47.590Z</time>
      </trkpt>
      <trkpt lat="45.5578" lon="5.51391">
        <ele>407</ele>
        <time>2021-04-03T13:18:48.589Z</time>
      </trkpt>
      <trkpt lat="45.55785" lon="5.51393">
        <ele>407</ele>
        <time>2021-04-03T13:18:49.590Z</time>
      </trkpt>
      <trkpt lat="45.55791" lon="5.51394">
        <ele>408</ele>
        <time>2021-04-03T13:18:50.590Z</time>
      </trkpt>
      <trkpt lat="45.55796" lon="5.51396">
        <ele>408</ele>
        <time>2021-04-03T13:18:51.590Z</time>
      </trkpt>
      <trkpt lat="45.558" lon="5.51398">
        <ele>408</ele>
        <time>2021-04-03T13:18:52.590Z</time>
      </trkpt>
      <trkpt lat="45.55804" lon="5.51399">
        <ele>408</ele>
        <time>2021-04-03T13:18:53.590Z</time>
      </trkpt>
      <trkpt lat="45.55809" lon="5.51401">
        <ele>408</ele>
        <time>2021-04-03T13:18:54.590Z</time>
      </trkpt>
      <trkpt lat="45.55812" lon="5.51401">
        <ele>408</ele>
        <time>2021-04-03T13:18:55.590Z</time>
      </trkpt>
      <trkpt lat="45.55816" lon="5.51403">
        <ele>408</ele>
        <time>2021-04-03T13:18:56.590Z</time>
      </trkpt>
      <trkpt lat="45.5582" lon="5.51404">
        <ele>408</ele>
        <time>2021-04-03T13:18:57.590Z</time>
      </trkpt>
      <trkpt lat="45.55823" lon="5.51405">
        <ele>408</ele>
        <time>2021-04-03T13:18:58.590Z</time>
      </trkpt>
      <trkpt lat="45.55828" lon="5.51407">
        <ele>408</ele>
        <time>2021-04-03T13:18:59.590Z</time>
      </trkpt>
      <trkpt lat="45.55832" lon="5.51408">
        <ele>408</ele>
        <time>2021-04-03T13:19:00.590Z</time>
      </trkpt>
      <trkpt lat="45.55836" lon="5.51409">
        <ele>408</ele>
        <time>2021-04-03T13:19:01.590Z</time>
      </trkpt>
      <trkpt lat="45.5584" lon="5.51411">
        <ele>407</ele>
        <time>2021-04-03T13:19:02.590Z</time>
      </trkpt>
      <trkpt lat="45.55845" lon="5.51412">
        <ele>408</ele>
        <time>2021-04-03T13:19:03.590Z</time>
      </trkpt>
      <trkpt lat="45.55849" lon="5.51413">
        <ele>408</ele>
        <time>2021-04-03T13:19:04.589Z</time>
      </trkpt>
      <trkpt lat="45.55853" lon="5.51415">
        <ele>407</ele>
        <time>2021-04-03T13:19:05.589Z</time>
      </trkpt>
      <trkpt lat="45.55857" lon="5.51416">
        <ele>407</ele>
        <time>2021-04-03T13:19:06.590Z</time>
      </trkpt>
      <trkpt lat="45.55862" lon="5.51418">
        <ele>407</ele>
        <time>2021-04-03T13:19:07.590Z</time>
      </trkpt>
      <trkpt lat="45.55868" lon="5.51419">
        <ele>407</ele>
        <time>2021-04-03T13:19:08.590Z</time>
      </trkpt>
      <trkpt lat="45.55873" lon="5.5142">
        <ele>407</ele>
        <time>2021-04-03T13:19:09.589Z</time>
      </trkpt>
      <trkpt lat="45.55877" lon="5.51419">
        <ele>407</ele>
        <time>2021-04-03T13:19:10.590Z</time>
      </trkpt>
      <trkpt lat="45.55881" lon="5.51417">
        <ele>407</ele>
        <time>2021-04-03T13:19:11.590Z</time>
      </trkpt>
      <trkpt lat="45.55885" lon="5.51413">
        <ele>407</ele>
        <time>2021-04-03T13:19:12.590Z</time>
      </trkpt>
      <trkpt lat="45.55887" lon="5.51408">
        <ele>407</ele>
        <time>2021-04-03T13:19:13.590Z</time>
      </trkpt>
      <trkpt lat="45.55888" lon="5.51404">
        <ele>407</ele>
        <time>2021-04-03T13:19:14.589Z</time>
      </trkpt>
      <trkpt lat="45.5589" lon="5.51399">
        <ele>407</ele>
        <time>2021-04-03T13:19:15.590Z</time>
      </trkpt>
      <trkpt lat="45.55891" lon="5.51394">
        <ele>406</ele>
        <time>2021-04-03T13:19:16.589Z</time>
      </trkpt>
      <trkpt lat="45.55893" lon="5.51388">
        <ele>406</ele>
        <time>2021-04-03T13:19:17.590Z</time>
      </trkpt>
      <trkpt lat="45.55894" lon="5.51383">
        <ele>406</ele>
        <time>2021-04-03T13:19:18.590Z</time>
      </trkpt>
      <trkpt lat="45.55895" lon="5.5138">
        <ele>406</ele>
        <time>2021-04-03T13:19:19.590Z</time>
      </trkpt>
      <trkpt lat="45.55896" lon="5.51375">
        <ele>406</ele>
        <time>2021-04-03T13:19:20.590Z</time>
      </trkpt>
      <trkpt lat="45.55898" lon="5.51371">
        <ele>406</ele>
        <time>2021-04-03T13:19:21.589Z</time>
      </trkpt>
      <trkpt lat="45.55899" lon="5.51367">
        <ele>406</ele>
        <time>2021-04-03T13:19:22.590Z</time>
      </trkpt>
      <trkpt lat="45.55901" lon="5.51361">
        <ele>406</ele>
        <time>2021-04-03T13:19:23.589Z</time>
      </trkpt>
      <trkpt lat="45.55902" lon="5.51357">
        <ele>406</ele>
        <time>2021-04-03T13:19:24.590Z</time>
      </trkpt>
      <trkpt lat="45.55903" lon="5.51351">
        <ele>406</ele>
        <time>2021-04-03T13:19:25.590Z</time>
      </trkpt>
      <trkpt lat="45.55905" lon="5.51345">
        <ele>406</ele>
        <time>2021-04-03T13:19:26.590Z</time>
      </trkpt>
      <trkpt lat="45.55907" lon="5.5134">
        <ele>406</ele>
        <time>2021-04-03T13:19:27.590Z</time>
      </trkpt>
      <trkpt lat="45.55908" lon="5.51336">
        <ele>406</ele>
        <time>2021-04-03T13:19:28.590Z</time>
      </trkpt>
      <trkpt lat="45.5591" lon="5.5133">
        <ele>406</ele>
        <time>2021-04-03T13:19:29.590Z</time>
      </trkpt>
      <trkpt lat="45.55913" lon="5.51324">
        <ele>406</ele>
        <time>2021-04-03T13:19:30.590Z</time>
      </trkpt>
      <trkpt lat="45.55915" lon="5.51318">
        <ele>406</ele>
        <time>2021-04-03T13:19:31.590Z</time>
      </trkpt>
      <trkpt lat="45.55916" lon="5.51312">
        <ele>406</ele>
        <time>2021-04-03T13:19:32.590Z</time>
      </trkpt>
      <trkpt lat="45.55917" lon="5.51306">
        <ele>407</ele>
        <time>2021-04-03T13:19:33.590Z</time>
      </trkpt>
      <trkpt lat="45.55919" lon="5.51299">
        <ele>407</ele>
        <time>2021-04-03T13:19:34.590Z</time>
      </trkpt>
      <trkpt lat="45.5592" lon="5.51293">
        <ele>407</ele>
        <time>2021-04-03T13:19:35.590Z</time>
      </trkpt>
      <trkpt lat="45.55922" lon="5.51286">
        <ele>407</ele>
        <time>2021-04-03T13:19:36.590Z</time>
      </trkpt>
      <trkpt lat="45.55923" lon="5.51281">
        <ele>407</ele>
        <time>2021-04-03T13:19:37.590Z</time>
      </trkpt>
      <trkpt lat="45.55924" lon="5.51275">
        <ele>406</ele>
        <time>2021-04-03T13:19:38.589Z</time>
      </trkpt>
      <trkpt lat="45.55925" lon="5.51269">
        <ele>406</ele>
        <time>2021-04-03T13:19:39.590Z</time>
      </trkpt>
      <trkpt lat="45.55926" lon="5.51264">
        <ele>406</ele>
        <time>2021-04-03T13:19:40.589Z</time>
      </trkpt>
      <trkpt lat="45.55927" lon="5.51259">
        <ele>406</ele>
        <time>2021-04-03T13:19:41.590Z</time>
      </trkpt>
      <trkpt lat="45.55928" lon="5.51255">
        <ele>406</ele>
        <time>2021-04-03T13:19:42.590Z</time>
      </trkpt>
      <trkpt lat="45.55929" lon="5.51249">
        <ele>406</ele>
        <time>2021-04-03T13:19:43.589Z</time>
      </trkpt>
      <trkpt lat="45.5593" lon="5.51243">
        <ele>405</ele>
        <time>2021-04-03T13:19:44.589Z</time>
      </trkpt>
      <trkpt lat="45.55931" lon="5.51237">
        <ele>405</ele>
        <time>2021-04-03T13:19:45.590Z</time>
      </trkpt>
      <trkpt lat="45.55931" lon="5.51233">
        <ele>405</ele>
        <time>2021-04-03T13:19:46.590Z</time>
      </trkpt>
      <trkpt lat="45.55932" lon="5.51226">
        <ele>405</ele>
        <time>2021-04-03T13:19:47.590Z</time>
      </trkpt>
      <trkpt lat="45.55933" lon="5.51219">
        <ele>404</ele>
        <time>2021-04-03T13:19:48.589Z</time>
      </trkpt>
      <trkpt lat="45.55934" lon="5.51212">
        <ele>404</ele>
        <time>2021-04-03T13:19:49.590Z</time>
      </trkpt>
      <trkpt lat="45.55935" lon="5.51205">
        <ele>404</ele>
        <time>2021-04-03T13:19:50.590Z</time>
      </trkpt>
      <trkpt lat="45.55935" lon="5.512">
        <ele>404</ele>
        <time>2021-04-03T13:19:51.590Z</time>
      </trkpt>
      <trkpt lat="45.55937" lon="5.51191">
        <ele>405</ele>
        <time>2021-04-03T13:19:52.590Z</time>
      </trkpt>
      <trkpt lat="45.55938" lon="5.51183">
        <ele>406</ele>
        <time>2021-04-03T13:19:53.590Z</time>
      </trkpt>
      <trkpt lat="45.55939" lon="5.51177">
        <ele>406</ele>
        <time>2021-04-03T13:19:54.590Z</time>
      </trkpt>
      <trkpt lat="45.5594" lon="5.5117">
        <ele>407</ele>
        <time>2021-04-03T13:19:55.590Z</time>
      </trkpt>
      <trkpt lat="45.55942" lon="5.5116">
        <ele>408</ele>
        <time>2021-04-03T13:19:56.590Z</time>
      </trkpt>
      <trkpt lat="45.55943" lon="5.51154">
        <ele>408</ele>
        <time>2021-04-03T13:19:57.590Z</time>
      </trkpt>
      <trkpt lat="45.55945" lon="5.51146">
        <ele>408</ele>
        <time>2021-04-03T13:19:58.590Z</time>
      </trkpt>
      <trkpt lat="45.55946" lon="5.51138">
        <ele>409</ele>
        <time>2021-04-03T13:19:59.590Z</time>
      </trkpt>
      <trkpt lat="45.55947" lon="5.5113">
        <ele>409</ele>
        <time>2021-04-03T13:20:00.590Z</time>
      </trkpt>
      <trkpt lat="45.55947" lon="5.51122">
        <ele>409</ele>
        <time>2021-04-03T13:20:01.590Z</time>
      </trkpt>
      <trkpt lat="45.55948" lon="5.51113">
        <ele>410</ele>
        <time>2021-04-03T13:20:02.589Z</time>
      </trkpt>
      <trkpt lat="45.55948" lon="5.51107">
        <ele>410</ele>
        <time>2021-04-03T13:20:03.589Z</time>
      </trkpt>
      <trkpt lat="45.55949" lon="5.51103">
        <ele>411</ele>
        <time>2021-04-03T13:20:04.590Z</time>
      </trkpt>
      <trkpt lat="45.55949" lon="5.51097">
        <ele>411</ele>
        <time>2021-04-03T13:20:05.590Z</time>
      </trkpt>
      <trkpt lat="45.5595" lon="5.51092">
        <ele>411</ele>
        <time>2021-04-03T13:20:06.590Z</time>
      </trkpt>
      <trkpt lat="45.5595" lon="5.51087">
        <ele>411</ele>
        <time>2021-04-03T13:20:07.590Z</time>
      </trkpt>
      <trkpt lat="45.55951" lon="5.51082">
        <ele>411</ele>
        <time>2021-04-03T13:20:08.590Z</time>
      </trkpt>
      <trkpt lat="45.55951" lon="5.51077">
        <ele>412</ele>
        <time>2021-04-03T13:20:09.590Z</time>
      </trkpt>
      <trkpt lat="45.55952" lon="5.51072">
        <ele>412</ele>
        <time>2021-04-03T13:20:10.590Z</time>
      </trkpt>
      <trkpt lat="45.55952" lon="5.51067">
        <ele>412</ele>
        <time>2021-04-03T13:20:11.589Z</time>
      </trkpt>
      <trkpt lat="45.55952" lon="5.51063">
        <ele>411</ele>
        <time>2021-04-03T13:20:12.590Z</time>
      </trkpt>
      <trkpt lat="45.55952" lon="5.5106">
        <ele>411</ele>
        <time>2021-04-03T13:20:13.590Z</time>
      </trkpt>
      <trkpt lat="45.55953" lon="5.51054">
        <ele>412</ele>
        <time>2021-04-03T13:20:14.590Z</time>
      </trkpt>
      <trkpt lat="45.55953" lon="5.51049">
        <ele>412</ele>
        <time>2021-04-03T13:20:15.590Z</time>
      </trkpt>
      <trkpt lat="45.55953" lon="5.51045">
        <ele>412</ele>
        <time>2021-04-03T13:20:16.590Z</time>
      </trkpt>
      <trkpt lat="45.55954" lon="5.51041">
        <ele>412</ele>
        <time>2021-04-03T13:20:17.590Z</time>
      </trkpt>
      <trkpt lat="45.55954" lon="5.51035">
        <ele>413</ele>
        <time>2021-04-03T13:20:18.590Z</time>
      </trkpt>
      <trkpt lat="45.55955" lon="5.5103">
        <ele>413</ele>
        <time>2021-04-03T13:20:19.589Z</time>
      </trkpt>
      <trkpt lat="45.55956" lon="5.51024">
        <ele>413</ele>
        <time>2021-04-03T13:20:20.590Z</time>
      </trkpt>
      <trkpt lat="45.55956" lon="5.51019">
        <ele>413</ele>
        <time>2021-04-03T13:20:21.590Z</time>
      </trkpt>
      <trkpt lat="45.55957" lon="5.51015">
        <ele>413</ele>
        <time>2021-04-03T13:20:22.590Z</time>
      </trkpt>
      <trkpt lat="45.55958" lon="5.51008">
        <ele>413</ele>
        <time>2021-04-03T13:20:23.590Z</time>
      </trkpt>
      <trkpt lat="45.55959" lon="5.51003">
        <ele>413</ele>
        <time>2021-04-03T13:20:24.590Z</time>
      </trkpt>
      <trkpt lat="45.55959" lon="5.50998">
        <ele>413</ele>
        <time>2021-04-03T13:20:25.590Z</time>
      </trkpt>
      <trkpt lat="45.5596" lon="5.50993">
        <ele>414</ele>
        <time>2021-04-03T13:20:26.590Z</time>
      </trkpt>
      <trkpt lat="45.55961" lon="5.50986">
        <ele>414</ele>
        <time>2021-04-03T13:20:27.590Z</time>
      </trkpt>
      <trkpt lat="45.55961" lon="5.50982">
        <ele>414</ele>
        <time>2021-04-03T13:20:28.590Z</time>
      </trkpt>
      <trkpt lat="45.55962" lon="5.50975">
        <ele>414</ele>
        <time>2021-04-03T13:20:29.590Z</time>
      </trkpt>
      <trkpt lat="45.55963" lon="5.50971">
        <ele>415</ele>
        <time>2021-04-03T13:20:30.590Z</time>
      </trkpt>
      <trkpt lat="45.55963" lon="5.50966">
        <ele>415</ele>
        <time>2021-04-03T13:20:31.590Z</time>
      </trkpt>
      <trkpt lat="45.55964" lon="5.5096">
        <ele>415</ele>
        <time>2021-04-03T13:20:32.590Z</time>
      </trkpt>
      <trkpt lat="45.55964" lon="5.50954">
        <ele>415</ele>
        <time>2021-04-03T13:20:33.589Z</time>
      </trkpt>
      <trkpt lat="45.55965" lon="5.50949">
        <ele>415</ele>
        <time>2021-04-03T13:20:34.590Z</time>
      </trkpt>
      <trkpt lat="45.55964" lon="5.50945">
        <ele>416</ele>
        <time>2021-04-03T13:20:35.590Z</time>
      </trkpt>
      <trkpt lat="45.55965" lon="5.50938">
        <ele>416</ele>
        <time>2021-04-03T13:20:36.589Z</time>
      </trkpt>
      <trkpt lat="45.55964" lon="5.50933">
        <ele>416</ele>
        <time>2021-04-03T13:20:37.589Z</time>
      </trkpt>
      <trkpt lat="45.55964" lon="5.50929">
        <ele>417</ele>
        <time>2021-04-03T13:20:38.590Z</time>
      </trkpt>
      <trkpt lat="45.55964" lon="5.50924">
        <ele>417</ele>
        <time>2021-04-03T13:20:39.590Z</time>
      </trkpt>
      <trkpt lat="45.55963" lon="5.50918">
        <ele>417</ele>
        <time>2021-04-03T13:20:40.590Z</time>
      </trkpt>
      <trkpt lat="45.55963" lon="5.50914">
        <ele>417</ele>
        <time>2021-04-03T13:20:41.590Z</time>
      </trkpt>
      <trkpt lat="45.55963" lon="5.50908">
        <ele>417</ele>
        <time>2021-04-03T13:20:42.590Z</time>
      </trkpt>
      <trkpt lat="45.55962" lon="5.50903">
        <ele>417</ele>
        <time>2021-04-03T13:20:43.590Z</time>
      </trkpt>
      <trkpt lat="45.55962" lon="5.50899">
        <ele>417</ele>
        <time>2021-04-03T13:20:44.590Z</time>
      </trkpt>
      <trkpt lat="45.55961" lon="5.50894">
        <ele>418</ele>
        <time>2021-04-03T13:20:45.590Z</time>
      </trkpt>
      <trkpt lat="45.55961" lon="5.50889">
        <ele>418</ele>
        <time>2021-04-03T13:20:46.590Z</time>
      </trkpt>
      <trkpt lat="45.55961" lon="5.50885">
        <ele>418</ele>
        <time>2021-04-03T13:20:47.590Z</time>
      </trkpt>
      <trkpt lat="45.5596" lon="5.50881">
        <ele>418</ele>
        <time>2021-04-03T13:20:48.589Z</time>
      </trkpt>
      <trkpt lat="45.5596" lon="5.50875">
        <ele>418</ele>
        <time>2021-04-03T13:20:49.590Z</time>
      </trkpt>
      <trkpt lat="45.55959" lon="5.50871">
        <ele>418</ele>
        <time>2021-04-03T13:20:50.590Z</time>
      </trkpt>
      <trkpt lat="45.55959" lon="5.50866">
        <ele>418</ele>
        <time>2021-04-03T13:20:51.589Z</time>
      </trkpt>
      <trkpt lat="45.55958" lon="5.50862">
        <ele>418</ele>
        <time>2021-04-03T13:20:52.590Z</time>
      </trkpt>
      <trkpt lat="45.55957" lon="5.50857">
        <ele>418</ele>
        <time>2021-04-03T13:20:53.589Z</time>
      </trkpt>
      <trkpt lat="45.55956" lon="5.50851">
        <ele>418</ele>
        <time>2021-04-03T13:20:54.590Z</time>
      </trkpt>
      <trkpt lat="45.55955" lon="5.50845">
        <ele>418</ele>
        <time>2021-04-03T13:20:55.589Z</time>
      </trkpt>
      <trkpt lat="45.55955" lon="5.5084">
        <ele>418</ele>
        <time>2021-04-03T13:20:56.589Z</time>
      </trkpt>
      <trkpt lat="45.55954" lon="5.50834">
        <ele>419</ele>
        <time>2021-04-03T13:20:57.590Z</time>
      </trkpt>
      <trkpt lat="45.55952" lon="5.50827">
        <ele>419</ele>
        <time>2021-04-03T13:20:58.590Z</time>
      </trkpt>
      <trkpt lat="45.5595" lon="5.5082">
        <ele>419</ele>
        <time>2021-04-03T13:20:59.590Z</time>
      </trkpt>
      <trkpt lat="45.55948" lon="5.50814">
        <ele>419</ele>
        <time>2021-04-03T13:21:00.589Z</time>
      </trkpt>
      <trkpt lat="45.55946" lon="5.50808">
        <ele>419</ele>
        <time>2021-04-03T13:21:01.590Z</time>
      </trkpt>
      <trkpt lat="45.55944" lon="5.50801">
        <ele>418</ele>
        <time>2021-04-03T13:21:02.589Z</time>
      </trkpt>
      <trkpt lat="45.55941" lon="5.50792">
        <ele>418</ele>
        <time>2021-04-03T13:21:03.590Z</time>
      </trkpt>
      <trkpt lat="45.55938" lon="5.50785">
        <ele>418</ele>
        <time>2021-04-03T13:21:04.590Z</time>
      </trkpt>
      <trkpt lat="45.55935" lon="5.50778">
        <ele>417</ele>
        <time>2021-04-03T13:21:05.590Z</time>
      </trkpt>
      <trkpt lat="45.55933" lon="5.50771">
        <ele>417</ele>
        <time>2021-04-03T13:21:06.590Z</time>
      </trkpt>
      <trkpt lat="45.55929" lon="5.50762">
        <ele>417</ele>
        <time>2021-04-03T13:21:07.590Z</time>
      </trkpt>
      <trkpt lat="45.55926" lon="5.50754">
        <ele>418</ele>
        <time>2021-04-03T13:21:08.590Z</time>
      </trkpt>
      <trkpt lat="45.55923" lon="5.50746">
        <ele>418</ele>
        <time>2021-04-03T13:21:09.589Z</time>
      </trkpt>
      <trkpt lat="45.55921" lon="5.50739">
        <ele>418</ele>
        <time>2021-04-03T13:21:10.590Z</time>
      </trkpt>
      <trkpt lat="45.55917" lon="5.50729">
        <ele>418</ele>
        <time>2021-04-03T13:21:11.590Z</time>
      </trkpt>
      <trkpt lat="45.55914" lon="5.50721">
        <ele>419</ele>
        <time>2021-04-03T13:21:12.590Z</time>
      </trkpt>
      <trkpt lat="45.55911" lon="5.50712">
        <ele>419</ele>
        <time>2021-04-03T13:21:13.590Z</time>
      </trkpt>
      <trkpt lat="45.55908" lon="5.50703">
        <ele>418</ele>
        <time>2021-04-03T13:21:14.590Z</time>
      </trkpt>
      <trkpt lat="45.55906" lon="5.50695">
        <ele>418</ele>
        <time>2021-04-03T13:21:15.590Z</time>
      </trkpt>
      <trkpt lat="45.55903" lon="5.50685">
        <ele>418</ele>
        <time>2021-04-03T13:21:16.590Z</time>
      </trkpt>
      <trkpt lat="45.559" lon="5.50674">
        <ele>417</ele>
        <time>2021-04-03T13:21:17.590Z</time>
      </trkpt>
      <trkpt lat="45.55898" lon="5.50667">
        <ele>417</ele>
        <time>2021-04-03T13:21:18.590Z</time>
      </trkpt>
      <trkpt lat="45.55894" lon="5.50655">
        <ele>417</ele>
        <time>2021-04-03T13:21:19.589Z</time>
      </trkpt>
      <trkpt lat="45.55892" lon="5.50645">
        <ele>417</ele>
        <time>2021-04-03T13:21:20.589Z</time>
      </trkpt>
      <trkpt lat="45.55889" lon="5.50635">
        <ele>417</ele>
        <time>2021-04-03T13:21:21.590Z</time>
      </trkpt>
      <trkpt lat="45.55886" lon="5.50626">
        <ele>416</ele>
        <time>2021-04-03T13:21:22.589Z</time>
      </trkpt>
      <trkpt lat="45.55883" lon="5.50616">
        <ele>416</ele>
        <time>2021-04-03T13:21:23.589Z</time>
      </trkpt>
      <trkpt lat="45.55881" lon="5.50608">
        <ele>415</ele>
        <time>2021-04-03T13:21:24.590Z</time>
      </trkpt>
      <trkpt lat="45.55878" lon="5.50595">
        <ele>414</ele>
        <time>2021-04-03T13:21:25.590Z</time>
      </trkpt>
      <trkpt lat="45.55875" lon="5.50585">
        <ele>413</ele>
        <time>2021-04-03T13:21:26.590Z</time>
      </trkpt>
      <trkpt lat="45.55873" lon="5.50574">
        <ele>412</ele>
        <time>2021-04-03T13:21:27.590Z</time>
      </trkpt>
      <trkpt lat="45.55871" lon="5.50564">
        <ele>411</ele>
        <time>2021-04-03T13:21:28.590Z</time>
      </trkpt>
      <trkpt lat="45.5587" lon="5.50552">
        <ele>411</ele>
        <time>2021-04-03T13:21:29.590Z</time>
      </trkpt>
      <trkpt lat="45.55869" lon="5.50541">
        <ele>410</ele>
        <time>2021-04-03T13:21:30.589Z</time>
      </trkpt>
      <trkpt lat="45.55869" lon="5.50529">
        <ele>410</ele>
        <time>2021-04-03T13:21:31.590Z</time>
      </trkpt>
      <trkpt lat="45.5587" lon="5.50518">
        <ele>410</ele>
        <time>2021-04-03T13:21:32.590Z</time>
      </trkpt>
      <trkpt lat="45.55871" lon="5.50508">
        <ele>409</ele>
        <time>2021-04-03T13:21:33.590Z</time>
      </trkpt>
      <trkpt lat="45.55872" lon="5.50494">
        <ele>409</ele>
        <time>2021-04-03T13:21:34.590Z</time>
      </trkpt>
      <trkpt lat="45.55874" lon="5.50482">
        <ele>409</ele>
        <time>2021-04-03T13:21:35.590Z</time>
      </trkpt>
      <trkpt lat="45.55876" lon="5.50471">
        <ele>408</ele>
        <time>2021-04-03T13:21:36.590Z</time>
      </trkpt>
      <trkpt lat="45.55877" lon="5.50461">
        <ele>408</ele>
        <time>2021-04-03T13:21:37.590Z</time>
      </trkpt>
      <trkpt lat="45.5588" lon="5.50448">
        <ele>408</ele>
        <time>2021-04-03T13:21:38.589Z</time>
      </trkpt>
      <trkpt lat="45.55882" lon="5.50437">
        <ele>408</ele>
        <time>2021-04-03T13:21:39.589Z</time>
      </trkpt>
      <trkpt lat="45.55885" lon="5.50426">
        <ele>407</ele>
        <time>2021-04-03T13:21:40.590Z</time>
      </trkpt>
      <trkpt lat="45.55887" lon="5.50415">
        <ele>407</ele>
        <time>2021-04-03T13:21:41.590Z</time>
      </trkpt>
      <trkpt lat="45.55889" lon="5.50407">
        <ele>407</ele>
        <time>2021-04-03T13:21:42.590Z</time>
      </trkpt>
      <trkpt lat="45.55893" lon="5.50394">
        <ele>407</ele>
        <time>2021-04-03T13:21:43.590Z</time>
      </trkpt>
      <trkpt lat="45.55895" lon="5.50386">
        <ele>407</ele>
        <time>2021-04-03T13:21:44.590Z</time>
      </trkpt>
      <trkpt lat="45.55899" lon="5.50376">
        <ele>406</ele>
        <time>2021-04-03T13:21:45.589Z</time>
      </trkpt>
      <trkpt lat="45.55902" lon="5.50367">
        <ele>406</ele>
        <time>2021-04-03T13:21:46.590Z</time>
      </trkpt>
      <trkpt lat="45.55906" lon="5.50357">
        <ele>406</ele>
        <time>2021-04-03T13:21:47.590Z</time>
      </trkpt>
      <trkpt lat="45.55911" lon="5.50347">
        <ele>405</ele>
        <time>2021-04-03T13:21:48.590Z</time>
      </trkpt>
      <trkpt lat="45.55915" lon="5.50339">
        <ele>405</ele>
        <time>2021-04-03T13:21:49.589Z</time>
      </trkpt>
      <trkpt lat="45.5592" lon="5.50329">
        <ele>405</ele>
        <time>2021-04-03T13:21:50.590Z</time>
      </trkpt>
      <trkpt lat="45.55923" lon="5.50323">
        <ele>405</ele>
        <time>2021-04-03T13:21:51.590Z</time>
      </trkpt>
      <trkpt lat="45.55927" lon="5.50314">
        <ele>404</ele>
        <time>2021-04-03T13:21:52.590Z</time>
      </trkpt>
      <trkpt lat="45.55931" lon="5.50306">
        <ele>404</ele>
        <time>2021-04-03T13:21:53.590Z</time>
      </trkpt>
      <trkpt lat="45.55935" lon="5.50298">
        <ele>404</ele>
        <time>2021-04-03T13:21:54.590Z</time>
      </trkpt>
      <trkpt lat="45.55939" lon="5.5029">
        <ele>403</ele>
        <time>2021-04-03T13:21:55.590Z</time>
      </trkpt>
      <trkpt lat="45.55943" lon="5.50282">
        <ele>403</ele>
        <time>2021-04-03T13:21:56.590Z</time>
      </trkpt>
      <trkpt lat="45.55948" lon="5.50272">
        <ele>403</ele>
        <time>2021-04-03T13:21:57.590Z</time>
      </trkpt>
      <trkpt lat="45.55952" lon="5.50263">
        <ele>403</ele>
        <time>2021-04-03T13:21:58.590Z</time>
      </trkpt>
      <trkpt lat="45.55955" lon="5.50255">
        <ele>403</ele>
        <time>2021-04-03T13:21:59.590Z</time>
      </trkpt>
      <trkpt lat="45.55958" lon="5.50248">
        <ele>402</ele>
        <time>2021-04-03T13:22:00.590Z</time>
      </trkpt>
      <trkpt lat="45.55962" lon="5.50237">
        <ele>402</ele>
        <time>2021-04-03T13:22:01.590Z</time>
      </trkpt>
      <trkpt lat="45.55965" lon="5.50231">
        <ele>402</ele>
        <time>2021-04-03T13:22:02.589Z</time>
      </trkpt>
      <trkpt lat="45.55968" lon="5.50221">
        <ele>401</ele>
        <time>2021-04-03T13:22:03.590Z</time>
      </trkpt>
      <trkpt lat="45.5597" lon="5.50213">
        <ele>401</ele>
        <time>2021-04-03T13:22:04.589Z</time>
      </trkpt>
      <trkpt lat="45.55972" lon="5.50208">
        <ele>401</ele>
        <time>2021-04-03T13:22:05.590Z</time>
      </trkpt>
      <trkpt lat="45.55974" lon="5.50202">
        <ele>401</ele>
        <time>2021-04-03T13:22:06.589Z</time>
      </trkpt>
      <trkpt lat="45.55975" lon="5.50197">
        <ele>401</ele>
        <time>2021-04-03T13:22:07.590Z</time>
      </trkpt>
      <trkpt lat="45.55976" lon="5.50192">
        <ele>401</ele>
        <time>2021-04-03T13:22:08.590Z</time>
      </trkpt>
      <trkpt lat="45.55976" lon="5.50187">
        <ele>401</ele>
        <time>2021-04-03T13:22:09.590Z</time>
      </trkpt>
      <trkpt lat="45.55975" lon="5.50183">
        <ele>401</ele>
        <time>2021-04-03T13:22:10.590Z</time>
      </trkpt>
      <trkpt lat="45.55975" lon="5.50178">
        <ele>401</ele>
        <time>2021-04-03T13:22:11.589Z</time>
      </trkpt>
      <trkpt lat="45.55974" lon="5.50173">
        <ele>401</ele>
        <time>2021-04-03T13:22:12.590Z</time>
      </trkpt>
      <trkpt lat="45.55973" lon="5.50168">
        <ele>401</ele>
        <time>2021-04-03T13:22:13.590Z</time>
      </trkpt>
      <trkpt lat="45.55973" lon="5.50164">
        <ele>401</ele>
        <time>2021-04-03T13:22:14.590Z</time>
      </trkpt>
      <trkpt lat="45.55971" lon="5.50158">
        <ele>401</ele>
        <time>2021-04-03T13:22:15.590Z</time>
      </trkpt>
      <trkpt lat="45.5597" lon="5.50152">
        <ele>401</ele>
        <time>2021-04-03T13:22:16.590Z</time>
      </trkpt>
      <trkpt lat="45.55969" lon="5.50146">
        <ele>401</ele>
        <time>2021-04-03T13:22:17.590Z</time>
      </trkpt>
      <trkpt lat="45.55969" lon="5.50142">
        <ele>401</ele>
        <time>2021-04-03T13:22:18.590Z</time>
      </trkpt>
      <trkpt lat="45.55968" lon="5.50136">
        <ele>401</ele>
        <time>2021-04-03T13:22:19.590Z</time>
      </trkpt>
      <trkpt lat="45.55967" lon="5.50129">
        <ele>400</ele>
        <time>2021-04-03T13:22:20.590Z</time>
      </trkpt>
      <trkpt lat="45.55967" lon="5.50124">
        <ele>400</ele>
        <time>2021-04-03T13:22:21.590Z</time>
      </trkpt>
      <trkpt lat="45.55967" lon="5.50119">
        <ele>399</ele>
        <time>2021-04-03T13:22:22.589Z</time>
      </trkpt>
      <trkpt lat="45.55967" lon="5.50114">
        <ele>399</ele>
        <time>2021-04-03T13:22:23.590Z</time>
      </trkpt>
      <trkpt lat="45.55967" lon="5.50107">
        <ele>399</ele>
        <time>2021-04-03T13:22:24.590Z</time>
      </trkpt>
      <trkpt lat="45.55967" lon="5.50103">
        <ele>399</ele>
        <time>2021-04-03T13:22:25.590Z</time>
      </trkpt>
      <trkpt lat="45.55967" lon="5.50097">
        <ele>399</ele>
        <time>2021-04-03T13:22:26.589Z</time>
      </trkpt>
      <trkpt lat="45.55967" lon="5.50093">
        <ele>398</ele>
        <time>2021-04-03T13:22:27.589Z</time>
      </trkpt>
      <trkpt lat="45.55967" lon="5.50087">
        <ele>398</ele>
        <time>2021-04-03T13:22:28.590Z</time>
      </trkpt>
      <trkpt lat="45.55968" lon="5.5008">
        <ele>398</ele>
        <time>2021-04-03T13:22:29.590Z</time>
      </trkpt>
      <trkpt lat="45.55968" lon="5.50074">
        <ele>397</ele>
        <time>2021-04-03T13:22:30.590Z</time>
      </trkpt>
      <trkpt lat="45.55969" lon="5.50069">
        <ele>396</ele>
        <time>2021-04-03T13:22:31.590Z</time>
      </trkpt>
      <trkpt lat="45.5597" lon="5.50062">
        <ele>396</ele>
        <time>2021-04-03T13:22:32.590Z</time>
      </trkpt>
      <trkpt lat="45.55971" lon="5.50053">
        <ele>396</ele>
        <time>2021-04-03T13:22:33.590Z</time>
      </trkpt>
      <trkpt lat="45.55972" lon="5.50047">
        <ele>396</ele>
        <time>2021-04-03T13:22:34.590Z</time>
      </trkpt>
      <trkpt lat="45.55973" lon="5.50039">
        <ele>396</ele>
        <time>2021-04-03T13:22:35.590Z</time>
      </trkpt>
      <trkpt lat="45.55974" lon="5.50031">
        <ele>396</ele>
        <time>2021-04-03T13:22:36.589Z</time>
      </trkpt>
      <trkpt lat="45.55976" lon="5.50023">
        <ele>396</ele>
        <time>2021-04-03T13:22:37.589Z</time>
      </trkpt>
      <trkpt lat="45.55977" lon="5.50015">
        <ele>396</ele>
        <time>2021-04-03T13:22:38.590Z</time>
      </trkpt>
      <trkpt lat="45.55978" lon="5.50007">
        <ele>395</ele>
        <time>2021-04-03T13:22:39.590Z</time>
      </trkpt>
      <trkpt lat="45.5598" lon="5.5">
        <ele>395</ele>
        <time>2021-04-03T13:22:40.590Z</time>
      </trkpt>
      <trkpt lat="45.55981" lon="5.49992">
        <ele>394</ele>
        <time>2021-04-03T13:22:41.590Z</time>
      </trkpt>
      <trkpt lat="45.55982" lon="5.49983">
        <ele>394</ele>
        <time>2021-04-03T13:22:42.590Z</time>
      </trkpt>
      <trkpt lat="45.55983" lon="5.49975">
        <ele>394</ele>
        <time>2021-04-03T13:22:43.590Z</time>
      </trkpt>
      <trkpt lat="45.55985" lon="5.49968">
        <ele>394</ele>
        <time>2021-04-03T13:22:44.590Z</time>
      </trkpt>
      <trkpt lat="45.55986" lon="5.49961">
        <ele>394</ele>
        <time>2021-04-03T13:22:45.590Z</time>
      </trkpt>
      <trkpt lat="45.55987" lon="5.49954">
        <ele>394</ele>
        <time>2021-04-03T13:22:46.590Z</time>
      </trkpt>
      <trkpt lat="45.55988" lon="5.49946">
        <ele>394</ele>
        <time>2021-04-03T13:22:47.590Z</time>
      </trkpt>
      <trkpt lat="45.55989" lon="5.49939">
        <ele>394</ele>
        <time>2021-04-03T13:22:48.590Z</time>
      </trkpt>
      <trkpt lat="45.5599" lon="5.49931">
        <ele>394</ele>
        <time>2021-04-03T13:22:49.590Z</time>
      </trkpt>
      <trkpt lat="45.55991" lon="5.49923">
        <ele>394</ele>
        <time>2021-04-03T13:22:50.590Z</time>
      </trkpt>
      <trkpt lat="45.55992" lon="5.49915">
        <ele>394</ele>
        <time>2021-04-03T13:22:51.589Z</time>
      </trkpt>
      <trkpt lat="45.55994" lon="5.49908">
        <ele>394</ele>
        <time>2021-04-03T13:22:52.590Z</time>
      </trkpt>
      <trkpt lat="45.55996" lon="5.499">
        <ele>394</ele>
        <time>2021-04-03T13:22:53.590Z</time>
      </trkpt>
      <trkpt lat="45.55997" lon="5.49891">
        <ele>394</ele>
        <time>2021-04-03T13:22:54.590Z</time>
      </trkpt>
      <trkpt lat="45.55998" lon="5.49885">
        <ele>394</ele>
        <time>2021-04-03T13:22:55.590Z</time>
      </trkpt>
      <trkpt lat="45.56001" lon="5.49875">
        <ele>394</ele>
        <time>2021-04-03T13:22:56.590Z</time>
      </trkpt>
      <trkpt lat="45.56003" lon="5.49867">
        <ele>394</ele>
        <time>2021-04-03T13:22:57.590Z</time>
      </trkpt>
      <trkpt lat="45.56005" lon="5.4986">
        <ele>394</ele>
        <time>2021-04-03T13:22:58.590Z</time>
      </trkpt>
      <trkpt lat="45.56007" lon="5.49852">
        <ele>394</ele>
        <time>2021-04-03T13:22:59.590Z</time>
      </trkpt>
      <trkpt lat="45.56009" lon="5.49845">
        <ele>393</ele>
        <time>2021-04-03T13:23:00.589Z</time>
      </trkpt>
      <trkpt lat="45.56011" lon="5.49837">
        <ele>393</ele>
        <time>2021-04-03T13:23:01.590Z</time>
      </trkpt>
      <trkpt lat="45.56014" lon="5.49827">
        <ele>393</ele>
        <time>2021-04-03T13:23:02.589Z</time>
      </trkpt>
      <trkpt lat="45.56017" lon="5.49818">
        <ele>392</ele>
        <time>2021-04-03T13:23:03.590Z</time>
      </trkpt>
      <trkpt lat="45.56019" lon="5.49811">
        <ele>392</ele>
        <time>2021-04-03T13:23:04.590Z</time>
      </trkpt>
      <trkpt lat="45.56021" lon="5.49802">
        <ele>392</ele>
        <time>2021-04-03T13:23:05.589Z</time>
      </trkpt>
      <trkpt lat="45.56025" lon="5.4979">
        <ele>392</ele>
        <time>2021-04-03T13:23:06.590Z</time>
      </trkpt>
      <trkpt lat="45.56028" lon="5.4978">
        <ele>391</ele>
        <time>2021-04-03T13:23:07.590Z</time>
      </trkpt>
      <trkpt lat="45.56031" lon="5.49769">
        <ele>391</ele>
        <time>2021-04-03T13:23:08.590Z</time>
      </trkpt>
      <trkpt lat="45.56033" lon="5.4976">
        <ele>390</ele>
        <time>2021-04-03T13:23:09.590Z</time>
      </trkpt>
      <trkpt lat="45.56037" lon="5.49749">
        <ele>390</ele>
        <time>2021-04-03T13:23:10.590Z</time>
      </trkpt>
      <trkpt lat="45.56041" lon="5.49736">
        <ele>389</ele>
        <time>2021-04-03T13:23:11.590Z</time>
      </trkpt>
      <trkpt lat="45.56045" lon="5.49724">
        <ele>389</ele>
        <time>2021-04-03T13:23:12.589Z</time>
      </trkpt>
      <trkpt lat="45.5605" lon="5.49711">
        <ele>388</ele>
        <time>2021-04-03T13:23:13.589Z</time>
      </trkpt>
      <trkpt lat="45.56057" lon="5.49697">
        <ele>388</ele>
        <time>2021-04-03T13:23:14.590Z</time>
      </trkpt>
      <trkpt lat="45.56064" lon="5.49683">
        <ele>388</ele>
        <time>2021-04-03T13:23:15.589Z</time>
      </trkpt>
      <trkpt lat="45.56072" lon="5.49669">
        <ele>387</ele>
        <time>2021-04-03T13:23:16.589Z</time>
      </trkpt>
      <trkpt lat="45.5608" lon="5.49654">
        <ele>387</ele>
        <time>2021-04-03T13:23:17.590Z</time>
      </trkpt>
      <trkpt lat="45.56089" lon="5.49635">
        <ele>386</ele>
        <time>2021-04-03T13:23:18.589Z</time>
      </trkpt>
      <trkpt lat="45.56096" lon="5.49619">
        <ele>385</ele>
        <time>2021-04-03T13:23:19.590Z</time>
      </trkpt>
      <trkpt lat="45.561" lon="5.49605">
        <ele>385</ele>
        <time>2021-04-03T13:23:20.589Z</time>
      </trkpt>
      <trkpt lat="45.56106" lon="5.49583">
        <ele>385</ele>
        <time>2021-04-03T13:23:21.589Z</time>
      </trkpt>
      <trkpt lat="45.5611" lon="5.49564">
        <ele>384</ele>
        <time>2021-04-03T13:23:22.590Z</time>
      </trkpt>
      <trkpt lat="45.56114" lon="5.49547">
        <ele>384</ele>
        <time>2021-04-03T13:23:23.590Z</time>
      </trkpt>
      <trkpt lat="45.56118" lon="5.49535">
        <ele>383</ele>
        <time>2021-04-03T13:23:24.590Z</time>
      </trkpt>
      <trkpt lat="45.56122" lon="5.49518">
        <ele>382</ele>
        <time>2021-04-03T13:23:25.589Z</time>
      </trkpt>
      <trkpt lat="45.56125" lon="5.49505">
        <ele>382</ele>
        <time>2021-04-03T13:23:26.590Z</time>
      </trkpt>
      <trkpt lat="45.56127" lon="5.49492">
        <ele>381</ele>
        <time>2021-04-03T13:23:27.590Z</time>
      </trkpt>
      <trkpt lat="45.5613" lon="5.49481">
        <ele>381</ele>
        <time>2021-04-03T13:23:28.589Z</time>
      </trkpt>
      <trkpt lat="45.56132" lon="5.49475">
        <ele>381</ele>
        <time>2021-04-03T13:23:29.589Z</time>
      </trkpt>
      <trkpt lat="45.56135" lon="5.49461">
        <ele>381</ele>
        <time>2021-04-03T13:23:30.590Z</time>
      </trkpt>
      <trkpt lat="45.56137" lon="5.49451">
        <ele>381</ele>
        <time>2021-04-03T13:23:31.590Z</time>
      </trkpt>
      <trkpt lat="45.56139" lon="5.49441">
        <ele>381</ele>
        <time>2021-04-03T13:23:32.590Z</time>
      </trkpt>
      <trkpt lat="45.56141" lon="5.49433">
        <ele>381</ele>
        <time>2021-04-03T13:23:33.589Z</time>
      </trkpt>
      <trkpt lat="45.56142" lon="5.49421">
        <ele>381</ele>
        <time>2021-04-03T13:23:34.590Z</time>
      </trkpt>
      <trkpt lat="45.56143" lon="5.4941">
        <ele>381</ele>
        <time>2021-04-03T13:23:35.590Z</time>
      </trkpt>
      <trkpt lat="45.56144" lon="5.49399">
        <ele>381</ele>
        <time>2021-04-03T13:23:36.589Z</time>
      </trkpt>
      <trkpt lat="45.56145" lon="5.49388">
        <ele>381</ele>
        <time>2021-04-03T13:23:37.590Z</time>
      </trkpt>
      <trkpt lat="45.56146" lon="5.49378">
        <ele>381</ele>
        <time>2021-04-03T13:23:38.589Z</time>
      </trkpt>
      <trkpt lat="45.56147" lon="5.49369">
        <ele>382</ele>
        <time>2021-04-03T13:23:39.590Z</time>
      </trkpt>
      <trkpt lat="45.56148" lon="5.49359">
        <ele>382</ele>
        <time>2021-04-03T13:23:40.589Z</time>
      </trkpt>
      <trkpt lat="45.56149" lon="5.49349">
        <ele>382</ele>
        <time>2021-04-03T13:23:41.589Z</time>
      </trkpt>
      <trkpt lat="45.56149" lon="5.49338">
        <ele>383</ele>
        <time>2021-04-03T13:23:42.590Z</time>
      </trkpt>
      <trkpt lat="45.5615" lon="5.4933">
        <ele>383</ele>
        <time>2021-04-03T13:23:43.590Z</time>
      </trkpt>
      <trkpt lat="45.5615" lon="5.49319">
        <ele>384</ele>
        <time>2021-04-03T13:23:44.590Z</time>
      </trkpt>
      <trkpt lat="45.56151" lon="5.49309">
        <ele>385</ele>
        <time>2021-04-03T13:23:45.590Z</time>
      </trkpt>
      <trkpt lat="45.56151" lon="5.49299">
        <ele>385</ele>
        <time>2021-04-03T13:23:46.590Z</time>
      </trkpt>
      <trkpt lat="45.5615" lon="5.49291">
        <ele>386</ele>
        <time>2021-04-03T13:23:47.590Z</time>
      </trkpt>
      <trkpt lat="45.5615" lon="5.49279">
        <ele>386</ele>
        <time>2021-04-03T13:23:48.590Z</time>
      </trkpt>
      <trkpt lat="45.5615" lon="5.4927">
        <ele>387</ele>
        <time>2021-04-03T13:23:49.589Z</time>
      </trkpt>
      <trkpt lat="45.5615" lon="5.49261">
        <ele>388</ele>
        <time>2021-04-03T13:23:50.590Z</time>
      </trkpt>
      <trkpt lat="45.56149" lon="5.49251">
        <ele>389</ele>
        <time>2021-04-03T13:23:51.590Z</time>
      </trkpt>
      <trkpt lat="45.56148" lon="5.49244">
        <ele>391</ele>
        <time>2021-04-03T13:23:52.589Z</time>
      </trkpt>
      <trkpt lat="45.56148" lon="5.49233">
        <ele>393</ele>
        <time>2021-04-03T13:23:53.590Z</time>
      </trkpt>
      <trkpt lat="45.56148" lon="5.49223">
        <ele>393</ele>
        <time>2021-04-03T13:23:54.589Z</time>
      </trkpt>
      <trkpt lat="45.56148" lon="5.49213">
        <ele>393</ele>
        <time>2021-04-03T13:23:55.589Z</time>
      </trkpt>
      <trkpt lat="45.56148" lon="5.49203">
        <ele>393</ele>
        <time>2021-04-03T13:23:56.590Z</time>
      </trkpt>
      <trkpt lat="45.56148" lon="5.49193">
        <ele>392</ele>
        <time>2021-04-03T13:23:57.590Z</time>
      </trkpt>
      <trkpt lat="45.56148" lon="5.49182">
        <ele>391</ele>
        <time>2021-04-03T13:23:58.589Z</time>
      </trkpt>
      <trkpt lat="45.56148" lon="5.49171">
        <ele>390</ele>
        <time>2021-04-03T13:23:59.590Z</time>
      </trkpt>
      <trkpt lat="45.56147" lon="5.49159">
        <ele>389</ele>
        <time>2021-04-03T13:24:00.589Z</time>
      </trkpt>
      <trkpt lat="45.56147" lon="5.49148">
        <ele>388</ele>
        <time>2021-04-03T13:24:01.590Z</time>
      </trkpt>
      <trkpt lat="45.56146" lon="5.49136">
        <ele>387</ele>
        <time>2021-04-03T13:24:02.590Z</time>
      </trkpt>
      <trkpt lat="45.56145" lon="5.49125">
        <ele>387</ele>
        <time>2021-04-03T13:24:03.590Z</time>
      </trkpt>
      <trkpt lat="45.56143" lon="5.49114">
        <ele>386</ele>
        <time>2021-04-03T13:24:04.589Z</time>
      </trkpt>
      <trkpt lat="45.56142" lon="5.49104">
        <ele>386</ele>
        <time>2021-04-03T13:24:05.590Z</time>
      </trkpt>
      <trkpt lat="45.5614" lon="5.49096">
        <ele>386</ele>
        <time>2021-04-03T13:24:06.590Z</time>
      </trkpt>
      <trkpt lat="45.56138" lon="5.49084">
        <ele>386</ele>
        <time>2021-04-03T13:24:07.590Z</time>
      </trkpt>
      <trkpt lat="45.56136" lon="5.49075">
        <ele>386</ele>
        <time>2021-04-03T13:24:08.589Z</time>
      </trkpt>
      <trkpt lat="45.56133" lon="5.49065">
        <ele>387</ele>
        <time>2021-04-03T13:24:09.590Z</time>
      </trkpt>
      <trkpt lat="45.56131" lon="5.49056">
        <ele>387</ele>
        <time>2021-04-03T13:24:10.590Z</time>
      </trkpt>
      <trkpt lat="45.5613" lon="5.49048">
        <ele>387</ele>
        <time>2021-04-03T13:24:11.590Z</time>
      </trkpt>
      <trkpt lat="45.56128" lon="5.49039">
        <ele>387</ele>
        <time>2021-04-03T13:24:12.589Z</time>
      </trkpt>
      <trkpt lat="45.56126" lon="5.4903">
        <ele>387</ele>
        <time>2021-04-03T13:24:13.590Z</time>
      </trkpt>
      <trkpt lat="45.56124" lon="5.49021">
        <ele>387</ele>
        <time>2021-04-03T13:24:14.590Z</time>
      </trkpt>
      <trkpt lat="45.56122" lon="5.4901">
        <ele>387</ele>
        <time>2021-04-03T13:24:15.590Z</time>
      </trkpt>
      <trkpt lat="45.56121" lon="5.49003">
        <ele>386</ele>
        <time>2021-04-03T13:24:16.589Z</time>
      </trkpt>
      <trkpt lat="45.56118" lon="5.48993">
        <ele>387</ele>
        <time>2021-04-03T13:24:17.590Z</time>
      </trkpt>
      <trkpt lat="45.56116" lon="5.48985">
        <ele>387</ele>
        <time>2021-04-03T13:24:18.589Z</time>
      </trkpt>
      <trkpt lat="45.56114" lon="5.48977">
        <ele>388</ele>
        <time>2021-04-03T13:24:19.590Z</time>
      </trkpt>
      <trkpt lat="45.56113" lon="5.48969">
        <ele>388</ele>
        <time>2021-04-03T13:24:20.589Z</time>
      </trkpt>
      <trkpt lat="45.56111" lon="5.48961">
        <ele>389</ele>
        <time>2021-04-03T13:24:21.589Z</time>
      </trkpt>
      <trkpt lat="45.56109" lon="5.48954">
        <ele>389</ele>
        <time>2021-04-03T13:24:22.590Z</time>
      </trkpt>
      <trkpt lat="45.56108" lon="5.48947">
        <ele>390</ele>
        <time>2021-04-03T13:24:23.589Z</time>
      </trkpt>
      <trkpt lat="45.56106" lon="5.48941">
        <ele>390</ele>
        <time>2021-04-03T13:24:24.590Z</time>
      </trkpt>
      <trkpt lat="45.56105" lon="5.48934">
        <ele>390</ele>
        <time>2021-04-03T13:24:25.590Z</time>
      </trkpt>
      <trkpt lat="45.56105" lon="5.48929">
        <ele>390</ele>
        <time>2021-04-03T13:24:26.590Z</time>
      </trkpt>
      <trkpt lat="45.56103" lon="5.48921">
        <ele>391</ele>
        <time>2021-04-03T13:24:27.590Z</time>
      </trkpt>
      <trkpt lat="45.56102" lon="5.48915">
        <ele>391</ele>
        <time>2021-04-03T13:24:28.590Z</time>
      </trkpt>
      <trkpt lat="45.561" lon="5.48909">
        <ele>391</ele>
        <time>2021-04-03T13:24:29.590Z</time>
      </trkpt>
      <trkpt lat="45.561" lon="5.48904">
        <ele>390</ele>
        <time>2021-04-03T13:24:30.590Z</time>
      </trkpt>
      <trkpt lat="45.56098" lon="5.48897">
        <ele>389</ele>
        <time>2021-04-03T13:24:31.590Z</time>
      </trkpt>
      <trkpt lat="45.56097" lon="5.48891">
        <ele>388</ele>
        <time>2021-04-03T13:24:32.590Z</time>
      </trkpt>
      <trkpt lat="45.56096" lon="5.48886">
        <ele>387</ele>
        <time>2021-04-03T13:24:33.589Z</time>
      </trkpt>
      <trkpt lat="45.56095" lon="5.48881">
        <ele>386</ele>
        <time>2021-04-03T13:24:34.590Z</time>
      </trkpt>
      <trkpt lat="45.56094" lon="5.48875">
        <ele>385</ele>
        <time>2021-04-03T13:24:35.589Z</time>
      </trkpt>
      <trkpt lat="45.56093" lon="5.48869">
        <ele>385</ele>
        <time>2021-04-03T13:24:36.590Z</time>
      </trkpt>
      <trkpt lat="45.56092" lon="5.48863">
        <ele>384</ele>
        <time>2021-04-03T13:24:37.590Z</time>
      </trkpt>
      <trkpt lat="45.56091" lon="5.48858">
        <ele>383</ele>
        <time>2021-04-03T13:24:38.590Z</time>
      </trkpt>
      <trkpt lat="45.56089" lon="5.48853">
        <ele>383</ele>
        <time>2021-04-03T13:24:39.589Z</time>
      </trkpt>
      <trkpt lat="45.56088" lon="5.48847">
        <ele>383</ele>
        <time>2021-04-03T13:24:40.590Z</time>
      </trkpt>
      <trkpt lat="45.56086" lon="5.4884">
        <ele>383</ele>
        <time>2021-04-03T13:24:41.590Z</time>
      </trkpt>
      <trkpt lat="45.56085" lon="5.48835">
        <ele>383</ele>
        <time>2021-04-03T13:24:42.589Z</time>
      </trkpt>
      <trkpt lat="45.56084" lon="5.48829">
        <ele>383</ele>
        <time>2021-04-03T13:24:43.590Z</time>
      </trkpt>
      <trkpt lat="45.56083" lon="5.48825">
        <ele>383</ele>
        <time>2021-04-03T13:24:44.590Z</time>
      </trkpt>
      <trkpt lat="45.56082" lon="5.48818">
        <ele>383</ele>
        <time>2021-04-03T13:24:45.589Z</time>
      </trkpt>
      <trkpt lat="45.5608" lon="5.48812">
        <ele>383</ele>
        <time>2021-04-03T13:24:46.589Z</time>
      </trkpt>
      <trkpt lat="45.56079" lon="5.48807">
        <ele>382</ele>
        <time>2021-04-03T13:24:47.589Z</time>
      </trkpt>
      <trkpt lat="45.56078" lon="5.48801">
        <ele>382</ele>
        <time>2021-04-03T13:24:48.590Z</time>
      </trkpt>
      <trkpt lat="45.56077" lon="5.48797">
        <ele>381</ele>
        <time>2021-04-03T13:24:49.590Z</time>
      </trkpt>
      <trkpt lat="45.56075" lon="5.4879">
        <ele>381</ele>
        <time>2021-04-03T13:24:50.590Z</time>
      </trkpt>
      <trkpt lat="45.56073" lon="5.48782">
        <ele>381</ele>
        <time>2021-04-03T13:24:51.589Z</time>
      </trkpt>
      <trkpt lat="45.56072" lon="5.48776">
        <ele>381</ele>
        <time>2021-04-03T13:24:52.590Z</time>
      </trkpt>
      <trkpt lat="45.5607" lon="5.48768">
        <ele>381</ele>
        <time>2021-04-03T13:24:53.589Z</time>
      </trkpt>
      <trkpt lat="45.56069" lon="5.48763">
        <ele>381</ele>
        <time>2021-04-03T13:24:54.589Z</time>
      </trkpt>
      <trkpt lat="45.56067" lon="5.48755">
        <ele>381</ele>
        <time>2021-04-03T13:24:55.590Z</time>
      </trkpt>
      <trkpt lat="45.56066" lon="5.4875">
        <ele>380</ele>
        <time>2021-04-03T13:24:56.590Z</time>
      </trkpt>
      <trkpt lat="45.56066" lon="5.48745">
        <ele>380</ele>
        <time>2021-04-03T13:24:57.590Z</time>
      </trkpt>
      <trkpt lat="45.56065" lon="5.4874">
        <ele>380</ele>
        <time>2021-04-03T13:24:58.590Z</time>
      </trkpt>
      <trkpt lat="45.56064" lon="5.48737">
        <ele>380</ele>
        <time>2021-04-03T13:24:59.590Z</time>
      </trkpt>
      <trkpt lat="45.56063" lon="5.48732">
        <ele>380</ele>
        <time>2021-04-03T13:25:00.590Z</time>
      </trkpt>
      <trkpt lat="45.56063" lon="5.48728">
        <ele>380</ele>
        <time>2021-04-03T13:25:01.589Z</time>
      </trkpt>
      <trkpt lat="45.56063" lon="5.48724">
        <ele>380</ele>
        <time>2021-04-03T13:25:02.590Z</time>
      </trkpt>
      <trkpt lat="45.56062" lon="5.4872">
        <ele>379</ele>
        <time>2021-04-03T13:25:03.590Z</time>
      </trkpt>
      <trkpt lat="45.56062" lon="5.48717">
        <ele>379</ele>
        <time>2021-04-03T13:25:04.589Z</time>
      </trkpt>
      <trkpt lat="45.56062" lon="5.48712">
        <ele>379</ele>
        <time>2021-04-03T13:25:05.589Z</time>
      </trkpt>
      <trkpt lat="45.56062" lon="5.48707">
        <ele>379</ele>
        <time>2021-04-03T13:25:06.589Z</time>
      </trkpt>
      <trkpt lat="45.56061" lon="5.48703">
        <ele>379</ele>
        <time>2021-04-03T13:25:07.590Z</time>
      </trkpt>
      <trkpt lat="45.56061" lon="5.48698">
        <ele>379</ele>
        <time>2021-04-03T13:25:08.590Z</time>
      </trkpt>
      <trkpt lat="45.5606" lon="5.48694">
        <ele>379</ele>
        <time>2021-04-03T13:25:09.589Z</time>
      </trkpt>
      <trkpt lat="45.56059" lon="5.4869">
        <ele>380</ele>
        <time>2021-04-03T13:25:10.590Z</time>
      </trkpt>
      <trkpt lat="45.56058" lon="5.48687">
        <ele>380</ele>
        <time>2021-04-03T13:25:11.590Z</time>
      </trkpt>
      <trkpt lat="45.56058" lon="5.48684">
        <ele>380</ele>
        <time>2021-04-03T13:25:12.590Z</time>
      </trkpt>
      <trkpt lat="45.56057" lon="5.48681">
        <ele>381</ele>
        <time>2021-04-03T13:25:13.589Z</time>
      </trkpt>
      <trkpt lat="45.56057" lon="5.48678">
        <ele>381</ele>
        <time>2021-04-03T13:25:14.589Z</time>
      </trkpt>
      <trkpt lat="45.56056" lon="5.48675">
        <ele>382</ele>
        <time>2021-04-03T13:25:15.590Z</time>
      </trkpt>
      <trkpt lat="45.56055" lon="5.48674">
        <ele>382</ele>
        <time>2021-04-03T13:25:16.589Z</time>
      </trkpt>
      <trkpt lat="45.56055" lon="5.48672">
        <ele>383</ele>
        <time>2021-04-03T13:25:17.590Z</time>
      </trkpt>
      <trkpt lat="45.56054" lon="5.4867">
        <ele>383</ele>
        <time>2021-04-03T13:25:18.590Z</time>
      </trkpt>
      <trkpt lat="45.56054" lon="5.48668">
        <ele>384</ele>
        <time>2021-04-03T13:25:19.590Z</time>
      </trkpt>
      <trkpt lat="45.56054" lon="5.48666">
        <ele>384</ele>
        <time>2021-04-03T13:25:20.590Z</time>
      </trkpt>
      <trkpt lat="45.56054" lon="5.48664">
        <ele>383</ele>
        <time>2021-04-03T13:25:21.590Z</time>
      </trkpt>
      <trkpt lat="45.56053" lon="5.48663">
        <ele>383</ele>
        <time>2021-04-03T13:25:22.590Z</time>
      </trkpt>
      <trkpt lat="45.56052" lon="5.48662">
        <ele>382</ele>
        <time>2021-04-03T13:25:23.590Z</time>
      </trkpt>
      <trkpt lat="45.56051" lon="5.48661">
        <ele>381</ele>
        <time>2021-04-03T13:25:24.589Z</time>
      </trkpt>
      <trkpt lat="45.56051" lon="5.48659">
        <ele>381</ele>
        <time>2021-04-03T13:25:25.590Z</time>
      </trkpt>
      <trkpt lat="45.5605" lon="5.48656">
        <ele>380</ele>
        <time>2021-04-03T13:25:26.590Z</time>
      </trkpt>
      <trkpt lat="45.56049" lon="5.48652">
        <ele>380</ele>
        <time>2021-04-03T13:25:27.589Z</time>
      </trkpt>
      <trkpt lat="45.56048" lon="5.48648">
        <ele>381</ele>
        <time>2021-04-03T13:25:28.590Z</time>
      </trkpt>
      <trkpt lat="45.56046" lon="5.48643">
        <ele>381</ele>
        <time>2021-04-03T13:25:29.590Z</time>
      </trkpt>
      <trkpt lat="45.56044" lon="5.48639">
        <ele>381</ele>
        <time>2021-04-03T13:25:30.589Z</time>
      </trkpt>
      <trkpt lat="45.56042" lon="5.48634">
        <ele>382</ele>
        <time>2021-04-03T13:25:31.590Z</time>
      </trkpt>
      <trkpt lat="45.5604" lon="5.48631">
        <ele>382</ele>
        <time>2021-04-03T13:25:32.590Z</time>
      </trkpt>
      <trkpt lat="45.56039" lon="5.48627">
        <ele>383</ele>
        <time>2021-04-03T13:25:33.589Z</time>
      </trkpt>
      <trkpt lat="45.56037" lon="5.48622">
        <ele>383</ele>
        <time>2021-04-03T13:25:34.590Z</time>
      </trkpt>
      <trkpt lat="45.56035" lon="5.48618">
        <ele>382</ele>
        <time>2021-04-03T13:25:35.590Z</time>
      </trkpt>
      <trkpt lat="45.56034" lon="5.48614">
        <ele>382</ele>
        <time>2021-04-03T13:25:36.590Z</time>
      </trkpt>
      <trkpt lat="45.56033" lon="5.48611">
        <ele>381</ele>
        <time>2021-04-03T13:25:37.590Z</time>
      </trkpt>
      <trkpt lat="45.56032" lon="5.48607">
        <ele>380</ele>
        <time>2021-04-03T13:25:38.590Z</time>
      </trkpt>
      <trkpt lat="45.56032" lon="5.48604">
        <ele>380</ele>
        <time>2021-04-03T13:25:39.590Z</time>
      </trkpt>
      <trkpt lat="45.56031" lon="5.48599">
        <ele>379</ele>
        <time>2021-04-03T13:25:40.590Z</time>
      </trkpt>
      <trkpt lat="45.56031" lon="5.48595">
        <ele>379</ele>
        <time>2021-04-03T13:25:41.590Z</time>
      </trkpt>
      <trkpt lat="45.56031" lon="5.48592">
        <ele>378</ele>
        <time>2021-04-03T13:25:42.590Z</time>
      </trkpt>
      <trkpt lat="45.56031" lon="5.48588">
        <ele>379</ele>
        <time>2021-04-03T13:25:43.590Z</time>
      </trkpt>
      <trkpt lat="45.5603" lon="5.48584">
        <ele>379</ele>
        <time>2021-04-03T13:25:44.590Z</time>
      </trkpt>
      <trkpt lat="45.56029" lon="5.48583">
        <ele>379</ele>
        <time>2021-04-03T13:25:45.590Z</time>
      </trkpt>
      <trkpt lat="45.56028" lon="5.48583">
        <ele>379</ele>
        <time>2021-04-03T13:25:46.590Z</time>
      </trkpt>
      <trkpt lat="45.56028" lon="5.48585">
        <ele>379</ele>
        <time>2021-04-03T13:25:47.589Z</time>
      </trkpt>
      <trkpt lat="45.56028" lon="5.48588">
        <ele>379</ele>
        <time>2021-04-03T13:25:48.590Z</time>
      </trkpt>
      <trkpt lat="45.56028" lon="5.48592">
        <ele>378</ele>
        <time>2021-04-03T13:25:49.590Z</time>
      </trkpt>
      <trkpt lat="45.56028" lon="5.48596">
        <ele>378</ele>
        <time>2021-04-03T13:25:50.590Z</time>
      </trkpt>
      <trkpt lat="45.56029" lon="5.48602">
        <ele>378</ele>
        <time>2021-04-03T13:25:51.590Z</time>
      </trkpt>
      <trkpt lat="45.5603" lon="5.48607">
        <ele>378</ele>
        <time>2021-04-03T13:25:52.590Z</time>
      </trkpt>
      <trkpt lat="45.56031" lon="5.48613">
        <ele>378</ele>
        <time>2021-04-03T13:25:53.590Z</time>
      </trkpt>
      <trkpt lat="45.56033" lon="5.48619">
        <ele>377</ele>
        <time>2021-04-03T13:25:54.590Z</time>
      </trkpt>
      <trkpt lat="45.56035" lon="5.48624">
        <ele>377</ele>
        <time>2021-04-03T13:25:55.590Z</time>
      </trkpt>
      <trkpt lat="45.56037" lon="5.4863">
        <ele>377</ele>
        <time>2021-04-03T13:25:56.589Z</time>
      </trkpt>
      <trkpt lat="45.56039" lon="5.48635">
        <ele>376</ele>
        <time>2021-04-03T13:25:57.590Z</time>
      </trkpt>
      <trkpt lat="45.56041" lon="5.4864">
        <ele>377</ele>
        <time>2021-04-03T13:25:58.590Z</time>
      </trkpt>
      <trkpt lat="45.56044" lon="5.48645">
        <ele>376</ele>
        <time>2021-04-03T13:25:59.590Z</time>
      </trkpt>
      <trkpt lat="45.56045" lon="5.48649">
        <ele>376</ele>
        <time>2021-04-03T13:26:00.590Z</time>
      </trkpt>
      <trkpt lat="45.56047" lon="5.48653">
        <ele>376</ele>
        <time>2021-04-03T13:26:01.590Z</time>
      </trkpt>
      <trkpt lat="45.56049" lon="5.48658">
        <ele>375</ele>
        <time>2021-04-03T13:26:02.590Z</time>
      </trkpt>
      <trkpt lat="45.56051" lon="5.48663">
        <ele>375</ele>
        <time>2021-04-03T13:26:03.590Z</time>
      </trkpt>
      <trkpt lat="45.56052" lon="5.48668">
        <ele>375</ele>
        <time>2021-04-03T13:26:04.589Z</time>
      </trkpt>
      <trkpt lat="45.56052" lon="5.48672">
        <ele>375</ele>
        <time>2021-04-03T13:26:05.590Z</time>
      </trkpt>
      <trkpt lat="45.56051" lon="5.48677">
        <ele>375</ele>
        <time>2021-04-03T13:26:06.590Z</time>
      </trkpt>
      <trkpt lat="45.56049" lon="5.48681">
        <ele>375</ele>
        <time>2021-04-03T13:26:07.590Z</time>
      </trkpt>
      <trkpt lat="45.56047" lon="5.48684">
        <ele>375</ele>
        <time>2021-04-03T13:26:08.589Z</time>
      </trkpt>
      <trkpt lat="45.56044" lon="5.48686">
        <ele>376</ele>
        <time>2021-04-03T13:26:09.590Z</time>
      </trkpt>
      <trkpt lat="45.56041" lon="5.48687">
        <ele>375</ele>
        <time>2021-04-03T13:26:10.590Z</time>
      </trkpt>
      <trkpt lat="45.56038" lon="5.48688">
        <ele>376</ele>
        <time>2021-04-03T13:26:11.590Z</time>
      </trkpt>
      <trkpt lat="45.56034" lon="5.48689">
        <ele>376</ele>
        <time>2021-04-03T13:26:12.590Z</time>
      </trkpt>
      <trkpt lat="45.56031" lon="5.48689">
        <ele>376</ele>
        <time>2021-04-03T13:26:13.590Z</time>
      </trkpt>
      <trkpt lat="45.56027" lon="5.48689">
        <ele>376</ele>
        <time>2021-04-03T13:26:14.589Z</time>
      </trkpt>
      <trkpt lat="45.56024" lon="5.48687">
        <ele>376</ele>
        <time>2021-04-03T13:26:15.590Z</time>
      </trkpt>
      <trkpt lat="45.56021" lon="5.48684">
        <ele>377</ele>
        <time>2021-04-03T13:26:16.590Z</time>
      </trkpt>
      <trkpt lat="45.5602" lon="5.4868">
        <ele>377</ele>
        <time>2021-04-03T13:26:17.590Z</time>
      </trkpt>
      <trkpt lat="45.56019" lon="5.48675">
        <ele>377</ele>
        <time>2021-04-03T13:26:18.589Z</time>
      </trkpt>
      <trkpt lat="45.56018" lon="5.4867">
        <ele>378</ele>
        <time>2021-04-03T13:26:19.590Z</time>
      </trkpt>
      <trkpt lat="45.56017" lon="5.48664">
        <ele>378</ele>
        <time>2021-04-03T13:26:20.590Z</time>
      </trkpt>
      <trkpt lat="45.56016" lon="5.48657">
        <ele>379</ele>
        <time>2021-04-03T13:26:21.590Z</time>
      </trkpt>
      <trkpt lat="45.56016" lon="5.48653">
        <ele>379</ele>
        <time>2021-04-03T13:26:22.590Z</time>
      </trkpt>
      <trkpt lat="45.56015" lon="5.48647">
        <ele>380</ele>
        <time>2021-04-03T13:26:23.590Z</time>
      </trkpt>
      <trkpt lat="45.56015" lon="5.4864">
        <ele>380</ele>
        <time>2021-04-03T13:26:24.590Z</time>
      </trkpt>
      <trkpt lat="45.56014" lon="5.48634">
        <ele>380</ele>
        <time>2021-04-03T13:26:25.590Z</time>
      </trkpt>
      <trkpt lat="45.56014" lon="5.48628">
        <ele>379</ele>
        <time>2021-04-03T13:26:26.590Z</time>
      </trkpt>
      <trkpt lat="45.56013" lon="5.48623">
        <ele>379</ele>
        <time>2021-04-03T13:26:27.590Z</time>
      </trkpt>
      <trkpt lat="45.56012" lon="5.48617">
        <ele>378</ele>
        <time>2021-04-03T13:26:28.589Z</time>
      </trkpt>
      <trkpt lat="45.56011" lon="5.48611">
        <ele>378</ele>
        <time>2021-04-03T13:26:29.590Z</time>
      </trkpt>
      <trkpt lat="45.56009" lon="5.48604">
        <ele>378</ele>
        <time>2021-04-03T13:26:30.590Z</time>
      </trkpt>
      <trkpt lat="45.56007" lon="5.486">
        <ele>378</ele>
        <time>2021-04-03T13:26:31.589Z</time>
      </trkpt>
      <trkpt lat="45.56005" lon="5.48595">
        <ele>378</ele>
        <time>2021-04-03T13:26:32.589Z</time>
      </trkpt>
      <trkpt lat="45.56004" lon="5.48589">
        <ele>378</ele>
        <time>2021-04-03T13:26:33.590Z</time>
      </trkpt>
      <trkpt lat="45.56002" lon="5.48584">
        <ele>378</ele>
        <time>2021-04-03T13:26:34.589Z</time>
      </trkpt>
      <trkpt lat="45.56" lon="5.48579">
        <ele>378</ele>
        <time>2021-04-03T13:26:35.590Z</time>
      </trkpt>
      <trkpt lat="45.55998" lon="5.48574">
        <ele>378</ele>
        <time>2021-04-03T13:26:36.590Z</time>
      </trkpt>
      <trkpt lat="45.55996" lon="5.48569">
        <ele>378</ele>
        <time>2021-04-03T13:26:37.589Z</time>
      </trkpt>
      <trkpt lat="45.55995" lon="5.48564">
        <ele>377</ele>
        <time>2021-04-03T13:26:38.589Z</time>
      </trkpt>
      <trkpt lat="45.55993" lon="5.48559">
        <ele>377</ele>
        <time>2021-04-03T13:26:39.590Z</time>
      </trkpt>
      <trkpt lat="45.55991" lon="5.48553">
        <ele>377</ele>
        <time>2021-04-03T13:26:40.590Z</time>
      </trkpt>
      <trkpt lat="45.5599" lon="5.48548">
        <ele>377</ele>
        <time>2021-04-03T13:26:41.590Z</time>
      </trkpt>
      <trkpt lat="45.55988" lon="5.48543">
        <ele>376</ele>
        <time>2021-04-03T13:26:42.590Z</time>
      </trkpt>
      <trkpt lat="45.55986" lon="5.48537">
        <ele>376</ele>
        <time>2021-04-03T13:26:43.590Z</time>
      </trkpt>
      <trkpt lat="45.55983" lon="5.48531">
        <ele>375</ele>
        <time>2021-04-03T13:26:44.590Z</time>
      </trkpt>
      <trkpt lat="45.55982" lon="5.48525">
        <ele>375</ele>
        <time>2021-04-03T13:26:45.590Z</time>
      </trkpt>
      <trkpt lat="45.5598" lon="5.48519">
        <ele>375</ele>
        <time>2021-04-03T13:26:46.590Z</time>
      </trkpt>
      <trkpt lat="45.55979" lon="5.48512">
        <ele>375</ele>
        <time>2021-04-03T13:26:47.589Z</time>
      </trkpt>
      <trkpt lat="45.55977" lon="5.48506">
        <ele>374</ele>
        <time>2021-04-03T13:26:48.590Z</time>
      </trkpt>
      <trkpt lat="45.55975" lon="5.48499">
        <ele>374</ele>
        <time>2021-04-03T13:26:49.589Z</time>
      </trkpt>
      <trkpt lat="45.55972" lon="5.48493">
        <ele>374</ele>
        <time>2021-04-03T13:26:50.590Z</time>
      </trkpt>
      <trkpt lat="45.55968" lon="5.48487">
        <ele>374</ele>
        <time>2021-04-03T13:26:51.590Z</time>
      </trkpt>
      <trkpt lat="45.55965" lon="5.48482">
        <ele>373</ele>
        <time>2021-04-03T13:26:52.589Z</time>
      </trkpt>
      <trkpt lat="45.5596" lon="5.48478">
        <ele>373</ele>
        <time>2021-04-03T13:26:53.590Z</time>
      </trkpt>
      <trkpt lat="45.55955" lon="5.48474">
        <ele>373</ele>
        <time>2021-04-03T13:26:54.590Z</time>
      </trkpt>
      <trkpt lat="45.5595" lon="5.48472">
        <ele>373</ele>
        <time>2021-04-03T13:26:55.590Z</time>
      </trkpt>
      <trkpt lat="45.55944" lon="5.4847">
        <ele>372</ele>
        <time>2021-04-03T13:26:56.590Z</time>
      </trkpt>
      <trkpt lat="45.55938" lon="5.48469">
        <ele>372</ele>
        <time>2021-04-03T13:26:57.590Z</time>
      </trkpt>
      <trkpt lat="45.55932" lon="5.48469">
        <ele>373</ele>
        <time>2021-04-03T13:26:58.590Z</time>
      </trkpt>
      <trkpt lat="45.55926" lon="5.48469">
        <ele>373</ele>
        <time>2021-04-03T13:26:59.590Z</time>
      </trkpt>
      <trkpt lat="45.5592" lon="5.48469">
        <ele>373</ele>
        <time>2021-04-03T13:27:00.590Z</time>
      </trkpt>
      <trkpt lat="45.55914" lon="5.4847">
        <ele>373</ele>
        <time>2021-04-03T13:27:01.590Z</time>
      </trkpt>
      <trkpt lat="45.55909" lon="5.4847">
        <ele>373</ele>
        <time>2021-04-03T13:27:02.590Z</time>
      </trkpt>
      <trkpt lat="45.55903" lon="5.48471">
        <ele>373</ele>
        <time>2021-04-03T13:27:03.590Z</time>
      </trkpt>
      <trkpt lat="45.55897" lon="5.48471">
        <ele>373</ele>
        <time>2021-04-03T13:27:04.590Z</time>
      </trkpt>
      <trkpt lat="45.55892" lon="5.48471">
        <ele>373</ele>
        <time>2021-04-03T13:27:05.590Z</time>
      </trkpt>
      <trkpt lat="45.55887" lon="5.48471">
        <ele>373</ele>
        <time>2021-04-03T13:27:06.590Z</time>
      </trkpt>
      <trkpt lat="45.55881" lon="5.48471">
        <ele>372</ele>
        <time>2021-04-03T13:27:07.590Z</time>
      </trkpt>
      <trkpt lat="45.55876" lon="5.48471">
        <ele>372</ele>
        <time>2021-04-03T13:27:08.590Z</time>
      </trkpt>
      <trkpt lat="45.55871" lon="5.48472">
        <ele>372</ele>
        <time>2021-04-03T13:27:09.589Z</time>
      </trkpt>
      <trkpt lat="45.55866" lon="5.48472">
        <ele>371</ele>
        <time>2021-04-03T13:27:10.589Z</time>
      </trkpt>
      <trkpt lat="45.5586" lon="5.48472">
        <ele>371</ele>
        <time>2021-04-03T13:27:11.589Z</time>
      </trkpt>
      <trkpt lat="45.55855" lon="5.48472">
        <ele>371</ele>
        <time>2021-04-03T13:27:12.589Z</time>
      </trkpt>
      <trkpt lat="45.5585" lon="5.48472">
        <ele>371</ele>
        <time>2021-04-03T13:27:13.589Z</time>
      </trkpt>
      <trkpt lat="45.55845" lon="5.48473">
        <ele>371</ele>
        <time>2021-04-03T13:27:14.589Z</time>
      </trkpt>
      <trkpt lat="45.5584" lon="5.48474">
        <ele>372</ele>
        <time>2021-04-03T13:27:15.589Z</time>
      </trkpt>
      <trkpt lat="45.55835" lon="5.48474">
        <ele>372</ele>
        <time>2021-04-03T13:27:16.590Z</time>
      </trkpt>
      <trkpt lat="45.5583" lon="5.48475">
        <ele>372</ele>
        <time>2021-04-03T13:27:17.589Z</time>
      </trkpt>
      <trkpt lat="45.55825" lon="5.48476">
        <ele>372</ele>
        <time>2021-04-03T13:27:18.589Z</time>
      </trkpt>
      <trkpt lat="45.5582" lon="5.48476">
        <ele>372</ele>
        <time>2021-04-03T13:27:19.590Z</time>
      </trkpt>
      <trkpt lat="45.55814" lon="5.48477">
        <ele>372</ele>
        <time>2021-04-03T13:27:20.590Z</time>
      </trkpt>
      <trkpt lat="45.5581" lon="5.48478">
        <ele>372</ele>
        <time>2021-04-03T13:27:21.590Z</time>
      </trkpt>
      <trkpt lat="45.55805" lon="5.48479">
        <ele>372</ele>
        <time>2021-04-03T13:27:22.590Z</time>
      </trkpt>
      <trkpt lat="45.55799" lon="5.4848">
        <ele>373</ele>
        <time>2021-04-03T13:27:23.589Z</time>
      </trkpt>
      <trkpt lat="45.55795" lon="5.48481">
        <ele>373</ele>
        <time>2021-04-03T13:27:24.589Z</time>
      </trkpt>
      <trkpt lat="45.55792" lon="5.48481">
        <ele>374</ele>
        <time>2021-04-03T13:27:25.590Z</time>
      </trkpt>
      <trkpt lat="45.55788" lon="5.48482">
        <ele>374</ele>
        <time>2021-04-03T13:27:26.590Z</time>
      </trkpt>
      <trkpt lat="45.55785" lon="5.48482">
        <ele>374</ele>
        <time>2021-04-03T13:27:27.590Z</time>
      </trkpt>
      <trkpt lat="45.5578" lon="5.48483">
        <ele>374</ele>
        <time>2021-04-03T13:27:28.589Z</time>
      </trkpt>
      <trkpt lat="45.55777" lon="5.48483">
        <ele>374</ele>
        <time>2021-04-03T13:27:29.590Z</time>
      </trkpt>
      <trkpt lat="45.55773" lon="5.48484">
        <ele>374</ele>
        <time>2021-04-03T13:27:30.590Z</time>
      </trkpt>
      <trkpt lat="45.5577" lon="5.48484">
        <ele>374</ele>
        <time>2021-04-03T13:27:31.590Z</time>
      </trkpt>
      <trkpt lat="45.55765" lon="5.48484">
        <ele>375</ele>
        <time>2021-04-03T13:27:32.590Z</time>
      </trkpt>
      <trkpt lat="45.55761" lon="5.48483">
        <ele>375</ele>
        <time>2021-04-03T13:27:33.589Z</time>
      </trkpt>
      <trkpt lat="45.55757" lon="5.48483">
        <ele>375</ele>
        <time>2021-04-03T13:27:34.590Z</time>
      </trkpt>
      <trkpt lat="45.55754" lon="5.48482">
        <ele>376</ele>
        <time>2021-04-03T13:27:35.590Z</time>
      </trkpt>
      <trkpt lat="45.55751" lon="5.48481">
        <ele>376</ele>
        <time>2021-04-03T13:27:36.590Z</time>
      </trkpt>
      <trkpt lat="45.55747" lon="5.48479">
        <ele>376</ele>
        <time>2021-04-03T13:27:37.590Z</time>
      </trkpt>
      <trkpt lat="45.55744" lon="5.48477">
        <ele>376</ele>
        <time>2021-04-03T13:27:38.590Z</time>
      </trkpt>
      <trkpt lat="45.55741" lon="5.48474">
        <ele>377</ele>
        <time>2021-04-03T13:27:39.590Z</time>
      </trkpt>
      <trkpt lat="45.55737" lon="5.48473">
        <ele>378</ele>
        <time>2021-04-03T13:27:40.590Z</time>
      </trkpt>
      <trkpt lat="45.55733" lon="5.4847">
        <ele>378</ele>
        <time>2021-04-03T13:27:41.590Z</time>
      </trkpt>
      <trkpt lat="45.5573" lon="5.48467">
        <ele>379</ele>
        <time>2021-04-03T13:27:42.590Z</time>
      </trkpt>
      <trkpt lat="45.55726" lon="5.48463">
        <ele>379</ele>
        <time>2021-04-03T13:27:43.590Z</time>
      </trkpt>
      <trkpt lat="45.55722" lon="5.4846">
        <ele>379</ele>
        <time>2021-04-03T13:27:44.590Z</time>
      </trkpt>
      <trkpt lat="45.55718" lon="5.48457">
        <ele>379</ele>
        <time>2021-04-03T13:27:45.590Z</time>
      </trkpt>
      <trkpt lat="45.55714" lon="5.48453">
        <ele>379</ele>
        <time>2021-04-03T13:27:46.590Z</time>
      </trkpt>
      <trkpt lat="45.55711" lon="5.4845">
        <ele>380</ele>
        <time>2021-04-03T13:27:47.590Z</time>
      </trkpt>
      <trkpt lat="45.55707" lon="5.48446">
        <ele>381</ele>
        <time>2021-04-03T13:27:48.590Z</time>
      </trkpt>
      <trkpt lat="45.55704" lon="5.48443">
        <ele>381</ele>
        <time>2021-04-03T13:27:49.590Z</time>
      </trkpt>
      <trkpt lat="45.557" lon="5.48439">
        <ele>382</ele>
        <time>2021-04-03T13:27:50.590Z</time>
      </trkpt>
      <trkpt lat="45.55697" lon="5.48434">
        <ele>383</ele>
        <time>2021-04-03T13:27:51.589Z</time>
      </trkpt>
      <trkpt lat="45.55694" lon="5.48429">
        <ele>383</ele>
        <time>2021-04-03T13:27:52.590Z</time>
      </trkpt>
      <trkpt lat="45.55692" lon="5.48425">
        <ele>383</ele>
        <time>2021-04-03T13:27:53.590Z</time>
      </trkpt>
      <trkpt lat="45.55689" lon="5.48421">
        <ele>383</ele>
        <time>2021-04-03T13:27:54.590Z</time>
      </trkpt>
      <trkpt lat="45.55686" lon="5.48416">
        <ele>382</ele>
        <time>2021-04-03T13:27:55.589Z</time>
      </trkpt>
      <trkpt lat="45.55683" lon="5.48411">
        <ele>381</ele>
        <time>2021-04-03T13:27:56.589Z</time>
      </trkpt>
      <trkpt lat="45.55679" lon="5.48405">
        <ele>381</ele>
        <time>2021-04-03T13:27:57.590Z</time>
      </trkpt>
      <trkpt lat="45.55676" lon="5.484">
        <ele>381</ele>
        <time>2021-04-03T13:27:58.590Z</time>
      </trkpt>
      <trkpt lat="45.55672" lon="5.48395">
        <ele>381</ele>
        <time>2021-04-03T13:27:59.590Z</time>
      </trkpt>
      <trkpt lat="45.55668" lon="5.4839">
        <ele>382</ele>
        <time>2021-04-03T13:28:00.589Z</time>
      </trkpt>
      <trkpt lat="45.55665" lon="5.48385">
        <ele>383</ele>
        <time>2021-04-03T13:28:01.590Z</time>
      </trkpt>
      <trkpt lat="45.55661" lon="5.4838">
        <ele>384</ele>
        <time>2021-04-03T13:28:02.590Z</time>
      </trkpt>
      <trkpt lat="45.55658" lon="5.48376">
        <ele>384</ele>
        <time>2021-04-03T13:28:03.590Z</time>
      </trkpt>
      <trkpt lat="45.55654" lon="5.48371">
        <ele>384</ele>
        <time>2021-04-03T13:28:04.589Z</time>
      </trkpt>
      <trkpt lat="45.5565" lon="5.48366">
        <ele>384</ele>
        <time>2021-04-03T13:28:05.590Z</time>
      </trkpt>
      <trkpt lat="45.55647" lon="5.4836">
        <ele>384</ele>
        <time>2021-04-03T13:28:06.590Z</time>
      </trkpt>
      <trkpt lat="45.55643" lon="5.48355">
        <ele>384</ele>
        <time>2021-04-03T13:28:07.589Z</time>
      </trkpt>
      <trkpt lat="45.55639" lon="5.4835">
        <ele>385</ele>
        <time>2021-04-03T13:28:08.590Z</time>
      </trkpt>
      <trkpt lat="45.55635" lon="5.48345">
        <ele>385</ele>
        <time>2021-04-03T13:28:09.590Z</time>
      </trkpt>
      <trkpt lat="45.55631" lon="5.48339">
        <ele>385</ele>
        <time>2021-04-03T13:28:10.590Z</time>
      </trkpt>
      <trkpt lat="45.55627" lon="5.48333">
        <ele>384</ele>
        <time>2021-04-03T13:28:11.589Z</time>
      </trkpt>
      <trkpt lat="45.55624" lon="5.48327">
        <ele>384</ele>
        <time>2021-04-03T13:28:12.589Z</time>
      </trkpt>
      <trkpt lat="45.55619" lon="5.48321">
        <ele>384</ele>
        <time>2021-04-03T13:28:13.590Z</time>
      </trkpt>
      <trkpt lat="45.55616" lon="5.48314">
        <ele>384</ele>
        <time>2021-04-03T13:28:14.589Z</time>
      </trkpt>
      <trkpt lat="45.55613" lon="5.4831">
        <ele>385</ele>
        <time>2021-04-03T13:28:15.590Z</time>
      </trkpt>
      <trkpt lat="45.55609" lon="5.48303">
        <ele>385</ele>
        <time>2021-04-03T13:28:16.589Z</time>
      </trkpt>
      <trkpt lat="45.55607" lon="5.48299">
        <ele>385</ele>
        <time>2021-04-03T13:28:17.589Z</time>
      </trkpt>
      <trkpt lat="45.55605" lon="5.48294">
        <ele>385</ele>
        <time>2021-04-03T13:28:18.590Z</time>
      </trkpt>
      <trkpt lat="45.55603" lon="5.4829">
        <ele>386</ele>
        <time>2021-04-03T13:28:19.590Z</time>
      </trkpt>
      <trkpt lat="45.55602" lon="5.48287">
        <ele>386</ele>
        <time>2021-04-03T13:28:20.590Z</time>
      </trkpt>
      <trkpt lat="45.55602" lon="5.48284">
        <ele>387</ele>
        <time>2021-04-03T13:28:21.590Z</time>
      </trkpt>
      <trkpt lat="45.55601" lon="5.48282">
        <ele>387</ele>
        <time>2021-04-03T13:28:22.590Z</time>
      </trkpt>
      <trkpt lat="45.55601" lon="5.48282">
        <ele>387</ele>
        <time>2021-04-03T13:28:23.590Z</time>
      </trkpt>
      <trkpt lat="45.55602" lon="5.48281">
        <ele>387</ele>
        <time>2021-04-03T13:28:24.590Z</time>
      </trkpt>
      <trkpt lat="45.55602" lon="5.48282">
        <ele>387</ele>
        <time>2021-04-03T13:28:25.589Z</time>
      </trkpt>
      <trkpt lat="45.55603" lon="5.48279">
        <ele>385</ele>
        <time>2021-04-03T13:28:26.591Z</time>
      </trkpt>
      <trkpt lat="45.55603" lon="5.48278">
        <ele>385</ele>
        <time>2021-04-03T13:28:27.591Z</time>
      </trkpt>
      <trkpt lat="45.55605" lon="5.48276">
        <ele>384</ele>
        <time>2021-04-03T13:28:28.591Z</time>
      </trkpt>
      <trkpt lat="45.55606" lon="5.48275">
        <ele>384</ele>
        <time>2021-04-03T13:28:29.591Z</time>
      </trkpt>
      <trkpt lat="45.55609" lon="5.48273">
        <ele>383</ele>
        <time>2021-04-03T13:28:30.590Z</time>
      </trkpt>
      <trkpt lat="45.55612" lon="5.48271">
        <ele>383</ele>
        <time>2021-04-03T13:28:31.591Z</time>
      </trkpt>
      <trkpt lat="45.55615" lon="5.48269">
        <ele>383</ele>
        <time>2021-04-03T13:28:32.591Z</time>
      </trkpt>
      <trkpt lat="45.55617" lon="5.48267">
        <ele>382</ele>
        <time>2021-04-03T13:28:33.591Z</time>
      </trkpt>
      <trkpt lat="45.55619" lon="5.48265">
        <ele>383</ele>
        <time>2021-04-03T13:28:34.591Z</time>
      </trkpt>
      <trkpt lat="45.55622" lon="5.48262">
        <ele>383</ele>
        <time>2021-04-03T13:28:35.591Z</time>
      </trkpt>
      <trkpt lat="45.55625" lon="5.4826">
        <ele>383</ele>
        <time>2021-04-03T13:28:36.591Z</time>
      </trkpt>
      <trkpt lat="45.55627" lon="5.48258">
        <ele>383</ele>
        <time>2021-04-03T13:28:37.591Z</time>
      </trkpt>
      <trkpt lat="45.5563" lon="5.48257">
        <ele>383</ele>
        <time>2021-04-03T13:28:38.591Z</time>
      </trkpt>
      <trkpt lat="45.55633" lon="5.48255">
        <ele>383</ele>
        <time>2021-04-03T13:28:39.591Z</time>
      </trkpt>
      <trkpt lat="45.55635" lon="5.48254">
        <ele>382</ele>
        <time>2021-04-03T13:28:40.590Z</time>
      </trkpt>
      <trkpt lat="45.55638" lon="5.48252">
        <ele>382</ele>
        <time>2021-04-03T13:28:41.590Z</time>
      </trkpt>
      <trkpt lat="45.5564" lon="5.48251">
        <ele>381</ele>
        <time>2021-04-03T13:28:42.591Z</time>
      </trkpt>
      <trkpt lat="45.55643" lon="5.48249">
        <ele>381</ele>
        <time>2021-04-03T13:28:43.591Z</time>
      </trkpt>
      <trkpt lat="45.55646" lon="5.48247">
        <ele>381</ele>
        <time>2021-04-03T13:28:44.590Z</time>
      </trkpt>
      <trkpt lat="45.55649" lon="5.48245">
        <ele>382</ele>
        <time>2021-04-03T13:28:45.591Z</time>
      </trkpt>
      <trkpt lat="45.55653" lon="5.48242">
        <ele>382</ele>
        <time>2021-04-03T13:28:46.591Z</time>
      </trkpt>
      <trkpt lat="45.55657" lon="5.48239">
        <ele>382</ele>
        <time>2021-04-03T13:28:47.591Z</time>
      </trkpt>
      <trkpt lat="45.5566" lon="5.48236">
        <ele>382</ele>
        <time>2021-04-03T13:28:48.591Z</time>
      </trkpt>
      <trkpt lat="45.55664" lon="5.48233">
        <ele>382</ele>
        <time>2021-04-03T13:28:49.591Z</time>
      </trkpt>
      <trkpt lat="45.55668" lon="5.4823">
        <ele>382</ele>
        <time>2021-04-03T13:28:50.591Z</time>
      </trkpt>
      <trkpt lat="45.55672" lon="5.48226">
        <ele>381</ele>
        <time>2021-04-03T13:28:51.590Z</time>
      </trkpt>
      <trkpt lat="45.55676" lon="5.48223">
        <ele>381</ele>
        <time>2021-04-03T13:28:52.591Z</time>
      </trkpt>
      <trkpt lat="45.5568" lon="5.48219">
        <ele>381</ele>
        <time>2021-04-03T13:28:53.591Z</time>
      </trkpt>
      <trkpt lat="45.55684" lon="5.48215">
        <ele>381</ele>
        <time>2021-04-03T13:28:54.590Z</time>
      </trkpt>
      <trkpt lat="45.55689" lon="5.48211">
        <ele>381</ele>
        <time>2021-04-03T13:28:55.591Z</time>
      </trkpt>
      <trkpt lat="45.55693" lon="5.48206">
        <ele>380</ele>
        <time>2021-04-03T13:28:56.591Z</time>
      </trkpt>
      <trkpt lat="45.55698" lon="5.48202">
        <ele>380</ele>
        <time>2021-04-03T13:28:57.591Z</time>
      </trkpt>
      <trkpt lat="45.55702" lon="5.48197">
        <ele>379</ele>
        <time>2021-04-03T13:28:58.591Z</time>
      </trkpt>
      <trkpt lat="45.55707" lon="5.48191">
        <ele>379</ele>
        <time>2021-04-03T13:28:59.590Z</time>
      </trkpt>
      <trkpt lat="45.55711" lon="5.48186">
        <ele>379</ele>
        <time>2021-04-03T13:29:00.590Z</time>
      </trkpt>
      <trkpt lat="45.55716" lon="5.4818">
        <ele>379</ele>
        <time>2021-04-03T13:29:01.591Z</time>
      </trkpt>
      <trkpt lat="45.55721" lon="5.48174">
        <ele>379</ele>
        <time>2021-04-03T13:29:02.591Z</time>
      </trkpt>
      <trkpt lat="45.55726" lon="5.48167">
        <ele>379</ele>
        <time>2021-04-03T13:29:03.591Z</time>
      </trkpt>
      <trkpt lat="45.55731" lon="5.48159">
        <ele>379</ele>
        <time>2021-04-03T13:29:04.591Z</time>
      </trkpt>
      <trkpt lat="45.55735" lon="5.48151">
        <ele>378</ele>
        <time>2021-04-03T13:29:05.591Z</time>
      </trkpt>
      <trkpt lat="45.5574" lon="5.48142">
        <ele>378</ele>
        <time>2021-04-03T13:29:06.591Z</time>
      </trkpt>
      <trkpt lat="45.55745" lon="5.48134">
        <ele>377</ele>
        <time>2021-04-03T13:29:07.591Z</time>
      </trkpt>
      <trkpt lat="45.55749" lon="5.48125">
        <ele>377</ele>
        <time>2021-04-03T13:29:08.590Z</time>
      </trkpt>
      <trkpt lat="45.55754" lon="5.48116">
        <ele>376</ele>
        <time>2021-04-03T13:29:09.590Z</time>
      </trkpt>
      <trkpt lat="45.55758" lon="5.48107">
        <ele>376</ele>
        <time>2021-04-03T13:29:10.590Z</time>
      </trkpt>
      <trkpt lat="45.55763" lon="5.48098">
        <ele>375</ele>
        <time>2021-04-03T13:29:11.590Z</time>
      </trkpt>
      <trkpt lat="45.55767" lon="5.48089">
        <ele>375</ele>
        <time>2021-04-03T13:29:12.590Z</time>
      </trkpt>
      <trkpt lat="45.55772" lon="5.4808">
        <ele>374</ele>
        <time>2021-04-03T13:29:13.591Z</time>
      </trkpt>
      <trkpt lat="45.55777" lon="5.4807">
        <ele>373</ele>
        <time>2021-04-03T13:29:14.591Z</time>
      </trkpt>
      <trkpt lat="45.55781" lon="5.48061">
        <ele>373</ele>
        <time>2021-04-03T13:29:15.591Z</time>
      </trkpt>
      <trkpt lat="45.55786" lon="5.48052">
        <ele>373</ele>
        <time>2021-04-03T13:29:16.591Z</time>
      </trkpt>
      <trkpt lat="45.55791" lon="5.48043">
        <ele>373</ele>
        <time>2021-04-03T13:29:17.590Z</time>
      </trkpt>
      <trkpt lat="45.55797" lon="5.48034">
        <ele>373</ele>
        <time>2021-04-03T13:29:18.591Z</time>
      </trkpt>
      <trkpt lat="45.55802" lon="5.48025">
        <ele>372</ele>
        <time>2021-04-03T13:29:19.590Z</time>
      </trkpt>
      <trkpt lat="45.55807" lon="5.48016">
        <ele>372</ele>
        <time>2021-04-03T13:29:20.591Z</time>
      </trkpt>
      <trkpt lat="45.55813" lon="5.48007">
        <ele>372</ele>
        <time>2021-04-03T13:29:21.591Z</time>
      </trkpt>
      <trkpt lat="45.55818" lon="5.47999">
        <ele>372</ele>
        <time>2021-04-03T13:29:22.591Z</time>
      </trkpt>
      <trkpt lat="45.55824" lon="5.4799">
        <ele>371</ele>
        <time>2021-04-03T13:29:23.591Z</time>
      </trkpt>
      <trkpt lat="45.55829" lon="5.47981">
        <ele>371</ele>
        <time>2021-04-03T13:29:24.591Z</time>
      </trkpt>
      <trkpt lat="45.55834" lon="5.47972">
        <ele>371</ele>
        <time>2021-04-03T13:29:25.591Z</time>
      </trkpt>
      <trkpt lat="45.5584" lon="5.47964">
        <ele>371</ele>
        <time>2021-04-03T13:29:26.591Z</time>
      </trkpt>
      <trkpt lat="45.55846" lon="5.47956">
        <ele>370</ele>
        <time>2021-04-03T13:29:27.591Z</time>
      </trkpt>
      <trkpt lat="45.55852" lon="5.47948">
        <ele>369</ele>
        <time>2021-04-03T13:29:28.590Z</time>
      </trkpt>
      <trkpt lat="45.55858" lon="5.4794">
        <ele>369</ele>
        <time>2021-04-03T13:29:29.591Z</time>
      </trkpt>
      <trkpt lat="45.55864" lon="5.47932">
        <ele>368</ele>
        <time>2021-04-03T13:29:30.591Z</time>
      </trkpt>
      <trkpt lat="45.5587" lon="5.47925">
        <ele>368</ele>
        <time>2021-04-03T13:29:31.591Z</time>
      </trkpt>
      <trkpt lat="45.55876" lon="5.47917">
        <ele>367</ele>
        <time>2021-04-03T13:29:32.590Z</time>
      </trkpt>
      <trkpt lat="45.55881" lon="5.47909">
        <ele>367</ele>
        <time>2021-04-03T13:29:33.591Z</time>
      </trkpt>
      <trkpt lat="45.55887" lon="5.47902">
        <ele>366</ele>
        <time>2021-04-03T13:29:34.591Z</time>
      </trkpt>
      <trkpt lat="45.55892" lon="5.47894">
        <ele>366</ele>
        <time>2021-04-03T13:29:35.591Z</time>
      </trkpt>
      <trkpt lat="45.55897" lon="5.47887">
        <ele>365</ele>
        <time>2021-04-03T13:29:36.590Z</time>
      </trkpt>
      <trkpt lat="45.55902" lon="5.47881">
        <ele>365</ele>
        <time>2021-04-03T13:29:37.591Z</time>
      </trkpt>
      <trkpt lat="45.55907" lon="5.47875">
        <ele>365</ele>
        <time>2021-04-03T13:29:38.591Z</time>
      </trkpt>
      <trkpt lat="45.55911" lon="5.4787">
        <ele>365</ele>
        <time>2021-04-03T13:29:39.591Z</time>
      </trkpt>
      <trkpt lat="45.55914" lon="5.47865">
        <ele>364</ele>
        <time>2021-04-03T13:29:40.591Z</time>
      </trkpt>
      <trkpt lat="45.55918" lon="5.47861">
        <ele>364</ele>
        <time>2021-04-03T13:29:41.591Z</time>
      </trkpt>
      <trkpt lat="45.55921" lon="5.47857">
        <ele>364</ele>
        <time>2021-04-03T13:29:42.591Z</time>
      </trkpt>
      <trkpt lat="45.55924" lon="5.47854">
        <ele>363</ele>
        <time>2021-04-03T13:29:43.591Z</time>
      </trkpt>
      <trkpt lat="45.55927" lon="5.4785">
        <ele>363</ele>
        <time>2021-04-03T13:29:44.591Z</time>
      </trkpt>
      <trkpt lat="45.5593" lon="5.47846">
        <ele>363</ele>
        <time>2021-04-03T13:29:45.591Z</time>
      </trkpt>
      <trkpt lat="45.55934" lon="5.47843">
        <ele>363</ele>
        <time>2021-04-03T13:29:46.591Z</time>
      </trkpt>
      <trkpt lat="45.55937" lon="5.47839">
        <ele>362</ele>
        <time>2021-04-03T13:29:47.591Z</time>
      </trkpt>
      <trkpt lat="45.55941" lon="5.47835">
        <ele>362</ele>
        <time>2021-04-03T13:29:48.591Z</time>
      </trkpt>
      <trkpt lat="45.55945" lon="5.47831">
        <ele>362</ele>
        <time>2021-04-03T13:29:49.591Z</time>
      </trkpt>
      <trkpt lat="45.55949" lon="5.47828">
        <ele>362</ele>
        <time>2021-04-03T13:29:50.591Z</time>
      </trkpt>
      <trkpt lat="45.55953" lon="5.47824">
        <ele>362</ele>
        <time>2021-04-03T13:29:51.591Z</time>
      </trkpt>
      <trkpt lat="45.55956" lon="5.4782">
        <ele>362</ele>
        <time>2021-04-03T13:29:52.591Z</time>
      </trkpt>
      <trkpt lat="45.5596" lon="5.47816">
        <ele>363</ele>
        <time>2021-04-03T13:29:53.591Z</time>
      </trkpt>
      <trkpt lat="45.55964" lon="5.47812">
        <ele>363</ele>
        <time>2021-04-03T13:29:54.591Z</time>
      </trkpt>
      <trkpt lat="45.55969" lon="5.47808">
        <ele>363</ele>
        <time>2021-04-03T13:29:55.591Z</time>
      </trkpt>
      <trkpt lat="45.55973" lon="5.47803">
        <ele>363</ele>
        <time>2021-04-03T13:29:56.590Z</time>
      </trkpt>
      <trkpt lat="45.55978" lon="5.47799">
        <ele>362</ele>
        <time>2021-04-03T13:29:57.591Z</time>
      </trkpt>
      <trkpt lat="45.55983" lon="5.47793">
        <ele>362</ele>
        <time>2021-04-03T13:29:58.591Z</time>
      </trkpt>
      <trkpt lat="45.55988" lon="5.47788">
        <ele>362</ele>
        <time>2021-04-03T13:29:59.591Z</time>
      </trkpt>
      <trkpt lat="45.55993" lon="5.47782">
        <ele>362</ele>
        <time>2021-04-03T13:30:00.591Z</time>
      </trkpt>
      <trkpt lat="45.55998" lon="5.47776">
        <ele>362</ele>
        <time>2021-04-03T13:30:01.591Z</time>
      </trkpt>
      <trkpt lat="45.56004" lon="5.4777">
        <ele>362</ele>
        <time>2021-04-03T13:30:02.591Z</time>
      </trkpt>
      <trkpt lat="45.56009" lon="5.47765">
        <ele>361</ele>
        <time>2021-04-03T13:30:03.591Z</time>
      </trkpt>
      <trkpt lat="45.56015" lon="5.47759">
        <ele>361</ele>
        <time>2021-04-03T13:30:04.591Z</time>
      </trkpt>
      <trkpt lat="45.5602" lon="5.47754">
        <ele>360</ele>
        <time>2021-04-03T13:30:05.591Z</time>
      </trkpt>
      <trkpt lat="45.56026" lon="5.47748">
        <ele>360</ele>
        <time>2021-04-03T13:30:06.591Z</time>
      </trkpt>
      <trkpt lat="45.56031" lon="5.47743">
        <ele>360</ele>
        <time>2021-04-03T13:30:07.591Z</time>
      </trkpt>
      <trkpt lat="45.56037" lon="5.47738">
        <ele>359</ele>
        <time>2021-04-03T13:30:08.591Z</time>
      </trkpt>
      <trkpt lat="45.56042" lon="5.47733">
        <ele>359</ele>
        <time>2021-04-03T13:30:09.591Z</time>
      </trkpt>
      <trkpt lat="45.56047" lon="5.47728">
        <ele>359</ele>
        <time>2021-04-03T13:30:10.591Z</time>
      </trkpt>
      <trkpt lat="45.56052" lon="5.47722">
        <ele>359</ele>
        <time>2021-04-03T13:30:11.591Z</time>
      </trkpt>
      <trkpt lat="45.56057" lon="5.47718">
        <ele>360</ele>
        <time>2021-04-03T13:30:12.591Z</time>
      </trkpt>
      <trkpt lat="45.56062" lon="5.47713">
        <ele>360</ele>
        <time>2021-04-03T13:30:13.591Z</time>
      </trkpt>
      <trkpt lat="45.56067" lon="5.47709">
        <ele>361</ele>
        <time>2021-04-03T13:30:14.590Z</time>
      </trkpt>
      <trkpt lat="45.56072" lon="5.47704">
        <ele>361</ele>
        <time>2021-04-03T13:30:15.591Z</time>
      </trkpt>
      <trkpt lat="45.56076" lon="5.47699">
        <ele>361</ele>
        <time>2021-04-03T13:30:16.591Z</time>
      </trkpt>
      <trkpt lat="45.56081" lon="5.47694">
        <ele>361</ele>
        <time>2021-04-03T13:30:17.591Z</time>
      </trkpt>
      <trkpt lat="45.56085" lon="5.47689">
        <ele>360</ele>
        <time>2021-04-03T13:30:18.591Z</time>
      </trkpt>
      <trkpt lat="45.56089" lon="5.47683">
        <ele>360</ele>
        <time>2021-04-03T13:30:19.590Z</time>
      </trkpt>
      <trkpt lat="45.56093" lon="5.47677">
        <ele>360</ele>
        <time>2021-04-03T13:30:20.591Z</time>
      </trkpt>
      <trkpt lat="45.56097" lon="5.47671">
        <ele>360</ele>
        <time>2021-04-03T13:30:21.591Z</time>
      </trkpt>
      <trkpt lat="45.56102" lon="5.47666">
        <ele>359</ele>
        <time>2021-04-03T13:30:22.591Z</time>
      </trkpt>
      <trkpt lat="45.56106" lon="5.4766">
        <ele>359</ele>
        <time>2021-04-03T13:30:23.591Z</time>
      </trkpt>
      <trkpt lat="45.56111" lon="5.47655">
        <ele>359</ele>
        <time>2021-04-03T13:30:24.591Z</time>
      </trkpt>
      <trkpt lat="45.56115" lon="5.47649">
        <ele>359</ele>
        <time>2021-04-03T13:30:25.591Z</time>
      </trkpt>
      <trkpt lat="45.5612" lon="5.47644">
        <ele>359</ele>
        <time>2021-04-03T13:30:26.590Z</time>
      </trkpt>
      <trkpt lat="45.56125" lon="5.47638">
        <ele>359</ele>
        <time>2021-04-03T13:30:27.591Z</time>
      </trkpt>
      <trkpt lat="45.56131" lon="5.47633">
        <ele>359</ele>
        <time>2021-04-03T13:30:28.591Z</time>
      </trkpt>
      <trkpt lat="45.56137" lon="5.47629">
        <ele>359</ele>
        <time>2021-04-03T13:30:29.590Z</time>
      </trkpt>
      <trkpt lat="45.56143" lon="5.47624">
        <ele>359</ele>
        <time>2021-04-03T13:30:30.591Z</time>
      </trkpt>
      <trkpt lat="45.56149" lon="5.4762">
        <ele>359</ele>
        <time>2021-04-03T13:30:31.591Z</time>
      </trkpt>
      <trkpt lat="45.56155" lon="5.47616">
        <ele>359</ele>
        <time>2021-04-03T13:30:32.591Z</time>
      </trkpt>
      <trkpt lat="45.56162" lon="5.47613">
        <ele>359</ele>
        <time>2021-04-03T13:30:33.591Z</time>
      </trkpt>
      <trkpt lat="45.56168" lon="5.47609">
        <ele>358</ele>
        <time>2021-04-03T13:30:34.591Z</time>
      </trkpt>
      <trkpt lat="45.562" lon="5.47595">
        <ele>359</ele>
        <time>2021-04-03T13:30:40.591Z</time>
      </trkpt>
      <trkpt lat="45.56206" lon="5.47593">
        <ele>358</ele>
        <time>2021-04-03T13:30:41.591Z</time>
      </trkpt>
      <trkpt lat="45.56211" lon="5.47587">
        <ele>358</ele>
        <time>2021-04-03T13:30:42.591Z</time>
      </trkpt>
      <trkpt lat="45.56215" lon="5.47585">
        <ele>358</ele>
        <time>2021-04-03T13:30:43.590Z</time>
      </trkpt>
      <trkpt lat="45.5622" lon="5.47583">
        <ele>359</ele>
        <time>2021-04-03T13:30:44.591Z</time>
      </trkpt>
      <trkpt lat="45.56226" lon="5.47582">
        <ele>359</ele>
        <time>2021-04-03T13:30:45.591Z</time>
      </trkpt>
      <trkpt lat="45.56232" lon="5.47582">
        <ele>359</ele>
        <time>2021-04-03T13:30:46.591Z</time>
      </trkpt>
      <trkpt lat="45.56236" lon="5.4758">
        <ele>359</ele>
        <time>2021-04-03T13:30:47.591Z</time>
      </trkpt>
      <trkpt lat="45.56239" lon="5.47579">
        <ele>358</ele>
        <time>2021-04-03T13:30:48.590Z</time>
      </trkpt>
      <trkpt lat="45.56243" lon="5.47578">
        <ele>358</ele>
        <time>2021-04-03T13:30:49.591Z</time>
      </trkpt>
      <trkpt lat="45.56246" lon="5.47578">
        <ele>358</ele>
        <time>2021-04-03T13:30:50.591Z</time>
      </trkpt>
      <trkpt lat="45.5625" lon="5.47577">
        <ele>357</ele>
        <time>2021-04-03T13:30:51.591Z</time>
      </trkpt>
      <trkpt lat="45.56253" lon="5.47577">
        <ele>357</ele>
        <time>2021-04-03T13:30:52.591Z</time>
      </trkpt>
      <trkpt lat="45.56257" lon="5.47578">
        <ele>356</ele>
        <time>2021-04-03T13:30:53.591Z</time>
      </trkpt>
      <trkpt lat="45.56262" lon="5.47578">
        <ele>356</ele>
        <time>2021-04-03T13:30:54.591Z</time>
      </trkpt>
      <trkpt lat="45.56266" lon="5.47578">
        <ele>355</ele>
        <time>2021-04-03T13:30:55.590Z</time>
      </trkpt>
      <trkpt lat="45.56271" lon="5.47578">
        <ele>355</ele>
        <time>2021-04-03T13:30:56.591Z</time>
      </trkpt>
      <trkpt lat="45.56277" lon="5.47579">
        <ele>355</ele>
        <time>2021-04-03T13:30:57.590Z</time>
      </trkpt>
      <trkpt lat="45.56283" lon="5.47578">
        <ele>355</ele>
        <time>2021-04-03T13:30:58.591Z</time>
      </trkpt>
      <trkpt lat="45.56288" lon="5.47578">
        <ele>355</ele>
        <time>2021-04-03T13:30:59.591Z</time>
      </trkpt>
      <trkpt lat="45.56294" lon="5.47578">
        <ele>355</ele>
        <time>2021-04-03T13:31:00.591Z</time>
      </trkpt>
      <trkpt lat="45.56298" lon="5.47578">
        <ele>355</ele>
        <time>2021-04-03T13:31:01.591Z</time>
      </trkpt>
      <trkpt lat="45.56303" lon="5.47578">
        <ele>355</ele>
        <time>2021-04-03T13:31:02.591Z</time>
      </trkpt>
      <trkpt lat="45.56306" lon="5.47578">
        <ele>355</ele>
        <time>2021-04-03T13:31:03.591Z</time>
      </trkpt>
      <trkpt lat="45.5631" lon="5.47579">
        <ele>355</ele>
        <time>2021-04-03T13:31:04.591Z</time>
      </trkpt>
      <trkpt lat="45.56314" lon="5.47579">
        <ele>354</ele>
        <time>2021-04-03T13:31:05.591Z</time>
      </trkpt>
      <trkpt lat="45.56318" lon="5.47581">
        <ele>354</ele>
        <time>2021-04-03T13:31:06.591Z</time>
      </trkpt>
      <trkpt lat="45.56323" lon="5.47582">
        <ele>354</ele>
        <time>2021-04-03T13:31:07.591Z</time>
      </trkpt>
      <trkpt lat="45.56327" lon="5.47583">
        <ele>354</ele>
        <time>2021-04-03T13:31:08.591Z</time>
      </trkpt>
      <trkpt lat="45.56332" lon="5.47584">
        <ele>354</ele>
        <time>2021-04-03T13:31:09.590Z</time>
      </trkpt>
      <trkpt lat="45.56338" lon="5.47585">
        <ele>354</ele>
        <time>2021-04-03T13:31:10.591Z</time>
      </trkpt>
      <trkpt lat="45.56343" lon="5.47586">
        <ele>354</ele>
        <time>2021-04-03T13:31:11.590Z</time>
      </trkpt>
      <trkpt lat="45.56348" lon="5.47587">
        <ele>354</ele>
        <time>2021-04-03T13:31:12.591Z</time>
      </trkpt>
      <trkpt lat="45.56354" lon="5.47588">
        <ele>353</ele>
        <time>2021-04-03T13:31:13.591Z</time>
      </trkpt>
      <trkpt lat="45.56359" lon="5.47589">
        <ele>353</ele>
        <time>2021-04-03T13:31:14.590Z</time>
      </trkpt>
      <trkpt lat="45.56364" lon="5.4759">
        <ele>353</ele>
        <time>2021-04-03T13:31:15.591Z</time>
      </trkpt>
      <trkpt lat="45.56369" lon="5.47591">
        <ele>353</ele>
        <time>2021-04-03T13:31:16.590Z</time>
      </trkpt>
      <trkpt lat="45.56374" lon="5.47592">
        <ele>353</ele>
        <time>2021-04-03T13:31:17.591Z</time>
      </trkpt>
      <trkpt lat="45.5638" lon="5.47593">
        <ele>352</ele>
        <time>2021-04-03T13:31:18.591Z</time>
      </trkpt>
      <trkpt lat="45.56383" lon="5.47594">
        <ele>352</ele>
        <time>2021-04-03T13:31:19.590Z</time>
      </trkpt>
      <trkpt lat="45.56389" lon="5.47596">
        <ele>352</ele>
        <time>2021-04-03T13:31:20.591Z</time>
      </trkpt>
      <trkpt lat="45.56393" lon="5.47598">
        <ele>352</ele>
        <time>2021-04-03T13:31:21.591Z</time>
      </trkpt>
      <trkpt lat="45.56399" lon="5.47599">
        <ele>352</ele>
        <time>2021-04-03T13:31:22.591Z</time>
      </trkpt>
      <trkpt lat="45.56404" lon="5.47601">
        <ele>352</ele>
        <time>2021-04-03T13:31:23.591Z</time>
      </trkpt>
      <trkpt lat="45.56409" lon="5.47602">
        <ele>352</ele>
        <time>2021-04-03T13:31:24.591Z</time>
      </trkpt>
      <trkpt lat="45.56415" lon="5.47603">
        <ele>352</ele>
        <time>2021-04-03T13:31:25.591Z</time>
      </trkpt>
      <trkpt lat="45.5642" lon="5.47605">
        <ele>352</ele>
        <time>2021-04-03T13:31:26.590Z</time>
      </trkpt>
      <trkpt lat="45.56426" lon="5.47607">
        <ele>352</ele>
        <time>2021-04-03T13:31:27.591Z</time>
      </trkpt>
      <trkpt lat="45.56432" lon="5.47608">
        <ele>352</ele>
        <time>2021-04-03T13:31:28.591Z</time>
      </trkpt>
      <trkpt lat="45.56437" lon="5.4761">
        <ele>352</ele>
        <time>2021-04-03T13:31:29.591Z</time>
      </trkpt>
      <trkpt lat="45.56443" lon="5.47612">
        <ele>352</ele>
        <time>2021-04-03T13:31:30.591Z</time>
      </trkpt>
      <trkpt lat="45.56448" lon="5.47613">
        <ele>352</ele>
        <time>2021-04-03T13:31:31.591Z</time>
      </trkpt>
      <trkpt lat="45.56454" lon="5.47615">
        <ele>352</ele>
        <time>2021-04-03T13:31:32.591Z</time>
      </trkpt>
      <trkpt lat="45.5646" lon="5.47617">
        <ele>351</ele>
        <time>2021-04-03T13:31:33.591Z</time>
      </trkpt>
      <trkpt lat="45.56466" lon="5.4762">
        <ele>351</ele>
        <time>2021-04-03T13:31:34.591Z</time>
      </trkpt>
      <trkpt lat="45.56472" lon="5.47622">
        <ele>351</ele>
        <time>2021-04-03T13:31:35.591Z</time>
      </trkpt>
      <trkpt lat="45.56478" lon="5.47624">
        <ele>351</ele>
        <time>2021-04-03T13:31:36.591Z</time>
      </trkpt>
      <trkpt lat="45.56485" lon="5.47627">
        <ele>351</ele>
        <time>2021-04-03T13:31:37.591Z</time>
      </trkpt>
      <trkpt lat="45.56491" lon="5.47629">
        <ele>350</ele>
        <time>2021-04-03T13:31:38.590Z</time>
      </trkpt>
      <trkpt lat="45.56497" lon="5.47631">
        <ele>350</ele>
        <time>2021-04-03T13:31:39.591Z</time>
      </trkpt>
      <trkpt lat="45.56504" lon="5.47634">
        <ele>350</ele>
        <time>2021-04-03T13:31:40.591Z</time>
      </trkpt>
      <trkpt lat="45.56509" lon="5.47636">
        <ele>349</ele>
        <time>2021-04-03T13:31:41.591Z</time>
      </trkpt>
      <trkpt lat="45.56515" lon="5.47639">
        <ele>349</ele>
        <time>2021-04-03T13:31:42.590Z</time>
      </trkpt>
      <trkpt lat="45.56521" lon="5.47642">
        <ele>349</ele>
        <time>2021-04-03T13:31:43.591Z</time>
      </trkpt>
      <trkpt lat="45.56528" lon="5.47645">
        <ele>348</ele>
        <time>2021-04-03T13:31:44.590Z</time>
      </trkpt>
      <trkpt lat="45.56534" lon="5.47647">
        <ele>348</ele>
        <time>2021-04-03T13:31:45.591Z</time>
      </trkpt>
      <trkpt lat="45.5654" lon="5.4765">
        <ele>348</ele>
        <time>2021-04-03T13:31:46.590Z</time>
      </trkpt>
      <trkpt lat="45.56548" lon="5.47653">
        <ele>348</ele>
        <time>2021-04-03T13:31:47.590Z</time>
      </trkpt>
      <trkpt lat="45.56553" lon="5.47656">
        <ele>348</ele>
        <time>2021-04-03T13:31:48.591Z</time>
      </trkpt>
      <trkpt lat="45.5656" lon="5.4766">
        <ele>348</ele>
        <time>2021-04-03T13:31:49.591Z</time>
      </trkpt>
      <trkpt lat="45.56567" lon="5.47664">
        <ele>349</ele>
        <time>2021-04-03T13:31:50.591Z</time>
      </trkpt>
      <trkpt lat="45.56573" lon="5.47668">
        <ele>349</ele>
        <time>2021-04-03T13:31:51.591Z</time>
      </trkpt>
      <trkpt lat="45.5658" lon="5.47673">
        <ele>349</ele>
        <time>2021-04-03T13:31:52.590Z</time>
      </trkpt>
      <trkpt lat="45.56588" lon="5.47678">
        <ele>349</ele>
        <time>2021-04-03T13:31:53.591Z</time>
      </trkpt>
      <trkpt lat="45.56592" lon="5.47681">
        <ele>349</ele>
        <time>2021-04-03T13:31:54.591Z</time>
      </trkpt>
      <trkpt lat="45.566" lon="5.47686">
        <ele>349</ele>
        <time>2021-04-03T13:31:55.591Z</time>
      </trkpt>
      <trkpt lat="45.56605" lon="5.4769">
        <ele>349</ele>
        <time>2021-04-03T13:31:56.591Z</time>
      </trkpt>
      <trkpt lat="45.56613" lon="5.47695">
        <ele>349</ele>
        <time>2021-04-03T13:31:57.591Z</time>
      </trkpt>
      <trkpt lat="45.5662" lon="5.47699">
        <ele>349</ele>
        <time>2021-04-03T13:31:58.591Z</time>
      </trkpt>
      <trkpt lat="45.56627" lon="5.47704">
        <ele>349</ele>
        <time>2021-04-03T13:31:59.591Z</time>
      </trkpt>
      <trkpt lat="45.56633" lon="5.47707">
        <ele>349</ele>
        <time>2021-04-03T13:32:00.590Z</time>
      </trkpt>
      <trkpt lat="45.5664" lon="5.47711">
        <ele>349</ele>
        <time>2021-04-03T13:32:01.591Z</time>
      </trkpt>
      <trkpt lat="45.56647" lon="5.47716">
        <ele>349</ele>
        <time>2021-04-03T13:32:02.591Z</time>
      </trkpt>
      <trkpt lat="45.56654" lon="5.4772">
        <ele>349</ele>
        <time>2021-04-03T13:32:03.590Z</time>
      </trkpt>
      <trkpt lat="45.56662" lon="5.47726">
        <ele>349</ele>
        <time>2021-04-03T13:32:04.591Z</time>
      </trkpt>
      <trkpt lat="45.56667" lon="5.4773">
        <ele>348</ele>
        <time>2021-04-03T13:32:05.590Z</time>
      </trkpt>
      <trkpt lat="45.56674" lon="5.47734">
        <ele>348</ele>
        <time>2021-04-03T13:32:06.590Z</time>
      </trkpt>
      <trkpt lat="45.56681" lon="5.47739">
        <ele>347</ele>
        <time>2021-04-03T13:32:07.591Z</time>
      </trkpt>
      <trkpt lat="45.56688" lon="5.47744">
        <ele>347</ele>
        <time>2021-04-03T13:32:08.591Z</time>
      </trkpt>
      <trkpt lat="45.56695" lon="5.47748">
        <ele>347</ele>
        <time>2021-04-03T13:32:09.591Z</time>
      </trkpt>
      <trkpt lat="45.56703" lon="5.47753">
        <ele>346</ele>
        <time>2021-04-03T13:32:10.591Z</time>
      </trkpt>
      <trkpt lat="45.5671" lon="5.47758">
        <ele>346</ele>
        <time>2021-04-03T13:32:11.591Z</time>
      </trkpt>
      <trkpt lat="45.56716" lon="5.47761">
        <ele>346</ele>
        <time>2021-04-03T13:32:12.591Z</time>
      </trkpt>
      <trkpt lat="45.56722" lon="5.47765">
        <ele>346</ele>
        <time>2021-04-03T13:32:13.591Z</time>
      </trkpt>
      <trkpt lat="45.56729" lon="5.47768">
        <ele>346</ele>
        <time>2021-04-03T13:32:14.590Z</time>
      </trkpt>
      <trkpt lat="45.56735" lon="5.47771">
        <ele>345</ele>
        <time>2021-04-03T13:32:15.591Z</time>
      </trkpt>
      <trkpt lat="45.56741" lon="5.47775">
        <ele>346</ele>
        <time>2021-04-03T13:32:16.591Z</time>
      </trkpt>
      <trkpt lat="45.56747" lon="5.47778">
        <ele>346</ele>
        <time>2021-04-03T13:32:17.591Z</time>
      </trkpt>
      <trkpt lat="45.56754" lon="5.47782">
        <ele>346</ele>
        <time>2021-04-03T13:32:18.591Z</time>
      </trkpt>
      <trkpt lat="45.56758" lon="5.47785">
        <ele>347</ele>
        <time>2021-04-03T13:32:19.591Z</time>
      </trkpt>
      <trkpt lat="45.56764" lon="5.47788">
        <ele>347</ele>
        <time>2021-04-03T13:32:20.590Z</time>
      </trkpt>
      <trkpt lat="45.56772" lon="5.47793">
        <ele>347</ele>
        <time>2021-04-03T13:32:21.591Z</time>
      </trkpt>
      <trkpt lat="45.56777" lon="5.47796">
        <ele>347</ele>
        <time>2021-04-03T13:32:22.590Z</time>
      </trkpt>
      <trkpt lat="45.56784" lon="5.47801">
        <ele>347</ele>
        <time>2021-04-03T13:32:23.590Z</time>
      </trkpt>
      <trkpt lat="45.5679" lon="5.47804">
        <ele>347</ele>
        <time>2021-04-03T13:32:24.591Z</time>
      </trkpt>
      <trkpt lat="45.56796" lon="5.47808">
        <ele>346</ele>
        <time>2021-04-03T13:32:25.590Z</time>
      </trkpt>
      <trkpt lat="45.56802" lon="5.47812">
        <ele>346</ele>
        <time>2021-04-03T13:32:26.591Z</time>
      </trkpt>
      <trkpt lat="45.56809" lon="5.47816">
        <ele>346</ele>
        <time>2021-04-03T13:32:27.591Z</time>
      </trkpt>
      <trkpt lat="45.56813" lon="5.47819">
        <ele>346</ele>
        <time>2021-04-03T13:32:28.590Z</time>
      </trkpt>
      <trkpt lat="45.5682" lon="5.47823">
        <ele>346</ele>
        <time>2021-04-03T13:32:29.590Z</time>
      </trkpt>
      <trkpt lat="45.56825" lon="5.47826">
        <ele>346</ele>
        <time>2021-04-03T13:32:30.591Z</time>
      </trkpt>
      <trkpt lat="45.56831" lon="5.4783">
        <ele>346</ele>
        <time>2021-04-03T13:32:31.591Z</time>
      </trkpt>
      <trkpt lat="45.56837" lon="5.47833">
        <ele>347</ele>
        <time>2021-04-03T13:32:32.591Z</time>
      </trkpt>
      <trkpt lat="45.56843" lon="5.47837">
        <ele>347</ele>
        <time>2021-04-03T13:32:33.590Z</time>
      </trkpt>
      <trkpt lat="45.56849" lon="5.4784">
        <ele>348</ele>
        <time>2021-04-03T13:32:34.591Z</time>
      </trkpt>
      <trkpt lat="45.56856" lon="5.47843">
        <ele>348</ele>
        <time>2021-04-03T13:32:35.591Z</time>
      </trkpt>
      <trkpt lat="45.56862" lon="5.47845">
        <ele>348</ele>
        <time>2021-04-03T13:32:36.591Z</time>
      </trkpt>
      <trkpt lat="45.56868" lon="5.47847">
        <ele>349</ele>
        <time>2021-04-03T13:32:37.590Z</time>
      </trkpt>
      <trkpt lat="45.56874" lon="5.47849">
        <ele>350</ele>
        <time>2021-04-03T13:32:38.591Z</time>
      </trkpt>
      <trkpt lat="45.5688" lon="5.4785">
        <ele>350</ele>
        <time>2021-04-03T13:32:39.590Z</time>
      </trkpt>
      <trkpt lat="45.56887" lon="5.4785">
        <ele>351</ele>
        <time>2021-04-03T13:32:40.591Z</time>
      </trkpt>
      <trkpt lat="45.56894" lon="5.4785">
        <ele>351</ele>
        <time>2021-04-03T13:32:41.590Z</time>
      </trkpt>
      <trkpt lat="45.56901" lon="5.47851">
        <ele>351</ele>
        <time>2021-04-03T13:32:42.591Z</time>
      </trkpt>
      <trkpt lat="45.56908" lon="5.4785">
        <ele>351</ele>
        <time>2021-04-03T13:32:43.591Z</time>
      </trkpt>
      <trkpt lat="45.56915" lon="5.4785">
        <ele>351</ele>
        <time>2021-04-03T13:32:44.591Z</time>
      </trkpt>
      <trkpt lat="45.56923" lon="5.47848">
        <ele>351</ele>
        <time>2021-04-03T13:32:45.591Z</time>
      </trkpt>
      <trkpt lat="45.56931" lon="5.47848">
        <ele>350</ele>
        <time>2021-04-03T13:32:46.590Z</time>
      </trkpt>
      <trkpt lat="45.56938" lon="5.47847">
        <ele>349</ele>
        <time>2021-04-03T13:32:47.590Z</time>
      </trkpt>
      <trkpt lat="45.56945" lon="5.47846">
        <ele>349</ele>
        <time>2021-04-03T13:32:48.590Z</time>
      </trkpt>
      <trkpt lat="45.56952" lon="5.47846">
        <ele>348</ele>
        <time>2021-04-03T13:32:49.590Z</time>
      </trkpt>
      <trkpt lat="45.5696" lon="5.47846">
        <ele>347</ele>
        <time>2021-04-03T13:32:50.591Z</time>
      </trkpt>
      <trkpt lat="45.56966" lon="5.47846">
        <ele>346</ele>
        <time>2021-04-03T13:32:51.591Z</time>
      </trkpt>
      <trkpt lat="45.56974" lon="5.47845">
        <ele>346</ele>
        <time>2021-04-03T13:32:52.591Z</time>
      </trkpt>
      <trkpt lat="45.56981" lon="5.47845">
        <ele>346</ele>
        <time>2021-04-03T13:32:53.590Z</time>
      </trkpt>
      <trkpt lat="45.56989" lon="5.47844">
        <ele>346</ele>
        <time>2021-04-03T13:32:54.590Z</time>
      </trkpt>
      <trkpt lat="45.56996" lon="5.47844">
        <ele>346</ele>
        <time>2021-04-03T13:32:55.591Z</time>
      </trkpt>
      <trkpt lat="45.57005" lon="5.47844">
        <ele>346</ele>
        <time>2021-04-03T13:32:56.591Z</time>
      </trkpt>
      <trkpt lat="45.57012" lon="5.47843">
        <ele>346</ele>
        <time>2021-04-03T13:32:57.591Z</time>
      </trkpt>
      <trkpt lat="45.5702" lon="5.47844">
        <ele>346</ele>
        <time>2021-04-03T13:32:58.591Z</time>
      </trkpt>
      <trkpt lat="45.57027" lon="5.47843">
        <ele>346</ele>
        <time>2021-04-03T13:32:59.591Z</time>
      </trkpt>
      <trkpt lat="45.57035" lon="5.47843">
        <ele>345</ele>
        <time>2021-04-03T13:33:00.591Z</time>
      </trkpt>
      <trkpt lat="45.57042" lon="5.47843">
        <ele>345</ele>
        <time>2021-04-03T13:33:01.591Z</time>
      </trkpt>
      <trkpt lat="45.5705" lon="5.47843">
        <ele>345</ele>
        <time>2021-04-03T13:33:02.591Z</time>
      </trkpt>
      <trkpt lat="45.57057" lon="5.47842">
        <ele>345</ele>
        <time>2021-04-03T13:33:03.591Z</time>
      </trkpt>
      <trkpt lat="45.57067" lon="5.47842">
        <ele>344</ele>
        <time>2021-04-03T13:33:04.590Z</time>
      </trkpt>
      <trkpt lat="45.57073" lon="5.47842">
        <ele>344</ele>
        <time>2021-04-03T13:33:05.591Z</time>
      </trkpt>
      <trkpt lat="45.57082" lon="5.47841">
        <ele>344</ele>
        <time>2021-04-03T13:33:06.590Z</time>
      </trkpt>
      <trkpt lat="45.5709" lon="5.47841">
        <ele>344</ele>
        <time>2021-04-03T13:33:07.591Z</time>
      </trkpt>
      <trkpt lat="45.57097" lon="5.47841">
        <ele>344</ele>
        <time>2021-04-03T13:33:08.591Z</time>
      </trkpt>
      <trkpt lat="45.57104" lon="5.4784">
        <ele>344</ele>
        <time>2021-04-03T13:33:09.590Z</time>
      </trkpt>
      <trkpt lat="45.57113" lon="5.4784">
        <ele>343</ele>
        <time>2021-04-03T13:33:10.591Z</time>
      </trkpt>
      <trkpt lat="45.57119" lon="5.4784">
        <ele>343</ele>
        <time>2021-04-03T13:33:11.591Z</time>
      </trkpt>
      <trkpt lat="45.57126" lon="5.4784">
        <ele>343</ele>
        <time>2021-04-03T13:33:12.591Z</time>
      </trkpt>
      <trkpt lat="45.57134" lon="5.4784">
        <ele>342</ele>
        <time>2021-04-03T13:33:13.591Z</time>
      </trkpt>
      <trkpt lat="45.57141" lon="5.4784">
        <ele>342</ele>
        <time>2021-04-03T13:33:14.591Z</time>
      </trkpt>
      <trkpt lat="45.57148" lon="5.4784">
        <ele>342</ele>
        <time>2021-04-03T13:33:15.591Z</time>
      </trkpt>
      <trkpt lat="45.57157" lon="5.47839">
        <ele>342</ele>
        <time>2021-04-03T13:33:16.591Z</time>
      </trkpt>
      <trkpt lat="45.57163" lon="5.47839">
        <ele>342</ele>
        <time>2021-04-03T13:33:17.591Z</time>
      </trkpt>
      <trkpt lat="45.5717" lon="5.4784">
        <ele>342</ele>
        <time>2021-04-03T13:33:18.591Z</time>
      </trkpt>
      <trkpt lat="45.57178" lon="5.47841">
        <ele>342</ele>
        <time>2021-04-03T13:33:19.591Z</time>
      </trkpt>
      <trkpt lat="45.57183" lon="5.47841">
        <ele>341</ele>
        <time>2021-04-03T13:33:20.591Z</time>
      </trkpt>
      <trkpt lat="45.5719" lon="5.47841">
        <ele>341</ele>
        <time>2021-04-03T13:33:21.591Z</time>
      </trkpt>
      <trkpt lat="45.57196" lon="5.47841">
        <ele>341</ele>
        <time>2021-04-03T13:33:22.591Z</time>
      </trkpt>
      <trkpt lat="45.57203" lon="5.47841">
        <ele>341</ele>
        <time>2021-04-03T13:33:23.590Z</time>
      </trkpt>
      <trkpt lat="45.57207" lon="5.47841">
        <ele>341</ele>
        <time>2021-04-03T13:33:24.591Z</time>
      </trkpt>
      <trkpt lat="45.57214" lon="5.47841">
        <ele>340</ele>
        <time>2021-04-03T13:33:25.590Z</time>
      </trkpt>
      <trkpt lat="45.57219" lon="5.47841">
        <ele>340</ele>
        <time>2021-04-03T13:33:26.590Z</time>
      </trkpt>
      <trkpt lat="45.57224" lon="5.47841">
        <ele>340</ele>
        <time>2021-04-03T13:33:27.591Z</time>
      </trkpt>
      <trkpt lat="45.5723" lon="5.47841">
        <ele>341</ele>
        <time>2021-04-03T13:33:28.591Z</time>
      </trkpt>
      <trkpt lat="45.57236" lon="5.47841">
        <ele>340</ele>
        <time>2021-04-03T13:33:29.591Z</time>
      </trkpt>
      <trkpt lat="45.57241" lon="5.47842">
        <ele>340</ele>
        <time>2021-04-03T13:33:30.590Z</time>
      </trkpt>
      <trkpt lat="45.57246" lon="5.47841">
        <ele>340</ele>
        <time>2021-04-03T13:33:31.591Z</time>
      </trkpt>
      <trkpt lat="45.57251" lon="5.47841">
        <ele>340</ele>
        <time>2021-04-03T13:33:32.591Z</time>
      </trkpt>
      <trkpt lat="45.57256" lon="5.4784">
        <ele>340</ele>
        <time>2021-04-03T13:33:33.591Z</time>
      </trkpt>
      <trkpt lat="45.57261" lon="5.4784">
        <ele>340</ele>
        <time>2021-04-03T13:33:34.591Z</time>
      </trkpt>
      <trkpt lat="45.57266" lon="5.47839">
        <ele>340</ele>
        <time>2021-04-03T13:33:35.591Z</time>
      </trkpt>
      <trkpt lat="45.57269" lon="5.47839">
        <ele>340</ele>
        <time>2021-04-03T13:33:36.591Z</time>
      </trkpt>
      <trkpt lat="45.57273" lon="5.47838">
        <ele>340</ele>
        <time>2021-04-03T13:33:37.590Z</time>
      </trkpt>
      <trkpt lat="45.57276" lon="5.47838">
        <ele>340</ele>
        <time>2021-04-03T13:33:38.591Z</time>
      </trkpt>
      <trkpt lat="45.57279" lon="5.47838">
        <ele>340</ele>
        <time>2021-04-03T13:33:39.591Z</time>
      </trkpt>
      <trkpt lat="45.57283" lon="5.47838">
        <ele>340</ele>
        <time>2021-04-03T13:33:40.591Z</time>
      </trkpt>
      <trkpt lat="45.57287" lon="5.47838">
        <ele>341</ele>
        <time>2021-04-03T13:33:41.591Z</time>
      </trkpt>
      <trkpt lat="45.57291" lon="5.47838">
        <ele>341</ele>
        <time>2021-04-03T13:33:42.591Z</time>
      </trkpt>
      <trkpt lat="45.57296" lon="5.47839">
        <ele>341</ele>
        <time>2021-04-03T13:33:43.590Z</time>
      </trkpt>
      <trkpt lat="45.573" lon="5.47839">
        <ele>342</ele>
        <time>2021-04-03T13:33:44.591Z</time>
      </trkpt>
      <trkpt lat="45.57305" lon="5.47839">
        <ele>342</ele>
        <time>2021-04-03T13:33:45.590Z</time>
      </trkpt>
      <trkpt lat="45.57311" lon="5.4784">
        <ele>342</ele>
        <time>2021-04-03T13:33:46.591Z</time>
      </trkpt>
      <trkpt lat="45.57315" lon="5.4784">
        <ele>342</ele>
        <time>2021-04-03T13:33:47.591Z</time>
      </trkpt>
      <trkpt lat="45.57319" lon="5.47839">
        <ele>342</ele>
        <time>2021-04-03T13:33:48.591Z</time>
      </trkpt>
      <trkpt lat="45.57325" lon="5.47839">
        <ele>342</ele>
        <time>2021-04-03T13:33:49.590Z</time>
      </trkpt>
      <trkpt lat="45.57329" lon="5.47839">
        <ele>341</ele>
        <time>2021-04-03T13:33:50.590Z</time>
      </trkpt>
      <trkpt lat="45.57334" lon="5.47838">
        <ele>342</ele>
        <time>2021-04-03T13:33:51.591Z</time>
      </trkpt>
      <trkpt lat="45.57339" lon="5.47838">
        <ele>341</ele>
        <time>2021-04-03T13:33:52.591Z</time>
      </trkpt>
      <trkpt lat="45.57344" lon="5.47838">
        <ele>342</ele>
        <time>2021-04-03T13:33:53.590Z</time>
      </trkpt>
      <trkpt lat="45.57349" lon="5.47838">
        <ele>342</ele>
        <time>2021-04-03T13:33:54.591Z</time>
      </trkpt>
      <trkpt lat="45.57353" lon="5.4784">
        <ele>342</ele>
        <time>2021-04-03T13:33:55.590Z</time>
      </trkpt>
      <trkpt lat="45.57356" lon="5.47843">
        <ele>341</ele>
        <time>2021-04-03T13:33:56.591Z</time>
      </trkpt>
      <trkpt lat="45.57359" lon="5.47847">
        <ele>341</ele>
        <time>2021-04-03T13:33:57.591Z</time>
      </trkpt>
      <trkpt lat="45.57361" lon="5.47852">
        <ele>341</ele>
        <time>2021-04-03T13:33:58.591Z</time>
      </trkpt>
      <trkpt lat="45.57362" lon="5.47858">
        <ele>341</ele>
        <time>2021-04-03T13:33:59.591Z</time>
      </trkpt>
      <trkpt lat="45.57364" lon="5.47864">
        <ele>341</ele>
        <time>2021-04-03T13:34:00.590Z</time>
      </trkpt>
      <trkpt lat="45.57365" lon="5.47871">
        <ele>341</ele>
        <time>2021-04-03T13:34:01.591Z</time>
      </trkpt>
      <trkpt lat="45.57366" lon="5.47878">
        <ele>341</ele>
        <time>2021-04-03T13:34:02.591Z</time>
      </trkpt>
      <trkpt lat="45.57368" lon="5.47885">
        <ele>341</ele>
        <time>2021-04-03T13:34:03.590Z</time>
      </trkpt>
      <trkpt lat="45.57369" lon="5.47891">
        <ele>340</ele>
        <time>2021-04-03T13:34:04.590Z</time>
      </trkpt>
      <trkpt lat="45.5737" lon="5.47896">
        <ele>340</ele>
        <time>2021-04-03T13:34:05.591Z</time>
      </trkpt>
      <trkpt lat="45.57371" lon="5.47901">
        <ele>340</ele>
        <time>2021-04-03T13:34:06.591Z</time>
      </trkpt>
      <trkpt lat="45.57371" lon="5.47905">
        <ele>340</ele>
        <time>2021-04-03T13:34:07.590Z</time>
      </trkpt>
      <trkpt lat="45.57371" lon="5.47909">
        <ele>340</ele>
        <time>2021-04-03T13:34:08.591Z</time>
      </trkpt>
      <trkpt lat="45.57372" lon="5.47913">
        <ele>340</ele>
        <time>2021-04-03T13:34:09.591Z</time>
      </trkpt>
      <trkpt lat="45.57372" lon="5.47917">
        <ele>340</ele>
        <time>2021-04-03T13:34:10.591Z</time>
      </trkpt>
      <trkpt lat="45.57372" lon="5.4792">
        <ele>340</ele>
        <time>2021-04-03T13:34:11.590Z</time>
      </trkpt>
      <trkpt lat="45.57372" lon="5.47923">
        <ele>340</ele>
        <time>2021-04-03T13:34:12.590Z</time>
      </trkpt>
      <trkpt lat="45.57371" lon="5.47925">
        <ele>340</ele>
        <time>2021-04-03T13:34:13.591Z</time>
      </trkpt>
      <trkpt lat="45.57371" lon="5.47927">
        <ele>340</ele>
        <time>2021-04-03T13:34:14.591Z</time>
      </trkpt>
      <trkpt lat="45.57371" lon="5.47927">
        <ele>341</ele>
        <time>2021-04-03T13:34:15.591Z</time>
      </trkpt>
      <trkpt lat="45.57371" lon="5.47927">
        <ele>341</ele>
        <time>2021-04-03T13:34:16.590Z</time>
      </trkpt>
      <trkpt lat="45.57371" lon="5.47929">
        <ele>342</ele>
        <time>2021-04-03T13:34:17.591Z</time>
      </trkpt>
      <trkpt lat="45.57372" lon="5.4793">
        <ele>342</ele>
        <time>2021-04-03T13:34:18.592Z</time>
      </trkpt>
      <trkpt lat="45.57374" lon="5.47932">
        <ele>343</ele>
        <time>2021-04-03T13:34:19.592Z</time>
      </trkpt>
      <trkpt lat="45.57377" lon="5.47933">
        <ele>343</ele>
        <time>2021-04-03T13:34:20.592Z</time>
      </trkpt>
      <trkpt lat="45.5738" lon="5.47933">
        <ele>343</ele>
        <time>2021-04-03T13:34:21.591Z</time>
      </trkpt>
      <trkpt lat="45.57383" lon="5.47932">
        <ele>344</ele>
        <time>2021-04-03T13:34:22.592Z</time>
      </trkpt>
      <trkpt lat="45.57386" lon="5.47931">
        <ele>344</ele>
        <time>2021-04-03T13:34:23.592Z</time>
      </trkpt>
      <trkpt lat="45.57389" lon="5.47929">
        <ele>344</ele>
        <time>2021-04-03T13:34:24.592Z</time>
      </trkpt>
      <trkpt lat="45.57393" lon="5.47929">
        <ele>344</ele>
        <time>2021-04-03T13:34:25.592Z</time>
      </trkpt>
      <trkpt lat="45.57397" lon="5.47929">
        <ele>344</ele>
        <time>2021-04-03T13:34:26.592Z</time>
      </trkpt>
      <trkpt lat="45.57399" lon="5.4793">
        <ele>344</ele>
        <time>2021-04-03T13:34:27.592Z</time>
      </trkpt>
      <trkpt lat="45.57402" lon="5.47933">
        <ele>343</ele>
        <time>2021-04-03T13:34:28.591Z</time>
      </trkpt>
      <trkpt lat="45.57404" lon="5.47936">
        <ele>343</ele>
        <time>2021-04-03T13:34:29.592Z</time>
      </trkpt>
      <trkpt lat="45.57406" lon="5.4794">
        <ele>343</ele>
        <time>2021-04-03T13:34:30.592Z</time>
      </trkpt>
      <trkpt lat="45.57408" lon="5.47945">
        <ele>344</ele>
        <time>2021-04-03T13:34:31.591Z</time>
      </trkpt>
      <trkpt lat="45.57409" lon="5.4795">
        <ele>344</ele>
        <time>2021-04-03T13:34:32.592Z</time>
      </trkpt>
      <trkpt lat="45.57411" lon="5.47956">
        <ele>344</ele>
        <time>2021-04-03T13:34:33.592Z</time>
      </trkpt>
      <trkpt lat="45.57412" lon="5.4796">
        <ele>344</ele>
        <time>2021-04-03T13:34:34.591Z</time>
      </trkpt>
      <trkpt lat="45.57413" lon="5.47966">
        <ele>344</ele>
        <time>2021-04-03T13:34:35.592Z</time>
      </trkpt>
      <trkpt lat="45.57414" lon="5.47972">
        <ele>344</ele>
        <time>2021-04-03T13:34:36.592Z</time>
      </trkpt>
      <trkpt lat="45.57415" lon="5.47977">
        <ele>344</ele>
        <time>2021-04-03T13:34:37.592Z</time>
      </trkpt>
      <trkpt lat="45.57416" lon="5.47981">
        <ele>343</ele>
        <time>2021-04-03T13:34:38.592Z</time>
      </trkpt>
      <trkpt lat="45.57417" lon="5.47986">
        <ele>343</ele>
        <time>2021-04-03T13:34:39.592Z</time>
      </trkpt>
      <trkpt lat="45.57417" lon="5.4799">
        <ele>344</ele>
        <time>2021-04-03T13:34:40.592Z</time>
      </trkpt>
      <trkpt lat="45.57418" lon="5.47995">
        <ele>344</ele>
        <time>2021-04-03T13:34:41.592Z</time>
      </trkpt>
      <trkpt lat="45.57419" lon="5.48">
        <ele>344</ele>
        <time>2021-04-03T13:34:42.592Z</time>
      </trkpt>
      <trkpt lat="45.57421" lon="5.48004">
        <ele>344</ele>
        <time>2021-04-03T13:34:43.592Z</time>
      </trkpt>
      <trkpt lat="45.57422" lon="5.48008">
        <ele>344</ele>
        <time>2021-04-03T13:34:44.592Z</time>
      </trkpt>
      <trkpt lat="45.57423" lon="5.48013">
        <ele>345</ele>
        <time>2021-04-03T13:34:45.592Z</time>
      </trkpt>
      <trkpt lat="45.57425" lon="5.48018">
        <ele>345</ele>
        <time>2021-04-03T13:34:46.592Z</time>
      </trkpt>
      <trkpt lat="45.57426" lon="5.48024">
        <ele>345</ele>
        <time>2021-04-03T13:34:47.591Z</time>
      </trkpt>
      <trkpt lat="45.57428" lon="5.48031">
        <ele>345</ele>
        <time>2021-04-03T13:34:48.591Z</time>
      </trkpt>
      <trkpt lat="45.57428" lon="5.48036">
        <ele>345</ele>
        <time>2021-04-03T13:34:49.592Z</time>
      </trkpt>
      <trkpt lat="45.57429" lon="5.48042">
        <ele>345</ele>
        <time>2021-04-03T13:34:50.592Z</time>
      </trkpt>
      <trkpt lat="45.5743" lon="5.48049">
        <ele>346</ele>
        <time>2021-04-03T13:34:51.591Z</time>
      </trkpt>
      <trkpt lat="45.5743" lon="5.48054">
        <ele>346</ele>
        <time>2021-04-03T13:34:52.591Z</time>
      </trkpt>
      <trkpt lat="45.57432" lon="5.48061">
        <ele>346</ele>
        <time>2021-04-03T13:34:53.592Z</time>
      </trkpt>
      <trkpt lat="45.57432" lon="5.48066">
        <ele>346</ele>
        <time>2021-04-03T13:34:54.592Z</time>
      </trkpt>
      <trkpt lat="45.57433" lon="5.48071">
        <ele>346</ele>
        <time>2021-04-03T13:34:55.591Z</time>
      </trkpt>
      <trkpt lat="45.57434" lon="5.48075">
        <ele>347</ele>
        <time>2021-04-03T13:34:56.591Z</time>
      </trkpt>
      <trkpt lat="45.57435" lon="5.48081">
        <ele>347</ele>
        <time>2021-04-03T13:34:57.592Z</time>
      </trkpt>
      <trkpt lat="45.57436" lon="5.48086">
        <ele>348</ele>
        <time>2021-04-03T13:34:58.592Z</time>
      </trkpt>
      <trkpt lat="45.57438" lon="5.48091">
        <ele>348</ele>
        <time>2021-04-03T13:34:59.592Z</time>
      </trkpt>
      <trkpt lat="45.57439" lon="5.48095">
        <ele>349</ele>
        <time>2021-04-03T13:35:00.592Z</time>
      </trkpt>
      <trkpt lat="45.57441" lon="5.48101">
        <ele>349</ele>
        <time>2021-04-03T13:35:01.592Z</time>
      </trkpt>
      <trkpt lat="45.57444" lon="5.48106">
        <ele>350</ele>
        <time>2021-04-03T13:35:02.592Z</time>
      </trkpt>
      <trkpt lat="45.57447" lon="5.48111">
        <ele>351</ele>
        <time>2021-04-03T13:35:03.592Z</time>
      </trkpt>
      <trkpt lat="45.5745" lon="5.48115">
        <ele>352</ele>
        <time>2021-04-03T13:35:04.592Z</time>
      </trkpt>
      <trkpt lat="45.57454" lon="5.48118">
        <ele>353</ele>
        <time>2021-04-03T13:35:05.592Z</time>
      </trkpt>
      <trkpt lat="45.57458" lon="5.4812">
        <ele>354</ele>
        <time>2021-04-03T13:35:06.592Z</time>
      </trkpt>
      <trkpt lat="45.57462" lon="5.48121">
        <ele>355</ele>
        <time>2021-04-03T13:35:07.592Z</time>
      </trkpt>
      <trkpt lat="45.57466" lon="5.48123">
        <ele>355</ele>
        <time>2021-04-03T13:35:08.592Z</time>
      </trkpt>
      <trkpt lat="45.5747" lon="5.48124">
        <ele>355</ele>
        <time>2021-04-03T13:35:09.592Z</time>
      </trkpt>
      <trkpt lat="45.57473" lon="5.48125">
        <ele>356</ele>
        <time>2021-04-03T13:35:10.592Z</time>
      </trkpt>
      <trkpt lat="45.57477" lon="5.48126">
        <ele>356</ele>
        <time>2021-04-03T13:35:11.591Z</time>
      </trkpt>
      <trkpt lat="45.57481" lon="5.48126">
        <ele>356</ele>
        <time>2021-04-03T13:35:12.591Z</time>
      </trkpt>
      <trkpt lat="45.57485" lon="5.48127">
        <ele>357</ele>
        <time>2021-04-03T13:35:13.592Z</time>
      </trkpt>
      <trkpt lat="45.57489" lon="5.48127">
        <ele>357</ele>
        <time>2021-04-03T13:35:14.592Z</time>
      </trkpt>
      <trkpt lat="45.57493" lon="5.48127">
        <ele>357</ele>
        <time>2021-04-03T13:35:15.592Z</time>
      </trkpt>
      <trkpt lat="45.57496" lon="5.48127">
        <ele>358</ele>
        <time>2021-04-03T13:35:16.592Z</time>
      </trkpt>
      <trkpt lat="45.575" lon="5.48127">
        <ele>358</ele>
        <time>2021-04-03T13:35:17.592Z</time>
      </trkpt>
      <trkpt lat="45.57504" lon="5.48126">
        <ele>359</ele>
        <time>2021-04-03T13:35:18.592Z</time>
      </trkpt>
      <trkpt lat="45.57508" lon="5.48125">
        <ele>359</ele>
        <time>2021-04-03T13:35:19.591Z</time>
      </trkpt>
      <trkpt lat="45.57512" lon="5.48124">
        <ele>359</ele>
        <time>2021-04-03T13:35:20.592Z</time>
      </trkpt>
      <trkpt lat="45.57516" lon="5.48123">
        <ele>360</ele>
        <time>2021-04-03T13:35:21.592Z</time>
      </trkpt>
      <trkpt lat="45.5752" lon="5.48121">
        <ele>360</ele>
        <time>2021-04-03T13:35:22.592Z</time>
      </trkpt>
      <trkpt lat="45.57524" lon="5.4812">
        <ele>360</ele>
        <time>2021-04-03T13:35:23.592Z</time>
      </trkpt>
      <trkpt lat="45.57527" lon="5.48119">
        <ele>360</ele>
        <time>2021-04-03T13:35:24.592Z</time>
      </trkpt>
      <trkpt lat="45.57531" lon="5.48118">
        <ele>360</ele>
        <time>2021-04-03T13:35:25.592Z</time>
      </trkpt>
      <trkpt lat="45.57534" lon="5.48117">
        <ele>361</ele>
        <time>2021-04-03T13:35:26.591Z</time>
      </trkpt>
      <trkpt lat="45.57538" lon="5.48116">
        <ele>361</ele>
        <time>2021-04-03T13:35:27.592Z</time>
      </trkpt>
      <trkpt lat="45.57541" lon="5.48114">
        <ele>361</ele>
        <time>2021-04-03T13:35:28.592Z</time>
      </trkpt>
      <trkpt lat="45.57545" lon="5.48113">
        <ele>361</ele>
        <time>2021-04-03T13:35:29.591Z</time>
      </trkpt>
      <trkpt lat="45.57548" lon="5.48112">
        <ele>361</ele>
        <time>2021-04-03T13:35:30.592Z</time>
      </trkpt>
      <trkpt lat="45.57552" lon="5.48111">
        <ele>361</ele>
        <time>2021-04-03T13:35:31.592Z</time>
      </trkpt>
      <trkpt lat="45.57556" lon="5.4811">
        <ele>361</ele>
        <time>2021-04-03T13:35:32.592Z</time>
      </trkpt>
      <trkpt lat="45.57559" lon="5.48109">
        <ele>361</ele>
        <time>2021-04-03T13:35:33.592Z</time>
      </trkpt>
      <trkpt lat="45.57562" lon="5.48108">
        <ele>362</ele>
        <time>2021-04-03T13:35:34.591Z</time>
      </trkpt>
      <trkpt lat="45.57566" lon="5.48107">
        <ele>362</ele>
        <time>2021-04-03T13:35:35.591Z</time>
      </trkpt>
      <trkpt lat="45.57569" lon="5.48107">
        <ele>362</ele>
        <time>2021-04-03T13:35:36.591Z</time>
      </trkpt>
      <trkpt lat="45.57573" lon="5.48106">
        <ele>362</ele>
        <time>2021-04-03T13:35:37.592Z</time>
      </trkpt>
      <trkpt lat="45.57576" lon="5.48106">
        <ele>362</ele>
        <time>2021-04-03T13:35:38.592Z</time>
      </trkpt>
      <trkpt lat="45.57579" lon="5.48105">
        <ele>362</ele>
        <time>2021-04-03T13:35:39.592Z</time>
      </trkpt>
      <trkpt lat="45.57582" lon="5.48104">
        <ele>362</ele>
        <time>2021-04-03T13:35:40.591Z</time>
      </trkpt>
      <trkpt lat="45.57587" lon="5.48103">
        <ele>362</ele>
        <time>2021-04-03T13:35:41.592Z</time>
      </trkpt>
      <trkpt lat="45.5759" lon="5.48103">
        <ele>363</ele>
        <time>2021-04-03T13:35:42.591Z</time>
      </trkpt>
      <trkpt lat="45.57593" lon="5.48102">
        <ele>363</ele>
        <time>2021-04-03T13:35:43.592Z</time>
      </trkpt>
      <trkpt lat="45.57597" lon="5.48102">
        <ele>364</ele>
        <time>2021-04-03T13:35:44.591Z</time>
      </trkpt>
      <trkpt lat="45.576" lon="5.48102">
        <ele>364</ele>
        <time>2021-04-03T13:35:45.591Z</time>
      </trkpt>
      <trkpt lat="45.57604" lon="5.48103">
        <ele>364</ele>
        <time>2021-04-03T13:35:46.591Z</time>
      </trkpt>
      <trkpt lat="45.57608" lon="5.48103">
        <ele>364</ele>
        <time>2021-04-03T13:35:47.592Z</time>
      </trkpt>
      <trkpt lat="45.57611" lon="5.48104">
        <ele>364</ele>
        <time>2021-04-03T13:35:48.592Z</time>
      </trkpt>
      <trkpt lat="45.57615" lon="5.48105">
        <ele>365</ele>
        <time>2021-04-03T13:35:49.592Z</time>
      </trkpt>
      <trkpt lat="45.57618" lon="5.48106">
        <ele>365</ele>
        <time>2021-04-03T13:35:50.592Z</time>
      </trkpt>
      <trkpt lat="45.57623" lon="5.48106">
        <ele>366</ele>
        <time>2021-04-03T13:35:51.591Z</time>
      </trkpt>
      <trkpt lat="45.57627" lon="5.48107">
        <ele>366</ele>
        <time>2021-04-03T13:35:52.592Z</time>
      </trkpt>
      <trkpt lat="45.57629" lon="5.48108">
        <ele>367</ele>
        <time>2021-04-03T13:35:53.591Z</time>
      </trkpt>
      <trkpt lat="45.57634" lon="5.4811">
        <ele>367</ele>
        <time>2021-04-03T13:35:54.592Z</time>
      </trkpt>
      <trkpt lat="45.57638" lon="5.48111">
        <ele>367</ele>
        <time>2021-04-03T13:35:55.592Z</time>
      </trkpt>
      <trkpt lat="45.57642" lon="5.48112">
        <ele>366</ele>
        <time>2021-04-03T13:35:56.591Z</time>
      </trkpt>
      <trkpt lat="45.57645" lon="5.48113">
        <ele>367</ele>
        <time>2021-04-03T13:35:57.592Z</time>
      </trkpt>
      <trkpt lat="45.57649" lon="5.48115">
        <ele>367</ele>
        <time>2021-04-03T13:35:58.592Z</time>
      </trkpt>
      <trkpt lat="45.57652" lon="5.48116">
        <ele>367</ele>
        <time>2021-04-03T13:35:59.591Z</time>
      </trkpt>
      <trkpt lat="45.57656" lon="5.48118">
        <ele>368</ele>
        <time>2021-04-03T13:36:00.592Z</time>
      </trkpt>
      <trkpt lat="45.5766" lon="5.48119">
        <ele>368</ele>
        <time>2021-04-03T13:36:01.591Z</time>
      </trkpt>
      <trkpt lat="45.57663" lon="5.48121">
        <ele>369</ele>
        <time>2021-04-03T13:36:02.591Z</time>
      </trkpt>
      <trkpt lat="45.57666" lon="5.48122">
        <ele>370</ele>
        <time>2021-04-03T13:36:03.591Z</time>
      </trkpt>
      <trkpt lat="45.57671" lon="5.48124">
        <ele>371</ele>
        <time>2021-04-03T13:36:04.591Z</time>
      </trkpt>
      <trkpt lat="45.57674" lon="5.48126">
        <ele>372</ele>
        <time>2021-04-03T13:36:05.592Z</time>
      </trkpt>
      <trkpt lat="45.57677" lon="5.48128">
        <ele>373</ele>
        <time>2021-04-03T13:36:06.592Z</time>
      </trkpt>
      <trkpt lat="45.5768" lon="5.48129">
        <ele>374</ele>
        <time>2021-04-03T13:36:07.592Z</time>
      </trkpt>
      <trkpt lat="45.57684" lon="5.48131">
        <ele>375</ele>
        <time>2021-04-03T13:36:08.592Z</time>
      </trkpt>
      <trkpt lat="45.57688" lon="5.48133">
        <ele>377</ele>
        <time>2021-04-03T13:36:09.591Z</time>
      </trkpt>
      <trkpt lat="45.57692" lon="5.48135">
        <ele>378</ele>
        <time>2021-04-03T13:36:10.591Z</time>
      </trkpt>
      <trkpt lat="45.57696" lon="5.48137">
        <ele>379</ele>
        <time>2021-04-03T13:36:11.591Z</time>
      </trkpt>
      <trkpt lat="45.577" lon="5.48139">
        <ele>380</ele>
        <time>2021-04-03T13:36:12.591Z</time>
      </trkpt>
      <trkpt lat="45.57702" lon="5.48141">
        <ele>380</ele>
        <time>2021-04-03T13:36:13.591Z</time>
      </trkpt>
      <trkpt lat="45.57706" lon="5.48142">
        <ele>380</ele>
        <time>2021-04-03T13:36:14.591Z</time>
      </trkpt>
      <trkpt lat="45.57709" lon="5.48145">
        <ele>380</ele>
        <time>2021-04-03T13:36:15.592Z</time>
      </trkpt>
      <trkpt lat="45.57713" lon="5.48147">
        <ele>380</ele>
        <time>2021-04-03T13:36:16.591Z</time>
      </trkpt>
      <trkpt lat="45.57717" lon="5.48149">
        <ele>380</ele>
        <time>2021-04-03T13:36:17.592Z</time>
      </trkpt>
      <trkpt lat="45.57721" lon="5.48151">
        <ele>380</ele>
        <time>2021-04-03T13:36:18.592Z</time>
      </trkpt>
      <trkpt lat="45.57724" lon="5.48154">
        <ele>380</ele>
        <time>2021-04-03T13:36:19.591Z</time>
      </trkpt>
      <trkpt lat="45.57728" lon="5.48156">
        <ele>380</ele>
        <time>2021-04-03T13:36:20.591Z</time>
      </trkpt>
      <trkpt lat="45.5773" lon="5.48157">
        <ele>380</ele>
        <time>2021-04-03T13:36:21.592Z</time>
      </trkpt>
      <trkpt lat="45.57734" lon="5.48159">
        <ele>380</ele>
        <time>2021-04-03T13:36:22.592Z</time>
      </trkpt>
      <trkpt lat="45.57738" lon="5.48161">
        <ele>381</ele>
        <time>2021-04-03T13:36:23.592Z</time>
      </trkpt>
      <trkpt lat="45.57742" lon="5.48164">
        <ele>381</ele>
        <time>2021-04-03T13:36:24.592Z</time>
      </trkpt>
      <trkpt lat="45.57745" lon="5.48166">
        <ele>381</ele>
        <time>2021-04-03T13:36:25.592Z</time>
      </trkpt>
      <trkpt lat="45.57749" lon="5.48169">
        <ele>381</ele>
        <time>2021-04-03T13:36:26.592Z</time>
      </trkpt>
      <trkpt lat="45.57752" lon="5.48172">
        <ele>381</ele>
        <time>2021-04-03T13:36:27.592Z</time>
      </trkpt>
      <trkpt lat="45.57756" lon="5.48175">
        <ele>381</ele>
        <time>2021-04-03T13:36:28.592Z</time>
      </trkpt>
      <trkpt lat="45.57759" lon="5.48178">
        <ele>382</ele>
        <time>2021-04-03T13:36:29.592Z</time>
      </trkpt>
      <trkpt lat="45.57762" lon="5.48181">
        <ele>382</ele>
        <time>2021-04-03T13:36:30.591Z</time>
      </trkpt>
      <trkpt lat="45.57765" lon="5.48185">
        <ele>382</ele>
        <time>2021-04-03T13:36:31.592Z</time>
      </trkpt>
      <trkpt lat="45.57768" lon="5.48189">
        <ele>383</ele>
        <time>2021-04-03T13:36:32.592Z</time>
      </trkpt>
      <trkpt lat="45.57771" lon="5.48193">
        <ele>383</ele>
        <time>2021-04-03T13:36:33.591Z</time>
      </trkpt>
      <trkpt lat="45.57775" lon="5.48196">
        <ele>383</ele>
        <time>2021-04-03T13:36:34.592Z</time>
      </trkpt>
      <trkpt lat="45.57777" lon="5.48199">
        <ele>383</ele>
        <time>2021-04-03T13:36:35.592Z</time>
      </trkpt>
      <trkpt lat="45.57781" lon="5.48204">
        <ele>383</ele>
        <time>2021-04-03T13:36:36.592Z</time>
      </trkpt>
      <trkpt lat="45.57784" lon="5.48209">
        <ele>383</ele>
        <time>2021-04-03T13:36:37.591Z</time>
      </trkpt>
      <trkpt lat="45.57787" lon="5.48213">
        <ele>383</ele>
        <time>2021-04-03T13:36:38.591Z</time>
      </trkpt>
      <trkpt lat="45.5779" lon="5.48216">
        <ele>383</ele>
        <time>2021-04-03T13:36:39.592Z</time>
      </trkpt>
      <trkpt lat="45.57792" lon="5.48222">
        <ele>384</ele>
        <time>2021-04-03T13:36:40.591Z</time>
      </trkpt>
      <trkpt lat="45.57794" lon="5.48227">
        <ele>384</ele>
        <time>2021-04-03T13:36:41.591Z</time>
      </trkpt>
      <trkpt lat="45.57796" lon="5.48232">
        <ele>384</ele>
        <time>2021-04-03T13:36:42.592Z</time>
      </trkpt>
      <trkpt lat="45.57797" lon="5.48237">
        <ele>385</ele>
        <time>2021-04-03T13:36:43.592Z</time>
      </trkpt>
      <trkpt lat="45.57799" lon="5.48242">
        <ele>385</ele>
        <time>2021-04-03T13:36:44.592Z</time>
      </trkpt>
      <trkpt lat="45.57801" lon="5.48248">
        <ele>385</ele>
        <time>2021-04-03T13:36:45.592Z</time>
      </trkpt>
      <trkpt lat="45.57803" lon="5.48253">
        <ele>385</ele>
        <time>2021-04-03T13:36:46.592Z</time>
      </trkpt>
      <trkpt lat="45.57805" lon="5.48259">
        <ele>384</ele>
        <time>2021-04-03T13:36:47.591Z</time>
      </trkpt>
      <trkpt lat="45.57806" lon="5.48264">
        <ele>384</ele>
        <time>2021-04-03T13:36:48.591Z</time>
      </trkpt>
      <trkpt lat="45.57806" lon="5.48269">
        <ele>384</ele>
        <time>2021-04-03T13:36:49.592Z</time>
      </trkpt>
      <trkpt lat="45.57808" lon="5.48275">
        <ele>384</ele>
        <time>2021-04-03T13:36:50.592Z</time>
      </trkpt>
      <trkpt lat="45.5781" lon="5.4828">
        <ele>385</ele>
        <time>2021-04-03T13:36:51.592Z</time>
      </trkpt>
      <trkpt lat="45.57811" lon="5.48286">
        <ele>385</ele>
        <time>2021-04-03T13:36:52.592Z</time>
      </trkpt>
      <trkpt lat="45.57813" lon="5.4829">
        <ele>386</ele>
        <time>2021-04-03T13:36:53.591Z</time>
      </trkpt>
      <trkpt lat="45.57815" lon="5.48297">
        <ele>387</ele>
        <time>2021-04-03T13:36:54.591Z</time>
      </trkpt>
      <trkpt lat="45.57817" lon="5.48303">
        <ele>387</ele>
        <time>2021-04-03T13:36:55.591Z</time>
      </trkpt>
      <trkpt lat="45.57819" lon="5.48309">
        <ele>388</ele>
        <time>2021-04-03T13:36:56.591Z</time>
      </trkpt>
      <trkpt lat="45.57821" lon="5.48315">
        <ele>388</ele>
        <time>2021-04-03T13:36:57.591Z</time>
      </trkpt>
      <trkpt lat="45.57822" lon="5.4832">
        <ele>389</ele>
        <time>2021-04-03T13:36:58.591Z</time>
      </trkpt>
      <trkpt lat="45.57824" lon="5.48326">
        <ele>389</ele>
        <time>2021-04-03T13:36:59.591Z</time>
      </trkpt>
      <trkpt lat="45.57826" lon="5.48332">
        <ele>390</ele>
        <time>2021-04-03T13:37:00.592Z</time>
      </trkpt>
      <trkpt lat="45.57827" lon="5.48338">
        <ele>390</ele>
        <time>2021-04-03T13:37:01.592Z</time>
      </trkpt>
      <trkpt lat="45.57829" lon="5.48343">
        <ele>390</ele>
        <time>2021-04-03T13:37:02.591Z</time>
      </trkpt>
      <trkpt lat="45.57831" lon="5.48348">
        <ele>389</ele>
        <time>2021-04-03T13:37:03.592Z</time>
      </trkpt>
      <trkpt lat="45.57832" lon="5.48355">
        <ele>388</ele>
        <time>2021-04-03T13:37:04.592Z</time>
      </trkpt>
      <trkpt lat="45.57834" lon="5.48361">
        <ele>388</ele>
        <time>2021-04-03T13:37:05.592Z</time>
      </trkpt>
      <trkpt lat="45.57835" lon="5.48366">
        <ele>388</ele>
        <time>2021-04-03T13:37:06.592Z</time>
      </trkpt>
      <trkpt lat="45.57836" lon="5.48371">
        <ele>387</ele>
        <time>2021-04-03T13:37:07.591Z</time>
      </trkpt>
      <trkpt lat="45.57838" lon="5.48376">
        <ele>387</ele>
        <time>2021-04-03T13:37:08.592Z</time>
      </trkpt>
      <trkpt lat="45.5784" lon="5.48382">
        <ele>388</ele>
        <time>2021-04-03T13:37:09.592Z</time>
      </trkpt>
      <trkpt lat="45.57842" lon="5.48388">
        <ele>388</ele>
        <time>2021-04-03T13:37:10.592Z</time>
      </trkpt>
      <trkpt lat="45.57843" lon="5.48394">
        <ele>388</ele>
        <time>2021-04-03T13:37:11.591Z</time>
      </trkpt>
      <trkpt lat="45.57845" lon="5.48398">
        <ele>389</ele>
        <time>2021-04-03T13:37:12.592Z</time>
      </trkpt>
      <trkpt lat="45.57847" lon="5.48404">
        <ele>389</ele>
        <time>2021-04-03T13:37:13.591Z</time>
      </trkpt>
      <trkpt lat="45.57849" lon="5.48408">
        <ele>390</ele>
        <time>2021-04-03T13:37:14.591Z</time>
      </trkpt>
      <trkpt lat="45.57851" lon="5.48414">
        <ele>390</ele>
        <time>2021-04-03T13:37:15.591Z</time>
      </trkpt>
      <trkpt lat="45.57853" lon="5.48418">
        <ele>391</ele>
        <time>2021-04-03T13:37:16.592Z</time>
      </trkpt>
      <trkpt lat="45.57855" lon="5.48423">
        <ele>391</ele>
        <time>2021-04-03T13:37:17.591Z</time>
      </trkpt>
      <trkpt lat="45.57857" lon="5.48429">
        <ele>392</ele>
        <time>2021-04-03T13:37:18.591Z</time>
      </trkpt>
      <trkpt lat="45.57859" lon="5.48434">
        <ele>393</ele>
        <time>2021-04-03T13:37:19.592Z</time>
      </trkpt>
      <trkpt lat="45.57862" lon="5.48439">
        <ele>393</ele>
        <time>2021-04-03T13:37:20.591Z</time>
      </trkpt>
      <trkpt lat="45.57863" lon="5.48443">
        <ele>394</ele>
        <time>2021-04-03T13:37:21.592Z</time>
      </trkpt>
      <trkpt lat="45.57866" lon="5.48449">
        <ele>394</ele>
        <time>2021-04-03T13:37:22.591Z</time>
      </trkpt>
      <trkpt lat="45.57868" lon="5.48454">
        <ele>395</ele>
        <time>2021-04-03T13:37:23.592Z</time>
      </trkpt>
      <trkpt lat="45.57869" lon="5.4846">
        <ele>395</ele>
        <time>2021-04-03T13:37:24.592Z</time>
      </trkpt>
      <trkpt lat="45.57871" lon="5.48464">
        <ele>395</ele>
        <time>2021-04-03T13:37:25.592Z</time>
      </trkpt>
      <trkpt lat="45.57872" lon="5.48469">
        <ele>396</ele>
        <time>2021-04-03T13:37:26.592Z</time>
      </trkpt>
      <trkpt lat="45.57874" lon="5.48476">
        <ele>396</ele>
        <time>2021-04-03T13:37:27.592Z</time>
      </trkpt>
      <trkpt lat="45.57875" lon="5.48481">
        <ele>396</ele>
        <time>2021-04-03T13:37:28.591Z</time>
      </trkpt>
      <trkpt lat="45.57876" lon="5.48487">
        <ele>395</ele>
        <time>2021-04-03T13:37:29.592Z</time>
      </trkpt>
      <trkpt lat="45.57878" lon="5.48492">
        <ele>395</ele>
        <time>2021-04-03T13:37:30.592Z</time>
      </trkpt>
      <trkpt lat="45.57879" lon="5.48497">
        <ele>395</ele>
        <time>2021-04-03T13:37:31.592Z</time>
      </trkpt>
      <trkpt lat="45.5788" lon="5.48503">
        <ele>395</ele>
        <time>2021-04-03T13:37:32.592Z</time>
      </trkpt>
      <trkpt lat="45.5788" lon="5.48509">
        <ele>395</ele>
        <time>2021-04-03T13:37:33.592Z</time>
      </trkpt>
      <trkpt lat="45.57881" lon="5.48513">
        <ele>395</ele>
        <time>2021-04-03T13:37:34.591Z</time>
      </trkpt>
      <trkpt lat="45.57882" lon="5.48521">
        <ele>395</ele>
        <time>2021-04-03T13:37:35.591Z</time>
      </trkpt>
      <trkpt lat="45.57883" lon="5.48526">
        <ele>394</ele>
        <time>2021-04-03T13:37:36.591Z</time>
      </trkpt>
      <trkpt lat="45.57884" lon="5.48533">
        <ele>393</ele>
        <time>2021-04-03T13:37:37.592Z</time>
      </trkpt>
      <trkpt lat="45.57885" lon="5.48539">
        <ele>393</ele>
        <time>2021-04-03T13:37:38.592Z</time>
      </trkpt>
      <trkpt lat="45.57885" lon="5.48544">
        <ele>393</ele>
        <time>2021-04-03T13:37:39.592Z</time>
      </trkpt>
      <trkpt lat="45.57886" lon="5.4855">
        <ele>393</ele>
        <time>2021-04-03T13:37:40.592Z</time>
      </trkpt>
      <trkpt lat="45.57887" lon="5.48557">
        <ele>393</ele>
        <time>2021-04-03T13:37:41.592Z</time>
      </trkpt>
      <trkpt lat="45.57888" lon="5.48563">
        <ele>393</ele>
        <time>2021-04-03T13:37:42.591Z</time>
      </trkpt>
      <trkpt lat="45.57889" lon="5.4857">
        <ele>394</ele>
        <time>2021-04-03T13:37:43.592Z</time>
      </trkpt>
      <trkpt lat="45.5789" lon="5.48575">
        <ele>394</ele>
        <time>2021-04-03T13:37:44.592Z</time>
      </trkpt>
      <trkpt lat="45.57892" lon="5.48582">
        <ele>394</ele>
        <time>2021-04-03T13:37:45.592Z</time>
      </trkpt>
      <trkpt lat="45.57893" lon="5.48587">
        <ele>395</ele>
        <time>2021-04-03T13:37:46.591Z</time>
      </trkpt>
      <trkpt lat="45.57895" lon="5.48593">
        <ele>396</ele>
        <time>2021-04-03T13:37:47.592Z</time>
      </trkpt>
      <trkpt lat="45.57897" lon="5.48598">
        <ele>396</ele>
        <time>2021-04-03T13:37:48.592Z</time>
      </trkpt>
      <trkpt lat="45.579" lon="5.48604">
        <ele>396</ele>
        <time>2021-04-03T13:37:49.592Z</time>
      </trkpt>
      <trkpt lat="45.57903" lon="5.48609">
        <ele>396</ele>
        <time>2021-04-03T13:37:50.591Z</time>
      </trkpt>
      <trkpt lat="45.57905" lon="5.48614">
        <ele>396</ele>
        <time>2021-04-03T13:37:51.592Z</time>
      </trkpt>
      <trkpt lat="45.57907" lon="5.48619">
        <ele>397</ele>
        <time>2021-04-03T13:37:52.591Z</time>
      </trkpt>
      <trkpt lat="45.57909" lon="5.48624">
        <ele>397</ele>
        <time>2021-04-03T13:37:53.592Z</time>
      </trkpt>
      <trkpt lat="45.57912" lon="5.4863">
        <ele>398</ele>
        <time>2021-04-03T13:37:54.591Z</time>
      </trkpt>
      <trkpt lat="45.57914" lon="5.48635">
        <ele>398</ele>
        <time>2021-04-03T13:37:55.591Z</time>
      </trkpt>
      <trkpt lat="45.57917" lon="5.48641">
        <ele>398</ele>
        <time>2021-04-03T13:37:56.591Z</time>
      </trkpt>
      <trkpt lat="45.57919" lon="5.48646">
        <ele>398</ele>
        <time>2021-04-03T13:37:57.591Z</time>
      </trkpt>
      <trkpt lat="45.57921" lon="5.4865">
        <ele>399</ele>
        <time>2021-04-03T13:37:58.592Z</time>
      </trkpt>
      <trkpt lat="45.57924" lon="5.48656">
        <ele>399</ele>
        <time>2021-04-03T13:37:59.591Z</time>
      </trkpt>
      <trkpt lat="45.57927" lon="5.48661">
        <ele>399</ele>
        <time>2021-04-03T13:38:00.591Z</time>
      </trkpt>
      <trkpt lat="45.5793" lon="5.48666">
        <ele>399</ele>
        <time>2021-04-03T13:38:01.592Z</time>
      </trkpt>
      <trkpt lat="45.57931" lon="5.48669">
        <ele>399</ele>
        <time>2021-04-03T13:38:02.591Z</time>
      </trkpt>
      <trkpt lat="45.57934" lon="5.48675">
        <ele>399</ele>
        <time>2021-04-03T13:38:03.592Z</time>
      </trkpt>
      <trkpt lat="45.57937" lon="5.48679">
        <ele>400</ele>
        <time>2021-04-03T13:38:04.591Z</time>
      </trkpt>
      <trkpt lat="45.5794" lon="5.48685">
        <ele>400</ele>
        <time>2021-04-03T13:38:05.591Z</time>
      </trkpt>
      <trkpt lat="45.57942" lon="5.48689">
        <ele>402</ele>
        <time>2021-04-03T13:38:06.592Z</time>
      </trkpt>
      <trkpt lat="45.57944" lon="5.48693">
        <ele>403</ele>
        <time>2021-04-03T13:38:07.592Z</time>
      </trkpt>
      <trkpt lat="45.57948" lon="5.48698">
        <ele>404</ele>
        <time>2021-04-03T13:38:08.592Z</time>
      </trkpt>
      <trkpt lat="45.57951" lon="5.48703">
        <ele>404</ele>
        <time>2021-04-03T13:38:09.592Z</time>
      </trkpt>
      <trkpt lat="45.57953" lon="5.48707">
        <ele>405</ele>
        <time>2021-04-03T13:38:10.591Z</time>
      </trkpt>
      <trkpt lat="45.57956" lon="5.48712">
        <ele>406</ele>
        <time>2021-04-03T13:38:11.592Z</time>
      </trkpt>
      <trkpt lat="45.57958" lon="5.48716">
        <ele>406</ele>
        <time>2021-04-03T13:38:12.592Z</time>
      </trkpt>
      <trkpt lat="45.57961" lon="5.48722">
        <ele>407</ele>
        <time>2021-04-03T13:38:13.592Z</time>
      </trkpt>
      <trkpt lat="45.57963" lon="5.48727">
        <ele>407</ele>
        <time>2021-04-03T13:38:14.592Z</time>
      </trkpt>
      <trkpt lat="45.57965" lon="5.48732">
        <ele>407</ele>
        <time>2021-04-03T13:38:15.591Z</time>
      </trkpt>
      <trkpt lat="45.57967" lon="5.48736">
        <ele>407</ele>
        <time>2021-04-03T13:38:16.592Z</time>
      </trkpt>
      <trkpt lat="45.5797" lon="5.48742">
        <ele>407</ele>
        <time>2021-04-03T13:38:17.592Z</time>
      </trkpt>
      <trkpt lat="45.57972" lon="5.48746">
        <ele>407</ele>
        <time>2021-04-03T13:38:18.592Z</time>
      </trkpt>
      <trkpt lat="45.57974" lon="5.48752">
        <ele>407</ele>
        <time>2021-04-03T13:38:19.592Z</time>
      </trkpt>
      <trkpt lat="45.57977" lon="5.48757">
        <ele>407</ele>
        <time>2021-04-03T13:38:20.592Z</time>
      </trkpt>
      <trkpt lat="45.5798" lon="5.48763">
        <ele>407</ele>
        <time>2021-04-03T13:38:21.592Z</time>
      </trkpt>
      <trkpt lat="45.57982" lon="5.48767">
        <ele>406</ele>
        <time>2021-04-03T13:38:22.592Z</time>
      </trkpt>
      <trkpt lat="45.57984" lon="5.48772">
        <ele>406</ele>
        <time>2021-04-03T13:38:23.591Z</time>
      </trkpt>
      <trkpt lat="45.57987" lon="5.48777">
        <ele>407</ele>
        <time>2021-04-03T13:38:24.592Z</time>
      </trkpt>
      <trkpt lat="45.57989" lon="5.48782">
        <ele>407</ele>
        <time>2021-04-03T13:38:25.591Z</time>
      </trkpt>
      <trkpt lat="45.57992" lon="5.48787">
        <ele>407</ele>
        <time>2021-04-03T13:38:26.592Z</time>
      </trkpt>
      <trkpt lat="45.57994" lon="5.48792">
        <ele>408</ele>
        <time>2021-04-03T13:38:27.592Z</time>
      </trkpt>
      <trkpt lat="45.57996" lon="5.48797">
        <ele>408</ele>
        <time>2021-04-03T13:38:28.591Z</time>
      </trkpt>
      <trkpt lat="45.57999" lon="5.48801">
        <ele>408</ele>
        <time>2021-04-03T13:38:29.592Z</time>
      </trkpt>
      <trkpt lat="45.58001" lon="5.48806">
        <ele>408</ele>
        <time>2021-04-03T13:38:30.592Z</time>
      </trkpt>
      <trkpt lat="45.58003" lon="5.48811">
        <ele>408</ele>
        <time>2021-04-03T13:38:31.592Z</time>
      </trkpt>
      <trkpt lat="45.58005" lon="5.48817">
        <ele>409</ele>
        <time>2021-04-03T13:38:32.592Z</time>
      </trkpt>
      <trkpt lat="45.58008" lon="5.48823">
        <ele>409</ele>
        <time>2021-04-03T13:38:33.592Z</time>
      </trkpt>
      <trkpt lat="45.5801" lon="5.48827">
        <ele>409</ele>
        <time>2021-04-03T13:38:34.591Z</time>
      </trkpt>
      <trkpt lat="45.58013" lon="5.48833">
        <ele>409</ele>
        <time>2021-04-03T13:38:35.592Z</time>
      </trkpt>
      <trkpt lat="45.58015" lon="5.48837">
        <ele>408</ele>
        <time>2021-04-03T13:38:36.592Z</time>
      </trkpt>
      <trkpt lat="45.58018" lon="5.48843">
        <ele>408</ele>
        <time>2021-04-03T13:38:37.592Z</time>
      </trkpt>
      <trkpt lat="45.5802" lon="5.48848">
        <ele>408</ele>
        <time>2021-04-03T13:38:38.591Z</time>
      </trkpt>
      <trkpt lat="45.58022" lon="5.48852">
        <ele>408</ele>
        <time>2021-04-03T13:38:39.592Z</time>
      </trkpt>
      <trkpt lat="45.58025" lon="5.48857">
        <ele>408</ele>
        <time>2021-04-03T13:38:40.591Z</time>
      </trkpt>
      <trkpt lat="45.58028" lon="5.48863">
        <ele>408</ele>
        <time>2021-04-03T13:38:41.592Z</time>
      </trkpt>
      <trkpt lat="45.5803" lon="5.48867">
        <ele>409</ele>
        <time>2021-04-03T13:38:42.592Z</time>
      </trkpt>
      <trkpt lat="45.58033" lon="5.48873">
        <ele>409</ele>
        <time>2021-04-03T13:38:43.592Z</time>
      </trkpt>
      <trkpt lat="45.58035" lon="5.48877">
        <ele>409</ele>
        <time>2021-04-03T13:38:44.591Z</time>
      </trkpt>
      <trkpt lat="45.58038" lon="5.48882">
        <ele>410</ele>
        <time>2021-04-03T13:38:45.591Z</time>
      </trkpt>
      <trkpt lat="45.58041" lon="5.48887">
        <ele>411</ele>
        <time>2021-04-03T13:38:46.592Z</time>
      </trkpt>
      <trkpt lat="45.58043" lon="5.48891">
        <ele>411</ele>
        <time>2021-04-03T13:38:47.591Z</time>
      </trkpt>
      <trkpt lat="45.58046" lon="5.48897">
        <ele>412</ele>
        <time>2021-04-03T13:38:48.591Z</time>
      </trkpt>
      <trkpt lat="45.58049" lon="5.48902">
        <ele>413</ele>
        <time>2021-04-03T13:38:49.592Z</time>
      </trkpt>
      <trkpt lat="45.58051" lon="5.48907">
        <ele>413</ele>
        <time>2021-04-03T13:38:50.592Z</time>
      </trkpt>
      <trkpt lat="45.58054" lon="5.48912">
        <ele>414</ele>
        <time>2021-04-03T13:38:51.591Z</time>
      </trkpt>
      <trkpt lat="45.58057" lon="5.48917">
        <ele>414</ele>
        <time>2021-04-03T13:38:52.592Z</time>
      </trkpt>
      <trkpt lat="45.58059" lon="5.48922">
        <ele>415</ele>
        <time>2021-04-03T13:38:53.592Z</time>
      </trkpt>
      <trkpt lat="45.58062" lon="5.48927">
        <ele>415</ele>
        <time>2021-04-03T13:38:54.592Z</time>
      </trkpt>
      <trkpt lat="45.58064" lon="5.48932">
        <ele>415</ele>
        <time>2021-04-03T13:38:55.591Z</time>
      </trkpt>
      <trkpt lat="45.58067" lon="5.48938">
        <ele>415</ele>
        <time>2021-04-03T13:38:56.592Z</time>
      </trkpt>
      <trkpt lat="45.58069" lon="5.48943">
        <ele>414</ele>
        <time>2021-04-03T13:38:57.591Z</time>
      </trkpt>
      <trkpt lat="45.58072" lon="5.48948">
        <ele>413</ele>
        <time>2021-04-03T13:38:58.592Z</time>
      </trkpt>
      <trkpt lat="45.58074" lon="5.48953">
        <ele>413</ele>
        <time>2021-04-03T13:38:59.592Z</time>
      </trkpt>
      <trkpt lat="45.58077" lon="5.48958">
        <ele>413</ele>
        <time>2021-04-03T13:39:00.591Z</time>
      </trkpt>
      <trkpt lat="45.58079" lon="5.48963">
        <ele>413</ele>
        <time>2021-04-03T13:39:01.592Z</time>
      </trkpt>
      <trkpt lat="45.58081" lon="5.48967">
        <ele>414</ele>
        <time>2021-04-03T13:39:02.591Z</time>
      </trkpt>
      <trkpt lat="45.58084" lon="5.48972">
        <ele>414</ele>
        <time>2021-04-03T13:39:03.592Z</time>
      </trkpt>
      <trkpt lat="45.58087" lon="5.48977">
        <ele>414</ele>
        <time>2021-04-03T13:39:04.591Z</time>
      </trkpt>
      <trkpt lat="45.58089" lon="5.48982">
        <ele>414</ele>
        <time>2021-04-03T13:39:05.591Z</time>
      </trkpt>
      <trkpt lat="45.58091" lon="5.48987">
        <ele>414</ele>
        <time>2021-04-03T13:39:06.591Z</time>
      </trkpt>
      <trkpt lat="45.58093" lon="5.48992">
        <ele>413</ele>
        <time>2021-04-03T13:39:07.591Z</time>
      </trkpt>
      <trkpt lat="45.58095" lon="5.48997">
        <ele>413</ele>
        <time>2021-04-03T13:39:08.592Z</time>
      </trkpt>
      <trkpt lat="45.58098" lon="5.49002">
        <ele>413</ele>
        <time>2021-04-03T13:39:09.592Z</time>
      </trkpt>
      <trkpt lat="45.581" lon="5.49006">
        <ele>413</ele>
        <time>2021-04-03T13:39:10.592Z</time>
      </trkpt>
      <trkpt lat="45.58102" lon="5.49011">
        <ele>413</ele>
        <time>2021-04-03T13:39:11.591Z</time>
      </trkpt>
      <trkpt lat="45.58105" lon="5.49016">
        <ele>413</ele>
        <time>2021-04-03T13:39:12.592Z</time>
      </trkpt>
      <trkpt lat="45.58107" lon="5.49019">
        <ele>413</ele>
        <time>2021-04-03T13:39:13.591Z</time>
      </trkpt>
      <trkpt lat="45.5811" lon="5.4902">
        <ele>413</ele>
        <time>2021-04-03T13:39:14.591Z</time>
      </trkpt>
      <trkpt lat="45.58112" lon="5.49019">
        <ele>413</ele>
        <time>2021-04-03T13:39:15.591Z</time>
      </trkpt>
      <trkpt lat="45.58112" lon="5.49017">
        <ele>414</ele>
        <time>2021-04-03T13:39:16.591Z</time>
      </trkpt>
      <trkpt lat="45.58111" lon="5.49013">
        <ele>414</ele>
        <time>2021-04-03T13:39:17.592Z</time>
      </trkpt>
      <trkpt lat="45.5811" lon="5.4901">
        <ele>415</ele>
        <time>2021-04-03T13:39:18.591Z</time>
      </trkpt>
      <trkpt lat="45.58109" lon="5.49008">
        <ele>416</ele>
        <time>2021-04-03T13:39:19.591Z</time>
      </trkpt>
      <trkpt lat="45.58108" lon="5.49007">
        <ele>416</ele>
        <time>2021-04-03T13:39:20.592Z</time>
      </trkpt>
      <trkpt lat="45.58107" lon="5.49006">
        <ele>417</ele>
        <time>2021-04-03T13:39:21.591Z</time>
      </trkpt>
      <trkpt lat="45.58106" lon="5.49006">
        <ele>418</ele>
        <time>2021-04-03T13:39:22.592Z</time>
      </trkpt>
      <trkpt lat="45.58106" lon="5.49005">
        <ele>418</ele>
        <time>2021-04-03T13:39:23.592Z</time>
      </trkpt>
      <trkpt lat="45.58101" lon="5.49014">
        <ele>415</ele>
        <time>2021-04-03T13:39:24.593Z</time>
      </trkpt>
      <trkpt lat="45.58102" lon="5.49019">
        <ele>415</ele>
        <time>2021-04-03T13:39:25.592Z</time>
      </trkpt>
      <trkpt lat="45.58103" lon="5.49023">
        <ele>415</ele>
        <time>2021-04-03T13:39:26.593Z</time>
      </trkpt>
      <trkpt lat="45.58105" lon="5.49029">
        <ele>415</ele>
        <time>2021-04-03T13:39:27.593Z</time>
      </trkpt>
      <trkpt lat="45.58106" lon="5.49035">
        <ele>414</ele>
        <time>2021-04-03T13:39:28.593Z</time>
      </trkpt>
      <trkpt lat="45.58107" lon="5.4904">
        <ele>414</ele>
        <time>2021-04-03T13:39:29.592Z</time>
      </trkpt>
      <trkpt lat="45.58108" lon="5.49045">
        <ele>414</ele>
        <time>2021-04-03T13:39:30.592Z</time>
      </trkpt>
      <trkpt lat="45.58109" lon="5.4905">
        <ele>414</ele>
        <time>2021-04-03T13:39:31.593Z</time>
      </trkpt>
      <trkpt lat="45.5811" lon="5.49056">
        <ele>414</ele>
        <time>2021-04-03T13:39:32.592Z</time>
      </trkpt>
      <trkpt lat="45.5811" lon="5.49061">
        <ele>413</ele>
        <time>2021-04-03T13:39:33.592Z</time>
      </trkpt>
      <trkpt lat="45.58111" lon="5.49066">
        <ele>413</ele>
        <time>2021-04-03T13:39:34.593Z</time>
      </trkpt>
      <trkpt lat="45.58112" lon="5.49072">
        <ele>414</ele>
        <time>2021-04-03T13:39:35.592Z</time>
      </trkpt>
      <trkpt lat="45.58113" lon="5.49077">
        <ele>414</ele>
        <time>2021-04-03T13:39:36.592Z</time>
      </trkpt>
      <trkpt lat="45.58114" lon="5.49082">
        <ele>415</ele>
        <time>2021-04-03T13:39:37.592Z</time>
      </trkpt>
      <trkpt lat="45.58114" lon="5.49087">
        <ele>415</ele>
        <time>2021-04-03T13:39:38.593Z</time>
      </trkpt>
      <trkpt lat="45.58114" lon="5.49093">
        <ele>415</ele>
        <time>2021-04-03T13:39:39.592Z</time>
      </trkpt>
      <trkpt lat="45.58115" lon="5.49097">
        <ele>414</ele>
        <time>2021-04-03T13:39:40.592Z</time>
      </trkpt>
      <trkpt lat="45.58115" lon="5.49104">
        <ele>414</ele>
        <time>2021-04-03T13:39:41.593Z</time>
      </trkpt>
      <trkpt lat="45.58116" lon="5.49109">
        <ele>414</ele>
        <time>2021-04-03T13:39:42.592Z</time>
      </trkpt>
      <trkpt lat="45.58116" lon="5.49114">
        <ele>414</ele>
        <time>2021-04-03T13:39:43.592Z</time>
      </trkpt>
      <trkpt lat="45.58117" lon="5.49119">
        <ele>414</ele>
        <time>2021-04-03T13:39:44.593Z</time>
      </trkpt>
      <trkpt lat="45.58117" lon="5.49126">
        <ele>414</ele>
        <time>2021-04-03T13:39:45.593Z</time>
      </trkpt>
      <trkpt lat="45.58118" lon="5.49131">
        <ele>415</ele>
        <time>2021-04-03T13:39:46.593Z</time>
      </trkpt>
      <trkpt lat="45.58119" lon="5.49137">
        <ele>415</ele>
        <time>2021-04-03T13:39:47.592Z</time>
      </trkpt>
      <trkpt lat="45.58119" lon="5.49142">
        <ele>415</ele>
        <time>2021-04-03T13:39:48.592Z</time>
      </trkpt>
      <trkpt lat="45.5812" lon="5.49146">
        <ele>416</ele>
        <time>2021-04-03T13:39:49.593Z</time>
      </trkpt>
      <trkpt lat="45.58121" lon="5.49153">
        <ele>416</ele>
        <time>2021-04-03T13:39:50.593Z</time>
      </trkpt>
      <trkpt lat="45.58121" lon="5.49158">
        <ele>416</ele>
        <time>2021-04-03T13:39:51.593Z</time>
      </trkpt>
      <trkpt lat="45.58122" lon="5.49164">
        <ele>417</ele>
        <time>2021-04-03T13:39:52.593Z</time>
      </trkpt>
      <trkpt lat="45.58123" lon="5.49168">
        <ele>416</ele>
        <time>2021-04-03T13:39:53.593Z</time>
      </trkpt>
      <trkpt lat="45.58124" lon="5.49175">
        <ele>416</ele>
        <time>2021-04-03T13:39:54.592Z</time>
      </trkpt>
      <trkpt lat="45.58125" lon="5.4918">
        <ele>416</ele>
        <time>2021-04-03T13:39:55.592Z</time>
      </trkpt>
      <trkpt lat="45.58126" lon="5.49186">
        <ele>416</ele>
        <time>2021-04-03T13:39:56.592Z</time>
      </trkpt>
      <trkpt lat="45.58127" lon="5.49191">
        <ele>415</ele>
        <time>2021-04-03T13:39:57.592Z</time>
      </trkpt>
      <trkpt lat="45.58128" lon="5.49197">
        <ele>415</ele>
        <time>2021-04-03T13:39:58.592Z</time>
      </trkpt>
      <trkpt lat="45.58129" lon="5.49203">
        <ele>415</ele>
        <time>2021-04-03T13:39:59.593Z</time>
      </trkpt>
      <trkpt lat="45.5813" lon="5.49209">
        <ele>415</ele>
        <time>2021-04-03T13:40:00.592Z</time>
      </trkpt>
      <trkpt lat="45.58131" lon="5.49215">
        <ele>415</ele>
        <time>2021-04-03T13:40:01.593Z</time>
      </trkpt>
      <trkpt lat="45.58132" lon="5.49221">
        <ele>415</ele>
        <time>2021-04-03T13:40:02.593Z</time>
      </trkpt>
      <trkpt lat="45.58133" lon="5.49227">
        <ele>416</ele>
        <time>2021-04-03T13:40:03.592Z</time>
      </trkpt>
      <trkpt lat="45.58134" lon="5.49232">
        <ele>416</ele>
        <time>2021-04-03T13:40:04.593Z</time>
      </trkpt>
      <trkpt lat="45.58135" lon="5.49238">
        <ele>416</ele>
        <time>2021-04-03T13:40:05.593Z</time>
      </trkpt>
      <trkpt lat="45.58136" lon="5.49244">
        <ele>416</ele>
        <time>2021-04-03T13:40:06.593Z</time>
      </trkpt>
      <trkpt lat="45.58136" lon="5.4925">
        <ele>416</ele>
        <time>2021-04-03T13:40:07.593Z</time>
      </trkpt>
      <trkpt lat="45.58137" lon="5.49256">
        <ele>416</ele>
        <time>2021-04-03T13:40:08.592Z</time>
      </trkpt>
      <trkpt lat="45.58139" lon="5.49262">
        <ele>415</ele>
        <time>2021-04-03T13:40:09.593Z</time>
      </trkpt>
      <trkpt lat="45.5814" lon="5.49268">
        <ele>415</ele>
        <time>2021-04-03T13:40:10.593Z</time>
      </trkpt>
      <trkpt lat="45.58141" lon="5.49274">
        <ele>414</ele>
        <time>2021-04-03T13:40:11.592Z</time>
      </trkpt>
      <trkpt lat="45.58142" lon="5.49281">
        <ele>414</ele>
        <time>2021-04-03T13:40:12.592Z</time>
      </trkpt>
      <trkpt lat="45.58142" lon="5.49287">
        <ele>413</ele>
        <time>2021-04-03T13:40:13.593Z</time>
      </trkpt>
      <trkpt lat="45.58144" lon="5.49293">
        <ele>414</ele>
        <time>2021-04-03T13:40:14.593Z</time>
      </trkpt>
      <trkpt lat="45.58145" lon="5.49299">
        <ele>414</ele>
        <time>2021-04-03T13:40:15.592Z</time>
      </trkpt>
      <trkpt lat="45.58146" lon="5.49305">
        <ele>414</ele>
        <time>2021-04-03T13:40:16.593Z</time>
      </trkpt>
      <trkpt lat="45.58147" lon="5.49311">
        <ele>415</ele>
        <time>2021-04-03T13:40:17.592Z</time>
      </trkpt>
      <trkpt lat="45.58148" lon="5.49317">
        <ele>415</ele>
        <time>2021-04-03T13:40:18.592Z</time>
      </trkpt>
      <trkpt lat="45.58148" lon="5.49323">
        <ele>416</ele>
        <time>2021-04-03T13:40:19.593Z</time>
      </trkpt>
      <trkpt lat="45.58149" lon="5.49329">
        <ele>416</ele>
        <time>2021-04-03T13:40:20.593Z</time>
      </trkpt>
      <trkpt lat="45.5815" lon="5.49336">
        <ele>416</ele>
        <time>2021-04-03T13:40:21.593Z</time>
      </trkpt>
      <trkpt lat="45.58151" lon="5.49342">
        <ele>417</ele>
        <time>2021-04-03T13:40:22.593Z</time>
      </trkpt>
      <trkpt lat="45.58152" lon="5.49348">
        <ele>417</ele>
        <time>2021-04-03T13:40:23.592Z</time>
      </trkpt>
      <trkpt lat="45.58154" lon="5.49355">
        <ele>417</ele>
        <time>2021-04-03T13:40:24.593Z</time>
      </trkpt>
      <trkpt lat="45.58155" lon="5.49362">
        <ele>416</ele>
        <time>2021-04-03T13:40:25.593Z</time>
      </trkpt>
      <trkpt lat="45.58156" lon="5.49368">
        <ele>416</ele>
        <time>2021-04-03T13:40:26.593Z</time>
      </trkpt>
      <trkpt lat="45.58157" lon="5.49375">
        <ele>416</ele>
        <time>2021-04-03T13:40:27.593Z</time>
      </trkpt>
      <trkpt lat="45.58158" lon="5.49381">
        <ele>416</ele>
        <time>2021-04-03T13:40:28.592Z</time>
      </trkpt>
      <trkpt lat="45.58159" lon="5.49387">
        <ele>417</ele>
        <time>2021-04-03T13:40:29.593Z</time>
      </trkpt>
      <trkpt lat="45.5816" lon="5.49394">
        <ele>417</ele>
        <time>2021-04-03T13:40:30.592Z</time>
      </trkpt>
      <trkpt lat="45.58161" lon="5.494">
        <ele>417</ele>
        <time>2021-04-03T13:40:31.592Z</time>
      </trkpt>
      <trkpt lat="45.58162" lon="5.49407">
        <ele>418</ele>
        <time>2021-04-03T13:40:32.593Z</time>
      </trkpt>
      <trkpt lat="45.58164" lon="5.49414">
        <ele>418</ele>
        <time>2021-04-03T13:40:33.592Z</time>
      </trkpt>
      <trkpt lat="45.58165" lon="5.49421">
        <ele>418</ele>
        <time>2021-04-03T13:40:34.593Z</time>
      </trkpt>
      <trkpt lat="45.58166" lon="5.49428">
        <ele>418</ele>
        <time>2021-04-03T13:40:35.593Z</time>
      </trkpt>
      <trkpt lat="45.58168" lon="5.49434">
        <ele>418</ele>
        <time>2021-04-03T13:40:36.593Z</time>
      </trkpt>
      <trkpt lat="45.58168" lon="5.4944">
        <ele>418</ele>
        <time>2021-04-03T13:40:37.593Z</time>
      </trkpt>
      <trkpt lat="45.5817" lon="5.49449">
        <ele>417</ele>
        <time>2021-04-03T13:40:38.593Z</time>
      </trkpt>
      <trkpt lat="45.58171" lon="5.49456">
        <ele>416</ele>
        <time>2021-04-03T13:40:39.593Z</time>
      </trkpt>
      <trkpt lat="45.58172" lon="5.49463">
        <ele>416</ele>
        <time>2021-04-03T13:40:40.593Z</time>
      </trkpt>
      <trkpt lat="45.58173" lon="5.4947">
        <ele>416</ele>
        <time>2021-04-03T13:40:41.593Z</time>
      </trkpt>
      <trkpt lat="45.58174" lon="5.49477">
        <ele>416</ele>
        <time>2021-04-03T13:40:42.592Z</time>
      </trkpt>
      <trkpt lat="45.58176" lon="5.49484">
        <ele>416</ele>
        <time>2021-04-03T13:40:43.593Z</time>
      </trkpt>
      <trkpt lat="45.58177" lon="5.49491">
        <ele>416</ele>
        <time>2021-04-03T13:40:44.593Z</time>
      </trkpt>
      <trkpt lat="45.58178" lon="5.49499">
        <ele>417</ele>
        <time>2021-04-03T13:40:45.593Z</time>
      </trkpt>
      <trkpt lat="45.58179" lon="5.49506">
        <ele>417</ele>
        <time>2021-04-03T13:40:46.593Z</time>
      </trkpt>
      <trkpt lat="45.5818" lon="5.49513">
        <ele>417</ele>
        <time>2021-04-03T13:40:47.592Z</time>
      </trkpt>
      <trkpt lat="45.58181" lon="5.4952">
        <ele>418</ele>
        <time>2021-04-03T13:40:48.592Z</time>
      </trkpt>
      <trkpt lat="45.58183" lon="5.49527">
        <ele>418</ele>
        <time>2021-04-03T13:40:49.593Z</time>
      </trkpt>
      <trkpt lat="45.58184" lon="5.49535">
        <ele>418</ele>
        <time>2021-04-03T13:40:50.593Z</time>
      </trkpt>
      <trkpt lat="45.58185" lon="5.49542">
        <ele>418</ele>
        <time>2021-04-03T13:40:51.592Z</time>
      </trkpt>
      <trkpt lat="45.58186" lon="5.4955">
        <ele>418</ele>
        <time>2021-04-03T13:40:52.592Z</time>
      </trkpt>
      <trkpt lat="45.58188" lon="5.49557">
        <ele>417</ele>
        <time>2021-04-03T13:40:53.592Z</time>
      </trkpt>
      <trkpt lat="45.58189" lon="5.49564">
        <ele>416</ele>
        <time>2021-04-03T13:40:54.593Z</time>
      </trkpt>
      <trkpt lat="45.5819" lon="5.49572">
        <ele>415</ele>
        <time>2021-04-03T13:40:55.593Z</time>
      </trkpt>
      <trkpt lat="45.58192" lon="5.49579">
        <ele>415</ele>
        <time>2021-04-03T13:40:56.593Z</time>
      </trkpt>
      <trkpt lat="45.58193" lon="5.49587">
        <ele>414</ele>
        <time>2021-04-03T13:40:57.592Z</time>
      </trkpt>
      <trkpt lat="45.58194" lon="5.49594">
        <ele>414</ele>
        <time>2021-04-03T13:40:58.592Z</time>
      </trkpt>
      <trkpt lat="45.58195" lon="5.49601">
        <ele>413</ele>
        <time>2021-04-03T13:40:59.592Z</time>
      </trkpt>
      <trkpt lat="45.58196" lon="5.49608">
        <ele>413</ele>
        <time>2021-04-03T13:41:00.593Z</time>
      </trkpt>
      <trkpt lat="45.58198" lon="5.49616">
        <ele>414</ele>
        <time>2021-04-03T13:41:01.593Z</time>
      </trkpt>
      <trkpt lat="45.58199" lon="5.49623">
        <ele>414</ele>
        <time>2021-04-03T13:41:02.593Z</time>
      </trkpt>
      <trkpt lat="45.582" lon="5.4963">
        <ele>415</ele>
        <time>2021-04-03T13:41:03.592Z</time>
      </trkpt>
      <trkpt lat="45.58201" lon="5.49637">
        <ele>415</ele>
        <time>2021-04-03T13:41:04.592Z</time>
      </trkpt>
      <trkpt lat="45.58202" lon="5.49644">
        <ele>416</ele>
        <time>2021-04-03T13:41:05.593Z</time>
      </trkpt>
      <trkpt lat="45.58203" lon="5.49652">
        <ele>417</ele>
        <time>2021-04-03T13:41:06.593Z</time>
      </trkpt>
      <trkpt lat="45.58205" lon="5.49659">
        <ele>417</ele>
        <time>2021-04-03T13:41:07.592Z</time>
      </trkpt>
      <trkpt lat="45.58206" lon="5.49666">
        <ele>417</ele>
        <time>2021-04-03T13:41:08.592Z</time>
      </trkpt>
      <trkpt lat="45.58207" lon="5.49674">
        <ele>418</ele>
        <time>2021-04-03T13:41:09.592Z</time>
      </trkpt>
      <trkpt lat="45.58208" lon="5.49681">
        <ele>418</ele>
        <time>2021-04-03T13:41:10.593Z</time>
      </trkpt>
      <trkpt lat="45.58209" lon="5.49689">
        <ele>418</ele>
        <time>2021-04-03T13:41:11.593Z</time>
      </trkpt>
      <trkpt lat="45.5821" lon="5.49697">
        <ele>419</ele>
        <time>2021-04-03T13:41:12.593Z</time>
      </trkpt>
      <trkpt lat="45.58211" lon="5.49705">
        <ele>419</ele>
        <time>2021-04-03T13:41:13.592Z</time>
      </trkpt>
      <trkpt lat="45.58213" lon="5.49713">
        <ele>419</ele>
        <time>2021-04-03T13:41:14.593Z</time>
      </trkpt>
      <trkpt lat="45.58214" lon="5.49721">
        <ele>418</ele>
        <time>2021-04-03T13:41:15.593Z</time>
      </trkpt>
      <trkpt lat="45.58216" lon="5.49729">
        <ele>418</ele>
        <time>2021-04-03T13:41:16.592Z</time>
      </trkpt>
      <trkpt lat="45.58217" lon="5.49738">
        <ele>418</ele>
        <time>2021-04-03T13:41:17.593Z</time>
      </trkpt>
      <trkpt lat="45.58219" lon="5.49747">
        <ele>418</ele>
        <time>2021-04-03T13:41:18.593Z</time>
      </trkpt>
      <trkpt lat="45.5822" lon="5.49755">
        <ele>417</ele>
        <time>2021-04-03T13:41:19.592Z</time>
      </trkpt>
      <trkpt lat="45.58222" lon="5.49764">
        <ele>417</ele>
        <time>2021-04-03T13:41:20.592Z</time>
      </trkpt>
      <trkpt lat="45.58223" lon="5.49772">
        <ele>417</ele>
        <time>2021-04-03T13:41:21.593Z</time>
      </trkpt>
      <trkpt lat="45.58224" lon="5.4978">
        <ele>417</ele>
        <time>2021-04-03T13:41:22.592Z</time>
      </trkpt>
      <trkpt lat="45.58225" lon="5.49788">
        <ele>418</ele>
        <time>2021-04-03T13:41:23.593Z</time>
      </trkpt>
      <trkpt lat="45.58227" lon="5.49797">
        <ele>418</ele>
        <time>2021-04-03T13:41:24.593Z</time>
      </trkpt>
      <trkpt lat="45.58228" lon="5.49805">
        <ele>418</ele>
        <time>2021-04-03T13:41:25.592Z</time>
      </trkpt>
      <trkpt lat="45.58229" lon="5.49813">
        <ele>418</ele>
        <time>2021-04-03T13:41:26.593Z</time>
      </trkpt>
      <trkpt lat="45.58231" lon="5.49822">
        <ele>417</ele>
        <time>2021-04-03T13:41:27.592Z</time>
      </trkpt>
      <trkpt lat="45.58232" lon="5.4983">
        <ele>417</ele>
        <time>2021-04-03T13:41:28.592Z</time>
      </trkpt>
      <trkpt lat="45.58234" lon="5.49838">
        <ele>417</ele>
        <time>2021-04-03T13:41:29.592Z</time>
      </trkpt>
      <trkpt lat="45.58235" lon="5.49846">
        <ele>417</ele>
        <time>2021-04-03T13:41:30.593Z</time>
      </trkpt>
      <trkpt lat="45.58236" lon="5.49855">
        <ele>416</ele>
        <time>2021-04-03T13:41:31.592Z</time>
      </trkpt>
      <trkpt lat="45.58238" lon="5.49863">
        <ele>416</ele>
        <time>2021-04-03T13:41:32.593Z</time>
      </trkpt>
      <trkpt lat="45.58239" lon="5.49872">
        <ele>416</ele>
        <time>2021-04-03T13:41:33.592Z</time>
      </trkpt>
      <trkpt lat="45.5824" lon="5.49879">
        <ele>416</ele>
        <time>2021-04-03T13:41:34.592Z</time>
      </trkpt>
      <trkpt lat="45.58241" lon="5.49888">
        <ele>416</ele>
        <time>2021-04-03T13:41:35.592Z</time>
      </trkpt>
      <trkpt lat="45.58242" lon="5.49896">
        <ele>416</ele>
        <time>2021-04-03T13:41:36.592Z</time>
      </trkpt>
      <trkpt lat="45.58244" lon="5.49904">
        <ele>416</ele>
        <time>2021-04-03T13:41:37.592Z</time>
      </trkpt>
      <trkpt lat="45.58245" lon="5.49912">
        <ele>415</ele>
        <time>2021-04-03T13:41:38.593Z</time>
      </trkpt>
      <trkpt lat="45.58246" lon="5.4992">
        <ele>415</ele>
        <time>2021-04-03T13:41:39.593Z</time>
      </trkpt>
      <trkpt lat="45.58247" lon="5.49928">
        <ele>415</ele>
        <time>2021-04-03T13:41:40.593Z</time>
      </trkpt>
      <trkpt lat="45.58248" lon="5.49935">
        <ele>414</ele>
        <time>2021-04-03T13:41:41.593Z</time>
      </trkpt>
      <trkpt lat="45.58249" lon="5.49942">
        <ele>414</ele>
        <time>2021-04-03T13:41:42.592Z</time>
      </trkpt>
      <trkpt lat="45.5825" lon="5.49951">
        <ele>414</ele>
        <time>2021-04-03T13:41:43.593Z</time>
      </trkpt>
      <trkpt lat="45.58251" lon="5.49959">
        <ele>414</ele>
        <time>2021-04-03T13:41:44.593Z</time>
      </trkpt>
      <trkpt lat="45.58252" lon="5.49966">
        <ele>414</ele>
        <time>2021-04-03T13:41:45.593Z</time>
      </trkpt>
      <trkpt lat="45.58253" lon="5.49974">
        <ele>413</ele>
        <time>2021-04-03T13:41:46.592Z</time>
      </trkpt>
      <trkpt lat="45.58254" lon="5.49981">
        <ele>413</ele>
        <time>2021-04-03T13:41:47.592Z</time>
      </trkpt>
      <trkpt lat="45.58255" lon="5.49989">
        <ele>413</ele>
        <time>2021-04-03T13:41:48.593Z</time>
      </trkpt>
      <trkpt lat="45.58256" lon="5.49997">
        <ele>413</ele>
        <time>2021-04-03T13:41:49.593Z</time>
      </trkpt>
      <trkpt lat="45.58257" lon="5.50005">
        <ele>414</ele>
        <time>2021-04-03T13:41:50.592Z</time>
      </trkpt>
      <trkpt lat="45.58258" lon="5.50012">
        <ele>414</ele>
        <time>2021-04-03T13:41:51.593Z</time>
      </trkpt>
      <trkpt lat="45.5826" lon="5.5002">
        <ele>415</ele>
        <time>2021-04-03T13:41:52.592Z</time>
      </trkpt>
      <trkpt lat="45.58261" lon="5.50028">
        <ele>415</ele>
        <time>2021-04-03T13:41:53.592Z</time>
      </trkpt>
      <trkpt lat="45.58262" lon="5.50035">
        <ele>415</ele>
        <time>2021-04-03T13:41:54.593Z</time>
      </trkpt>
      <trkpt lat="45.58263" lon="5.50043">
        <ele>416</ele>
        <time>2021-04-03T13:41:55.593Z</time>
      </trkpt>
      <trkpt lat="45.58264" lon="5.50051">
        <ele>417</ele>
        <time>2021-04-03T13:41:56.593Z</time>
      </trkpt>
      <trkpt lat="45.58266" lon="5.50059">
        <ele>417</ele>
        <time>2021-04-03T13:41:57.593Z</time>
      </trkpt>
      <trkpt lat="45.58267" lon="5.50066">
        <ele>417</ele>
        <time>2021-04-03T13:41:58.592Z</time>
      </trkpt>
      <trkpt lat="45.58268" lon="5.50074">
        <ele>418</ele>
        <time>2021-04-03T13:41:59.593Z</time>
      </trkpt>
      <trkpt lat="45.5827" lon="5.50082">
        <ele>418</ele>
        <time>2021-04-03T13:42:00.593Z</time>
      </trkpt>
      <trkpt lat="45.58271" lon="5.50089">
        <ele>419</ele>
        <time>2021-04-03T13:42:01.592Z</time>
      </trkpt>
      <trkpt lat="45.58272" lon="5.50097">
        <ele>419</ele>
        <time>2021-04-03T13:42:02.592Z</time>
      </trkpt>
      <trkpt lat="45.58273" lon="5.50105">
        <ele>418</ele>
        <time>2021-04-03T13:42:03.592Z</time>
      </trkpt>
      <trkpt lat="45.58275" lon="5.50113">
        <ele>418</ele>
        <time>2021-04-03T13:42:04.593Z</time>
      </trkpt>
      <trkpt lat="45.58276" lon="5.50121">
        <ele>418</ele>
        <time>2021-04-03T13:42:05.593Z</time>
      </trkpt>
      <trkpt lat="45.58277" lon="5.50129">
        <ele>417</ele>
        <time>2021-04-03T13:42:06.593Z</time>
      </trkpt>
      <trkpt lat="45.58278" lon="5.50136">
        <ele>417</ele>
        <time>2021-04-03T13:42:07.592Z</time>
      </trkpt>
      <trkpt lat="45.5828" lon="5.50145">
        <ele>417</ele>
        <time>2021-04-03T13:42:08.592Z</time>
      </trkpt>
      <trkpt lat="45.58281" lon="5.50153">
        <ele>417</ele>
        <time>2021-04-03T13:42:09.593Z</time>
      </trkpt>
      <trkpt lat="45.58283" lon="5.50161">
        <ele>417</ele>
        <time>2021-04-03T13:42:10.593Z</time>
      </trkpt>
      <trkpt lat="45.58284" lon="5.50168">
        <ele>418</ele>
        <time>2021-04-03T13:42:11.593Z</time>
      </trkpt>
      <trkpt lat="45.58285" lon="5.50176">
        <ele>418</ele>
        <time>2021-04-03T13:42:12.593Z</time>
      </trkpt>
      <trkpt lat="45.58286" lon="5.50184">
        <ele>419</ele>
        <time>2021-04-03T13:42:13.592Z</time>
      </trkpt>
      <trkpt lat="45.58288" lon="5.50192">
        <ele>419</ele>
        <time>2021-04-03T13:42:14.593Z</time>
      </trkpt>
      <trkpt lat="45.58289" lon="5.502">
        <ele>419</ele>
        <time>2021-04-03T13:42:15.592Z</time>
      </trkpt>
      <trkpt lat="45.58291" lon="5.50208">
        <ele>419</ele>
        <time>2021-04-03T13:42:16.593Z</time>
      </trkpt>
      <trkpt lat="45.58292" lon="5.50216">
        <ele>419</ele>
        <time>2021-04-03T13:42:17.592Z</time>
      </trkpt>
      <trkpt lat="45.58293" lon="5.50224">
        <ele>419</ele>
        <time>2021-04-03T13:42:18.592Z</time>
      </trkpt>
      <trkpt lat="45.58295" lon="5.50233">
        <ele>419</ele>
        <time>2021-04-03T13:42:19.593Z</time>
      </trkpt>
      <trkpt lat="45.58296" lon="5.50241">
        <ele>419</ele>
        <time>2021-04-03T13:42:20.593Z</time>
      </trkpt>
      <trkpt lat="45.58298" lon="5.50249">
        <ele>419</ele>
        <time>2021-04-03T13:42:21.592Z</time>
      </trkpt>
      <trkpt lat="45.58299" lon="5.50255">
        <ele>419</ele>
        <time>2021-04-03T13:42:22.593Z</time>
      </trkpt>
      <trkpt lat="45.58301" lon="5.50264">
        <ele>420</ele>
        <time>2021-04-03T13:42:23.592Z</time>
      </trkpt>
      <trkpt lat="45.58303" lon="5.50272">
        <ele>420</ele>
        <time>2021-04-03T13:42:24.593Z</time>
      </trkpt>
      <trkpt lat="45.58304" lon="5.5028">
        <ele>420</ele>
        <time>2021-04-03T13:42:25.593Z</time>
      </trkpt>
      <trkpt lat="45.58306" lon="5.50287">
        <ele>419</ele>
        <time>2021-04-03T13:42:26.593Z</time>
      </trkpt>
      <trkpt lat="45.58308" lon="5.50295">
        <ele>418</ele>
        <time>2021-04-03T13:42:27.592Z</time>
      </trkpt>
      <trkpt lat="45.58309" lon="5.50303">
        <ele>418</ele>
        <time>2021-04-03T13:42:28.592Z</time>
      </trkpt>
      <trkpt lat="45.58311" lon="5.50311">
        <ele>418</ele>
        <time>2021-04-03T13:42:29.592Z</time>
      </trkpt>
      <trkpt lat="45.58313" lon="5.5032">
        <ele>418</ele>
        <time>2021-04-03T13:42:30.592Z</time>
      </trkpt>
      <trkpt lat="45.58315" lon="5.50328">
        <ele>419</ele>
        <time>2021-04-03T13:42:31.593Z</time>
      </trkpt>
      <trkpt lat="45.58317" lon="5.50335">
        <ele>418</ele>
        <time>2021-04-03T13:42:32.592Z</time>
      </trkpt>
      <trkpt lat="45.58318" lon="5.50343">
        <ele>418</ele>
        <time>2021-04-03T13:42:33.592Z</time>
      </trkpt>
      <trkpt lat="45.5832" lon="5.50351">
        <ele>418</ele>
        <time>2021-04-03T13:42:34.593Z</time>
      </trkpt>
      <trkpt lat="45.58322" lon="5.50359">
        <ele>418</ele>
        <time>2021-04-03T13:42:35.592Z</time>
      </trkpt>
      <trkpt lat="45.58323" lon="5.50367">
        <ele>418</ele>
        <time>2021-04-03T13:42:36.592Z</time>
      </trkpt>
      <trkpt lat="45.58325" lon="5.50374">
        <ele>419</ele>
        <time>2021-04-03T13:42:37.593Z</time>
      </trkpt>
      <trkpt lat="45.58327" lon="5.50382">
        <ele>419</ele>
        <time>2021-04-03T13:42:38.592Z</time>
      </trkpt>
      <trkpt lat="45.58329" lon="5.5039">
        <ele>419</ele>
        <time>2021-04-03T13:42:39.592Z</time>
      </trkpt>
      <trkpt lat="45.58331" lon="5.50397">
        <ele>419</ele>
        <time>2021-04-03T13:42:40.593Z</time>
      </trkpt>
      <trkpt lat="45.58332" lon="5.50405">
        <ele>419</ele>
        <time>2021-04-03T13:42:41.592Z</time>
      </trkpt>
      <trkpt lat="45.58334" lon="5.50412">
        <ele>418</ele>
        <time>2021-04-03T13:42:42.592Z</time>
      </trkpt>
      <trkpt lat="45.58336" lon="5.5042">
        <ele>418</ele>
        <time>2021-04-03T13:42:43.592Z</time>
      </trkpt>
      <trkpt lat="45.58337" lon="5.50428">
        <ele>417</ele>
        <time>2021-04-03T13:42:44.593Z</time>
      </trkpt>
      <trkpt lat="45.58339" lon="5.50436">
        <ele>417</ele>
        <time>2021-04-03T13:42:45.593Z</time>
      </trkpt>
      <trkpt lat="45.5834" lon="5.50443">
        <ele>417</ele>
        <time>2021-04-03T13:42:46.593Z</time>
      </trkpt>
      <trkpt lat="45.58341" lon="5.50451">
        <ele>417</ele>
        <time>2021-04-03T13:42:47.592Z</time>
      </trkpt>
      <trkpt lat="45.58343" lon="5.50459">
        <ele>418</ele>
        <time>2021-04-03T13:42:48.592Z</time>
      </trkpt>
      <trkpt lat="45.58345" lon="5.50467">
        <ele>418</ele>
        <time>2021-04-03T13:42:49.592Z</time>
      </trkpt>
      <trkpt lat="45.58346" lon="5.50476">
        <ele>419</ele>
        <time>2021-04-03T13:42:50.593Z</time>
      </trkpt>
      <trkpt lat="45.58347" lon="5.50484">
        <ele>419</ele>
        <time>2021-04-03T13:42:51.593Z</time>
      </trkpt>
      <trkpt lat="45.58349" lon="5.50493">
        <ele>419</ele>
        <time>2021-04-03T13:42:52.592Z</time>
      </trkpt>
      <trkpt lat="45.5835" lon="5.50501">
        <ele>419</ele>
        <time>2021-04-03T13:42:53.592Z</time>
      </trkpt>
      <trkpt lat="45.58351" lon="5.50509">
        <ele>420</ele>
        <time>2021-04-03T13:42:54.593Z</time>
      </trkpt>
      <trkpt lat="45.58353" lon="5.50517">
        <ele>420</ele>
        <time>2021-04-03T13:42:55.593Z</time>
      </trkpt>
      <trkpt lat="45.58354" lon="5.50526">
        <ele>420</ele>
        <time>2021-04-03T13:42:56.593Z</time>
      </trkpt>
      <trkpt lat="45.58355" lon="5.50534">
        <ele>421</ele>
        <time>2021-04-03T13:42:57.592Z</time>
      </trkpt>
      <trkpt lat="45.58357" lon="5.50542">
        <ele>420</ele>
        <time>2021-04-03T13:42:58.592Z</time>
      </trkpt>
      <trkpt lat="45.58358" lon="5.5055">
        <ele>420</ele>
        <time>2021-04-03T13:42:59.593Z</time>
      </trkpt>
      <trkpt lat="45.58359" lon="5.50558">
        <ele>420</ele>
        <time>2021-04-03T13:43:00.593Z</time>
      </trkpt>
      <trkpt lat="45.5836" lon="5.50566">
        <ele>420</ele>
        <time>2021-04-03T13:43:01.593Z</time>
      </trkpt>
      <trkpt lat="45.58361" lon="5.50573">
        <ele>419</ele>
        <time>2021-04-03T13:43:02.592Z</time>
      </trkpt>
      <trkpt lat="45.58362" lon="5.5058">
        <ele>420</ele>
        <time>2021-04-03T13:43:03.592Z</time>
      </trkpt>
      <trkpt lat="45.58363" lon="5.50587">
        <ele>419</ele>
        <time>2021-04-03T13:43:04.593Z</time>
      </trkpt>
      <trkpt lat="45.58364" lon="5.50592">
        <ele>419</ele>
        <time>2021-04-03T13:43:05.593Z</time>
      </trkpt>
      <trkpt lat="45.58365" lon="5.50597">
        <ele>419</ele>
        <time>2021-04-03T13:43:06.592Z</time>
      </trkpt>
      <trkpt lat="45.58366" lon="5.50601">
        <ele>420</ele>
        <time>2021-04-03T13:43:07.592Z</time>
      </trkpt>
      <trkpt lat="45.58368" lon="5.50606">
        <ele>420</ele>
        <time>2021-04-03T13:43:08.592Z</time>
      </trkpt>
      <trkpt lat="45.5837" lon="5.5061">
        <ele>420</ele>
        <time>2021-04-03T13:43:09.593Z</time>
      </trkpt>
      <trkpt lat="45.58373" lon="5.50611">
        <ele>420</ele>
        <time>2021-04-03T13:43:10.593Z</time>
      </trkpt>
      <trkpt lat="45.58377" lon="5.5061">
        <ele>420</ele>
        <time>2021-04-03T13:43:11.593Z</time>
      </trkpt>
      <trkpt lat="45.5838" lon="5.50608">
        <ele>420</ele>
        <time>2021-04-03T13:43:12.592Z</time>
      </trkpt>
      <trkpt lat="45.58382" lon="5.50602">
        <ele>419</ele>
        <time>2021-04-03T13:43:13.592Z</time>
      </trkpt>
      <trkpt lat="45.58384" lon="5.50596">
        <ele>419</ele>
        <time>2021-04-03T13:43:14.593Z</time>
      </trkpt>
      <trkpt lat="45.58386" lon="5.5059">
        <ele>420</ele>
        <time>2021-04-03T13:43:15.593Z</time>
      </trkpt>
      <trkpt lat="45.58387" lon="5.50583">
        <ele>419</ele>
        <time>2021-04-03T13:43:16.593Z</time>
      </trkpt>
      <trkpt lat="45.58389" lon="5.50576">
        <ele>419</ele>
        <time>2021-04-03T13:43:17.593Z</time>
      </trkpt>
      <trkpt lat="45.5839" lon="5.50568">
        <ele>419</ele>
        <time>2021-04-03T13:43:18.592Z</time>
      </trkpt>
      <trkpt lat="45.58391" lon="5.50561">
        <ele>419</ele>
        <time>2021-04-03T13:43:19.592Z</time>
      </trkpt>
      <trkpt lat="45.58393" lon="5.50554">
        <ele>420</ele>
        <time>2021-04-03T13:43:20.593Z</time>
      </trkpt>
      <trkpt lat="45.58394" lon="5.50545">
        <ele>420</ele>
        <time>2021-04-03T13:43:21.593Z</time>
      </trkpt>
      <trkpt lat="45.58396" lon="5.50536">
        <ele>420</ele>
        <time>2021-04-03T13:43:22.592Z</time>
      </trkpt>
      <trkpt lat="45.58397" lon="5.50528">
        <ele>421</ele>
        <time>2021-04-03T13:43:23.592Z</time>
      </trkpt>
      <trkpt lat="45.58398" lon="5.5052">
        <ele>421</ele>
        <time>2021-04-03T13:43:24.593Z</time>
      </trkpt>
      <trkpt lat="45.584" lon="5.50513">
        <ele>420</ele>
        <time>2021-04-03T13:43:25.592Z</time>
      </trkpt>
      <trkpt lat="45.58401" lon="5.50505">
        <ele>420</ele>
        <time>2021-04-03T13:43:26.593Z</time>
      </trkpt>
      <trkpt lat="45.58403" lon="5.50498">
        <ele>420</ele>
        <time>2021-04-03T13:43:27.592Z</time>
      </trkpt>
      <trkpt lat="45.58404" lon="5.50491">
        <ele>421</ele>
        <time>2021-04-03T13:43:28.592Z</time>
      </trkpt>
      <trkpt lat="45.58406" lon="5.50484">
        <ele>421</ele>
        <time>2021-04-03T13:43:29.593Z</time>
      </trkpt>
      <trkpt lat="45.58407" lon="5.50476">
        <ele>421</ele>
        <time>2021-04-03T13:43:30.593Z</time>
      </trkpt>
      <trkpt lat="45.58409" lon="5.50469">
        <ele>420</ele>
        <time>2021-04-03T13:43:31.592Z</time>
      </trkpt>
      <trkpt lat="45.5841" lon="5.50461">
        <ele>420</ele>
        <time>2021-04-03T13:43:32.592Z</time>
      </trkpt>
      <trkpt lat="45.58412" lon="5.50453">
        <ele>420</ele>
        <time>2021-04-03T13:43:33.592Z</time>
      </trkpt>
      <trkpt lat="45.58413" lon="5.50445">
        <ele>420</ele>
        <time>2021-04-03T13:43:34.593Z</time>
      </trkpt>
      <trkpt lat="45.58414" lon="5.50437">
        <ele>420</ele>
        <time>2021-04-03T13:43:35.593Z</time>
      </trkpt>
      <trkpt lat="45.58415" lon="5.50429">
        <ele>421</ele>
        <time>2021-04-03T13:43:36.592Z</time>
      </trkpt>
      <trkpt lat="45.58416" lon="5.50421">
        <ele>421</ele>
        <time>2021-04-03T13:43:37.592Z</time>
      </trkpt>
      <trkpt lat="45.58418" lon="5.50413">
        <ele>421</ele>
        <time>2021-04-03T13:43:38.593Z</time>
      </trkpt>
      <trkpt lat="45.58419" lon="5.50406">
        <ele>421</ele>
        <time>2021-04-03T13:43:39.593Z</time>
      </trkpt>
      <trkpt lat="45.5842" lon="5.50398">
        <ele>421</ele>
        <time>2021-04-03T13:43:40.593Z</time>
      </trkpt>
      <trkpt lat="45.58422" lon="5.5039">
        <ele>420</ele>
        <time>2021-04-03T13:43:41.592Z</time>
      </trkpt>
      <trkpt lat="45.58423" lon="5.50382">
        <ele>420</ele>
        <time>2021-04-03T13:43:42.592Z</time>
      </trkpt>
      <trkpt lat="45.58424" lon="5.50375">
        <ele>420</ele>
        <time>2021-04-03T13:43:43.592Z</time>
      </trkpt>
      <trkpt lat="45.58425" lon="5.50367">
        <ele>420</ele>
        <time>2021-04-03T13:43:44.593Z</time>
      </trkpt>
      <trkpt lat="45.58427" lon="5.5036">
        <ele>420</ele>
        <time>2021-04-03T13:43:45.593Z</time>
      </trkpt>
      <trkpt lat="45.58428" lon="5.50352">
        <ele>420</ele>
        <time>2021-04-03T13:43:46.592Z</time>
      </trkpt>
      <trkpt lat="45.58429" lon="5.50345">
        <ele>420</ele>
        <time>2021-04-03T13:43:47.592Z</time>
      </trkpt>
      <trkpt lat="45.58431" lon="5.50337">
        <ele>421</ele>
        <time>2021-04-03T13:43:48.592Z</time>
      </trkpt>
      <trkpt lat="45.58433" lon="5.5033">
        <ele>421</ele>
        <time>2021-04-03T13:43:49.592Z</time>
      </trkpt>
      <trkpt lat="45.58434" lon="5.50322">
        <ele>421</ele>
        <time>2021-04-03T13:43:50.592Z</time>
      </trkpt>
      <trkpt lat="45.58436" lon="5.50314">
        <ele>421</ele>
        <time>2021-04-03T13:43:51.592Z</time>
      </trkpt>
      <trkpt lat="45.58437" lon="5.50306">
        <ele>422</ele>
        <time>2021-04-03T13:43:52.592Z</time>
      </trkpt>
      <trkpt lat="45.58438" lon="5.50298">
        <ele>423</ele>
        <time>2021-04-03T13:43:53.593Z</time>
      </trkpt>
      <trkpt lat="45.5844" lon="5.50291">
        <ele>423</ele>
        <time>2021-04-03T13:43:54.593Z</time>
      </trkpt>
      <trkpt lat="45.58441" lon="5.50283">
        <ele>423</ele>
        <time>2021-04-03T13:43:55.592Z</time>
      </trkpt>
      <trkpt lat="45.58443" lon="5.50276">
        <ele>423</ele>
        <time>2021-04-03T13:43:56.593Z</time>
      </trkpt>
      <trkpt lat="45.58444" lon="5.50268">
        <ele>424</ele>
        <time>2021-04-03T13:43:57.593Z</time>
      </trkpt>
      <trkpt lat="45.58446" lon="5.50261">
        <ele>424</ele>
        <time>2021-04-03T13:43:58.592Z</time>
      </trkpt>
      <trkpt lat="45.58447" lon="5.50254">
        <ele>424</ele>
        <time>2021-04-03T13:43:59.592Z</time>
      </trkpt>
      <trkpt lat="45.58448" lon="5.50246">
        <ele>424</ele>
        <time>2021-04-03T13:44:00.593Z</time>
      </trkpt>
      <trkpt lat="45.58449" lon="5.50239">
        <ele>424</ele>
        <time>2021-04-03T13:44:01.593Z</time>
      </trkpt>
      <trkpt lat="45.5845" lon="5.50231">
        <ele>423</ele>
        <time>2021-04-03T13:44:02.592Z</time>
      </trkpt>
      <trkpt lat="45.58451" lon="5.50224">
        <ele>423</ele>
        <time>2021-04-03T13:44:03.593Z</time>
      </trkpt>
      <trkpt lat="45.58452" lon="5.50217">
        <ele>423</ele>
        <time>2021-04-03T13:44:04.593Z</time>
      </trkpt>
      <trkpt lat="45.58453" lon="5.5021">
        <ele>423</ele>
        <time>2021-04-03T13:44:05.593Z</time>
      </trkpt>
      <trkpt lat="45.58454" lon="5.50203">
        <ele>423</ele>
        <time>2021-04-03T13:44:06.592Z</time>
      </trkpt>
      <trkpt lat="45.58455" lon="5.50196">
        <ele>423</ele>
        <time>2021-04-03T13:44:07.593Z</time>
      </trkpt>
      <trkpt lat="45.58456" lon="5.50189">
        <ele>423</ele>
        <time>2021-04-03T13:44:08.593Z</time>
      </trkpt>
      <trkpt lat="45.58456" lon="5.50183">
        <ele>423</ele>
        <time>2021-04-03T13:44:09.593Z</time>
      </trkpt>
      <trkpt lat="45.58457" lon="5.50176">
        <ele>423</ele>
        <time>2021-04-03T13:44:10.593Z</time>
      </trkpt>
      <trkpt lat="45.58458" lon="5.5017">
        <ele>423</ele>
        <time>2021-04-03T13:44:11.593Z</time>
      </trkpt>
      <trkpt lat="45.58459" lon="5.50164">
        <ele>423</ele>
        <time>2021-04-03T13:44:12.592Z</time>
      </trkpt>
      <trkpt lat="45.58459" lon="5.50158">
        <ele>424</ele>
        <time>2021-04-03T13:44:13.593Z</time>
      </trkpt>
      <trkpt lat="45.5846" lon="5.50152">
        <ele>424</ele>
        <time>2021-04-03T13:44:14.593Z</time>
      </trkpt>
      <trkpt lat="45.58461" lon="5.50146">
        <ele>424</ele>
        <time>2021-04-03T13:44:15.592Z</time>
      </trkpt>
      <trkpt lat="45.58461" lon="5.5014">
        <ele>425</ele>
        <time>2021-04-03T13:44:16.592Z</time>
      </trkpt>
      <trkpt lat="45.58462" lon="5.50134">
        <ele>425</ele>
        <time>2021-04-03T13:44:17.592Z</time>
      </trkpt>
      <trkpt lat="45.58463" lon="5.50127">
        <ele>426</ele>
        <time>2021-04-03T13:44:18.593Z</time>
      </trkpt>
      <trkpt lat="45.58463" lon="5.50121">
        <ele>426</ele>
        <time>2021-04-03T13:44:19.593Z</time>
      </trkpt>
      <trkpt lat="45.58464" lon="5.50115">
        <ele>426</ele>
        <time>2021-04-03T13:44:20.592Z</time>
      </trkpt>
      <trkpt lat="45.58465" lon="5.50109">
        <ele>427</ele>
        <time>2021-04-03T13:44:21.593Z</time>
      </trkpt>
      <trkpt lat="45.58466" lon="5.50102">
        <ele>427</ele>
        <time>2021-04-03T13:44:22.592Z</time>
      </trkpt>
      <trkpt lat="45.58466" lon="5.50096">
        <ele>427</ele>
        <time>2021-04-03T13:44:23.592Z</time>
      </trkpt>
      <trkpt lat="45.58467" lon="5.5009">
        <ele>428</ele>
        <time>2021-04-03T13:44:24.593Z</time>
      </trkpt>
      <trkpt lat="45.58468" lon="5.50084">
        <ele>428</ele>
        <time>2021-04-03T13:44:25.593Z</time>
      </trkpt>
      <trkpt lat="45.58469" lon="5.50078">
        <ele>427</ele>
        <time>2021-04-03T13:44:26.593Z</time>
      </trkpt>
      <trkpt lat="45.58469" lon="5.50072">
        <ele>427</ele>
        <time>2021-04-03T13:44:27.593Z</time>
      </trkpt>
      <trkpt lat="45.5847" lon="5.50066">
        <ele>427</ele>
        <time>2021-04-03T13:44:28.593Z</time>
      </trkpt>
      <trkpt lat="45.5847" lon="5.5006">
        <ele>427</ele>
        <time>2021-04-03T13:44:29.593Z</time>
      </trkpt>
      <trkpt lat="45.58471" lon="5.50054">
        <ele>427</ele>
        <time>2021-04-03T13:44:30.593Z</time>
      </trkpt>
      <trkpt lat="45.58472" lon="5.50048">
        <ele>427</ele>
        <time>2021-04-03T13:44:31.593Z</time>
      </trkpt>
      <trkpt lat="45.58472" lon="5.50042">
        <ele>428</ele>
        <time>2021-04-03T13:44:32.592Z</time>
      </trkpt>
      <trkpt lat="45.58473" lon="5.50037">
        <ele>428</ele>
        <time>2021-04-03T13:44:33.593Z</time>
      </trkpt>
      <trkpt lat="45.58474" lon="5.50031">
        <ele>428</ele>
        <time>2021-04-03T13:44:34.593Z</time>
      </trkpt>
      <trkpt lat="45.58475" lon="5.50025">
        <ele>427</ele>
        <time>2021-04-03T13:44:35.593Z</time>
      </trkpt>
      <trkpt lat="45.58476" lon="5.5002">
        <ele>426</ele>
        <time>2021-04-03T13:44:36.593Z</time>
      </trkpt>
      <trkpt lat="45.58477" lon="5.50014">
        <ele>426</ele>
        <time>2021-04-03T13:44:37.593Z</time>
      </trkpt>
      <trkpt lat="45.58478" lon="5.50007">
        <ele>425</ele>
        <time>2021-04-03T13:44:38.593Z</time>
      </trkpt>
      <trkpt lat="45.58479" lon="5.50001">
        <ele>425</ele>
        <time>2021-04-03T13:44:39.592Z</time>
      </trkpt>
      <trkpt lat="45.58481" lon="5.49994">
        <ele>425</ele>
        <time>2021-04-03T13:44:40.593Z</time>
      </trkpt>
      <trkpt lat="45.58482" lon="5.49988">
        <ele>424</ele>
        <time>2021-04-03T13:44:41.593Z</time>
      </trkpt>
      <trkpt lat="45.58484" lon="5.49981">
        <ele>424</ele>
        <time>2021-04-03T13:44:42.593Z</time>
      </trkpt>
      <trkpt lat="45.58485" lon="5.49975">
        <ele>424</ele>
        <time>2021-04-03T13:44:43.592Z</time>
      </trkpt>
      <trkpt lat="45.58487" lon="5.49969">
        <ele>424</ele>
        <time>2021-04-03T13:44:44.593Z</time>
      </trkpt>
      <trkpt lat="45.58489" lon="5.49964">
        <ele>424</ele>
        <time>2021-04-03T13:44:45.593Z</time>
      </trkpt>
      <trkpt lat="45.58491" lon="5.49959">
        <ele>424</ele>
        <time>2021-04-03T13:44:46.593Z</time>
      </trkpt>
      <trkpt lat="45.58493" lon="5.49954">
        <ele>424</ele>
        <time>2021-04-03T13:44:47.593Z</time>
      </trkpt>
      <trkpt lat="45.58494" lon="5.49949">
        <ele>424</ele>
        <time>2021-04-03T13:44:48.593Z</time>
      </trkpt>
      <trkpt lat="45.58496" lon="5.49944">
        <ele>424</ele>
        <time>2021-04-03T13:44:49.593Z</time>
      </trkpt>
      <trkpt lat="45.58498" lon="5.49938">
        <ele>425</ele>
        <time>2021-04-03T13:44:50.593Z</time>
      </trkpt>
      <trkpt lat="45.585" lon="5.49932">
        <ele>425</ele>
        <time>2021-04-03T13:44:51.592Z</time>
      </trkpt>
      <trkpt lat="45.58501" lon="5.49926">
        <ele>426</ele>
        <time>2021-04-03T13:44:52.592Z</time>
      </trkpt>
      <trkpt lat="45.58503" lon="5.4992">
        <ele>426</ele>
        <time>2021-04-03T13:44:53.593Z</time>
      </trkpt>
      <trkpt lat="45.58505" lon="5.49914">
        <ele>426</ele>
        <time>2021-04-03T13:44:54.593Z</time>
      </trkpt>
      <trkpt lat="45.58507" lon="5.49907">
        <ele>426</ele>
        <time>2021-04-03T13:44:55.593Z</time>
      </trkpt>
      <trkpt lat="45.58509" lon="5.49901">
        <ele>425</ele>
        <time>2021-04-03T13:44:56.592Z</time>
      </trkpt>
      <trkpt lat="45.58511" lon="5.49895">
        <ele>425</ele>
        <time>2021-04-03T13:44:57.593Z</time>
      </trkpt>
      <trkpt lat="45.58513" lon="5.49889">
        <ele>425</ele>
        <time>2021-04-03T13:44:58.593Z</time>
      </trkpt>
      <trkpt lat="45.58515" lon="5.49882">
        <ele>425</ele>
        <time>2021-04-03T13:44:59.592Z</time>
      </trkpt>
      <trkpt lat="45.58517" lon="5.49876">
        <ele>426</ele>
        <time>2021-04-03T13:45:00.593Z</time>
      </trkpt>
      <trkpt lat="45.58519" lon="5.4987">
        <ele>426</ele>
        <time>2021-04-03T13:45:01.593Z</time>
      </trkpt>
      <trkpt lat="45.58521" lon="5.49863">
        <ele>426</ele>
        <time>2021-04-03T13:45:02.592Z</time>
      </trkpt>
      <trkpt lat="45.58523" lon="5.49856">
        <ele>426</ele>
        <time>2021-04-03T13:45:03.593Z</time>
      </trkpt>
      <trkpt lat="45.58524" lon="5.49849">
        <ele>426</ele>
        <time>2021-04-03T13:45:04.593Z</time>
      </trkpt>
      <trkpt lat="45.58526" lon="5.49842">
        <ele>426</ele>
        <time>2021-04-03T13:45:05.593Z</time>
      </trkpt>
      <trkpt lat="45.58528" lon="5.49836">
        <ele>426</ele>
        <time>2021-04-03T13:45:06.592Z</time>
      </trkpt>
      <trkpt lat="45.5853" lon="5.49829">
        <ele>426</ele>
        <time>2021-04-03T13:45:07.592Z</time>
      </trkpt>
      <trkpt lat="45.58532" lon="5.49822">
        <ele>426</ele>
        <time>2021-04-03T13:45:08.592Z</time>
      </trkpt>
      <trkpt lat="45.58533" lon="5.49815">
        <ele>426</ele>
        <time>2021-04-03T13:45:09.592Z</time>
      </trkpt>
      <trkpt lat="45.58535" lon="5.49808">
        <ele>426</ele>
        <time>2021-04-03T13:45:10.593Z</time>
      </trkpt>
      <trkpt lat="45.58537" lon="5.49802">
        <ele>425</ele>
        <time>2021-04-03T13:45:11.593Z</time>
      </trkpt>
      <trkpt lat="45.58539" lon="5.49794">
        <ele>425</ele>
        <time>2021-04-03T13:45:12.592Z</time>
      </trkpt>
      <trkpt lat="45.58541" lon="5.49787">
        <ele>426</ele>
        <time>2021-04-03T13:45:13.593Z</time>
      </trkpt>
      <trkpt lat="45.58543" lon="5.49781">
        <ele>426</ele>
        <time>2021-04-03T13:45:14.593Z</time>
      </trkpt>
      <trkpt lat="45.58544" lon="5.49774">
        <ele>425</ele>
        <time>2021-04-03T13:45:15.593Z</time>
      </trkpt>
      <trkpt lat="45.58546" lon="5.49768">
        <ele>426</ele>
        <time>2021-04-03T13:45:16.592Z</time>
      </trkpt>
      <trkpt lat="45.58548" lon="5.49761">
        <ele>426</ele>
        <time>2021-04-03T13:45:17.593Z</time>
      </trkpt>
      <trkpt lat="45.58549" lon="5.49755">
        <ele>426</ele>
        <time>2021-04-03T13:45:18.593Z</time>
      </trkpt>
      <trkpt lat="45.58551" lon="5.49748">
        <ele>426</ele>
        <time>2021-04-03T13:45:19.593Z</time>
      </trkpt>
      <trkpt lat="45.58552" lon="5.49741">
        <ele>426</ele>
        <time>2021-04-03T13:45:20.592Z</time>
      </trkpt>
      <trkpt lat="45.58554" lon="5.49734">
        <ele>426</ele>
        <time>2021-04-03T13:45:21.593Z</time>
      </trkpt>
      <trkpt lat="45.58555" lon="5.49727">
        <ele>426</ele>
        <time>2021-04-03T13:45:22.593Z</time>
      </trkpt>
      <trkpt lat="45.58557" lon="5.49719">
        <ele>425</ele>
        <time>2021-04-03T13:45:23.593Z</time>
      </trkpt>
      <trkpt lat="45.58558" lon="5.49711">
        <ele>425</ele>
        <time>2021-04-03T13:45:24.593Z</time>
      </trkpt>
      <trkpt lat="45.5856" lon="5.49703">
        <ele>425</ele>
        <time>2021-04-03T13:45:25.593Z</time>
      </trkpt>
      <trkpt lat="45.58561" lon="5.49695">
        <ele>425</ele>
        <time>2021-04-03T13:45:26.593Z</time>
      </trkpt>
      <trkpt lat="45.58563" lon="5.49687">
        <ele>425</ele>
        <time>2021-04-03T13:45:27.593Z</time>
      </trkpt>
      <trkpt lat="45.58564" lon="5.49679">
        <ele>425</ele>
        <time>2021-04-03T13:45:28.592Z</time>
      </trkpt>
      <trkpt lat="45.58566" lon="5.49671">
        <ele>425</ele>
        <time>2021-04-03T13:45:29.593Z</time>
      </trkpt>
      <trkpt lat="45.58567" lon="5.49662">
        <ele>425</ele>
        <time>2021-04-03T13:45:30.593Z</time>
      </trkpt>
      <trkpt lat="45.58569" lon="5.49654">
        <ele>425</ele>
        <time>2021-04-03T13:45:31.593Z</time>
      </trkpt>
      <trkpt lat="45.5857" lon="5.49646">
        <ele>424</ele>
        <time>2021-04-03T13:45:32.593Z</time>
      </trkpt>
      <trkpt lat="45.58572" lon="5.49638">
        <ele>424</ele>
        <time>2021-04-03T13:45:33.592Z</time>
      </trkpt>
      <trkpt lat="45.58573" lon="5.4963">
        <ele>424</ele>
        <time>2021-04-03T13:45:34.593Z</time>
      </trkpt>
      <trkpt lat="45.58575" lon="5.49622">
        <ele>424</ele>
        <time>2021-04-03T13:45:35.593Z</time>
      </trkpt>
      <trkpt lat="45.58577" lon="5.49614">
        <ele>424</ele>
        <time>2021-04-03T13:45:36.593Z</time>
      </trkpt>
      <trkpt lat="45.58578" lon="5.49605">
        <ele>423</ele>
        <time>2021-04-03T13:45:37.593Z</time>
      </trkpt>
      <trkpt lat="45.5858" lon="5.49596">
        <ele>422</ele>
        <time>2021-04-03T13:45:38.593Z</time>
      </trkpt>
      <trkpt lat="45.58582" lon="5.49586">
        <ele>422</ele>
        <time>2021-04-03T13:45:39.593Z</time>
      </trkpt>
      <trkpt lat="45.58584" lon="5.49577">
        <ele>422</ele>
        <time>2021-04-03T13:45:40.593Z</time>
      </trkpt>
      <trkpt lat="45.58586" lon="5.49567">
        <ele>422</ele>
        <time>2021-04-03T13:45:41.592Z</time>
      </trkpt>
      <trkpt lat="45.58587" lon="5.49556">
        <ele>422</ele>
        <time>2021-04-03T13:45:42.592Z</time>
      </trkpt>
      <trkpt lat="45.58589" lon="5.49545">
        <ele>422</ele>
        <time>2021-04-03T13:45:43.593Z</time>
      </trkpt>
      <trkpt lat="45.58591" lon="5.49535">
        <ele>422</ele>
        <time>2021-04-03T13:45:44.592Z</time>
      </trkpt>
      <trkpt lat="45.58593" lon="5.49525">
        <ele>421</ele>
        <time>2021-04-03T13:45:45.592Z</time>
      </trkpt>
      <trkpt lat="45.58595" lon="5.49515">
        <ele>421</ele>
        <time>2021-04-03T13:45:46.593Z</time>
      </trkpt>
      <trkpt lat="45.58596" lon="5.49505">
        <ele>421</ele>
        <time>2021-04-03T13:45:47.593Z</time>
      </trkpt>
      <trkpt lat="45.58598" lon="5.49495">
        <ele>421</ele>
        <time>2021-04-03T13:45:48.593Z</time>
      </trkpt>
      <trkpt lat="45.586" lon="5.49485">
        <ele>420</ele>
        <time>2021-04-03T13:45:49.593Z</time>
      </trkpt>
      <trkpt lat="45.58602" lon="5.49475">
        <ele>420</ele>
        <time>2021-04-03T13:45:50.593Z</time>
      </trkpt>
      <trkpt lat="45.58603" lon="5.49464">
        <ele>420</ele>
        <time>2021-04-03T13:45:51.592Z</time>
      </trkpt>
      <trkpt lat="45.58605" lon="5.49454">
        <ele>419</ele>
        <time>2021-04-03T13:45:52.592Z</time>
      </trkpt>
      <trkpt lat="45.58607" lon="5.49445">
        <ele>419</ele>
        <time>2021-04-03T13:45:53.593Z</time>
      </trkpt>
      <trkpt lat="45.58608" lon="5.49437">
        <ele>418</ele>
        <time>2021-04-03T13:45:54.593Z</time>
      </trkpt>
      <trkpt lat="45.5861" lon="5.49425">
        <ele>417</ele>
        <time>2021-04-03T13:45:55.593Z</time>
      </trkpt>
      <trkpt lat="45.58612" lon="5.49415">
        <ele>417</ele>
        <time>2021-04-03T13:45:56.593Z</time>
      </trkpt>
      <trkpt lat="45.58613" lon="5.49407">
        <ele>417</ele>
        <time>2021-04-03T13:45:57.592Z</time>
      </trkpt>
      <trkpt lat="45.58615" lon="5.49396">
        <ele>416</ele>
        <time>2021-04-03T13:45:58.593Z</time>
      </trkpt>
      <trkpt lat="45.58617" lon="5.49387">
        <ele>416</ele>
        <time>2021-04-03T13:45:59.593Z</time>
      </trkpt>
      <trkpt lat="45.58619" lon="5.49377">
        <ele>416</ele>
        <time>2021-04-03T13:46:00.593Z</time>
      </trkpt>
      <trkpt lat="45.5862" lon="5.49368">
        <ele>416</ele>
        <time>2021-04-03T13:46:01.593Z</time>
      </trkpt>
      <trkpt lat="45.58622" lon="5.49359">
        <ele>417</ele>
        <time>2021-04-03T13:46:02.592Z</time>
      </trkpt>
      <trkpt lat="45.58624" lon="5.4935">
        <ele>417</ele>
        <time>2021-04-03T13:46:03.592Z</time>
      </trkpt>
      <trkpt lat="45.58625" lon="5.49342">
        <ele>417</ele>
        <time>2021-04-03T13:46:04.593Z</time>
      </trkpt>
      <trkpt lat="45.58627" lon="5.49333">
        <ele>417</ele>
        <time>2021-04-03T13:46:05.592Z</time>
      </trkpt>
      <trkpt lat="45.58629" lon="5.49325">
        <ele>418</ele>
        <time>2021-04-03T13:46:06.592Z</time>
      </trkpt>
      <trkpt lat="45.5863" lon="5.49316">
        <ele>418</ele>
        <time>2021-04-03T13:46:07.593Z</time>
      </trkpt>
      <trkpt lat="45.58632" lon="5.49309">
        <ele>419</ele>
        <time>2021-04-03T13:46:08.593Z</time>
      </trkpt>
      <trkpt lat="45.58634" lon="5.493">
        <ele>419</ele>
        <time>2021-04-03T13:46:09.593Z</time>
      </trkpt>
      <trkpt lat="45.58636" lon="5.49292">
        <ele>420</ele>
        <time>2021-04-03T13:46:10.593Z</time>
      </trkpt>
      <trkpt lat="45.58638" lon="5.49284">
        <ele>420</ele>
        <time>2021-04-03T13:46:11.593Z</time>
      </trkpt>
      <trkpt lat="45.5864" lon="5.49276">
        <ele>420</ele>
        <time>2021-04-03T13:46:12.593Z</time>
      </trkpt>
      <trkpt lat="45.58642" lon="5.49268">
        <ele>420</ele>
        <time>2021-04-03T13:46:13.593Z</time>
      </trkpt>
      <trkpt lat="45.58645" lon="5.49261">
        <ele>420</ele>
        <time>2021-04-03T13:46:14.593Z</time>
      </trkpt>
      <trkpt lat="45.58647" lon="5.49252">
        <ele>420</ele>
        <time>2021-04-03T13:46:15.593Z</time>
      </trkpt>
      <trkpt lat="45.58649" lon="5.49244">
        <ele>420</ele>
        <time>2021-04-03T13:46:16.593Z</time>
      </trkpt>
      <trkpt lat="45.58652" lon="5.49237">
        <ele>420</ele>
        <time>2021-04-03T13:46:17.592Z</time>
      </trkpt>
      <trkpt lat="45.58655" lon="5.49229">
        <ele>420</ele>
        <time>2021-04-03T13:46:18.592Z</time>
      </trkpt>
      <trkpt lat="45.58658" lon="5.49221">
        <ele>420</ele>
        <time>2021-04-03T13:46:19.592Z</time>
      </trkpt>
      <trkpt lat="45.58661" lon="5.49214">
        <ele>419</ele>
        <time>2021-04-03T13:46:20.592Z</time>
      </trkpt>
      <trkpt lat="45.58664" lon="5.49207">
        <ele>419</ele>
        <time>2021-04-03T13:46:21.592Z</time>
      </trkpt>
      <trkpt lat="45.58667" lon="5.49197">
        <ele>419</ele>
        <time>2021-04-03T13:46:22.593Z</time>
      </trkpt>
      <trkpt lat="45.58669" lon="5.49189">
        <ele>418</ele>
        <time>2021-04-03T13:46:23.593Z</time>
      </trkpt>
      <trkpt lat="45.58672" lon="5.49181">
        <ele>418</ele>
        <time>2021-04-03T13:46:24.593Z</time>
      </trkpt>
      <trkpt lat="45.58675" lon="5.49173">
        <ele>418</ele>
        <time>2021-04-03T13:46:25.593Z</time>
      </trkpt>
      <trkpt lat="45.58678" lon="5.49166">
        <ele>417</ele>
        <time>2021-04-03T13:46:26.592Z</time>
      </trkpt>
      <trkpt lat="45.5868" lon="5.49158">
        <ele>417</ele>
        <time>2021-04-03T13:46:27.593Z</time>
      </trkpt>
      <trkpt lat="45.58683" lon="5.49151">
        <ele>417</ele>
        <time>2021-04-03T13:46:28.593Z</time>
      </trkpt>
      <trkpt lat="45.58686" lon="5.49143">
        <ele>417</ele>
        <time>2021-04-03T13:46:29.593Z</time>
      </trkpt>
      <trkpt lat="45.58689" lon="5.49136">
        <ele>417</ele>
        <time>2021-04-03T13:46:30.593Z</time>
      </trkpt>
      <trkpt lat="45.58692" lon="5.49128">
        <ele>417</ele>
        <time>2021-04-03T13:46:31.593Z</time>
      </trkpt>
      <trkpt lat="45.58695" lon="5.4912">
        <ele>417</ele>
        <time>2021-04-03T13:46:32.593Z</time>
      </trkpt>
      <trkpt lat="45.58698" lon="5.49112">
        <ele>417</ele>
        <time>2021-04-03T13:46:33.593Z</time>
      </trkpt>
      <trkpt lat="45.58701" lon="5.49104">
        <ele>418</ele>
        <time>2021-04-03T13:46:34.593Z</time>
      </trkpt>
      <trkpt lat="45.58704" lon="5.49095">
        <ele>418</ele>
        <time>2021-04-03T13:46:35.592Z</time>
      </trkpt>
      <trkpt lat="45.58707" lon="5.49086">
        <ele>418</ele>
        <time>2021-04-03T13:46:36.593Z</time>
      </trkpt>
      <trkpt lat="45.5871" lon="5.49077">
        <ele>418</ele>
        <time>2021-04-03T13:46:37.593Z</time>
      </trkpt>
      <trkpt lat="45.58713" lon="5.49067">
        <ele>418</ele>
        <time>2021-04-03T13:46:38.593Z</time>
      </trkpt>
      <trkpt lat="45.58716" lon="5.49057">
        <ele>417</ele>
        <time>2021-04-03T13:46:39.593Z</time>
      </trkpt>
      <trkpt lat="45.58719" lon="5.49046">
        <ele>417</ele>
        <time>2021-04-03T13:46:40.593Z</time>
      </trkpt>
      <trkpt lat="45.58721" lon="5.49035">
        <ele>416</ele>
        <time>2021-04-03T13:46:41.592Z</time>
      </trkpt>
      <trkpt lat="45.58724" lon="5.49025">
        <ele>415</ele>
        <time>2021-04-03T13:46:42.592Z</time>
      </trkpt>
      <trkpt lat="45.58727" lon="5.49013">
        <ele>415</ele>
        <time>2021-04-03T13:46:43.593Z</time>
      </trkpt>
      <trkpt lat="45.58729" lon="5.49002">
        <ele>414</ele>
        <time>2021-04-03T13:46:44.593Z</time>
      </trkpt>
      <trkpt lat="45.58732" lon="5.4899">
        <ele>413</ele>
        <time>2021-04-03T13:46:45.593Z</time>
      </trkpt>
      <trkpt lat="45.58734" lon="5.48978">
        <ele>412</ele>
        <time>2021-04-03T13:46:46.592Z</time>
      </trkpt>
      <trkpt lat="45.58736" lon="5.48966">
        <ele>412</ele>
        <time>2021-04-03T13:46:47.592Z</time>
      </trkpt>
      <trkpt lat="45.58739" lon="5.48954">
        <ele>411</ele>
        <time>2021-04-03T13:46:48.593Z</time>
      </trkpt>
      <trkpt lat="45.58741" lon="5.48941">
        <ele>410</ele>
        <time>2021-04-03T13:46:49.593Z</time>
      </trkpt>
      <trkpt lat="45.58743" lon="5.48928">
        <ele>409</ele>
        <time>2021-04-03T13:46:50.592Z</time>
      </trkpt>
      <trkpt lat="45.58746" lon="5.48916">
        <ele>408</ele>
        <time>2021-04-03T13:46:51.593Z</time>
      </trkpt>
      <trkpt lat="45.58748" lon="5.48903">
        <ele>407</ele>
        <time>2021-04-03T13:46:52.593Z</time>
      </trkpt>
      <trkpt lat="45.58751" lon="5.4889">
        <ele>406</ele>
        <time>2021-04-03T13:46:53.592Z</time>
      </trkpt>
      <trkpt lat="45.58753" lon="5.48878">
        <ele>406</ele>
        <time>2021-04-03T13:46:54.593Z</time>
      </trkpt>
      <trkpt lat="45.58756" lon="5.48865">
        <ele>405</ele>
        <time>2021-04-03T13:46:55.592Z</time>
      </trkpt>
      <trkpt lat="45.58758" lon="5.48852">
        <ele>405</ele>
        <time>2021-04-03T13:46:56.592Z</time>
      </trkpt>
      <trkpt lat="45.5876" lon="5.48842">
        <ele>405</ele>
        <time>2021-04-03T13:46:57.593Z</time>
      </trkpt>
      <trkpt lat="45.58763" lon="5.48827">
        <ele>405</ele>
        <time>2021-04-03T13:46:58.593Z</time>
      </trkpt>
      <trkpt lat="45.58766" lon="5.48815">
        <ele>405</ele>
        <time>2021-04-03T13:46:59.593Z</time>
      </trkpt>
      <trkpt lat="45.58768" lon="5.48803">
        <ele>405</ele>
        <time>2021-04-03T13:47:00.593Z</time>
      </trkpt>
      <trkpt lat="45.5877" lon="5.48794">
        <ele>405</ele>
        <time>2021-04-03T13:47:01.593Z</time>
      </trkpt>
      <trkpt lat="45.58772" lon="5.48779">
        <ele>405</ele>
        <time>2021-04-03T13:47:02.593Z</time>
      </trkpt>
      <trkpt lat="45.58774" lon="5.48767">
        <ele>405</ele>
        <time>2021-04-03T13:47:03.593Z</time>
      </trkpt>
      <trkpt lat="45.58777" lon="5.48756">
        <ele>405</ele>
        <time>2021-04-03T13:47:04.593Z</time>
      </trkpt>
      <trkpt lat="45.58779" lon="5.48745">
        <ele>406</ele>
        <time>2021-04-03T13:47:05.593Z</time>
      </trkpt>
      <trkpt lat="45.58781" lon="5.48736">
        <ele>407</ele>
        <time>2021-04-03T13:47:06.593Z</time>
      </trkpt>
      <trkpt lat="45.58783" lon="5.48723">
        <ele>407</ele>
        <time>2021-04-03T13:47:07.593Z</time>
      </trkpt>
      <trkpt lat="45.58785" lon="5.48712">
        <ele>406</ele>
        <time>2021-04-03T13:47:08.592Z</time>
      </trkpt>
      <trkpt lat="45.58787" lon="5.48701">
        <ele>406</ele>
        <time>2021-04-03T13:47:09.593Z</time>
      </trkpt>
      <trkpt lat="45.58789" lon="5.48692">
        <ele>406</ele>
        <time>2021-04-03T13:47:10.593Z</time>
      </trkpt>
      <trkpt lat="45.58791" lon="5.48679">
        <ele>406</ele>
        <time>2021-04-03T13:47:11.592Z</time>
      </trkpt>
      <trkpt lat="45.58794" lon="5.48668">
        <ele>406</ele>
        <time>2021-04-03T13:47:12.592Z</time>
      </trkpt>
      <trkpt lat="45.58796" lon="5.48657">
        <ele>406</ele>
        <time>2021-04-03T13:47:13.592Z</time>
      </trkpt>
      <trkpt lat="45.58797" lon="5.48649">
        <ele>405</ele>
        <time>2021-04-03T13:47:14.592Z</time>
      </trkpt>
      <trkpt lat="45.58799" lon="5.48638">
        <ele>405</ele>
        <time>2021-04-03T13:47:15.592Z</time>
      </trkpt>
      <trkpt lat="45.58802" lon="5.48625">
        <ele>405</ele>
        <time>2021-04-03T13:47:16.593Z</time>
      </trkpt>
      <trkpt lat="45.58804" lon="5.48615">
        <ele>405</ele>
        <time>2021-04-03T13:47:17.592Z</time>
      </trkpt>
      <trkpt lat="45.58806" lon="5.48604">
        <ele>405</ele>
        <time>2021-04-03T13:47:18.593Z</time>
      </trkpt>
      <trkpt lat="45.58807" lon="5.48596">
        <ele>405</ele>
        <time>2021-04-03T13:47:19.592Z</time>
      </trkpt>
      <trkpt lat="45.5881" lon="5.48584">
        <ele>404</ele>
        <time>2021-04-03T13:47:20.593Z</time>
      </trkpt>
      <trkpt lat="45.58812" lon="5.48574">
        <ele>404</ele>
        <time>2021-04-03T13:47:21.593Z</time>
      </trkpt>
      <trkpt lat="45.58814" lon="5.48564">
        <ele>403</ele>
        <time>2021-04-03T13:47:22.593Z</time>
      </trkpt>
      <trkpt lat="45.58815" lon="5.48556">
        <ele>403</ele>
        <time>2021-04-03T13:47:23.592Z</time>
      </trkpt>
      <trkpt lat="45.58817" lon="5.48547">
        <ele>403</ele>
        <time>2021-04-03T13:47:24.592Z</time>
      </trkpt>
      <trkpt lat="45.58819" lon="5.48535">
        <ele>403</ele>
        <time>2021-04-03T13:47:25.593Z</time>
      </trkpt>
      <trkpt lat="45.58821" lon="5.48526">
        <ele>403</ele>
        <time>2021-04-03T13:47:26.593Z</time>
      </trkpt>
      <trkpt lat="45.58823" lon="5.48517">
        <ele>403</ele>
        <time>2021-04-03T13:47:27.593Z</time>
      </trkpt>
      <trkpt lat="45.58825" lon="5.48509">
        <ele>403</ele>
        <time>2021-04-03T13:47:28.593Z</time>
      </trkpt>
      <trkpt lat="45.58827" lon="5.48499">
        <ele>403</ele>
        <time>2021-04-03T13:47:29.593Z</time>
      </trkpt>
      <trkpt lat="45.58828" lon="5.48491">
        <ele>402</ele>
        <time>2021-04-03T13:47:30.593Z</time>
      </trkpt>
      <trkpt lat="45.5883" lon="5.48483">
        <ele>402</ele>
        <time>2021-04-03T13:47:31.593Z</time>
      </trkpt>
      <trkpt lat="45.58831" lon="5.48476">
        <ele>401</ele>
        <time>2021-04-03T13:47:32.593Z</time>
      </trkpt>
      <trkpt lat="45.58832" lon="5.48469">
        <ele>401</ele>
        <time>2021-04-03T13:47:33.593Z</time>
      </trkpt>
      <trkpt lat="45.58834" lon="5.4846">
        <ele>400</ele>
        <time>2021-04-03T13:47:34.593Z</time>
      </trkpt>
      <trkpt lat="45.58835" lon="5.48453">
        <ele>399</ele>
        <time>2021-04-03T13:47:35.592Z</time>
      </trkpt>
      <trkpt lat="45.58836" lon="5.48446">
        <ele>399</ele>
        <time>2021-04-03T13:47:36.592Z</time>
      </trkpt>
      <trkpt lat="45.58837" lon="5.4844">
        <ele>399</ele>
        <time>2021-04-03T13:47:37.593Z</time>
      </trkpt>
      <trkpt lat="45.58839" lon="5.48431">
        <ele>399</ele>
        <time>2021-04-03T13:47:38.593Z</time>
      </trkpt>
      <trkpt lat="45.5884" lon="5.48425">
        <ele>399</ele>
        <time>2021-04-03T13:47:39.592Z</time>
      </trkpt>
      <trkpt lat="45.58842" lon="5.48418">
        <ele>399</ele>
        <time>2021-04-03T13:47:40.593Z</time>
      </trkpt>
      <trkpt lat="45.58844" lon="5.48412">
        <ele>399</ele>
        <time>2021-04-03T13:47:41.593Z</time>
      </trkpt>
      <trkpt lat="45.58845" lon="5.48404">
        <ele>400</ele>
        <time>2021-04-03T13:47:42.592Z</time>
      </trkpt>
      <trkpt lat="45.58847" lon="5.48397">
        <ele>400</ele>
        <time>2021-04-03T13:47:43.592Z</time>
      </trkpt>
      <trkpt lat="45.58849" lon="5.4839">
        <ele>400</ele>
        <time>2021-04-03T13:47:44.593Z</time>
      </trkpt>
      <trkpt lat="45.5885" lon="5.48384">
        <ele>400</ele>
        <time>2021-04-03T13:47:45.593Z</time>
      </trkpt>
      <trkpt lat="45.58851" lon="5.48376">
        <ele>401</ele>
        <time>2021-04-03T13:47:46.593Z</time>
      </trkpt>
      <trkpt lat="45.58853" lon="5.48367">
        <ele>401</ele>
        <time>2021-04-03T13:47:47.592Z</time>
      </trkpt>
      <trkpt lat="45.58855" lon="5.4836">
        <ele>402</ele>
        <time>2021-04-03T13:47:48.592Z</time>
      </trkpt>
      <trkpt lat="45.58856" lon="5.48353">
        <ele>402</ele>
        <time>2021-04-03T13:47:49.593Z</time>
      </trkpt>
      <trkpt lat="45.58857" lon="5.48347">
        <ele>402</ele>
        <time>2021-04-03T13:47:50.593Z</time>
      </trkpt>
      <trkpt lat="45.58859" lon="5.48338">
        <ele>402</ele>
        <time>2021-04-03T13:47:51.593Z</time>
      </trkpt>
      <trkpt lat="45.5886" lon="5.4833">
        <ele>402</ele>
        <time>2021-04-03T13:47:52.593Z</time>
      </trkpt>
      <trkpt lat="45.58862" lon="5.48323">
        <ele>401</ele>
        <time>2021-04-03T13:47:53.593Z</time>
      </trkpt>
      <trkpt lat="45.58863" lon="5.48317">
        <ele>401</ele>
        <time>2021-04-03T13:47:54.593Z</time>
      </trkpt>
      <trkpt lat="45.58864" lon="5.48309">
        <ele>401</ele>
        <time>2021-04-03T13:47:55.593Z</time>
      </trkpt>
      <trkpt lat="45.58866" lon="5.483">
        <ele>401</ele>
        <time>2021-04-03T13:47:56.593Z</time>
      </trkpt>
      <trkpt lat="45.58868" lon="5.48293">
        <ele>402</ele>
        <time>2021-04-03T13:47:57.593Z</time>
      </trkpt>
      <trkpt lat="45.58869" lon="5.48285">
        <ele>402</ele>
        <time>2021-04-03T13:47:58.593Z</time>
      </trkpt>
      <trkpt lat="45.5887" lon="5.48279">
        <ele>402</ele>
        <time>2021-04-03T13:47:59.593Z</time>
      </trkpt>
      <trkpt lat="45.58872" lon="5.48271">
        <ele>402</ele>
        <time>2021-04-03T13:48:00.593Z</time>
      </trkpt>
      <trkpt lat="45.58873" lon="5.48262">
        <ele>402</ele>
        <time>2021-04-03T13:48:01.592Z</time>
      </trkpt>
      <trkpt lat="45.58875" lon="5.48255">
        <ele>402</ele>
        <time>2021-04-03T13:48:02.592Z</time>
      </trkpt>
      <trkpt lat="45.58876" lon="5.48249">
        <ele>403</ele>
        <time>2021-04-03T13:48:03.593Z</time>
      </trkpt>
      <trkpt lat="45.58878" lon="5.4824">
        <ele>403</ele>
        <time>2021-04-03T13:48:04.593Z</time>
      </trkpt>
      <trkpt lat="45.5888" lon="5.48233">
        <ele>403</ele>
        <time>2021-04-03T13:48:05.592Z</time>
      </trkpt>
      <trkpt lat="45.58881" lon="5.48227">
        <ele>403</ele>
        <time>2021-04-03T13:48:06.593Z</time>
      </trkpt>
      <trkpt lat="45.58882" lon="5.48218">
        <ele>402</ele>
        <time>2021-04-03T13:48:07.593Z</time>
      </trkpt>
      <trkpt lat="45.58884" lon="5.48212">
        <ele>402</ele>
        <time>2021-04-03T13:48:08.592Z</time>
      </trkpt>
      <trkpt lat="45.58885" lon="5.48203">
        <ele>402</ele>
        <time>2021-04-03T13:48:09.593Z</time>
      </trkpt>
      <trkpt lat="45.58886" lon="5.48195">
        <ele>403</ele>
        <time>2021-04-03T13:48:10.593Z</time>
      </trkpt>
      <trkpt lat="45.58888" lon="5.48187">
        <ele>403</ele>
        <time>2021-04-03T13:48:11.593Z</time>
      </trkpt>
      <trkpt lat="45.58888" lon="5.48181">
        <ele>403</ele>
        <time>2021-04-03T13:48:12.593Z</time>
      </trkpt>
      <trkpt lat="45.58889" lon="5.48173">
        <ele>403</ele>
        <time>2021-04-03T13:48:13.593Z</time>
      </trkpt>
      <trkpt lat="45.5889" lon="5.48165">
        <ele>403</ele>
        <time>2021-04-03T13:48:14.593Z</time>
      </trkpt>
      <trkpt lat="45.58892" lon="5.48155">
        <ele>403</ele>
        <time>2021-04-03T13:48:15.592Z</time>
      </trkpt>
      <trkpt lat="45.58893" lon="5.48146">
        <ele>402</ele>
        <time>2021-04-03T13:48:16.592Z</time>
      </trkpt>
      <trkpt lat="45.58893" lon="5.4814">
        <ele>402</ele>
        <time>2021-04-03T13:48:17.593Z</time>
      </trkpt>
      <trkpt lat="45.58894" lon="5.48131">
        <ele>402</ele>
        <time>2021-04-03T13:48:18.593Z</time>
      </trkpt>
      <trkpt lat="45.58895" lon="5.48122">
        <ele>401</ele>
        <time>2021-04-03T13:48:19.592Z</time>
      </trkpt>
      <trkpt lat="45.58895" lon="5.48114">
        <ele>401</ele>
        <time>2021-04-03T13:48:20.592Z</time>
      </trkpt>
      <trkpt lat="45.58896" lon="5.48106">
        <ele>401</ele>
        <time>2021-04-03T13:48:21.592Z</time>
      </trkpt>
      <trkpt lat="45.58897" lon="5.48096">
        <ele>400</ele>
        <time>2021-04-03T13:48:22.593Z</time>
      </trkpt>
      <trkpt lat="45.58897" lon="5.4809">
        <ele>401</ele>
        <time>2021-04-03T13:48:23.593Z</time>
      </trkpt>
      <trkpt lat="45.58898" lon="5.4808">
        <ele>401</ele>
        <time>2021-04-03T13:48:24.593Z</time>
      </trkpt>
      <trkpt lat="45.58898" lon="5.48074">
        <ele>401</ele>
        <time>2021-04-03T13:48:25.593Z</time>
      </trkpt>
      <trkpt lat="45.58899" lon="5.48066">
        <ele>401</ele>
        <time>2021-04-03T13:48:26.593Z</time>
      </trkpt>
      <trkpt lat="45.58899" lon="5.48059">
        <ele>401</ele>
        <time>2021-04-03T13:48:27.593Z</time>
      </trkpt>
      <trkpt lat="45.589" lon="5.48051">
        <ele>401</ele>
        <time>2021-04-03T13:48:28.592Z</time>
      </trkpt>
      <trkpt lat="45.589" lon="5.48044">
        <ele>401</ele>
        <time>2021-04-03T13:48:29.593Z</time>
      </trkpt>
      <trkpt lat="45.58901" lon="5.48037">
        <ele>401</ele>
        <time>2021-04-03T13:48:30.593Z</time>
      </trkpt>
      <trkpt lat="45.58901" lon="5.48031">
        <ele>402</ele>
        <time>2021-04-03T13:48:31.592Z</time>
      </trkpt>
      <trkpt lat="45.58902" lon="5.48024">
        <ele>402</ele>
        <time>2021-04-03T13:48:32.592Z</time>
      </trkpt>
      <trkpt lat="45.58903" lon="5.48016">
        <ele>402</ele>
        <time>2021-04-03T13:48:33.593Z</time>
      </trkpt>
      <trkpt lat="45.58903" lon="5.48009">
        <ele>402</ele>
        <time>2021-04-03T13:48:34.593Z</time>
      </trkpt>
      <trkpt lat="45.58903" lon="5.48003">
        <ele>401</ele>
        <time>2021-04-03T13:48:35.593Z</time>
      </trkpt>
      <trkpt lat="45.58904" lon="5.47995">
        <ele>400</ele>
        <time>2021-04-03T13:48:36.592Z</time>
      </trkpt>
      <trkpt lat="45.58904" lon="5.47988">
        <ele>399</ele>
        <time>2021-04-03T13:48:37.592Z</time>
      </trkpt>
      <trkpt lat="45.58904" lon="5.4798">
        <ele>399</ele>
        <time>2021-04-03T13:48:38.593Z</time>
      </trkpt>
      <trkpt lat="45.58905" lon="5.47975">
        <ele>398</ele>
        <time>2021-04-03T13:48:39.593Z</time>
      </trkpt>
      <trkpt lat="45.58905" lon="5.47966">
        <ele>398</ele>
        <time>2021-04-03T13:48:40.593Z</time>
      </trkpt>
      <trkpt lat="45.58905" lon="5.47959">
        <ele>398</ele>
        <time>2021-04-03T13:48:41.593Z</time>
      </trkpt>
      <trkpt lat="45.58905" lon="5.47952">
        <ele>399</ele>
        <time>2021-04-03T13:48:42.593Z</time>
      </trkpt>
      <trkpt lat="45.58904" lon="5.47947">
        <ele>399</ele>
        <time>2021-04-03T13:48:43.593Z</time>
      </trkpt>
      <trkpt lat="45.58904" lon="5.4794">
        <ele>399</ele>
        <time>2021-04-03T13:48:44.592Z</time>
      </trkpt>
      <trkpt lat="45.58903" lon="5.47931">
        <ele>399</ele>
        <time>2021-04-03T13:48:45.592Z</time>
      </trkpt>
      <trkpt lat="45.58902" lon="5.47925">
        <ele>399</ele>
        <time>2021-04-03T13:48:46.592Z</time>
      </trkpt>
      <trkpt lat="45.58901" lon="5.47918">
        <ele>398</ele>
        <time>2021-04-03T13:48:47.593Z</time>
      </trkpt>
      <trkpt lat="45.58901" lon="5.47912">
        <ele>398</ele>
        <time>2021-04-03T13:48:48.593Z</time>
      </trkpt>
      <trkpt lat="45.589" lon="5.47905">
        <ele>398</ele>
        <time>2021-04-03T13:48:49.593Z</time>
      </trkpt>
      <trkpt lat="45.58898" lon="5.47899">
        <ele>398</ele>
        <time>2021-04-03T13:48:50.593Z</time>
      </trkpt>
      <trkpt lat="45.58897" lon="5.47891">
        <ele>399</ele>
        <time>2021-04-03T13:48:51.593Z</time>
      </trkpt>
      <trkpt lat="45.58895" lon="5.47886">
        <ele>399</ele>
        <time>2021-04-03T13:48:52.593Z</time>
      </trkpt>
      <trkpt lat="45.58893" lon="5.47878">
        <ele>400</ele>
        <time>2021-04-03T13:48:53.593Z</time>
      </trkpt>
      <trkpt lat="45.58891" lon="5.47872">
        <ele>401</ele>
        <time>2021-04-03T13:48:54.593Z</time>
      </trkpt>
      <trkpt lat="45.5889" lon="5.47865">
        <ele>401</ele>
        <time>2021-04-03T13:48:55.593Z</time>
      </trkpt>
      <trkpt lat="45.58888" lon="5.47859">
        <ele>401</ele>
        <time>2021-04-03T13:48:56.593Z</time>
      </trkpt>
      <trkpt lat="45.58886" lon="5.47854">
        <ele>402</ele>
        <time>2021-04-03T13:48:57.592Z</time>
      </trkpt>
      <trkpt lat="45.58884" lon="5.47846">
        <ele>403</ele>
        <time>2021-04-03T13:48:58.592Z</time>
      </trkpt>
      <trkpt lat="45.58882" lon="5.4784">
        <ele>404</ele>
        <time>2021-04-03T13:48:59.593Z</time>
      </trkpt>
      <trkpt lat="45.5888" lon="5.47834">
        <ele>405</ele>
        <time>2021-04-03T13:49:00.593Z</time>
      </trkpt>
      <trkpt lat="45.58878" lon="5.47829">
        <ele>406</ele>
        <time>2021-04-03T13:49:01.593Z</time>
      </trkpt>
      <trkpt lat="45.58876" lon="5.47822">
        <ele>407</ele>
        <time>2021-04-03T13:49:02.593Z</time>
      </trkpt>
      <trkpt lat="45.58874" lon="5.47814">
        <ele>408</ele>
        <time>2021-04-03T13:49:03.593Z</time>
      </trkpt>
      <trkpt lat="45.58872" lon="5.47808">
        <ele>409</ele>
        <time>2021-04-03T13:49:04.592Z</time>
      </trkpt>
      <trkpt lat="45.5887" lon="5.47801">
        <ele>410</ele>
        <time>2021-04-03T13:49:05.592Z</time>
      </trkpt>
      <trkpt lat="45.58868" lon="5.47795">
        <ele>411</ele>
        <time>2021-04-03T13:49:06.592Z</time>
      </trkpt>
      <trkpt lat="45.58866" lon="5.47789">
        <ele>411</ele>
        <time>2021-04-03T13:49:07.592Z</time>
      </trkpt>
      <trkpt lat="45.58864" lon="5.47782">
        <ele>412</ele>
        <time>2021-04-03T13:49:08.593Z</time>
      </trkpt>
      <trkpt lat="45.58862" lon="5.47776">
        <ele>413</ele>
        <time>2021-04-03T13:49:09.593Z</time>
      </trkpt>
      <trkpt lat="45.5886" lon="5.47771">
        <ele>414</ele>
        <time>2021-04-03T13:49:10.592Z</time>
      </trkpt>
      <trkpt lat="45.58858" lon="5.47764">
        <ele>415</ele>
        <time>2021-04-03T13:49:11.592Z</time>
      </trkpt>
      <trkpt lat="45.58857" lon="5.47758">
        <ele>415</ele>
        <time>2021-04-03T13:49:12.592Z</time>
      </trkpt>
      <trkpt lat="45.58854" lon="5.4775">
        <ele>416</ele>
        <time>2021-04-03T13:49:13.593Z</time>
      </trkpt>
      <trkpt lat="45.58852" lon="5.47743">
        <ele>417</ele>
        <time>2021-04-03T13:49:14.593Z</time>
      </trkpt>
      <trkpt lat="45.5885" lon="5.47737">
        <ele>419</ele>
        <time>2021-04-03T13:49:15.593Z</time>
      </trkpt>
      <trkpt lat="45.58848" lon="5.47731">
        <ele>420</ele>
        <time>2021-04-03T13:49:16.593Z</time>
      </trkpt>
      <trkpt lat="45.58846" lon="5.47724">
        <ele>421</ele>
        <time>2021-04-03T13:49:17.592Z</time>
      </trkpt>
      <trkpt lat="45.58845" lon="5.47718">
        <ele>423</ele>
        <time>2021-04-03T13:49:18.593Z</time>
      </trkpt>
      <trkpt lat="45.58844" lon="5.47711">
        <ele>424</ele>
        <time>2021-04-03T13:49:19.593Z</time>
      </trkpt>
      <trkpt lat="45.58843" lon="5.47705">
        <ele>425</ele>
        <time>2021-04-03T13:49:20.592Z</time>
      </trkpt>
      <trkpt lat="45.58842" lon="5.477">
        <ele>427</ele>
        <time>2021-04-03T13:49:21.592Z</time>
      </trkpt>
      <trkpt lat="45.58842" lon="5.47692">
        <ele>429</ele>
        <time>2021-04-03T13:49:22.593Z</time>
      </trkpt>
      <trkpt lat="45.58841" lon="5.47685">
        <ele>430</ele>
        <time>2021-04-03T13:49:23.593Z</time>
      </trkpt>
      <trkpt lat="45.5884" lon="5.47679">
        <ele>432</ele>
        <time>2021-04-03T13:49:24.592Z</time>
      </trkpt>
      <trkpt lat="45.58839" lon="5.47673">
        <ele>433</ele>
        <time>2021-04-03T13:49:25.592Z</time>
      </trkpt>
      <trkpt lat="45.58838" lon="5.47665">
        <ele>435</ele>
        <time>2021-04-03T13:49:26.592Z</time>
      </trkpt>
      <trkpt lat="45.58838" lon="5.47658">
        <ele>437</ele>
        <time>2021-04-03T13:49:27.593Z</time>
      </trkpt>
      <trkpt lat="45.58837" lon="5.47651">
        <ele>438</ele>
        <time>2021-04-03T13:49:28.592Z</time>
      </trkpt>
      <trkpt lat="45.58837" lon="5.47645">
        <ele>440</ele>
        <time>2021-04-03T13:49:29.593Z</time>
      </trkpt>
      <trkpt lat="45.58837" lon="5.47639">
        <ele>440</ele>
        <time>2021-04-03T13:49:30.593Z</time>
      </trkpt>
      <trkpt lat="45.58837" lon="5.47631">
        <ele>440</ele>
        <time>2021-04-03T13:49:31.593Z</time>
      </trkpt>
      <trkpt lat="45.58837" lon="5.47624">
        <ele>440</ele>
        <time>2021-04-03T13:49:32.593Z</time>
      </trkpt>
      <trkpt lat="45.58838" lon="5.47616">
        <ele>439</ele>
        <time>2021-04-03T13:49:33.593Z</time>
      </trkpt>
      <trkpt lat="45.58838" lon="5.47611">
        <ele>438</ele>
        <time>2021-04-03T13:49:34.592Z</time>
      </trkpt>
      <trkpt lat="45.58839" lon="5.47603">
        <ele>438</ele>
        <time>2021-04-03T13:49:35.593Z</time>
      </trkpt>
      <trkpt lat="45.5884" lon="5.47595">
        <ele>437</ele>
        <time>2021-04-03T13:49:36.593Z</time>
      </trkpt>
      <trkpt lat="45.5884" lon="5.47588">
        <ele>437</ele>
        <time>2021-04-03T13:49:37.593Z</time>
      </trkpt>
      <trkpt lat="45.58842" lon="5.47581">
        <ele>437</ele>
        <time>2021-04-03T13:49:38.593Z</time>
      </trkpt>
      <trkpt lat="45.58842" lon="5.47576">
        <ele>436</ele>
        <time>2021-04-03T13:49:39.592Z</time>
      </trkpt>
      <trkpt lat="45.58844" lon="5.47569">
        <ele>436</ele>
        <time>2021-04-03T13:49:40.593Z</time>
      </trkpt>
      <trkpt lat="45.58845" lon="5.47565">
        <ele>435</ele>
        <time>2021-04-03T13:49:41.593Z</time>
      </trkpt>
      <trkpt lat="45.58847" lon="5.47561">
        <ele>435</ele>
        <time>2021-04-03T13:49:42.592Z</time>
      </trkpt>
      <trkpt lat="45.58848" lon="5.47558">
        <ele>434</ele>
        <time>2021-04-03T13:49:43.592Z</time>
      </trkpt>
      <trkpt lat="45.5885" lon="5.47555">
        <ele>434</ele>
        <time>2021-04-03T13:49:44.592Z</time>
      </trkpt>
      <trkpt lat="45.58852" lon="5.47552">
        <ele>434</ele>
        <time>2021-04-03T13:49:45.593Z</time>
      </trkpt>
      <trkpt lat="45.58854" lon="5.47551">
        <ele>433</ele>
        <time>2021-04-03T13:49:46.593Z</time>
      </trkpt>
      <trkpt lat="45.58856" lon="5.4755">
        <ele>433</ele>
        <time>2021-04-03T13:49:47.593Z</time>
      </trkpt>
      <trkpt lat="45.58857" lon="5.47549">
        <ele>433</ele>
        <time>2021-04-03T13:49:48.593Z</time>
      </trkpt>
      <trkpt lat="45.58859" lon="5.47549">
        <ele>433</ele>
        <time>2021-04-03T13:49:49.593Z</time>
      </trkpt>
      <trkpt lat="45.5886" lon="5.4755">
        <ele>434</ele>
        <time>2021-04-03T13:49:50.593Z</time>
      </trkpt>
      <trkpt lat="45.5886" lon="5.47551">
        <ele>434</ele>
        <time>2021-04-03T13:49:51.592Z</time>
      </trkpt>
      <trkpt lat="45.58859" lon="5.47552">
        <ele>435</ele>
        <time>2021-04-03T13:49:52.593Z</time>
      </trkpt>
      <trkpt lat="45.58858" lon="5.47553">
        <ele>435</ele>
        <time>2021-04-03T13:49:53.593Z</time>
      </trkpt>
      <trkpt lat="45.58857" lon="5.47553">
        <ele>436</ele>
        <time>2021-04-03T13:49:54.592Z</time>
      </trkpt>
      <trkpt lat="45.58854" lon="5.47553">
        <ele>437</ele>
        <time>2021-04-03T13:49:55.593Z</time>
      </trkpt>
      <trkpt lat="45.58852" lon="5.47553">
        <ele>439</ele>
        <time>2021-04-03T13:49:56.592Z</time>
      </trkpt>
      <trkpt lat="45.5885" lon="5.47553">
        <ele>440</ele>
        <time>2021-04-03T13:49:57.592Z</time>
      </trkpt>
      <trkpt lat="45.58848" lon="5.47552">
        <ele>441</ele>
        <time>2021-04-03T13:49:58.592Z</time>
      </trkpt>
      <trkpt lat="45.58847" lon="5.47551">
        <ele>442</ele>
        <time>2021-04-03T13:49:59.592Z</time>
      </trkpt>
      <trkpt lat="45.58847" lon="5.47551">
        <ele>442</ele>
        <time>2021-04-03T13:50:00.592Z</time>
      </trkpt>
      <trkpt lat="45.58847" lon="5.47552">
        <ele>442</ele>
        <time>2021-04-03T13:50:01.593Z</time>
      </trkpt>
      <trkpt lat="45.58844" lon="5.47549">
        <ele>436</ele>
        <time>2021-04-03T13:50:02.595Z</time>
      </trkpt>
      <trkpt lat="45.58843" lon="5.47545">
        <ele>436</ele>
        <time>2021-04-03T13:50:03.595Z</time>
      </trkpt>
      <trkpt lat="45.58843" lon="5.4754">
        <ele>436</ele>
        <time>2021-04-03T13:50:04.594Z</time>
      </trkpt>
      <trkpt lat="45.58842" lon="5.47535">
        <ele>436</ele>
        <time>2021-04-03T13:50:05.595Z</time>
      </trkpt>
      <trkpt lat="45.58842" lon="5.47529">
        <ele>436</ele>
        <time>2021-04-03T13:50:06.594Z</time>
      </trkpt>
      <trkpt lat="45.58841" lon="5.47521">
        <ele>435</ele>
        <time>2021-04-03T13:50:07.594Z</time>
      </trkpt>
      <trkpt lat="45.5884" lon="5.47513">
        <ele>435</ele>
        <time>2021-04-03T13:50:08.595Z</time>
      </trkpt>
      <trkpt lat="45.58839" lon="5.47507">
        <ele>435</ele>
        <time>2021-04-03T13:50:09.595Z</time>
      </trkpt>
      <trkpt lat="45.58837" lon="5.475">
        <ele>434</ele>
        <time>2021-04-03T13:50:10.595Z</time>
      </trkpt>
      <trkpt lat="45.58835" lon="5.47491">
        <ele>434</ele>
        <time>2021-04-03T13:50:11.595Z</time>
      </trkpt>
      <trkpt lat="45.58832" lon="5.47484">
        <ele>434</ele>
        <time>2021-04-03T13:50:12.595Z</time>
      </trkpt>
      <trkpt lat="45.5883" lon="5.47476">
        <ele>434</ele>
        <time>2021-04-03T13:50:13.595Z</time>
      </trkpt>
      <trkpt lat="45.58826" lon="5.47469">
        <ele>433</ele>
        <time>2021-04-03T13:50:14.594Z</time>
      </trkpt>
      <trkpt lat="45.58824" lon="5.47462">
        <ele>434</ele>
        <time>2021-04-03T13:50:15.595Z</time>
      </trkpt>
      <trkpt lat="45.5882" lon="5.47453">
        <ele>433</ele>
        <time>2021-04-03T13:50:16.595Z</time>
      </trkpt>
      <trkpt lat="45.58816" lon="5.47444">
        <ele>433</ele>
        <time>2021-04-03T13:50:17.595Z</time>
      </trkpt>
      <trkpt lat="45.58812" lon="5.47436">
        <ele>433</ele>
        <time>2021-04-03T13:50:18.595Z</time>
      </trkpt>
      <trkpt lat="45.58808" lon="5.47428">
        <ele>433</ele>
        <time>2021-04-03T13:50:19.595Z</time>
      </trkpt>
      <trkpt lat="45.58803" lon="5.4742">
        <ele>432</ele>
        <time>2021-04-03T13:50:20.595Z</time>
      </trkpt>
      <trkpt lat="45.58798" lon="5.47413">
        <ele>432</ele>
        <time>2021-04-03T13:50:21.595Z</time>
      </trkpt>
      <trkpt lat="45.58792" lon="5.47406">
        <ele>431</ele>
        <time>2021-04-03T13:50:22.594Z</time>
      </trkpt>
      <trkpt lat="45.58786" lon="5.474">
        <ele>430</ele>
        <time>2021-04-03T13:50:23.595Z</time>
      </trkpt>
      <trkpt lat="45.58782" lon="5.47394">
        <ele>429</ele>
        <time>2021-04-03T13:50:24.595Z</time>
      </trkpt>
      <trkpt lat="45.58775" lon="5.47387">
        <ele>429</ele>
        <time>2021-04-03T13:50:25.595Z</time>
      </trkpt>
      <trkpt lat="45.5877" lon="5.47381">
        <ele>428</ele>
        <time>2021-04-03T13:50:26.595Z</time>
      </trkpt>
      <trkpt lat="45.58765" lon="5.47376">
        <ele>428</ele>
        <time>2021-04-03T13:50:27.595Z</time>
      </trkpt>
      <trkpt lat="45.58761" lon="5.47372">
        <ele>427</ele>
        <time>2021-04-03T13:50:28.595Z</time>
      </trkpt>
      <trkpt lat="45.58755" lon="5.47366">
        <ele>427</ele>
        <time>2021-04-03T13:50:29.595Z</time>
      </trkpt>
      <trkpt lat="45.5875" lon="5.47363">
        <ele>427</ele>
        <time>2021-04-03T13:50:30.594Z</time>
      </trkpt>
      <trkpt lat="45.58746" lon="5.4736">
        <ele>427</ele>
        <time>2021-04-03T13:50:31.594Z</time>
      </trkpt>
      <trkpt lat="45.58743" lon="5.47358">
        <ele>427</ele>
        <time>2021-04-03T13:50:32.595Z</time>
      </trkpt>
      <trkpt lat="45.58739" lon="5.47356">
        <ele>427</ele>
        <time>2021-04-03T13:50:33.594Z</time>
      </trkpt>
      <trkpt lat="45.58733" lon="5.47355">
        <ele>427</ele>
        <time>2021-04-03T13:50:34.595Z</time>
      </trkpt>
      <trkpt lat="45.58729" lon="5.47355">
        <ele>427</ele>
        <time>2021-04-03T13:50:35.595Z</time>
      </trkpt>
      <trkpt lat="45.58724" lon="5.47355">
        <ele>427</ele>
        <time>2021-04-03T13:50:36.594Z</time>
      </trkpt>
      <trkpt lat="45.58721" lon="5.47355">
        <ele>428</ele>
        <time>2021-04-03T13:50:37.595Z</time>
      </trkpt>
      <trkpt lat="45.58715" lon="5.47356">
        <ele>428</ele>
        <time>2021-04-03T13:50:38.595Z</time>
      </trkpt>
      <trkpt lat="45.58711" lon="5.47357">
        <ele>429</ele>
        <time>2021-04-03T13:50:39.595Z</time>
      </trkpt>
      <trkpt lat="45.58706" lon="5.47358">
        <ele>429</ele>
        <time>2021-04-03T13:50:40.594Z</time>
      </trkpt>
      <trkpt lat="45.58703" lon="5.47358">
        <ele>430</ele>
        <time>2021-04-03T13:50:41.595Z</time>
      </trkpt>
      <trkpt lat="45.58698" lon="5.47359">
        <ele>431</ele>
        <time>2021-04-03T13:50:42.594Z</time>
      </trkpt>
      <trkpt lat="45.58693" lon="5.4736">
        <ele>431</ele>
        <time>2021-04-03T13:50:43.595Z</time>
      </trkpt>
      <trkpt lat="45.58689" lon="5.47361">
        <ele>432</ele>
        <time>2021-04-03T13:50:44.594Z</time>
      </trkpt>
      <trkpt lat="45.58685" lon="5.47362">
        <ele>432</ele>
        <time>2021-04-03T13:50:45.595Z</time>
      </trkpt>
      <trkpt lat="45.58681" lon="5.47362">
        <ele>432</ele>
        <time>2021-04-03T13:50:46.595Z</time>
      </trkpt>
      <trkpt lat="45.58676" lon="5.47363">
        <ele>432</ele>
        <time>2021-04-03T13:50:47.595Z</time>
      </trkpt>
      <trkpt lat="45.58672" lon="5.47364">
        <ele>432</ele>
        <time>2021-04-03T13:50:48.595Z</time>
      </trkpt>
      <trkpt lat="45.58667" lon="5.47364">
        <ele>432</ele>
        <time>2021-04-03T13:50:49.594Z</time>
      </trkpt>
      <trkpt lat="45.58664" lon="5.47365">
        <ele>432</ele>
        <time>2021-04-03T13:50:50.595Z</time>
      </trkpt>
      <trkpt lat="45.58658" lon="5.47366">
        <ele>432</ele>
        <time>2021-04-03T13:50:51.595Z</time>
      </trkpt>
      <trkpt lat="45.58655" lon="5.47366">
        <ele>433</ele>
        <time>2021-04-03T13:50:52.594Z</time>
      </trkpt>
      <trkpt lat="45.5865" lon="5.47366">
        <ele>434</ele>
        <time>2021-04-03T13:50:53.595Z</time>
      </trkpt>
      <trkpt lat="45.58645" lon="5.47366">
        <ele>434</ele>
        <time>2021-04-03T13:50:54.594Z</time>
      </trkpt>
      <trkpt lat="45.58642" lon="5.47366">
        <ele>435</ele>
        <time>2021-04-03T13:50:55.595Z</time>
      </trkpt>
      <trkpt lat="45.58638" lon="5.47366">
        <ele>435</ele>
        <time>2021-04-03T13:50:56.595Z</time>
      </trkpt>
      <trkpt lat="45.58633" lon="5.47365">
        <ele>435</ele>
        <time>2021-04-03T13:50:57.595Z</time>
      </trkpt>
      <trkpt lat="45.58629" lon="5.47364">
        <ele>436</ele>
        <time>2021-04-03T13:50:58.594Z</time>
      </trkpt>
      <trkpt lat="45.58625" lon="5.47364">
        <ele>436</ele>
        <time>2021-04-03T13:50:59.595Z</time>
      </trkpt>
      <trkpt lat="45.58621" lon="5.47363">
        <ele>436</ele>
        <time>2021-04-03T13:51:00.595Z</time>
      </trkpt>
      <trkpt lat="45.58616" lon="5.47361">
        <ele>436</ele>
        <time>2021-04-03T13:51:01.595Z</time>
      </trkpt>
      <trkpt lat="45.58611" lon="5.4736">
        <ele>437</ele>
        <time>2021-04-03T13:51:02.595Z</time>
      </trkpt>
      <trkpt lat="45.58607" lon="5.47358">
        <ele>437</ele>
        <time>2021-04-03T13:51:03.595Z</time>
      </trkpt>
      <trkpt lat="45.58604" lon="5.47357">
        <ele>438</ele>
        <time>2021-04-03T13:51:04.595Z</time>
      </trkpt>
      <trkpt lat="45.58599" lon="5.47354">
        <ele>438</ele>
        <time>2021-04-03T13:51:05.595Z</time>
      </trkpt>
      <trkpt lat="45.58594" lon="5.47352">
        <ele>438</ele>
        <time>2021-04-03T13:51:06.594Z</time>
      </trkpt>
      <trkpt lat="45.5859" lon="5.4735">
        <ele>438</ele>
        <time>2021-04-03T13:51:07.595Z</time>
      </trkpt>
      <trkpt lat="45.58586" lon="5.47349">
        <ele>438</ele>
        <time>2021-04-03T13:51:08.595Z</time>
      </trkpt>
      <trkpt lat="45.58582" lon="5.47346">
        <ele>439</ele>
        <time>2021-04-03T13:51:09.595Z</time>
      </trkpt>
      <trkpt lat="45.58577" lon="5.47344">
        <ele>439</ele>
        <time>2021-04-03T13:51:10.595Z</time>
      </trkpt>
      <trkpt lat="45.58573" lon="5.47342">
        <ele>439</ele>
        <time>2021-04-03T13:51:11.595Z</time>
      </trkpt>
      <trkpt lat="45.5857" lon="5.47341">
        <ele>438</ele>
        <time>2021-04-03T13:51:12.595Z</time>
      </trkpt>
      <trkpt lat="45.58566" lon="5.47338">
        <ele>438</ele>
        <time>2021-04-03T13:51:13.595Z</time>
      </trkpt>
      <trkpt lat="45.58561" lon="5.47336">
        <ele>438</ele>
        <time>2021-04-03T13:51:14.595Z</time>
      </trkpt>
      <trkpt lat="45.58557" lon="5.47333">
        <ele>439</ele>
        <time>2021-04-03T13:51:15.595Z</time>
      </trkpt>
      <trkpt lat="45.58553" lon="5.4733">
        <ele>439</ele>
        <time>2021-04-03T13:51:16.595Z</time>
      </trkpt>
      <trkpt lat="45.5855" lon="5.47328">
        <ele>439</ele>
        <time>2021-04-03T13:51:17.595Z</time>
      </trkpt>
      <trkpt lat="45.58545" lon="5.47324">
        <ele>439</ele>
        <time>2021-04-03T13:51:18.595Z</time>
      </trkpt>
      <trkpt lat="45.58542" lon="5.4732">
        <ele>440</ele>
        <time>2021-04-03T13:51:19.595Z</time>
      </trkpt>
      <trkpt lat="45.58538" lon="5.47316">
        <ele>441</ele>
        <time>2021-04-03T13:51:20.595Z</time>
      </trkpt>
      <trkpt lat="45.58536" lon="5.47312">
        <ele>441</ele>
        <time>2021-04-03T13:51:21.595Z</time>
      </trkpt>
      <trkpt lat="45.58533" lon="5.47307">
        <ele>441</ele>
        <time>2021-04-03T13:51:22.594Z</time>
      </trkpt>
      <trkpt lat="45.58531" lon="5.47301">
        <ele>441</ele>
        <time>2021-04-03T13:51:23.595Z</time>
      </trkpt>
      <trkpt lat="45.58529" lon="5.47296">
        <ele>441</ele>
        <time>2021-04-03T13:51:24.595Z</time>
      </trkpt>
      <trkpt lat="45.58528" lon="5.47291">
        <ele>441</ele>
        <time>2021-04-03T13:51:25.594Z</time>
      </trkpt>
      <trkpt lat="45.58527" lon="5.47287">
        <ele>441</ele>
        <time>2021-04-03T13:51:26.594Z</time>
      </trkpt>
      <trkpt lat="45.58527" lon="5.4728">
        <ele>441</ele>
        <time>2021-04-03T13:51:27.595Z</time>
      </trkpt>
      <trkpt lat="45.58527" lon="5.47275">
        <ele>441</ele>
        <time>2021-04-03T13:51:28.595Z</time>
      </trkpt>
      <trkpt lat="45.58527" lon="5.47269">
        <ele>441</ele>
        <time>2021-04-03T13:51:29.594Z</time>
      </trkpt>
      <trkpt lat="45.58527" lon="5.47265">
        <ele>441</ele>
        <time>2021-04-03T13:51:30.594Z</time>
      </trkpt>
      <trkpt lat="45.58528" lon="5.4726">
        <ele>441</ele>
        <time>2021-04-03T13:51:31.595Z</time>
      </trkpt>
      <trkpt lat="45.58528" lon="5.47254">
        <ele>442</ele>
        <time>2021-04-03T13:51:32.595Z</time>
      </trkpt>
      <trkpt lat="45.58529" lon="5.47248">
        <ele>442</ele>
        <time>2021-04-03T13:51:33.595Z</time>
      </trkpt>
      <trkpt lat="45.5853" lon="5.47244">
        <ele>442</ele>
        <time>2021-04-03T13:51:34.594Z</time>
      </trkpt>
      <trkpt lat="45.58531" lon="5.47239">
        <ele>442</ele>
        <time>2021-04-03T13:51:35.594Z</time>
      </trkpt>
      <trkpt lat="45.58533" lon="5.47232">
        <ele>442</ele>
        <time>2021-04-03T13:51:36.595Z</time>
      </trkpt>
      <trkpt lat="45.58534" lon="5.47226">
        <ele>442</ele>
        <time>2021-04-03T13:51:37.594Z</time>
      </trkpt>
      <trkpt lat="45.58534" lon="5.4722">
        <ele>442</ele>
        <time>2021-04-03T13:51:38.595Z</time>
      </trkpt>
      <trkpt lat="45.58535" lon="5.47216">
        <ele>442</ele>
        <time>2021-04-03T13:51:39.595Z</time>
      </trkpt>
      <trkpt lat="45.58535" lon="5.4721">
        <ele>442</ele>
        <time>2021-04-03T13:51:40.595Z</time>
      </trkpt>
      <trkpt lat="45.58536" lon="5.47203">
        <ele>442</ele>
        <time>2021-04-03T13:51:41.595Z</time>
      </trkpt>
      <trkpt lat="45.58536" lon="5.47197">
        <ele>442</ele>
        <time>2021-04-03T13:51:42.595Z</time>
      </trkpt>
      <trkpt lat="45.58536" lon="5.47192">
        <ele>443</ele>
        <time>2021-04-03T13:51:43.595Z</time>
      </trkpt>
      <trkpt lat="45.58536" lon="5.47188">
        <ele>443</ele>
        <time>2021-04-03T13:51:44.595Z</time>
      </trkpt>
      <trkpt lat="45.58536" lon="5.47182">
        <ele>443</ele>
        <time>2021-04-03T13:51:45.595Z</time>
      </trkpt>
      <trkpt lat="45.58537" lon="5.47177">
        <ele>443</ele>
        <time>2021-04-03T13:51:46.594Z</time>
      </trkpt>
      <trkpt lat="45.58537" lon="5.47172">
        <ele>443</ele>
        <time>2021-04-03T13:51:47.595Z</time>
      </trkpt>
      <trkpt lat="45.58537" lon="5.47169">
        <ele>443</ele>
        <time>2021-04-03T13:51:48.595Z</time>
      </trkpt>
      <trkpt lat="45.58538" lon="5.47163">
        <ele>442</ele>
        <time>2021-04-03T13:51:49.595Z</time>
      </trkpt>
      <trkpt lat="45.58538" lon="5.47158">
        <ele>442</ele>
        <time>2021-04-03T13:51:50.595Z</time>
      </trkpt>
      <trkpt lat="45.58538" lon="5.47153">
        <ele>442</ele>
        <time>2021-04-03T13:51:51.594Z</time>
      </trkpt>
      <trkpt lat="45.58538" lon="5.47149">
        <ele>441</ele>
        <time>2021-04-03T13:51:52.595Z</time>
      </trkpt>
      <trkpt lat="45.58538" lon="5.47144">
        <ele>442</ele>
        <time>2021-04-03T13:51:53.595Z</time>
      </trkpt>
      <trkpt lat="45.58537" lon="5.47139">
        <ele>442</ele>
        <time>2021-04-03T13:51:54.595Z</time>
      </trkpt>
      <trkpt lat="45.58536" lon="5.47135">
        <ele>443</ele>
        <time>2021-04-03T13:51:55.595Z</time>
      </trkpt>
      <trkpt lat="45.58535" lon="5.4713">
        <ele>443</ele>
        <time>2021-04-03T13:51:56.595Z</time>
      </trkpt>
      <trkpt lat="45.58534" lon="5.47127">
        <ele>443</ele>
        <time>2021-04-03T13:51:57.595Z</time>
      </trkpt>
      <trkpt lat="45.58532" lon="5.47122">
        <ele>444</ele>
        <time>2021-04-03T13:51:58.595Z</time>
      </trkpt>
      <trkpt lat="45.58531" lon="5.47117">
        <ele>444</ele>
        <time>2021-04-03T13:51:59.595Z</time>
      </trkpt>
      <trkpt lat="45.58529" lon="5.47112">
        <ele>445</ele>
        <time>2021-04-03T13:52:00.594Z</time>
      </trkpt>
      <trkpt lat="45.58527" lon="5.47108">
        <ele>445</ele>
        <time>2021-04-03T13:52:01.595Z</time>
      </trkpt>
      <trkpt lat="45.58526" lon="5.47104">
        <ele>446</ele>
        <time>2021-04-03T13:52:02.595Z</time>
      </trkpt>
      <trkpt lat="45.58524" lon="5.47099">
        <ele>446</ele>
        <time>2021-04-03T13:52:03.595Z</time>
      </trkpt>
      <trkpt lat="45.58522" lon="5.47092">
        <ele>447</ele>
        <time>2021-04-03T13:52:04.595Z</time>
      </trkpt>
      <trkpt lat="45.58521" lon="5.47086">
        <ele>447</ele>
        <time>2021-04-03T13:52:05.595Z</time>
      </trkpt>
      <trkpt lat="45.5852" lon="5.4708">
        <ele>447</ele>
        <time>2021-04-03T13:52:06.595Z</time>
      </trkpt>
      <trkpt lat="45.58519" lon="5.47074">
        <ele>447</ele>
        <time>2021-04-03T13:52:07.595Z</time>
      </trkpt>
      <trkpt lat="45.58518" lon="5.47069">
        <ele>447</ele>
        <time>2021-04-03T13:52:08.595Z</time>
      </trkpt>
      <trkpt lat="45.58517" lon="5.47062">
        <ele>447</ele>
        <time>2021-04-03T13:52:09.595Z</time>
      </trkpt>
      <trkpt lat="45.58516" lon="5.47058">
        <ele>448</ele>
        <time>2021-04-03T13:52:10.595Z</time>
      </trkpt>
      <trkpt lat="45.58515" lon="5.47052">
        <ele>448</ele>
        <time>2021-04-03T13:52:11.594Z</time>
      </trkpt>
      <trkpt lat="45.58514" lon="5.47044">
        <ele>448</ele>
        <time>2021-04-03T13:52:12.594Z</time>
      </trkpt>
      <trkpt lat="45.58514" lon="5.47038">
        <ele>447</ele>
        <time>2021-04-03T13:52:13.595Z</time>
      </trkpt>
      <trkpt lat="45.58513" lon="5.47032">
        <ele>447</ele>
        <time>2021-04-03T13:52:14.595Z</time>
      </trkpt>
      <trkpt lat="45.58512" lon="5.47027">
        <ele>447</ele>
        <time>2021-04-03T13:52:15.595Z</time>
      </trkpt>
      <trkpt lat="45.5851" lon="5.47019">
        <ele>448</ele>
        <time>2021-04-03T13:52:16.595Z</time>
      </trkpt>
      <trkpt lat="45.5851" lon="5.47014">
        <ele>448</ele>
        <time>2021-04-03T13:52:17.595Z</time>
      </trkpt>
      <trkpt lat="45.58509" lon="5.47007">
        <ele>448</ele>
        <time>2021-04-03T13:52:18.595Z</time>
      </trkpt>
      <trkpt lat="45.58509" lon="5.47">
        <ele>447</ele>
        <time>2021-04-03T13:52:19.595Z</time>
      </trkpt>
      <trkpt lat="45.58508" lon="5.46992">
        <ele>447</ele>
        <time>2021-04-03T13:52:20.595Z</time>
      </trkpt>
      <trkpt lat="45.58508" lon="5.46982">
        <ele>446</ele>
        <time>2021-04-03T13:52:21.595Z</time>
      </trkpt>
      <trkpt lat="45.58507" lon="5.46973">
        <ele>446</ele>
        <time>2021-04-03T13:52:22.595Z</time>
      </trkpt>
      <trkpt lat="45.58507" lon="5.46965">
        <ele>445</ele>
        <time>2021-04-03T13:52:23.594Z</time>
      </trkpt>
      <trkpt lat="45.58506" lon="5.46958">
        <ele>445</ele>
        <time>2021-04-03T13:52:24.595Z</time>
      </trkpt>
      <trkpt lat="45.58505" lon="5.46948">
        <ele>445</ele>
        <time>2021-04-03T13:52:25.594Z</time>
      </trkpt>
      <trkpt lat="45.58504" lon="5.46939">
        <ele>445</ele>
        <time>2021-04-03T13:52:26.595Z</time>
      </trkpt>
      <trkpt lat="45.58503" lon="5.46931">
        <ele>445</ele>
        <time>2021-04-03T13:52:27.595Z</time>
      </trkpt>
      <trkpt lat="45.58503" lon="5.46923">
        <ele>445</ele>
        <time>2021-04-03T13:52:28.595Z</time>
      </trkpt>
      <trkpt lat="45.58502" lon="5.46917">
        <ele>445</ele>
        <time>2021-04-03T13:52:29.595Z</time>
      </trkpt>
      <trkpt lat="45.58502" lon="5.46908">
        <ele>445</ele>
        <time>2021-04-03T13:52:30.595Z</time>
      </trkpt>
      <trkpt lat="45.58501" lon="5.469">
        <ele>446</ele>
        <time>2021-04-03T13:52:31.595Z</time>
      </trkpt>
      <trkpt lat="45.58501" lon="5.46893">
        <ele>446</ele>
        <time>2021-04-03T13:52:32.595Z</time>
      </trkpt>
      <trkpt lat="45.585" lon="5.46885">
        <ele>446</ele>
        <time>2021-04-03T13:52:33.595Z</time>
      </trkpt>
      <trkpt lat="45.585" lon="5.46877">
        <ele>447</ele>
        <time>2021-04-03T13:52:34.595Z</time>
      </trkpt>
      <trkpt lat="45.58499" lon="5.46869">
        <ele>447</ele>
        <time>2021-04-03T13:52:35.595Z</time>
      </trkpt>
      <trkpt lat="45.58499" lon="5.46861">
        <ele>448</ele>
        <time>2021-04-03T13:52:36.594Z</time>
      </trkpt>
      <trkpt lat="45.58499" lon="5.46854">
        <ele>448</ele>
        <time>2021-04-03T13:52:37.595Z</time>
      </trkpt>
      <trkpt lat="45.58499" lon="5.46846">
        <ele>448</ele>
        <time>2021-04-03T13:52:38.594Z</time>
      </trkpt>
      <trkpt lat="45.58499" lon="5.46836">
        <ele>448</ele>
        <time>2021-04-03T13:52:39.595Z</time>
      </trkpt>
      <trkpt lat="45.58499" lon="5.46828">
        <ele>447</ele>
        <time>2021-04-03T13:52:40.595Z</time>
      </trkpt>
      <trkpt lat="45.585" lon="5.46821">
        <ele>446</ele>
        <time>2021-04-03T13:52:41.595Z</time>
      </trkpt>
      <trkpt lat="45.585" lon="5.46814">
        <ele>446</ele>
        <time>2021-04-03T13:52:42.595Z</time>
      </trkpt>
      <trkpt lat="45.58501" lon="5.46805">
        <ele>446</ele>
        <time>2021-04-03T13:52:43.595Z</time>
      </trkpt>
      <trkpt lat="45.58501" lon="5.46798">
        <ele>445</ele>
        <time>2021-04-03T13:52:44.595Z</time>
      </trkpt>
      <trkpt lat="45.58502" lon="5.4679">
        <ele>445</ele>
        <time>2021-04-03T13:52:45.595Z</time>
      </trkpt>
      <trkpt lat="45.58502" lon="5.46784">
        <ele>445</ele>
        <time>2021-04-03T13:52:46.595Z</time>
      </trkpt>
      <trkpt lat="45.58502" lon="5.46777">
        <ele>445</ele>
        <time>2021-04-03T13:52:47.594Z</time>
      </trkpt>
      <trkpt lat="45.58503" lon="5.46768">
        <ele>445</ele>
        <time>2021-04-03T13:52:48.595Z</time>
      </trkpt>
      <trkpt lat="45.58503" lon="5.46761">
        <ele>445</ele>
        <time>2021-04-03T13:52:49.595Z</time>
      </trkpt>
      <trkpt lat="45.58504" lon="5.46754">
        <ele>445</ele>
        <time>2021-04-03T13:52:50.594Z</time>
      </trkpt>
      <trkpt lat="45.58504" lon="5.46748">
        <ele>444</ele>
        <time>2021-04-03T13:52:51.595Z</time>
      </trkpt>
      <trkpt lat="45.58505" lon="5.4674">
        <ele>444</ele>
        <time>2021-04-03T13:52:52.594Z</time>
      </trkpt>
      <trkpt lat="45.58505" lon="5.46733">
        <ele>443</ele>
        <time>2021-04-03T13:52:53.595Z</time>
      </trkpt>
      <trkpt lat="45.58505" lon="5.46725">
        <ele>443</ele>
        <time>2021-04-03T13:52:54.595Z</time>
      </trkpt>
      <trkpt lat="45.58506" lon="5.4672">
        <ele>443</ele>
        <time>2021-04-03T13:52:55.595Z</time>
      </trkpt>
      <trkpt lat="45.58506" lon="5.46711">
        <ele>444</ele>
        <time>2021-04-03T13:52:56.595Z</time>
      </trkpt>
      <trkpt lat="45.58506" lon="5.46704">
        <ele>444</ele>
        <time>2021-04-03T13:52:57.595Z</time>
      </trkpt>
      <trkpt lat="45.58507" lon="5.46697">
        <ele>444</ele>
        <time>2021-04-03T13:52:58.595Z</time>
      </trkpt>
      <trkpt lat="45.58507" lon="5.4669">
        <ele>444</ele>
        <time>2021-04-03T13:52:59.595Z</time>
      </trkpt>
      <trkpt lat="45.58508" lon="5.46685">
        <ele>445</ele>
        <time>2021-04-03T13:53:00.594Z</time>
      </trkpt>
      <trkpt lat="45.58508" lon="5.46679">
        <ele>446</ele>
        <time>2021-04-03T13:53:01.595Z</time>
      </trkpt>
      <trkpt lat="45.58508" lon="5.46671">
        <ele>446</ele>
        <time>2021-04-03T13:53:02.595Z</time>
      </trkpt>
      <trkpt lat="45.58507" lon="5.46665">
        <ele>446</ele>
        <time>2021-04-03T13:53:03.594Z</time>
      </trkpt>
      <trkpt lat="45.58507" lon="5.4666">
        <ele>446</ele>
        <time>2021-04-03T13:53:04.595Z</time>
      </trkpt>
      <trkpt lat="45.58506" lon="5.46653">
        <ele>446</ele>
        <time>2021-04-03T13:53:05.595Z</time>
      </trkpt>
      <trkpt lat="45.58504" lon="5.46647">
        <ele>446</ele>
        <time>2021-04-03T13:53:06.595Z</time>
      </trkpt>
      <trkpt lat="45.58503" lon="5.46641">
        <ele>446</ele>
        <time>2021-04-03T13:53:07.594Z</time>
      </trkpt>
      <trkpt lat="45.58502" lon="5.46635">
        <ele>447</ele>
        <time>2021-04-03T13:53:08.595Z</time>
      </trkpt>
      <trkpt lat="45.58501" lon="5.4663">
        <ele>447</ele>
        <time>2021-04-03T13:53:09.594Z</time>
      </trkpt>
      <trkpt lat="45.58499" lon="5.46622">
        <ele>447</ele>
        <time>2021-04-03T13:53:10.595Z</time>
      </trkpt>
      <trkpt lat="45.58498" lon="5.46615">
        <ele>446</ele>
        <time>2021-04-03T13:53:11.595Z</time>
      </trkpt>
      <trkpt lat="45.58498" lon="5.46607">
        <ele>445</ele>
        <time>2021-04-03T13:53:12.595Z</time>
      </trkpt>
      <trkpt lat="45.58498" lon="5.466">
        <ele>445</ele>
        <time>2021-04-03T13:53:13.594Z</time>
      </trkpt>
      <trkpt lat="45.58499" lon="5.46592">
        <ele>445</ele>
        <time>2021-04-03T13:53:14.595Z</time>
      </trkpt>
      <trkpt lat="45.58499" lon="5.46583">
        <ele>445</ele>
        <time>2021-04-03T13:53:15.594Z</time>
      </trkpt>
      <trkpt lat="45.58499" lon="5.46575">
        <ele>444</ele>
        <time>2021-04-03T13:53:16.595Z</time>
      </trkpt>
      <trkpt lat="45.58499" lon="5.46568">
        <ele>444</ele>
        <time>2021-04-03T13:53:17.594Z</time>
      </trkpt>
      <trkpt lat="45.585" lon="5.46558">
        <ele>443</ele>
        <time>2021-04-03T13:53:18.595Z</time>
      </trkpt>
      <trkpt lat="45.585" lon="5.46549">
        <ele>442</ele>
        <time>2021-04-03T13:53:19.595Z</time>
      </trkpt>
      <trkpt lat="45.585" lon="5.46541">
        <ele>442</ele>
        <time>2021-04-03T13:53:20.595Z</time>
      </trkpt>
      <trkpt lat="45.58501" lon="5.46532">
        <ele>442</ele>
        <time>2021-04-03T13:53:21.595Z</time>
      </trkpt>
      <trkpt lat="45.58501" lon="5.46525">
        <ele>441</ele>
        <time>2021-04-03T13:53:22.594Z</time>
      </trkpt>
      <trkpt lat="45.58502" lon="5.46515">
        <ele>441</ele>
        <time>2021-04-03T13:53:23.595Z</time>
      </trkpt>
      <trkpt lat="45.58502" lon="5.46506">
        <ele>440</ele>
        <time>2021-04-03T13:53:24.595Z</time>
      </trkpt>
      <trkpt lat="45.58502" lon="5.46498">
        <ele>440</ele>
        <time>2021-04-03T13:53:25.595Z</time>
      </trkpt>
      <trkpt lat="45.58503" lon="5.46489">
        <ele>440</ele>
        <time>2021-04-03T13:53:26.595Z</time>
      </trkpt>
      <trkpt lat="45.58503" lon="5.46481">
        <ele>440</ele>
        <time>2021-04-03T13:53:27.594Z</time>
      </trkpt>
      <trkpt lat="45.58503" lon="5.46472">
        <ele>439</ele>
        <time>2021-04-03T13:53:28.594Z</time>
      </trkpt>
      <trkpt lat="45.58503" lon="5.46464">
        <ele>439</ele>
        <time>2021-04-03T13:53:29.595Z</time>
      </trkpt>
      <trkpt lat="45.58504" lon="5.46455">
        <ele>439</ele>
        <time>2021-04-03T13:53:30.595Z</time>
      </trkpt>
      <trkpt lat="45.58504" lon="5.46448">
        <ele>438</ele>
        <time>2021-04-03T13:53:31.594Z</time>
      </trkpt>
      <trkpt lat="45.58505" lon="5.46438">
        <ele>438</ele>
        <time>2021-04-03T13:53:32.595Z</time>
      </trkpt>
      <trkpt lat="45.58505" lon="5.46429">
        <ele>439</ele>
        <time>2021-04-03T13:53:33.595Z</time>
      </trkpt>
      <trkpt lat="45.58505" lon="5.46421">
        <ele>439</ele>
        <time>2021-04-03T13:53:34.595Z</time>
      </trkpt>
      <trkpt lat="45.58505" lon="5.46414">
        <ele>440</ele>
        <time>2021-04-03T13:53:35.595Z</time>
      </trkpt>
      <trkpt lat="45.58506" lon="5.46404">
        <ele>440</ele>
        <time>2021-04-03T13:53:36.595Z</time>
      </trkpt>
      <trkpt lat="45.58506" lon="5.46396">
        <ele>440</ele>
        <time>2021-04-03T13:53:37.595Z</time>
      </trkpt>
      <trkpt lat="45.58506" lon="5.4639">
        <ele>439</ele>
        <time>2021-04-03T13:53:38.595Z</time>
      </trkpt>
      <trkpt lat="45.58507" lon="5.46387">
        <ele>439</ele>
        <time>2021-04-03T13:53:39.594Z</time>
      </trkpt>
      <trkpt lat="45.58507" lon="5.46383">
        <ele>439</ele>
        <time>2021-04-03T13:53:40.594Z</time>
      </trkpt>
      <trkpt lat="45.58508" lon="5.46379">
        <ele>439</ele>
        <time>2021-04-03T13:53:41.595Z</time>
      </trkpt>
      <trkpt lat="45.58508" lon="5.46377">
        <ele>438</ele>
        <time>2021-04-03T13:53:42.595Z</time>
      </trkpt>
      <trkpt lat="45.58509" lon="5.46376">
        <ele>439</ele>
        <time>2021-04-03T13:53:43.595Z</time>
      </trkpt>
      <trkpt lat="45.58509" lon="5.46376">
        <ele>439</ele>
        <time>2021-04-03T13:53:44.595Z</time>
      </trkpt>
      <trkpt lat="45.58509" lon="5.46376">
        <ele>439</ele>
        <time>2021-04-03T13:53:45.595Z</time>
      </trkpt>
      <trkpt lat="45.58509" lon="5.46377">
        <ele>439</ele>
        <time>2021-04-03T13:53:46.595Z</time>
      </trkpt>
      <trkpt lat="45.58508" lon="5.46374">
        <ele>432</ele>
        <time>2021-04-03T13:53:47.597Z</time>
      </trkpt>
      <trkpt lat="45.58508" lon="5.4637">
        <ele>431</ele>
        <time>2021-04-03T13:53:48.596Z</time>
      </trkpt>
      <trkpt lat="45.58508" lon="5.46366">
        <ele>431</ele>
        <time>2021-04-03T13:53:49.596Z</time>
      </trkpt>
      <trkpt lat="45.58507" lon="5.46362">
        <ele>431</ele>
        <time>2021-04-03T13:53:50.597Z</time>
      </trkpt>
      <trkpt lat="45.58507" lon="5.4636">
        <ele>431</ele>
        <time>2021-04-03T13:53:51.596Z</time>
      </trkpt>
      <trkpt lat="45.58506" lon="5.46357">
        <ele>431</ele>
        <time>2021-04-03T13:53:52.597Z</time>
      </trkpt>
      <trkpt lat="45.58507" lon="5.46354">
        <ele>431</ele>
        <time>2021-04-03T13:53:53.597Z</time>
      </trkpt>
      <trkpt lat="45.58507" lon="5.46353">
        <ele>431</ele>
        <time>2021-04-03T13:53:54.597Z</time>
      </trkpt>
      <trkpt lat="45.58508" lon="5.46354">
        <ele>431</ele>
        <time>2021-04-03T13:53:55.597Z</time>
      </trkpt>
      <trkpt lat="45.58508" lon="5.46355">
        <ele>431</ele>
        <time>2021-04-03T13:53:56.596Z</time>
      </trkpt>
      <trkpt lat="45.58508" lon="5.46357">
        <ele>431</ele>
        <time>2021-04-03T13:53:57.597Z</time>
      </trkpt>
      <trkpt lat="45.58507" lon="5.46358">
        <ele>431</ele>
        <time>2021-04-03T13:53:58.596Z</time>
      </trkpt>
      <trkpt lat="45.58507" lon="5.46359">
        <ele>431</ele>
        <time>2021-04-03T13:53:59.597Z</time>
      </trkpt>
      <trkpt lat="45.58507" lon="5.46359">
        <ele>431</ele>
        <time>2021-04-03T13:54:00.597Z</time>
      </trkpt>
      <trkpt lat="45.58507" lon="5.4636">
        <ele>432</ele>
        <time>2021-04-03T13:54:01.597Z</time>
      </trkpt>
      <trkpt lat="45.58508" lon="5.46359">
        <ele>433</ele>
        <time>2021-04-03T13:54:02.597Z</time>
      </trkpt>
      <trkpt lat="45.58508" lon="5.46358">
        <ele>433</ele>
        <time>2021-04-03T13:54:03.597Z</time>
      </trkpt>
      <trkpt lat="45.58508" lon="5.46357">
        <ele>434</ele>
        <time>2021-04-03T13:54:04.597Z</time>
      </trkpt>
      <trkpt lat="45.58508" lon="5.46357">
        <ele>434</ele>
        <time>2021-04-03T13:54:05.598Z</time>
      </trkpt>
      <trkpt lat="45.58508" lon="5.46357">
        <ele>434</ele>
        <time>2021-04-03T13:54:06.598Z</time>
      </trkpt>
      <trkpt lat="45.58509" lon="5.46357">
        <ele>435</ele>
        <time>2021-04-03T13:54:07.598Z</time>
      </trkpt>
      <trkpt lat="45.58509" lon="5.46358">
        <ele>435</ele>
        <time>2021-04-03T13:54:08.598Z</time>
      </trkpt>
      <trkpt lat="45.58503" lon="5.46362">
        <ele>438</ele>
        <time>2021-04-03T13:54:09.597Z</time>
      </trkpt>
      <trkpt lat="45.58503" lon="5.46362">
        <ele>438</ele>
        <time>2021-04-03T13:54:10.598Z</time>
      </trkpt>
      <trkpt lat="45.58511" lon="5.4636">
        <ele>440</ele>
        <time>2021-04-03T13:54:11.597Z</time>
      </trkpt>
      <trkpt lat="45.58511" lon="5.46358">
        <ele>440</ele>
        <time>2021-04-03T13:54:12.598Z</time>
      </trkpt>
      <trkpt lat="45.58511" lon="5.46358">
        <ele>440</ele>
        <time>2021-04-03T13:54:13.597Z</time>
      </trkpt>
      <trkpt lat="45.58512" lon="5.46358">
        <ele>440</ele>
        <time>2021-04-03T13:54:14.597Z</time>
      </trkpt>
      <trkpt lat="45.58512" lon="5.46358">
        <ele>440</ele>
        <time>2021-04-03T13:54:15.598Z</time>
      </trkpt>
      <trkpt lat="45.58512" lon="5.46359">
        <ele>440</ele>
        <time>2021-04-03T13:54:16.598Z</time>
      </trkpt>
      <trkpt lat="45.58513" lon="5.46359">
        <ele>439</ele>
        <time>2021-04-03T13:54:17.598Z</time>
      </trkpt>
      <trkpt lat="45.58514" lon="5.46359">
        <ele>439</ele>
        <time>2021-04-03T13:54:18.598Z</time>
      </trkpt>
      <trkpt lat="45.58515" lon="5.46359">
        <ele>439</ele>
        <time>2021-04-03T13:54:19.597Z</time>
      </trkpt>
      <trkpt lat="45.58515" lon="5.4636">
        <ele>439</ele>
        <time>2021-04-03T13:54:20.598Z</time>
      </trkpt>
      <trkpt lat="45.58515" lon="5.46359">
        <ele>438</ele>
        <time>2021-04-03T13:54:21.599Z</time>
      </trkpt>
      <trkpt lat="45.58515" lon="5.46359">
        <ele>438</ele>
        <time>2021-04-03T13:54:22.599Z</time>
      </trkpt>
      <trkpt lat="45.58516" lon="5.46359">
        <ele>438</ele>
        <time>2021-04-03T13:54:23.599Z</time>
      </trkpt>
      <trkpt lat="45.58509" lon="5.46354">
        <ele>433</ele>
        <time>2021-04-03T13:54:24.601Z</time>
      </trkpt>
      <trkpt lat="45.58508" lon="5.46354">
        <ele>433</ele>
        <time>2021-04-03T13:54:25.600Z</time>
      </trkpt>
      <trkpt lat="45.58508" lon="5.46354">
        <ele>433</ele>
        <time>2021-04-03T13:54:26.600Z</time>
      </trkpt>
      <trkpt lat="45.58507" lon="5.46346">
        <ele>435</ele>
        <time>2021-04-03T13:54:27.602Z</time>
      </trkpt>
      <trkpt lat="45.58506" lon="5.46343">
        <ele>435</ele>
        <time>2021-04-03T13:54:28.602Z</time>
      </trkpt>
      <trkpt lat="45.58506" lon="5.4634">
        <ele>435</ele>
        <time>2021-04-03T13:54:29.602Z</time>
      </trkpt>
      <trkpt lat="45.58505" lon="5.46337">
        <ele>434</ele>
        <time>2021-04-03T13:54:30.602Z</time>
      </trkpt>
      <trkpt lat="45.58505" lon="5.46334">
        <ele>434</ele>
        <time>2021-04-03T13:54:31.601Z</time>
      </trkpt>
      <trkpt lat="45.58505" lon="5.46329">
        <ele>434</ele>
        <time>2021-04-03T13:54:32.602Z</time>
      </trkpt>
      <trkpt lat="45.58505" lon="5.46324">
        <ele>433</ele>
        <time>2021-04-03T13:54:33.601Z</time>
      </trkpt>
      <trkpt lat="45.58505" lon="5.46318">
        <ele>433</ele>
        <time>2021-04-03T13:54:34.601Z</time>
      </trkpt>
      <trkpt lat="45.58505" lon="5.46313">
        <ele>433</ele>
        <time>2021-04-03T13:54:35.602Z</time>
      </trkpt>
      <trkpt lat="45.58504" lon="5.46308">
        <ele>433</ele>
        <time>2021-04-03T13:54:36.601Z</time>
      </trkpt>
      <trkpt lat="45.58504" lon="5.46301">
        <ele>432</ele>
        <time>2021-04-03T13:54:37.602Z</time>
      </trkpt>
      <trkpt lat="45.58503" lon="5.46295">
        <ele>431</ele>
        <time>2021-04-03T13:54:38.602Z</time>
      </trkpt>
      <trkpt lat="45.58503" lon="5.46289">
        <ele>431</ele>
        <time>2021-04-03T13:54:39.602Z</time>
      </trkpt>
      <trkpt lat="45.58502" lon="5.46284">
        <ele>430</ele>
        <time>2021-04-03T13:54:40.602Z</time>
      </trkpt>
      <trkpt lat="45.58501" lon="5.46277">
        <ele>430</ele>
        <time>2021-04-03T13:54:41.602Z</time>
      </trkpt>
      <trkpt lat="45.58501" lon="5.46271">
        <ele>430</ele>
        <time>2021-04-03T13:54:42.602Z</time>
      </trkpt>
      <trkpt lat="45.585" lon="5.46264">
        <ele>429</ele>
        <time>2021-04-03T13:54:43.602Z</time>
      </trkpt>
      <trkpt lat="45.58499" lon="5.46257">
        <ele>429</ele>
        <time>2021-04-03T13:54:44.602Z</time>
      </trkpt>
      <trkpt lat="45.58499" lon="5.46252">
        <ele>430</ele>
        <time>2021-04-03T13:54:45.602Z</time>
      </trkpt>
      <trkpt lat="45.58498" lon="5.46245">
        <ele>430</ele>
        <time>2021-04-03T13:54:46.602Z</time>
      </trkpt>
      <trkpt lat="45.58498" lon="5.46237">
        <ele>430</ele>
        <time>2021-04-03T13:54:47.602Z</time>
      </trkpt>
      <trkpt lat="45.58497" lon="5.46232">
        <ele>430</ele>
        <time>2021-04-03T13:54:48.601Z</time>
      </trkpt>
      <trkpt lat="45.58497" lon="5.46225">
        <ele>430</ele>
        <time>2021-04-03T13:54:49.601Z</time>
      </trkpt>
      <trkpt lat="45.58496" lon="5.46219">
        <ele>430</ele>
        <time>2021-04-03T13:54:50.602Z</time>
      </trkpt>
      <trkpt lat="45.58496" lon="5.46213">
        <ele>429</ele>
        <time>2021-04-03T13:54:51.602Z</time>
      </trkpt>
      <trkpt lat="45.58495" lon="5.46206">
        <ele>429</ele>
        <time>2021-04-03T13:54:52.602Z</time>
      </trkpt>
      <trkpt lat="45.58495" lon="5.46198">
        <ele>429</ele>
        <time>2021-04-03T13:54:53.602Z</time>
      </trkpt>
      <trkpt lat="45.58494" lon="5.46193">
        <ele>429</ele>
        <time>2021-04-03T13:54:54.602Z</time>
      </trkpt>
      <trkpt lat="45.58494" lon="5.46186">
        <ele>429</ele>
        <time>2021-04-03T13:54:55.601Z</time>
      </trkpt>
      <trkpt lat="45.58493" lon="5.46179">
        <ele>430</ele>
        <time>2021-04-03T13:54:56.602Z</time>
      </trkpt>
      <trkpt lat="45.58493" lon="5.46172">
        <ele>431</ele>
        <time>2021-04-03T13:54:57.602Z</time>
      </trkpt>
      <trkpt lat="45.58492" lon="5.46165">
        <ele>431</ele>
        <time>2021-04-03T13:54:58.602Z</time>
      </trkpt>
      <trkpt lat="45.58492" lon="5.46158">
        <ele>432</ele>
        <time>2021-04-03T13:54:59.602Z</time>
      </trkpt>
      <trkpt lat="45.58492" lon="5.46152">
        <ele>433</ele>
        <time>2021-04-03T13:55:00.601Z</time>
      </trkpt>
      <trkpt lat="45.58491" lon="5.46145">
        <ele>433</ele>
        <time>2021-04-03T13:55:01.602Z</time>
      </trkpt>
      <trkpt lat="45.58491" lon="5.46139">
        <ele>433</ele>
        <time>2021-04-03T13:55:02.602Z</time>
      </trkpt>
      <trkpt lat="45.5849" lon="5.46133">
        <ele>433</ele>
        <time>2021-04-03T13:55:03.602Z</time>
      </trkpt>
      <trkpt lat="45.5849" lon="5.46127">
        <ele>433</ele>
        <time>2021-04-03T13:55:04.602Z</time>
      </trkpt>
      <trkpt lat="45.58489" lon="5.46119">
        <ele>433</ele>
        <time>2021-04-03T13:55:05.602Z</time>
      </trkpt>
      <trkpt lat="45.58489" lon="5.46113">
        <ele>432</ele>
        <time>2021-04-03T13:55:06.602Z</time>
      </trkpt>
      <trkpt lat="45.58488" lon="5.46107">
        <ele>432</ele>
        <time>2021-04-03T13:55:07.602Z</time>
      </trkpt>
      <trkpt lat="45.58488" lon="5.46102">
        <ele>431</ele>
        <time>2021-04-03T13:55:08.601Z</time>
      </trkpt>
      <trkpt lat="45.58488" lon="5.46095">
        <ele>431</ele>
        <time>2021-04-03T13:55:09.602Z</time>
      </trkpt>
      <trkpt lat="45.58488" lon="5.46089">
        <ele>431</ele>
        <time>2021-04-03T13:55:10.601Z</time>
      </trkpt>
      <trkpt lat="45.58489" lon="5.46083">
        <ele>431</ele>
        <time>2021-04-03T13:55:11.602Z</time>
      </trkpt>
      <trkpt lat="45.58491" lon="5.46079">
        <ele>431</ele>
        <time>2021-04-03T13:55:12.602Z</time>
      </trkpt>
      <trkpt lat="45.58493" lon="5.46074">
        <ele>431</ele>
        <time>2021-04-03T13:55:13.602Z</time>
      </trkpt>
      <trkpt lat="45.58497" lon="5.4607">
        <ele>431</ele>
        <time>2021-04-03T13:55:14.602Z</time>
      </trkpt>
      <trkpt lat="45.585" lon="5.46068">
        <ele>431</ele>
        <time>2021-04-03T13:55:15.602Z</time>
      </trkpt>
      <trkpt lat="45.58504" lon="5.46065">
        <ele>432</ele>
        <time>2021-04-03T13:55:16.602Z</time>
      </trkpt>
      <trkpt lat="45.58508" lon="5.46063">
        <ele>432</ele>
        <time>2021-04-03T13:55:17.602Z</time>
      </trkpt>
      <trkpt lat="45.58512" lon="5.4606">
        <ele>433</ele>
        <time>2021-04-03T13:55:18.602Z</time>
      </trkpt>
      <trkpt lat="45.58516" lon="5.46057">
        <ele>434</ele>
        <time>2021-04-03T13:55:19.602Z</time>
      </trkpt>
      <trkpt lat="45.5852" lon="5.46054">
        <ele>434</ele>
        <time>2021-04-03T13:55:20.602Z</time>
      </trkpt>
      <trkpt lat="45.58524" lon="5.46051">
        <ele>434</ele>
        <time>2021-04-03T13:55:21.601Z</time>
      </trkpt>
      <trkpt lat="45.58528" lon="5.46047">
        <ele>435</ele>
        <time>2021-04-03T13:55:22.602Z</time>
      </trkpt>
      <trkpt lat="45.58531" lon="5.46043">
        <ele>435</ele>
        <time>2021-04-03T13:55:23.601Z</time>
      </trkpt>
      <trkpt lat="45.58535" lon="5.46039">
        <ele>435</ele>
        <time>2021-04-03T13:55:24.602Z</time>
      </trkpt>
      <trkpt lat="45.58538" lon="5.46035">
        <ele>435</ele>
        <time>2021-04-03T13:55:25.602Z</time>
      </trkpt>
      <trkpt lat="45.58542" lon="5.46031">
        <ele>436</ele>
        <time>2021-04-03T13:55:26.602Z</time>
      </trkpt>
      <trkpt lat="45.58546" lon="5.46027">
        <ele>437</ele>
        <time>2021-04-03T13:55:27.602Z</time>
      </trkpt>
      <trkpt lat="45.5855" lon="5.46023">
        <ele>437</ele>
        <time>2021-04-03T13:55:28.602Z</time>
      </trkpt>
      <trkpt lat="45.58553" lon="5.46019">
        <ele>436</ele>
        <time>2021-04-03T13:55:29.602Z</time>
      </trkpt>
      <trkpt lat="45.58557" lon="5.46015">
        <ele>436</ele>
        <time>2021-04-03T13:55:30.602Z</time>
      </trkpt>
      <trkpt lat="45.5856" lon="5.4601">
        <ele>436</ele>
        <time>2021-04-03T13:55:31.602Z</time>
      </trkpt>
      <trkpt lat="45.58564" lon="5.46006">
        <ele>436</ele>
        <time>2021-04-03T13:55:32.602Z</time>
      </trkpt>
      <trkpt lat="45.58567" lon="5.46001">
        <ele>436</ele>
        <time>2021-04-03T13:55:33.602Z</time>
      </trkpt>
      <trkpt lat="45.58571" lon="5.45997">
        <ele>436</ele>
        <time>2021-04-03T13:55:34.601Z</time>
      </trkpt>
      <trkpt lat="45.58574" lon="5.45993">
        <ele>435</ele>
        <time>2021-04-03T13:55:35.601Z</time>
      </trkpt>
      <trkpt lat="45.58578" lon="5.45989">
        <ele>435</ele>
        <time>2021-04-03T13:55:36.602Z</time>
      </trkpt>
      <trkpt lat="45.58582" lon="5.45985">
        <ele>435</ele>
        <time>2021-04-03T13:55:37.602Z</time>
      </trkpt>
      <trkpt lat="45.58585" lon="5.45981">
        <ele>434</ele>
        <time>2021-04-03T13:55:38.602Z</time>
      </trkpt>
      <trkpt lat="45.58589" lon="5.45977">
        <ele>434</ele>
        <time>2021-04-03T13:55:39.601Z</time>
      </trkpt>
      <trkpt lat="45.58592" lon="5.45973">
        <ele>434</ele>
        <time>2021-04-03T13:55:40.602Z</time>
      </trkpt>
      <trkpt lat="45.58595" lon="5.4597">
        <ele>433</ele>
        <time>2021-04-03T13:55:41.601Z</time>
      </trkpt>
      <trkpt lat="45.58599" lon="5.45966">
        <ele>433</ele>
        <time>2021-04-03T13:55:42.602Z</time>
      </trkpt>
      <trkpt lat="45.58603" lon="5.45963">
        <ele>433</ele>
        <time>2021-04-03T13:55:43.602Z</time>
      </trkpt>
      <trkpt lat="45.58606" lon="5.45959">
        <ele>432</ele>
        <time>2021-04-03T13:55:44.601Z</time>
      </trkpt>
      <trkpt lat="45.58609" lon="5.45955">
        <ele>432</ele>
        <time>2021-04-03T13:55:45.602Z</time>
      </trkpt>
      <trkpt lat="45.58613" lon="5.45952">
        <ele>432</ele>
        <time>2021-04-03T13:55:46.601Z</time>
      </trkpt>
      <trkpt lat="45.58616" lon="5.45948">
        <ele>432</ele>
        <time>2021-04-03T13:55:47.601Z</time>
      </trkpt>
      <trkpt lat="45.5862" lon="5.45944">
        <ele>432</ele>
        <time>2021-04-03T13:55:48.602Z</time>
      </trkpt>
      <trkpt lat="45.58623" lon="5.45941">
        <ele>432</ele>
        <time>2021-04-03T13:55:49.601Z</time>
      </trkpt>
      <trkpt lat="45.58626" lon="5.45937">
        <ele>432</ele>
        <time>2021-04-03T13:55:50.602Z</time>
      </trkpt>
      <trkpt lat="45.5863" lon="5.45932">
        <ele>431</ele>
        <time>2021-04-03T13:55:51.602Z</time>
      </trkpt>
      <trkpt lat="45.58633" lon="5.45928">
        <ele>430</ele>
        <time>2021-04-03T13:55:52.602Z</time>
      </trkpt>
      <trkpt lat="45.58636" lon="5.45923">
        <ele>429</ele>
        <time>2021-04-03T13:55:53.602Z</time>
      </trkpt>
      <trkpt lat="45.58639" lon="5.45918">
        <ele>428</ele>
        <time>2021-04-03T13:55:54.601Z</time>
      </trkpt>
      <trkpt lat="45.58643" lon="5.45914">
        <ele>427</ele>
        <time>2021-04-03T13:55:55.602Z</time>
      </trkpt>
      <trkpt lat="45.58646" lon="5.45909">
        <ele>427</ele>
        <time>2021-04-03T13:55:56.601Z</time>
      </trkpt>
      <trkpt lat="45.5865" lon="5.45905">
        <ele>426</ele>
        <time>2021-04-03T13:55:57.601Z</time>
      </trkpt>
      <trkpt lat="45.58653" lon="5.459">
        <ele>426</ele>
        <time>2021-04-03T13:55:58.602Z</time>
      </trkpt>
      <trkpt lat="45.58657" lon="5.45896">
        <ele>426</ele>
        <time>2021-04-03T13:55:59.602Z</time>
      </trkpt>
      <trkpt lat="45.58661" lon="5.45891">
        <ele>426</ele>
        <time>2021-04-03T13:56:00.601Z</time>
      </trkpt>
      <trkpt lat="45.58664" lon="5.45886">
        <ele>426</ele>
        <time>2021-04-03T13:56:01.602Z</time>
      </trkpt>
      <trkpt lat="45.58668" lon="5.4588">
        <ele>425</ele>
        <time>2021-04-03T13:56:02.601Z</time>
      </trkpt>
      <trkpt lat="45.58671" lon="5.45875">
        <ele>426</ele>
        <time>2021-04-03T13:56:03.602Z</time>
      </trkpt>
      <trkpt lat="45.58675" lon="5.4587">
        <ele>426</ele>
        <time>2021-04-03T13:56:04.602Z</time>
      </trkpt>
      <trkpt lat="45.58679" lon="5.45866">
        <ele>426</ele>
        <time>2021-04-03T13:56:05.602Z</time>
      </trkpt>
      <trkpt lat="45.58682" lon="5.45861">
        <ele>426</ele>
        <time>2021-04-03T13:56:06.601Z</time>
      </trkpt>
      <trkpt lat="45.58687" lon="5.45856">
        <ele>426</ele>
        <time>2021-04-03T13:56:07.602Z</time>
      </trkpt>
      <trkpt lat="45.5869" lon="5.45851">
        <ele>426</ele>
        <time>2021-04-03T13:56:08.602Z</time>
      </trkpt>
      <trkpt lat="45.58693" lon="5.45847">
        <ele>426</ele>
        <time>2021-04-03T13:56:09.602Z</time>
      </trkpt>
      <trkpt lat="45.58695" lon="5.45844">
        <ele>426</ele>
        <time>2021-04-03T13:56:10.602Z</time>
      </trkpt>
      <trkpt lat="45.58698" lon="5.45841">
        <ele>427</ele>
        <time>2021-04-03T13:56:11.602Z</time>
      </trkpt>
      <trkpt lat="45.58699" lon="5.45839">
        <ele>427</ele>
        <time>2021-04-03T13:56:12.602Z</time>
      </trkpt>
      <trkpt lat="45.587" lon="5.45837">
        <ele>427</ele>
        <time>2021-04-03T13:56:13.602Z</time>
      </trkpt>
      <trkpt lat="45.58702" lon="5.45835">
        <ele>427</ele>
        <time>2021-04-03T13:56:14.602Z</time>
      </trkpt>
      <trkpt lat="45.58702" lon="5.45835">
        <ele>428</ele>
        <time>2021-04-03T13:56:15.602Z</time>
      </trkpt>
      <trkpt lat="45.58703" lon="5.45834">
        <ele>428</ele>
        <time>2021-04-03T13:56:16.602Z</time>
      </trkpt>
      <trkpt lat="45.58703" lon="5.45834">
        <ele>428</ele>
        <time>2021-04-03T13:56:17.602Z</time>
      </trkpt>
      <trkpt lat="45.58702" lon="5.45834">
        <ele>428</ele>
        <time>2021-04-03T13:56:18.602Z</time>
      </trkpt>
      <trkpt lat="45.58702" lon="5.45834">
        <ele>428</ele>
        <time>2021-04-03T13:56:19.602Z</time>
      </trkpt>
      <trkpt lat="45.58704" lon="5.45834">
        <ele>428</ele>
        <time>2021-04-03T13:56:20.603Z</time>
      </trkpt>
      <trkpt lat="45.58705" lon="5.45834">
        <ele>428</ele>
        <time>2021-04-03T13:56:21.603Z</time>
      </trkpt>
      <trkpt lat="45.58707" lon="5.45833">
        <ele>429</ele>
        <time>2021-04-03T13:56:22.602Z</time>
      </trkpt>
      <trkpt lat="45.58708" lon="5.45832">
        <ele>429</ele>
        <time>2021-04-03T13:56:23.603Z</time>
      </trkpt>
      <trkpt lat="45.58709" lon="5.45829">
        <ele>429</ele>
        <time>2021-04-03T13:56:24.603Z</time>
      </trkpt>
      <trkpt lat="45.58709" lon="5.45826">
        <ele>429</ele>
        <time>2021-04-03T13:56:25.603Z</time>
      </trkpt>
      <trkpt lat="45.58709" lon="5.45822">
        <ele>429</ele>
        <time>2021-04-03T13:56:26.603Z</time>
      </trkpt>
      <trkpt lat="45.58708" lon="5.45819">
        <ele>429</ele>
        <time>2021-04-03T13:56:27.603Z</time>
      </trkpt>
      <trkpt lat="45.58707" lon="5.45815">
        <ele>429</ele>
        <time>2021-04-03T13:56:28.603Z</time>
      </trkpt>
      <trkpt lat="45.58706" lon="5.4581">
        <ele>429</ele>
        <time>2021-04-03T13:56:29.603Z</time>
      </trkpt>
      <trkpt lat="45.58704" lon="5.45805">
        <ele>429</ele>
        <time>2021-04-03T13:56:30.603Z</time>
      </trkpt>
      <trkpt lat="45.58703" lon="5.45799">
        <ele>429</ele>
        <time>2021-04-03T13:56:31.603Z</time>
      </trkpt>
      <trkpt lat="45.58701" lon="5.45793">
        <ele>429</ele>
        <time>2021-04-03T13:56:32.603Z</time>
      </trkpt>
      <trkpt lat="45.58699" lon="5.45787">
        <ele>429</ele>
        <time>2021-04-03T13:56:33.603Z</time>
      </trkpt>
      <trkpt lat="45.58697" lon="5.45781">
        <ele>430</ele>
        <time>2021-04-03T13:56:34.602Z</time>
      </trkpt>
      <trkpt lat="45.58696" lon="5.45776">
        <ele>430</ele>
        <time>2021-04-03T13:56:35.603Z</time>
      </trkpt>
      <trkpt lat="45.58694" lon="5.4577">
        <ele>430</ele>
        <time>2021-04-03T13:56:36.603Z</time>
      </trkpt>
      <trkpt lat="45.58691" lon="5.45764">
        <ele>430</ele>
        <time>2021-04-03T13:56:37.603Z</time>
      </trkpt>
      <trkpt lat="45.58688" lon="5.45757">
        <ele>430</ele>
        <time>2021-04-03T13:56:38.603Z</time>
      </trkpt>
      <trkpt lat="45.58686" lon="5.4575">
        <ele>430</ele>
        <time>2021-04-03T13:56:39.603Z</time>
      </trkpt>
      <trkpt lat="45.58683" lon="5.45743">
        <ele>430</ele>
        <time>2021-04-03T13:56:40.603Z</time>
      </trkpt>
      <trkpt lat="45.5868" lon="5.45736">
        <ele>430</ele>
        <time>2021-04-03T13:56:41.603Z</time>
      </trkpt>
      <trkpt lat="45.58677" lon="5.45728">
        <ele>430</ele>
        <time>2021-04-03T13:56:42.602Z</time>
      </trkpt>
      <trkpt lat="45.58674" lon="5.45719">
        <ele>430</ele>
        <time>2021-04-03T13:56:43.603Z</time>
      </trkpt>
      <trkpt lat="45.58671" lon="5.45711">
        <ele>430</ele>
        <time>2021-04-03T13:56:44.603Z</time>
      </trkpt>
      <trkpt lat="45.58668" lon="5.45703">
        <ele>429</ele>
        <time>2021-04-03T13:56:45.603Z</time>
      </trkpt>
      <trkpt lat="45.58666" lon="5.45696">
        <ele>429</ele>
        <time>2021-04-03T13:56:46.603Z</time>
      </trkpt>
      <trkpt lat="45.58663" lon="5.45688">
        <ele>429</ele>
        <time>2021-04-03T13:56:47.602Z</time>
      </trkpt>
      <trkpt lat="45.5866" lon="5.45676">
        <ele>428</ele>
        <time>2021-04-03T13:56:48.603Z</time>
      </trkpt>
      <trkpt lat="45.58657" lon="5.45669">
        <ele>428</ele>
        <time>2021-04-03T13:56:49.603Z</time>
      </trkpt>
      <trkpt lat="45.58655" lon="5.45659">
        <ele>428</ele>
        <time>2021-04-03T13:56:50.602Z</time>
      </trkpt>
      <trkpt lat="45.58652" lon="5.45649">
        <ele>428</ele>
        <time>2021-04-03T13:56:51.603Z</time>
      </trkpt>
      <trkpt lat="45.58649" lon="5.45639">
        <ele>427</ele>
        <time>2021-04-03T13:56:52.603Z</time>
      </trkpt>
      <trkpt lat="45.58647" lon="5.4563">
        <ele>427</ele>
        <time>2021-04-03T13:56:53.603Z</time>
      </trkpt>
      <trkpt lat="45.58645" lon="5.45619">
        <ele>427</ele>
        <time>2021-04-03T13:56:54.603Z</time>
      </trkpt>
      <trkpt lat="45.58643" lon="5.45612">
        <ele>427</ele>
        <time>2021-04-03T13:56:55.602Z</time>
      </trkpt>
      <trkpt lat="45.58642" lon="5.45603">
        <ele>427</ele>
        <time>2021-04-03T13:56:56.603Z</time>
      </trkpt>
      <trkpt lat="45.58641" lon="5.45595">
        <ele>427</ele>
        <time>2021-04-03T13:56:57.603Z</time>
      </trkpt>
      <trkpt lat="45.58639" lon="5.45587">
        <ele>427</ele>
        <time>2021-04-03T13:56:58.603Z</time>
      </trkpt>
      <trkpt lat="45.58638" lon="5.45579">
        <ele>427</ele>
        <time>2021-04-03T13:56:59.603Z</time>
      </trkpt>
      <trkpt lat="45.58637" lon="5.45573">
        <ele>427</ele>
        <time>2021-04-03T13:57:00.603Z</time>
      </trkpt>
      <trkpt lat="45.58636" lon="5.45567">
        <ele>427</ele>
        <time>2021-04-03T13:57:01.603Z</time>
      </trkpt>
      <trkpt lat="45.58635" lon="5.45561">
        <ele>427</ele>
        <time>2021-04-03T13:57:02.603Z</time>
      </trkpt>
      <trkpt lat="45.58634" lon="5.45556">
        <ele>427</ele>
        <time>2021-04-03T13:57:03.602Z</time>
      </trkpt>
      <trkpt lat="45.58633" lon="5.45552">
        <ele>427</ele>
        <time>2021-04-03T13:57:04.603Z</time>
      </trkpt>
      <trkpt lat="45.58633" lon="5.45547">
        <ele>426</ele>
        <time>2021-04-03T13:57:05.603Z</time>
      </trkpt>
      <trkpt lat="45.58632" lon="5.45542">
        <ele>426</ele>
        <time>2021-04-03T13:57:06.602Z</time>
      </trkpt>
      <trkpt lat="45.58631" lon="5.45536">
        <ele>426</ele>
        <time>2021-04-03T13:57:07.603Z</time>
      </trkpt>
      <trkpt lat="45.58631" lon="5.45529">
        <ele>427</ele>
        <time>2021-04-03T13:57:08.603Z</time>
      </trkpt>
      <trkpt lat="45.5863" lon="5.45522">
        <ele>427</ele>
        <time>2021-04-03T13:57:09.603Z</time>
      </trkpt>
      <trkpt lat="45.58629" lon="5.45515">
        <ele>427</ele>
        <time>2021-04-03T13:57:10.602Z</time>
      </trkpt>
      <trkpt lat="45.58629" lon="5.45507">
        <ele>426</ele>
        <time>2021-04-03T13:57:11.603Z</time>
      </trkpt>
      <trkpt lat="45.58628" lon="5.455">
        <ele>426</ele>
        <time>2021-04-03T13:57:12.603Z</time>
      </trkpt>
      <trkpt lat="45.58628" lon="5.45493">
        <ele>426</ele>
        <time>2021-04-03T13:57:13.602Z</time>
      </trkpt>
      <trkpt lat="45.58627" lon="5.45485">
        <ele>425</ele>
        <time>2021-04-03T13:57:14.602Z</time>
      </trkpt>
      <trkpt lat="45.58627" lon="5.45478">
        <ele>425</ele>
        <time>2021-04-03T13:57:15.603Z</time>
      </trkpt>
      <trkpt lat="45.58626" lon="5.45471">
        <ele>425</ele>
        <time>2021-04-03T13:57:16.603Z</time>
      </trkpt>
      <trkpt lat="45.58625" lon="5.45464">
        <ele>425</ele>
        <time>2021-04-03T13:57:17.603Z</time>
      </trkpt>
      <trkpt lat="45.58625" lon="5.45457">
        <ele>425</ele>
        <time>2021-04-03T13:57:18.602Z</time>
      </trkpt>
      <trkpt lat="45.58624" lon="5.4545">
        <ele>426</ele>
        <time>2021-04-03T13:57:19.602Z</time>
      </trkpt>
      <trkpt lat="45.58623" lon="5.45443">
        <ele>426</ele>
        <time>2021-04-03T13:57:20.603Z</time>
      </trkpt>
      <trkpt lat="45.58623" lon="5.45436">
        <ele>426</ele>
        <time>2021-04-03T13:57:21.603Z</time>
      </trkpt>
      <trkpt lat="45.58622" lon="5.45429">
        <ele>426</ele>
        <time>2021-04-03T13:57:22.603Z</time>
      </trkpt>
      <trkpt lat="45.58622" lon="5.45423">
        <ele>426</ele>
        <time>2021-04-03T13:57:23.603Z</time>
      </trkpt>
      <trkpt lat="45.58621" lon="5.45416">
        <ele>426</ele>
        <time>2021-04-03T13:57:24.603Z</time>
      </trkpt>
      <trkpt lat="45.58619" lon="5.4541">
        <ele>426</ele>
        <time>2021-04-03T13:57:25.603Z</time>
      </trkpt>
      <trkpt lat="45.58618" lon="5.45404">
        <ele>426</ele>
        <time>2021-04-03T13:57:26.603Z</time>
      </trkpt>
      <trkpt lat="45.58617" lon="5.45398">
        <ele>426</ele>
        <time>2021-04-03T13:57:27.603Z</time>
      </trkpt>
      <trkpt lat="45.58615" lon="5.45393">
        <ele>426</ele>
        <time>2021-04-03T13:57:28.602Z</time>
      </trkpt>
      <trkpt lat="45.58614" lon="5.45387">
        <ele>426</ele>
        <time>2021-04-03T13:57:29.603Z</time>
      </trkpt>
      <trkpt lat="45.58612" lon="5.45382">
        <ele>426</ele>
        <time>2021-04-03T13:57:30.603Z</time>
      </trkpt>
      <trkpt lat="45.5861" lon="5.45377">
        <ele>427</ele>
        <time>2021-04-03T13:57:31.603Z</time>
      </trkpt>
      <trkpt lat="45.58608" lon="5.45372">
        <ele>427</ele>
        <time>2021-04-03T13:57:32.603Z</time>
      </trkpt>
      <trkpt lat="45.58606" lon="5.45367">
        <ele>428</ele>
        <time>2021-04-03T13:57:33.602Z</time>
      </trkpt>
      <trkpt lat="45.58603" lon="5.45361">
        <ele>429</ele>
        <time>2021-04-03T13:57:34.603Z</time>
      </trkpt>
      <trkpt lat="45.586" lon="5.45357">
        <ele>429</ele>
        <time>2021-04-03T13:57:35.603Z</time>
      </trkpt>
      <trkpt lat="45.58597" lon="5.45352">
        <ele>429</ele>
        <time>2021-04-03T13:57:36.603Z</time>
      </trkpt>
      <trkpt lat="45.58594" lon="5.45347">
        <ele>429</ele>
        <time>2021-04-03T13:57:37.603Z</time>
      </trkpt>
      <trkpt lat="45.58591" lon="5.45343">
        <ele>429</ele>
        <time>2021-04-03T13:57:38.602Z</time>
      </trkpt>
      <trkpt lat="45.58587" lon="5.45338">
        <ele>430</ele>
        <time>2021-04-03T13:57:39.603Z</time>
      </trkpt>
      <trkpt lat="45.58584" lon="5.45333">
        <ele>430</ele>
        <time>2021-04-03T13:57:40.602Z</time>
      </trkpt>
      <trkpt lat="45.58581" lon="5.45328">
        <ele>430</ele>
        <time>2021-04-03T13:57:41.603Z</time>
      </trkpt>
      <trkpt lat="45.58578" lon="5.45323">
        <ele>431</ele>
        <time>2021-04-03T13:57:42.602Z</time>
      </trkpt>
      <trkpt lat="45.58574" lon="5.45318">
        <ele>431</ele>
        <time>2021-04-03T13:57:43.603Z</time>
      </trkpt>
      <trkpt lat="45.58571" lon="5.45313">
        <ele>431</ele>
        <time>2021-04-03T13:57:44.603Z</time>
      </trkpt>
      <trkpt lat="45.58568" lon="5.45309">
        <ele>431</ele>
        <time>2021-04-03T13:57:45.602Z</time>
      </trkpt>
      <trkpt lat="45.58564" lon="5.45304">
        <ele>432</ele>
        <time>2021-04-03T13:57:46.603Z</time>
      </trkpt>
      <trkpt lat="45.58561" lon="5.45299">
        <ele>432</ele>
        <time>2021-04-03T13:57:47.603Z</time>
      </trkpt>
      <trkpt lat="45.58557" lon="5.45295">
        <ele>432</ele>
        <time>2021-04-03T13:57:48.603Z</time>
      </trkpt>
      <trkpt lat="45.58554" lon="5.4529">
        <ele>432</ele>
        <time>2021-04-03T13:57:49.602Z</time>
      </trkpt>
      <trkpt lat="45.58551" lon="5.45285">
        <ele>432</ele>
        <time>2021-04-03T13:57:50.603Z</time>
      </trkpt>
      <trkpt lat="45.58548" lon="5.45279">
        <ele>432</ele>
        <time>2021-04-03T13:57:51.602Z</time>
      </trkpt>
      <trkpt lat="45.58545" lon="5.45274">
        <ele>433</ele>
        <time>2021-04-03T13:57:52.603Z</time>
      </trkpt>
      <trkpt lat="45.58543" lon="5.45268">
        <ele>433</ele>
        <time>2021-04-03T13:57:53.603Z</time>
      </trkpt>
      <trkpt lat="45.5854" lon="5.45262">
        <ele>434</ele>
        <time>2021-04-03T13:57:54.603Z</time>
      </trkpt>
      <trkpt lat="45.58537" lon="5.45257">
        <ele>434</ele>
        <time>2021-04-03T13:57:55.603Z</time>
      </trkpt>
      <trkpt lat="45.58535" lon="5.45251">
        <ele>435</ele>
        <time>2021-04-03T13:57:56.603Z</time>
      </trkpt>
      <trkpt lat="45.58532" lon="5.45245">
        <ele>435</ele>
        <time>2021-04-03T13:57:57.603Z</time>
      </trkpt>
      <trkpt lat="45.5853" lon="5.45239">
        <ele>436</ele>
        <time>2021-04-03T13:57:58.603Z</time>
      </trkpt>
      <trkpt lat="45.58528" lon="5.45234">
        <ele>436</ele>
        <time>2021-04-03T13:57:59.603Z</time>
      </trkpt>
      <trkpt lat="45.58526" lon="5.45228">
        <ele>436</ele>
        <time>2021-04-03T13:58:00.603Z</time>
      </trkpt>
      <trkpt lat="45.58524" lon="5.45223">
        <ele>437</ele>
        <time>2021-04-03T13:58:01.603Z</time>
      </trkpt>
      <trkpt lat="45.58522" lon="5.45217">
        <ele>437</ele>
        <time>2021-04-03T13:58:02.603Z</time>
      </trkpt>
      <trkpt lat="45.5852" lon="5.45211">
        <ele>438</ele>
        <time>2021-04-03T13:58:03.602Z</time>
      </trkpt>
      <trkpt lat="45.58519" lon="5.45205">
        <ele>438</ele>
        <time>2021-04-03T13:58:04.602Z</time>
      </trkpt>
      <trkpt lat="45.58517" lon="5.45199">
        <ele>438</ele>
        <time>2021-04-03T13:58:05.602Z</time>
      </trkpt>
      <trkpt lat="45.58516" lon="5.45194">
        <ele>437</ele>
        <time>2021-04-03T13:58:06.603Z</time>
      </trkpt>
      <trkpt lat="45.58515" lon="5.45188">
        <ele>437</ele>
        <time>2021-04-03T13:58:07.603Z</time>
      </trkpt>
      <trkpt lat="45.58513" lon="5.45183">
        <ele>436</ele>
        <time>2021-04-03T13:58:08.602Z</time>
      </trkpt>
      <trkpt lat="45.58512" lon="5.45178">
        <ele>436</ele>
        <time>2021-04-03T13:58:09.603Z</time>
      </trkpt>
      <trkpt lat="45.58511" lon="5.45173">
        <ele>435</ele>
        <time>2021-04-03T13:58:10.602Z</time>
      </trkpt>
      <trkpt lat="45.5851" lon="5.45167">
        <ele>435</ele>
        <time>2021-04-03T13:58:11.603Z</time>
      </trkpt>
      <trkpt lat="45.58509" lon="5.45162">
        <ele>434</ele>
        <time>2021-04-03T13:58:12.603Z</time>
      </trkpt>
      <trkpt lat="45.58508" lon="5.45157">
        <ele>434</ele>
        <time>2021-04-03T13:58:13.603Z</time>
      </trkpt>
      <trkpt lat="45.58507" lon="5.45153">
        <ele>434</ele>
        <time>2021-04-03T13:58:14.603Z</time>
      </trkpt>
      <trkpt lat="45.58506" lon="5.45148">
        <ele>434</ele>
        <time>2021-04-03T13:58:15.602Z</time>
      </trkpt>
      <trkpt lat="45.58506" lon="5.45143">
        <ele>433</ele>
        <time>2021-04-03T13:58:16.603Z</time>
      </trkpt>
      <trkpt lat="45.58505" lon="5.45139">
        <ele>434</ele>
        <time>2021-04-03T13:58:17.603Z</time>
      </trkpt>
      <trkpt lat="45.58505" lon="5.45134">
        <ele>434</ele>
        <time>2021-04-03T13:58:18.603Z</time>
      </trkpt>
      <trkpt lat="45.58504" lon="5.45129">
        <ele>434</ele>
        <time>2021-04-03T13:58:19.602Z</time>
      </trkpt>
      <trkpt lat="45.58503" lon="5.45124">
        <ele>435</ele>
        <time>2021-04-03T13:58:20.603Z</time>
      </trkpt>
      <trkpt lat="45.58502" lon="5.4512">
        <ele>435</ele>
        <time>2021-04-03T13:58:21.603Z</time>
      </trkpt>
      <trkpt lat="45.58501" lon="5.45115">
        <ele>436</ele>
        <time>2021-04-03T13:58:22.603Z</time>
      </trkpt>
      <trkpt lat="45.585" lon="5.4511">
        <ele>435</ele>
        <time>2021-04-03T13:58:23.603Z</time>
      </trkpt>
      <trkpt lat="45.58499" lon="5.45105">
        <ele>436</ele>
        <time>2021-04-03T13:58:24.603Z</time>
      </trkpt>
      <trkpt lat="45.58498" lon="5.451">
        <ele>436</ele>
        <time>2021-04-03T13:58:25.603Z</time>
      </trkpt>
      <trkpt lat="45.58497" lon="5.45095">
        <ele>436</ele>
        <time>2021-04-03T13:58:26.603Z</time>
      </trkpt>
      <trkpt lat="45.58496" lon="5.45091">
        <ele>436</ele>
        <time>2021-04-03T13:58:27.603Z</time>
      </trkpt>
      <trkpt lat="45.58495" lon="5.45086">
        <ele>436</ele>
        <time>2021-04-03T13:58:28.603Z</time>
      </trkpt>
      <trkpt lat="45.58495" lon="5.45081">
        <ele>436</ele>
        <time>2021-04-03T13:58:29.603Z</time>
      </trkpt>
      <trkpt lat="45.58494" lon="5.45076">
        <ele>435</ele>
        <time>2021-04-03T13:58:30.603Z</time>
      </trkpt>
      <trkpt lat="45.58493" lon="5.45071">
        <ele>435</ele>
        <time>2021-04-03T13:58:31.603Z</time>
      </trkpt>
      <trkpt lat="45.58492" lon="5.45066">
        <ele>434</ele>
        <time>2021-04-03T13:58:32.603Z</time>
      </trkpt>
      <trkpt lat="45.58491" lon="5.45061">
        <ele>434</ele>
        <time>2021-04-03T13:58:33.603Z</time>
      </trkpt>
      <trkpt lat="45.5849" lon="5.45056">
        <ele>434</ele>
        <time>2021-04-03T13:58:34.603Z</time>
      </trkpt>
      <trkpt lat="45.58489" lon="5.45051">
        <ele>434</ele>
        <time>2021-04-03T13:58:35.603Z</time>
      </trkpt>
      <trkpt lat="45.58489" lon="5.45046">
        <ele>435</ele>
        <time>2021-04-03T13:58:36.603Z</time>
      </trkpt>
      <trkpt lat="45.58488" lon="5.4504">
        <ele>435</ele>
        <time>2021-04-03T13:58:37.603Z</time>
      </trkpt>
      <trkpt lat="45.58487" lon="5.45035">
        <ele>435</ele>
        <time>2021-04-03T13:58:38.603Z</time>
      </trkpt>
      <trkpt lat="45.58486" lon="5.45029">
        <ele>435</ele>
        <time>2021-04-03T13:58:39.603Z</time>
      </trkpt>
      <trkpt lat="45.58485" lon="5.45024">
        <ele>435</ele>
        <time>2021-04-03T13:58:40.603Z</time>
      </trkpt>
      <trkpt lat="45.58483" lon="5.45018">
        <ele>435</ele>
        <time>2021-04-03T13:58:41.602Z</time>
      </trkpt>
      <trkpt lat="45.58483" lon="5.45012">
        <ele>434</ele>
        <time>2021-04-03T13:58:42.602Z</time>
      </trkpt>
      <trkpt lat="45.58482" lon="5.45006">
        <ele>434</ele>
        <time>2021-04-03T13:58:43.603Z</time>
      </trkpt>
      <trkpt lat="45.58481" lon="5.45">
        <ele>434</ele>
        <time>2021-04-03T13:58:44.603Z</time>
      </trkpt>
      <trkpt lat="45.5848" lon="5.44994">
        <ele>434</ele>
        <time>2021-04-03T13:58:45.603Z</time>
      </trkpt>
      <trkpt lat="45.58479" lon="5.44988">
        <ele>435</ele>
        <time>2021-04-03T13:58:46.603Z</time>
      </trkpt>
      <trkpt lat="45.58478" lon="5.44982">
        <ele>435</ele>
        <time>2021-04-03T13:58:47.603Z</time>
      </trkpt>
      <trkpt lat="45.58477" lon="5.44975">
        <ele>436</ele>
        <time>2021-04-03T13:58:48.603Z</time>
      </trkpt>
      <trkpt lat="45.58476" lon="5.44969">
        <ele>436</ele>
        <time>2021-04-03T13:58:49.603Z</time>
      </trkpt>
      <trkpt lat="45.58475" lon="5.44962">
        <ele>436</ele>
        <time>2021-04-03T13:58:50.603Z</time>
      </trkpt>
      <trkpt lat="45.58474" lon="5.44956">
        <ele>436</ele>
        <time>2021-04-03T13:58:51.603Z</time>
      </trkpt>
      <trkpt lat="45.58474" lon="5.4495">
        <ele>436</ele>
        <time>2021-04-03T13:58:52.603Z</time>
      </trkpt>
      <trkpt lat="45.58473" lon="5.44943">
        <ele>436</ele>
        <time>2021-04-03T13:58:53.603Z</time>
      </trkpt>
      <trkpt lat="45.58472" lon="5.44935">
        <ele>436</ele>
        <time>2021-04-03T13:58:54.603Z</time>
      </trkpt>
      <trkpt lat="45.5847" lon="5.44928">
        <ele>436</ele>
        <time>2021-04-03T13:58:55.602Z</time>
      </trkpt>
      <trkpt lat="45.58469" lon="5.4492">
        <ele>436</ele>
        <time>2021-04-03T13:58:56.603Z</time>
      </trkpt>
      <trkpt lat="45.58467" lon="5.44912">
        <ele>436</ele>
        <time>2021-04-03T13:58:57.603Z</time>
      </trkpt>
      <trkpt lat="45.58466" lon="5.44904">
        <ele>436</ele>
        <time>2021-04-03T13:58:58.603Z</time>
      </trkpt>
      <trkpt lat="45.58464" lon="5.44896">
        <ele>436</ele>
        <time>2021-04-03T13:58:59.603Z</time>
      </trkpt>
      <trkpt lat="45.58463" lon="5.44888">
        <ele>437</ele>
        <time>2021-04-03T13:59:00.602Z</time>
      </trkpt>
      <trkpt lat="45.58461" lon="5.4488">
        <ele>437</ele>
        <time>2021-04-03T13:59:01.603Z</time>
      </trkpt>
      <trkpt lat="45.5846" lon="5.44873">
        <ele>438</ele>
        <time>2021-04-03T13:59:02.602Z</time>
      </trkpt>
      <trkpt lat="45.58459" lon="5.44865">
        <ele>438</ele>
        <time>2021-04-03T13:59:03.603Z</time>
      </trkpt>
      <trkpt lat="45.58457" lon="5.44857">
        <ele>438</ele>
        <time>2021-04-03T13:59:04.603Z</time>
      </trkpt>
      <trkpt lat="45.58455" lon="5.44849">
        <ele>437</ele>
        <time>2021-04-03T13:59:05.602Z</time>
      </trkpt>
      <trkpt lat="45.58453" lon="5.44842">
        <ele>437</ele>
        <time>2021-04-03T13:59:06.603Z</time>
      </trkpt>
      <trkpt lat="45.58451" lon="5.44833">
        <ele>437</ele>
        <time>2021-04-03T13:59:07.603Z</time>
      </trkpt>
      <trkpt lat="45.5845" lon="5.44825">
        <ele>437</ele>
        <time>2021-04-03T13:59:08.603Z</time>
      </trkpt>
      <trkpt lat="45.58448" lon="5.44818">
        <ele>437</ele>
        <time>2021-04-03T13:59:09.602Z</time>
      </trkpt>
      <trkpt lat="45.58447" lon="5.4481">
        <ele>437</ele>
        <time>2021-04-03T13:59:10.603Z</time>
      </trkpt>
      <trkpt lat="45.58446" lon="5.44802">
        <ele>436</ele>
        <time>2021-04-03T13:59:11.603Z</time>
      </trkpt>
      <trkpt lat="45.58444" lon="5.44795">
        <ele>436</ele>
        <time>2021-04-03T13:59:12.603Z</time>
      </trkpt>
      <trkpt lat="45.58442" lon="5.44787">
        <ele>436</ele>
        <time>2021-04-03T13:59:13.603Z</time>
      </trkpt>
      <trkpt lat="45.58441" lon="5.44779">
        <ele>436</ele>
        <time>2021-04-03T13:59:14.603Z</time>
      </trkpt>
      <trkpt lat="45.5844" lon="5.44772">
        <ele>436</ele>
        <time>2021-04-03T13:59:15.603Z</time>
      </trkpt>
      <trkpt lat="45.58439" lon="5.44765">
        <ele>436</ele>
        <time>2021-04-03T13:59:16.603Z</time>
      </trkpt>
      <trkpt lat="45.58438" lon="5.44759">
        <ele>436</ele>
        <time>2021-04-03T13:59:17.602Z</time>
      </trkpt>
      <trkpt lat="45.58437" lon="5.44752">
        <ele>436</ele>
        <time>2021-04-03T13:59:18.603Z</time>
      </trkpt>
      <trkpt lat="45.58436" lon="5.44745">
        <ele>436</ele>
        <time>2021-04-03T13:59:19.603Z</time>
      </trkpt>
      <trkpt lat="45.58436" lon="5.44739">
        <ele>436</ele>
        <time>2021-04-03T13:59:20.603Z</time>
      </trkpt>
      <trkpt lat="45.58435" lon="5.44733">
        <ele>436</ele>
        <time>2021-04-03T13:59:21.603Z</time>
      </trkpt>
      <trkpt lat="45.58434" lon="5.44726">
        <ele>436</ele>
        <time>2021-04-03T13:59:22.602Z</time>
      </trkpt>
      <trkpt lat="45.58434" lon="5.4472">
        <ele>436</ele>
        <time>2021-04-03T13:59:23.603Z</time>
      </trkpt>
      <trkpt lat="45.58433" lon="5.44714">
        <ele>436</ele>
        <time>2021-04-03T13:59:24.603Z</time>
      </trkpt>
      <trkpt lat="45.58433" lon="5.44708">
        <ele>435</ele>
        <time>2021-04-03T13:59:25.603Z</time>
      </trkpt>
      <trkpt lat="45.58432" lon="5.44701">
        <ele>435</ele>
        <time>2021-04-03T13:59:26.603Z</time>
      </trkpt>
      <trkpt lat="45.58432" lon="5.44695">
        <ele>434</ele>
        <time>2021-04-03T13:59:27.603Z</time>
      </trkpt>
      <trkpt lat="45.58431" lon="5.44688">
        <ele>434</ele>
        <time>2021-04-03T13:59:28.603Z</time>
      </trkpt>
      <trkpt lat="45.5843" lon="5.44681">
        <ele>434</ele>
        <time>2021-04-03T13:59:29.603Z</time>
      </trkpt>
      <trkpt lat="45.5843" lon="5.44674">
        <ele>435</ele>
        <time>2021-04-03T13:59:30.603Z</time>
      </trkpt>
      <trkpt lat="45.58429" lon="5.44667">
        <ele>435</ele>
        <time>2021-04-03T13:59:31.603Z</time>
      </trkpt>
      <trkpt lat="45.58428" lon="5.4466">
        <ele>435</ele>
        <time>2021-04-03T13:59:32.602Z</time>
      </trkpt>
      <trkpt lat="45.58427" lon="5.44653">
        <ele>435</ele>
        <time>2021-04-03T13:59:33.603Z</time>
      </trkpt>
      <trkpt lat="45.58426" lon="5.44646">
        <ele>435</ele>
        <time>2021-04-03T13:59:34.602Z</time>
      </trkpt>
      <trkpt lat="45.58425" lon="5.44639">
        <ele>435</ele>
        <time>2021-04-03T13:59:35.603Z</time>
      </trkpt>
      <trkpt lat="45.58424" lon="5.44632">
        <ele>435</ele>
        <time>2021-04-03T13:59:36.602Z</time>
      </trkpt>
      <trkpt lat="45.58423" lon="5.44625">
        <ele>435</ele>
        <time>2021-04-03T13:59:37.603Z</time>
      </trkpt>
      <trkpt lat="45.58422" lon="5.44618">
        <ele>435</ele>
        <time>2021-04-03T13:59:38.603Z</time>
      </trkpt>
      <trkpt lat="45.58421" lon="5.44611">
        <ele>434</ele>
        <time>2021-04-03T13:59:39.603Z</time>
      </trkpt>
      <trkpt lat="45.58419" lon="5.44603">
        <ele>434</ele>
        <time>2021-04-03T13:59:40.603Z</time>
      </trkpt>
      <trkpt lat="45.58418" lon="5.44596">
        <ele>434</ele>
        <time>2021-04-03T13:59:41.602Z</time>
      </trkpt>
      <trkpt lat="45.58416" lon="5.44589">
        <ele>434</ele>
        <time>2021-04-03T13:59:42.603Z</time>
      </trkpt>
      <trkpt lat="45.58415" lon="5.44582">
        <ele>434</ele>
        <time>2021-04-03T13:59:43.603Z</time>
      </trkpt>
      <trkpt lat="45.58413" lon="5.44575">
        <ele>434</ele>
        <time>2021-04-03T13:59:44.603Z</time>
      </trkpt>
      <trkpt lat="45.58411" lon="5.44568">
        <ele>434</ele>
        <time>2021-04-03T13:59:45.603Z</time>
      </trkpt>
      <trkpt lat="45.5841" lon="5.44561">
        <ele>434</ele>
        <time>2021-04-03T13:59:46.603Z</time>
      </trkpt>
      <trkpt lat="45.58408" lon="5.44554">
        <ele>434</ele>
        <time>2021-04-03T13:59:47.603Z</time>
      </trkpt>
      <trkpt lat="45.58406" lon="5.44546">
        <ele>434</ele>
        <time>2021-04-03T13:59:48.603Z</time>
      </trkpt>
      <trkpt lat="45.58404" lon="5.44539">
        <ele>434</ele>
        <time>2021-04-03T13:59:49.603Z</time>
      </trkpt>
      <trkpt lat="45.58402" lon="5.44531">
        <ele>434</ele>
        <time>2021-04-03T13:59:50.603Z</time>
      </trkpt>
      <trkpt lat="45.584" lon="5.44524">
        <ele>435</ele>
        <time>2021-04-03T13:59:51.602Z</time>
      </trkpt>
      <trkpt lat="45.58398" lon="5.44516">
        <ele>435</ele>
        <time>2021-04-03T13:59:52.603Z</time>
      </trkpt>
      <trkpt lat="45.58396" lon="5.44509">
        <ele>436</ele>
        <time>2021-04-03T13:59:53.603Z</time>
      </trkpt>
      <trkpt lat="45.58394" lon="5.44502">
        <ele>436</ele>
        <time>2021-04-03T13:59:54.603Z</time>
      </trkpt>
      <trkpt lat="45.58392" lon="5.44495">
        <ele>436</ele>
        <time>2021-04-03T13:59:55.603Z</time>
      </trkpt>
      <trkpt lat="45.58389" lon="5.44488">
        <ele>436</ele>
        <time>2021-04-03T13:59:56.603Z</time>
      </trkpt>
      <trkpt lat="45.58387" lon="5.4448">
        <ele>437</ele>
        <time>2021-04-03T13:59:57.603Z</time>
      </trkpt>
      <trkpt lat="45.58384" lon="5.44473">
        <ele>436</ele>
        <time>2021-04-03T13:59:58.602Z</time>
      </trkpt>
      <trkpt lat="45.58381" lon="5.44466">
        <ele>436</ele>
        <time>2021-04-03T13:59:59.603Z</time>
      </trkpt>
      <trkpt lat="45.58378" lon="5.4446">
        <ele>437</ele>
        <time>2021-04-03T14:00:00.603Z</time>
      </trkpt>
      <trkpt lat="45.58375" lon="5.44453">
        <ele>437</ele>
        <time>2021-04-03T14:00:01.603Z</time>
      </trkpt>
      <trkpt lat="45.58372" lon="5.44445">
        <ele>438</ele>
        <time>2021-04-03T14:00:02.603Z</time>
      </trkpt>
      <trkpt lat="45.58369" lon="5.44438">
        <ele>438</ele>
        <time>2021-04-03T14:00:03.603Z</time>
      </trkpt>
      <trkpt lat="45.58366" lon="5.44431">
        <ele>437</ele>
        <time>2021-04-03T14:00:04.603Z</time>
      </trkpt>
      <trkpt lat="45.58363" lon="5.44423">
        <ele>437</ele>
        <time>2021-04-03T14:00:05.602Z</time>
      </trkpt>
      <trkpt lat="45.5836" lon="5.44415">
        <ele>437</ele>
        <time>2021-04-03T14:00:06.602Z</time>
      </trkpt>
      <trkpt lat="45.58357" lon="5.44407">
        <ele>437</ele>
        <time>2021-04-03T14:00:07.603Z</time>
      </trkpt>
      <trkpt lat="45.58352" lon="5.44397">
        <ele>437</ele>
        <time>2021-04-03T14:00:08.602Z</time>
      </trkpt>
      <trkpt lat="45.58349" lon="5.44391">
        <ele>437</ele>
        <time>2021-04-03T14:00:09.603Z</time>
      </trkpt>
      <trkpt lat="45.58346" lon="5.44383">
        <ele>437</ele>
        <time>2021-04-03T14:00:10.603Z</time>
      </trkpt>
      <trkpt lat="45.58342" lon="5.44376">
        <ele>436</ele>
        <time>2021-04-03T14:00:11.602Z</time>
      </trkpt>
      <trkpt lat="45.58338" lon="5.44369">
        <ele>437</ele>
        <time>2021-04-03T14:00:12.602Z</time>
      </trkpt>
      <trkpt lat="45.58334" lon="5.44362">
        <ele>437</ele>
        <time>2021-04-03T14:00:13.603Z</time>
      </trkpt>
      <trkpt lat="45.5833" lon="5.44355">
        <ele>437</ele>
        <time>2021-04-03T14:00:14.602Z</time>
      </trkpt>
      <trkpt lat="45.58326" lon="5.44348">
        <ele>437</ele>
        <time>2021-04-03T14:00:15.602Z</time>
      </trkpt>
      <trkpt lat="45.58322" lon="5.44341">
        <ele>436</ele>
        <time>2021-04-03T14:00:16.603Z</time>
      </trkpt>
      <trkpt lat="45.58317" lon="5.44334">
        <ele>435</ele>
        <time>2021-04-03T14:00:17.603Z</time>
      </trkpt>
      <trkpt lat="45.58313" lon="5.44329">
        <ele>435</ele>
        <time>2021-04-03T14:00:18.603Z</time>
      </trkpt>
      <trkpt lat="45.58308" lon="5.44322">
        <ele>434</ele>
        <time>2021-04-03T14:00:19.602Z</time>
      </trkpt>
      <trkpt lat="45.58304" lon="5.44316">
        <ele>434</ele>
        <time>2021-04-03T14:00:20.602Z</time>
      </trkpt>
      <trkpt lat="45.58299" lon="5.4431">
        <ele>434</ele>
        <time>2021-04-03T14:00:21.603Z</time>
      </trkpt>
      <trkpt lat="45.58294" lon="5.44304">
        <ele>434</ele>
        <time>2021-04-03T14:00:22.603Z</time>
      </trkpt>
      <trkpt lat="45.58289" lon="5.44297">
        <ele>434</ele>
        <time>2021-04-03T14:00:23.603Z</time>
      </trkpt>
      <trkpt lat="45.58284" lon="5.44291">
        <ele>435</ele>
        <time>2021-04-03T14:00:24.603Z</time>
      </trkpt>
      <trkpt lat="45.5828" lon="5.44286">
        <ele>435</ele>
        <time>2021-04-03T14:00:25.603Z</time>
      </trkpt>
      <trkpt lat="45.58275" lon="5.44281">
        <ele>435</ele>
        <time>2021-04-03T14:00:26.603Z</time>
      </trkpt>
      <trkpt lat="45.58272" lon="5.44276">
        <ele>435</ele>
        <time>2021-04-03T14:00:27.602Z</time>
      </trkpt>
      <trkpt lat="45.58269" lon="5.44271">
        <ele>435</ele>
        <time>2021-04-03T14:00:28.603Z</time>
      </trkpt>
      <trkpt lat="45.58266" lon="5.44267">
        <ele>435</ele>
        <time>2021-04-03T14:00:29.603Z</time>
      </trkpt>
      <trkpt lat="45.58263" lon="5.44262">
        <ele>435</ele>
        <time>2021-04-03T14:00:30.603Z</time>
      </trkpt>
      <trkpt lat="45.58262" lon="5.44257">
        <ele>435</ele>
        <time>2021-04-03T14:00:31.603Z</time>
      </trkpt>
      <trkpt lat="45.58261" lon="5.44253">
        <ele>434</ele>
        <time>2021-04-03T14:00:32.603Z</time>
      </trkpt>
      <trkpt lat="45.5826" lon="5.44247">
        <ele>434</ele>
        <time>2021-04-03T14:00:33.602Z</time>
      </trkpt>
      <trkpt lat="45.5826" lon="5.44241">
        <ele>434</ele>
        <time>2021-04-03T14:00:34.602Z</time>
      </trkpt>
      <trkpt lat="45.58261" lon="5.44235">
        <ele>434</ele>
        <time>2021-04-03T14:00:35.602Z</time>
      </trkpt>
      <trkpt lat="45.58261" lon="5.44228">
        <ele>434</ele>
        <time>2021-04-03T14:00:36.602Z</time>
      </trkpt>
      <trkpt lat="45.58262" lon="5.4422">
        <ele>434</ele>
        <time>2021-04-03T14:00:37.602Z</time>
      </trkpt>
      <trkpt lat="45.58262" lon="5.44213">
        <ele>434</ele>
        <time>2021-04-03T14:00:38.602Z</time>
      </trkpt>
      <trkpt lat="45.58263" lon="5.44206">
        <ele>435</ele>
        <time>2021-04-03T14:00:39.602Z</time>
      </trkpt>
      <trkpt lat="45.58263" lon="5.44199">
        <ele>435</ele>
        <time>2021-04-03T14:00:40.603Z</time>
      </trkpt>
      <trkpt lat="45.58263" lon="5.44192">
        <ele>436</ele>
        <time>2021-04-03T14:00:41.603Z</time>
      </trkpt>
      <trkpt lat="45.58264" lon="5.44184">
        <ele>435</ele>
        <time>2021-04-03T14:00:42.602Z</time>
      </trkpt>
      <trkpt lat="45.58264" lon="5.44178">
        <ele>435</ele>
        <time>2021-04-03T14:00:43.602Z</time>
      </trkpt>
      <trkpt lat="45.58265" lon="5.44171">
        <ele>436</ele>
        <time>2021-04-03T14:00:44.603Z</time>
      </trkpt>
      <trkpt lat="45.58265" lon="5.44164">
        <ele>436</ele>
        <time>2021-04-03T14:00:45.603Z</time>
      </trkpt>
      <trkpt lat="45.58265" lon="5.44157">
        <ele>436</ele>
        <time>2021-04-03T14:00:46.603Z</time>
      </trkpt>
      <trkpt lat="45.58265" lon="5.44151">
        <ele>436</ele>
        <time>2021-04-03T14:00:47.603Z</time>
      </trkpt>
      <trkpt lat="45.58265" lon="5.44143">
        <ele>436</ele>
        <time>2021-04-03T14:00:48.603Z</time>
      </trkpt>
      <trkpt lat="45.58265" lon="5.44136">
        <ele>436</ele>
        <time>2021-04-03T14:00:49.603Z</time>
      </trkpt>
      <trkpt lat="45.58265" lon="5.44129">
        <ele>436</ele>
        <time>2021-04-03T14:00:50.603Z</time>
      </trkpt>
      <trkpt lat="45.58265" lon="5.44122">
        <ele>436</ele>
        <time>2021-04-03T14:00:51.603Z</time>
      </trkpt>
      <trkpt lat="45.58265" lon="5.44115">
        <ele>436</ele>
        <time>2021-04-03T14:00:52.603Z</time>
      </trkpt>
      <trkpt lat="45.58264" lon="5.44108">
        <ele>436</ele>
        <time>2021-04-03T14:00:53.603Z</time>
      </trkpt>
      <trkpt lat="45.58263" lon="5.441">
        <ele>437</ele>
        <time>2021-04-03T14:00:54.602Z</time>
      </trkpt>
      <trkpt lat="45.58263" lon="5.44093">
        <ele>436</ele>
        <time>2021-04-03T14:00:55.603Z</time>
      </trkpt>
      <trkpt lat="45.58262" lon="5.44086">
        <ele>436</ele>
        <time>2021-04-03T14:00:56.603Z</time>
      </trkpt>
      <trkpt lat="45.58262" lon="5.44079">
        <ele>436</ele>
        <time>2021-04-03T14:00:57.602Z</time>
      </trkpt>
      <trkpt lat="45.58261" lon="5.44072">
        <ele>436</ele>
        <time>2021-04-03T14:00:58.603Z</time>
      </trkpt>
      <trkpt lat="45.5826" lon="5.44063">
        <ele>436</ele>
        <time>2021-04-03T14:00:59.603Z</time>
      </trkpt>
      <trkpt lat="45.5826" lon="5.44057">
        <ele>435</ele>
        <time>2021-04-03T14:01:00.602Z</time>
      </trkpt>
      <trkpt lat="45.58259" lon="5.4405">
        <ele>435</ele>
        <time>2021-04-03T14:01:01.603Z</time>
      </trkpt>
      <trkpt lat="45.58258" lon="5.44041">
        <ele>435</ele>
        <time>2021-04-03T14:01:02.603Z</time>
      </trkpt>
      <trkpt lat="45.58258" lon="5.44034">
        <ele>435</ele>
        <time>2021-04-03T14:01:03.603Z</time>
      </trkpt>
      <trkpt lat="45.58257" lon="5.44028">
        <ele>435</ele>
        <time>2021-04-03T14:01:04.603Z</time>
      </trkpt>
      <trkpt lat="45.58256" lon="5.44021">
        <ele>435</ele>
        <time>2021-04-03T14:01:05.603Z</time>
      </trkpt>
      <trkpt lat="45.58256" lon="5.44014">
        <ele>435</ele>
        <time>2021-04-03T14:01:06.603Z</time>
      </trkpt>
      <trkpt lat="45.58255" lon="5.44006">
        <ele>435</ele>
        <time>2021-04-03T14:01:07.603Z</time>
      </trkpt>
      <trkpt lat="45.58254" lon="5.43998">
        <ele>436</ele>
        <time>2021-04-03T14:01:08.603Z</time>
      </trkpt>
      <trkpt lat="45.58254" lon="5.43991">
        <ele>436</ele>
        <time>2021-04-03T14:01:09.603Z</time>
      </trkpt>
      <trkpt lat="45.58253" lon="5.43983">
        <ele>436</ele>
        <time>2021-04-03T14:01:10.602Z</time>
      </trkpt>
      <trkpt lat="45.58252" lon="5.43973">
        <ele>436</ele>
        <time>2021-04-03T14:01:11.602Z</time>
      </trkpt>
      <trkpt lat="45.58251" lon="5.43965">
        <ele>436</ele>
        <time>2021-04-03T14:01:12.603Z</time>
      </trkpt>
      <trkpt lat="45.58251" lon="5.43959">
        <ele>436</ele>
        <time>2021-04-03T14:01:13.602Z</time>
      </trkpt>
      <trkpt lat="45.5825" lon="5.43951">
        <ele>436</ele>
        <time>2021-04-03T14:01:14.603Z</time>
      </trkpt>
      <trkpt lat="45.58249" lon="5.43943">
        <ele>436</ele>
        <time>2021-04-03T14:01:15.602Z</time>
      </trkpt>
      <trkpt lat="45.58249" lon="5.43935">
        <ele>436</ele>
        <time>2021-04-03T14:01:16.603Z</time>
      </trkpt>
      <trkpt lat="45.58248" lon="5.43927">
        <ele>437</ele>
        <time>2021-04-03T14:01:17.603Z</time>
      </trkpt>
      <trkpt lat="45.58248" lon="5.43918">
        <ele>437</ele>
        <time>2021-04-03T14:01:18.603Z</time>
      </trkpt>
      <trkpt lat="45.58247" lon="5.4391">
        <ele>438</ele>
        <time>2021-04-03T14:01:19.603Z</time>
      </trkpt>
      <trkpt lat="45.58246" lon="5.43901">
        <ele>438</ele>
        <time>2021-04-03T14:01:20.603Z</time>
      </trkpt>
      <trkpt lat="45.58245" lon="5.43893">
        <ele>438</ele>
        <time>2021-04-03T14:01:21.603Z</time>
      </trkpt>
      <trkpt lat="45.58244" lon="5.43884">
        <ele>438</ele>
        <time>2021-04-03T14:01:22.603Z</time>
      </trkpt>
      <trkpt lat="45.58244" lon="5.43876">
        <ele>438</ele>
        <time>2021-04-03T14:01:23.602Z</time>
      </trkpt>
      <trkpt lat="45.58243" lon="5.43868">
        <ele>437</ele>
        <time>2021-04-03T14:01:24.602Z</time>
      </trkpt>
      <trkpt lat="45.58242" lon="5.4386">
        <ele>437</ele>
        <time>2021-04-03T14:01:25.603Z</time>
      </trkpt>
      <trkpt lat="45.58242" lon="5.4385">
        <ele>438</ele>
        <time>2021-04-03T14:01:26.603Z</time>
      </trkpt>
      <trkpt lat="45.58241" lon="5.43843">
        <ele>438</ele>
        <time>2021-04-03T14:01:27.603Z</time>
      </trkpt>
      <trkpt lat="45.5824" lon="5.43835">
        <ele>439</ele>
        <time>2021-04-03T14:01:28.603Z</time>
      </trkpt>
      <trkpt lat="45.58239" lon="5.43828">
        <ele>439</ele>
        <time>2021-04-03T14:01:29.603Z</time>
      </trkpt>
      <trkpt lat="45.58238" lon="5.4382">
        <ele>439</ele>
        <time>2021-04-03T14:01:30.603Z</time>
      </trkpt>
      <trkpt lat="45.58237" lon="5.43813">
        <ele>439</ele>
        <time>2021-04-03T14:01:31.602Z</time>
      </trkpt>
      <trkpt lat="45.58236" lon="5.43805">
        <ele>438</ele>
        <time>2021-04-03T14:01:32.602Z</time>
      </trkpt>
      <trkpt lat="45.58235" lon="5.43796">
        <ele>438</ele>
        <time>2021-04-03T14:01:33.602Z</time>
      </trkpt>
      <trkpt lat="45.58235" lon="5.4379">
        <ele>437</ele>
        <time>2021-04-03T14:01:34.603Z</time>
      </trkpt>
      <trkpt lat="45.58234" lon="5.43782">
        <ele>437</ele>
        <time>2021-04-03T14:01:35.602Z</time>
      </trkpt>
      <trkpt lat="45.58234" lon="5.43775">
        <ele>437</ele>
        <time>2021-04-03T14:01:36.603Z</time>
      </trkpt>
      <trkpt lat="45.58233" lon="5.43766">
        <ele>436</ele>
        <time>2021-04-03T14:01:37.603Z</time>
      </trkpt>
      <trkpt lat="45.58232" lon="5.43758">
        <ele>436</ele>
        <time>2021-04-03T14:01:38.603Z</time>
      </trkpt>
      <trkpt lat="45.58231" lon="5.4375">
        <ele>435</ele>
        <time>2021-04-03T14:01:39.602Z</time>
      </trkpt>
      <trkpt lat="45.5823" lon="5.43741">
        <ele>435</ele>
        <time>2021-04-03T14:01:40.603Z</time>
      </trkpt>
      <trkpt lat="45.58229" lon="5.43735">
        <ele>435</ele>
        <time>2021-04-03T14:01:41.603Z</time>
      </trkpt>
      <trkpt lat="45.58228" lon="5.43728">
        <ele>435</ele>
        <time>2021-04-03T14:01:42.602Z</time>
      </trkpt>
      <trkpt lat="45.58226" lon="5.4372">
        <ele>435</ele>
        <time>2021-04-03T14:01:43.602Z</time>
      </trkpt>
      <trkpt lat="45.58224" lon="5.43713">
        <ele>435</ele>
        <time>2021-04-03T14:01:44.603Z</time>
      </trkpt>
      <trkpt lat="45.58223" lon="5.43706">
        <ele>436</ele>
        <time>2021-04-03T14:01:45.603Z</time>
      </trkpt>
      <trkpt lat="45.58222" lon="5.43698">
        <ele>436</ele>
        <time>2021-04-03T14:01:46.603Z</time>
      </trkpt>
      <trkpt lat="45.58221" lon="5.4369">
        <ele>437</ele>
        <time>2021-04-03T14:01:47.603Z</time>
      </trkpt>
      <trkpt lat="45.58219" lon="5.43683">
        <ele>437</ele>
        <time>2021-04-03T14:01:48.603Z</time>
      </trkpt>
      <trkpt lat="45.58218" lon="5.43675">
        <ele>437</ele>
        <time>2021-04-03T14:01:49.603Z</time>
      </trkpt>
      <trkpt lat="45.58216" lon="5.43667">
        <ele>437</ele>
        <time>2021-04-03T14:01:50.603Z</time>
      </trkpt>
      <trkpt lat="45.58215" lon="5.43658">
        <ele>437</ele>
        <time>2021-04-03T14:01:51.603Z</time>
      </trkpt>
      <trkpt lat="45.58213" lon="5.4365">
        <ele>437</ele>
        <time>2021-04-03T14:01:52.602Z</time>
      </trkpt>
      <trkpt lat="45.58211" lon="5.43642">
        <ele>438</ele>
        <time>2021-04-03T14:01:53.603Z</time>
      </trkpt>
      <trkpt lat="45.58209" lon="5.43633">
        <ele>438</ele>
        <time>2021-04-03T14:01:54.602Z</time>
      </trkpt>
      <trkpt lat="45.58207" lon="5.43625">
        <ele>439</ele>
        <time>2021-04-03T14:01:55.603Z</time>
      </trkpt>
      <trkpt lat="45.58205" lon="5.43616">
        <ele>439</ele>
        <time>2021-04-03T14:01:56.603Z</time>
      </trkpt>
      <trkpt lat="45.58203" lon="5.43607">
        <ele>440</ele>
        <time>2021-04-03T14:01:57.603Z</time>
      </trkpt>
      <trkpt lat="45.58201" lon="5.43598">
        <ele>440</ele>
        <time>2021-04-03T14:01:58.603Z</time>
      </trkpt>
      <trkpt lat="45.58199" lon="5.43589">
        <ele>440</ele>
        <time>2021-04-03T14:01:59.603Z</time>
      </trkpt>
      <trkpt lat="45.58197" lon="5.43579">
        <ele>440</ele>
        <time>2021-04-03T14:02:00.602Z</time>
      </trkpt>
      <trkpt lat="45.58196" lon="5.4357">
        <ele>440</ele>
        <time>2021-04-03T14:02:01.602Z</time>
      </trkpt>
      <trkpt lat="45.58194" lon="5.43561">
        <ele>440</ele>
        <time>2021-04-03T14:02:02.603Z</time>
      </trkpt>
      <trkpt lat="45.58193" lon="5.43552">
        <ele>439</ele>
        <time>2021-04-03T14:02:03.603Z</time>
      </trkpt>
      <trkpt lat="45.58191" lon="5.43542">
        <ele>439</ele>
        <time>2021-04-03T14:02:04.603Z</time>
      </trkpt>
      <trkpt lat="45.5819" lon="5.43533">
        <ele>439</ele>
        <time>2021-04-03T14:02:05.603Z</time>
      </trkpt>
      <trkpt lat="45.58189" lon="5.43523">
        <ele>439</ele>
        <time>2021-04-03T14:02:06.603Z</time>
      </trkpt>
      <trkpt lat="45.58188" lon="5.43512">
        <ele>438</ele>
        <time>2021-04-03T14:02:07.603Z</time>
      </trkpt>
      <trkpt lat="45.58187" lon="5.43502">
        <ele>438</ele>
        <time>2021-04-03T14:02:08.603Z</time>
      </trkpt>
      <trkpt lat="45.58186" lon="5.43492">
        <ele>438</ele>
        <time>2021-04-03T14:02:09.603Z</time>
      </trkpt>
      <trkpt lat="45.58185" lon="5.43481">
        <ele>438</ele>
        <time>2021-04-03T14:02:10.603Z</time>
      </trkpt>
      <trkpt lat="45.58185" lon="5.4347">
        <ele>438</ele>
        <time>2021-04-03T14:02:11.603Z</time>
      </trkpt>
      <trkpt lat="45.58184" lon="5.43457">
        <ele>437</ele>
        <time>2021-04-03T14:02:12.602Z</time>
      </trkpt>
      <trkpt lat="45.58183" lon="5.43448">
        <ele>437</ele>
        <time>2021-04-03T14:02:13.603Z</time>
      </trkpt>
      <trkpt lat="45.58183" lon="5.43436">
        <ele>437</ele>
        <time>2021-04-03T14:02:14.603Z</time>
      </trkpt>
      <trkpt lat="45.58182" lon="5.43424">
        <ele>436</ele>
        <time>2021-04-03T14:02:15.602Z</time>
      </trkpt>
      <trkpt lat="45.58181" lon="5.43412">
        <ele>436</ele>
        <time>2021-04-03T14:02:16.603Z</time>
      </trkpt>
      <trkpt lat="45.58181" lon="5.434">
        <ele>435</ele>
        <time>2021-04-03T14:02:17.603Z</time>
      </trkpt>
      <trkpt lat="45.58181" lon="5.43388">
        <ele>433</ele>
        <time>2021-04-03T14:02:18.603Z</time>
      </trkpt>
      <trkpt lat="45.58182" lon="5.43376">
        <ele>433</ele>
        <time>2021-04-03T14:02:19.602Z</time>
      </trkpt>
      <trkpt lat="45.58182" lon="5.43365">
        <ele>432</ele>
        <time>2021-04-03T14:02:20.603Z</time>
      </trkpt>
      <trkpt lat="45.58184" lon="5.43353">
        <ele>431</ele>
        <time>2021-04-03T14:02:21.603Z</time>
      </trkpt>
      <trkpt lat="45.58185" lon="5.43342">
        <ele>431</ele>
        <time>2021-04-03T14:02:22.602Z</time>
      </trkpt>
      <trkpt lat="45.58186" lon="5.43331">
        <ele>431</ele>
        <time>2021-04-03T14:02:23.603Z</time>
      </trkpt>
      <trkpt lat="45.58186" lon="5.43321">
        <ele>432</ele>
        <time>2021-04-03T14:02:24.602Z</time>
      </trkpt>
      <trkpt lat="45.58185" lon="5.4331">
        <ele>431</ele>
        <time>2021-04-03T14:02:25.603Z</time>
      </trkpt>
      <trkpt lat="45.58184" lon="5.43301">
        <ele>431</ele>
        <time>2021-04-03T14:02:26.603Z</time>
      </trkpt>
      <trkpt lat="45.58183" lon="5.43291">
        <ele>430</ele>
        <time>2021-04-03T14:02:27.603Z</time>
      </trkpt>
      <trkpt lat="45.58181" lon="5.43282">
        <ele>430</ele>
        <time>2021-04-03T14:02:28.603Z</time>
      </trkpt>
      <trkpt lat="45.58178" lon="5.43274">
        <ele>429</ele>
        <time>2021-04-03T14:02:29.603Z</time>
      </trkpt>
      <trkpt lat="45.58176" lon="5.43266">
        <ele>428</ele>
        <time>2021-04-03T14:02:30.603Z</time>
      </trkpt>
      <trkpt lat="45.58173" lon="5.43258">
        <ele>427</ele>
        <time>2021-04-03T14:02:31.603Z</time>
      </trkpt>
      <trkpt lat="45.5817" lon="5.4325">
        <ele>427</ele>
        <time>2021-04-03T14:02:32.603Z</time>
      </trkpt>
      <trkpt lat="45.58168" lon="5.43243">
        <ele>426</ele>
        <time>2021-04-03T14:02:33.603Z</time>
      </trkpt>
      <trkpt lat="45.58165" lon="5.43235">
        <ele>425</ele>
        <time>2021-04-03T14:02:34.603Z</time>
      </trkpt>
      <trkpt lat="45.58162" lon="5.43228">
        <ele>425</ele>
        <time>2021-04-03T14:02:35.603Z</time>
      </trkpt>
      <trkpt lat="45.5816" lon="5.43221">
        <ele>426</ele>
        <time>2021-04-03T14:02:36.602Z</time>
      </trkpt>
      <trkpt lat="45.58157" lon="5.43215">
        <ele>427</ele>
        <time>2021-04-03T14:02:37.603Z</time>
      </trkpt>
      <trkpt lat="45.58154" lon="5.43208">
        <ele>428</ele>
        <time>2021-04-03T14:02:38.603Z</time>
      </trkpt>
      <trkpt lat="45.58152" lon="5.43202">
        <ele>428</ele>
        <time>2021-04-03T14:02:39.603Z</time>
      </trkpt>
      <trkpt lat="45.58149" lon="5.43194">
        <ele>429</ele>
        <time>2021-04-03T14:02:40.603Z</time>
      </trkpt>
      <trkpt lat="45.58147" lon="5.43189">
        <ele>429</ele>
        <time>2021-04-03T14:02:41.603Z</time>
      </trkpt>
      <trkpt lat="45.58144" lon="5.43182">
        <ele>430</ele>
        <time>2021-04-03T14:02:42.603Z</time>
      </trkpt>
      <trkpt lat="45.58142" lon="5.43176">
        <ele>430</ele>
        <time>2021-04-03T14:02:43.603Z</time>
      </trkpt>
      <trkpt lat="45.5814" lon="5.4317">
        <ele>430</ele>
        <time>2021-04-03T14:02:44.603Z</time>
      </trkpt>
      <trkpt lat="45.58137" lon="5.43164">
        <ele>431</ele>
        <time>2021-04-03T14:02:45.603Z</time>
      </trkpt>
      <trkpt lat="45.58135" lon="5.43158">
        <ele>431</ele>
        <time>2021-04-03T14:02:46.603Z</time>
      </trkpt>
      <trkpt lat="45.58133" lon="5.43152">
        <ele>432</ele>
        <time>2021-04-03T14:02:47.603Z</time>
      </trkpt>
      <trkpt lat="45.58131" lon="5.43146">
        <ele>432</ele>
        <time>2021-04-03T14:02:48.602Z</time>
      </trkpt>
      <trkpt lat="45.58128" lon="5.43141">
        <ele>432</ele>
        <time>2021-04-03T14:02:49.603Z</time>
      </trkpt>
      <trkpt lat="45.58126" lon="5.43135">
        <ele>432</ele>
        <time>2021-04-03T14:02:50.603Z</time>
      </trkpt>
      <trkpt lat="45.58124" lon="5.43129">
        <ele>432</ele>
        <time>2021-04-03T14:02:51.603Z</time>
      </trkpt>
      <trkpt lat="45.58122" lon="5.43124">
        <ele>432</ele>
        <time>2021-04-03T14:02:52.603Z</time>
      </trkpt>
      <trkpt lat="45.5812" lon="5.43119">
        <ele>432</ele>
        <time>2021-04-03T14:02:53.603Z</time>
      </trkpt>
      <trkpt lat="45.58118" lon="5.43114">
        <ele>433</ele>
        <time>2021-04-03T14:02:54.603Z</time>
      </trkpt>
      <trkpt lat="45.58116" lon="5.43109">
        <ele>433</ele>
        <time>2021-04-03T14:02:55.603Z</time>
      </trkpt>
      <trkpt lat="45.58114" lon="5.43103">
        <ele>434</ele>
        <time>2021-04-03T14:02:56.602Z</time>
      </trkpt>
      <trkpt lat="45.58112" lon="5.43098">
        <ele>434</ele>
        <time>2021-04-03T14:02:57.603Z</time>
      </trkpt>
      <trkpt lat="45.58109" lon="5.43092">
        <ele>434</ele>
        <time>2021-04-03T14:02:58.603Z</time>
      </trkpt>
      <trkpt lat="45.58107" lon="5.43085">
        <ele>434</ele>
        <time>2021-04-03T14:02:59.603Z</time>
      </trkpt>
      <trkpt lat="45.58105" lon="5.43079">
        <ele>435</ele>
        <time>2021-04-03T14:03:00.602Z</time>
      </trkpt>
      <trkpt lat="45.58103" lon="5.43072">
        <ele>435</ele>
        <time>2021-04-03T14:03:01.602Z</time>
      </trkpt>
      <trkpt lat="45.58101" lon="5.43066">
        <ele>435</ele>
        <time>2021-04-03T14:03:02.603Z</time>
      </trkpt>
      <trkpt lat="45.58098" lon="5.4306">
        <ele>435</ele>
        <time>2021-04-03T14:03:03.602Z</time>
      </trkpt>
      <trkpt lat="45.58096" lon="5.43054">
        <ele>435</ele>
        <time>2021-04-03T14:03:04.603Z</time>
      </trkpt>
      <trkpt lat="45.58094" lon="5.43048">
        <ele>435</ele>
        <time>2021-04-03T14:03:05.602Z</time>
      </trkpt>
      <trkpt lat="45.58092" lon="5.43042">
        <ele>435</ele>
        <time>2021-04-03T14:03:06.603Z</time>
      </trkpt>
      <trkpt lat="45.5809" lon="5.43035">
        <ele>435</ele>
        <time>2021-04-03T14:03:07.603Z</time>
      </trkpt>
      <trkpt lat="45.58088" lon="5.43028">
        <ele>435</ele>
        <time>2021-04-03T14:03:08.603Z</time>
      </trkpt>
      <trkpt lat="45.58086" lon="5.43024">
        <ele>435</ele>
        <time>2021-04-03T14:03:09.603Z</time>
      </trkpt>
      <trkpt lat="45.58084" lon="5.43018">
        <ele>435</ele>
        <time>2021-04-03T14:03:10.603Z</time>
      </trkpt>
      <trkpt lat="45.58082" lon="5.43012">
        <ele>436</ele>
        <time>2021-04-03T14:03:11.602Z</time>
      </trkpt>
      <trkpt lat="45.5808" lon="5.43006">
        <ele>436</ele>
        <time>2021-04-03T14:03:12.603Z</time>
      </trkpt>
      <trkpt lat="45.58078" lon="5.43">
        <ele>436</ele>
        <time>2021-04-03T14:03:13.603Z</time>
      </trkpt>
      <trkpt lat="45.58077" lon="5.42994">
        <ele>436</ele>
        <time>2021-04-03T14:03:14.603Z</time>
      </trkpt>
      <trkpt lat="45.58075" lon="5.42988">
        <ele>436</ele>
        <time>2021-04-03T14:03:15.602Z</time>
      </trkpt>
      <trkpt lat="45.58073" lon="5.42982">
        <ele>436</ele>
        <time>2021-04-03T14:03:16.602Z</time>
      </trkpt>
      <trkpt lat="45.58071" lon="5.42976">
        <ele>436</ele>
        <time>2021-04-03T14:03:17.603Z</time>
      </trkpt>
      <trkpt lat="45.58069" lon="5.42969">
        <ele>435</ele>
        <time>2021-04-03T14:03:18.602Z</time>
      </trkpt>
      <trkpt lat="45.58068" lon="5.42963">
        <ele>436</ele>
        <time>2021-04-03T14:03:19.603Z</time>
      </trkpt>
      <trkpt lat="45.58066" lon="5.42957">
        <ele>436</ele>
        <time>2021-04-03T14:03:20.603Z</time>
      </trkpt>
      <trkpt lat="45.58064" lon="5.4295">
        <ele>436</ele>
        <time>2021-04-03T14:03:21.603Z</time>
      </trkpt>
      <trkpt lat="45.58062" lon="5.42944">
        <ele>436</ele>
        <time>2021-04-03T14:03:22.603Z</time>
      </trkpt>
      <trkpt lat="45.58061" lon="5.42937">
        <ele>437</ele>
        <time>2021-04-03T14:03:23.602Z</time>
      </trkpt>
      <trkpt lat="45.58059" lon="5.4293">
        <ele>437</ele>
        <time>2021-04-03T14:03:24.603Z</time>
      </trkpt>
      <trkpt lat="45.58057" lon="5.42924">
        <ele>438</ele>
        <time>2021-04-03T14:03:25.603Z</time>
      </trkpt>
      <trkpt lat="45.58055" lon="5.42917">
        <ele>438</ele>
        <time>2021-04-03T14:03:26.603Z</time>
      </trkpt>
      <trkpt lat="45.58053" lon="5.4291">
        <ele>439</ele>
        <time>2021-04-03T14:03:27.603Z</time>
      </trkpt>
      <trkpt lat="45.58051" lon="5.42903">
        <ele>439</ele>
        <time>2021-04-03T14:03:28.602Z</time>
      </trkpt>
      <trkpt lat="45.58049" lon="5.42897">
        <ele>440</ele>
        <time>2021-04-03T14:03:29.603Z</time>
      </trkpt>
      <trkpt lat="45.58048" lon="5.4289">
        <ele>441</ele>
        <time>2021-04-03T14:03:30.602Z</time>
      </trkpt>
      <trkpt lat="45.58046" lon="5.42882">
        <ele>441</ele>
        <time>2021-04-03T14:03:31.603Z</time>
      </trkpt>
      <trkpt lat="45.58044" lon="5.42875">
        <ele>441</ele>
        <time>2021-04-03T14:03:32.602Z</time>
      </trkpt>
      <trkpt lat="45.58042" lon="5.42867">
        <ele>440</ele>
        <time>2021-04-03T14:03:33.602Z</time>
      </trkpt>
      <trkpt lat="45.58041" lon="5.42859">
        <ele>439</ele>
        <time>2021-04-03T14:03:34.602Z</time>
      </trkpt>
      <trkpt lat="45.5804" lon="5.4285">
        <ele>439</ele>
        <time>2021-04-03T14:03:35.603Z</time>
      </trkpt>
      <trkpt lat="45.58039" lon="5.42842">
        <ele>438</ele>
        <time>2021-04-03T14:03:36.603Z</time>
      </trkpt>
      <trkpt lat="45.58038" lon="5.42833">
        <ele>437</ele>
        <time>2021-04-03T14:03:37.603Z</time>
      </trkpt>
      <trkpt lat="45.58037" lon="5.42824">
        <ele>437</ele>
        <time>2021-04-03T14:04:58.670Z</time>
      </trkpt>
      <trkpt lat="45.58037" lon="5.42815">
        <ele>436</ele>
        <time>2021-04-03T14:04:59.670Z</time>
      </trkpt>
      <trkpt lat="45.58036" lon="5.42806">
        <ele>435</ele>
        <time>2021-04-03T14:05:00.671Z</time>
      </trkpt>
      <trkpt lat="45.58036" lon="5.42797">
        <ele>435</ele>
        <time>2021-04-03T14:05:01.671Z</time>
      </trkpt>
      <trkpt lat="45.58036" lon="5.42788">
        <ele>435</ele>
        <time>2021-04-03T14:05:02.671Z</time>
      </trkpt>
      <trkpt lat="45.58036" lon="5.42778">
        <ele>435</ele>
        <time>2021-04-03T14:05:03.670Z</time>
      </trkpt>
      <trkpt lat="45.58036" lon="5.42769">
        <ele>435</ele>
        <time>2021-04-03T14:05:04.670Z</time>
      </trkpt>
      <trkpt lat="45.58037" lon="5.4276">
        <ele>435</ele>
        <time>2021-04-03T14:05:05.671Z</time>
      </trkpt>
      <trkpt lat="45.58037" lon="5.4275">
        <ele>435</ele>
        <time>2021-04-03T14:05:06.671Z</time>
      </trkpt>
      <trkpt lat="45.58037" lon="5.42741">
        <ele>434</ele>
        <time>2021-04-03T14:05:07.670Z</time>
      </trkpt>
      <trkpt lat="45.58038" lon="5.42732">
        <ele>434</ele>
        <time>2021-04-03T14:05:08.671Z</time>
      </trkpt>
      <trkpt lat="45.58038" lon="5.42723">
        <ele>433</ele>
        <time>2021-04-03T14:05:09.671Z</time>
      </trkpt>
      <trkpt lat="45.58039" lon="5.42714">
        <ele>433</ele>
        <time>2021-04-03T14:05:10.670Z</time>
      </trkpt>
      <trkpt lat="45.5804" lon="5.42705">
        <ele>433</ele>
        <time>2021-04-03T14:05:11.670Z</time>
      </trkpt>
      <trkpt lat="45.5804" lon="5.42696">
        <ele>433</ele>
        <time>2021-04-03T14:05:12.671Z</time>
      </trkpt>
      <trkpt lat="45.58041" lon="5.42687">
        <ele>432</ele>
        <time>2021-04-03T14:05:13.671Z</time>
      </trkpt>
      <trkpt lat="45.58041" lon="5.42678">
        <ele>432</ele>
        <time>2021-04-03T14:05:14.671Z</time>
      </trkpt>
      <trkpt lat="45.58042" lon="5.4267">
        <ele>431</ele>
        <time>2021-04-03T14:05:15.671Z</time>
      </trkpt>
      <trkpt lat="45.58042" lon="5.42662">
        <ele>431</ele>
        <time>2021-04-03T14:05:16.671Z</time>
      </trkpt>
      <trkpt lat="45.58043" lon="5.42654">
        <ele>431</ele>
        <time>2021-04-03T14:05:17.670Z</time>
      </trkpt>
      <trkpt lat="45.58043" lon="5.42646">
        <ele>431</ele>
        <time>2021-04-03T14:05:18.671Z</time>
      </trkpt>
      <trkpt lat="45.58044" lon="5.42639">
        <ele>431</ele>
        <time>2021-04-03T14:05:19.671Z</time>
      </trkpt>
      <trkpt lat="45.58044" lon="5.42632">
        <ele>431</ele>
        <time>2021-04-03T14:05:20.670Z</time>
      </trkpt>
      <trkpt lat="45.58044" lon="5.42626">
        <ele>431</ele>
        <time>2021-04-03T14:05:21.670Z</time>
      </trkpt>
      <trkpt lat="45.58044" lon="5.4262">
        <ele>430</ele>
        <time>2021-04-03T14:05:22.671Z</time>
      </trkpt>
      <trkpt lat="45.58045" lon="5.42614">
        <ele>430</ele>
        <time>2021-04-03T14:05:23.671Z</time>
      </trkpt>
      <trkpt lat="45.58045" lon="5.42607">
        <ele>430</ele>
        <time>2021-04-03T14:05:24.671Z</time>
      </trkpt>
      <trkpt lat="45.58045" lon="5.42601">
        <ele>430</ele>
        <time>2021-04-03T14:05:25.671Z</time>
      </trkpt>
      <trkpt lat="45.58046" lon="5.42594">
        <ele>429</ele>
        <time>2021-04-03T14:05:26.671Z</time>
      </trkpt>
      <trkpt lat="45.58046" lon="5.42588">
        <ele>428</ele>
        <time>2021-04-03T14:05:27.671Z</time>
      </trkpt>
      <trkpt lat="45.58046" lon="5.42581">
        <ele>428</ele>
        <time>2021-04-03T14:05:28.671Z</time>
      </trkpt>
      <trkpt lat="45.58046" lon="5.42574">
        <ele>427</ele>
        <time>2021-04-03T14:05:29.670Z</time>
      </trkpt>
      <trkpt lat="45.58047" lon="5.42567">
        <ele>427</ele>
        <time>2021-04-03T14:05:30.671Z</time>
      </trkpt>
      <trkpt lat="45.58047" lon="5.42561">
        <ele>427</ele>
        <time>2021-04-03T14:05:31.671Z</time>
      </trkpt>
      <trkpt lat="45.58048" lon="5.42554">
        <ele>428</ele>
        <time>2021-04-03T14:05:32.671Z</time>
      </trkpt>
      <trkpt lat="45.58049" lon="5.42548">
        <ele>428</ele>
        <time>2021-04-03T14:05:33.671Z</time>
      </trkpt>
      <trkpt lat="45.5805" lon="5.42542">
        <ele>429</ele>
        <time>2021-04-03T14:05:34.671Z</time>
      </trkpt>
      <trkpt lat="45.5805" lon="5.42535">
        <ele>430</ele>
        <time>2021-04-03T14:05:35.670Z</time>
      </trkpt>
      <trkpt lat="45.58051" lon="5.42529">
        <ele>430</ele>
        <time>2021-04-03T14:05:36.671Z</time>
      </trkpt>
      <trkpt lat="45.58051" lon="5.42522">
        <ele>431</ele>
        <time>2021-04-03T14:05:37.671Z</time>
      </trkpt>
      <trkpt lat="45.58051" lon="5.42516">
        <ele>431</ele>
        <time>2021-04-03T14:05:38.671Z</time>
      </trkpt>
      <trkpt lat="45.58052" lon="5.4251">
        <ele>432</ele>
        <time>2021-04-03T14:05:39.671Z</time>
      </trkpt>
      <trkpt lat="45.58052" lon="5.42504">
        <ele>432</ele>
        <time>2021-04-03T14:05:40.671Z</time>
      </trkpt>
      <trkpt lat="45.58052" lon="5.42497">
        <ele>433</ele>
        <time>2021-04-03T14:05:41.671Z</time>
      </trkpt>
      <trkpt lat="45.58053" lon="5.4249">
        <ele>433</ele>
        <time>2021-04-03T14:05:42.671Z</time>
      </trkpt>
      <trkpt lat="45.58053" lon="5.42483">
        <ele>434</ele>
        <time>2021-04-03T14:05:43.671Z</time>
      </trkpt>
      <trkpt lat="45.58053" lon="5.42476">
        <ele>434</ele>
        <time>2021-04-03T14:05:44.670Z</time>
      </trkpt>
      <trkpt lat="45.58053" lon="5.4247">
        <ele>434</ele>
        <time>2021-04-03T14:05:45.670Z</time>
      </trkpt>
      <trkpt lat="45.58054" lon="5.42463">
        <ele>434</ele>
        <time>2021-04-03T14:05:46.671Z</time>
      </trkpt>
      <trkpt lat="45.58054" lon="5.42457">
        <ele>435</ele>
        <time>2021-04-03T14:05:47.671Z</time>
      </trkpt>
      <trkpt lat="45.58055" lon="5.4245">
        <ele>435</ele>
        <time>2021-04-03T14:05:48.671Z</time>
      </trkpt>
      <trkpt lat="45.58055" lon="5.42444">
        <ele>436</ele>
        <time>2021-04-03T14:05:49.670Z</time>
      </trkpt>
      <trkpt lat="45.58055" lon="5.42437">
        <ele>436</ele>
        <time>2021-04-03T14:05:50.671Z</time>
      </trkpt>
      <trkpt lat="45.58056" lon="5.4243">
        <ele>437</ele>
        <time>2021-04-03T14:05:51.670Z</time>
      </trkpt>
      <trkpt lat="45.58056" lon="5.42423">
        <ele>437</ele>
        <time>2021-04-03T14:05:52.671Z</time>
      </trkpt>
      <trkpt lat="45.58057" lon="5.42417">
        <ele>437</ele>
        <time>2021-04-03T14:05:53.671Z</time>
      </trkpt>
      <trkpt lat="45.58057" lon="5.4241">
        <ele>437</ele>
        <time>2021-04-03T14:05:54.671Z</time>
      </trkpt>
      <trkpt lat="45.58058" lon="5.42403">
        <ele>436</ele>
        <time>2021-04-03T14:05:55.670Z</time>
      </trkpt>
      <trkpt lat="45.58058" lon="5.42396">
        <ele>436</ele>
        <time>2021-04-03T14:05:56.671Z</time>
      </trkpt>
      <trkpt lat="45.58059" lon="5.42389">
        <ele>436</ele>
        <time>2021-04-03T14:05:57.671Z</time>
      </trkpt>
      <trkpt lat="45.58059" lon="5.42382">
        <ele>436</ele>
        <time>2021-04-03T14:05:58.671Z</time>
      </trkpt>
      <trkpt lat="45.5806" lon="5.42376">
        <ele>436</ele>
        <time>2021-04-03T14:05:59.671Z</time>
      </trkpt>
      <trkpt lat="45.58061" lon="5.4237">
        <ele>437</ele>
        <time>2021-04-03T14:06:00.671Z</time>
      </trkpt>
      <trkpt lat="45.58062" lon="5.42363">
        <ele>437</ele>
        <time>2021-04-03T14:06:01.670Z</time>
      </trkpt>
      <trkpt lat="45.58062" lon="5.42357">
        <ele>437</ele>
        <time>2021-04-03T14:06:02.671Z</time>
      </trkpt>
      <trkpt lat="45.58063" lon="5.42351">
        <ele>437</ele>
        <time>2021-04-03T14:06:03.670Z</time>
      </trkpt>
      <trkpt lat="45.58065" lon="5.42344">
        <ele>437</ele>
        <time>2021-04-03T14:06:04.671Z</time>
      </trkpt>
      <trkpt lat="45.58065" lon="5.42337">
        <ele>438</ele>
        <time>2021-04-03T14:06:05.671Z</time>
      </trkpt>
      <trkpt lat="45.58066" lon="5.42331">
        <ele>438</ele>
        <time>2021-04-03T14:06:06.671Z</time>
      </trkpt>
      <trkpt lat="45.58067" lon="5.42324">
        <ele>439</ele>
        <time>2021-04-03T14:06:07.671Z</time>
      </trkpt>
      <trkpt lat="45.58068" lon="5.42318">
        <ele>439</ele>
        <time>2021-04-03T14:06:08.670Z</time>
      </trkpt>
      <trkpt lat="45.58069" lon="5.42312">
        <ele>439</ele>
        <time>2021-04-03T14:06:09.671Z</time>
      </trkpt>
      <trkpt lat="45.5807" lon="5.42305">
        <ele>439</ele>
        <time>2021-04-03T14:06:10.671Z</time>
      </trkpt>
      <trkpt lat="45.58071" lon="5.42298">
        <ele>439</ele>
        <time>2021-04-03T14:06:11.671Z</time>
      </trkpt>
      <trkpt lat="45.58071" lon="5.42292">
        <ele>439</ele>
        <time>2021-04-03T14:06:12.671Z</time>
      </trkpt>
      <trkpt lat="45.58072" lon="5.42286">
        <ele>439</ele>
        <time>2021-04-03T14:06:13.670Z</time>
      </trkpt>
      <trkpt lat="45.58073" lon="5.4228">
        <ele>439</ele>
        <time>2021-04-03T14:06:14.670Z</time>
      </trkpt>
      <trkpt lat="45.58074" lon="5.42274">
        <ele>438</ele>
        <time>2021-04-03T14:06:15.671Z</time>
      </trkpt>
      <trkpt lat="45.58075" lon="5.42268">
        <ele>438</ele>
        <time>2021-04-03T14:06:16.670Z</time>
      </trkpt>
      <trkpt lat="45.58076" lon="5.42262">
        <ele>438</ele>
        <time>2021-04-03T14:06:17.671Z</time>
      </trkpt>
      <trkpt lat="45.58077" lon="5.42256">
        <ele>438</ele>
        <time>2021-04-03T14:06:18.670Z</time>
      </trkpt>
      <trkpt lat="45.58078" lon="5.4225">
        <ele>437</ele>
        <time>2021-04-03T14:06:19.671Z</time>
      </trkpt>
      <trkpt lat="45.58078" lon="5.42244">
        <ele>437</ele>
        <time>2021-04-03T14:06:20.671Z</time>
      </trkpt>
      <trkpt lat="45.58079" lon="5.42238">
        <ele>438</ele>
        <time>2021-04-03T14:06:21.670Z</time>
      </trkpt>
      <trkpt lat="45.5808" lon="5.42232">
        <ele>439</ele>
        <time>2021-04-03T14:06:22.671Z</time>
      </trkpt>
      <trkpt lat="45.58081" lon="5.42225">
        <ele>439</ele>
        <time>2021-04-03T14:06:23.671Z</time>
      </trkpt>
      <trkpt lat="45.58082" lon="5.42219">
        <ele>439</ele>
        <time>2021-04-03T14:06:24.671Z</time>
      </trkpt>
      <trkpt lat="45.58082" lon="5.42212">
        <ele>439</ele>
        <time>2021-04-03T14:06:25.670Z</time>
      </trkpt>
      <trkpt lat="45.58083" lon="5.42206">
        <ele>438</ele>
        <time>2021-04-03T14:06:26.671Z</time>
      </trkpt>
      <trkpt lat="45.58084" lon="5.42199">
        <ele>438</ele>
        <time>2021-04-03T14:06:27.670Z</time>
      </trkpt>
      <trkpt lat="45.58085" lon="5.42192">
        <ele>438</ele>
        <time>2021-04-03T14:06:28.671Z</time>
      </trkpt>
      <trkpt lat="45.58086" lon="5.42186">
        <ele>438</ele>
        <time>2021-04-03T14:06:29.670Z</time>
      </trkpt>
      <trkpt lat="45.58087" lon="5.42179">
        <ele>439</ele>
        <time>2021-04-03T14:06:30.670Z</time>
      </trkpt>
      <trkpt lat="45.58088" lon="5.42173">
        <ele>439</ele>
        <time>2021-04-03T14:06:31.671Z</time>
      </trkpt>
      <trkpt lat="45.58089" lon="5.42166">
        <ele>440</ele>
        <time>2021-04-03T14:06:32.671Z</time>
      </trkpt>
      <trkpt lat="45.5809" lon="5.4216">
        <ele>440</ele>
        <time>2021-04-03T14:06:33.671Z</time>
      </trkpt>
      <trkpt lat="45.5809" lon="5.42154">
        <ele>441</ele>
        <time>2021-04-03T14:06:34.671Z</time>
      </trkpt>
      <trkpt lat="45.58091" lon="5.42148">
        <ele>441</ele>
        <time>2021-04-03T14:06:35.671Z</time>
      </trkpt>
      <trkpt lat="45.58092" lon="5.42142">
        <ele>441</ele>
        <time>2021-04-03T14:06:36.671Z</time>
      </trkpt>
      <trkpt lat="45.58093" lon="5.42136">
        <ele>441</ele>
        <time>2021-04-03T14:06:37.670Z</time>
      </trkpt>
      <trkpt lat="45.58093" lon="5.42131">
        <ele>441</ele>
        <time>2021-04-03T14:06:38.671Z</time>
      </trkpt>
      <trkpt lat="45.58094" lon="5.42126">
        <ele>441</ele>
        <time>2021-04-03T14:06:39.671Z</time>
      </trkpt>
      <trkpt lat="45.58095" lon="5.4212">
        <ele>441</ele>
        <time>2021-04-03T14:06:40.671Z</time>
      </trkpt>
      <trkpt lat="45.58095" lon="5.42114">
        <ele>441</ele>
        <time>2021-04-03T14:06:41.671Z</time>
      </trkpt>
      <trkpt lat="45.58096" lon="5.42108">
        <ele>441</ele>
        <time>2021-04-03T14:06:42.671Z</time>
      </trkpt>
      <trkpt lat="45.58098" lon="5.42103">
        <ele>442</ele>
        <time>2021-04-03T14:06:43.671Z</time>
      </trkpt>
      <trkpt lat="45.58099" lon="5.42097">
        <ele>442</ele>
        <time>2021-04-03T14:06:44.671Z</time>
      </trkpt>
      <trkpt lat="45.581" lon="5.42091">
        <ele>442</ele>
        <time>2021-04-03T14:06:45.671Z</time>
      </trkpt>
      <trkpt lat="45.58101" lon="5.42086">
        <ele>442</ele>
        <time>2021-04-03T14:06:46.671Z</time>
      </trkpt>
      <trkpt lat="45.58103" lon="5.4208">
        <ele>442</ele>
        <time>2021-04-03T14:06:47.671Z</time>
      </trkpt>
      <trkpt lat="45.58104" lon="5.42075">
        <ele>443</ele>
        <time>2021-04-03T14:06:48.671Z</time>
      </trkpt>
      <trkpt lat="45.58105" lon="5.42069">
        <ele>443</ele>
        <time>2021-04-03T14:06:49.671Z</time>
      </trkpt>
      <trkpt lat="45.58106" lon="5.42064">
        <ele>443</ele>
        <time>2021-04-03T14:06:50.671Z</time>
      </trkpt>
      <trkpt lat="45.58108" lon="5.42058">
        <ele>443</ele>
        <time>2021-04-03T14:06:51.671Z</time>
      </trkpt>
      <trkpt lat="45.58109" lon="5.42053">
        <ele>443</ele>
        <time>2021-04-03T14:06:52.671Z</time>
      </trkpt>
      <trkpt lat="45.5811" lon="5.42047">
        <ele>443</ele>
        <time>2021-04-03T14:06:53.671Z</time>
      </trkpt>
      <trkpt lat="45.58111" lon="5.42042">
        <ele>443</ele>
        <time>2021-04-03T14:06:54.671Z</time>
      </trkpt>
      <trkpt lat="45.58112" lon="5.42036">
        <ele>443</ele>
        <time>2021-04-03T14:06:55.670Z</time>
      </trkpt>
      <trkpt lat="45.58114" lon="5.42031">
        <ele>443</ele>
        <time>2021-04-03T14:06:56.671Z</time>
      </trkpt>
      <trkpt lat="45.58114" lon="5.42025">
        <ele>442</ele>
        <time>2021-04-03T14:06:57.671Z</time>
      </trkpt>
      <trkpt lat="45.58115" lon="5.4202">
        <ele>443</ele>
        <time>2021-04-03T14:06:58.670Z</time>
      </trkpt>
      <trkpt lat="45.58116" lon="5.42015">
        <ele>443</ele>
        <time>2021-04-03T14:06:59.671Z</time>
      </trkpt>
      <trkpt lat="45.58117" lon="5.42009">
        <ele>442</ele>
        <time>2021-04-03T14:07:00.671Z</time>
      </trkpt>
      <trkpt lat="45.58118" lon="5.42004">
        <ele>442</ele>
        <time>2021-04-03T14:07:01.671Z</time>
      </trkpt>
      <trkpt lat="45.58119" lon="5.41999">
        <ele>442</ele>
        <time>2021-04-03T14:07:02.670Z</time>
      </trkpt>
      <trkpt lat="45.5812" lon="5.41994">
        <ele>441</ele>
        <time>2021-04-03T14:07:03.670Z</time>
      </trkpt>
      <trkpt lat="45.58121" lon="5.41989">
        <ele>440</ele>
        <time>2021-04-03T14:07:04.671Z</time>
      </trkpt>
      <trkpt lat="45.58121" lon="5.41984">
        <ele>439</ele>
        <time>2021-04-03T14:07:05.670Z</time>
      </trkpt>
      <trkpt lat="45.58122" lon="5.41979">
        <ele>439</ele>
        <time>2021-04-03T14:07:06.670Z</time>
      </trkpt>
      <trkpt lat="45.58123" lon="5.41973">
        <ele>439</ele>
        <time>2021-04-03T14:07:07.670Z</time>
      </trkpt>
      <trkpt lat="45.58124" lon="5.41968">
        <ele>439</ele>
        <time>2021-04-03T14:07:08.670Z</time>
      </trkpt>
      <trkpt lat="45.58125" lon="5.41963">
        <ele>439</ele>
        <time>2021-04-03T14:07:09.671Z</time>
      </trkpt>
      <trkpt lat="45.58126" lon="5.41957">
        <ele>439</ele>
        <time>2021-04-03T14:07:10.671Z</time>
      </trkpt>
      <trkpt lat="45.58127" lon="5.41952">
        <ele>439</ele>
        <time>2021-04-03T14:07:11.670Z</time>
      </trkpt>
      <trkpt lat="45.58128" lon="5.41946">
        <ele>439</ele>
        <time>2021-04-03T14:07:12.670Z</time>
      </trkpt>
      <trkpt lat="45.58129" lon="5.41941">
        <ele>440</ele>
        <time>2021-04-03T14:07:13.671Z</time>
      </trkpt>
      <trkpt lat="45.5813" lon="5.41936">
        <ele>441</ele>
        <time>2021-04-03T14:07:14.670Z</time>
      </trkpt>
      <trkpt lat="45.58131" lon="5.4193">
        <ele>441</ele>
        <time>2021-04-03T14:07:15.671Z</time>
      </trkpt>
      <trkpt lat="45.58132" lon="5.41925">
        <ele>441</ele>
        <time>2021-04-03T14:07:16.671Z</time>
      </trkpt>
      <trkpt lat="45.58132" lon="5.41919">
        <ele>442</ele>
        <time>2021-04-03T14:07:17.671Z</time>
      </trkpt>
      <trkpt lat="45.58133" lon="5.41914">
        <ele>442</ele>
        <time>2021-04-03T14:07:18.671Z</time>
      </trkpt>
      <trkpt lat="45.58134" lon="5.41908">
        <ele>442</ele>
        <time>2021-04-03T14:07:19.671Z</time>
      </trkpt>
      <trkpt lat="45.58135" lon="5.41903">
        <ele>443</ele>
        <time>2021-04-03T14:07:20.671Z</time>
      </trkpt>
      <trkpt lat="45.58135" lon="5.41898">
        <ele>443</ele>
        <time>2021-04-03T14:07:21.670Z</time>
      </trkpt>
      <trkpt lat="45.58136" lon="5.41892">
        <ele>443</ele>
        <time>2021-04-03T14:07:22.671Z</time>
      </trkpt>
      <trkpt lat="45.58137" lon="5.41887">
        <ele>443</ele>
        <time>2021-04-03T14:07:23.671Z</time>
      </trkpt>
      <trkpt lat="45.58138" lon="5.41882">
        <ele>444</ele>
        <time>2021-04-03T14:07:24.671Z</time>
      </trkpt>
      <trkpt lat="45.58139" lon="5.41876">
        <ele>445</ele>
        <time>2021-04-03T14:07:25.671Z</time>
      </trkpt>
      <trkpt lat="45.5814" lon="5.41871">
        <ele>445</ele>
        <time>2021-04-03T14:07:26.671Z</time>
      </trkpt>
      <trkpt lat="45.58141" lon="5.41865">
        <ele>446</ele>
        <time>2021-04-03T14:07:27.670Z</time>
      </trkpt>
      <trkpt lat="45.58142" lon="5.4186">
        <ele>445</ele>
        <time>2021-04-03T14:07:28.671Z</time>
      </trkpt>
      <trkpt lat="45.58143" lon="5.41855">
        <ele>445</ele>
        <time>2021-04-03T14:07:29.671Z</time>
      </trkpt>
      <trkpt lat="45.58145" lon="5.4185">
        <ele>445</ele>
        <time>2021-04-03T14:07:30.671Z</time>
      </trkpt>
      <trkpt lat="45.58146" lon="5.41844">
        <ele>445</ele>
        <time>2021-04-03T14:07:31.670Z</time>
      </trkpt>
      <trkpt lat="45.58147" lon="5.41839">
        <ele>445</ele>
        <time>2021-04-03T14:07:32.670Z</time>
      </trkpt>
      <trkpt lat="45.58148" lon="5.41834">
        <ele>445</ele>
        <time>2021-04-03T14:07:33.671Z</time>
      </trkpt>
      <trkpt lat="45.58149" lon="5.41829">
        <ele>445</ele>
        <time>2021-04-03T14:07:34.671Z</time>
      </trkpt>
      <trkpt lat="45.5815" lon="5.41824">
        <ele>446</ele>
        <time>2021-04-03T14:07:35.671Z</time>
      </trkpt>
      <trkpt lat="45.58151" lon="5.41819">
        <ele>446</ele>
        <time>2021-04-03T14:07:36.671Z</time>
      </trkpt>
      <trkpt lat="45.58152" lon="5.41814">
        <ele>446</ele>
        <time>2021-04-03T14:07:37.670Z</time>
      </trkpt>
      <trkpt lat="45.58153" lon="5.41809">
        <ele>446</ele>
        <time>2021-04-03T14:07:38.671Z</time>
      </trkpt>
      <trkpt lat="45.58154" lon="5.41804">
        <ele>446</ele>
        <time>2021-04-03T14:07:39.671Z</time>
      </trkpt>
      <trkpt lat="45.58155" lon="5.418">
        <ele>446</ele>
        <time>2021-04-03T14:07:40.671Z</time>
      </trkpt>
      <trkpt lat="45.58156" lon="5.41795">
        <ele>446</ele>
        <time>2021-04-03T14:07:41.671Z</time>
      </trkpt>
      <trkpt lat="45.58157" lon="5.4179">
        <ele>446</ele>
        <time>2021-04-03T14:07:42.671Z</time>
      </trkpt>
      <trkpt lat="45.58158" lon="5.41785">
        <ele>446</ele>
        <time>2021-04-03T14:07:43.671Z</time>
      </trkpt>
      <trkpt lat="45.58159" lon="5.4178">
        <ele>447</ele>
        <time>2021-04-03T14:07:44.671Z</time>
      </trkpt>
      <trkpt lat="45.5816" lon="5.41776">
        <ele>447</ele>
        <time>2021-04-03T14:07:45.671Z</time>
      </trkpt>
      <trkpt lat="45.58161" lon="5.41771">
        <ele>448</ele>
        <time>2021-04-03T14:07:46.670Z</time>
      </trkpt>
      <trkpt lat="45.58162" lon="5.41766">
        <ele>449</ele>
        <time>2021-04-03T14:07:47.671Z</time>
      </trkpt>
      <trkpt lat="45.58163" lon="5.41762">
        <ele>449</ele>
        <time>2021-04-03T14:07:48.671Z</time>
      </trkpt>
      <trkpt lat="45.58164" lon="5.41757">
        <ele>450</ele>
        <time>2021-04-03T14:07:49.671Z</time>
      </trkpt>
      <trkpt lat="45.58165" lon="5.41753">
        <ele>450</ele>
        <time>2021-04-03T14:07:50.671Z</time>
      </trkpt>
      <trkpt lat="45.58166" lon="5.4175">
        <ele>450</ele>
        <time>2021-04-03T14:07:51.670Z</time>
      </trkpt>
      <trkpt lat="45.58166" lon="5.41746">
        <ele>450</ele>
        <time>2021-04-03T14:07:52.671Z</time>
      </trkpt>
      <trkpt lat="45.58167" lon="5.41743">
        <ele>450</ele>
        <time>2021-04-03T14:07:53.671Z</time>
      </trkpt>
      <trkpt lat="45.58168" lon="5.4174">
        <ele>450</ele>
        <time>2021-04-03T14:07:54.670Z</time>
      </trkpt>
      <trkpt lat="45.58169" lon="5.41737">
        <ele>450</ele>
        <time>2021-04-03T14:07:55.671Z</time>
      </trkpt>
      <trkpt lat="45.5817" lon="5.41734">
        <ele>449</ele>
        <time>2021-04-03T14:07:56.671Z</time>
      </trkpt>
      <trkpt lat="45.58172" lon="5.41733">
        <ele>449</ele>
        <time>2021-04-03T14:07:57.671Z</time>
      </trkpt>
      <trkpt lat="45.58173" lon="5.41732">
        <ele>449</ele>
        <time>2021-04-03T14:07:58.670Z</time>
      </trkpt>
      <trkpt lat="45.58174" lon="5.41732">
        <ele>449</ele>
        <time>2021-04-03T14:07:59.670Z</time>
      </trkpt>
      <trkpt lat="45.58174" lon="5.41732">
        <ele>449</ele>
        <time>2021-04-03T14:08:00.671Z</time>
      </trkpt>
      <trkpt lat="45.58173" lon="5.41731">
        <ele>449</ele>
        <time>2021-04-03T14:08:01.671Z</time>
      </trkpt>
      <trkpt lat="45.58173" lon="5.41734">
        <ele>453</ele>
        <time>2021-04-03T14:08:02.672Z</time>
      </trkpt>
      <trkpt lat="45.58173" lon="5.41729">
        <ele>450</ele>
        <time>2021-04-03T14:08:03.672Z</time>
      </trkpt>
      <trkpt lat="45.58174" lon="5.41725">
        <ele>450</ele>
        <time>2021-04-03T14:08:04.673Z</time>
      </trkpt>
      <trkpt lat="45.58175" lon="5.4172">
        <ele>450</ele>
        <time>2021-04-03T14:08:05.673Z</time>
      </trkpt>
      <trkpt lat="45.58176" lon="5.41714">
        <ele>450</ele>
        <time>2021-04-03T14:08:06.673Z</time>
      </trkpt>
      <trkpt lat="45.58177" lon="5.41708">
        <ele>451</ele>
        <time>2021-04-03T14:08:07.673Z</time>
      </trkpt>
      <trkpt lat="45.58178" lon="5.41701">
        <ele>451</ele>
        <time>2021-04-03T14:08:08.673Z</time>
      </trkpt>
      <trkpt lat="45.5818" lon="5.41693">
        <ele>451</ele>
        <time>2021-04-03T14:08:09.672Z</time>
      </trkpt>
      <trkpt lat="45.58181" lon="5.41686">
        <ele>452</ele>
        <time>2021-04-03T14:08:10.673Z</time>
      </trkpt>
      <trkpt lat="45.58183" lon="5.41679">
        <ele>452</ele>
        <time>2021-04-03T14:08:11.673Z</time>
      </trkpt>
      <trkpt lat="45.58184" lon="5.41673">
        <ele>451</ele>
        <time>2021-04-03T14:08:12.673Z</time>
      </trkpt>
      <trkpt lat="45.58186" lon="5.41666">
        <ele>451</ele>
        <time>2021-04-03T14:08:13.672Z</time>
      </trkpt>
      <trkpt lat="45.58188" lon="5.4166">
        <ele>451</ele>
        <time>2021-04-03T14:08:14.673Z</time>
      </trkpt>
      <trkpt lat="45.5819" lon="5.41654">
        <ele>451</ele>
        <time>2021-04-03T14:08:15.673Z</time>
      </trkpt>
      <trkpt lat="45.58192" lon="5.41649">
        <ele>452</ele>
        <time>2021-04-03T14:08:16.673Z</time>
      </trkpt>
      <trkpt lat="45.58194" lon="5.41643">
        <ele>452</ele>
        <time>2021-04-03T14:08:17.673Z</time>
      </trkpt>
      <trkpt lat="45.58196" lon="5.41637">
        <ele>452</ele>
        <time>2021-04-03T14:08:18.672Z</time>
      </trkpt>
      <trkpt lat="45.58198" lon="5.41632">
        <ele>452</ele>
        <time>2021-04-03T14:08:19.673Z</time>
      </trkpt>
      <trkpt lat="45.582" lon="5.41626">
        <ele>452</ele>
        <time>2021-04-03T14:08:20.673Z</time>
      </trkpt>
      <trkpt lat="45.58202" lon="5.41621">
        <ele>452</ele>
        <time>2021-04-03T14:08:21.673Z</time>
      </trkpt>
      <trkpt lat="45.58203" lon="5.41615">
        <ele>452</ele>
        <time>2021-04-03T14:08:22.673Z</time>
      </trkpt>
      <trkpt lat="45.58205" lon="5.41611">
        <ele>452</ele>
        <time>2021-04-03T14:08:23.673Z</time>
      </trkpt>
      <trkpt lat="45.58207" lon="5.41606">
        <ele>452</ele>
        <time>2021-04-03T14:08:24.673Z</time>
      </trkpt>
      <trkpt lat="45.58209" lon="5.41601">
        <ele>451</ele>
        <time>2021-04-03T14:08:25.673Z</time>
      </trkpt>
      <trkpt lat="45.5821" lon="5.41597">
        <ele>451</ele>
        <time>2021-04-03T14:08:26.673Z</time>
      </trkpt>
      <trkpt lat="45.58212" lon="5.41592">
        <ele>451</ele>
        <time>2021-04-03T14:08:27.673Z</time>
      </trkpt>
      <trkpt lat="45.58214" lon="5.41586">
        <ele>451</ele>
        <time>2021-04-03T14:08:28.673Z</time>
      </trkpt>
      <trkpt lat="45.58216" lon="5.41581">
        <ele>451</ele>
        <time>2021-04-03T14:08:29.672Z</time>
      </trkpt>
      <trkpt lat="45.58218" lon="5.41576">
        <ele>451</ele>
        <time>2021-04-03T14:08:30.672Z</time>
      </trkpt>
      <trkpt lat="45.5822" lon="5.4157">
        <ele>451</ele>
        <time>2021-04-03T14:08:31.673Z</time>
      </trkpt>
      <trkpt lat="45.58222" lon="5.41564">
        <ele>451</ele>
        <time>2021-04-03T14:08:32.672Z</time>
      </trkpt>
      <trkpt lat="45.58224" lon="5.41559">
        <ele>451</ele>
        <time>2021-04-03T14:08:33.672Z</time>
      </trkpt>
      <trkpt lat="45.58226" lon="5.41553">
        <ele>452</ele>
        <time>2021-04-03T14:08:34.672Z</time>
      </trkpt>
      <trkpt lat="45.58229" lon="5.41548">
        <ele>452</ele>
        <time>2021-04-03T14:08:35.673Z</time>
      </trkpt>
      <trkpt lat="45.58231" lon="5.41543">
        <ele>453</ele>
        <time>2021-04-03T14:08:36.673Z</time>
      </trkpt>
      <trkpt lat="45.58234" lon="5.41538">
        <ele>453</ele>
        <time>2021-04-03T14:08:37.673Z</time>
      </trkpt>
      <trkpt lat="45.58236" lon="5.41533">
        <ele>453</ele>
        <time>2021-04-03T14:08:38.673Z</time>
      </trkpt>
      <trkpt lat="45.58238" lon="5.41528">
        <ele>453</ele>
        <time>2021-04-03T14:08:39.673Z</time>
      </trkpt>
      <trkpt lat="45.58238" lon="5.41523">
        <ele>453</ele>
        <time>2021-04-03T14:08:40.673Z</time>
      </trkpt>
      <trkpt lat="45.58238" lon="5.41518">
        <ele>453</ele>
        <time>2021-04-03T14:08:41.673Z</time>
      </trkpt>
      <trkpt lat="45.58236" lon="5.41513">
        <ele>452</ele>
        <time>2021-04-03T14:08:42.672Z</time>
      </trkpt>
      <trkpt lat="45.58235" lon="5.41507">
        <ele>452</ele>
        <time>2021-04-03T14:08:43.673Z</time>
      </trkpt>
      <trkpt lat="45.58234" lon="5.41501">
        <ele>452</ele>
        <time>2021-04-03T14:08:44.673Z</time>
      </trkpt>
      <trkpt lat="45.58233" lon="5.41495">
        <ele>452</ele>
        <time>2021-04-03T14:08:45.673Z</time>
      </trkpt>
      <trkpt lat="45.58232" lon="5.41489">
        <ele>451</ele>
        <time>2021-04-03T14:08:46.673Z</time>
      </trkpt>
      <trkpt lat="45.58232" lon="5.41483">
        <ele>451</ele>
        <time>2021-04-03T14:08:47.672Z</time>
      </trkpt>
      <trkpt lat="45.58232" lon="5.41476">
        <ele>452</ele>
        <time>2021-04-03T14:08:48.673Z</time>
      </trkpt>
      <trkpt lat="45.58232" lon="5.4147">
        <ele>452</ele>
        <time>2021-04-03T14:08:49.673Z</time>
      </trkpt>
      <trkpt lat="45.58233" lon="5.41463">
        <ele>452</ele>
        <time>2021-04-03T14:08:50.673Z</time>
      </trkpt>
      <trkpt lat="45.58233" lon="5.41457">
        <ele>452</ele>
        <time>2021-04-03T14:08:51.673Z</time>
      </trkpt>
      <trkpt lat="45.58234" lon="5.41451">
        <ele>452</ele>
        <time>2021-04-03T14:08:52.673Z</time>
      </trkpt>
      <trkpt lat="45.58234" lon="5.41444">
        <ele>452</ele>
        <time>2021-04-03T14:08:53.673Z</time>
      </trkpt>
      <trkpt lat="45.58235" lon="5.41438">
        <ele>453</ele>
        <time>2021-04-03T14:08:54.673Z</time>
      </trkpt>
      <trkpt lat="45.58236" lon="5.41432">
        <ele>453</ele>
        <time>2021-04-03T14:08:55.672Z</time>
      </trkpt>
      <trkpt lat="45.58236" lon="5.41426">
        <ele>453</ele>
        <time>2021-04-03T14:08:56.672Z</time>
      </trkpt>
      <trkpt lat="45.58237" lon="5.4142">
        <ele>454</ele>
        <time>2021-04-03T14:08:57.673Z</time>
      </trkpt>
      <trkpt lat="45.58238" lon="5.41413">
        <ele>454</ele>
        <time>2021-04-03T14:08:58.672Z</time>
      </trkpt>
      <trkpt lat="45.58238" lon="5.41406">
        <ele>454</ele>
        <time>2021-04-03T14:08:59.673Z</time>
      </trkpt>
      <trkpt lat="45.58239" lon="5.41399">
        <ele>454</ele>
        <time>2021-04-03T14:09:00.673Z</time>
      </trkpt>
      <trkpt lat="45.58239" lon="5.41391">
        <ele>455</ele>
        <time>2021-04-03T14:09:01.673Z</time>
      </trkpt>
      <trkpt lat="45.5824" lon="5.41383">
        <ele>454</ele>
        <time>2021-04-03T14:09:02.673Z</time>
      </trkpt>
      <trkpt lat="45.58241" lon="5.41375">
        <ele>454</ele>
        <time>2021-04-03T14:09:03.672Z</time>
      </trkpt>
      <trkpt lat="45.58241" lon="5.41367">
        <ele>454</ele>
        <time>2021-04-03T14:09:04.673Z</time>
      </trkpt>
      <trkpt lat="45.58242" lon="5.41359">
        <ele>454</ele>
        <time>2021-04-03T14:09:05.673Z</time>
      </trkpt>
      <trkpt lat="45.58243" lon="5.41352">
        <ele>454</ele>
        <time>2021-04-03T14:09:06.672Z</time>
      </trkpt>
      <trkpt lat="45.58243" lon="5.41344">
        <ele>455</ele>
        <time>2021-04-03T14:09:07.672Z</time>
      </trkpt>
      <trkpt lat="45.58244" lon="5.41336">
        <ele>455</ele>
        <time>2021-04-03T14:09:08.672Z</time>
      </trkpt>
      <trkpt lat="45.58245" lon="5.41329">
        <ele>455</ele>
        <time>2021-04-03T14:09:09.672Z</time>
      </trkpt>
      <trkpt lat="45.58246" lon="5.41321">
        <ele>455</ele>
        <time>2021-04-03T14:09:10.673Z</time>
      </trkpt>
      <trkpt lat="45.58247" lon="5.41314">
        <ele>455</ele>
        <time>2021-04-03T14:09:11.672Z</time>
      </trkpt>
      <trkpt lat="45.58248" lon="5.41306">
        <ele>455</ele>
        <time>2021-04-03T14:09:12.673Z</time>
      </trkpt>
      <trkpt lat="45.58249" lon="5.41298">
        <ele>454</ele>
        <time>2021-04-03T14:09:13.672Z</time>
      </trkpt>
      <trkpt lat="45.58249" lon="5.4129">
        <ele>454</ele>
        <time>2021-04-03T14:09:14.673Z</time>
      </trkpt>
      <trkpt lat="45.5825" lon="5.41283">
        <ele>455</ele>
        <time>2021-04-03T14:09:15.673Z</time>
      </trkpt>
      <trkpt lat="45.58251" lon="5.41275">
        <ele>455</ele>
        <time>2021-04-03T14:09:16.673Z</time>
      </trkpt>
      <trkpt lat="45.58251" lon="5.41267">
        <ele>456</ele>
        <time>2021-04-03T14:09:17.672Z</time>
      </trkpt>
      <trkpt lat="45.58252" lon="5.41259">
        <ele>456</ele>
        <time>2021-04-03T14:09:18.673Z</time>
      </trkpt>
      <trkpt lat="45.58253" lon="5.41251">
        <ele>455</ele>
        <time>2021-04-03T14:09:19.673Z</time>
      </trkpt>
      <trkpt lat="45.58253" lon="5.41244">
        <ele>455</ele>
        <time>2021-04-03T14:09:20.673Z</time>
      </trkpt>
      <trkpt lat="45.58254" lon="5.41236">
        <ele>455</ele>
        <time>2021-04-03T14:09:21.672Z</time>
      </trkpt>
      <trkpt lat="45.58255" lon="5.41228">
        <ele>455</ele>
        <time>2021-04-03T14:09:22.673Z</time>
      </trkpt>
      <trkpt lat="45.58256" lon="5.4122">
        <ele>454</ele>
        <time>2021-04-03T14:09:23.673Z</time>
      </trkpt>
      <trkpt lat="45.58257" lon="5.41212">
        <ele>454</ele>
        <time>2021-04-03T14:09:24.673Z</time>
      </trkpt>
      <trkpt lat="45.58258" lon="5.41204">
        <ele>454</ele>
        <time>2021-04-03T14:09:25.673Z</time>
      </trkpt>
      <trkpt lat="45.5826" lon="5.41197">
        <ele>453</ele>
        <time>2021-04-03T14:09:26.673Z</time>
      </trkpt>
      <trkpt lat="45.58262" lon="5.4119">
        <ele>453</ele>
        <time>2021-04-03T14:09:27.673Z</time>
      </trkpt>
      <trkpt lat="45.58264" lon="5.41183">
        <ele>452</ele>
        <time>2021-04-03T14:09:28.673Z</time>
      </trkpt>
      <trkpt lat="45.58266" lon="5.41177">
        <ele>452</ele>
        <time>2021-04-03T14:09:29.673Z</time>
      </trkpt>
      <trkpt lat="45.58269" lon="5.4117">
        <ele>451</ele>
        <time>2021-04-03T14:09:30.673Z</time>
      </trkpt>
      <trkpt lat="45.58271" lon="5.41164">
        <ele>451</ele>
        <time>2021-04-03T14:09:31.673Z</time>
      </trkpt>
      <trkpt lat="45.58274" lon="5.41159">
        <ele>451</ele>
        <time>2021-04-03T14:09:32.673Z</time>
      </trkpt>
      <trkpt lat="45.58277" lon="5.41153">
        <ele>451</ele>
        <time>2021-04-03T14:09:33.673Z</time>
      </trkpt>
      <trkpt lat="45.5828" lon="5.41147">
        <ele>450</ele>
        <time>2021-04-03T14:09:34.673Z</time>
      </trkpt>
      <trkpt lat="45.58283" lon="5.41142">
        <ele>450</ele>
        <time>2021-04-03T14:09:35.673Z</time>
      </trkpt>
      <trkpt lat="45.58285" lon="5.41138">
        <ele>450</ele>
        <time>2021-04-03T14:09:36.673Z</time>
      </trkpt>
      <trkpt lat="45.58288" lon="5.41133">
        <ele>450</ele>
        <time>2021-04-03T14:09:37.673Z</time>
      </trkpt>
      <trkpt lat="45.58291" lon="5.41129">
        <ele>451</ele>
        <time>2021-04-03T14:09:38.673Z</time>
      </trkpt>
      <trkpt lat="45.58294" lon="5.41126">
        <ele>451</ele>
        <time>2021-04-03T14:09:39.673Z</time>
      </trkpt>
      <trkpt lat="45.58297" lon="5.41122">
        <ele>452</ele>
        <time>2021-04-03T14:09:40.673Z</time>
      </trkpt>
      <trkpt lat="45.58301" lon="5.41119">
        <ele>452</ele>
        <time>2021-04-03T14:09:41.673Z</time>
      </trkpt>
      <trkpt lat="45.58304" lon="5.41116">
        <ele>452</ele>
        <time>2021-04-03T14:09:42.673Z</time>
      </trkpt>
      <trkpt lat="45.58307" lon="5.41112">
        <ele>452</ele>
        <time>2021-04-03T14:09:43.672Z</time>
      </trkpt>
      <trkpt lat="45.5831" lon="5.41109">
        <ele>452</ele>
        <time>2021-04-03T14:09:44.673Z</time>
      </trkpt>
      <trkpt lat="45.58314" lon="5.41106">
        <ele>452</ele>
        <time>2021-04-03T14:09:45.672Z</time>
      </trkpt>
      <trkpt lat="45.58317" lon="5.41102">
        <ele>452</ele>
        <time>2021-04-03T14:09:46.673Z</time>
      </trkpt>
      <trkpt lat="45.58322" lon="5.41098">
        <ele>452</ele>
        <time>2021-04-03T14:09:47.673Z</time>
      </trkpt>
      <trkpt lat="45.58325" lon="5.41095">
        <ele>451</ele>
        <time>2021-04-03T14:09:48.672Z</time>
      </trkpt>
      <trkpt lat="45.58328" lon="5.41092">
        <ele>451</ele>
        <time>2021-04-03T14:09:49.673Z</time>
      </trkpt>
      <trkpt lat="45.58332" lon="5.41088">
        <ele>451</ele>
        <time>2021-04-03T14:09:50.673Z</time>
      </trkpt>
      <trkpt lat="45.58336" lon="5.41085">
        <ele>451</ele>
        <time>2021-04-03T14:09:51.673Z</time>
      </trkpt>
      <trkpt lat="45.5834" lon="5.41081">
        <ele>451</ele>
        <time>2021-04-03T14:09:52.672Z</time>
      </trkpt>
      <trkpt lat="45.58344" lon="5.41077">
        <ele>451</ele>
        <time>2021-04-03T14:09:53.673Z</time>
      </trkpt>
      <trkpt lat="45.58348" lon="5.41073">
        <ele>451</ele>
        <time>2021-04-03T14:09:54.672Z</time>
      </trkpt>
      <trkpt lat="45.58351" lon="5.41069">
        <ele>451</ele>
        <time>2021-04-03T14:09:55.672Z</time>
      </trkpt>
      <trkpt lat="45.58354" lon="5.41064">
        <ele>451</ele>
        <time>2021-04-03T14:09:56.673Z</time>
      </trkpt>
      <trkpt lat="45.58357" lon="5.4106">
        <ele>451</ele>
        <time>2021-04-03T14:09:57.672Z</time>
      </trkpt>
      <trkpt lat="45.5836" lon="5.41055">
        <ele>451</ele>
        <time>2021-04-03T14:09:58.672Z</time>
      </trkpt>
      <trkpt lat="45.58363" lon="5.41051">
        <ele>451</ele>
        <time>2021-04-03T14:09:59.673Z</time>
      </trkpt>
      <trkpt lat="45.58366" lon="5.41046">
        <ele>452</ele>
        <time>2021-04-03T14:10:00.673Z</time>
      </trkpt>
      <trkpt lat="45.58369" lon="5.41042">
        <ele>453</ele>
        <time>2021-04-03T14:10:01.673Z</time>
      </trkpt>
      <trkpt lat="45.58372" lon="5.41038">
        <ele>453</ele>
        <time>2021-04-03T14:10:02.672Z</time>
      </trkpt>
      <trkpt lat="45.58375" lon="5.41034">
        <ele>454</ele>
        <time>2021-04-03T14:10:03.673Z</time>
      </trkpt>
      <trkpt lat="45.58377" lon="5.4103">
        <ele>454</ele>
        <time>2021-04-03T14:10:04.673Z</time>
      </trkpt>
      <trkpt lat="45.5838" lon="5.41026">
        <ele>453</ele>
        <time>2021-04-03T14:10:05.673Z</time>
      </trkpt>
      <trkpt lat="45.58382" lon="5.41022">
        <ele>453</ele>
        <time>2021-04-03T14:10:06.673Z</time>
      </trkpt>
      <trkpt lat="45.58384" lon="5.41018">
        <ele>453</ele>
        <time>2021-04-03T14:10:07.673Z</time>
      </trkpt>
      <trkpt lat="45.58386" lon="5.41014">
        <ele>453</ele>
        <time>2021-04-03T14:10:08.673Z</time>
      </trkpt>
      <trkpt lat="45.58388" lon="5.41009">
        <ele>453</ele>
        <time>2021-04-03T14:10:09.673Z</time>
      </trkpt>
      <trkpt lat="45.5839" lon="5.41005">
        <ele>454</ele>
        <time>2021-04-03T14:10:10.672Z</time>
      </trkpt>
      <trkpt lat="45.58392" lon="5.41001">
        <ele>454</ele>
        <time>2021-04-03T14:10:11.672Z</time>
      </trkpt>
      <trkpt lat="45.58394" lon="5.40996">
        <ele>454</ele>
        <time>2021-04-03T14:10:12.672Z</time>
      </trkpt>
      <trkpt lat="45.58397" lon="5.40992">
        <ele>453</ele>
        <time>2021-04-03T14:10:13.673Z</time>
      </trkpt>
      <trkpt lat="45.58399" lon="5.40988">
        <ele>453</ele>
        <time>2021-04-03T14:10:14.673Z</time>
      </trkpt>
      <trkpt lat="45.58401" lon="5.40983">
        <ele>453</ele>
        <time>2021-04-03T14:10:15.673Z</time>
      </trkpt>
      <trkpt lat="45.58403" lon="5.40978">
        <ele>453</ele>
        <time>2021-04-03T14:10:16.673Z</time>
      </trkpt>
      <trkpt lat="45.58405" lon="5.40974">
        <ele>454</ele>
        <time>2021-04-03T14:10:17.673Z</time>
      </trkpt>
      <trkpt lat="45.58408" lon="5.40969">
        <ele>454</ele>
        <time>2021-04-03T14:10:18.673Z</time>
      </trkpt>
      <trkpt lat="45.5841" lon="5.40965">
        <ele>454</ele>
        <time>2021-04-03T14:10:19.673Z</time>
      </trkpt>
      <trkpt lat="45.58412" lon="5.4096">
        <ele>454</ele>
        <time>2021-04-03T14:10:20.672Z</time>
      </trkpt>
      <trkpt lat="45.58414" lon="5.40956">
        <ele>454</ele>
        <time>2021-04-03T14:10:21.673Z</time>
      </trkpt>
      <trkpt lat="45.58416" lon="5.40951">
        <ele>454</ele>
        <time>2021-04-03T14:10:22.672Z</time>
      </trkpt>
      <trkpt lat="45.58418" lon="5.40947">
        <ele>455</ele>
        <time>2021-04-03T14:10:23.672Z</time>
      </trkpt>
      <trkpt lat="45.5842" lon="5.40942">
        <ele>455</ele>
        <time>2021-04-03T14:10:24.673Z</time>
      </trkpt>
      <trkpt lat="45.58422" lon="5.40938">
        <ele>456</ele>
        <time>2021-04-03T14:10:25.672Z</time>
      </trkpt>
      <trkpt lat="45.58424" lon="5.40933">
        <ele>456</ele>
        <time>2021-04-03T14:10:26.673Z</time>
      </trkpt>
      <trkpt lat="45.58426" lon="5.40929">
        <ele>456</ele>
        <time>2021-04-03T14:10:27.673Z</time>
      </trkpt>
      <trkpt lat="45.58428" lon="5.40925">
        <ele>456</ele>
        <time>2021-04-03T14:10:28.673Z</time>
      </trkpt>
      <trkpt lat="45.5843" lon="5.4092">
        <ele>456</ele>
        <time>2021-04-03T14:10:29.673Z</time>
      </trkpt>
      <trkpt lat="45.58432" lon="5.40916">
        <ele>457</ele>
        <time>2021-04-03T14:10:30.673Z</time>
      </trkpt>
      <trkpt lat="45.58434" lon="5.40912">
        <ele>457</ele>
        <time>2021-04-03T14:10:31.673Z</time>
      </trkpt>
      <trkpt lat="45.58436" lon="5.40907">
        <ele>458</ele>
        <time>2021-04-03T14:10:32.673Z</time>
      </trkpt>
      <trkpt lat="45.58438" lon="5.40903">
        <ele>458</ele>
        <time>2021-04-03T14:10:33.672Z</time>
      </trkpt>
      <trkpt lat="45.5844" lon="5.40898">
        <ele>459</ele>
        <time>2021-04-03T14:10:34.673Z</time>
      </trkpt>
      <trkpt lat="45.58442" lon="5.40894">
        <ele>459</ele>
        <time>2021-04-03T14:10:35.673Z</time>
      </trkpt>
      <trkpt lat="45.58445" lon="5.40889">
        <ele>459</ele>
        <time>2021-04-03T14:10:36.672Z</time>
      </trkpt>
      <trkpt lat="45.58447" lon="5.40885">
        <ele>460</ele>
        <time>2021-04-03T14:10:37.672Z</time>
      </trkpt>
      <trkpt lat="45.58449" lon="5.40881">
        <ele>460</ele>
        <time>2021-04-03T14:10:38.673Z</time>
      </trkpt>
      <trkpt lat="45.58451" lon="5.40877">
        <ele>460</ele>
        <time>2021-04-03T14:10:39.673Z</time>
      </trkpt>
      <trkpt lat="45.58453" lon="5.40872">
        <ele>460</ele>
        <time>2021-04-03T14:10:40.673Z</time>
      </trkpt>
      <trkpt lat="45.58455" lon="5.40868">
        <ele>461</ele>
        <time>2021-04-03T14:10:41.673Z</time>
      </trkpt>
      <trkpt lat="45.58456" lon="5.40864">
        <ele>460</ele>
        <time>2021-04-03T14:10:42.673Z</time>
      </trkpt>
      <trkpt lat="45.58459" lon="5.4086">
        <ele>460</ele>
        <time>2021-04-03T14:10:43.673Z</time>
      </trkpt>
      <trkpt lat="45.58461" lon="5.40856">
        <ele>460</ele>
        <time>2021-04-03T14:10:44.673Z</time>
      </trkpt>
      <trkpt lat="45.58462" lon="5.40851">
        <ele>460</ele>
        <time>2021-04-03T14:10:45.673Z</time>
      </trkpt>
      <trkpt lat="45.58464" lon="5.40847">
        <ele>460</ele>
        <time>2021-04-03T14:10:46.673Z</time>
      </trkpt>
      <trkpt lat="45.58466" lon="5.40843">
        <ele>460</ele>
        <time>2021-04-03T14:10:47.672Z</time>
      </trkpt>
      <trkpt lat="45.58468" lon="5.40839">
        <ele>461</ele>
        <time>2021-04-03T14:10:48.673Z</time>
      </trkpt>
      <trkpt lat="45.5847" lon="5.40835">
        <ele>462</ele>
        <time>2021-04-03T14:10:49.673Z</time>
      </trkpt>
      <trkpt lat="45.58472" lon="5.40831">
        <ele>463</ele>
        <time>2021-04-03T14:10:50.672Z</time>
      </trkpt>
      <trkpt lat="45.58474" lon="5.40827">
        <ele>463</ele>
        <time>2021-04-03T14:10:51.672Z</time>
      </trkpt>
      <trkpt lat="45.58476" lon="5.40823">
        <ele>463</ele>
        <time>2021-04-03T14:10:52.673Z</time>
      </trkpt>
      <trkpt lat="45.58478" lon="5.40819">
        <ele>464</ele>
        <time>2021-04-03T14:10:53.673Z</time>
      </trkpt>
      <trkpt lat="45.5848" lon="5.40815">
        <ele>464</ele>
        <time>2021-04-03T14:10:54.673Z</time>
      </trkpt>
      <trkpt lat="45.58482" lon="5.40811">
        <ele>464</ele>
        <time>2021-04-03T14:10:55.673Z</time>
      </trkpt>
      <trkpt lat="45.58484" lon="5.40807">
        <ele>464</ele>
        <time>2021-04-03T14:10:56.672Z</time>
      </trkpt>
      <trkpt lat="45.58486" lon="5.40803">
        <ele>465</ele>
        <time>2021-04-03T14:10:57.673Z</time>
      </trkpt>
      <trkpt lat="45.58488" lon="5.40799">
        <ele>465</ele>
        <time>2021-04-03T14:10:58.672Z</time>
      </trkpt>
      <trkpt lat="45.5849" lon="5.40795">
        <ele>465</ele>
        <time>2021-04-03T14:10:59.673Z</time>
      </trkpt>
      <trkpt lat="45.58492" lon="5.40791">
        <ele>465</ele>
        <time>2021-04-03T14:11:00.672Z</time>
      </trkpt>
      <trkpt lat="45.58494" lon="5.40787">
        <ele>466</ele>
        <time>2021-04-03T14:11:01.673Z</time>
      </trkpt>
      <trkpt lat="45.58496" lon="5.40783">
        <ele>466</ele>
        <time>2021-04-03T14:11:02.673Z</time>
      </trkpt>
      <trkpt lat="45.58498" lon="5.40778">
        <ele>466</ele>
        <time>2021-04-03T14:11:03.672Z</time>
      </trkpt>
      <trkpt lat="45.585" lon="5.40774">
        <ele>466</ele>
        <time>2021-04-03T14:11:04.672Z</time>
      </trkpt>
      <trkpt lat="45.58502" lon="5.4077">
        <ele>466</ele>
        <time>2021-04-03T14:11:05.673Z</time>
      </trkpt>
      <trkpt lat="45.58503" lon="5.40765">
        <ele>466</ele>
        <time>2021-04-03T14:11:06.673Z</time>
      </trkpt>
      <trkpt lat="45.58506" lon="5.40761">
        <ele>466</ele>
        <time>2021-04-03T14:11:07.673Z</time>
      </trkpt>
      <trkpt lat="45.58508" lon="5.40757">
        <ele>466</ele>
        <time>2021-04-03T14:11:08.673Z</time>
      </trkpt>
      <trkpt lat="45.5851" lon="5.40752">
        <ele>466</ele>
        <time>2021-04-03T14:11:09.673Z</time>
      </trkpt>
      <trkpt lat="45.58512" lon="5.40748">
        <ele>466</ele>
        <time>2021-04-03T14:11:10.673Z</time>
      </trkpt>
      <trkpt lat="45.58514" lon="5.40743">
        <ele>466</ele>
        <time>2021-04-03T14:11:11.672Z</time>
      </trkpt>
      <trkpt lat="45.58516" lon="5.40739">
        <ele>467</ele>
        <time>2021-04-03T14:11:12.673Z</time>
      </trkpt>
      <trkpt lat="45.58518" lon="5.40734">
        <ele>467</ele>
        <time>2021-04-03T14:11:13.673Z</time>
      </trkpt>
      <trkpt lat="45.5852" lon="5.4073">
        <ele>467</ele>
        <time>2021-04-03T14:11:14.672Z</time>
      </trkpt>
      <trkpt lat="45.58522" lon="5.40725">
        <ele>467</ele>
        <time>2021-04-03T14:11:15.673Z</time>
      </trkpt>
      <trkpt lat="45.58524" lon="5.40721">
        <ele>467</ele>
        <time>2021-04-03T14:11:16.673Z</time>
      </trkpt>
      <trkpt lat="45.58526" lon="5.40716">
        <ele>468</ele>
        <time>2021-04-03T14:11:17.673Z</time>
      </trkpt>
      <trkpt lat="45.58528" lon="5.40712">
        <ele>469</ele>
        <time>2021-04-03T14:11:18.673Z</time>
      </trkpt>
      <trkpt lat="45.5853" lon="5.40708">
        <ele>469</ele>
        <time>2021-04-03T14:11:19.673Z</time>
      </trkpt>
      <trkpt lat="45.58532" lon="5.40703">
        <ele>470</ele>
        <time>2021-04-03T14:11:20.673Z</time>
      </trkpt>
      <trkpt lat="45.58534" lon="5.40698">
        <ele>470</ele>
        <time>2021-04-03T14:11:21.673Z</time>
      </trkpt>
      <trkpt lat="45.58536" lon="5.40694">
        <ele>471</ele>
        <time>2021-04-03T14:11:22.673Z</time>
      </trkpt>
      <trkpt lat="45.58538" lon="5.40689">
        <ele>471</ele>
        <time>2021-04-03T14:11:23.672Z</time>
      </trkpt>
      <trkpt lat="45.5854" lon="5.40684">
        <ele>472</ele>
        <time>2021-04-03T14:11:24.673Z</time>
      </trkpt>
      <trkpt lat="45.58542" lon="5.4068">
        <ele>472</ele>
        <time>2021-04-03T14:11:25.673Z</time>
      </trkpt>
      <trkpt lat="45.58543" lon="5.40675">
        <ele>472</ele>
        <time>2021-04-03T14:11:26.673Z</time>
      </trkpt>
      <trkpt lat="45.58545" lon="5.4067">
        <ele>472</ele>
        <time>2021-04-03T14:11:27.672Z</time>
      </trkpt>
      <trkpt lat="45.58547" lon="5.40665">
        <ele>473</ele>
        <time>2021-04-03T14:11:28.673Z</time>
      </trkpt>
      <trkpt lat="45.58548" lon="5.40661">
        <ele>473</ele>
        <time>2021-04-03T14:11:29.673Z</time>
      </trkpt>
      <trkpt lat="45.5855" lon="5.40656">
        <ele>473</ele>
        <time>2021-04-03T14:11:30.672Z</time>
      </trkpt>
      <trkpt lat="45.58551" lon="5.40652">
        <ele>473</ele>
        <time>2021-04-03T14:11:31.673Z</time>
      </trkpt>
      <trkpt lat="45.58552" lon="5.40648">
        <ele>474</ele>
        <time>2021-04-03T14:11:32.673Z</time>
      </trkpt>
      <trkpt lat="45.58553" lon="5.40643">
        <ele>474</ele>
        <time>2021-04-03T14:11:33.672Z</time>
      </trkpt>
      <trkpt lat="45.58554" lon="5.40638">
        <ele>474</ele>
        <time>2021-04-03T14:11:34.672Z</time>
      </trkpt>
      <trkpt lat="45.58555" lon="5.40634">
        <ele>474</ele>
        <time>2021-04-03T14:11:35.673Z</time>
      </trkpt>
      <trkpt lat="45.58557" lon="5.40629">
        <ele>474</ele>
        <time>2021-04-03T14:11:36.672Z</time>
      </trkpt>
      <trkpt lat="45.58558" lon="5.40624">
        <ele>474</ele>
        <time>2021-04-03T14:11:37.672Z</time>
      </trkpt>
      <trkpt lat="45.58559" lon="5.4062">
        <ele>474</ele>
        <time>2021-04-03T14:11:38.672Z</time>
      </trkpt>
      <trkpt lat="45.58561" lon="5.40615">
        <ele>474</ele>
        <time>2021-04-03T14:11:39.673Z</time>
      </trkpt>
      <trkpt lat="45.58562" lon="5.4061">
        <ele>474</ele>
        <time>2021-04-03T14:11:40.673Z</time>
      </trkpt>
      <trkpt lat="45.58563" lon="5.40605">
        <ele>474</ele>
        <time>2021-04-03T14:11:41.672Z</time>
      </trkpt>
      <trkpt lat="45.58563" lon="5.406">
        <ele>475</ele>
        <time>2021-04-03T14:11:42.673Z</time>
      </trkpt>
      <trkpt lat="45.58564" lon="5.40595">
        <ele>475</ele>
        <time>2021-04-03T14:11:43.673Z</time>
      </trkpt>
      <trkpt lat="45.58565" lon="5.4059">
        <ele>475</ele>
        <time>2021-04-03T14:11:44.673Z</time>
      </trkpt>
      <trkpt lat="45.58566" lon="5.40585">
        <ele>476</ele>
        <time>2021-04-03T14:11:45.672Z</time>
      </trkpt>
      <trkpt lat="45.58567" lon="5.4058">
        <ele>476</ele>
        <time>2021-04-03T14:11:46.673Z</time>
      </trkpt>
      <trkpt lat="45.58567" lon="5.40576">
        <ele>475</ele>
        <time>2021-04-03T14:11:47.673Z</time>
      </trkpt>
      <trkpt lat="45.58568" lon="5.40571">
        <ele>475</ele>
        <time>2021-04-03T14:11:48.673Z</time>
      </trkpt>
      <trkpt lat="45.58569" lon="5.40567">
        <ele>475</ele>
        <time>2021-04-03T14:11:49.673Z</time>
      </trkpt>
      <trkpt lat="45.5857" lon="5.40562">
        <ele>475</ele>
        <time>2021-04-03T14:11:50.673Z</time>
      </trkpt>
      <trkpt lat="45.58571" lon="5.40557">
        <ele>474</ele>
        <time>2021-04-03T14:11:51.673Z</time>
      </trkpt>
      <trkpt lat="45.58572" lon="5.40552">
        <ele>474</ele>
        <time>2021-04-03T14:11:52.673Z</time>
      </trkpt>
      <trkpt lat="45.58572" lon="5.40546">
        <ele>475</ele>
        <time>2021-04-03T14:11:53.673Z</time>
      </trkpt>
      <trkpt lat="45.58573" lon="5.40541">
        <ele>475</ele>
        <time>2021-04-03T14:11:54.672Z</time>
      </trkpt>
      <trkpt lat="45.58574" lon="5.40536">
        <ele>475</ele>
        <time>2021-04-03T14:11:55.673Z</time>
      </trkpt>
      <trkpt lat="45.58575" lon="5.4053">
        <ele>475</ele>
        <time>2021-04-03T14:11:56.673Z</time>
      </trkpt>
      <trkpt lat="45.58575" lon="5.40525">
        <ele>475</ele>
        <time>2021-04-03T14:11:57.672Z</time>
      </trkpt>
      <trkpt lat="45.58576" lon="5.4052">
        <ele>475</ele>
        <time>2021-04-03T14:11:58.673Z</time>
      </trkpt>
      <trkpt lat="45.58577" lon="5.40514">
        <ele>475</ele>
        <time>2021-04-03T14:11:59.673Z</time>
      </trkpt>
      <trkpt lat="45.58578" lon="5.40509">
        <ele>475</ele>
        <time>2021-04-03T14:12:00.673Z</time>
      </trkpt>
      <trkpt lat="45.58578" lon="5.40503">
        <ele>475</ele>
        <time>2021-04-03T14:12:01.672Z</time>
      </trkpt>
      <trkpt lat="45.58579" lon="5.40498">
        <ele>475</ele>
        <time>2021-04-03T14:12:02.672Z</time>
      </trkpt>
      <trkpt lat="45.5858" lon="5.40493">
        <ele>475</ele>
        <time>2021-04-03T14:12:03.673Z</time>
      </trkpt>
      <trkpt lat="45.58581" lon="5.40488">
        <ele>475</ele>
        <time>2021-04-03T14:12:04.673Z</time>
      </trkpt>
      <trkpt lat="45.58581" lon="5.40482">
        <ele>475</ele>
        <time>2021-04-03T14:12:05.673Z</time>
      </trkpt>
      <trkpt lat="45.58582" lon="5.40477">
        <ele>474</ele>
        <time>2021-04-03T14:12:06.673Z</time>
      </trkpt>
      <trkpt lat="45.58583" lon="5.40472">
        <ele>474</ele>
        <time>2021-04-03T14:12:07.673Z</time>
      </trkpt>
      <trkpt lat="45.58584" lon="5.40466">
        <ele>474</ele>
        <time>2021-04-03T14:12:08.673Z</time>
      </trkpt>
      <trkpt lat="45.58585" lon="5.40461">
        <ele>474</ele>
        <time>2021-04-03T14:12:09.673Z</time>
      </trkpt>
      <trkpt lat="45.58586" lon="5.40456">
        <ele>473</ele>
        <time>2021-04-03T14:12:10.673Z</time>
      </trkpt>
      <trkpt lat="45.58586" lon="5.4045">
        <ele>473</ele>
        <time>2021-04-03T14:12:11.673Z</time>
      </trkpt>
      <trkpt lat="45.58587" lon="5.40444">
        <ele>474</ele>
        <time>2021-04-03T14:12:12.673Z</time>
      </trkpt>
      <trkpt lat="45.58588" lon="5.40439">
        <ele>474</ele>
        <time>2021-04-03T14:12:13.672Z</time>
      </trkpt>
      <trkpt lat="45.58589" lon="5.40433">
        <ele>474</ele>
        <time>2021-04-03T14:12:14.673Z</time>
      </trkpt>
      <trkpt lat="45.5859" lon="5.40427">
        <ele>475</ele>
        <time>2021-04-03T14:12:15.673Z</time>
      </trkpt>
      <trkpt lat="45.5859" lon="5.40422">
        <ele>475</ele>
        <time>2021-04-03T14:12:16.673Z</time>
      </trkpt>
      <trkpt lat="45.58591" lon="5.40416">
        <ele>476</ele>
        <time>2021-04-03T14:12:17.673Z</time>
      </trkpt>
      <trkpt lat="45.58592" lon="5.40411">
        <ele>476</ele>
        <time>2021-04-03T14:12:18.673Z</time>
      </trkpt>
      <trkpt lat="45.58593" lon="5.40405">
        <ele>477</ele>
        <time>2021-04-03T14:12:19.673Z</time>
      </trkpt>
      <trkpt lat="45.58593" lon="5.40399">
        <ele>477</ele>
        <time>2021-04-03T14:12:20.673Z</time>
      </trkpt>
      <trkpt lat="45.58594" lon="5.40394">
        <ele>476</ele>
        <time>2021-04-03T14:12:21.673Z</time>
      </trkpt>
      <trkpt lat="45.58595" lon="5.40388">
        <ele>476</ele>
        <time>2021-04-03T14:12:22.673Z</time>
      </trkpt>
      <trkpt lat="45.58596" lon="5.40383">
        <ele>476</ele>
        <time>2021-04-03T14:12:23.673Z</time>
      </trkpt>
      <trkpt lat="45.58597" lon="5.40377">
        <ele>476</ele>
        <time>2021-04-03T14:12:24.673Z</time>
      </trkpt>
      <trkpt lat="45.58597" lon="5.40371">
        <ele>476</ele>
        <time>2021-04-03T14:12:25.673Z</time>
      </trkpt>
      <trkpt lat="45.58598" lon="5.40366">
        <ele>476</ele>
        <time>2021-04-03T14:12:26.673Z</time>
      </trkpt>
      <trkpt lat="45.58599" lon="5.4036">
        <ele>476</ele>
        <time>2021-04-03T14:12:27.673Z</time>
      </trkpt>
      <trkpt lat="45.58599" lon="5.40355">
        <ele>476</ele>
        <time>2021-04-03T14:12:28.673Z</time>
      </trkpt>
      <trkpt lat="45.586" lon="5.40349">
        <ele>477</ele>
        <time>2021-04-03T14:12:29.673Z</time>
      </trkpt>
      <trkpt lat="45.58601" lon="5.40344">
        <ele>477</ele>
        <time>2021-04-03T14:12:30.673Z</time>
      </trkpt>
      <trkpt lat="45.58602" lon="5.40338">
        <ele>477</ele>
        <time>2021-04-03T14:12:31.673Z</time>
      </trkpt>
      <trkpt lat="45.58602" lon="5.40332">
        <ele>478</ele>
        <time>2021-04-03T14:12:32.673Z</time>
      </trkpt>
      <trkpt lat="45.58603" lon="5.40326">
        <ele>478</ele>
        <time>2021-04-03T14:12:33.672Z</time>
      </trkpt>
      <trkpt lat="45.58604" lon="5.40321">
        <ele>478</ele>
        <time>2021-04-03T14:12:34.673Z</time>
      </trkpt>
      <trkpt lat="45.58605" lon="5.40315">
        <ele>479</ele>
        <time>2021-04-03T14:12:35.672Z</time>
      </trkpt>
      <trkpt lat="45.58606" lon="5.40309">
        <ele>478</ele>
        <time>2021-04-03T14:12:36.672Z</time>
      </trkpt>
      <trkpt lat="45.58607" lon="5.40303">
        <ele>478</ele>
        <time>2021-04-03T14:12:37.673Z</time>
      </trkpt>
      <trkpt lat="45.58608" lon="5.40298">
        <ele>478</ele>
        <time>2021-04-03T14:12:38.673Z</time>
      </trkpt>
      <trkpt lat="45.58608" lon="5.40292">
        <ele>478</ele>
        <time>2021-04-03T14:12:39.673Z</time>
      </trkpt>
      <trkpt lat="45.58609" lon="5.40286">
        <ele>477</ele>
        <time>2021-04-03T14:12:40.673Z</time>
      </trkpt>
      <trkpt lat="45.5861" lon="5.40281">
        <ele>477</ele>
        <time>2021-04-03T14:12:41.673Z</time>
      </trkpt>
      <trkpt lat="45.58611" lon="5.40275">
        <ele>477</ele>
        <time>2021-04-03T14:12:42.673Z</time>
      </trkpt>
      <trkpt lat="45.58612" lon="5.4027">
        <ele>477</ele>
        <time>2021-04-03T14:12:43.672Z</time>
      </trkpt>
      <trkpt lat="45.58613" lon="5.40264">
        <ele>477</ele>
        <time>2021-04-03T14:12:44.673Z</time>
      </trkpt>
      <trkpt lat="45.58614" lon="5.40258">
        <ele>476</ele>
        <time>2021-04-03T14:12:45.673Z</time>
      </trkpt>
      <trkpt lat="45.58614" lon="5.40253">
        <ele>476</ele>
        <time>2021-04-03T14:12:46.673Z</time>
      </trkpt>
      <trkpt lat="45.58615" lon="5.40247">
        <ele>476</ele>
        <time>2021-04-03T14:12:47.673Z</time>
      </trkpt>
      <trkpt lat="45.58616" lon="5.40241">
        <ele>475</ele>
        <time>2021-04-03T14:12:48.673Z</time>
      </trkpt>
      <trkpt lat="45.58617" lon="5.40235">
        <ele>475</ele>
        <time>2021-04-03T14:12:49.673Z</time>
      </trkpt>
      <trkpt lat="45.58618" lon="5.40229">
        <ele>475</ele>
        <time>2021-04-03T14:12:50.672Z</time>
      </trkpt>
      <trkpt lat="45.58619" lon="5.40223">
        <ele>475</ele>
        <time>2021-04-03T14:12:51.673Z</time>
      </trkpt>
      <trkpt lat="45.5862" lon="5.40217">
        <ele>476</ele>
        <time>2021-04-03T14:12:52.673Z</time>
      </trkpt>
      <trkpt lat="45.58621" lon="5.4021">
        <ele>476</ele>
        <time>2021-04-03T14:12:53.673Z</time>
      </trkpt>
      <trkpt lat="45.58622" lon="5.40204">
        <ele>476</ele>
        <time>2021-04-03T14:12:54.673Z</time>
      </trkpt>
      <trkpt lat="45.58623" lon="5.40198">
        <ele>477</ele>
        <time>2021-04-03T14:12:55.672Z</time>
      </trkpt>
      <trkpt lat="45.58624" lon="5.40192">
        <ele>477</ele>
        <time>2021-04-03T14:12:56.672Z</time>
      </trkpt>
      <trkpt lat="45.58625" lon="5.40187">
        <ele>476</ele>
        <time>2021-04-03T14:12:57.673Z</time>
      </trkpt>
      <trkpt lat="45.58626" lon="5.40181">
        <ele>476</ele>
        <time>2021-04-03T14:12:58.672Z</time>
      </trkpt>
      <trkpt lat="45.58627" lon="5.40175">
        <ele>476</ele>
        <time>2021-04-03T14:12:59.672Z</time>
      </trkpt>
      <trkpt lat="45.58628" lon="5.40169">
        <ele>477</ele>
        <time>2021-04-03T14:13:00.673Z</time>
      </trkpt>
      <trkpt lat="45.58629" lon="5.40163">
        <ele>477</ele>
        <time>2021-04-03T14:13:01.672Z</time>
      </trkpt>
      <trkpt lat="45.5863" lon="5.40157">
        <ele>477</ele>
        <time>2021-04-03T14:13:02.673Z</time>
      </trkpt>
      <trkpt lat="45.58631" lon="5.40151">
        <ele>478</ele>
        <time>2021-04-03T14:13:03.672Z</time>
      </trkpt>
      <trkpt lat="45.58632" lon="5.40145">
        <ele>478</ele>
        <time>2021-04-03T14:13:04.673Z</time>
      </trkpt>
      <trkpt lat="45.58633" lon="5.40139">
        <ele>478</ele>
        <time>2021-04-03T14:13:05.673Z</time>
      </trkpt>
      <trkpt lat="45.58634" lon="5.40133">
        <ele>478</ele>
        <time>2021-04-03T14:13:06.673Z</time>
      </trkpt>
      <trkpt lat="45.58634" lon="5.40128">
        <ele>478</ele>
        <time>2021-04-03T14:13:07.672Z</time>
      </trkpt>
      <trkpt lat="45.58635" lon="5.40122">
        <ele>478</ele>
        <time>2021-04-03T14:13:08.673Z</time>
      </trkpt>
      <trkpt lat="45.58636" lon="5.40116">
        <ele>478</ele>
        <time>2021-04-03T14:13:09.672Z</time>
      </trkpt>
      <trkpt lat="45.58637" lon="5.40111">
        <ele>478</ele>
        <time>2021-04-03T14:13:10.672Z</time>
      </trkpt>
      <trkpt lat="45.58638" lon="5.40105">
        <ele>478</ele>
        <time>2021-04-03T14:13:11.673Z</time>
      </trkpt>
      <trkpt lat="45.58639" lon="5.401">
        <ele>478</ele>
        <time>2021-04-03T14:13:12.672Z</time>
      </trkpt>
      <trkpt lat="45.5864" lon="5.40094">
        <ele>478</ele>
        <time>2021-04-03T14:13:13.673Z</time>
      </trkpt>
      <trkpt lat="45.58641" lon="5.40089">
        <ele>478</ele>
        <time>2021-04-03T14:13:14.673Z</time>
      </trkpt>
      <trkpt lat="45.58642" lon="5.40083">
        <ele>478</ele>
        <time>2021-04-03T14:13:15.672Z</time>
      </trkpt>
      <trkpt lat="45.58643" lon="5.40077">
        <ele>478</ele>
        <time>2021-04-03T14:13:16.673Z</time>
      </trkpt>
      <trkpt lat="45.58644" lon="5.40072">
        <ele>479</ele>
        <time>2021-04-03T14:13:17.673Z</time>
      </trkpt>
      <trkpt lat="45.58645" lon="5.40066">
        <ele>479</ele>
        <time>2021-04-03T14:13:18.672Z</time>
      </trkpt>
      <trkpt lat="45.58646" lon="5.40061">
        <ele>479</ele>
        <time>2021-04-03T14:13:19.673Z</time>
      </trkpt>
      <trkpt lat="45.58647" lon="5.40056">
        <ele>480</ele>
        <time>2021-04-03T14:13:20.672Z</time>
      </trkpt>
      <trkpt lat="45.58648" lon="5.4005">
        <ele>480</ele>
        <time>2021-04-03T14:13:21.673Z</time>
      </trkpt>
      <trkpt lat="45.58649" lon="5.40045">
        <ele>481</ele>
        <time>2021-04-03T14:13:22.673Z</time>
      </trkpt>
      <trkpt lat="45.5865" lon="5.40039">
        <ele>481</ele>
        <time>2021-04-03T14:13:23.673Z</time>
      </trkpt>
      <trkpt lat="45.58651" lon="5.40034">
        <ele>481</ele>
        <time>2021-04-03T14:13:24.673Z</time>
      </trkpt>
      <trkpt lat="45.58652" lon="5.40028">
        <ele>481</ele>
        <time>2021-04-03T14:13:25.672Z</time>
      </trkpt>
      <trkpt lat="45.58653" lon="5.40022">
        <ele>480</ele>
        <time>2021-04-03T14:13:26.672Z</time>
      </trkpt>
      <trkpt lat="45.58654" lon="5.40016">
        <ele>480</ele>
        <time>2021-04-03T14:13:27.673Z</time>
      </trkpt>
      <trkpt lat="45.58654" lon="5.4001">
        <ele>480</ele>
        <time>2021-04-03T14:13:28.673Z</time>
      </trkpt>
      <trkpt lat="45.58655" lon="5.40004">
        <ele>479</ele>
        <time>2021-04-03T14:13:29.673Z</time>
      </trkpt>
      <trkpt lat="45.58656" lon="5.39999">
        <ele>479</ele>
        <time>2021-04-03T14:13:30.673Z</time>
      </trkpt>
      <trkpt lat="45.58657" lon="5.39993">
        <ele>479</ele>
        <time>2021-04-03T14:13:31.673Z</time>
      </trkpt>
      <trkpt lat="45.58658" lon="5.39987">
        <ele>479</ele>
        <time>2021-04-03T14:13:32.673Z</time>
      </trkpt>
      <trkpt lat="45.58659" lon="5.39981">
        <ele>479</ele>
        <time>2021-04-03T14:13:33.672Z</time>
      </trkpt>
      <trkpt lat="45.58659" lon="5.39975">
        <ele>479</ele>
        <time>2021-04-03T14:13:34.672Z</time>
      </trkpt>
      <trkpt lat="45.5866" lon="5.3997">
        <ele>478</ele>
        <time>2021-04-03T14:13:35.673Z</time>
      </trkpt>
      <trkpt lat="45.58661" lon="5.39964">
        <ele>478</ele>
        <time>2021-04-03T14:13:36.672Z</time>
      </trkpt>
      <trkpt lat="45.58662" lon="5.39958">
        <ele>478</ele>
        <time>2021-04-03T14:13:37.673Z</time>
      </trkpt>
      <trkpt lat="45.58662" lon="5.39952">
        <ele>479</ele>
        <time>2021-04-03T14:13:38.673Z</time>
      </trkpt>
      <trkpt lat="45.58662" lon="5.39947">
        <ele>478</ele>
        <time>2021-04-03T14:13:39.672Z</time>
      </trkpt>
      <trkpt lat="45.58663" lon="5.39941">
        <ele>478</ele>
        <time>2021-04-03T14:13:40.673Z</time>
      </trkpt>
      <trkpt lat="45.58664" lon="5.39935">
        <ele>479</ele>
        <time>2021-04-03T14:13:41.673Z</time>
      </trkpt>
      <trkpt lat="45.58664" lon="5.3993">
        <ele>479</ele>
        <time>2021-04-03T14:13:42.673Z</time>
      </trkpt>
      <trkpt lat="45.58664" lon="5.39924">
        <ele>479</ele>
        <time>2021-04-03T14:13:43.673Z</time>
      </trkpt>
      <trkpt lat="45.58664" lon="5.39919">
        <ele>480</ele>
        <time>2021-04-03T14:13:44.672Z</time>
      </trkpt>
      <trkpt lat="45.58664" lon="5.39913">
        <ele>480</ele>
        <time>2021-04-03T14:13:45.673Z</time>
      </trkpt>
      <trkpt lat="45.58664" lon="5.39907">
        <ele>480</ele>
        <time>2021-04-03T14:13:46.672Z</time>
      </trkpt>
      <trkpt lat="45.58664" lon="5.39901">
        <ele>480</ele>
        <time>2021-04-03T14:13:47.672Z</time>
      </trkpt>
      <trkpt lat="45.58663" lon="5.39895">
        <ele>480</ele>
        <time>2021-04-03T14:13:48.672Z</time>
      </trkpt>
      <trkpt lat="45.58662" lon="5.3989">
        <ele>480</ele>
        <time>2021-04-03T14:13:49.673Z</time>
      </trkpt>
      <trkpt lat="45.58661" lon="5.39885">
        <ele>480</ele>
        <time>2021-04-03T14:13:50.673Z</time>
      </trkpt>
      <trkpt lat="45.58661" lon="5.39879">
        <ele>480</ele>
        <time>2021-04-03T14:13:51.673Z</time>
      </trkpt>
      <trkpt lat="45.5866" lon="5.39874">
        <ele>480</ele>
        <time>2021-04-03T14:13:52.673Z</time>
      </trkpt>
      <trkpt lat="45.58659" lon="5.39868">
        <ele>480</ele>
        <time>2021-04-03T14:13:53.673Z</time>
      </trkpt>
      <trkpt lat="45.58659" lon="5.39863">
        <ele>481</ele>
        <time>2021-04-03T14:13:54.672Z</time>
      </trkpt>
      <trkpt lat="45.58659" lon="5.39858">
        <ele>481</ele>
        <time>2021-04-03T14:13:55.673Z</time>
      </trkpt>
      <trkpt lat="45.58659" lon="5.39852">
        <ele>482</ele>
        <time>2021-04-03T14:13:56.672Z</time>
      </trkpt>
      <trkpt lat="45.58658" lon="5.39846">
        <ele>482</ele>
        <time>2021-04-03T14:13:57.672Z</time>
      </trkpt>
      <trkpt lat="45.58658" lon="5.3984">
        <ele>482</ele>
        <time>2021-04-03T14:13:58.672Z</time>
      </trkpt>
      <trkpt lat="45.58658" lon="5.39835">
        <ele>483</ele>
        <time>2021-04-03T14:13:59.672Z</time>
      </trkpt>
      <trkpt lat="45.58658" lon="5.39829">
        <ele>483</ele>
        <time>2021-04-03T14:14:00.672Z</time>
      </trkpt>
      <trkpt lat="45.58658" lon="5.39823">
        <ele>483</ele>
        <time>2021-04-03T14:14:01.672Z</time>
      </trkpt>
      <trkpt lat="45.58658" lon="5.39817">
        <ele>483</ele>
        <time>2021-04-03T14:14:02.673Z</time>
      </trkpt>
      <trkpt lat="45.58658" lon="5.39811">
        <ele>484</ele>
        <time>2021-04-03T14:14:03.673Z</time>
      </trkpt>
      <trkpt lat="45.58658" lon="5.39805">
        <ele>484</ele>
        <time>2021-04-03T14:14:04.673Z</time>
      </trkpt>
      <trkpt lat="45.58659" lon="5.39799">
        <ele>484</ele>
        <time>2021-04-03T14:14:05.673Z</time>
      </trkpt>
      <trkpt lat="45.58659" lon="5.39793">
        <ele>484</ele>
        <time>2021-04-03T14:14:06.673Z</time>
      </trkpt>
      <trkpt lat="45.58659" lon="5.39787">
        <ele>484</ele>
        <time>2021-04-03T14:14:07.672Z</time>
      </trkpt>
      <trkpt lat="45.5866" lon="5.3978">
        <ele>484</ele>
        <time>2021-04-03T14:14:08.673Z</time>
      </trkpt>
      <trkpt lat="45.5866" lon="5.39772">
        <ele>484</ele>
        <time>2021-04-03T14:14:09.672Z</time>
      </trkpt>
      <trkpt lat="45.58661" lon="5.39765">
        <ele>484</ele>
        <time>2021-04-03T14:14:10.673Z</time>
      </trkpt>
      <trkpt lat="45.58661" lon="5.39757">
        <ele>484</ele>
        <time>2021-04-03T14:14:11.673Z</time>
      </trkpt>
      <trkpt lat="45.58662" lon="5.39749">
        <ele>484</ele>
        <time>2021-04-03T14:14:12.672Z</time>
      </trkpt>
      <trkpt lat="45.58663" lon="5.3974">
        <ele>484</ele>
        <time>2021-04-03T14:14:13.672Z</time>
      </trkpt>
      <trkpt lat="45.58664" lon="5.39731">
        <ele>484</ele>
        <time>2021-04-03T14:14:14.672Z</time>
      </trkpt>
      <trkpt lat="45.58665" lon="5.39722">
        <ele>484</ele>
        <time>2021-04-03T14:14:15.673Z</time>
      </trkpt>
      <trkpt lat="45.58666" lon="5.39712">
        <ele>484</ele>
        <time>2021-04-03T14:14:16.673Z</time>
      </trkpt>
      <trkpt lat="45.58667" lon="5.39702">
        <ele>484</ele>
        <time>2021-04-03T14:14:17.673Z</time>
      </trkpt>
      <trkpt lat="45.58668" lon="5.39692">
        <ele>483</ele>
        <time>2021-04-03T14:14:18.673Z</time>
      </trkpt>
      <trkpt lat="45.58669" lon="5.39681">
        <ele>482</ele>
        <time>2021-04-03T14:14:19.673Z</time>
      </trkpt>
      <trkpt lat="45.58671" lon="5.3967">
        <ele>481</ele>
        <time>2021-04-03T14:14:20.673Z</time>
      </trkpt>
      <trkpt lat="45.58672" lon="5.39659">
        <ele>481</ele>
        <time>2021-04-03T14:14:21.673Z</time>
      </trkpt>
      <trkpt lat="45.58674" lon="5.39647">
        <ele>481</ele>
        <time>2021-04-03T14:14:22.673Z</time>
      </trkpt>
      <trkpt lat="45.58675" lon="5.39635">
        <ele>481</ele>
        <time>2021-04-03T14:14:23.673Z</time>
      </trkpt>
      <trkpt lat="45.58677" lon="5.39623">
        <ele>480</ele>
        <time>2021-04-03T14:14:24.673Z</time>
      </trkpt>
      <trkpt lat="45.58678" lon="5.3961">
        <ele>480</ele>
        <time>2021-04-03T14:14:25.673Z</time>
      </trkpt>
      <trkpt lat="45.5868" lon="5.39598">
        <ele>480</ele>
        <time>2021-04-03T14:14:26.673Z</time>
      </trkpt>
      <trkpt lat="45.58682" lon="5.39584">
        <ele>480</ele>
        <time>2021-04-03T14:14:27.673Z</time>
      </trkpt>
      <trkpt lat="45.58684" lon="5.39571">
        <ele>480</ele>
        <time>2021-04-03T14:14:28.673Z</time>
      </trkpt>
      <trkpt lat="45.58686" lon="5.39558">
        <ele>479</ele>
        <time>2021-04-03T14:14:29.673Z</time>
      </trkpt>
      <trkpt lat="45.58687" lon="5.39544">
        <ele>479</ele>
        <time>2021-04-03T14:14:30.672Z</time>
      </trkpt>
      <trkpt lat="45.58689" lon="5.39531">
        <ele>479</ele>
        <time>2021-04-03T14:14:31.673Z</time>
      </trkpt>
      <trkpt lat="45.58691" lon="5.39517">
        <ele>478</ele>
        <time>2021-04-03T14:14:32.673Z</time>
      </trkpt>
      <trkpt lat="45.58693" lon="5.39503">
        <ele>478</ele>
        <time>2021-04-03T14:14:33.673Z</time>
      </trkpt>
      <trkpt lat="45.58694" lon="5.39489">
        <ele>478</ele>
        <time>2021-04-03T14:14:34.672Z</time>
      </trkpt>
      <trkpt lat="45.58696" lon="5.39475">
        <ele>478</ele>
        <time>2021-04-03T14:14:35.673Z</time>
      </trkpt>
      <trkpt lat="45.58698" lon="5.39461">
        <ele>478</ele>
        <time>2021-04-03T14:14:36.673Z</time>
      </trkpt>
      <trkpt lat="45.58699" lon="5.39447">
        <ele>478</ele>
        <time>2021-04-03T14:14:37.672Z</time>
      </trkpt>
      <trkpt lat="45.587" lon="5.39434">
        <ele>478</ele>
        <time>2021-04-03T14:14:38.672Z</time>
      </trkpt>
      <trkpt lat="45.58702" lon="5.3942">
        <ele>478</ele>
        <time>2021-04-03T14:14:39.673Z</time>
      </trkpt>
      <trkpt lat="45.58703" lon="5.39406">
        <ele>477</ele>
        <time>2021-04-03T14:14:40.673Z</time>
      </trkpt>
      <trkpt lat="45.58704" lon="5.39393">
        <ele>477</ele>
        <time>2021-04-03T14:14:41.673Z</time>
      </trkpt>
      <trkpt lat="45.58705" lon="5.3938">
        <ele>476</ele>
        <time>2021-04-03T14:14:42.672Z</time>
      </trkpt>
      <trkpt lat="45.58706" lon="5.39366">
        <ele>476</ele>
        <time>2021-04-03T14:14:43.672Z</time>
      </trkpt>
      <trkpt lat="45.58707" lon="5.39353">
        <ele>475</ele>
        <time>2021-04-03T14:14:44.673Z</time>
      </trkpt>
      <trkpt lat="45.58708" lon="5.3934">
        <ele>474</ele>
        <time>2021-04-03T14:14:45.673Z</time>
      </trkpt>
      <trkpt lat="45.58709" lon="5.39327">
        <ele>473</ele>
        <time>2021-04-03T14:14:46.673Z</time>
      </trkpt>
      <trkpt lat="45.5871" lon="5.39314">
        <ele>473</ele>
        <time>2021-04-03T14:14:47.673Z</time>
      </trkpt>
      <trkpt lat="45.58711" lon="5.39302">
        <ele>473</ele>
        <time>2021-04-03T14:14:48.673Z</time>
      </trkpt>
      <trkpt lat="45.58711" lon="5.3929">
        <ele>473</ele>
        <time>2021-04-03T14:14:49.673Z</time>
      </trkpt>
      <trkpt lat="45.58712" lon="5.39277">
        <ele>473</ele>
        <time>2021-04-03T14:14:50.673Z</time>
      </trkpt>
      <trkpt lat="45.58713" lon="5.39265">
        <ele>473</ele>
        <time>2021-04-03T14:14:51.673Z</time>
      </trkpt>
      <trkpt lat="45.58713" lon="5.39254">
        <ele>473</ele>
        <time>2021-04-03T14:14:52.673Z</time>
      </trkpt>
      <trkpt lat="45.58714" lon="5.39242">
        <ele>472</ele>
        <time>2021-04-03T14:14:53.673Z</time>
      </trkpt>
      <trkpt lat="45.58714" lon="5.3923">
        <ele>472</ele>
        <time>2021-04-03T14:14:54.673Z</time>
      </trkpt>
      <trkpt lat="45.58714" lon="5.39218">
        <ele>472</ele>
        <time>2021-04-03T14:14:55.673Z</time>
      </trkpt>
      <trkpt lat="45.58715" lon="5.39206">
        <ele>472</ele>
        <time>2021-04-03T14:14:56.672Z</time>
      </trkpt>
      <trkpt lat="45.58715" lon="5.39194">
        <ele>472</ele>
        <time>2021-04-03T14:14:57.673Z</time>
      </trkpt>
      <trkpt lat="45.58716" lon="5.39183">
        <ele>472</ele>
        <time>2021-04-03T14:14:58.673Z</time>
      </trkpt>
      <trkpt lat="45.58716" lon="5.39171">
        <ele>473</ele>
        <time>2021-04-03T14:14:59.673Z</time>
      </trkpt>
      <trkpt lat="45.58717" lon="5.39159">
        <ele>473</ele>
        <time>2021-04-03T14:15:00.673Z</time>
      </trkpt>
      <trkpt lat="45.58717" lon="5.39148">
        <ele>473</ele>
        <time>2021-04-03T14:15:01.673Z</time>
      </trkpt>
      <trkpt lat="45.58717" lon="5.39136">
        <ele>474</ele>
        <time>2021-04-03T14:15:02.673Z</time>
      </trkpt>
      <trkpt lat="45.58717" lon="5.39125">
        <ele>473</ele>
        <time>2021-04-03T14:15:03.672Z</time>
      </trkpt>
      <trkpt lat="45.58718" lon="5.39114">
        <ele>473</ele>
        <time>2021-04-03T14:15:04.672Z</time>
      </trkpt>
      <trkpt lat="45.58718" lon="5.39102">
        <ele>473</ele>
        <time>2021-04-03T14:15:05.672Z</time>
      </trkpt>
      <trkpt lat="45.58719" lon="5.39091">
        <ele>473</ele>
        <time>2021-04-03T14:15:06.672Z</time>
      </trkpt>
      <trkpt lat="45.58719" lon="5.39079">
        <ele>474</ele>
        <time>2021-04-03T14:15:07.673Z</time>
      </trkpt>
      <trkpt lat="45.58719" lon="5.39068">
        <ele>474</ele>
        <time>2021-04-03T14:15:08.673Z</time>
      </trkpt>
      <trkpt lat="45.5872" lon="5.39057">
        <ele>474</ele>
        <time>2021-04-03T14:15:09.673Z</time>
      </trkpt>
      <trkpt lat="45.5872" lon="5.39046">
        <ele>474</ele>
        <time>2021-04-03T14:15:10.673Z</time>
      </trkpt>
      <trkpt lat="45.5872" lon="5.39034">
        <ele>474</ele>
        <time>2021-04-03T14:15:11.673Z</time>
      </trkpt>
      <trkpt lat="45.58721" lon="5.39023">
        <ele>473</ele>
        <time>2021-04-03T14:15:12.673Z</time>
      </trkpt>
      <trkpt lat="45.58721" lon="5.39012">
        <ele>473</ele>
        <time>2021-04-03T14:15:13.672Z</time>
      </trkpt>
      <trkpt lat="45.58721" lon="5.39001">
        <ele>473</ele>
        <time>2021-04-03T14:15:14.672Z</time>
      </trkpt>
      <trkpt lat="45.58722" lon="5.3899">
        <ele>474</ele>
        <time>2021-04-03T14:15:15.673Z</time>
      </trkpt>
      <trkpt lat="45.58722" lon="5.3898">
        <ele>474</ele>
        <time>2021-04-03T14:15:16.672Z</time>
      </trkpt>
      <trkpt lat="45.58722" lon="5.38969">
        <ele>475</ele>
        <time>2021-04-03T14:15:17.672Z</time>
      </trkpt>
      <trkpt lat="45.58723" lon="5.38959">
        <ele>475</ele>
        <time>2021-04-03T14:15:18.673Z</time>
      </trkpt>
      <trkpt lat="45.58723" lon="5.38948">
        <ele>474</ele>
        <time>2021-04-03T14:15:19.673Z</time>
      </trkpt>
      <trkpt lat="45.58723" lon="5.38937">
        <ele>473</ele>
        <time>2021-04-03T14:15:20.673Z</time>
      </trkpt>
      <trkpt lat="45.58724" lon="5.38927">
        <ele>473</ele>
        <time>2021-04-03T14:15:21.673Z</time>
      </trkpt>
      <trkpt lat="45.58724" lon="5.38917">
        <ele>472</ele>
        <time>2021-04-03T14:15:22.672Z</time>
      </trkpt>
      <trkpt lat="45.58724" lon="5.38907">
        <ele>471</ele>
        <time>2021-04-03T14:15:23.673Z</time>
      </trkpt>
      <trkpt lat="45.58724" lon="5.38898">
        <ele>471</ele>
        <time>2021-04-03T14:15:24.673Z</time>
      </trkpt>
      <trkpt lat="45.58724" lon="5.38888">
        <ele>470</ele>
        <time>2021-04-03T14:15:25.673Z</time>
      </trkpt>
      <trkpt lat="45.58724" lon="5.38878">
        <ele>469</ele>
        <time>2021-04-03T14:15:26.673Z</time>
      </trkpt>
      <trkpt lat="45.58724" lon="5.38868">
        <ele>469</ele>
        <time>2021-04-03T14:15:27.673Z</time>
      </trkpt>
      <trkpt lat="45.58724" lon="5.38859">
        <ele>468</ele>
        <time>2021-04-03T14:15:28.673Z</time>
      </trkpt>
      <trkpt lat="45.58723" lon="5.38849">
        <ele>468</ele>
        <time>2021-04-03T14:15:29.673Z</time>
      </trkpt>
      <trkpt lat="45.58722" lon="5.38839">
        <ele>468</ele>
        <time>2021-04-03T14:15:30.673Z</time>
      </trkpt>
      <trkpt lat="45.58721" lon="5.38828">
        <ele>468</ele>
        <time>2021-04-03T14:15:31.673Z</time>
      </trkpt>
      <trkpt lat="45.5872" lon="5.38818">
        <ele>468</ele>
        <time>2021-04-03T14:15:32.673Z</time>
      </trkpt>
      <trkpt lat="45.58719" lon="5.38808">
        <ele>468</ele>
        <time>2021-04-03T14:15:33.673Z</time>
      </trkpt>
      <trkpt lat="45.58718" lon="5.38797">
        <ele>468</ele>
        <time>2021-04-03T14:15:34.672Z</time>
      </trkpt>
      <trkpt lat="45.58717" lon="5.38787">
        <ele>469</ele>
        <time>2021-04-03T14:15:35.673Z</time>
      </trkpt>
      <trkpt lat="45.58716" lon="5.38776">
        <ele>470</ele>
        <time>2021-04-03T14:15:36.673Z</time>
      </trkpt>
      <trkpt lat="45.58715" lon="5.38766">
        <ele>470</ele>
        <time>2021-04-03T14:15:37.673Z</time>
      </trkpt>
      <trkpt lat="45.58713" lon="5.38755">
        <ele>471</ele>
        <time>2021-04-03T14:15:38.672Z</time>
      </trkpt>
      <trkpt lat="45.58712" lon="5.38744">
        <ele>472</ele>
        <time>2021-04-03T14:15:39.673Z</time>
      </trkpt>
      <trkpt lat="45.58711" lon="5.38734">
        <ele>472</ele>
        <time>2021-04-03T14:15:40.673Z</time>
      </trkpt>
      <trkpt lat="45.5871" lon="5.38723">
        <ele>472</ele>
        <time>2021-04-03T14:15:41.673Z</time>
      </trkpt>
      <trkpt lat="45.58709" lon="5.38713">
        <ele>472</ele>
        <time>2021-04-03T14:15:42.673Z</time>
      </trkpt>
      <trkpt lat="45.58709" lon="5.38703">
        <ele>473</ele>
        <time>2021-04-03T14:15:43.673Z</time>
      </trkpt>
      <trkpt lat="45.58708" lon="5.38692">
        <ele>473</ele>
        <time>2021-04-03T14:15:44.673Z</time>
      </trkpt>
      <trkpt lat="45.58707" lon="5.38682">
        <ele>473</ele>
        <time>2021-04-03T14:15:45.673Z</time>
      </trkpt>
      <trkpt lat="45.58706" lon="5.38671">
        <ele>473</ele>
        <time>2021-04-03T14:15:46.673Z</time>
      </trkpt>
      <trkpt lat="45.58705" lon="5.38661">
        <ele>472</ele>
        <time>2021-04-03T14:15:47.673Z</time>
      </trkpt>
      <trkpt lat="45.58705" lon="5.38651">
        <ele>472</ele>
        <time>2021-04-03T14:15:48.673Z</time>
      </trkpt>
      <trkpt lat="45.58704" lon="5.38641">
        <ele>472</ele>
        <time>2021-04-03T14:15:49.673Z</time>
      </trkpt>
      <trkpt lat="45.58703" lon="5.38631">
        <ele>472</ele>
        <time>2021-04-03T14:15:50.672Z</time>
      </trkpt>
      <trkpt lat="45.58703" lon="5.38621">
        <ele>471</ele>
        <time>2021-04-03T14:15:51.672Z</time>
      </trkpt>
      <trkpt lat="45.58702" lon="5.38611">
        <ele>471</ele>
        <time>2021-04-03T14:15:52.673Z</time>
      </trkpt>
      <trkpt lat="45.58701" lon="5.38602">
        <ele>471</ele>
        <time>2021-04-03T14:15:53.673Z</time>
      </trkpt>
      <trkpt lat="45.58701" lon="5.38592">
        <ele>471</ele>
        <time>2021-04-03T14:15:54.673Z</time>
      </trkpt>
      <trkpt lat="45.58701" lon="5.38583">
        <ele>470</ele>
        <time>2021-04-03T14:15:55.673Z</time>
      </trkpt>
      <trkpt lat="45.587" lon="5.38574">
        <ele>470</ele>
        <time>2021-04-03T14:15:56.673Z</time>
      </trkpt>
      <trkpt lat="45.587" lon="5.38566">
        <ele>469</ele>
        <time>2021-04-03T14:15:57.673Z</time>
      </trkpt>
      <trkpt lat="45.587" lon="5.38558">
        <ele>469</ele>
        <time>2021-04-03T14:15:58.673Z</time>
      </trkpt>
      <trkpt lat="45.587" lon="5.38551">
        <ele>469</ele>
        <time>2021-04-03T14:15:59.673Z</time>
      </trkpt>
      <trkpt lat="45.58699" lon="5.38543">
        <ele>469</ele>
        <time>2021-04-03T14:16:00.672Z</time>
      </trkpt>
      <trkpt lat="45.587" lon="5.38536">
        <ele>469</ele>
        <time>2021-04-03T14:16:01.673Z</time>
      </trkpt>
      <trkpt lat="45.587" lon="5.38529">
        <ele>469</ele>
        <time>2021-04-03T14:16:02.672Z</time>
      </trkpt>
      <trkpt lat="45.587" lon="5.38522">
        <ele>469</ele>
        <time>2021-04-03T14:16:03.673Z</time>
      </trkpt>
      <trkpt lat="45.58701" lon="5.38515">
        <ele>469</ele>
        <time>2021-04-03T14:16:04.673Z</time>
      </trkpt>
      <trkpt lat="45.58701" lon="5.38509">
        <ele>469</ele>
        <time>2021-04-03T14:16:05.673Z</time>
      </trkpt>
      <trkpt lat="45.58702" lon="5.38502">
        <ele>469</ele>
        <time>2021-04-03T14:16:06.673Z</time>
      </trkpt>
      <trkpt lat="45.58703" lon="5.38496">
        <ele>469</ele>
        <time>2021-04-03T14:16:07.673Z</time>
      </trkpt>
      <trkpt lat="45.58704" lon="5.38489">
        <ele>470</ele>
        <time>2021-04-03T14:16:08.673Z</time>
      </trkpt>
      <trkpt lat="45.58705" lon="5.38482">
        <ele>471</ele>
        <time>2021-04-03T14:16:09.673Z</time>
      </trkpt>
      <trkpt lat="45.58706" lon="5.38476">
        <ele>471</ele>
        <time>2021-04-03T14:16:10.673Z</time>
      </trkpt>
      <trkpt lat="45.58707" lon="5.38469">
        <ele>472</ele>
        <time>2021-04-03T14:16:11.673Z</time>
      </trkpt>
      <trkpt lat="45.58709" lon="5.38463">
        <ele>472</ele>
        <time>2021-04-03T14:16:12.673Z</time>
      </trkpt>
      <trkpt lat="45.5871" lon="5.38457">
        <ele>472</ele>
        <time>2021-04-03T14:16:13.672Z</time>
      </trkpt>
      <trkpt lat="45.58712" lon="5.38451">
        <ele>473</ele>
        <time>2021-04-03T14:16:14.673Z</time>
      </trkpt>
      <trkpt lat="45.58713" lon="5.38445">
        <ele>473</ele>
        <time>2021-04-03T14:16:15.673Z</time>
      </trkpt>
      <trkpt lat="45.58715" lon="5.38439">
        <ele>473</ele>
        <time>2021-04-03T14:16:16.673Z</time>
      </trkpt>
      <trkpt lat="45.58716" lon="5.38433">
        <ele>474</ele>
        <time>2021-04-03T14:16:17.673Z</time>
      </trkpt>
      <trkpt lat="45.58718" lon="5.38427">
        <ele>474</ele>
        <time>2021-04-03T14:16:18.673Z</time>
      </trkpt>
      <trkpt lat="45.58719" lon="5.38421">
        <ele>474</ele>
        <time>2021-04-03T14:16:19.673Z</time>
      </trkpt>
      <trkpt lat="45.58721" lon="5.38415">
        <ele>473</ele>
        <time>2021-04-03T14:16:20.673Z</time>
      </trkpt>
      <trkpt lat="45.58722" lon="5.38409">
        <ele>473</ele>
        <time>2021-04-03T14:16:21.673Z</time>
      </trkpt>
      <trkpt lat="45.58723" lon="5.38403">
        <ele>473</ele>
        <time>2021-04-03T14:16:22.673Z</time>
      </trkpt>
      <trkpt lat="45.58725" lon="5.38397">
        <ele>473</ele>
        <time>2021-04-03T14:16:23.673Z</time>
      </trkpt>
      <trkpt lat="45.58726" lon="5.38391">
        <ele>473</ele>
        <time>2021-04-03T14:16:24.673Z</time>
      </trkpt>
      <trkpt lat="45.58727" lon="5.38384">
        <ele>472</ele>
        <time>2021-04-03T14:16:25.673Z</time>
      </trkpt>
      <trkpt lat="45.58729" lon="5.38378">
        <ele>472</ele>
        <time>2021-04-03T14:16:26.673Z</time>
      </trkpt>
      <trkpt lat="45.5873" lon="5.38373">
        <ele>472</ele>
        <time>2021-04-03T14:16:27.672Z</time>
      </trkpt>
      <trkpt lat="45.58732" lon="5.38367">
        <ele>472</ele>
        <time>2021-04-03T14:16:28.673Z</time>
      </trkpt>
      <trkpt lat="45.58733" lon="5.38361">
        <ele>472</ele>
        <time>2021-04-03T14:16:29.673Z</time>
      </trkpt>
      <trkpt lat="45.58735" lon="5.38354">
        <ele>472</ele>
        <time>2021-04-03T14:16:30.672Z</time>
      </trkpt>
      <trkpt lat="45.58736" lon="5.38348">
        <ele>471</ele>
        <time>2021-04-03T14:16:31.673Z</time>
      </trkpt>
      <trkpt lat="45.58737" lon="5.38342">
        <ele>472</ele>
        <time>2021-04-03T14:16:32.673Z</time>
      </trkpt>
      <trkpt lat="45.58739" lon="5.38336">
        <ele>472</ele>
        <time>2021-04-03T14:16:33.672Z</time>
      </trkpt>
      <trkpt lat="45.58741" lon="5.3833">
        <ele>472</ele>
        <time>2021-04-03T14:16:34.672Z</time>
      </trkpt>
      <trkpt lat="45.58742" lon="5.38323">
        <ele>472</ele>
        <time>2021-04-03T14:16:35.672Z</time>
      </trkpt>
      <trkpt lat="45.58743" lon="5.38316">
        <ele>472</ele>
        <time>2021-04-03T14:16:36.673Z</time>
      </trkpt>
      <trkpt lat="45.58744" lon="5.38309">
        <ele>472</ele>
        <time>2021-04-03T14:16:37.672Z</time>
      </trkpt>
      <trkpt lat="45.58745" lon="5.38302">
        <ele>473</ele>
        <time>2021-04-03T14:16:38.673Z</time>
      </trkpt>
      <trkpt lat="45.58746" lon="5.38296">
        <ele>473</ele>
        <time>2021-04-03T14:16:39.673Z</time>
      </trkpt>
      <trkpt lat="45.58747" lon="5.38289">
        <ele>473</ele>
        <time>2021-04-03T14:16:40.672Z</time>
      </trkpt>
      <trkpt lat="45.58748" lon="5.38282">
        <ele>474</ele>
        <time>2021-04-03T14:16:41.673Z</time>
      </trkpt>
      <trkpt lat="45.5875" lon="5.38274">
        <ele>475</ele>
        <time>2021-04-03T14:16:42.673Z</time>
      </trkpt>
      <trkpt lat="45.58751" lon="5.38267">
        <ele>475</ele>
        <time>2021-04-03T14:16:43.673Z</time>
      </trkpt>
      <trkpt lat="45.58752" lon="5.3826">
        <ele>476</ele>
        <time>2021-04-03T14:16:44.673Z</time>
      </trkpt>
      <trkpt lat="45.58753" lon="5.38253">
        <ele>476</ele>
        <time>2021-04-03T14:16:45.672Z</time>
      </trkpt>
      <trkpt lat="45.58754" lon="5.38245">
        <ele>476</ele>
        <time>2021-04-03T14:16:46.673Z</time>
      </trkpt>
      <trkpt lat="45.58755" lon="5.38237">
        <ele>476</ele>
        <time>2021-04-03T14:16:47.672Z</time>
      </trkpt>
      <trkpt lat="45.58756" lon="5.3823">
        <ele>477</ele>
        <time>2021-04-03T14:16:48.673Z</time>
      </trkpt>
      <trkpt lat="45.58757" lon="5.38222">
        <ele>477</ele>
        <time>2021-04-03T14:16:49.673Z</time>
      </trkpt>
      <trkpt lat="45.58758" lon="5.38214">
        <ele>477</ele>
        <time>2021-04-03T14:16:50.673Z</time>
      </trkpt>
      <trkpt lat="45.5876" lon="5.38206">
        <ele>476</ele>
        <time>2021-04-03T14:16:51.673Z</time>
      </trkpt>
      <trkpt lat="45.58761" lon="5.38199">
        <ele>477</ele>
        <time>2021-04-03T14:16:52.672Z</time>
      </trkpt>
      <trkpt lat="45.58762" lon="5.3819">
        <ele>477</ele>
        <time>2021-04-03T14:16:53.673Z</time>
      </trkpt>
      <trkpt lat="45.58763" lon="5.38182">
        <ele>476</ele>
        <time>2021-04-03T14:16:54.673Z</time>
      </trkpt>
      <trkpt lat="45.58764" lon="5.38174">
        <ele>477</ele>
        <time>2021-04-03T14:16:55.673Z</time>
      </trkpt>
      <trkpt lat="45.58766" lon="5.38166">
        <ele>477</ele>
        <time>2021-04-03T14:16:56.673Z</time>
      </trkpt>
      <trkpt lat="45.58767" lon="5.38158">
        <ele>477</ele>
        <time>2021-04-03T14:16:57.672Z</time>
      </trkpt>
      <trkpt lat="45.58768" lon="5.38151">
        <ele>478</ele>
        <time>2021-04-03T14:16:58.673Z</time>
      </trkpt>
      <trkpt lat="45.58769" lon="5.38143">
        <ele>478</ele>
        <time>2021-04-03T14:16:59.673Z</time>
      </trkpt>
      <trkpt lat="45.5877" lon="5.38136">
        <ele>478</ele>
        <time>2021-04-03T14:17:00.672Z</time>
      </trkpt>
      <trkpt lat="45.58771" lon="5.38129">
        <ele>478</ele>
        <time>2021-04-03T14:17:01.673Z</time>
      </trkpt>
      <trkpt lat="45.58772" lon="5.38123">
        <ele>478</ele>
        <time>2021-04-03T14:17:02.672Z</time>
      </trkpt>
      <trkpt lat="45.58773" lon="5.38118">
        <ele>478</ele>
        <time>2021-04-03T14:17:03.673Z</time>
      </trkpt>
      <trkpt lat="45.58775" lon="5.38113">
        <ele>478</ele>
        <time>2021-04-03T14:17:04.672Z</time>
      </trkpt>
      <trkpt lat="45.58775" lon="5.3811">
        <ele>478</ele>
        <time>2021-04-03T14:17:05.673Z</time>
      </trkpt>
      <trkpt lat="45.58776" lon="5.38107">
        <ele>478</ele>
        <time>2021-04-03T14:17:06.672Z</time>
      </trkpt>
      <trkpt lat="45.58776" lon="5.38105">
        <ele>478</ele>
        <time>2021-04-03T14:17:07.673Z</time>
      </trkpt>
      <trkpt lat="45.58776" lon="5.38104">
        <ele>478</ele>
        <time>2021-04-03T14:17:08.672Z</time>
      </trkpt>
      <trkpt lat="45.58776" lon="5.38104">
        <ele>478</ele>
        <time>2021-04-03T14:17:09.672Z</time>
      </trkpt>
      <trkpt lat="45.58776" lon="5.38104">
        <ele>477</ele>
        <time>2021-04-03T14:17:10.673Z</time>
      </trkpt>
      <trkpt lat="45.58776" lon="5.38104">
        <ele>477</ele>
        <time>2021-04-03T14:17:11.673Z</time>
      </trkpt>
      <trkpt lat="45.58775" lon="5.38106">
        <ele>474</ele>
        <time>2021-04-03T14:17:12.674Z</time>
      </trkpt>
      <trkpt lat="45.58775" lon="5.38106">
        <ele>474</ele>
        <time>2021-04-03T14:17:13.674Z</time>
      </trkpt>
      <trkpt lat="45.58776" lon="5.38103">
        <ele>478</ele>
        <time>2021-04-03T14:17:14.674Z</time>
      </trkpt>
      <trkpt lat="45.58776" lon="5.38097">
        <ele>478</ele>
        <time>2021-04-03T14:17:15.674Z</time>
      </trkpt>
      <trkpt lat="45.58777" lon="5.38089">
        <ele>477</ele>
        <time>2021-04-03T14:17:16.674Z</time>
      </trkpt>
      <trkpt lat="45.58777" lon="5.38079">
        <ele>477</ele>
        <time>2021-04-03T14:17:17.674Z</time>
      </trkpt>
      <trkpt lat="45.58777" lon="5.38069">
        <ele>477</ele>
        <time>2021-04-03T14:17:18.674Z</time>
      </trkpt>
      <trkpt lat="45.58778" lon="5.38058">
        <ele>477</ele>
        <time>2021-04-03T14:17:19.673Z</time>
      </trkpt>
      <trkpt lat="45.58778" lon="5.38047">
        <ele>476</ele>
        <time>2021-04-03T14:17:20.674Z</time>
      </trkpt>
      <trkpt lat="45.58777" lon="5.38035">
        <ele>475</ele>
        <time>2021-04-03T14:17:21.674Z</time>
      </trkpt>
      <trkpt lat="45.58778" lon="5.38024">
        <ele>475</ele>
        <time>2021-04-03T14:17:22.673Z</time>
      </trkpt>
      <trkpt lat="45.58778" lon="5.38014">
        <ele>474</ele>
        <time>2021-04-03T14:17:23.674Z</time>
      </trkpt>
      <trkpt lat="45.58778" lon="5.38005">
        <ele>474</ele>
        <time>2021-04-03T14:17:24.673Z</time>
      </trkpt>
      <trkpt lat="45.58778" lon="5.37995">
        <ele>474</ele>
        <time>2021-04-03T14:17:25.674Z</time>
      </trkpt>
      <trkpt lat="45.58778" lon="5.37985">
        <ele>474</ele>
        <time>2021-04-03T14:17:26.674Z</time>
      </trkpt>
      <trkpt lat="45.58779" lon="5.37975">
        <ele>474</ele>
        <time>2021-04-03T14:17:27.674Z</time>
      </trkpt>
      <trkpt lat="45.58779" lon="5.37966">
        <ele>474</ele>
        <time>2021-04-03T14:17:28.674Z</time>
      </trkpt>
      <trkpt lat="45.58779" lon="5.37956">
        <ele>474</ele>
        <time>2021-04-03T14:17:29.674Z</time>
      </trkpt>
      <trkpt lat="45.58779" lon="5.37947">
        <ele>474</ele>
        <time>2021-04-03T14:17:30.674Z</time>
      </trkpt>
      <trkpt lat="45.58778" lon="5.37938">
        <ele>474</ele>
        <time>2021-04-03T14:17:31.674Z</time>
      </trkpt>
      <trkpt lat="45.58778" lon="5.37929">
        <ele>474</ele>
        <time>2021-04-03T14:17:32.674Z</time>
      </trkpt>
      <trkpt lat="45.58778" lon="5.37919">
        <ele>474</ele>
        <time>2021-04-03T14:17:33.674Z</time>
      </trkpt>
      <trkpt lat="45.58778" lon="5.3791">
        <ele>474</ele>
        <time>2021-04-03T14:17:34.674Z</time>
      </trkpt>
      <trkpt lat="45.58778" lon="5.379">
        <ele>474</ele>
        <time>2021-04-03T14:17:35.674Z</time>
      </trkpt>
      <trkpt lat="45.58778" lon="5.37891">
        <ele>474</ele>
        <time>2021-04-03T14:17:36.674Z</time>
      </trkpt>
      <trkpt lat="45.58778" lon="5.37881">
        <ele>474</ele>
        <time>2021-04-03T14:17:37.674Z</time>
      </trkpt>
      <trkpt lat="45.58778" lon="5.37872">
        <ele>473</ele>
        <time>2021-04-03T14:17:38.674Z</time>
      </trkpt>
      <trkpt lat="45.58778" lon="5.37862">
        <ele>473</ele>
        <time>2021-04-03T14:17:39.673Z</time>
      </trkpt>
      <trkpt lat="45.58778" lon="5.37853">
        <ele>473</ele>
        <time>2021-04-03T14:17:40.673Z</time>
      </trkpt>
      <trkpt lat="45.58778" lon="5.37844">
        <ele>473</ele>
        <time>2021-04-03T14:17:41.674Z</time>
      </trkpt>
      <trkpt lat="45.58777" lon="5.37835">
        <ele>474</ele>
        <time>2021-04-03T14:17:42.674Z</time>
      </trkpt>
      <trkpt lat="45.58777" lon="5.37826">
        <ele>474</ele>
        <time>2021-04-03T14:17:43.673Z</time>
      </trkpt>
      <trkpt lat="45.58777" lon="5.37818">
        <ele>473</ele>
        <time>2021-04-03T14:17:44.673Z</time>
      </trkpt>
      <trkpt lat="45.58777" lon="5.37809">
        <ele>473</ele>
        <time>2021-04-03T14:17:45.673Z</time>
      </trkpt>
      <trkpt lat="45.58776" lon="5.37801">
        <ele>473</ele>
        <time>2021-04-03T14:17:46.674Z</time>
      </trkpt>
      <trkpt lat="45.58776" lon="5.37793">
        <ele>473</ele>
        <time>2021-04-03T14:17:47.674Z</time>
      </trkpt>
      <trkpt lat="45.58776" lon="5.37786">
        <ele>473</ele>
        <time>2021-04-03T14:17:48.674Z</time>
      </trkpt>
      <trkpt lat="45.58776" lon="5.37778">
        <ele>473</ele>
        <time>2021-04-03T14:17:49.673Z</time>
      </trkpt>
      <trkpt lat="45.58775" lon="5.3777">
        <ele>473</ele>
        <time>2021-04-03T14:17:50.674Z</time>
      </trkpt>
      <trkpt lat="45.58775" lon="5.37763">
        <ele>473</ele>
        <time>2021-04-03T14:17:51.674Z</time>
      </trkpt>
      <trkpt lat="45.58776" lon="5.37755">
        <ele>473</ele>
        <time>2021-04-03T14:17:52.674Z</time>
      </trkpt>
      <trkpt lat="45.58776" lon="5.37747">
        <ele>473</ele>
        <time>2021-04-03T14:17:53.674Z</time>
      </trkpt>
      <trkpt lat="45.58777" lon="5.3774">
        <ele>473</ele>
        <time>2021-04-03T14:17:54.673Z</time>
      </trkpt>
      <trkpt lat="45.58777" lon="5.37732">
        <ele>473</ele>
        <time>2021-04-03T14:17:55.673Z</time>
      </trkpt>
      <trkpt lat="45.58776" lon="5.37724">
        <ele>473</ele>
        <time>2021-04-03T14:17:56.674Z</time>
      </trkpt>
      <trkpt lat="45.58775" lon="5.37716">
        <ele>474</ele>
        <time>2021-04-03T14:17:57.674Z</time>
      </trkpt>
      <trkpt lat="45.58774" lon="5.37707">
        <ele>473</ele>
        <time>2021-04-03T14:17:58.674Z</time>
      </trkpt>
      <trkpt lat="45.58773" lon="5.37699">
        <ele>473</ele>
        <time>2021-04-03T14:17:59.674Z</time>
      </trkpt>
      <trkpt lat="45.58771" lon="5.3769">
        <ele>473</ele>
        <time>2021-04-03T14:18:00.674Z</time>
      </trkpt>
      <trkpt lat="45.5877" lon="5.37681">
        <ele>473</ele>
        <time>2021-04-03T14:18:01.674Z</time>
      </trkpt>
      <trkpt lat="45.58769" lon="5.37672">
        <ele>473</ele>
        <time>2021-04-03T14:18:02.674Z</time>
      </trkpt>
      <trkpt lat="45.58768" lon="5.37663">
        <ele>473</ele>
        <time>2021-04-03T14:18:03.673Z</time>
      </trkpt>
      <trkpt lat="45.58766" lon="5.37653">
        <ele>473</ele>
        <time>2021-04-03T14:18:04.674Z</time>
      </trkpt>
      <trkpt lat="45.58765" lon="5.37644">
        <ele>473</ele>
        <time>2021-04-03T14:18:05.674Z</time>
      </trkpt>
      <trkpt lat="45.58765" lon="5.37635">
        <ele>473</ele>
        <time>2021-04-03T14:18:06.673Z</time>
      </trkpt>
      <trkpt lat="45.58764" lon="5.37626">
        <ele>473</ele>
        <time>2021-04-03T14:18:07.674Z</time>
      </trkpt>
      <trkpt lat="45.58763" lon="5.37617">
        <ele>474</ele>
        <time>2021-04-03T14:18:08.673Z</time>
      </trkpt>
      <trkpt lat="45.58762" lon="5.37608">
        <ele>475</ele>
        <time>2021-04-03T14:18:09.673Z</time>
      </trkpt>
      <trkpt lat="45.58762" lon="5.37598">
        <ele>475</ele>
        <time>2021-04-03T14:18:10.674Z</time>
      </trkpt>
      <trkpt lat="45.58761" lon="5.37589">
        <ele>476</ele>
        <time>2021-04-03T14:18:11.674Z</time>
      </trkpt>
      <trkpt lat="45.58761" lon="5.3758">
        <ele>476</ele>
        <time>2021-04-03T14:18:12.674Z</time>
      </trkpt>
      <trkpt lat="45.58761" lon="5.37571">
        <ele>476</ele>
        <time>2021-04-03T14:18:13.674Z</time>
      </trkpt>
      <trkpt lat="45.5876" lon="5.37562">
        <ele>476</ele>
        <time>2021-04-03T14:18:14.674Z</time>
      </trkpt>
      <trkpt lat="45.5876" lon="5.37553">
        <ele>476</ele>
        <time>2021-04-03T14:18:15.674Z</time>
      </trkpt>
      <trkpt lat="45.58759" lon="5.37544">
        <ele>475</ele>
        <time>2021-04-03T14:18:16.674Z</time>
      </trkpt>
      <trkpt lat="45.58759" lon="5.37536">
        <ele>475</ele>
        <time>2021-04-03T14:18:17.673Z</time>
      </trkpt>
      <trkpt lat="45.58759" lon="5.37527">
        <ele>475</ele>
        <time>2021-04-03T14:18:18.674Z</time>
      </trkpt>
      <trkpt lat="45.58759" lon="5.37518">
        <ele>475</ele>
        <time>2021-04-03T14:18:19.674Z</time>
      </trkpt>
      <trkpt lat="45.58759" lon="5.3751">
        <ele>474</ele>
        <time>2021-04-03T14:18:20.674Z</time>
      </trkpt>
      <trkpt lat="45.58759" lon="5.37501">
        <ele>474</ele>
        <time>2021-04-03T14:18:21.674Z</time>
      </trkpt>
      <trkpt lat="45.58759" lon="5.37493">
        <ele>474</ele>
        <time>2021-04-03T14:18:22.674Z</time>
      </trkpt>
      <trkpt lat="45.58758" lon="5.37484">
        <ele>473</ele>
        <time>2021-04-03T14:18:23.673Z</time>
      </trkpt>
      <trkpt lat="45.58759" lon="5.37475">
        <ele>473</ele>
        <time>2021-04-03T14:18:24.674Z</time>
      </trkpt>
      <trkpt lat="45.58759" lon="5.37466">
        <ele>472</ele>
        <time>2021-04-03T14:18:25.673Z</time>
      </trkpt>
      <trkpt lat="45.58759" lon="5.37458">
        <ele>472</ele>
        <time>2021-04-03T14:18:26.674Z</time>
      </trkpt>
      <trkpt lat="45.58758" lon="5.37449">
        <ele>472</ele>
        <time>2021-04-03T14:18:27.674Z</time>
      </trkpt>
      <trkpt lat="45.58758" lon="5.3744">
        <ele>472</ele>
        <time>2021-04-03T14:18:28.674Z</time>
      </trkpt>
      <trkpt lat="45.58758" lon="5.3743">
        <ele>472</ele>
        <time>2021-04-03T14:18:29.674Z</time>
      </trkpt>
      <trkpt lat="45.58758" lon="5.37422">
        <ele>472</ele>
        <time>2021-04-03T14:18:30.674Z</time>
      </trkpt>
      <trkpt lat="45.58759" lon="5.37413">
        <ele>472</ele>
        <time>2021-04-03T14:18:31.673Z</time>
      </trkpt>
      <trkpt lat="45.5876" lon="5.37404">
        <ele>472</ele>
        <time>2021-04-03T14:18:32.674Z</time>
      </trkpt>
      <trkpt lat="45.5876" lon="5.37396">
        <ele>471</ele>
        <time>2021-04-03T14:18:33.674Z</time>
      </trkpt>
      <trkpt lat="45.58761" lon="5.37386">
        <ele>470</ele>
        <time>2021-04-03T14:18:34.674Z</time>
      </trkpt>
      <trkpt lat="45.58761" lon="5.37377">
        <ele>469</ele>
        <time>2021-04-03T14:18:35.674Z</time>
      </trkpt>
      <trkpt lat="45.58761" lon="5.37368">
        <ele>469</ele>
        <time>2021-04-03T14:18:36.674Z</time>
      </trkpt>
      <trkpt lat="45.58761" lon="5.37359">
        <ele>469</ele>
        <time>2021-04-03T14:18:37.673Z</time>
      </trkpt>
      <trkpt lat="45.58761" lon="5.3735">
        <ele>468</ele>
        <time>2021-04-03T14:18:38.674Z</time>
      </trkpt>
      <trkpt lat="45.58761" lon="5.3734">
        <ele>468</ele>
        <time>2021-04-03T14:18:39.674Z</time>
      </trkpt>
      <trkpt lat="45.58761" lon="5.3733">
        <ele>467</ele>
        <time>2021-04-03T14:18:40.673Z</time>
      </trkpt>
      <trkpt lat="45.58761" lon="5.3732">
        <ele>467</ele>
        <time>2021-04-03T14:18:41.674Z</time>
      </trkpt>
      <trkpt lat="45.58761" lon="5.3731">
        <ele>466</ele>
        <time>2021-04-03T14:18:42.674Z</time>
      </trkpt>
      <trkpt lat="45.58761" lon="5.37299">
        <ele>466</ele>
        <time>2021-04-03T14:18:43.674Z</time>
      </trkpt>
      <trkpt lat="45.58761" lon="5.37288">
        <ele>465</ele>
        <time>2021-04-03T14:18:44.673Z</time>
      </trkpt>
      <trkpt lat="45.58761" lon="5.37277">
        <ele>465</ele>
        <time>2021-04-03T14:18:45.673Z</time>
      </trkpt>
      <trkpt lat="45.58761" lon="5.37265">
        <ele>464</ele>
        <time>2021-04-03T14:18:46.674Z</time>
      </trkpt>
      <trkpt lat="45.58761" lon="5.37253">
        <ele>464</ele>
        <time>2021-04-03T14:18:47.673Z</time>
      </trkpt>
      <trkpt lat="45.58761" lon="5.37241">
        <ele>464</ele>
        <time>2021-04-03T14:18:48.674Z</time>
      </trkpt>
      <trkpt lat="45.58761" lon="5.37229">
        <ele>464</ele>
        <time>2021-04-03T14:18:49.674Z</time>
      </trkpt>
      <trkpt lat="45.58762" lon="5.37217">
        <ele>463</ele>
        <time>2021-04-03T14:18:50.673Z</time>
      </trkpt>
      <trkpt lat="45.58762" lon="5.37204">
        <ele>463</ele>
        <time>2021-04-03T14:18:51.674Z</time>
      </trkpt>
      <trkpt lat="45.58763" lon="5.37192">
        <ele>463</ele>
        <time>2021-04-03T14:18:52.674Z</time>
      </trkpt>
      <trkpt lat="45.58763" lon="5.37179">
        <ele>462</ele>
        <time>2021-04-03T14:18:53.674Z</time>
      </trkpt>
      <trkpt lat="45.58764" lon="5.37167">
        <ele>462</ele>
        <time>2021-04-03T14:18:54.674Z</time>
      </trkpt>
      <trkpt lat="45.58764" lon="5.37155">
        <ele>461</ele>
        <time>2021-04-03T14:18:55.674Z</time>
      </trkpt>
      <trkpt lat="45.58764" lon="5.37143">
        <ele>461</ele>
        <time>2021-04-03T14:18:56.674Z</time>
      </trkpt>
      <trkpt lat="45.58765" lon="5.37131">
        <ele>461</ele>
        <time>2021-04-03T14:18:57.674Z</time>
      </trkpt>
      <trkpt lat="45.58765" lon="5.37119">
        <ele>460</ele>
        <time>2021-04-03T14:18:58.674Z</time>
      </trkpt>
      <trkpt lat="45.58765" lon="5.37108">
        <ele>460</ele>
        <time>2021-04-03T14:18:59.674Z</time>
      </trkpt>
      <trkpt lat="45.58764" lon="5.37097">
        <ele>459</ele>
        <time>2021-04-03T14:19:00.674Z</time>
      </trkpt>
      <trkpt lat="45.58764" lon="5.37085">
        <ele>459</ele>
        <time>2021-04-03T14:19:01.674Z</time>
      </trkpt>
      <trkpt lat="45.58763" lon="5.37073">
        <ele>458</ele>
        <time>2021-04-03T14:19:02.674Z</time>
      </trkpt>
      <trkpt lat="45.58762" lon="5.3706">
        <ele>458</ele>
        <time>2021-04-03T14:19:03.673Z</time>
      </trkpt>
      <trkpt lat="45.58759" lon="5.37046">
        <ele>457</ele>
        <time>2021-04-03T14:19:04.673Z</time>
      </trkpt>
      <trkpt lat="45.58758" lon="5.37032">
        <ele>457</ele>
        <time>2021-04-03T14:19:05.674Z</time>
      </trkpt>
      <trkpt lat="45.58757" lon="5.37018">
        <ele>457</ele>
        <time>2021-04-03T14:19:06.673Z</time>
      </trkpt>
      <trkpt lat="45.58755" lon="5.37003">
        <ele>456</ele>
        <time>2021-04-03T14:19:07.674Z</time>
      </trkpt>
      <trkpt lat="45.58754" lon="5.36988">
        <ele>456</ele>
        <time>2021-04-03T14:19:08.674Z</time>
      </trkpt>
      <trkpt lat="45.58752" lon="5.36972">
        <ele>455</ele>
        <time>2021-04-03T14:19:09.674Z</time>
      </trkpt>
      <trkpt lat="45.5875" lon="5.36957">
        <ele>455</ele>
        <time>2021-04-03T14:19:10.674Z</time>
      </trkpt>
      <trkpt lat="45.58749" lon="5.36941">
        <ele>454</ele>
        <time>2021-04-03T14:19:11.674Z</time>
      </trkpt>
      <trkpt lat="45.58747" lon="5.36927">
        <ele>454</ele>
        <time>2021-04-03T14:19:12.674Z</time>
      </trkpt>
      <trkpt lat="45.58745" lon="5.3691">
        <ele>454</ele>
        <time>2021-04-03T14:19:13.674Z</time>
      </trkpt>
      <trkpt lat="45.58744" lon="5.36894">
        <ele>453</ele>
        <time>2021-04-03T14:19:14.674Z</time>
      </trkpt>
      <trkpt lat="45.58743" lon="5.36878">
        <ele>453</ele>
        <time>2021-04-03T14:19:15.673Z</time>
      </trkpt>
      <trkpt lat="45.58742" lon="5.36861">
        <ele>452</ele>
        <time>2021-04-03T14:19:16.673Z</time>
      </trkpt>
      <trkpt lat="45.58741" lon="5.36845">
        <ele>452</ele>
        <time>2021-04-03T14:19:17.673Z</time>
      </trkpt>
      <trkpt lat="45.5874" lon="5.36828">
        <ele>452</ele>
        <time>2021-04-03T14:19:18.673Z</time>
      </trkpt>
      <trkpt lat="45.58739" lon="5.36812">
        <ele>452</ele>
        <time>2021-04-03T14:19:19.674Z</time>
      </trkpt>
      <trkpt lat="45.58738" lon="5.36797">
        <ele>451</ele>
        <time>2021-04-03T14:19:20.673Z</time>
      </trkpt>
      <trkpt lat="45.58738" lon="5.36782">
        <ele>451</ele>
        <time>2021-04-03T14:19:21.674Z</time>
      </trkpt>
      <trkpt lat="45.58737" lon="5.36767">
        <ele>450</ele>
        <time>2021-04-03T14:19:22.673Z</time>
      </trkpt>
      <trkpt lat="45.58737" lon="5.36753">
        <ele>450</ele>
        <time>2021-04-03T14:19:23.674Z</time>
      </trkpt>
      <trkpt lat="45.58737" lon="5.36739">
        <ele>449</ele>
        <time>2021-04-03T14:19:24.674Z</time>
      </trkpt>
      <trkpt lat="45.58736" lon="5.36724">
        <ele>448</ele>
        <time>2021-04-03T14:19:25.674Z</time>
      </trkpt>
      <trkpt lat="45.58736" lon="5.3671">
        <ele>447</ele>
        <time>2021-04-03T14:19:26.673Z</time>
      </trkpt>
      <trkpt lat="45.58735" lon="5.36695">
        <ele>446</ele>
        <time>2021-04-03T14:19:27.673Z</time>
      </trkpt>
      <trkpt lat="45.58735" lon="5.36681">
        <ele>446</ele>
        <time>2021-04-03T14:19:28.673Z</time>
      </trkpt>
      <trkpt lat="45.58734" lon="5.36666">
        <ele>445</ele>
        <time>2021-04-03T14:19:29.674Z</time>
      </trkpt>
      <trkpt lat="45.58733" lon="5.36651">
        <ele>444</ele>
        <time>2021-04-03T14:19:30.674Z</time>
      </trkpt>
      <trkpt lat="45.58733" lon="5.36637">
        <ele>444</ele>
        <time>2021-04-03T14:19:31.674Z</time>
      </trkpt>
      <trkpt lat="45.58732" lon="5.36622">
        <ele>443</ele>
        <time>2021-04-03T14:19:32.673Z</time>
      </trkpt>
      <trkpt lat="45.58732" lon="5.36608">
        <ele>443</ele>
        <time>2021-04-03T14:19:33.674Z</time>
      </trkpt>
      <trkpt lat="45.58731" lon="5.36594">
        <ele>442</ele>
        <time>2021-04-03T14:19:34.673Z</time>
      </trkpt>
      <trkpt lat="45.58731" lon="5.3658">
        <ele>441</ele>
        <time>2021-04-03T14:19:35.674Z</time>
      </trkpt>
      <trkpt lat="45.58731" lon="5.36566">
        <ele>440</ele>
        <time>2021-04-03T14:19:36.673Z</time>
      </trkpt>
      <trkpt lat="45.5873" lon="5.36551">
        <ele>439</ele>
        <time>2021-04-03T14:19:37.674Z</time>
      </trkpt>
      <trkpt lat="45.5873" lon="5.36536">
        <ele>438</ele>
        <time>2021-04-03T14:19:38.674Z</time>
      </trkpt>
      <trkpt lat="45.58729" lon="5.36521">
        <ele>436</ele>
        <time>2021-04-03T14:19:39.674Z</time>
      </trkpt>
      <trkpt lat="45.58729" lon="5.36507">
        <ele>435</ele>
        <time>2021-04-03T14:19:40.673Z</time>
      </trkpt>
      <trkpt lat="45.58728" lon="5.36492">
        <ele>434</ele>
        <time>2021-04-03T14:19:41.673Z</time>
      </trkpt>
      <trkpt lat="45.58728" lon="5.36478">
        <ele>434</ele>
        <time>2021-04-03T14:19:42.674Z</time>
      </trkpt>
      <trkpt lat="45.58728" lon="5.36463">
        <ele>433</ele>
        <time>2021-04-03T14:19:43.673Z</time>
      </trkpt>
      <trkpt lat="45.58727" lon="5.36449">
        <ele>433</ele>
        <time>2021-04-03T14:19:44.674Z</time>
      </trkpt>
      <trkpt lat="45.58727" lon="5.36435">
        <ele>432</ele>
        <time>2021-04-03T14:19:45.674Z</time>
      </trkpt>
      <trkpt lat="45.58726" lon="5.3642">
        <ele>432</ele>
        <time>2021-04-03T14:19:46.673Z</time>
      </trkpt>
      <trkpt lat="45.58725" lon="5.36404">
        <ele>431</ele>
        <time>2021-04-03T14:19:47.674Z</time>
      </trkpt>
      <trkpt lat="45.58725" lon="5.36389">
        <ele>431</ele>
        <time>2021-04-03T14:19:48.674Z</time>
      </trkpt>
      <trkpt lat="45.58724" lon="5.36373">
        <ele>430</ele>
        <time>2021-04-03T14:19:49.674Z</time>
      </trkpt>
      <trkpt lat="45.58724" lon="5.36358">
        <ele>429</ele>
        <time>2021-04-03T14:19:50.673Z</time>
      </trkpt>
      <trkpt lat="45.58723" lon="5.36345">
        <ele>428</ele>
        <time>2021-04-03T14:19:51.674Z</time>
      </trkpt>
      <trkpt lat="45.58724" lon="5.36331">
        <ele>427</ele>
        <time>2021-04-03T14:19:52.674Z</time>
      </trkpt>
      <trkpt lat="45.58725" lon="5.36317">
        <ele>426</ele>
        <time>2021-04-03T14:19:53.674Z</time>
      </trkpt>
      <trkpt lat="45.58726" lon="5.36304">
        <ele>425</ele>
        <time>2021-04-03T14:19:54.674Z</time>
      </trkpt>
      <trkpt lat="45.58728" lon="5.3629">
        <ele>425</ele>
        <time>2021-04-03T14:19:55.674Z</time>
      </trkpt>
      <trkpt lat="45.5873" lon="5.36276">
        <ele>424</ele>
        <time>2021-04-03T14:19:56.674Z</time>
      </trkpt>
      <trkpt lat="45.58732" lon="5.36261">
        <ele>424</ele>
        <time>2021-04-03T14:19:57.673Z</time>
      </trkpt>
      <trkpt lat="45.58735" lon="5.36247">
        <ele>423</ele>
        <time>2021-04-03T14:19:58.674Z</time>
      </trkpt>
      <trkpt lat="45.58737" lon="5.36232">
        <ele>422</ele>
        <time>2021-04-03T14:19:59.674Z</time>
      </trkpt>
      <trkpt lat="45.58739" lon="5.36217">
        <ele>421</ele>
        <time>2021-04-03T14:20:00.674Z</time>
      </trkpt>
      <trkpt lat="45.58741" lon="5.36202">
        <ele>421</ele>
        <time>2021-04-03T14:20:01.674Z</time>
      </trkpt>
      <trkpt lat="45.58743" lon="5.36187">
        <ele>420</ele>
        <time>2021-04-03T14:20:02.673Z</time>
      </trkpt>
      <trkpt lat="45.58745" lon="5.36172">
        <ele>420</ele>
        <time>2021-04-03T14:20:03.673Z</time>
      </trkpt>
      <trkpt lat="45.58748" lon="5.36157">
        <ele>419</ele>
        <time>2021-04-03T14:20:04.673Z</time>
      </trkpt>
      <trkpt lat="45.5875" lon="5.36143">
        <ele>417</ele>
        <time>2021-04-03T14:20:05.674Z</time>
      </trkpt>
      <trkpt lat="45.58752" lon="5.36129">
        <ele>416</ele>
        <time>2021-04-03T14:20:06.673Z</time>
      </trkpt>
      <trkpt lat="45.58755" lon="5.36116">
        <ele>415</ele>
        <time>2021-04-03T14:20:07.674Z</time>
      </trkpt>
      <trkpt lat="45.58758" lon="5.36101">
        <ele>414</ele>
        <time>2021-04-03T14:20:08.674Z</time>
      </trkpt>
      <trkpt lat="45.58761" lon="5.36089">
        <ele>413</ele>
        <time>2021-04-03T14:20:09.674Z</time>
      </trkpt>
      <trkpt lat="45.58763" lon="5.3608">
        <ele>412</ele>
        <time>2021-04-03T14:20:10.673Z</time>
      </trkpt>
      <trkpt lat="45.58766" lon="5.36069">
        <ele>411</ele>
        <time>2021-04-03T14:20:11.674Z</time>
      </trkpt>
      <trkpt lat="45.58769" lon="5.36059">
        <ele>411</ele>
        <time>2021-04-03T14:20:12.674Z</time>
      </trkpt>
      <trkpt lat="45.58772" lon="5.36048">
        <ele>410</ele>
        <time>2021-04-03T14:20:13.673Z</time>
      </trkpt>
      <trkpt lat="45.58776" lon="5.36038">
        <ele>409</ele>
        <time>2021-04-03T14:20:14.674Z</time>
      </trkpt>
      <trkpt lat="45.58779" lon="5.36027">
        <ele>408</ele>
        <time>2021-04-03T14:20:15.673Z</time>
      </trkpt>
      <trkpt lat="45.58783" lon="5.36016">
        <ele>407</ele>
        <time>2021-04-03T14:20:16.674Z</time>
      </trkpt>
      <trkpt lat="45.58787" lon="5.36006">
        <ele>406</ele>
        <time>2021-04-03T14:20:17.674Z</time>
      </trkpt>
      <trkpt lat="45.58791" lon="5.35995">
        <ele>406</ele>
        <time>2021-04-03T14:20:18.674Z</time>
      </trkpt>
      <trkpt lat="45.58796" lon="5.35984">
        <ele>405</ele>
        <time>2021-04-03T14:20:19.674Z</time>
      </trkpt>
      <trkpt lat="45.588" lon="5.35973">
        <ele>405</ele>
        <time>2021-04-03T14:20:20.674Z</time>
      </trkpt>
      <trkpt lat="45.58805" lon="5.35962">
        <ele>404</ele>
        <time>2021-04-03T14:20:21.674Z</time>
      </trkpt>
      <trkpt lat="45.5881" lon="5.35952">
        <ele>404</ele>
        <time>2021-04-03T14:20:22.674Z</time>
      </trkpt>
      <trkpt lat="45.58815" lon="5.35941">
        <ele>404</ele>
        <time>2021-04-03T14:20:23.674Z</time>
      </trkpt>
      <trkpt lat="45.58819" lon="5.35929">
        <ele>403</ele>
        <time>2021-04-03T14:20:24.674Z</time>
      </trkpt>
      <trkpt lat="45.58824" lon="5.35917">
        <ele>403</ele>
        <time>2021-04-03T14:20:25.673Z</time>
      </trkpt>
      <trkpt lat="45.58829" lon="5.35905">
        <ele>403</ele>
        <time>2021-04-03T14:20:26.674Z</time>
      </trkpt>
      <trkpt lat="45.58833" lon="5.35894">
        <ele>403</ele>
        <time>2021-04-03T14:20:27.674Z</time>
      </trkpt>
      <trkpt lat="45.58838" lon="5.35882">
        <ele>403</ele>
        <time>2021-04-03T14:20:28.674Z</time>
      </trkpt>
      <trkpt lat="45.58843" lon="5.3587">
        <ele>404</ele>
        <time>2021-04-03T14:20:29.674Z</time>
      </trkpt>
      <trkpt lat="45.58848" lon="5.35858">
        <ele>404</ele>
        <time>2021-04-03T14:20:30.674Z</time>
      </trkpt>
      <trkpt lat="45.58853" lon="5.35847">
        <ele>405</ele>
        <time>2021-04-03T14:20:31.673Z</time>
      </trkpt>
      <trkpt lat="45.58857" lon="5.35836">
        <ele>405</ele>
        <time>2021-04-03T14:20:32.674Z</time>
      </trkpt>
      <trkpt lat="45.58862" lon="5.35827">
        <ele>406</ele>
        <time>2021-04-03T14:20:33.673Z</time>
      </trkpt>
      <trkpt lat="45.58866" lon="5.35818">
        <ele>406</ele>
        <time>2021-04-03T14:20:34.674Z</time>
      </trkpt>
      <trkpt lat="45.5887" lon="5.3581">
        <ele>406</ele>
        <time>2021-04-03T14:20:35.674Z</time>
      </trkpt>
      <trkpt lat="45.58874" lon="5.35802">
        <ele>406</ele>
        <time>2021-04-03T14:20:36.674Z</time>
      </trkpt>
      <trkpt lat="45.58879" lon="5.35794">
        <ele>406</ele>
        <time>2021-04-03T14:20:37.674Z</time>
      </trkpt>
      <trkpt lat="45.58882" lon="5.35787">
        <ele>407</ele>
        <time>2021-04-03T14:20:38.673Z</time>
      </trkpt>
      <trkpt lat="45.58886" lon="5.3578">
        <ele>407</ele>
        <time>2021-04-03T14:20:39.673Z</time>
      </trkpt>
      <trkpt lat="45.5889" lon="5.35773">
        <ele>407</ele>
        <time>2021-04-03T14:20:40.674Z</time>
      </trkpt>
      <trkpt lat="45.58894" lon="5.35767">
        <ele>408</ele>
        <time>2021-04-03T14:20:41.673Z</time>
      </trkpt>
      <trkpt lat="45.58898" lon="5.35761">
        <ele>408</ele>
        <time>2021-04-03T14:20:42.674Z</time>
      </trkpt>
      <trkpt lat="45.58902" lon="5.35756">
        <ele>408</ele>
        <time>2021-04-03T14:20:43.673Z</time>
      </trkpt>
      <trkpt lat="45.58905" lon="5.35752">
        <ele>408</ele>
        <time>2021-04-03T14:20:44.674Z</time>
      </trkpt>
      <trkpt lat="45.58909" lon="5.35748">
        <ele>408</ele>
        <time>2021-04-03T14:20:45.674Z</time>
      </trkpt>
      <trkpt lat="45.58912" lon="5.35745">
        <ele>407</ele>
        <time>2021-04-03T14:20:46.674Z</time>
      </trkpt>
      <trkpt lat="45.58915" lon="5.35742">
        <ele>406</ele>
        <time>2021-04-03T14:20:47.673Z</time>
      </trkpt>
      <trkpt lat="45.58918" lon="5.35739">
        <ele>406</ele>
        <time>2021-04-03T14:20:48.674Z</time>
      </trkpt>
      <trkpt lat="45.5892" lon="5.35736">
        <ele>406</ele>
        <time>2021-04-03T14:20:49.674Z</time>
      </trkpt>
      <trkpt lat="45.58923" lon="5.35731">
        <ele>406</ele>
        <time>2021-04-03T14:20:50.673Z</time>
      </trkpt>
      <trkpt lat="45.58926" lon="5.35727">
        <ele>406</ele>
        <time>2021-04-03T14:20:51.674Z</time>
      </trkpt>
      <trkpt lat="45.58929" lon="5.35723">
        <ele>406</ele>
        <time>2021-04-03T14:20:52.674Z</time>
      </trkpt>
      <trkpt lat="45.58931" lon="5.35719">
        <ele>407</ele>
        <time>2021-04-03T14:20:53.674Z</time>
      </trkpt>
      <trkpt lat="45.58933" lon="5.35715">
        <ele>407</ele>
        <time>2021-04-03T14:20:54.673Z</time>
      </trkpt>
      <trkpt lat="45.58934" lon="5.35711">
        <ele>407</ele>
        <time>2021-04-03T14:20:55.673Z</time>
      </trkpt>
      <trkpt lat="45.58937" lon="5.35707">
        <ele>407</ele>
        <time>2021-04-03T14:20:56.674Z</time>
      </trkpt>
      <trkpt lat="45.58939" lon="5.35703">
        <ele>406</ele>
        <time>2021-04-03T14:20:57.674Z</time>
      </trkpt>
      <trkpt lat="45.58941" lon="5.357">
        <ele>406</ele>
        <time>2021-04-03T14:20:58.673Z</time>
      </trkpt>
      <trkpt lat="45.58944" lon="5.35696">
        <ele>406</ele>
        <time>2021-04-03T14:20:59.674Z</time>
      </trkpt>
      <trkpt lat="45.58947" lon="5.35693">
        <ele>406</ele>
        <time>2021-04-03T14:21:00.674Z</time>
      </trkpt>
      <trkpt lat="45.5895" lon="5.35691">
        <ele>406</ele>
        <time>2021-04-03T14:21:01.674Z</time>
      </trkpt>
      <trkpt lat="45.58954" lon="5.3569">
        <ele>407</ele>
        <time>2021-04-03T14:21:02.673Z</time>
      </trkpt>
      <trkpt lat="45.58958" lon="5.35688">
        <ele>407</ele>
        <time>2021-04-03T14:21:03.674Z</time>
      </trkpt>
      <trkpt lat="45.58961" lon="5.35686">
        <ele>408</ele>
        <time>2021-04-03T14:21:04.674Z</time>
      </trkpt>
      <trkpt lat="45.58965" lon="5.35685">
        <ele>408</ele>
        <time>2021-04-03T14:21:05.673Z</time>
      </trkpt>
      <trkpt lat="45.58969" lon="5.35683">
        <ele>408</ele>
        <time>2021-04-03T14:21:06.674Z</time>
      </trkpt>
      <trkpt lat="45.58972" lon="5.35682">
        <ele>408</ele>
        <time>2021-04-03T14:21:07.674Z</time>
      </trkpt>
      <trkpt lat="45.58976" lon="5.3568">
        <ele>408</ele>
        <time>2021-04-03T14:21:08.673Z</time>
      </trkpt>
      <trkpt lat="45.5898" lon="5.35678">
        <ele>407</ele>
        <time>2021-04-03T14:21:09.673Z</time>
      </trkpt>
      <trkpt lat="45.58984" lon="5.35676">
        <ele>407</ele>
        <time>2021-04-03T14:21:10.674Z</time>
      </trkpt>
      <trkpt lat="45.58988" lon="5.35674">
        <ele>407</ele>
        <time>2021-04-03T14:21:11.674Z</time>
      </trkpt>
      <trkpt lat="45.58993" lon="5.35673">
        <ele>407</ele>
        <time>2021-04-03T14:21:12.673Z</time>
      </trkpt>
      <trkpt lat="45.58997" lon="5.35671">
        <ele>407</ele>
        <time>2021-04-03T14:21:13.674Z</time>
      </trkpt>
      <trkpt lat="45.59001" lon="5.35669">
        <ele>406</ele>
        <time>2021-04-03T14:21:14.674Z</time>
      </trkpt>
      <trkpt lat="45.59005" lon="5.35666">
        <ele>407</ele>
        <time>2021-04-03T14:21:15.674Z</time>
      </trkpt>
      <trkpt lat="45.5901" lon="5.35664">
        <ele>407</ele>
        <time>2021-04-03T14:21:16.673Z</time>
      </trkpt>
      <trkpt lat="45.59014" lon="5.35662">
        <ele>407</ele>
        <time>2021-04-03T14:21:17.673Z</time>
      </trkpt>
      <trkpt lat="45.59018" lon="5.3566">
        <ele>407</ele>
        <time>2021-04-03T14:21:18.674Z</time>
      </trkpt>
      <trkpt lat="45.59023" lon="5.35659">
        <ele>408</ele>
        <time>2021-04-03T14:21:19.674Z</time>
      </trkpt>
      <trkpt lat="45.59027" lon="5.35657">
        <ele>408</ele>
        <time>2021-04-03T14:21:20.674Z</time>
      </trkpt>
      <trkpt lat="45.59031" lon="5.35655">
        <ele>408</ele>
        <time>2021-04-03T14:21:21.674Z</time>
      </trkpt>
      <trkpt lat="45.59036" lon="5.35653">
        <ele>408</ele>
        <time>2021-04-03T14:21:22.674Z</time>
      </trkpt>
      <trkpt lat="45.5904" lon="5.3565">
        <ele>409</ele>
        <time>2021-04-03T14:21:23.674Z</time>
      </trkpt>
      <trkpt lat="45.59044" lon="5.35648">
        <ele>409</ele>
        <time>2021-04-03T14:21:24.674Z</time>
      </trkpt>
      <trkpt lat="45.59048" lon="5.35646">
        <ele>409</ele>
        <time>2021-04-03T14:21:25.674Z</time>
      </trkpt>
      <trkpt lat="45.59051" lon="5.35643">
        <ele>409</ele>
        <time>2021-04-03T14:21:26.673Z</time>
      </trkpt>
      <trkpt lat="45.59054" lon="5.35642">
        <ele>409</ele>
        <time>2021-04-03T14:21:27.673Z</time>
      </trkpt>
      <trkpt lat="45.59057" lon="5.3564">
        <ele>409</ele>
        <time>2021-04-03T14:21:28.674Z</time>
      </trkpt>
      <trkpt lat="45.59059" lon="5.35638">
        <ele>409</ele>
        <time>2021-04-03T14:21:29.674Z</time>
      </trkpt>
      <trkpt lat="45.59061" lon="5.35636">
        <ele>410</ele>
        <time>2021-04-03T14:21:30.673Z</time>
      </trkpt>
      <trkpt lat="45.59063" lon="5.35634">
        <ele>410</ele>
        <time>2021-04-03T14:21:31.673Z</time>
      </trkpt>
      <trkpt lat="45.59065" lon="5.35633">
        <ele>410</ele>
        <time>2021-04-03T14:21:32.673Z</time>
      </trkpt>
      <trkpt lat="45.59067" lon="5.35631">
        <ele>410</ele>
        <time>2021-04-03T14:21:33.673Z</time>
      </trkpt>
      <trkpt lat="45.59068" lon="5.3563">
        <ele>409</ele>
        <time>2021-04-03T14:21:34.674Z</time>
      </trkpt>
      <trkpt lat="45.59069" lon="5.3563">
        <ele>409</ele>
        <time>2021-04-03T14:21:35.674Z</time>
      </trkpt>
      <trkpt lat="45.5907" lon="5.35629">
        <ele>408</ele>
        <time>2021-04-03T14:21:36.674Z</time>
      </trkpt>
      <trkpt lat="45.5907" lon="5.35629">
        <ele>408</ele>
        <time>2021-04-03T14:21:37.674Z</time>
      </trkpt>
      <trkpt lat="45.5907" lon="5.35629">
        <ele>408</ele>
        <time>2021-04-03T14:21:38.673Z</time>
      </trkpt>
      <trkpt lat="45.5907" lon="5.35628">
        <ele>408</ele>
        <time>2021-04-03T14:21:39.674Z</time>
      </trkpt>
      <trkpt lat="45.59071" lon="5.35627">
        <ele>408</ele>
        <time>2021-04-03T14:21:40.673Z</time>
      </trkpt>
      <trkpt lat="45.59072" lon="5.35626">
        <ele>408</ele>
        <time>2021-04-03T14:21:41.674Z</time>
      </trkpt>
      <trkpt lat="45.59073" lon="5.35624">
        <ele>408</ele>
        <time>2021-04-03T14:21:42.674Z</time>
      </trkpt>
      <trkpt lat="45.59075" lon="5.35622">
        <ele>408</ele>
        <time>2021-04-03T14:21:43.674Z</time>
      </trkpt>
      <trkpt lat="45.59077" lon="5.3562">
        <ele>408</ele>
        <time>2021-04-03T14:21:44.673Z</time>
      </trkpt>
      <trkpt lat="45.59079" lon="5.35619">
        <ele>408</ele>
        <time>2021-04-03T14:21:45.673Z</time>
      </trkpt>
      <trkpt lat="45.5908" lon="5.35617">
        <ele>408</ele>
        <time>2021-04-03T14:21:46.674Z</time>
      </trkpt>
      <trkpt lat="45.59082" lon="5.35616">
        <ele>407</ele>
        <time>2021-04-03T14:21:47.674Z</time>
      </trkpt>
      <trkpt lat="45.59083" lon="5.35615">
        <ele>407</ele>
        <time>2021-04-03T14:21:48.674Z</time>
      </trkpt>
      <trkpt lat="45.59084" lon="5.35612">
        <ele>406</ele>
        <time>2021-04-03T14:21:49.673Z</time>
      </trkpt>
      <trkpt lat="45.59086" lon="5.3561">
        <ele>406</ele>
        <time>2021-04-03T14:21:50.674Z</time>
      </trkpt>
      <trkpt lat="45.59088" lon="5.35607">
        <ele>406</ele>
        <time>2021-04-03T14:21:51.674Z</time>
      </trkpt>
      <trkpt lat="45.59091" lon="5.35604">
        <ele>406</ele>
        <time>2021-04-03T14:21:52.674Z</time>
      </trkpt>
      <trkpt lat="45.59094" lon="5.35601">
        <ele>406</ele>
        <time>2021-04-03T14:21:53.674Z</time>
      </trkpt>
      <trkpt lat="45.59097" lon="5.35597">
        <ele>406</ele>
        <time>2021-04-03T14:21:54.674Z</time>
      </trkpt>
      <trkpt lat="45.591" lon="5.35594">
        <ele>406</ele>
        <time>2021-04-03T14:21:55.674Z</time>
      </trkpt>
      <trkpt lat="45.59103" lon="5.3559">
        <ele>405</ele>
        <time>2021-04-03T14:21:56.674Z</time>
      </trkpt>
      <trkpt lat="45.59107" lon="5.35585">
        <ele>405</ele>
        <time>2021-04-03T14:21:57.674Z</time>
      </trkpt>
      <trkpt lat="45.59111" lon="5.35581">
        <ele>405</ele>
        <time>2021-04-03T14:21:58.674Z</time>
      </trkpt>
      <trkpt lat="45.59115" lon="5.35576">
        <ele>405</ele>
        <time>2021-04-03T14:21:59.673Z</time>
      </trkpt>
      <trkpt lat="45.59119" lon="5.35571">
        <ele>405</ele>
        <time>2021-04-03T14:22:00.674Z</time>
      </trkpt>
      <trkpt lat="45.59123" lon="5.35566">
        <ele>405</ele>
        <time>2021-04-03T14:22:01.674Z</time>
      </trkpt>
      <trkpt lat="45.59128" lon="5.35561">
        <ele>405</ele>
        <time>2021-04-03T14:22:02.674Z</time>
      </trkpt>
      <trkpt lat="45.59133" lon="5.35556">
        <ele>405</ele>
        <time>2021-04-03T14:22:03.674Z</time>
      </trkpt>
      <trkpt lat="45.59138" lon="5.35551">
        <ele>405</ele>
        <time>2021-04-03T14:22:04.674Z</time>
      </trkpt>
      <trkpt lat="45.59144" lon="5.35546">
        <ele>405</ele>
        <time>2021-04-03T14:22:05.674Z</time>
      </trkpt>
      <trkpt lat="45.59151" lon="5.35541">
        <ele>405</ele>
        <time>2021-04-03T14:22:06.674Z</time>
      </trkpt>
      <trkpt lat="45.59158" lon="5.35537">
        <ele>405</ele>
        <time>2021-04-03T14:22:07.673Z</time>
      </trkpt>
      <trkpt lat="45.59166" lon="5.35533">
        <ele>404</ele>
        <time>2021-04-03T14:22:08.674Z</time>
      </trkpt>
      <trkpt lat="45.59175" lon="5.3553">
        <ele>404</ele>
        <time>2021-04-03T14:22:09.674Z</time>
      </trkpt>
      <trkpt lat="45.59183" lon="5.35528">
        <ele>403</ele>
        <time>2021-04-03T14:22:10.674Z</time>
      </trkpt>
      <trkpt lat="45.59191" lon="5.35525">
        <ele>403</ele>
        <time>2021-04-03T14:22:11.674Z</time>
      </trkpt>
      <trkpt lat="45.59199" lon="5.35522">
        <ele>403</ele>
        <time>2021-04-03T14:22:12.674Z</time>
      </trkpt>
      <trkpt lat="45.59207" lon="5.35518">
        <ele>402</ele>
        <time>2021-04-03T14:22:13.674Z</time>
      </trkpt>
      <trkpt lat="45.59214" lon="5.35513">
        <ele>402</ele>
        <time>2021-04-03T14:22:14.673Z</time>
      </trkpt>
      <trkpt lat="45.59221" lon="5.35505">
        <ele>402</ele>
        <time>2021-04-03T14:22:15.674Z</time>
      </trkpt>
      <trkpt lat="45.59227" lon="5.35496">
        <ele>402</ele>
        <time>2021-04-03T14:22:16.674Z</time>
      </trkpt>
      <trkpt lat="45.59232" lon="5.35487">
        <ele>401</ele>
        <time>2021-04-03T14:22:17.673Z</time>
      </trkpt>
      <trkpt lat="45.59236" lon="5.35476">
        <ele>401</ele>
        <time>2021-04-03T14:22:18.674Z</time>
      </trkpt>
      <trkpt lat="45.59238" lon="5.35465">
        <ele>401</ele>
        <time>2021-04-03T14:22:19.674Z</time>
      </trkpt>
      <trkpt lat="45.59238" lon="5.3545">
        <ele>401</ele>
        <time>2021-04-03T14:22:20.674Z</time>
      </trkpt>
      <trkpt lat="45.59238" lon="5.35436">
        <ele>401</ele>
        <time>2021-04-03T14:22:21.674Z</time>
      </trkpt>
      <trkpt lat="45.59237" lon="5.35422">
        <ele>400</ele>
        <time>2021-04-03T14:22:22.674Z</time>
      </trkpt>
      <trkpt lat="45.59236" lon="5.35407">
        <ele>400</ele>
        <time>2021-04-03T14:22:23.674Z</time>
      </trkpt>
      <trkpt lat="45.59235" lon="5.35393">
        <ele>400</ele>
        <time>2021-04-03T14:22:24.674Z</time>
      </trkpt>
      <trkpt lat="45.59233" lon="5.35378">
        <ele>399</ele>
        <time>2021-04-03T14:22:25.674Z</time>
      </trkpt>
      <trkpt lat="45.59231" lon="5.35362">
        <ele>399</ele>
        <time>2021-04-03T14:22:26.674Z</time>
      </trkpt>
      <trkpt lat="45.59229" lon="5.35345">
        <ele>398</ele>
        <time>2021-04-03T14:22:27.673Z</time>
      </trkpt>
      <trkpt lat="45.59227" lon="5.35329">
        <ele>397</ele>
        <time>2021-04-03T14:22:28.674Z</time>
      </trkpt>
      <trkpt lat="45.59226" lon="5.35313">
        <ele>396</ele>
        <time>2021-04-03T14:22:29.674Z</time>
      </trkpt>
      <trkpt lat="45.59225" lon="5.35297">
        <ele>395</ele>
        <time>2021-04-03T14:22:30.673Z</time>
      </trkpt>
      <trkpt lat="45.59225" lon="5.35281">
        <ele>394</ele>
        <time>2021-04-03T14:22:31.674Z</time>
      </trkpt>
      <trkpt lat="45.59225" lon="5.35265">
        <ele>393</ele>
        <time>2021-04-03T14:22:32.674Z</time>
      </trkpt>
      <trkpt lat="45.59225" lon="5.35249">
        <ele>392</ele>
        <time>2021-04-03T14:22:33.674Z</time>
      </trkpt>
      <trkpt lat="45.59226" lon="5.35234">
        <ele>391</ele>
        <time>2021-04-03T14:22:34.674Z</time>
      </trkpt>
      <trkpt lat="45.59226" lon="5.35217">
        <ele>390</ele>
        <time>2021-04-03T14:22:35.674Z</time>
      </trkpt>
      <trkpt lat="45.59227" lon="5.35201">
        <ele>389</ele>
        <time>2021-04-03T14:22:36.673Z</time>
      </trkpt>
      <trkpt lat="45.59227" lon="5.35186">
        <ele>389</ele>
        <time>2021-04-03T14:22:37.673Z</time>
      </trkpt>
      <trkpt lat="45.59227" lon="5.3517">
        <ele>388</ele>
        <time>2021-04-03T14:22:38.673Z</time>
      </trkpt>
      <trkpt lat="45.59227" lon="5.35153">
        <ele>387</ele>
        <time>2021-04-03T14:22:39.673Z</time>
      </trkpt>
      <trkpt lat="45.59226" lon="5.35137">
        <ele>386</ele>
        <time>2021-04-03T14:22:40.673Z</time>
      </trkpt>
      <trkpt lat="45.59225" lon="5.3512">
        <ele>385</ele>
        <time>2021-04-03T14:22:41.674Z</time>
      </trkpt>
      <trkpt lat="45.59224" lon="5.35104">
        <ele>385</ele>
        <time>2021-04-03T14:22:42.673Z</time>
      </trkpt>
      <trkpt lat="45.59224" lon="5.35087">
        <ele>384</ele>
        <time>2021-04-03T14:22:43.673Z</time>
      </trkpt>
      <trkpt lat="45.59225" lon="5.3507">
        <ele>384</ele>
        <time>2021-04-03T14:22:44.673Z</time>
      </trkpt>
      <trkpt lat="45.59225" lon="5.35053">
        <ele>385</ele>
        <time>2021-04-03T14:22:45.673Z</time>
      </trkpt>
      <trkpt lat="45.59227" lon="5.35037">
        <ele>384</ele>
        <time>2021-04-03T14:22:46.674Z</time>
      </trkpt>
      <trkpt lat="45.59228" lon="5.3502">
        <ele>383</ele>
        <time>2021-04-03T14:22:47.674Z</time>
      </trkpt>
      <trkpt lat="45.5923" lon="5.35004">
        <ele>383</ele>
        <time>2021-04-03T14:22:48.673Z</time>
      </trkpt>
      <trkpt lat="45.59231" lon="5.34987">
        <ele>382</ele>
        <time>2021-04-03T14:22:49.674Z</time>
      </trkpt>
      <trkpt lat="45.59233" lon="5.34971">
        <ele>381</ele>
        <time>2021-04-03T14:22:50.674Z</time>
      </trkpt>
      <trkpt lat="45.59233" lon="5.34956">
        <ele>380</ele>
        <time>2021-04-03T14:22:51.674Z</time>
      </trkpt>
      <trkpt lat="45.59231" lon="5.34941">
        <ele>380</ele>
        <time>2021-04-03T14:22:52.673Z</time>
      </trkpt>
      <trkpt lat="45.59229" lon="5.34926">
        <ele>379</ele>
        <time>2021-04-03T14:22:53.674Z</time>
      </trkpt>
      <trkpt lat="45.59224" lon="5.34913">
        <ele>379</ele>
        <time>2021-04-03T14:22:54.674Z</time>
      </trkpt>
      <trkpt lat="45.59218" lon="5.34899">
        <ele>379</ele>
        <time>2021-04-03T14:22:55.674Z</time>
      </trkpt>
      <trkpt lat="45.59212" lon="5.34885">
        <ele>379</ele>
        <time>2021-04-03T14:22:56.674Z</time>
      </trkpt>
      <trkpt lat="45.59204" lon="5.34871">
        <ele>378</ele>
        <time>2021-04-03T14:22:57.674Z</time>
      </trkpt>
      <trkpt lat="45.59199" lon="5.34856">
        <ele>378</ele>
        <time>2021-04-03T14:22:58.674Z</time>
      </trkpt>
      <trkpt lat="45.59196" lon="5.3484">
        <ele>378</ele>
        <time>2021-04-03T14:22:59.674Z</time>
      </trkpt>
      <trkpt lat="45.59194" lon="5.34824">
        <ele>378</ele>
        <time>2021-04-03T14:23:00.673Z</time>
      </trkpt>
      <trkpt lat="45.59193" lon="5.34807">
        <ele>377</ele>
        <time>2021-04-03T14:23:01.674Z</time>
      </trkpt>
      <trkpt lat="45.59195" lon="5.34787">
        <ele>377</ele>
        <time>2021-04-03T14:23:02.674Z</time>
      </trkpt>
      <trkpt lat="45.59196" lon="5.34771">
        <ele>377</ele>
        <time>2021-04-03T14:23:03.674Z</time>
      </trkpt>
      <trkpt lat="45.59197" lon="5.34758">
        <ele>377</ele>
        <time>2021-04-03T14:23:04.674Z</time>
      </trkpt>
      <trkpt lat="45.59198" lon="5.34742">
        <ele>377</ele>
        <time>2021-04-03T14:23:05.674Z</time>
      </trkpt>
      <trkpt lat="45.59199" lon="5.34726">
        <ele>376</ele>
        <time>2021-04-03T14:23:06.673Z</time>
      </trkpt>
      <trkpt lat="45.59199" lon="5.3471">
        <ele>376</ele>
        <time>2021-04-03T14:23:07.674Z</time>
      </trkpt>
      <trkpt lat="45.59198" lon="5.34694">
        <ele>375</ele>
        <time>2021-04-03T14:23:08.673Z</time>
      </trkpt>
      <trkpt lat="45.59197" lon="5.34678">
        <ele>374</ele>
        <time>2021-04-03T14:23:09.674Z</time>
      </trkpt>
      <trkpt lat="45.59196" lon="5.34662">
        <ele>373</ele>
        <time>2021-04-03T14:23:10.673Z</time>
      </trkpt>
      <trkpt lat="45.59195" lon="5.34647">
        <ele>372</ele>
        <time>2021-04-03T14:23:11.674Z</time>
      </trkpt>
      <trkpt lat="45.59195" lon="5.34628">
        <ele>371</ele>
        <time>2021-04-03T14:23:12.674Z</time>
      </trkpt>
      <trkpt lat="45.59196" lon="5.34615">
        <ele>370</ele>
        <time>2021-04-03T14:23:13.674Z</time>
      </trkpt>
      <trkpt lat="45.59197" lon="5.34598">
        <ele>368</ele>
        <time>2021-04-03T14:23:14.674Z</time>
      </trkpt>
      <trkpt lat="45.59197" lon="5.34581">
        <ele>367</ele>
        <time>2021-04-03T14:23:15.673Z</time>
      </trkpt>
      <trkpt lat="45.59198" lon="5.34564">
        <ele>365</ele>
        <time>2021-04-03T14:23:16.674Z</time>
      </trkpt>
      <trkpt lat="45.59199" lon="5.34546">
        <ele>364</ele>
        <time>2021-04-03T14:23:17.674Z</time>
      </trkpt>
      <trkpt lat="45.59199" lon="5.34529">
        <ele>363</ele>
        <time>2021-04-03T14:23:18.674Z</time>
      </trkpt>
      <trkpt lat="45.592" lon="5.34511">
        <ele>362</ele>
        <time>2021-04-03T14:23:19.674Z</time>
      </trkpt>
      <trkpt lat="45.59199" lon="5.34492">
        <ele>361</ele>
        <time>2021-04-03T14:23:20.673Z</time>
      </trkpt>
      <trkpt lat="45.59196" lon="5.34473">
        <ele>360</ele>
        <time>2021-04-03T14:23:21.674Z</time>
      </trkpt>
      <trkpt lat="45.59194" lon="5.34454">
        <ele>360</ele>
        <time>2021-04-03T14:23:22.674Z</time>
      </trkpt>
      <trkpt lat="45.59189" lon="5.34435">
        <ele>359</ele>
        <time>2021-04-03T14:23:23.674Z</time>
      </trkpt>
      <trkpt lat="45.59184" lon="5.34414">
        <ele>359</ele>
        <time>2021-04-03T14:23:24.674Z</time>
      </trkpt>
      <trkpt lat="45.59178" lon="5.34395">
        <ele>358</ele>
        <time>2021-04-03T14:23:25.674Z</time>
      </trkpt>
      <trkpt lat="45.5917" lon="5.34371">
        <ele>357</ele>
        <time>2021-04-03T14:23:26.674Z</time>
      </trkpt>
      <trkpt lat="45.59164" lon="5.34357">
        <ele>356</ele>
        <time>2021-04-03T14:23:27.674Z</time>
      </trkpt>
      <trkpt lat="45.59156" lon="5.34339">
        <ele>355</ele>
        <time>2021-04-03T14:23:28.674Z</time>
      </trkpt>
      <trkpt lat="45.59149" lon="5.34322">
        <ele>354</ele>
        <time>2021-04-03T14:23:29.673Z</time>
      </trkpt>
      <trkpt lat="45.59141" lon="5.34305">
        <ele>353</ele>
        <time>2021-04-03T14:23:30.674Z</time>
      </trkpt>
      <trkpt lat="45.59133" lon="5.34288">
        <ele>352</ele>
        <time>2021-04-03T14:23:31.674Z</time>
      </trkpt>
      <trkpt lat="45.59125" lon="5.3427">
        <ele>350</ele>
        <time>2021-04-03T14:23:32.674Z</time>
      </trkpt>
      <trkpt lat="45.59118" lon="5.34252">
        <ele>349</ele>
        <time>2021-04-03T14:23:33.674Z</time>
      </trkpt>
      <trkpt lat="45.5911" lon="5.34232">
        <ele>348</ele>
        <time>2021-04-03T14:23:34.674Z</time>
      </trkpt>
      <trkpt lat="45.59105" lon="5.34212">
        <ele>347</ele>
        <time>2021-04-03T14:23:35.674Z</time>
      </trkpt>
      <trkpt lat="45.59101" lon="5.34194">
        <ele>346</ele>
        <time>2021-04-03T14:23:36.673Z</time>
      </trkpt>
      <trkpt lat="45.59098" lon="5.34179">
        <ele>346</ele>
        <time>2021-04-03T14:23:37.674Z</time>
      </trkpt>
      <trkpt lat="45.59094" lon="5.3416">
        <ele>345</ele>
        <time>2021-04-03T14:23:38.674Z</time>
      </trkpt>
      <trkpt lat="45.5909" lon="5.34142">
        <ele>344</ele>
        <time>2021-04-03T14:23:39.674Z</time>
      </trkpt>
      <trkpt lat="45.59086" lon="5.34125">
        <ele>343</ele>
        <time>2021-04-03T14:23:40.673Z</time>
      </trkpt>
      <trkpt lat="45.59083" lon="5.34107">
        <ele>342</ele>
        <time>2021-04-03T14:23:41.674Z</time>
      </trkpt>
      <trkpt lat="45.5908" lon="5.34091">
        <ele>341</ele>
        <time>2021-04-03T14:23:42.673Z</time>
      </trkpt>
      <trkpt lat="45.59076" lon="5.34075">
        <ele>340</ele>
        <time>2021-04-03T14:23:43.674Z</time>
      </trkpt>
      <trkpt lat="45.59074" lon="5.34059">
        <ele>339</ele>
        <time>2021-04-03T14:23:44.674Z</time>
      </trkpt>
      <trkpt lat="45.59071" lon="5.34044">
        <ele>339</ele>
        <time>2021-04-03T14:23:45.674Z</time>
      </trkpt>
      <trkpt lat="45.59068" lon="5.34028">
        <ele>338</ele>
        <time>2021-04-03T14:23:46.673Z</time>
      </trkpt>
      <trkpt lat="45.59064" lon="5.34014">
        <ele>338</ele>
        <time>2021-04-03T14:23:47.674Z</time>
      </trkpt>
      <trkpt lat="45.5906" lon="5.34">
        <ele>337</ele>
        <time>2021-04-03T14:23:48.673Z</time>
      </trkpt>
      <trkpt lat="45.59054" lon="5.33988">
        <ele>336</ele>
        <time>2021-04-03T14:23:49.674Z</time>
      </trkpt>
      <trkpt lat="45.59047" lon="5.33977">
        <ele>334</ele>
        <time>2021-04-03T14:23:50.674Z</time>
      </trkpt>
      <trkpt lat="45.59039" lon="5.33968">
        <ele>332</ele>
        <time>2021-04-03T14:23:51.674Z</time>
      </trkpt>
      <trkpt lat="45.59031" lon="5.33959">
        <ele>331</ele>
        <time>2021-04-03T14:23:52.674Z</time>
      </trkpt>
      <trkpt lat="45.59022" lon="5.33953">
        <ele>329</ele>
        <time>2021-04-03T14:23:53.673Z</time>
      </trkpt>
      <trkpt lat="45.59012" lon="5.33948">
        <ele>327</ele>
        <time>2021-04-03T14:23:54.674Z</time>
      </trkpt>
      <trkpt lat="45.59001" lon="5.33945">
        <ele>326</ele>
        <time>2021-04-03T14:23:55.674Z</time>
      </trkpt>
      <trkpt lat="45.58991" lon="5.33942">
        <ele>324</ele>
        <time>2021-04-03T14:23:56.673Z</time>
      </trkpt>
      <trkpt lat="45.5898" lon="5.33939">
        <ele>323</ele>
        <time>2021-04-03T14:23:57.674Z</time>
      </trkpt>
      <trkpt lat="45.58969" lon="5.33937">
        <ele>322</ele>
        <time>2021-04-03T14:23:58.673Z</time>
      </trkpt>
      <trkpt lat="45.58956" lon="5.33935">
        <ele>321</ele>
        <time>2021-04-03T14:23:59.673Z</time>
      </trkpt>
      <trkpt lat="45.58944" lon="5.33931">
        <ele>320</ele>
        <time>2021-04-03T14:24:00.674Z</time>
      </trkpt>
      <trkpt lat="45.58933" lon="5.33927">
        <ele>319</ele>
        <time>2021-04-03T14:24:01.674Z</time>
      </trkpt>
      <trkpt lat="45.58922" lon="5.33922">
        <ele>319</ele>
        <time>2021-04-03T14:24:02.674Z</time>
      </trkpt>
      <trkpt lat="45.58911" lon="5.33916">
        <ele>318</ele>
        <time>2021-04-03T14:24:03.673Z</time>
      </trkpt>
      <trkpt lat="45.589" lon="5.3391">
        <ele>317</ele>
        <time>2021-04-03T14:24:04.674Z</time>
      </trkpt>
      <trkpt lat="45.5889" lon="5.33904">
        <ele>316</ele>
        <time>2021-04-03T14:24:05.673Z</time>
      </trkpt>
      <trkpt lat="45.5888" lon="5.33898">
        <ele>315</ele>
        <time>2021-04-03T14:24:06.674Z</time>
      </trkpt>
      <trkpt lat="45.5887" lon="5.33892">
        <ele>315</ele>
        <time>2021-04-03T14:24:07.674Z</time>
      </trkpt>
      <trkpt lat="45.5886" lon="5.33886">
        <ele>314</ele>
        <time>2021-04-03T14:24:08.674Z</time>
      </trkpt>
      <trkpt lat="45.58851" lon="5.33879">
        <ele>314</ele>
        <time>2021-04-03T14:24:09.674Z</time>
      </trkpt>
      <trkpt lat="45.58842" lon="5.33872">
        <ele>313</ele>
        <time>2021-04-03T14:24:10.674Z</time>
      </trkpt>
      <trkpt lat="45.58834" lon="5.33864">
        <ele>313</ele>
        <time>2021-04-03T14:24:11.674Z</time>
      </trkpt>
      <trkpt lat="45.58825" lon="5.33857">
        <ele>313</ele>
        <time>2021-04-03T14:24:12.674Z</time>
      </trkpt>
      <trkpt lat="45.58817" lon="5.33849">
        <ele>312</ele>
        <time>2021-04-03T14:24:13.673Z</time>
      </trkpt>
      <trkpt lat="45.58809" lon="5.33842">
        <ele>312</ele>
        <time>2021-04-03T14:24:14.674Z</time>
      </trkpt>
      <trkpt lat="45.58801" lon="5.33834">
        <ele>312</ele>
        <time>2021-04-03T14:24:15.674Z</time>
      </trkpt>
      <trkpt lat="45.58793" lon="5.33826">
        <ele>311</ele>
        <time>2021-04-03T14:24:16.674Z</time>
      </trkpt>
      <trkpt lat="45.58785" lon="5.33819">
        <ele>310</ele>
        <time>2021-04-03T14:24:17.674Z</time>
      </trkpt>
      <trkpt lat="45.58777" lon="5.33812">
        <ele>310</ele>
        <time>2021-04-03T14:24:18.674Z</time>
      </trkpt>
      <trkpt lat="45.5877" lon="5.33804">
        <ele>310</ele>
        <time>2021-04-03T14:24:19.673Z</time>
      </trkpt>
      <trkpt lat="45.58763" lon="5.33796">
        <ele>310</ele>
        <time>2021-04-03T14:24:20.674Z</time>
      </trkpt>
      <trkpt lat="45.58757" lon="5.33788">
        <ele>310</ele>
        <time>2021-04-03T14:24:21.674Z</time>
      </trkpt>
      <trkpt lat="45.58751" lon="5.3378">
        <ele>310</ele>
        <time>2021-04-03T14:24:22.674Z</time>
      </trkpt>
      <trkpt lat="45.58746" lon="5.33771">
        <ele>310</ele>
        <time>2021-04-03T14:24:23.673Z</time>
      </trkpt>
      <trkpt lat="45.58741" lon="5.33761">
        <ele>310</ele>
        <time>2021-04-03T14:24:24.674Z</time>
      </trkpt>
      <trkpt lat="45.58735" lon="5.33751">
        <ele>309</ele>
        <time>2021-04-03T14:24:25.674Z</time>
      </trkpt>
      <trkpt lat="45.58731" lon="5.3374">
        <ele>309</ele>
        <time>2021-04-03T14:24:26.674Z</time>
      </trkpt>
      <trkpt lat="45.58726" lon="5.3373">
        <ele>308</ele>
        <time>2021-04-03T14:24:27.674Z</time>
      </trkpt>
      <trkpt lat="45.58721" lon="5.33719">
        <ele>308</ele>
        <time>2021-04-03T14:24:28.674Z</time>
      </trkpt>
      <trkpt lat="45.58717" lon="5.33708">
        <ele>307</ele>
        <time>2021-04-03T14:24:29.674Z</time>
      </trkpt>
      <trkpt lat="45.58713" lon="5.33698">
        <ele>307</ele>
        <time>2021-04-03T14:24:30.674Z</time>
      </trkpt>
      <trkpt lat="45.58709" lon="5.33687">
        <ele>306</ele>
        <time>2021-04-03T14:24:31.674Z</time>
      </trkpt>
      <trkpt lat="45.58705" lon="5.33676">
        <ele>306</ele>
        <time>2021-04-03T14:24:32.674Z</time>
      </trkpt>
      <trkpt lat="45.58701" lon="5.33666">
        <ele>306</ele>
        <time>2021-04-03T14:24:33.674Z</time>
      </trkpt>
      <trkpt lat="45.58696" lon="5.33655">
        <ele>305</ele>
        <time>2021-04-03T14:24:34.673Z</time>
      </trkpt>
      <trkpt lat="45.58692" lon="5.33645">
        <ele>306</ele>
        <time>2021-04-03T14:24:35.673Z</time>
      </trkpt>
      <trkpt lat="45.58688" lon="5.33635">
        <ele>306</ele>
        <time>2021-04-03T14:24:36.674Z</time>
      </trkpt>
      <trkpt lat="45.58684" lon="5.33625">
        <ele>306</ele>
        <time>2021-04-03T14:24:37.674Z</time>
      </trkpt>
      <trkpt lat="45.5868" lon="5.33614">
        <ele>306</ele>
        <time>2021-04-03T14:24:38.674Z</time>
      </trkpt>
      <trkpt lat="45.58676" lon="5.33604">
        <ele>306</ele>
        <time>2021-04-03T14:24:39.673Z</time>
      </trkpt>
      <trkpt lat="45.58671" lon="5.33594">
        <ele>306</ele>
        <time>2021-04-03T14:24:40.673Z</time>
      </trkpt>
      <trkpt lat="45.58667" lon="5.33585">
        <ele>306</ele>
        <time>2021-04-03T14:24:41.673Z</time>
      </trkpt>
      <trkpt lat="45.58663" lon="5.33575">
        <ele>305</ele>
        <time>2021-04-03T14:24:42.673Z</time>
      </trkpt>
      <trkpt lat="45.58658" lon="5.33565">
        <ele>305</ele>
        <time>2021-04-03T14:24:43.673Z</time>
      </trkpt>
      <trkpt lat="45.58654" lon="5.33556">
        <ele>305</ele>
        <time>2021-04-03T14:24:44.674Z</time>
      </trkpt>
      <trkpt lat="45.58649" lon="5.33546">
        <ele>305</ele>
        <time>2021-04-03T14:24:45.674Z</time>
      </trkpt>
      <trkpt lat="45.58644" lon="5.33536">
        <ele>304</ele>
        <time>2021-04-03T14:24:46.674Z</time>
      </trkpt>
      <trkpt lat="45.5864" lon="5.33526">
        <ele>304</ele>
        <time>2021-04-03T14:24:47.673Z</time>
      </trkpt>
      <trkpt lat="45.58635" lon="5.33516">
        <ele>303</ele>
        <time>2021-04-03T14:24:48.674Z</time>
      </trkpt>
      <trkpt lat="45.58631" lon="5.33506">
        <ele>303</ele>
        <time>2021-04-03T14:24:49.674Z</time>
      </trkpt>
      <trkpt lat="45.58626" lon="5.33496">
        <ele>303</ele>
        <time>2021-04-03T14:24:50.674Z</time>
      </trkpt>
      <trkpt lat="45.58622" lon="5.33486">
        <ele>303</ele>
        <time>2021-04-03T14:24:51.674Z</time>
      </trkpt>
      <trkpt lat="45.58617" lon="5.33476">
        <ele>303</ele>
        <time>2021-04-03T14:24:52.674Z</time>
      </trkpt>
      <trkpt lat="45.58613" lon="5.33466">
        <ele>303</ele>
        <time>2021-04-03T14:24:53.674Z</time>
      </trkpt>
      <trkpt lat="45.58608" lon="5.33456">
        <ele>303</ele>
        <time>2021-04-03T14:24:54.674Z</time>
      </trkpt>
      <trkpt lat="45.58603" lon="5.33446">
        <ele>302</ele>
        <time>2021-04-03T14:24:55.674Z</time>
      </trkpt>
      <trkpt lat="45.58599" lon="5.33436">
        <ele>302</ele>
        <time>2021-04-03T14:24:56.674Z</time>
      </trkpt>
      <trkpt lat="45.58594" lon="5.33426">
        <ele>302</ele>
        <time>2021-04-03T14:24:57.674Z</time>
      </trkpt>
      <trkpt lat="45.58589" lon="5.33416">
        <ele>302</ele>
        <time>2021-04-03T14:24:58.674Z</time>
      </trkpt>
      <trkpt lat="45.58584" lon="5.33405">
        <ele>302</ele>
        <time>2021-04-03T14:24:59.674Z</time>
      </trkpt>
      <trkpt lat="45.5858" lon="5.33395">
        <ele>302</ele>
        <time>2021-04-03T14:25:00.674Z</time>
      </trkpt>
      <trkpt lat="45.58575" lon="5.33385">
        <ele>302</ele>
        <time>2021-04-03T14:25:01.674Z</time>
      </trkpt>
      <trkpt lat="45.5857" lon="5.33375">
        <ele>302</ele>
        <time>2021-04-03T14:25:02.674Z</time>
      </trkpt>
      <trkpt lat="45.58566" lon="5.33365">
        <ele>302</ele>
        <time>2021-04-03T14:25:03.674Z</time>
      </trkpt>
      <trkpt lat="45.58561" lon="5.33354">
        <ele>302</ele>
        <time>2021-04-03T14:25:04.673Z</time>
      </trkpt>
      <trkpt lat="45.58556" lon="5.33344">
        <ele>301</ele>
        <time>2021-04-03T14:25:05.674Z</time>
      </trkpt>
      <trkpt lat="45.58552" lon="5.33334">
        <ele>301</ele>
        <time>2021-04-03T14:25:06.673Z</time>
      </trkpt>
      <trkpt lat="45.58548" lon="5.33323">
        <ele>300</ele>
        <time>2021-04-03T14:25:07.674Z</time>
      </trkpt>
      <trkpt lat="45.58543" lon="5.33312">
        <ele>299</ele>
        <time>2021-04-03T14:25:08.674Z</time>
      </trkpt>
      <trkpt lat="45.58539" lon="5.33302">
        <ele>299</ele>
        <time>2021-04-03T14:25:09.674Z</time>
      </trkpt>
      <trkpt lat="45.58534" lon="5.33291">
        <ele>298</ele>
        <time>2021-04-03T14:25:10.674Z</time>
      </trkpt>
      <trkpt lat="45.58528" lon="5.33281">
        <ele>298</ele>
        <time>2021-04-03T14:25:11.674Z</time>
      </trkpt>
      <trkpt lat="45.58523" lon="5.33271">
        <ele>298</ele>
        <time>2021-04-03T14:25:12.674Z</time>
      </trkpt>
      <trkpt lat="45.58518" lon="5.33261">
        <ele>298</ele>
        <time>2021-04-03T14:25:13.673Z</time>
      </trkpt>
      <trkpt lat="45.58513" lon="5.33251">
        <ele>297</ele>
        <time>2021-04-03T14:25:14.674Z</time>
      </trkpt>
      <trkpt lat="45.58507" lon="5.33241">
        <ele>297</ele>
        <time>2021-04-03T14:25:15.673Z</time>
      </trkpt>
      <trkpt lat="45.58502" lon="5.33231">
        <ele>296</ele>
        <time>2021-04-03T14:25:16.673Z</time>
      </trkpt>
      <trkpt lat="45.58497" lon="5.33221">
        <ele>296</ele>
        <time>2021-04-03T14:25:17.674Z</time>
      </trkpt>
      <trkpt lat="45.58492" lon="5.3321">
        <ele>295</ele>
        <time>2021-04-03T14:25:18.673Z</time>
      </trkpt>
      <trkpt lat="45.58487" lon="5.332">
        <ele>294</ele>
        <time>2021-04-03T14:25:19.674Z</time>
      </trkpt>
      <trkpt lat="45.58482" lon="5.3319">
        <ele>293</ele>
        <time>2021-04-03T14:25:20.674Z</time>
      </trkpt>
      <trkpt lat="45.58478" lon="5.33179">
        <ele>293</ele>
        <time>2021-04-03T14:25:21.674Z</time>
      </trkpt>
      <trkpt lat="45.58474" lon="5.33168">
        <ele>292</ele>
        <time>2021-04-03T14:25:22.673Z</time>
      </trkpt>
      <trkpt lat="45.58471" lon="5.33156">
        <ele>292</ele>
        <time>2021-04-03T14:25:23.673Z</time>
      </trkpt>
      <trkpt lat="45.58468" lon="5.33144">
        <ele>292</ele>
        <time>2021-04-03T14:25:24.674Z</time>
      </trkpt>
      <trkpt lat="45.58465" lon="5.33133">
        <ele>292</ele>
        <time>2021-04-03T14:25:25.674Z</time>
      </trkpt>
      <trkpt lat="45.5846" lon="5.33122">
        <ele>292</ele>
        <time>2021-04-03T14:25:26.673Z</time>
      </trkpt>
      <trkpt lat="45.58454" lon="5.33113">
        <ele>292</ele>
        <time>2021-04-03T14:25:27.674Z</time>
      </trkpt>
      <trkpt lat="45.58447" lon="5.33104">
        <ele>292</ele>
        <time>2021-04-03T14:25:28.674Z</time>
      </trkpt>
      <trkpt lat="45.58441" lon="5.33094">
        <ele>292</ele>
        <time>2021-04-03T14:25:29.674Z</time>
      </trkpt>
      <trkpt lat="45.58436" lon="5.33083">
        <ele>292</ele>
        <time>2021-04-03T14:25:30.674Z</time>
      </trkpt>
      <trkpt lat="45.58431" lon="5.33071">
        <ele>291</ele>
        <time>2021-04-03T14:25:31.674Z</time>
      </trkpt>
      <trkpt lat="45.58427" lon="5.3306">
        <ele>291</ele>
        <time>2021-04-03T14:25:32.674Z</time>
      </trkpt>
      <trkpt lat="45.58423" lon="5.33048">
        <ele>290</ele>
        <time>2021-04-03T14:25:33.673Z</time>
      </trkpt>
      <trkpt lat="45.58419" lon="5.33036">
        <ele>289</ele>
        <time>2021-04-03T14:25:34.674Z</time>
      </trkpt>
      <trkpt lat="45.58415" lon="5.33025">
        <ele>289</ele>
        <time>2021-04-03T14:25:35.674Z</time>
      </trkpt>
      <trkpt lat="45.58412" lon="5.33013">
        <ele>289</ele>
        <time>2021-04-03T14:25:36.674Z</time>
      </trkpt>
      <trkpt lat="45.58409" lon="5.33002">
        <ele>288</ele>
        <time>2021-04-03T14:25:37.673Z</time>
      </trkpt>
      <trkpt lat="45.58406" lon="5.3299">
        <ele>288</ele>
        <time>2021-04-03T14:25:38.674Z</time>
      </trkpt>
      <trkpt lat="45.58403" lon="5.32979">
        <ele>288</ele>
        <time>2021-04-03T14:25:39.674Z</time>
      </trkpt>
      <trkpt lat="45.58401" lon="5.32967">
        <ele>288</ele>
        <time>2021-04-03T14:25:40.674Z</time>
      </trkpt>
      <trkpt lat="45.58399" lon="5.32955">
        <ele>288</ele>
        <time>2021-04-03T14:25:41.674Z</time>
      </trkpt>
      <trkpt lat="45.58397" lon="5.32943">
        <ele>288</ele>
        <time>2021-04-03T14:25:42.674Z</time>
      </trkpt>
      <trkpt lat="45.58395" lon="5.32932">
        <ele>289</ele>
        <time>2021-04-03T14:25:43.673Z</time>
      </trkpt>
      <trkpt lat="45.58393" lon="5.3292">
        <ele>289</ele>
        <time>2021-04-03T14:25:44.674Z</time>
      </trkpt>
      <trkpt lat="45.58392" lon="5.32909">
        <ele>289</ele>
        <time>2021-04-03T14:25:45.674Z</time>
      </trkpt>
      <trkpt lat="45.5839" lon="5.32897">
        <ele>289</ele>
        <time>2021-04-03T14:25:46.673Z</time>
      </trkpt>
      <trkpt lat="45.58389" lon="5.32886">
        <ele>289</ele>
        <time>2021-04-03T14:25:47.673Z</time>
      </trkpt>
      <trkpt lat="45.58388" lon="5.32875">
        <ele>289</ele>
        <time>2021-04-03T14:25:48.674Z</time>
      </trkpt>
      <trkpt lat="45.58387" lon="5.32864">
        <ele>289</ele>
        <time>2021-04-03T14:25:49.674Z</time>
      </trkpt>
      <trkpt lat="45.58386" lon="5.32854">
        <ele>288</ele>
        <time>2021-04-03T14:25:50.674Z</time>
      </trkpt>
      <trkpt lat="45.58386" lon="5.32843">
        <ele>288</ele>
        <time>2021-04-03T14:25:51.674Z</time>
      </trkpt>
      <trkpt lat="45.58386" lon="5.32832">
        <ele>288</ele>
        <time>2021-04-03T14:25:52.674Z</time>
      </trkpt>
      <trkpt lat="45.58386" lon="5.32821">
        <ele>288</ele>
        <time>2021-04-03T14:25:53.674Z</time>
      </trkpt>
      <trkpt lat="45.58385" lon="5.3281">
        <ele>287</ele>
        <time>2021-04-03T14:25:54.674Z</time>
      </trkpt>
      <trkpt lat="45.58385" lon="5.32799">
        <ele>287</ele>
        <time>2021-04-03T14:25:55.674Z</time>
      </trkpt>
      <trkpt lat="45.58385" lon="5.32787">
        <ele>287</ele>
        <time>2021-04-03T14:25:56.673Z</time>
      </trkpt>
      <trkpt lat="45.58386" lon="5.32776">
        <ele>286</ele>
        <time>2021-04-03T14:25:57.674Z</time>
      </trkpt>
      <trkpt lat="45.58386" lon="5.32765">
        <ele>286</ele>
        <time>2021-04-03T14:25:58.674Z</time>
      </trkpt>
      <trkpt lat="45.58386" lon="5.32753">
        <ele>286</ele>
        <time>2021-04-03T14:25:59.674Z</time>
      </trkpt>
      <trkpt lat="45.58387" lon="5.32742">
        <ele>285</ele>
        <time>2021-04-03T14:26:00.673Z</time>
      </trkpt>
      <trkpt lat="45.58387" lon="5.32731">
        <ele>285</ele>
        <time>2021-04-03T14:26:01.674Z</time>
      </trkpt>
      <trkpt lat="45.58387" lon="5.32719">
        <ele>285</ele>
        <time>2021-04-03T14:26:02.674Z</time>
      </trkpt>
      <trkpt lat="45.58388" lon="5.32708">
        <ele>285</ele>
        <time>2021-04-03T14:26:03.674Z</time>
      </trkpt>
      <trkpt lat="45.58388" lon="5.32698">
        <ele>285</ele>
        <time>2021-04-03T14:26:04.673Z</time>
      </trkpt>
      <trkpt lat="45.58388" lon="5.32688">
        <ele>285</ele>
        <time>2021-04-03T14:26:05.673Z</time>
      </trkpt>
      <trkpt lat="45.58389" lon="5.32679">
        <ele>285</ele>
        <time>2021-04-03T14:26:06.673Z</time>
      </trkpt>
      <trkpt lat="45.58389" lon="5.3267">
        <ele>285</ele>
        <time>2021-04-03T14:26:07.674Z</time>
      </trkpt>
      <trkpt lat="45.5839" lon="5.32663">
        <ele>285</ele>
        <time>2021-04-03T14:26:08.674Z</time>
      </trkpt>
      <trkpt lat="45.5839" lon="5.32656">
        <ele>284</ele>
        <time>2021-04-03T14:26:09.673Z</time>
      </trkpt>
      <trkpt lat="45.5839" lon="5.32651">
        <ele>284</ele>
        <time>2021-04-03T14:26:10.673Z</time>
      </trkpt>
      <trkpt lat="45.58391" lon="5.32647">
        <ele>284</ele>
        <time>2021-04-03T14:26:11.674Z</time>
      </trkpt>
      <trkpt lat="45.58392" lon="5.32643">
        <ele>284</ele>
        <time>2021-04-03T14:26:12.673Z</time>
      </trkpt>
      <trkpt lat="45.58393" lon="5.32641">
        <ele>284</ele>
        <time>2021-04-03T14:26:13.674Z</time>
      </trkpt>
      <trkpt lat="45.58394" lon="5.3264">
        <ele>284</ele>
        <time>2021-04-03T14:26:14.674Z</time>
      </trkpt>
      <trkpt lat="45.58394" lon="5.3264">
        <ele>284</ele>
        <time>2021-04-03T14:26:15.674Z</time>
      </trkpt>
      <trkpt lat="45.58394" lon="5.3264">
        <ele>283</ele>
        <time>2021-04-03T14:26:16.674Z</time>
      </trkpt>
      <trkpt lat="45.58394" lon="5.32641">
        <ele>283</ele>
        <time>2021-04-03T14:26:17.674Z</time>
      </trkpt>
      <trkpt lat="45.58396" lon="5.32641">
        <ele>279</ele>
        <time>2021-04-03T14:26:18.673Z</time>
      </trkpt>
      <trkpt lat="45.58398" lon="5.32638">
        <ele>279</ele>
        <time>2021-04-03T14:26:19.674Z</time>
      </trkpt>
      <trkpt lat="45.584" lon="5.32636">
        <ele>279</ele>
        <time>2021-04-03T14:26:20.673Z</time>
      </trkpt>
      <trkpt lat="45.58402" lon="5.32633">
        <ele>278</ele>
        <time>2021-04-03T14:26:21.674Z</time>
      </trkpt>
      <trkpt lat="45.58404" lon="5.3263">
        <ele>278</ele>
        <time>2021-04-03T14:26:22.674Z</time>
      </trkpt>
      <trkpt lat="45.58405" lon="5.32627">
        <ele>277</ele>
        <time>2021-04-03T14:26:23.673Z</time>
      </trkpt>
      <trkpt lat="45.58408" lon="5.32624">
        <ele>277</ele>
        <time>2021-04-03T14:26:24.674Z</time>
      </trkpt>
      <trkpt lat="45.5841" lon="5.3262">
        <ele>277</ele>
        <time>2021-04-03T14:26:25.674Z</time>
      </trkpt>
      <trkpt lat="45.58412" lon="5.32617">
        <ele>276</ele>
        <time>2021-04-03T14:26:26.674Z</time>
      </trkpt>
      <trkpt lat="45.58415" lon="5.32613">
        <ele>276</ele>
        <time>2021-04-03T14:26:27.673Z</time>
      </trkpt>
      <trkpt lat="45.58418" lon="5.32609">
        <ele>276</ele>
        <time>2021-04-03T14:26:28.674Z</time>
      </trkpt>
      <trkpt lat="45.58421" lon="5.32605">
        <ele>276</ele>
        <time>2021-04-03T14:26:29.674Z</time>
      </trkpt>
      <trkpt lat="45.58424" lon="5.32601">
        <ele>276</ele>
        <time>2021-04-03T14:26:30.673Z</time>
      </trkpt>
      <trkpt lat="45.58426" lon="5.32597">
        <ele>276</ele>
        <time>2021-04-03T14:26:31.674Z</time>
      </trkpt>
      <trkpt lat="45.58429" lon="5.32593">
        <ele>276</ele>
        <time>2021-04-03T14:26:32.673Z</time>
      </trkpt>
      <trkpt lat="45.58432" lon="5.32589">
        <ele>276</ele>
        <time>2021-04-03T14:26:33.674Z</time>
      </trkpt>
      <trkpt lat="45.58435" lon="5.32585">
        <ele>277</ele>
        <time>2021-04-03T14:26:34.673Z</time>
      </trkpt>
      <trkpt lat="45.58438" lon="5.32581">
        <ele>277</ele>
        <time>2021-04-03T14:26:35.674Z</time>
      </trkpt>
      <trkpt lat="45.58441" lon="5.32577">
        <ele>277</ele>
        <time>2021-04-03T14:26:36.673Z</time>
      </trkpt>
      <trkpt lat="45.58445" lon="5.32573">
        <ele>277</ele>
        <time>2021-04-03T14:26:37.674Z</time>
      </trkpt>
      <trkpt lat="45.58448" lon="5.32568">
        <ele>277</ele>
        <time>2021-04-03T14:26:38.673Z</time>
      </trkpt>
      <trkpt lat="45.58451" lon="5.32564">
        <ele>278</ele>
        <time>2021-04-03T14:26:39.674Z</time>
      </trkpt>
      <trkpt lat="45.58454" lon="5.3256">
        <ele>278</ele>
        <time>2021-04-03T14:26:40.674Z</time>
      </trkpt>
      <trkpt lat="45.58457" lon="5.32556">
        <ele>278</ele>
        <time>2021-04-03T14:26:41.673Z</time>
      </trkpt>
      <trkpt lat="45.5846" lon="5.32551">
        <ele>278</ele>
        <time>2021-04-03T14:26:42.674Z</time>
      </trkpt>
      <trkpt lat="45.58464" lon="5.32547">
        <ele>278</ele>
        <time>2021-04-03T14:26:43.674Z</time>
      </trkpt>
      <trkpt lat="45.58468" lon="5.32542">
        <ele>278</ele>
        <time>2021-04-03T14:26:44.674Z</time>
      </trkpt>
      <trkpt lat="45.58471" lon="5.32537">
        <ele>277</ele>
        <time>2021-04-03T14:26:45.673Z</time>
      </trkpt>
      <trkpt lat="45.58475" lon="5.32532">
        <ele>277</ele>
        <time>2021-04-03T14:26:46.674Z</time>
      </trkpt>
      <trkpt lat="45.58478" lon="5.32527">
        <ele>277</ele>
        <time>2021-04-03T14:26:47.674Z</time>
      </trkpt>
      <trkpt lat="45.58482" lon="5.32521">
        <ele>277</ele>
        <time>2021-04-03T14:26:48.674Z</time>
      </trkpt>
      <trkpt lat="45.58485" lon="5.32515">
        <ele>276</ele>
        <time>2021-04-03T14:26:49.673Z</time>
      </trkpt>
      <trkpt lat="45.58488" lon="5.3251">
        <ele>276</ele>
        <time>2021-04-03T14:26:50.674Z</time>
      </trkpt>
      <trkpt lat="45.58492" lon="5.32505">
        <ele>276</ele>
        <time>2021-04-03T14:26:51.673Z</time>
      </trkpt>
      <trkpt lat="45.58495" lon="5.32499">
        <ele>275</ele>
        <time>2021-04-03T14:26:52.673Z</time>
      </trkpt>
      <trkpt lat="45.58498" lon="5.32492">
        <ele>274</ele>
        <time>2021-04-03T14:26:53.674Z</time>
      </trkpt>
      <trkpt lat="45.58502" lon="5.32486">
        <ele>274</ele>
        <time>2021-04-03T14:26:54.674Z</time>
      </trkpt>
      <trkpt lat="45.58505" lon="5.3248">
        <ele>274</ele>
        <time>2021-04-03T14:26:55.673Z</time>
      </trkpt>
      <trkpt lat="45.58508" lon="5.32473">
        <ele>274</ele>
        <time>2021-04-03T14:26:56.673Z</time>
      </trkpt>
      <trkpt lat="45.58511" lon="5.32467">
        <ele>274</ele>
        <time>2021-04-03T14:26:57.674Z</time>
      </trkpt>
      <trkpt lat="45.58515" lon="5.3246">
        <ele>274</ele>
        <time>2021-04-03T14:26:58.674Z</time>
      </trkpt>
      <trkpt lat="45.58518" lon="5.32453">
        <ele>274</ele>
        <time>2021-04-03T14:26:59.673Z</time>
      </trkpt>
      <trkpt lat="45.58522" lon="5.32446">
        <ele>274</ele>
        <time>2021-04-03T14:27:00.673Z</time>
      </trkpt>
      <trkpt lat="45.58525" lon="5.32439">
        <ele>274</ele>
        <time>2021-04-03T14:27:01.673Z</time>
      </trkpt>
      <trkpt lat="45.58528" lon="5.32432">
        <ele>274</ele>
        <time>2021-04-03T14:27:02.673Z</time>
      </trkpt>
      <trkpt lat="45.5853" lon="5.32425">
        <ele>274</ele>
        <time>2021-04-03T14:27:03.674Z</time>
      </trkpt>
      <trkpt lat="45.58533" lon="5.32417">
        <ele>274</ele>
        <time>2021-04-03T14:27:04.673Z</time>
      </trkpt>
      <trkpt lat="45.58536" lon="5.3241">
        <ele>274</ele>
        <time>2021-04-03T14:27:05.674Z</time>
      </trkpt>
      <trkpt lat="45.58539" lon="5.32403">
        <ele>275</ele>
        <time>2021-04-03T14:27:06.673Z</time>
      </trkpt>
      <trkpt lat="45.58541" lon="5.32395">
        <ele>275</ele>
        <time>2021-04-03T14:27:07.674Z</time>
      </trkpt>
      <trkpt lat="45.58544" lon="5.32387">
        <ele>275</ele>
        <time>2021-04-03T14:27:08.673Z</time>
      </trkpt>
      <trkpt lat="45.58547" lon="5.3238">
        <ele>274</ele>
        <time>2021-04-03T14:27:09.674Z</time>
      </trkpt>
      <trkpt lat="45.5855" lon="5.32373">
        <ele>274</ele>
        <time>2021-04-03T14:27:10.674Z</time>
      </trkpt>
      <trkpt lat="45.58553" lon="5.32365">
        <ele>274</ele>
        <time>2021-04-03T14:27:11.674Z</time>
      </trkpt>
      <trkpt lat="45.58555" lon="5.32358">
        <ele>274</ele>
        <time>2021-04-03T14:27:12.674Z</time>
      </trkpt>
      <trkpt lat="45.58558" lon="5.3235">
        <ele>273</ele>
        <time>2021-04-03T14:27:13.674Z</time>
      </trkpt>
      <trkpt lat="45.58561" lon="5.32342">
        <ele>272</ele>
        <time>2021-04-03T14:27:14.674Z</time>
      </trkpt>
      <trkpt lat="45.58564" lon="5.32334">
        <ele>272</ele>
        <time>2021-04-03T14:27:15.674Z</time>
      </trkpt>
      <trkpt lat="45.58567" lon="5.32326">
        <ele>271</ele>
        <time>2021-04-03T14:27:16.673Z</time>
      </trkpt>
      <trkpt lat="45.5857" lon="5.32319">
        <ele>271</ele>
        <time>2021-04-03T14:27:17.674Z</time>
      </trkpt>
      <trkpt lat="45.58574" lon="5.32311">
        <ele>271</ele>
        <time>2021-04-03T14:27:18.674Z</time>
      </trkpt>
      <trkpt lat="45.58577" lon="5.32304">
        <ele>271</ele>
        <time>2021-04-03T14:27:19.674Z</time>
      </trkpt>
      <trkpt lat="45.58581" lon="5.32297">
        <ele>271</ele>
        <time>2021-04-03T14:27:20.674Z</time>
      </trkpt>
      <trkpt lat="45.58585" lon="5.3229">
        <ele>271</ele>
        <time>2021-04-03T14:27:21.674Z</time>
      </trkpt>
      <trkpt lat="45.58589" lon="5.32283">
        <ele>270</ele>
        <time>2021-04-03T14:27:22.673Z</time>
      </trkpt>
      <trkpt lat="45.58593" lon="5.32276">
        <ele>270</ele>
        <time>2021-04-03T14:27:23.674Z</time>
      </trkpt>
      <trkpt lat="45.58597" lon="5.3227">
        <ele>269</ele>
        <time>2021-04-03T14:27:24.673Z</time>
      </trkpt>
      <trkpt lat="45.58602" lon="5.32264">
        <ele>269</ele>
        <time>2021-04-03T14:27:25.674Z</time>
      </trkpt>
      <trkpt lat="45.58606" lon="5.32257">
        <ele>270</ele>
        <time>2021-04-03T14:27:26.674Z</time>
      </trkpt>
      <trkpt lat="45.58611" lon="5.3225">
        <ele>270</ele>
        <time>2021-04-03T14:27:27.674Z</time>
      </trkpt>
      <trkpt lat="45.58616" lon="5.32244">
        <ele>270</ele>
        <time>2021-04-03T14:27:28.674Z</time>
      </trkpt>
      <trkpt lat="45.5862" lon="5.32237">
        <ele>270</ele>
        <time>2021-04-03T14:27:29.673Z</time>
      </trkpt>
      <trkpt lat="45.58625" lon="5.3223">
        <ele>270</ele>
        <time>2021-04-03T14:27:30.674Z</time>
      </trkpt>
      <trkpt lat="45.5863" lon="5.32223">
        <ele>270</ele>
        <time>2021-04-03T14:27:31.673Z</time>
      </trkpt>
      <trkpt lat="45.58635" lon="5.32217">
        <ele>270</ele>
        <time>2021-04-03T14:27:32.674Z</time>
      </trkpt>
      <trkpt lat="45.58639" lon="5.3221">
        <ele>270</ele>
        <time>2021-04-03T14:27:33.674Z</time>
      </trkpt>
      <trkpt lat="45.58644" lon="5.32204">
        <ele>269</ele>
        <time>2021-04-03T14:27:34.674Z</time>
      </trkpt>
      <trkpt lat="45.58649" lon="5.32197">
        <ele>269</ele>
        <time>2021-04-03T14:27:35.673Z</time>
      </trkpt>
      <trkpt lat="45.58653" lon="5.32191">
        <ele>269</ele>
        <time>2021-04-03T14:27:36.674Z</time>
      </trkpt>
      <trkpt lat="45.58658" lon="5.32184">
        <ele>268</ele>
        <time>2021-04-03T14:27:37.673Z</time>
      </trkpt>
      <trkpt lat="45.58662" lon="5.32177">
        <ele>267</ele>
        <time>2021-04-03T14:27:38.674Z</time>
      </trkpt>
      <trkpt lat="45.58667" lon="5.32171">
        <ele>267</ele>
        <time>2021-04-03T14:27:39.674Z</time>
      </trkpt>
      <trkpt lat="45.58671" lon="5.32164">
        <ele>266</ele>
        <time>2021-04-03T14:27:40.674Z</time>
      </trkpt>
      <trkpt lat="45.58675" lon="5.32157">
        <ele>266</ele>
        <time>2021-04-03T14:27:41.674Z</time>
      </trkpt>
      <trkpt lat="45.58679" lon="5.3215">
        <ele>266</ele>
        <time>2021-04-03T14:27:42.674Z</time>
      </trkpt>
      <trkpt lat="45.58682" lon="5.32142">
        <ele>266</ele>
        <time>2021-04-03T14:27:43.674Z</time>
      </trkpt>
      <trkpt lat="45.58686" lon="5.32135">
        <ele>266</ele>
        <time>2021-04-03T14:27:44.673Z</time>
      </trkpt>
      <trkpt lat="45.58689" lon="5.32128">
        <ele>266</ele>
        <time>2021-04-03T14:27:45.673Z</time>
      </trkpt>
      <trkpt lat="45.58692" lon="5.32122">
        <ele>266</ele>
        <time>2021-04-03T14:27:46.673Z</time>
      </trkpt>
      <trkpt lat="45.58695" lon="5.32115">
        <ele>265</ele>
        <time>2021-04-03T14:27:47.673Z</time>
      </trkpt>
      <trkpt lat="45.58698" lon="5.32108">
        <ele>265</ele>
        <time>2021-04-03T14:27:48.674Z</time>
      </trkpt>
      <trkpt lat="45.58701" lon="5.32101">
        <ele>265</ele>
        <time>2021-04-03T14:27:49.674Z</time>
      </trkpt>
      <trkpt lat="45.58704" lon="5.32094">
        <ele>265</ele>
        <time>2021-04-03T14:27:50.674Z</time>
      </trkpt>
      <trkpt lat="45.58707" lon="5.32087">
        <ele>265</ele>
        <time>2021-04-03T14:27:51.674Z</time>
      </trkpt>
      <trkpt lat="45.5871" lon="5.3208">
        <ele>266</ele>
        <time>2021-04-03T14:27:52.674Z</time>
      </trkpt>
      <trkpt lat="45.58713" lon="5.32072">
        <ele>266</ele>
        <time>2021-04-03T14:27:53.674Z</time>
      </trkpt>
      <trkpt lat="45.58716" lon="5.32065">
        <ele>266</ele>
        <time>2021-04-03T14:27:54.674Z</time>
      </trkpt>
      <trkpt lat="45.58719" lon="5.32058">
        <ele>266</ele>
        <time>2021-04-03T14:27:55.674Z</time>
      </trkpt>
      <trkpt lat="45.58722" lon="5.32051">
        <ele>266</ele>
        <time>2021-04-03T14:27:56.674Z</time>
      </trkpt>
      <trkpt lat="45.58724" lon="5.32045">
        <ele>266</ele>
        <time>2021-04-03T14:27:57.674Z</time>
      </trkpt>
      <trkpt lat="45.58726" lon="5.32038">
        <ele>266</ele>
        <time>2021-04-03T14:27:58.674Z</time>
      </trkpt>
      <trkpt lat="45.58729" lon="5.32031">
        <ele>266</ele>
        <time>2021-04-03T14:27:59.673Z</time>
      </trkpt>
      <trkpt lat="45.5873" lon="5.32024">
        <ele>267</ele>
        <time>2021-04-03T14:28:00.674Z</time>
      </trkpt>
      <trkpt lat="45.58732" lon="5.32018">
        <ele>267</ele>
        <time>2021-04-03T14:28:01.674Z</time>
      </trkpt>
      <trkpt lat="45.58734" lon="5.3201">
        <ele>267</ele>
        <time>2021-04-03T14:28:02.673Z</time>
      </trkpt>
      <trkpt lat="45.58735" lon="5.32003">
        <ele>267</ele>
        <time>2021-04-03T14:28:03.674Z</time>
      </trkpt>
      <trkpt lat="45.58736" lon="5.31995">
        <ele>267</ele>
        <time>2021-04-03T14:28:04.673Z</time>
      </trkpt>
      <trkpt lat="45.58738" lon="5.31987">
        <ele>267</ele>
        <time>2021-04-03T14:28:05.674Z</time>
      </trkpt>
      <trkpt lat="45.58739" lon="5.3198">
        <ele>267</ele>
        <time>2021-04-03T14:28:06.673Z</time>
      </trkpt>
      <trkpt lat="45.58741" lon="5.31972">
        <ele>268</ele>
        <time>2021-04-03T14:28:07.674Z</time>
      </trkpt>
      <trkpt lat="45.58743" lon="5.31965">
        <ele>268</ele>
        <time>2021-04-03T14:28:08.673Z</time>
      </trkpt>
      <trkpt lat="45.58745" lon="5.31957">
        <ele>268</ele>
        <time>2021-04-03T14:28:09.674Z</time>
      </trkpt>
      <trkpt lat="45.58748" lon="5.31949">
        <ele>268</ele>
        <time>2021-04-03T14:28:10.674Z</time>
      </trkpt>
      <trkpt lat="45.5875" lon="5.31942">
        <ele>268</ele>
        <time>2021-04-03T14:28:11.674Z</time>
      </trkpt>
      <trkpt lat="45.58752" lon="5.31934">
        <ele>268</ele>
        <time>2021-04-03T14:28:12.674Z</time>
      </trkpt>
      <trkpt lat="45.58755" lon="5.31927">
        <ele>268</ele>
        <time>2021-04-03T14:28:13.674Z</time>
      </trkpt>
      <trkpt lat="45.58757" lon="5.31919">
        <ele>268</ele>
        <time>2021-04-03T14:28:14.674Z</time>
      </trkpt>
      <trkpt lat="45.58759" lon="5.31912">
        <ele>268</ele>
        <time>2021-04-03T14:28:15.674Z</time>
      </trkpt>
      <trkpt lat="45.58762" lon="5.31905">
        <ele>268</ele>
        <time>2021-04-03T14:28:16.673Z</time>
      </trkpt>
      <trkpt lat="45.58764" lon="5.31898">
        <ele>268</ele>
        <time>2021-04-03T14:28:17.674Z</time>
      </trkpt>
      <trkpt lat="45.58766" lon="5.3189">
        <ele>268</ele>
        <time>2021-04-03T14:28:18.674Z</time>
      </trkpt>
      <trkpt lat="45.58769" lon="5.31882">
        <ele>268</ele>
        <time>2021-04-03T14:28:19.674Z</time>
      </trkpt>
      <trkpt lat="45.58771" lon="5.31875">
        <ele>267</ele>
        <time>2021-04-03T14:28:20.673Z</time>
      </trkpt>
      <trkpt lat="45.58774" lon="5.31868">
        <ele>267</ele>
        <time>2021-04-03T14:28:21.674Z</time>
      </trkpt>
      <trkpt lat="45.58776" lon="5.3186">
        <ele>267</ele>
        <time>2021-04-03T14:28:22.674Z</time>
      </trkpt>
      <trkpt lat="45.58778" lon="5.31852">
        <ele>266</ele>
        <time>2021-04-03T14:28:23.673Z</time>
      </trkpt>
      <trkpt lat="45.58781" lon="5.31845">
        <ele>266</ele>
        <time>2021-04-03T14:28:24.674Z</time>
      </trkpt>
      <trkpt lat="45.58783" lon="5.31838">
        <ele>266</ele>
        <time>2021-04-03T14:28:25.674Z</time>
      </trkpt>
      <trkpt lat="45.58785" lon="5.31831">
        <ele>266</ele>
        <time>2021-04-03T14:28:26.674Z</time>
      </trkpt>
      <trkpt lat="45.58788" lon="5.31824">
        <ele>266</ele>
        <time>2021-04-03T14:28:27.674Z</time>
      </trkpt>
      <trkpt lat="45.5879" lon="5.31816">
        <ele>266</ele>
        <time>2021-04-03T14:28:28.674Z</time>
      </trkpt>
      <trkpt lat="45.58792" lon="5.31809">
        <ele>266</ele>
        <time>2021-04-03T14:28:29.673Z</time>
      </trkpt>
      <trkpt lat="45.58794" lon="5.31802">
        <ele>266</ele>
        <time>2021-04-03T14:28:30.674Z</time>
      </trkpt>
      <trkpt lat="45.58796" lon="5.31795">
        <ele>266</ele>
        <time>2021-04-03T14:28:31.673Z</time>
      </trkpt>
      <trkpt lat="45.58799" lon="5.31789">
        <ele>265</ele>
        <time>2021-04-03T14:28:32.673Z</time>
      </trkpt>
      <trkpt lat="45.58801" lon="5.31783">
        <ele>265</ele>
        <time>2021-04-03T14:28:33.674Z</time>
      </trkpt>
      <trkpt lat="45.58804" lon="5.31778">
        <ele>265</ele>
        <time>2021-04-03T14:28:34.674Z</time>
      </trkpt>
      <trkpt lat="45.58806" lon="5.31773">
        <ele>265</ele>
        <time>2021-04-03T14:28:35.673Z</time>
      </trkpt>
      <trkpt lat="45.58808" lon="5.31768">
        <ele>265</ele>
        <time>2021-04-03T14:28:36.674Z</time>
      </trkpt>
      <trkpt lat="45.5881" lon="5.31762">
        <ele>265</ele>
        <time>2021-04-03T14:28:37.673Z</time>
      </trkpt>
      <trkpt lat="45.58813" lon="5.31756">
        <ele>264</ele>
        <time>2021-04-03T14:28:38.674Z</time>
      </trkpt>
      <trkpt lat="45.58815" lon="5.3175">
        <ele>264</ele>
        <time>2021-04-03T14:28:39.674Z</time>
      </trkpt>
      <trkpt lat="45.58817" lon="5.31744">
        <ele>264</ele>
        <time>2021-04-03T14:28:40.673Z</time>
      </trkpt>
      <trkpt lat="45.5882" lon="5.31737">
        <ele>265</ele>
        <time>2021-04-03T14:28:41.673Z</time>
      </trkpt>
      <trkpt lat="45.58822" lon="5.3173">
        <ele>265</ele>
        <time>2021-04-03T14:28:42.673Z</time>
      </trkpt>
      <trkpt lat="45.58823" lon="5.31723">
        <ele>265</ele>
        <time>2021-04-03T14:28:43.674Z</time>
      </trkpt>
      <trkpt lat="45.58824" lon="5.31716">
        <ele>265</ele>
        <time>2021-04-03T14:28:44.674Z</time>
      </trkpt>
      <trkpt lat="45.58826" lon="5.31709">
        <ele>266</ele>
        <time>2021-04-03T14:28:45.674Z</time>
      </trkpt>
      <trkpt lat="45.58827" lon="5.31702">
        <ele>266</ele>
        <time>2021-04-03T14:28:46.674Z</time>
      </trkpt>
      <trkpt lat="45.58829" lon="5.31695">
        <ele>267</ele>
        <time>2021-04-03T14:28:47.674Z</time>
      </trkpt>
      <trkpt lat="45.5883" lon="5.31688">
        <ele>267</ele>
        <time>2021-04-03T14:28:48.674Z</time>
      </trkpt>
      <trkpt lat="45.58831" lon="5.31681">
        <ele>267</ele>
        <time>2021-04-03T14:28:49.674Z</time>
      </trkpt>
      <trkpt lat="45.58831" lon="5.31674">
        <ele>267</ele>
        <time>2021-04-03T14:28:50.674Z</time>
      </trkpt>
      <trkpt lat="45.58832" lon="5.31667">
        <ele>267</ele>
        <time>2021-04-03T14:28:51.674Z</time>
      </trkpt>
      <trkpt lat="45.58832" lon="5.3166">
        <ele>267</ele>
        <time>2021-04-03T14:28:52.674Z</time>
      </trkpt>
      <trkpt lat="45.58832" lon="5.31652">
        <ele>266</ele>
        <time>2021-04-03T14:28:53.673Z</time>
      </trkpt>
      <trkpt lat="45.58832" lon="5.31644">
        <ele>266</ele>
        <time>2021-04-03T14:28:54.673Z</time>
      </trkpt>
      <trkpt lat="45.58833" lon="5.31636">
        <ele>265</ele>
        <time>2021-04-03T14:28:55.673Z</time>
      </trkpt>
      <trkpt lat="45.58833" lon="5.31626">
        <ele>265</ele>
        <time>2021-04-03T14:28:56.674Z</time>
      </trkpt>
      <trkpt lat="45.58834" lon="5.31618">
        <ele>265</ele>
        <time>2021-04-03T14:28:57.674Z</time>
      </trkpt>
      <trkpt lat="45.58835" lon="5.31609">
        <ele>265</ele>
        <time>2021-04-03T14:28:58.674Z</time>
      </trkpt>
      <trkpt lat="45.58836" lon="5.316">
        <ele>265</ele>
        <time>2021-04-03T14:28:59.674Z</time>
      </trkpt>
      <trkpt lat="45.58837" lon="5.31591">
        <ele>265</ele>
        <time>2021-04-03T14:29:00.673Z</time>
      </trkpt>
      <trkpt lat="45.58838" lon="5.31582">
        <ele>265</ele>
        <time>2021-04-03T14:29:01.674Z</time>
      </trkpt>
      <trkpt lat="45.58839" lon="5.31573">
        <ele>265</ele>
        <time>2021-04-03T14:29:02.674Z</time>
      </trkpt>
      <trkpt lat="45.58839" lon="5.31563">
        <ele>266</ele>
        <time>2021-04-03T14:29:03.674Z</time>
      </trkpt>
      <trkpt lat="45.5884" lon="5.31554">
        <ele>266</ele>
        <time>2021-04-03T14:29:04.673Z</time>
      </trkpt>
      <trkpt lat="45.58841" lon="5.31544">
        <ele>266</ele>
        <time>2021-04-03T14:29:05.674Z</time>
      </trkpt>
      <trkpt lat="45.58842" lon="5.31534">
        <ele>266</ele>
        <time>2021-04-03T14:29:06.674Z</time>
      </trkpt>
      <trkpt lat="45.58843" lon="5.31524">
        <ele>266</ele>
        <time>2021-04-03T14:29:07.674Z</time>
      </trkpt>
      <trkpt lat="45.58844" lon="5.31514">
        <ele>266</ele>
        <time>2021-04-03T14:29:08.674Z</time>
      </trkpt>
      <trkpt lat="45.58845" lon="5.31504">
        <ele>266</ele>
        <time>2021-04-03T14:29:09.674Z</time>
      </trkpt>
      <trkpt lat="45.58846" lon="5.31493">
        <ele>266</ele>
        <time>2021-04-03T14:29:10.674Z</time>
      </trkpt>
      <trkpt lat="45.58846" lon="5.31483">
        <ele>266</ele>
        <time>2021-04-03T14:29:11.674Z</time>
      </trkpt>
      <trkpt lat="45.58846" lon="5.31473">
        <ele>266</ele>
        <time>2021-04-03T14:29:12.673Z</time>
      </trkpt>
      <trkpt lat="45.58846" lon="5.31464">
        <ele>266</ele>
        <time>2021-04-03T14:29:13.674Z</time>
      </trkpt>
      <trkpt lat="45.58847" lon="5.31455">
        <ele>265</ele>
        <time>2021-04-03T14:29:14.673Z</time>
      </trkpt>
      <trkpt lat="45.58847" lon="5.31446">
        <ele>265</ele>
        <time>2021-04-03T14:29:15.674Z</time>
      </trkpt>
      <trkpt lat="45.58847" lon="5.31437">
        <ele>265</ele>
        <time>2021-04-03T14:29:16.673Z</time>
      </trkpt>
      <trkpt lat="45.58847" lon="5.31428">
        <ele>265</ele>
        <time>2021-04-03T14:29:17.674Z</time>
      </trkpt>
      <trkpt lat="45.58847" lon="5.31419">
        <ele>265</ele>
        <time>2021-04-03T14:29:18.674Z</time>
      </trkpt>
      <trkpt lat="45.58847" lon="5.31411">
        <ele>265</ele>
        <time>2021-04-03T14:29:19.673Z</time>
      </trkpt>
      <trkpt lat="45.58847" lon="5.31402">
        <ele>264</ele>
        <time>2021-04-03T14:29:20.673Z</time>
      </trkpt>
      <trkpt lat="45.58846" lon="5.31393">
        <ele>264</ele>
        <time>2021-04-03T14:29:21.674Z</time>
      </trkpt>
      <trkpt lat="45.58846" lon="5.31385">
        <ele>264</ele>
        <time>2021-04-03T14:29:22.673Z</time>
      </trkpt>
      <trkpt lat="45.58845" lon="5.31376">
        <ele>264</ele>
        <time>2021-04-03T14:29:23.674Z</time>
      </trkpt>
      <trkpt lat="45.58845" lon="5.31368">
        <ele>264</ele>
        <time>2021-04-03T14:29:24.673Z</time>
      </trkpt>
      <trkpt lat="45.58844" lon="5.31359">
        <ele>264</ele>
        <time>2021-04-03T14:29:25.674Z</time>
      </trkpt>
      <trkpt lat="45.58844" lon="5.3135">
        <ele>264</ele>
        <time>2021-04-03T14:29:26.673Z</time>
      </trkpt>
      <trkpt lat="45.58843" lon="5.3134">
        <ele>264</ele>
        <time>2021-04-03T14:29:27.674Z</time>
      </trkpt>
      <trkpt lat="45.58843" lon="5.31331">
        <ele>264</ele>
        <time>2021-04-03T14:29:28.673Z</time>
      </trkpt>
      <trkpt lat="45.58842" lon="5.31322">
        <ele>264</ele>
        <time>2021-04-03T14:29:29.673Z</time>
      </trkpt>
      <trkpt lat="45.58841" lon="5.31312">
        <ele>263</ele>
        <time>2021-04-03T14:29:30.673Z</time>
      </trkpt>
      <trkpt lat="45.58841" lon="5.31302">
        <ele>263</ele>
        <time>2021-04-03T14:29:31.674Z</time>
      </trkpt>
      <trkpt lat="45.5884" lon="5.31293">
        <ele>264</ele>
        <time>2021-04-03T14:29:32.674Z</time>
      </trkpt>
      <trkpt lat="45.58839" lon="5.31283">
        <ele>264</ele>
        <time>2021-04-03T14:29:33.674Z</time>
      </trkpt>
      <trkpt lat="45.58839" lon="5.31273">
        <ele>264</ele>
        <time>2021-04-03T14:29:34.674Z</time>
      </trkpt>
      <trkpt lat="45.58839" lon="5.31264">
        <ele>264</ele>
        <time>2021-04-03T14:29:35.674Z</time>
      </trkpt>
      <trkpt lat="45.58838" lon="5.31254">
        <ele>265</ele>
        <time>2021-04-03T14:29:36.673Z</time>
      </trkpt>
      <trkpt lat="45.58838" lon="5.31245">
        <ele>264</ele>
        <time>2021-04-03T14:29:37.674Z</time>
      </trkpt>
      <trkpt lat="45.58837" lon="5.31235">
        <ele>264</ele>
        <time>2021-04-03T14:29:38.674Z</time>
      </trkpt>
      <trkpt lat="45.58837" lon="5.31225">
        <ele>264</ele>
        <time>2021-04-03T14:29:39.673Z</time>
      </trkpt>
      <trkpt lat="45.58837" lon="5.31216">
        <ele>264</ele>
        <time>2021-04-03T14:29:40.674Z</time>
      </trkpt>
      <trkpt lat="45.58836" lon="5.31206">
        <ele>264</ele>
        <time>2021-04-03T14:29:41.674Z</time>
      </trkpt>
      <trkpt lat="45.58836" lon="5.31197">
        <ele>264</ele>
        <time>2021-04-03T14:29:42.674Z</time>
      </trkpt>
      <trkpt lat="45.58836" lon="5.31187">
        <ele>264</ele>
        <time>2021-04-03T14:29:43.674Z</time>
      </trkpt>
      <trkpt lat="45.58836" lon="5.31177">
        <ele>264</ele>
        <time>2021-04-03T14:29:44.674Z</time>
      </trkpt>
      <trkpt lat="45.58836" lon="5.31167">
        <ele>264</ele>
        <time>2021-04-03T14:29:45.674Z</time>
      </trkpt>
      <trkpt lat="45.58836" lon="5.31157">
        <ele>264</ele>
        <time>2021-04-03T14:29:46.673Z</time>
      </trkpt>
      <trkpt lat="45.58836" lon="5.31147">
        <ele>263</ele>
        <time>2021-04-03T14:29:47.674Z</time>
      </trkpt>
      <trkpt lat="45.58836" lon="5.31138">
        <ele>262</ele>
        <time>2021-04-03T14:29:48.674Z</time>
      </trkpt>
      <trkpt lat="45.58836" lon="5.31129">
        <ele>261</ele>
        <time>2021-04-03T14:29:49.674Z</time>
      </trkpt>
      <trkpt lat="45.58835" lon="5.3112">
        <ele>260</ele>
        <time>2021-04-03T14:29:50.674Z</time>
      </trkpt>
      <trkpt lat="45.58835" lon="5.31111">
        <ele>259</ele>
        <time>2021-04-03T14:29:51.673Z</time>
      </trkpt>
      <trkpt lat="45.58836" lon="5.31102">
        <ele>258</ele>
        <time>2021-04-03T14:29:52.674Z</time>
      </trkpt>
      <trkpt lat="45.58836" lon="5.31093">
        <ele>257</ele>
        <time>2021-04-03T14:29:53.674Z</time>
      </trkpt>
      <trkpt lat="45.58836" lon="5.31084">
        <ele>257</ele>
        <time>2021-04-03T14:29:54.673Z</time>
      </trkpt>
      <trkpt lat="45.58835" lon="5.31076">
        <ele>256</ele>
        <time>2021-04-03T14:29:55.674Z</time>
      </trkpt>
      <trkpt lat="45.58835" lon="5.31067">
        <ele>256</ele>
        <time>2021-04-03T14:29:56.674Z</time>
      </trkpt>
      <trkpt lat="45.58835" lon="5.31058">
        <ele>255</ele>
        <time>2021-04-03T14:29:57.674Z</time>
      </trkpt>
      <trkpt lat="45.58835" lon="5.31049">
        <ele>254</ele>
        <time>2021-04-03T14:29:58.674Z</time>
      </trkpt>
      <trkpt lat="45.58835" lon="5.3104">
        <ele>254</ele>
        <time>2021-04-03T14:29:59.673Z</time>
      </trkpt>
      <trkpt lat="45.58836" lon="5.31032">
        <ele>254</ele>
        <time>2021-04-03T14:30:00.674Z</time>
      </trkpt>
      <trkpt lat="45.58836" lon="5.31023">
        <ele>254</ele>
        <time>2021-04-03T14:30:01.673Z</time>
      </trkpt>
      <trkpt lat="45.58836" lon="5.31014">
        <ele>254</ele>
        <time>2021-04-03T14:30:02.674Z</time>
      </trkpt>
      <trkpt lat="45.58836" lon="5.31006">
        <ele>255</ele>
        <time>2021-04-03T14:30:03.673Z</time>
      </trkpt>
      <trkpt lat="45.58836" lon="5.30997">
        <ele>255</ele>
        <time>2021-04-03T14:30:04.673Z</time>
      </trkpt>
      <trkpt lat="45.58836" lon="5.30988">
        <ele>255</ele>
        <time>2021-04-03T14:30:05.674Z</time>
      </trkpt>
      <trkpt lat="45.58836" lon="5.3098">
        <ele>255</ele>
        <time>2021-04-03T14:30:06.674Z</time>
      </trkpt>
      <trkpt lat="45.58836" lon="5.30973">
        <ele>255</ele>
        <time>2021-04-03T14:30:07.673Z</time>
      </trkpt>
      <trkpt lat="45.58837" lon="5.30965">
        <ele>255</ele>
        <time>2021-04-03T14:30:08.674Z</time>
      </trkpt>
      <trkpt lat="45.58839" lon="5.30959">
        <ele>254</ele>
        <time>2021-04-03T14:30:09.674Z</time>
      </trkpt>
      <trkpt lat="45.58842" lon="5.30955">
        <ele>254</ele>
        <time>2021-04-03T14:30:10.673Z</time>
      </trkpt>
      <trkpt lat="45.58846" lon="5.3095">
        <ele>253</ele>
        <time>2021-04-03T14:30:11.674Z</time>
      </trkpt>
      <trkpt lat="45.58849" lon="5.30946">
        <ele>252</ele>
        <time>2021-04-03T14:30:12.673Z</time>
      </trkpt>
      <trkpt lat="45.58852" lon="5.30941">
        <ele>252</ele>
        <time>2021-04-03T14:30:13.674Z</time>
      </trkpt>
      <trkpt lat="45.58855" lon="5.30936">
        <ele>251</ele>
        <time>2021-04-03T14:30:14.674Z</time>
      </trkpt>
      <trkpt lat="45.58858" lon="5.3093">
        <ele>251</ele>
        <time>2021-04-03T14:30:15.674Z</time>
      </trkpt>
      <trkpt lat="45.58861" lon="5.30924">
        <ele>250</ele>
        <time>2021-04-03T14:30:16.674Z</time>
      </trkpt>
      <trkpt lat="45.58864" lon="5.30917">
        <ele>250</ele>
        <time>2021-04-03T14:30:17.674Z</time>
      </trkpt>
      <trkpt lat="45.58867" lon="5.30911">
        <ele>251</ele>
        <time>2021-04-03T14:30:18.674Z</time>
      </trkpt>
      <trkpt lat="45.58869" lon="5.30905">
        <ele>251</ele>
        <time>2021-04-03T14:30:19.673Z</time>
      </trkpt>
      <trkpt lat="45.58872" lon="5.30899">
        <ele>251</ele>
        <time>2021-04-03T14:30:20.674Z</time>
      </trkpt>
      <trkpt lat="45.58875" lon="5.30893">
        <ele>251</ele>
        <time>2021-04-03T14:30:21.673Z</time>
      </trkpt>
      <trkpt lat="45.58878" lon="5.30886">
        <ele>252</ele>
        <time>2021-04-03T14:30:22.674Z</time>
      </trkpt>
      <trkpt lat="45.58881" lon="5.3088">
        <ele>252</ele>
        <time>2021-04-03T14:30:23.674Z</time>
      </trkpt>
      <trkpt lat="45.58884" lon="5.30873">
        <ele>252</ele>
        <time>2021-04-03T14:30:24.673Z</time>
      </trkpt>
      <trkpt lat="45.58886" lon="5.30867">
        <ele>252</ele>
        <time>2021-04-03T14:30:25.674Z</time>
      </trkpt>
      <trkpt lat="45.58889" lon="5.30861">
        <ele>251</ele>
        <time>2021-04-03T14:30:26.674Z</time>
      </trkpt>
      <trkpt lat="45.58892" lon="5.30855">
        <ele>251</ele>
        <time>2021-04-03T14:30:27.673Z</time>
      </trkpt>
      <trkpt lat="45.58895" lon="5.30849">
        <ele>251</ele>
        <time>2021-04-03T14:30:28.674Z</time>
      </trkpt>
      <trkpt lat="45.58898" lon="5.30843">
        <ele>251</ele>
        <time>2021-04-03T14:30:29.674Z</time>
      </trkpt>
      <trkpt lat="45.589" lon="5.30837">
        <ele>251</ele>
        <time>2021-04-03T14:30:30.673Z</time>
      </trkpt>
      <trkpt lat="45.58903" lon="5.3083">
        <ele>251</ele>
        <time>2021-04-03T14:30:31.674Z</time>
      </trkpt>
      <trkpt lat="45.58905" lon="5.30823">
        <ele>251</ele>
        <time>2021-04-03T14:30:32.674Z</time>
      </trkpt>
      <trkpt lat="45.58907" lon="5.30816">
        <ele>251</ele>
        <time>2021-04-03T14:30:33.674Z</time>
      </trkpt>
      <trkpt lat="45.5891" lon="5.30808">
        <ele>251</ele>
        <time>2021-04-03T14:30:34.674Z</time>
      </trkpt>
      <trkpt lat="45.58912" lon="5.30801">
        <ele>251</ele>
        <time>2021-04-03T14:30:35.674Z</time>
      </trkpt>
      <trkpt lat="45.58914" lon="5.30794">
        <ele>252</ele>
        <time>2021-04-03T14:30:36.674Z</time>
      </trkpt>
      <trkpt lat="45.58917" lon="5.30787">
        <ele>251</ele>
        <time>2021-04-03T14:30:37.674Z</time>
      </trkpt>
      <trkpt lat="45.58918" lon="5.3078">
        <ele>251</ele>
        <time>2021-04-03T14:30:38.674Z</time>
      </trkpt>
      <trkpt lat="45.5892" lon="5.30773">
        <ele>251</ele>
        <time>2021-04-03T14:30:39.673Z</time>
      </trkpt>
      <trkpt lat="45.58921" lon="5.30766">
        <ele>252</ele>
        <time>2021-04-03T14:30:40.673Z</time>
      </trkpt>
      <trkpt lat="45.58922" lon="5.30758">
        <ele>252</ele>
        <time>2021-04-03T14:30:41.674Z</time>
      </trkpt>
      <trkpt lat="45.58923" lon="5.30751">
        <ele>252</ele>
        <time>2021-04-03T14:30:42.674Z</time>
      </trkpt>
      <trkpt lat="45.58925" lon="5.30744">
        <ele>252</ele>
        <time>2021-04-03T14:30:43.674Z</time>
      </trkpt>
      <trkpt lat="45.58926" lon="5.30737">
        <ele>252</ele>
        <time>2021-04-03T14:30:44.673Z</time>
      </trkpt>
      <trkpt lat="45.58927" lon="5.3073">
        <ele>252</ele>
        <time>2021-04-03T14:30:45.673Z</time>
      </trkpt>
      <trkpt lat="45.58928" lon="5.30723">
        <ele>252</ele>
        <time>2021-04-03T14:30:46.674Z</time>
      </trkpt>
      <trkpt lat="45.58929" lon="5.30715">
        <ele>252</ele>
        <time>2021-04-03T14:30:47.673Z</time>
      </trkpt>
      <trkpt lat="45.5893" lon="5.30708">
        <ele>252</ele>
        <time>2021-04-03T14:30:48.674Z</time>
      </trkpt>
      <trkpt lat="45.58932" lon="5.30701">
        <ele>251</ele>
        <time>2021-04-03T14:30:49.674Z</time>
      </trkpt>
      <trkpt lat="45.58933" lon="5.30693">
        <ele>251</ele>
        <time>2021-04-03T14:30:50.674Z</time>
      </trkpt>
      <trkpt lat="45.58934" lon="5.30686">
        <ele>251</ele>
        <time>2021-04-03T14:30:51.673Z</time>
      </trkpt>
      <trkpt lat="45.58935" lon="5.30678">
        <ele>251</ele>
        <time>2021-04-03T14:30:52.674Z</time>
      </trkpt>
      <trkpt lat="45.58936" lon="5.30671">
        <ele>251</ele>
        <time>2021-04-03T14:30:53.674Z</time>
      </trkpt>
      <trkpt lat="45.58938" lon="5.30664">
        <ele>251</ele>
        <time>2021-04-03T14:30:54.674Z</time>
      </trkpt>
      <trkpt lat="45.58939" lon="5.30656">
        <ele>252</ele>
        <time>2021-04-03T14:30:55.674Z</time>
      </trkpt>
      <trkpt lat="45.5894" lon="5.30649">
        <ele>252</ele>
        <time>2021-04-03T14:30:56.674Z</time>
      </trkpt>
      <trkpt lat="45.58941" lon="5.30641">
        <ele>252</ele>
        <time>2021-04-03T14:30:57.674Z</time>
      </trkpt>
      <trkpt lat="45.58942" lon="5.30633">
        <ele>252</ele>
        <time>2021-04-03T14:30:58.673Z</time>
      </trkpt>
      <trkpt lat="45.58943" lon="5.30626">
        <ele>252</ele>
        <time>2021-04-03T14:30:59.674Z</time>
      </trkpt>
      <trkpt lat="45.58945" lon="5.30618">
        <ele>251</ele>
        <time>2021-04-03T14:31:00.674Z</time>
      </trkpt>
      <trkpt lat="45.58946" lon="5.3061">
        <ele>251</ele>
        <time>2021-04-03T14:31:01.674Z</time>
      </trkpt>
      <trkpt lat="45.58947" lon="5.30602">
        <ele>250</ele>
        <time>2021-04-03T14:31:02.674Z</time>
      </trkpt>
      <trkpt lat="45.58949" lon="5.30595">
        <ele>250</ele>
        <time>2021-04-03T14:31:03.674Z</time>
      </trkpt>
      <trkpt lat="45.5895" lon="5.30587">
        <ele>251</ele>
        <time>2021-04-03T14:31:04.673Z</time>
      </trkpt>
      <trkpt lat="45.58951" lon="5.3058">
        <ele>251</ele>
        <time>2021-04-03T14:31:05.674Z</time>
      </trkpt>
      <trkpt lat="45.58953" lon="5.30572">
        <ele>251</ele>
        <time>2021-04-03T14:31:06.673Z</time>
      </trkpt>
      <trkpt lat="45.58954" lon="5.30564">
        <ele>252</ele>
        <time>2021-04-03T14:31:07.674Z</time>
      </trkpt>
      <trkpt lat="45.58956" lon="5.30557">
        <ele>252</ele>
        <time>2021-04-03T14:31:08.674Z</time>
      </trkpt>
      <trkpt lat="45.58957" lon="5.3055">
        <ele>252</ele>
        <time>2021-04-03T14:31:09.674Z</time>
      </trkpt>
      <trkpt lat="45.58959" lon="5.30543">
        <ele>252</ele>
        <time>2021-04-03T14:31:10.674Z</time>
      </trkpt>
      <trkpt lat="45.5896" lon="5.30536">
        <ele>251</ele>
        <time>2021-04-03T14:31:11.674Z</time>
      </trkpt>
      <trkpt lat="45.58961" lon="5.30528">
        <ele>251</ele>
        <time>2021-04-03T14:31:12.673Z</time>
      </trkpt>
      <trkpt lat="45.58963" lon="5.30521">
        <ele>251</ele>
        <time>2021-04-03T14:31:13.673Z</time>
      </trkpt>
      <trkpt lat="45.58965" lon="5.30513">
        <ele>251</ele>
        <time>2021-04-03T14:31:14.674Z</time>
      </trkpt>
      <trkpt lat="45.58966" lon="5.30506">
        <ele>251</ele>
        <time>2021-04-03T14:31:15.674Z</time>
      </trkpt>
      <trkpt lat="45.58968" lon="5.30499">
        <ele>251</ele>
        <time>2021-04-03T14:31:16.673Z</time>
      </trkpt>
      <trkpt lat="45.5897" lon="5.30491">
        <ele>251</ele>
        <time>2021-04-03T14:31:17.673Z</time>
      </trkpt>
      <trkpt lat="45.58971" lon="5.30484">
        <ele>252</ele>
        <time>2021-04-03T14:31:18.674Z</time>
      </trkpt>
      <trkpt lat="45.58973" lon="5.30476">
        <ele>252</ele>
        <time>2021-04-03T14:31:19.673Z</time>
      </trkpt>
      <trkpt lat="45.58975" lon="5.30469">
        <ele>252</ele>
        <time>2021-04-03T14:31:20.674Z</time>
      </trkpt>
      <trkpt lat="45.58977" lon="5.30462">
        <ele>252</ele>
        <time>2021-04-03T14:31:21.674Z</time>
      </trkpt>
      <trkpt lat="45.58979" lon="5.30454">
        <ele>252</ele>
        <time>2021-04-03T14:31:22.674Z</time>
      </trkpt>
      <trkpt lat="45.5898" lon="5.30447">
        <ele>251</ele>
        <time>2021-04-03T14:31:23.674Z</time>
      </trkpt>
      <trkpt lat="45.58982" lon="5.3044">
        <ele>251</ele>
        <time>2021-04-03T14:31:24.674Z</time>
      </trkpt>
      <trkpt lat="45.58984" lon="5.30433">
        <ele>251</ele>
        <time>2021-04-03T14:31:25.673Z</time>
      </trkpt>
      <trkpt lat="45.58985" lon="5.30427">
        <ele>251</ele>
        <time>2021-04-03T14:31:26.674Z</time>
      </trkpt>
      <trkpt lat="45.58987" lon="5.3042">
        <ele>251</ele>
        <time>2021-04-03T14:31:27.674Z</time>
      </trkpt>
      <trkpt lat="45.58989" lon="5.30414">
        <ele>251</ele>
        <time>2021-04-03T14:31:28.674Z</time>
      </trkpt>
      <trkpt lat="45.58991" lon="5.30407">
        <ele>251</ele>
        <time>2021-04-03T14:31:29.674Z</time>
      </trkpt>
      <trkpt lat="45.58993" lon="5.30401">
        <ele>251</ele>
        <time>2021-04-03T14:31:30.674Z</time>
      </trkpt>
      <trkpt lat="45.58995" lon="5.30394">
        <ele>251</ele>
        <time>2021-04-03T14:31:31.674Z</time>
      </trkpt>
      <trkpt lat="45.58996" lon="5.30387">
        <ele>251</ele>
        <time>2021-04-03T14:31:32.674Z</time>
      </trkpt>
      <trkpt lat="45.58998" lon="5.30381">
        <ele>251</ele>
        <time>2021-04-03T14:31:33.674Z</time>
      </trkpt>
      <trkpt lat="45.59" lon="5.30375">
        <ele>251</ele>
        <time>2021-04-03T14:31:34.674Z</time>
      </trkpt>
      <trkpt lat="45.59002" lon="5.30369">
        <ele>251</ele>
        <time>2021-04-03T14:31:35.673Z</time>
      </trkpt>
      <trkpt lat="45.59004" lon="5.30362">
        <ele>250</ele>
        <time>2021-04-03T14:31:36.674Z</time>
      </trkpt>
      <trkpt lat="45.59006" lon="5.30356">
        <ele>250</ele>
        <time>2021-04-03T14:31:37.674Z</time>
      </trkpt>
      <trkpt lat="45.59008" lon="5.3035">
        <ele>250</ele>
        <time>2021-04-03T14:31:38.674Z</time>
      </trkpt>
      <trkpt lat="45.5901" lon="5.30344">
        <ele>250</ele>
        <time>2021-04-03T14:31:39.674Z</time>
      </trkpt>
      <trkpt lat="45.59011" lon="5.30338">
        <ele>250</ele>
        <time>2021-04-03T14:31:40.674Z</time>
      </trkpt>
      <trkpt lat="45.59014" lon="5.30331">
        <ele>250</ele>
        <time>2021-04-03T14:31:41.674Z</time>
      </trkpt>
      <trkpt lat="45.59015" lon="5.30325">
        <ele>250</ele>
        <time>2021-04-03T14:31:42.674Z</time>
      </trkpt>
      <trkpt lat="45.59017" lon="5.30318">
        <ele>250</ele>
        <time>2021-04-03T14:31:43.673Z</time>
      </trkpt>
      <trkpt lat="45.59019" lon="5.30311">
        <ele>249</ele>
        <time>2021-04-03T14:31:44.674Z</time>
      </trkpt>
      <trkpt lat="45.59021" lon="5.30304">
        <ele>249</ele>
        <time>2021-04-03T14:31:45.674Z</time>
      </trkpt>
      <trkpt lat="45.59023" lon="5.30297">
        <ele>249</ele>
        <time>2021-04-03T14:31:46.674Z</time>
      </trkpt>
      <trkpt lat="45.59025" lon="5.3029">
        <ele>249</ele>
        <time>2021-04-03T14:31:47.674Z</time>
      </trkpt>
      <trkpt lat="45.59027" lon="5.30283">
        <ele>249</ele>
        <time>2021-04-03T14:31:48.674Z</time>
      </trkpt>
      <trkpt lat="45.59029" lon="5.30277">
        <ele>249</ele>
        <time>2021-04-03T14:31:49.674Z</time>
      </trkpt>
      <trkpt lat="45.59031" lon="5.3027">
        <ele>249</ele>
        <time>2021-04-03T14:31:50.674Z</time>
      </trkpt>
      <trkpt lat="45.59033" lon="5.30263">
        <ele>249</ele>
        <time>2021-04-03T14:31:51.674Z</time>
      </trkpt>
      <trkpt lat="45.59035" lon="5.30256">
        <ele>250</ele>
        <time>2021-04-03T14:31:52.674Z</time>
      </trkpt>
      <trkpt lat="45.59037" lon="5.30249">
        <ele>250</ele>
        <time>2021-04-03T14:31:53.674Z</time>
      </trkpt>
      <trkpt lat="45.59038" lon="5.30242">
        <ele>251</ele>
        <time>2021-04-03T14:31:54.674Z</time>
      </trkpt>
      <trkpt lat="45.5904" lon="5.30235">
        <ele>251</ele>
        <time>2021-04-03T14:31:55.674Z</time>
      </trkpt>
      <trkpt lat="45.59042" lon="5.30228">
        <ele>251</ele>
        <time>2021-04-03T14:31:56.673Z</time>
      </trkpt>
      <trkpt lat="45.59044" lon="5.30221">
        <ele>251</ele>
        <time>2021-04-03T14:31:57.673Z</time>
      </trkpt>
      <trkpt lat="45.59046" lon="5.30214">
        <ele>252</ele>
        <time>2021-04-03T14:31:58.674Z</time>
      </trkpt>
      <trkpt lat="45.59048" lon="5.30207">
        <ele>252</ele>
        <time>2021-04-03T14:31:59.673Z</time>
      </trkpt>
      <trkpt lat="45.5905" lon="5.302">
        <ele>251</ele>
        <time>2021-04-03T14:32:00.673Z</time>
      </trkpt>
      <trkpt lat="45.59052" lon="5.30193">
        <ele>251</ele>
        <time>2021-04-03T14:32:01.674Z</time>
      </trkpt>
      <trkpt lat="45.59054" lon="5.30186">
        <ele>250</ele>
        <time>2021-04-03T14:32:02.674Z</time>
      </trkpt>
      <trkpt lat="45.59056" lon="5.30179">
        <ele>250</ele>
        <time>2021-04-03T14:32:03.673Z</time>
      </trkpt>
      <trkpt lat="45.59058" lon="5.30172">
        <ele>250</ele>
        <time>2021-04-03T14:32:04.674Z</time>
      </trkpt>
      <trkpt lat="45.5906" lon="5.30166">
        <ele>249</ele>
        <time>2021-04-03T14:32:05.673Z</time>
      </trkpt>
      <trkpt lat="45.59062" lon="5.30159">
        <ele>250</ele>
        <time>2021-04-03T14:32:06.674Z</time>
      </trkpt>
      <trkpt lat="45.59063" lon="5.30152">
        <ele>250</ele>
        <time>2021-04-03T14:32:07.674Z</time>
      </trkpt>
      <trkpt lat="45.59065" lon="5.30146">
        <ele>251</ele>
        <time>2021-04-03T14:32:08.674Z</time>
      </trkpt>
      <trkpt lat="45.59067" lon="5.30139">
        <ele>251</ele>
        <time>2021-04-03T14:32:09.674Z</time>
      </trkpt>
      <trkpt lat="45.59068" lon="5.30132">
        <ele>251</ele>
        <time>2021-04-03T14:32:10.674Z</time>
      </trkpt>
      <trkpt lat="45.5907" lon="5.30125">
        <ele>251</ele>
        <time>2021-04-03T14:32:11.673Z</time>
      </trkpt>
      <trkpt lat="45.59071" lon="5.30118">
        <ele>252</ele>
        <time>2021-04-03T14:32:12.674Z</time>
      </trkpt>
      <trkpt lat="45.59073" lon="5.30111">
        <ele>252</ele>
        <time>2021-04-03T14:32:13.674Z</time>
      </trkpt>
      <trkpt lat="45.59075" lon="5.30104">
        <ele>252</ele>
        <time>2021-04-03T14:32:14.674Z</time>
      </trkpt>
      <trkpt lat="45.59076" lon="5.30096">
        <ele>251</ele>
        <time>2021-04-03T14:32:15.673Z</time>
      </trkpt>
      <trkpt lat="45.59078" lon="5.30089">
        <ele>252</ele>
        <time>2021-04-03T14:32:16.674Z</time>
      </trkpt>
      <trkpt lat="45.5908" lon="5.30082">
        <ele>252</ele>
        <time>2021-04-03T14:32:17.674Z</time>
      </trkpt>
      <trkpt lat="45.59081" lon="5.30075">
        <ele>252</ele>
        <time>2021-04-03T14:32:18.674Z</time>
      </trkpt>
      <trkpt lat="45.59083" lon="5.30068">
        <ele>252</ele>
        <time>2021-04-03T14:32:19.673Z</time>
      </trkpt>
      <trkpt lat="45.59084" lon="5.3006">
        <ele>252</ele>
        <time>2021-04-03T14:32:20.674Z</time>
      </trkpt>
      <trkpt lat="45.59086" lon="5.30053">
        <ele>252</ele>
        <time>2021-04-03T14:32:21.674Z</time>
      </trkpt>
      <trkpt lat="45.59087" lon="5.30046">
        <ele>251</ele>
        <time>2021-04-03T14:32:22.674Z</time>
      </trkpt>
      <trkpt lat="45.59089" lon="5.30039">
        <ele>251</ele>
        <time>2021-04-03T14:32:23.674Z</time>
      </trkpt>
      <trkpt lat="45.5909" lon="5.30031">
        <ele>251</ele>
        <time>2021-04-03T14:32:24.673Z</time>
      </trkpt>
      <trkpt lat="45.59092" lon="5.30024">
        <ele>250</ele>
        <time>2021-04-03T14:32:25.674Z</time>
      </trkpt>
      <trkpt lat="45.59093" lon="5.30017">
        <ele>250</ele>
        <time>2021-04-03T14:32:26.673Z</time>
      </trkpt>
      <trkpt lat="45.59095" lon="5.30009">
        <ele>250</ele>
        <time>2021-04-03T14:32:27.674Z</time>
      </trkpt>
      <trkpt lat="45.59096" lon="5.30002">
        <ele>250</ele>
        <time>2021-04-03T14:32:28.674Z</time>
      </trkpt>
      <trkpt lat="45.59098" lon="5.29994">
        <ele>249</ele>
        <time>2021-04-03T14:32:29.674Z</time>
      </trkpt>
      <trkpt lat="45.59099" lon="5.29987">
        <ele>249</ele>
        <time>2021-04-03T14:32:30.674Z</time>
      </trkpt>
      <trkpt lat="45.59101" lon="5.2998">
        <ele>249</ele>
        <time>2021-04-03T14:32:31.673Z</time>
      </trkpt>
      <trkpt lat="45.59102" lon="5.29973">
        <ele>250</ele>
        <time>2021-04-03T14:32:32.673Z</time>
      </trkpt>
      <trkpt lat="45.59104" lon="5.29966">
        <ele>250</ele>
        <time>2021-04-03T14:32:33.674Z</time>
      </trkpt>
      <trkpt lat="45.59105" lon="5.29959">
        <ele>250</ele>
        <time>2021-04-03T14:32:34.674Z</time>
      </trkpt>
      <trkpt lat="45.59107" lon="5.29952">
        <ele>251</ele>
        <time>2021-04-03T14:32:35.674Z</time>
      </trkpt>
      <trkpt lat="45.59108" lon="5.29945">
        <ele>251</ele>
        <time>2021-04-03T14:32:36.674Z</time>
      </trkpt>
      <trkpt lat="45.5911" lon="5.29937">
        <ele>251</ele>
        <time>2021-04-03T14:32:37.674Z</time>
      </trkpt>
      <trkpt lat="45.59111" lon="5.2993">
        <ele>251</ele>
        <time>2021-04-03T14:32:38.674Z</time>
      </trkpt>
      <trkpt lat="45.59113" lon="5.29923">
        <ele>251</ele>
        <time>2021-04-03T14:32:39.674Z</time>
      </trkpt>
      <trkpt lat="45.59114" lon="5.29916">
        <ele>251</ele>
        <time>2021-04-03T14:32:40.674Z</time>
      </trkpt>
      <trkpt lat="45.59116" lon="5.2991">
        <ele>250</ele>
        <time>2021-04-03T14:32:41.673Z</time>
      </trkpt>
      <trkpt lat="45.59117" lon="5.29902">
        <ele>250</ele>
        <time>2021-04-03T14:32:42.674Z</time>
      </trkpt>
      <trkpt lat="45.59119" lon="5.29895">
        <ele>250</ele>
        <time>2021-04-03T14:32:43.674Z</time>
      </trkpt>
      <trkpt lat="45.5912" lon="5.29888">
        <ele>250</ele>
        <time>2021-04-03T14:32:44.674Z</time>
      </trkpt>
      <trkpt lat="45.59122" lon="5.2988">
        <ele>250</ele>
        <time>2021-04-03T14:32:45.673Z</time>
      </trkpt>
      <trkpt lat="45.59123" lon="5.29873">
        <ele>250</ele>
        <time>2021-04-03T14:32:46.674Z</time>
      </trkpt>
      <trkpt lat="45.59125" lon="5.29866">
        <ele>250</ele>
        <time>2021-04-03T14:32:47.674Z</time>
      </trkpt>
      <trkpt lat="45.59127" lon="5.29859">
        <ele>250</ele>
        <time>2021-04-03T14:32:48.674Z</time>
      </trkpt>
      <trkpt lat="45.59128" lon="5.29852">
        <ele>249</ele>
        <time>2021-04-03T14:32:49.674Z</time>
      </trkpt>
      <trkpt lat="45.5913" lon="5.29845">
        <ele>249</ele>
        <time>2021-04-03T14:32:50.674Z</time>
      </trkpt>
      <trkpt lat="45.59131" lon="5.29839">
        <ele>249</ele>
        <time>2021-04-03T14:32:51.673Z</time>
      </trkpt>
      <trkpt lat="45.59133" lon="5.29832">
        <ele>249</ele>
        <time>2021-04-03T14:32:52.674Z</time>
      </trkpt>
      <trkpt lat="45.59134" lon="5.29825">
        <ele>249</ele>
        <time>2021-04-03T14:32:53.673Z</time>
      </trkpt>
      <trkpt lat="45.59135" lon="5.2982">
        <ele>249</ele>
        <time>2021-04-03T14:32:54.674Z</time>
      </trkpt>
      <trkpt lat="45.59137" lon="5.29811">
        <ele>249</ele>
        <time>2021-04-03T14:32:55.674Z</time>
      </trkpt>
      <trkpt lat="45.59138" lon="5.29804">
        <ele>249</ele>
        <time>2021-04-03T14:32:56.674Z</time>
      </trkpt>
      <trkpt lat="45.59139" lon="5.29797">
        <ele>249</ele>
        <time>2021-04-03T14:32:57.674Z</time>
      </trkpt>
      <trkpt lat="45.5914" lon="5.2979">
        <ele>249</ele>
        <time>2021-04-03T14:32:58.674Z</time>
      </trkpt>
      <trkpt lat="45.59142" lon="5.29782">
        <ele>249</ele>
        <time>2021-04-03T14:32:59.673Z</time>
      </trkpt>
      <trkpt lat="45.59143" lon="5.29775">
        <ele>249</ele>
        <time>2021-04-03T14:33:00.674Z</time>
      </trkpt>
      <trkpt lat="45.59144" lon="5.29768">
        <ele>250</ele>
        <time>2021-04-03T14:33:01.674Z</time>
      </trkpt>
      <trkpt lat="45.59145" lon="5.29761">
        <ele>250</ele>
        <time>2021-04-03T14:33:02.673Z</time>
      </trkpt>
      <trkpt lat="45.59146" lon="5.29754">
        <ele>251</ele>
        <time>2021-04-03T14:33:03.673Z</time>
      </trkpt>
      <trkpt lat="45.59147" lon="5.29747">
        <ele>251</ele>
        <time>2021-04-03T14:33:04.673Z</time>
      </trkpt>
      <trkpt lat="45.59148" lon="5.2974">
        <ele>251</ele>
        <time>2021-04-03T14:33:05.674Z</time>
      </trkpt>
      <trkpt lat="45.59149" lon="5.29733">
        <ele>251</ele>
        <time>2021-04-03T14:33:06.674Z</time>
      </trkpt>
      <trkpt lat="45.59149" lon="5.29727">
        <ele>251</ele>
        <time>2021-04-03T14:33:07.673Z</time>
      </trkpt>
      <trkpt lat="45.5915" lon="5.2972">
        <ele>251</ele>
        <time>2021-04-03T14:33:08.674Z</time>
      </trkpt>
      <trkpt lat="45.59151" lon="5.29713">
        <ele>251</ele>
        <time>2021-04-03T14:33:09.673Z</time>
      </trkpt>
      <trkpt lat="45.59152" lon="5.29706">
        <ele>251</ele>
        <time>2021-04-03T14:33:10.674Z</time>
      </trkpt>
      <trkpt lat="45.59153" lon="5.29699">
        <ele>250</ele>
        <time>2021-04-03T14:33:11.673Z</time>
      </trkpt>
      <trkpt lat="45.59154" lon="5.29692">
        <ele>250</ele>
        <time>2021-04-03T14:33:12.674Z</time>
      </trkpt>
      <trkpt lat="45.59156" lon="5.29686">
        <ele>249</ele>
        <time>2021-04-03T14:33:13.674Z</time>
      </trkpt>
      <trkpt lat="45.59158" lon="5.29679">
        <ele>249</ele>
        <time>2021-04-03T14:33:14.674Z</time>
      </trkpt>
      <trkpt lat="45.5916" lon="5.29672">
        <ele>249</ele>
        <time>2021-04-03T14:33:15.674Z</time>
      </trkpt>
      <trkpt lat="45.59162" lon="5.29666">
        <ele>248</ele>
        <time>2021-04-03T14:33:16.674Z</time>
      </trkpt>
      <trkpt lat="45.59165" lon="5.29659">
        <ele>248</ele>
        <time>2021-04-03T14:33:17.673Z</time>
      </trkpt>
      <trkpt lat="45.59167" lon="5.29653">
        <ele>248</ele>
        <time>2021-04-03T14:33:18.673Z</time>
      </trkpt>
      <trkpt lat="45.5917" lon="5.29648">
        <ele>247</ele>
        <time>2021-04-03T14:33:19.674Z</time>
      </trkpt>
      <trkpt lat="45.59173" lon="5.29642">
        <ele>247</ele>
        <time>2021-04-03T14:33:20.674Z</time>
      </trkpt>
      <trkpt lat="45.59175" lon="5.29637">
        <ele>247</ele>
        <time>2021-04-03T14:33:21.674Z</time>
      </trkpt>
      <trkpt lat="45.59178" lon="5.29631">
        <ele>247</ele>
        <time>2021-04-03T14:33:22.673Z</time>
      </trkpt>
      <trkpt lat="45.5918" lon="5.29626">
        <ele>247</ele>
        <time>2021-04-03T14:33:23.674Z</time>
      </trkpt>
      <trkpt lat="45.59183" lon="5.29621">
        <ele>247</ele>
        <time>2021-04-03T14:33:24.674Z</time>
      </trkpt>
      <trkpt lat="45.59185" lon="5.29615">
        <ele>246</ele>
        <time>2021-04-03T14:33:25.674Z</time>
      </trkpt>
      <trkpt lat="45.59188" lon="5.2961">
        <ele>246</ele>
        <time>2021-04-03T14:33:26.674Z</time>
      </trkpt>
      <trkpt lat="45.5919" lon="5.29605">
        <ele>247</ele>
        <time>2021-04-03T14:33:27.674Z</time>
      </trkpt>
      <trkpt lat="45.59193" lon="5.296">
        <ele>248</ele>
        <time>2021-04-03T14:33:28.674Z</time>
      </trkpt>
      <trkpt lat="45.59195" lon="5.29595">
        <ele>248</ele>
        <time>2021-04-03T14:33:29.674Z</time>
      </trkpt>
      <trkpt lat="45.59198" lon="5.2959">
        <ele>249</ele>
        <time>2021-04-03T14:33:30.674Z</time>
      </trkpt>
      <trkpt lat="45.592" lon="5.29585">
        <ele>249</ele>
        <time>2021-04-03T14:33:31.674Z</time>
      </trkpt>
      <trkpt lat="45.59202" lon="5.29581">
        <ele>249</ele>
        <time>2021-04-03T14:33:32.674Z</time>
      </trkpt>
      <trkpt lat="45.59205" lon="5.29577">
        <ele>249</ele>
        <time>2021-04-03T14:33:33.674Z</time>
      </trkpt>
      <trkpt lat="45.59208" lon="5.29572">
        <ele>248</ele>
        <time>2021-04-03T14:33:34.674Z</time>
      </trkpt>
      <trkpt lat="45.59211" lon="5.29568">
        <ele>248</ele>
        <time>2021-04-03T14:33:35.674Z</time>
      </trkpt>
      <trkpt lat="45.59213" lon="5.29565">
        <ele>247</ele>
        <time>2021-04-03T14:33:36.674Z</time>
      </trkpt>
      <trkpt lat="45.59216" lon="5.29562">
        <ele>247</ele>
        <time>2021-04-03T14:33:37.673Z</time>
      </trkpt>
      <trkpt lat="45.59219" lon="5.29558">
        <ele>247</ele>
        <time>2021-04-03T14:33:38.673Z</time>
      </trkpt>
      <trkpt lat="45.59223" lon="5.29555">
        <ele>247</ele>
        <time>2021-04-03T14:33:39.674Z</time>
      </trkpt>
      <trkpt lat="45.59226" lon="5.29553">
        <ele>247</ele>
        <time>2021-04-03T14:33:40.674Z</time>
      </trkpt>
      <trkpt lat="45.5923" lon="5.29551">
        <ele>247</ele>
        <time>2021-04-03T14:33:41.674Z</time>
      </trkpt>
      <trkpt lat="45.59233" lon="5.29549">
        <ele>248</ele>
        <time>2021-04-03T14:33:42.673Z</time>
      </trkpt>
      <trkpt lat="45.59237" lon="5.29548">
        <ele>248</ele>
        <time>2021-04-03T14:33:43.673Z</time>
      </trkpt>
      <trkpt lat="45.59241" lon="5.29546">
        <ele>248</ele>
        <time>2021-04-03T14:33:44.674Z</time>
      </trkpt>
      <trkpt lat="45.59245" lon="5.29545">
        <ele>248</ele>
        <time>2021-04-03T14:33:45.673Z</time>
      </trkpt>
      <trkpt lat="45.59249" lon="5.29543">
        <ele>248</ele>
        <time>2021-04-03T14:33:46.673Z</time>
      </trkpt>
      <trkpt lat="45.59253" lon="5.29542">
        <ele>248</ele>
        <time>2021-04-03T14:33:47.674Z</time>
      </trkpt>
      <trkpt lat="45.59256" lon="5.29541">
        <ele>248</ele>
        <time>2021-04-03T14:33:48.674Z</time>
      </trkpt>
      <trkpt lat="45.5926" lon="5.29539">
        <ele>248</ele>
        <time>2021-04-03T14:33:49.673Z</time>
      </trkpt>
      <trkpt lat="45.59264" lon="5.29538">
        <ele>249</ele>
        <time>2021-04-03T14:33:50.674Z</time>
      </trkpt>
      <trkpt lat="45.59268" lon="5.29537">
        <ele>249</ele>
        <time>2021-04-03T14:33:51.674Z</time>
      </trkpt>
      <trkpt lat="45.59271" lon="5.29535">
        <ele>249</ele>
        <time>2021-04-03T14:33:52.673Z</time>
      </trkpt>
      <trkpt lat="45.59275" lon="5.29534">
        <ele>250</ele>
        <time>2021-04-03T14:33:53.674Z</time>
      </trkpt>
      <trkpt lat="45.59279" lon="5.29532">
        <ele>250</ele>
        <time>2021-04-03T14:33:54.674Z</time>
      </trkpt>
      <trkpt lat="45.59282" lon="5.29531">
        <ele>250</ele>
        <time>2021-04-03T14:33:55.674Z</time>
      </trkpt>
      <trkpt lat="45.59286" lon="5.29529">
        <ele>251</ele>
        <time>2021-04-03T14:33:56.674Z</time>
      </trkpt>
      <trkpt lat="45.5929" lon="5.29528">
        <ele>251</ele>
        <time>2021-04-03T14:33:57.674Z</time>
      </trkpt>
      <trkpt lat="45.59293" lon="5.29527">
        <ele>252</ele>
        <time>2021-04-03T14:33:58.674Z</time>
      </trkpt>
      <trkpt lat="45.59297" lon="5.29525">
        <ele>252</ele>
        <time>2021-04-03T14:33:59.673Z</time>
      </trkpt>
      <trkpt lat="45.593" lon="5.29524">
        <ele>253</ele>
        <time>2021-04-03T14:34:00.673Z</time>
      </trkpt>
      <trkpt lat="45.59303" lon="5.29522">
        <ele>253</ele>
        <time>2021-04-03T14:34:01.674Z</time>
      </trkpt>
      <trkpt lat="45.59307" lon="5.29521">
        <ele>253</ele>
        <time>2021-04-03T14:34:02.674Z</time>
      </trkpt>
      <trkpt lat="45.59311" lon="5.2952">
        <ele>253</ele>
        <time>2021-04-03T14:34:03.674Z</time>
      </trkpt>
      <trkpt lat="45.59315" lon="5.29518">
        <ele>253</ele>
        <time>2021-04-03T14:34:04.674Z</time>
      </trkpt>
      <trkpt lat="45.59318" lon="5.29517">
        <ele>253</ele>
        <time>2021-04-03T14:34:05.674Z</time>
      </trkpt>
      <trkpt lat="45.59322" lon="5.29515">
        <ele>253</ele>
        <time>2021-04-03T14:34:06.674Z</time>
      </trkpt>
      <trkpt lat="45.59325" lon="5.29514">
        <ele>254</ele>
        <time>2021-04-03T14:34:07.673Z</time>
      </trkpt>
      <trkpt lat="45.59329" lon="5.29512">
        <ele>254</ele>
        <time>2021-04-03T14:34:08.674Z</time>
      </trkpt>
      <trkpt lat="45.59332" lon="5.2951">
        <ele>254</ele>
        <time>2021-04-03T14:34:09.674Z</time>
      </trkpt>
      <trkpt lat="45.59336" lon="5.29507">
        <ele>255</ele>
        <time>2021-04-03T14:34:10.674Z</time>
      </trkpt>
      <trkpt lat="45.59339" lon="5.29504">
        <ele>255</ele>
        <time>2021-04-03T14:34:11.674Z</time>
      </trkpt>
      <trkpt lat="45.59341" lon="5.295">
        <ele>254</ele>
        <time>2021-04-03T14:34:12.674Z</time>
      </trkpt>
      <trkpt lat="45.59343" lon="5.29496">
        <ele>254</ele>
        <time>2021-04-03T14:34:13.674Z</time>
      </trkpt>
      <trkpt lat="45.59342" lon="5.29491">
        <ele>253</ele>
        <time>2021-04-03T14:34:14.674Z</time>
      </trkpt>
      <trkpt lat="45.59341" lon="5.29487">
        <ele>253</ele>
        <time>2021-04-03T14:34:15.673Z</time>
      </trkpt>
      <trkpt lat="45.59338" lon="5.29483">
        <ele>252</ele>
        <time>2021-04-03T14:34:16.674Z</time>
      </trkpt>
      <trkpt lat="45.59335" lon="5.29479">
        <ele>252</ele>
        <time>2021-04-03T14:34:17.674Z</time>
      </trkpt>
      <trkpt lat="45.59331" lon="5.29476">
        <ele>252</ele>
        <time>2021-04-03T14:34:18.673Z</time>
      </trkpt>
      <trkpt lat="45.59328" lon="5.29473">
        <ele>252</ele>
        <time>2021-04-03T14:34:19.674Z</time>
      </trkpt>
      <trkpt lat="45.59324" lon="5.2947">
        <ele>252</ele>
        <time>2021-04-03T14:34:20.674Z</time>
      </trkpt>
      <trkpt lat="45.59321" lon="5.29467">
        <ele>252</ele>
        <time>2021-04-03T14:34:21.673Z</time>
      </trkpt>
      <trkpt lat="45.59317" lon="5.29464">
        <ele>253</ele>
        <time>2021-04-03T14:34:22.674Z</time>
      </trkpt>
      <trkpt lat="45.59314" lon="5.29461">
        <ele>254</ele>
        <time>2021-04-03T14:34:23.674Z</time>
      </trkpt>
      <trkpt lat="45.5931" lon="5.29458">
        <ele>254</ele>
        <time>2021-04-03T14:34:24.674Z</time>
      </trkpt>
      <trkpt lat="45.59307" lon="5.29456">
        <ele>255</ele>
        <time>2021-04-03T14:34:25.674Z</time>
      </trkpt>
      <trkpt lat="45.59303" lon="5.29453">
        <ele>255</ele>
        <time>2021-04-03T14:34:26.674Z</time>
      </trkpt>
      <trkpt lat="45.593" lon="5.2945">
        <ele>256</ele>
        <time>2021-04-03T14:34:27.674Z</time>
      </trkpt>
      <trkpt lat="45.59296" lon="5.29447">
        <ele>256</ele>
        <time>2021-04-03T14:34:28.673Z</time>
      </trkpt>
      <trkpt lat="45.59292" lon="5.29444">
        <ele>256</ele>
        <time>2021-04-03T14:34:29.674Z</time>
      </trkpt>
      <trkpt lat="45.59289" lon="5.29441">
        <ele>256</ele>
        <time>2021-04-03T14:34:30.673Z</time>
      </trkpt>
      <trkpt lat="45.59286" lon="5.29439">
        <ele>256</ele>
        <time>2021-04-03T14:34:31.674Z</time>
      </trkpt>
      <trkpt lat="45.59284" lon="5.29437">
        <ele>256</ele>
        <time>2021-04-03T14:34:32.674Z</time>
      </trkpt>
      <trkpt lat="45.59282" lon="5.29436">
        <ele>257</ele>
        <time>2021-04-03T14:34:33.674Z</time>
      </trkpt>
      <trkpt lat="45.5928" lon="5.29437">
        <ele>257</ele>
        <time>2021-04-03T14:34:34.673Z</time>
      </trkpt>
      <trkpt lat="45.5928" lon="5.29438">
        <ele>257</ele>
        <time>2021-04-03T14:34:35.674Z</time>
      </trkpt>
      <trkpt lat="45.5928" lon="5.29439">
        <ele>257</ele>
        <time>2021-04-03T14:34:36.673Z</time>
      </trkpt>
      <trkpt lat="45.59283" lon="5.29441">
        <ele>257</ele>
        <time>2021-04-03T14:34:37.673Z</time>
      </trkpt>
      <trkpt lat="45.59285" lon="5.29442">
        <ele>257</ele>
        <time>2021-04-03T14:34:38.674Z</time>
      </trkpt>
      <trkpt lat="45.59288" lon="5.29444">
        <ele>257</ele>
        <time>2021-04-03T14:34:39.674Z</time>
      </trkpt>
      <trkpt lat="45.59291" lon="5.29447">
        <ele>257</ele>
        <time>2021-04-03T14:34:40.674Z</time>
      </trkpt>
      <trkpt lat="45.59295" lon="5.29449">
        <ele>257</ele>
        <time>2021-04-03T14:34:41.674Z</time>
      </trkpt>
      <trkpt lat="45.59299" lon="5.29453">
        <ele>257</ele>
        <time>2021-04-03T14:34:42.674Z</time>
      </trkpt>
      <trkpt lat="45.59304" lon="5.29457">
        <ele>257</ele>
        <time>2021-04-03T14:34:43.673Z</time>
      </trkpt>
      <trkpt lat="45.59309" lon="5.29462">
        <ele>257</ele>
        <time>2021-04-03T14:34:44.673Z</time>
      </trkpt>
      <trkpt lat="45.59314" lon="5.29467">
        <ele>257</ele>
        <time>2021-04-03T14:34:45.674Z</time>
      </trkpt>
      <trkpt lat="45.5932" lon="5.29472">
        <ele>256</ele>
        <time>2021-04-03T14:34:46.674Z</time>
      </trkpt>
      <trkpt lat="45.59325" lon="5.29478">
        <ele>256</ele>
        <time>2021-04-03T14:34:47.674Z</time>
      </trkpt>
      <trkpt lat="45.5933" lon="5.29484">
        <ele>256</ele>
        <time>2021-04-03T14:34:48.674Z</time>
      </trkpt>
      <trkpt lat="45.59334" lon="5.2949">
        <ele>255</ele>
        <time>2021-04-03T14:34:49.674Z</time>
      </trkpt>
      <trkpt lat="45.59338" lon="5.29496">
        <ele>255</ele>
        <time>2021-04-03T14:34:50.674Z</time>
      </trkpt>
      <trkpt lat="45.59341" lon="5.295">
        <ele>255</ele>
        <time>2021-04-03T14:34:51.674Z</time>
      </trkpt>
      <trkpt lat="45.59345" lon="5.29503">
        <ele>254</ele>
        <time>2021-04-03T14:34:52.674Z</time>
      </trkpt>
      <trkpt lat="45.59349" lon="5.29504">
        <ele>254</ele>
        <time>2021-04-03T14:34:53.674Z</time>
      </trkpt>
      <trkpt lat="45.59353" lon="5.29505">
        <ele>253</ele>
        <time>2021-04-03T14:34:54.674Z</time>
      </trkpt>
      <trkpt lat="45.59358" lon="5.29504">
        <ele>253</ele>
        <time>2021-04-03T14:34:55.674Z</time>
      </trkpt>
      <trkpt lat="45.59363" lon="5.29503">
        <ele>253</ele>
        <time>2021-04-03T14:34:56.674Z</time>
      </trkpt>
      <trkpt lat="45.59369" lon="5.29501">
        <ele>253</ele>
        <time>2021-04-03T14:34:57.674Z</time>
      </trkpt>
      <trkpt lat="45.59374" lon="5.29499">
        <ele>253</ele>
        <time>2021-04-03T14:34:58.674Z</time>
      </trkpt>
      <trkpt lat="45.5938" lon="5.29496">
        <ele>253</ele>
        <time>2021-04-03T14:34:59.674Z</time>
      </trkpt>
      <trkpt lat="45.59386" lon="5.29494">
        <ele>254</ele>
        <time>2021-04-03T14:35:00.673Z</time>
      </trkpt>
      <trkpt lat="45.59391" lon="5.29492">
        <ele>254</ele>
        <time>2021-04-03T14:35:01.673Z</time>
      </trkpt>
      <trkpt lat="45.59397" lon="5.29489">
        <ele>254</ele>
        <time>2021-04-03T14:35:02.674Z</time>
      </trkpt>
      <trkpt lat="45.59403" lon="5.29487">
        <ele>254</ele>
        <time>2021-04-03T14:35:03.673Z</time>
      </trkpt>
      <trkpt lat="45.59408" lon="5.29484">
        <ele>253</ele>
        <time>2021-04-03T14:35:04.674Z</time>
      </trkpt>
      <trkpt lat="45.59413" lon="5.29482">
        <ele>254</ele>
        <time>2021-04-03T14:35:05.674Z</time>
      </trkpt>
      <trkpt lat="45.59419" lon="5.2948">
        <ele>254</ele>
        <time>2021-04-03T14:35:06.674Z</time>
      </trkpt>
      <trkpt lat="45.59424" lon="5.29478">
        <ele>254</ele>
        <time>2021-04-03T14:35:07.673Z</time>
      </trkpt>
      <trkpt lat="45.5943" lon="5.29476">
        <ele>254</ele>
        <time>2021-04-03T14:35:08.674Z</time>
      </trkpt>
      <trkpt lat="45.59435" lon="5.29474">
        <ele>253</ele>
        <time>2021-04-03T14:35:09.673Z</time>
      </trkpt>
      <trkpt lat="45.5944" lon="5.29472">
        <ele>253</ele>
        <time>2021-04-03T14:35:10.674Z</time>
      </trkpt>
      <trkpt lat="45.59446" lon="5.29469">
        <ele>253</ele>
        <time>2021-04-03T14:35:11.673Z</time>
      </trkpt>
      <trkpt lat="45.59451" lon="5.29467">
        <ele>253</ele>
        <time>2021-04-03T14:35:12.673Z</time>
      </trkpt>
      <trkpt lat="45.59457" lon="5.29466">
        <ele>253</ele>
        <time>2021-04-03T14:35:13.674Z</time>
      </trkpt>
      <trkpt lat="45.59462" lon="5.29466">
        <ele>253</ele>
        <time>2021-04-03T14:35:14.673Z</time>
      </trkpt>
      <trkpt lat="45.59467" lon="5.29466">
        <ele>253</ele>
        <time>2021-04-03T14:35:15.674Z</time>
      </trkpt>
      <trkpt lat="45.59472" lon="5.29469">
        <ele>254</ele>
        <time>2021-04-03T14:35:16.673Z</time>
      </trkpt>
      <trkpt lat="45.59477" lon="5.29474">
        <ele>254</ele>
        <time>2021-04-03T14:35:17.674Z</time>
      </trkpt>
      <trkpt lat="45.59481" lon="5.29479">
        <ele>254</ele>
        <time>2021-04-03T14:35:18.674Z</time>
      </trkpt>
      <trkpt lat="45.59485" lon="5.29485">
        <ele>254</ele>
        <time>2021-04-03T14:35:19.674Z</time>
      </trkpt>
      <trkpt lat="45.59488" lon="5.29494">
        <ele>254</ele>
        <time>2021-04-03T14:35:20.674Z</time>
      </trkpt>
      <trkpt lat="45.59492" lon="5.29501">
        <ele>255</ele>
        <time>2021-04-03T14:35:21.674Z</time>
      </trkpt>
      <trkpt lat="45.59495" lon="5.29508">
        <ele>255</ele>
        <time>2021-04-03T14:35:22.674Z</time>
      </trkpt>
      <trkpt lat="45.59498" lon="5.29515">
        <ele>255</ele>
        <time>2021-04-03T14:35:23.674Z</time>
      </trkpt>
      <trkpt lat="45.59502" lon="5.29522">
        <ele>256</ele>
        <time>2021-04-03T14:35:24.674Z</time>
      </trkpt>
      <trkpt lat="45.59506" lon="5.29529">
        <ele>256</ele>
        <time>2021-04-03T14:35:25.674Z</time>
      </trkpt>
      <trkpt lat="45.5951" lon="5.29536">
        <ele>256</ele>
        <time>2021-04-03T14:35:26.674Z</time>
      </trkpt>
      <trkpt lat="45.59513" lon="5.29543">
        <ele>256</ele>
        <time>2021-04-03T14:35:27.673Z</time>
      </trkpt>
      <trkpt lat="45.59516" lon="5.29549">
        <ele>256</ele>
        <time>2021-04-03T14:35:28.673Z</time>
      </trkpt>
      <trkpt lat="45.59519" lon="5.29556">
        <ele>256</ele>
        <time>2021-04-03T14:35:29.673Z</time>
      </trkpt>
      <trkpt lat="45.59522" lon="5.29563">
        <ele>256</ele>
        <time>2021-04-03T14:35:30.673Z</time>
      </trkpt>
      <trkpt lat="45.59525" lon="5.2957">
        <ele>256</ele>
        <time>2021-04-03T14:35:31.673Z</time>
      </trkpt>
      <trkpt lat="45.59528" lon="5.29576">
        <ele>256</ele>
        <time>2021-04-03T14:35:32.673Z</time>
      </trkpt>
      <trkpt lat="45.59531" lon="5.29583">
        <ele>256</ele>
        <time>2021-04-03T14:35:33.674Z</time>
      </trkpt>
      <trkpt lat="45.59534" lon="5.29589">
        <ele>256</ele>
        <time>2021-04-03T14:35:34.673Z</time>
      </trkpt>
      <trkpt lat="45.59537" lon="5.29595">
        <ele>256</ele>
        <time>2021-04-03T14:35:35.674Z</time>
      </trkpt>
      <trkpt lat="45.5954" lon="5.29601">
        <ele>256</ele>
        <time>2021-04-03T14:35:36.674Z</time>
      </trkpt>
      <trkpt lat="45.59544" lon="5.29607">
        <ele>256</ele>
        <time>2021-04-03T14:35:37.674Z</time>
      </trkpt>
      <trkpt lat="45.59547" lon="5.29612">
        <ele>256</ele>
        <time>2021-04-03T14:35:38.674Z</time>
      </trkpt>
      <trkpt lat="45.5955" lon="5.29618">
        <ele>256</ele>
        <time>2021-04-03T14:35:39.674Z</time>
      </trkpt>
      <trkpt lat="45.59553" lon="5.29623">
        <ele>256</ele>
        <time>2021-04-03T14:35:40.674Z</time>
      </trkpt>
      <trkpt lat="45.59556" lon="5.29628">
        <ele>257</ele>
        <time>2021-04-03T14:35:41.674Z</time>
      </trkpt>
      <trkpt lat="45.59559" lon="5.29632">
        <ele>257</ele>
        <time>2021-04-03T14:35:42.674Z</time>
      </trkpt>
      <trkpt lat="45.59562" lon="5.29637">
        <ele>257</ele>
        <time>2021-04-03T14:35:43.673Z</time>
      </trkpt>
      <trkpt lat="45.59566" lon="5.29641">
        <ele>258</ele>
        <time>2021-04-03T14:35:44.674Z</time>
      </trkpt>
      <trkpt lat="45.59569" lon="5.29646">
        <ele>258</ele>
        <time>2021-04-03T14:35:45.674Z</time>
      </trkpt>
      <trkpt lat="45.59572" lon="5.29651">
        <ele>258</ele>
        <time>2021-04-03T14:35:46.674Z</time>
      </trkpt>
      <trkpt lat="45.59575" lon="5.29656">
        <ele>259</ele>
        <time>2021-04-03T14:35:47.674Z</time>
      </trkpt>
      <trkpt lat="45.59577" lon="5.29661">
        <ele>259</ele>
        <time>2021-04-03T14:35:48.673Z</time>
      </trkpt>
      <trkpt lat="45.59579" lon="5.29667">
        <ele>260</ele>
        <time>2021-04-03T14:35:49.674Z</time>
      </trkpt>
      <trkpt lat="45.59581" lon="5.29673">
        <ele>260</ele>
        <time>2021-04-03T14:35:50.673Z</time>
      </trkpt>
      <trkpt lat="45.59582" lon="5.29679">
        <ele>260</ele>
        <time>2021-04-03T14:35:51.673Z</time>
      </trkpt>
      <trkpt lat="45.59584" lon="5.29685">
        <ele>261</ele>
        <time>2021-04-03T14:35:52.674Z</time>
      </trkpt>
      <trkpt lat="45.59586" lon="5.29692">
        <ele>261</ele>
        <time>2021-04-03T14:35:53.674Z</time>
      </trkpt>
      <trkpt lat="45.59587" lon="5.29699">
        <ele>261</ele>
        <time>2021-04-03T14:35:54.673Z</time>
      </trkpt>
      <trkpt lat="45.59587" lon="5.29706">
        <ele>261</ele>
        <time>2021-04-03T14:35:55.674Z</time>
      </trkpt>
      <trkpt lat="45.59588" lon="5.29714">
        <ele>261</ele>
        <time>2021-04-03T14:35:56.673Z</time>
      </trkpt>
      <trkpt lat="45.59588" lon="5.29722">
        <ele>262</ele>
        <time>2021-04-03T14:35:57.674Z</time>
      </trkpt>
      <trkpt lat="45.59589" lon="5.2973">
        <ele>262</ele>
        <time>2021-04-03T14:35:58.674Z</time>
      </trkpt>
      <trkpt lat="45.5959" lon="5.29738">
        <ele>262</ele>
        <time>2021-04-03T14:35:59.673Z</time>
      </trkpt>
      <trkpt lat="45.5959" lon="5.29745">
        <ele>262</ele>
        <time>2021-04-03T14:36:00.673Z</time>
      </trkpt>
      <trkpt lat="45.59591" lon="5.29753">
        <ele>262</ele>
        <time>2021-04-03T14:36:01.674Z</time>
      </trkpt>
      <trkpt lat="45.59591" lon="5.29761">
        <ele>262</ele>
        <time>2021-04-03T14:36:02.674Z</time>
      </trkpt>
      <trkpt lat="45.5959" lon="5.29769">
        <ele>262</ele>
        <time>2021-04-03T14:36:03.674Z</time>
      </trkpt>
      <trkpt lat="45.5959" lon="5.29778">
        <ele>262</ele>
        <time>2021-04-03T14:36:04.674Z</time>
      </trkpt>
      <trkpt lat="45.59591" lon="5.29786">
        <ele>262</ele>
        <time>2021-04-03T14:36:05.674Z</time>
      </trkpt>
      <trkpt lat="45.59592" lon="5.29794">
        <ele>262</ele>
        <time>2021-04-03T14:36:06.674Z</time>
      </trkpt>
      <trkpt lat="45.59593" lon="5.29802">
        <ele>262</ele>
        <time>2021-04-03T14:36:07.674Z</time>
      </trkpt>
      <trkpt lat="45.59594" lon="5.2981">
        <ele>263</ele>
        <time>2021-04-03T14:36:08.674Z</time>
      </trkpt>
      <trkpt lat="45.59595" lon="5.29818">
        <ele>264</ele>
        <time>2021-04-03T14:36:09.674Z</time>
      </trkpt>
      <trkpt lat="45.59597" lon="5.29826">
        <ele>264</ele>
        <time>2021-04-03T14:36:10.674Z</time>
      </trkpt>
      <trkpt lat="45.59599" lon="5.29834">
        <ele>265</ele>
        <time>2021-04-03T14:36:11.674Z</time>
      </trkpt>
      <trkpt lat="45.59601" lon="5.29842">
        <ele>265</ele>
        <time>2021-04-03T14:36:12.674Z</time>
      </trkpt>
      <trkpt lat="45.59603" lon="5.29849">
        <ele>266</ele>
        <time>2021-04-03T14:36:13.674Z</time>
      </trkpt>
      <trkpt lat="45.59606" lon="5.29857">
        <ele>266</ele>
        <time>2021-04-03T14:36:14.674Z</time>
      </trkpt>
      <trkpt lat="45.59608" lon="5.29865">
        <ele>267</ele>
        <time>2021-04-03T14:36:15.673Z</time>
      </trkpt>
      <trkpt lat="45.5961" lon="5.29872">
        <ele>268</ele>
        <time>2021-04-03T14:36:16.674Z</time>
      </trkpt>
      <trkpt lat="45.59613" lon="5.29879">
        <ele>268</ele>
        <time>2021-04-03T14:36:17.673Z</time>
      </trkpt>
      <trkpt lat="45.59615" lon="5.29887">
        <ele>269</ele>
        <time>2021-04-03T14:36:18.673Z</time>
      </trkpt>
      <trkpt lat="45.59617" lon="5.29894">
        <ele>270</ele>
        <time>2021-04-03T14:36:19.673Z</time>
      </trkpt>
      <trkpt lat="45.5962" lon="5.29901">
        <ele>270</ele>
        <time>2021-04-03T14:36:20.674Z</time>
      </trkpt>
      <trkpt lat="45.59622" lon="5.29907">
        <ele>271</ele>
        <time>2021-04-03T14:36:21.674Z</time>
      </trkpt>
      <trkpt lat="45.59625" lon="5.29914">
        <ele>271</ele>
        <time>2021-04-03T14:36:22.674Z</time>
      </trkpt>
      <trkpt lat="45.59628" lon="5.2992">
        <ele>272</ele>
        <time>2021-04-03T14:36:23.673Z</time>
      </trkpt>
      <trkpt lat="45.59631" lon="5.29928">
        <ele>272</ele>
        <time>2021-04-03T14:36:24.674Z</time>
      </trkpt>
      <trkpt lat="45.59633" lon="5.29932">
        <ele>272</ele>
        <time>2021-04-03T14:36:25.674Z</time>
      </trkpt>
      <trkpt lat="45.59635" lon="5.29938">
        <ele>272</ele>
        <time>2021-04-03T14:36:26.674Z</time>
      </trkpt>
      <trkpt lat="45.59638" lon="5.29944">
        <ele>272</ele>
        <time>2021-04-03T14:36:27.674Z</time>
      </trkpt>
      <trkpt lat="45.59641" lon="5.2995">
        <ele>272</ele>
        <time>2021-04-03T14:36:28.674Z</time>
      </trkpt>
      <trkpt lat="45.59644" lon="5.29957">
        <ele>272</ele>
        <time>2021-04-03T14:36:29.674Z</time>
      </trkpt>
      <trkpt lat="45.59646" lon="5.29961">
        <ele>272</ele>
        <time>2021-04-03T14:36:30.674Z</time>
      </trkpt>
      <trkpt lat="45.5965" lon="5.29967">
        <ele>272</ele>
        <time>2021-04-03T14:36:31.674Z</time>
      </trkpt>
      <trkpt lat="45.59652" lon="5.2997">
        <ele>271</ele>
        <time>2021-04-03T14:36:32.673Z</time>
      </trkpt>
      <trkpt lat="45.59656" lon="5.29974">
        <ele>271</ele>
        <time>2021-04-03T14:36:33.674Z</time>
      </trkpt>
      <trkpt lat="45.5966" lon="5.29979">
        <ele>271</ele>
        <time>2021-04-03T14:36:34.674Z</time>
      </trkpt>
      <trkpt lat="45.59664" lon="5.29982">
        <ele>271</ele>
        <time>2021-04-03T14:36:35.674Z</time>
      </trkpt>
      <trkpt lat="45.5967" lon="5.29986">
        <ele>271</ele>
        <time>2021-04-03T14:36:36.674Z</time>
      </trkpt>
      <trkpt lat="45.59674" lon="5.29989">
        <ele>270</ele>
        <time>2021-04-03T14:36:37.673Z</time>
      </trkpt>
      <trkpt lat="45.59679" lon="5.29992">
        <ele>270</ele>
        <time>2021-04-03T14:36:38.673Z</time>
      </trkpt>
      <trkpt lat="45.59686" lon="5.29996">
        <ele>269</ele>
        <time>2021-04-03T14:36:39.674Z</time>
      </trkpt>
      <trkpt lat="45.59691" lon="5.29999">
        <ele>269</ele>
        <time>2021-04-03T14:36:40.674Z</time>
      </trkpt>
      <trkpt lat="45.59695" lon="5.30003">
        <ele>268</ele>
        <time>2021-04-03T14:36:41.674Z</time>
      </trkpt>
      <trkpt lat="45.597" lon="5.30007">
        <ele>268</ele>
        <time>2021-04-03T14:36:42.673Z</time>
      </trkpt>
      <trkpt lat="45.59704" lon="5.30012">
        <ele>268</ele>
        <time>2021-04-03T14:36:43.674Z</time>
      </trkpt>
      <trkpt lat="45.59708" lon="5.30016">
        <ele>268</ele>
        <time>2021-04-03T14:36:44.674Z</time>
      </trkpt>
      <trkpt lat="45.59712" lon="5.30021">
        <ele>268</ele>
        <time>2021-04-03T14:36:45.673Z</time>
      </trkpt>
      <trkpt lat="45.59716" lon="5.30026">
        <ele>268</ele>
        <time>2021-04-03T14:36:46.674Z</time>
      </trkpt>
      <trkpt lat="45.5972" lon="5.30032">
        <ele>269</ele>
        <time>2021-04-03T14:36:47.673Z</time>
      </trkpt>
      <trkpt lat="45.59724" lon="5.30038">
        <ele>269</ele>
        <time>2021-04-03T14:36:48.674Z</time>
      </trkpt>
      <trkpt lat="45.59728" lon="5.30043">
        <ele>270</ele>
        <time>2021-04-03T14:36:49.673Z</time>
      </trkpt>
      <trkpt lat="45.59732" lon="5.30049">
        <ele>270</ele>
        <time>2021-04-03T14:36:50.673Z</time>
      </trkpt>
      <trkpt lat="45.59736" lon="5.30054">
        <ele>270</ele>
        <time>2021-04-03T14:36:51.674Z</time>
      </trkpt>
      <trkpt lat="45.5974" lon="5.30059">
        <ele>270</ele>
        <time>2021-04-03T14:36:52.674Z</time>
      </trkpt>
      <trkpt lat="45.59745" lon="5.30065">
        <ele>270</ele>
        <time>2021-04-03T14:36:53.673Z</time>
      </trkpt>
      <trkpt lat="45.59749" lon="5.3007">
        <ele>270</ele>
        <time>2021-04-03T14:36:54.674Z</time>
      </trkpt>
      <trkpt lat="45.59753" lon="5.30075">
        <ele>270</ele>
        <time>2021-04-03T14:36:55.673Z</time>
      </trkpt>
      <trkpt lat="45.59757" lon="5.3008">
        <ele>270</ele>
        <time>2021-04-03T14:36:56.674Z</time>
      </trkpt>
      <trkpt lat="45.59761" lon="5.30085">
        <ele>270</ele>
        <time>2021-04-03T14:36:57.673Z</time>
      </trkpt>
      <trkpt lat="45.59766" lon="5.30091">
        <ele>271</ele>
        <time>2021-04-03T14:36:58.673Z</time>
      </trkpt>
      <trkpt lat="45.59771" lon="5.30096">
        <ele>271</ele>
        <time>2021-04-03T14:36:59.673Z</time>
      </trkpt>
      <trkpt lat="45.59776" lon="5.30101">
        <ele>271</ele>
        <time>2021-04-03T14:37:00.674Z</time>
      </trkpt>
      <trkpt lat="45.5978" lon="5.30105">
        <ele>271</ele>
        <time>2021-04-03T14:37:01.674Z</time>
      </trkpt>
      <trkpt lat="45.59785" lon="5.3011">
        <ele>272</ele>
        <time>2021-04-03T14:37:02.674Z</time>
      </trkpt>
      <trkpt lat="45.59789" lon="5.30114">
        <ele>272</ele>
        <time>2021-04-03T14:37:03.674Z</time>
      </trkpt>
      <trkpt lat="45.59794" lon="5.30118">
        <ele>273</ele>
        <time>2021-04-03T14:37:04.673Z</time>
      </trkpt>
      <trkpt lat="45.59797" lon="5.30121">
        <ele>273</ele>
        <time>2021-04-03T14:37:05.674Z</time>
      </trkpt>
      <trkpt lat="45.59803" lon="5.30125">
        <ele>273</ele>
        <time>2021-04-03T14:37:06.673Z</time>
      </trkpt>
      <trkpt lat="45.59807" lon="5.30128">
        <ele>274</ele>
        <time>2021-04-03T14:37:07.674Z</time>
      </trkpt>
      <trkpt lat="45.59812" lon="5.30131">
        <ele>274</ele>
        <time>2021-04-03T14:37:08.674Z</time>
      </trkpt>
      <trkpt lat="45.59817" lon="5.30134">
        <ele>274</ele>
        <time>2021-04-03T14:37:09.674Z</time>
      </trkpt>
      <trkpt lat="45.59822" lon="5.30137">
        <ele>274</ele>
        <time>2021-04-03T14:37:10.674Z</time>
      </trkpt>
      <trkpt lat="45.59827" lon="5.30139">
        <ele>274</ele>
        <time>2021-04-03T14:37:11.673Z</time>
      </trkpt>
      <trkpt lat="45.59831" lon="5.30143">
        <ele>274</ele>
        <time>2021-04-03T14:37:12.673Z</time>
      </trkpt>
      <trkpt lat="45.59835" lon="5.30144">
        <ele>274</ele>
        <time>2021-04-03T14:37:13.673Z</time>
      </trkpt>
      <trkpt lat="45.59839" lon="5.30146">
        <ele>274</ele>
        <time>2021-04-03T14:37:14.673Z</time>
      </trkpt>
      <trkpt lat="45.59842" lon="5.30147">
        <ele>274</ele>
        <time>2021-04-03T14:37:15.674Z</time>
      </trkpt>
      <trkpt lat="45.59846" lon="5.30148">
        <ele>274</ele>
        <time>2021-04-03T14:37:16.673Z</time>
      </trkpt>
      <trkpt lat="45.59851" lon="5.3015">
        <ele>274</ele>
        <time>2021-04-03T14:37:17.674Z</time>
      </trkpt>
      <trkpt lat="45.59855" lon="5.30151">
        <ele>274</ele>
        <time>2021-04-03T14:37:18.674Z</time>
      </trkpt>
      <trkpt lat="45.59859" lon="5.30152">
        <ele>274</ele>
        <time>2021-04-03T14:37:19.673Z</time>
      </trkpt>
      <trkpt lat="45.59863" lon="5.30154">
        <ele>274</ele>
        <time>2021-04-03T14:37:20.674Z</time>
      </trkpt>
      <trkpt lat="45.59866" lon="5.30155">
        <ele>274</ele>
        <time>2021-04-03T14:37:21.674Z</time>
      </trkpt>
      <trkpt lat="45.5987" lon="5.30157">
        <ele>274</ele>
        <time>2021-04-03T14:37:22.674Z</time>
      </trkpt>
      <trkpt lat="45.59874" lon="5.30158">
        <ele>274</ele>
        <time>2021-04-03T14:37:23.674Z</time>
      </trkpt>
      <trkpt lat="45.59877" lon="5.3016">
        <ele>275</ele>
        <time>2021-04-03T14:37:24.674Z</time>
      </trkpt>
      <trkpt lat="45.59882" lon="5.30163">
        <ele>275</ele>
        <time>2021-04-03T14:37:25.673Z</time>
      </trkpt>
      <trkpt lat="45.59886" lon="5.30164">
        <ele>275</ele>
        <time>2021-04-03T14:37:26.674Z</time>
      </trkpt>
      <trkpt lat="45.5989" lon="5.30165">
        <ele>276</ele>
        <time>2021-04-03T14:37:27.674Z</time>
      </trkpt>
      <trkpt lat="45.59894" lon="5.30166">
        <ele>276</ele>
        <time>2021-04-03T14:37:28.674Z</time>
      </trkpt>
      <trkpt lat="45.59899" lon="5.30167">
        <ele>276</ele>
        <time>2021-04-03T14:37:29.674Z</time>
      </trkpt>
      <trkpt lat="45.59904" lon="5.30169">
        <ele>276</ele>
        <time>2021-04-03T14:37:30.674Z</time>
      </trkpt>
      <trkpt lat="45.59908" lon="5.3017">
        <ele>276</ele>
        <time>2021-04-03T14:37:31.673Z</time>
      </trkpt>
      <trkpt lat="45.59913" lon="5.30171">
        <ele>276</ele>
        <time>2021-04-03T14:37:32.674Z</time>
      </trkpt>
      <trkpt lat="45.59917" lon="5.30172">
        <ele>277</ele>
        <time>2021-04-03T14:37:33.674Z</time>
      </trkpt>
      <trkpt lat="45.59923" lon="5.30173">
        <ele>277</ele>
        <time>2021-04-03T14:37:34.673Z</time>
      </trkpt>
      <trkpt lat="45.59928" lon="5.30174">
        <ele>277</ele>
        <time>2021-04-03T14:37:35.674Z</time>
      </trkpt>
      <trkpt lat="45.59932" lon="5.30175">
        <ele>277</ele>
        <time>2021-04-03T14:37:36.674Z</time>
      </trkpt>
      <trkpt lat="45.59936" lon="5.30175">
        <ele>277</ele>
        <time>2021-04-03T14:37:37.674Z</time>
      </trkpt>
      <trkpt lat="45.5994" lon="5.30175">
        <ele>278</ele>
        <time>2021-04-03T14:37:38.674Z</time>
      </trkpt>
      <trkpt lat="45.59945" lon="5.30175">
        <ele>278</ele>
        <time>2021-04-03T14:37:39.673Z</time>
      </trkpt>
      <trkpt lat="45.59949" lon="5.30174">
        <ele>278</ele>
        <time>2021-04-03T14:37:40.673Z</time>
      </trkpt>
      <trkpt lat="45.59953" lon="5.30173">
        <ele>278</ele>
        <time>2021-04-03T14:37:41.673Z</time>
      </trkpt>
      <trkpt lat="45.59957" lon="5.30173">
        <ele>278</ele>
        <time>2021-04-03T14:37:42.674Z</time>
      </trkpt>
      <trkpt lat="45.59961" lon="5.30172">
        <ele>279</ele>
        <time>2021-04-03T14:37:43.674Z</time>
      </trkpt>
      <trkpt lat="45.59965" lon="5.30171">
        <ele>279</ele>
        <time>2021-04-03T14:37:44.674Z</time>
      </trkpt>
      <trkpt lat="45.59968" lon="5.30171">
        <ele>279</ele>
        <time>2021-04-03T14:37:45.673Z</time>
      </trkpt>
      <trkpt lat="45.59972" lon="5.3017">
        <ele>279</ele>
        <time>2021-04-03T14:37:46.673Z</time>
      </trkpt>
      <trkpt lat="45.59975" lon="5.30169">
        <ele>279</ele>
        <time>2021-04-03T14:37:47.673Z</time>
      </trkpt>
      <trkpt lat="45.59979" lon="5.30169">
        <ele>280</ele>
        <time>2021-04-03T14:37:48.673Z</time>
      </trkpt>
      <trkpt lat="45.59983" lon="5.30168">
        <ele>280</ele>
        <time>2021-04-03T14:37:49.673Z</time>
      </trkpt>
      <trkpt lat="45.59987" lon="5.30169">
        <ele>280</ele>
        <time>2021-04-03T14:37:50.673Z</time>
      </trkpt>
      <trkpt lat="45.59991" lon="5.30169">
        <ele>280</ele>
        <time>2021-04-03T14:37:51.674Z</time>
      </trkpt>
      <trkpt lat="45.59997" lon="5.3017">
        <ele>281</ele>
        <time>2021-04-03T14:37:52.674Z</time>
      </trkpt>
      <trkpt lat="45.60001" lon="5.30171">
        <ele>281</ele>
        <time>2021-04-03T14:37:53.673Z</time>
      </trkpt>
      <trkpt lat="45.60006" lon="5.30172">
        <ele>282</ele>
        <time>2021-04-03T14:37:54.673Z</time>
      </trkpt>
      <trkpt lat="45.6001" lon="5.30173">
        <ele>283</ele>
        <time>2021-04-03T14:37:55.674Z</time>
      </trkpt>
      <trkpt lat="45.60015" lon="5.30174">
        <ele>283</ele>
        <time>2021-04-03T14:37:56.674Z</time>
      </trkpt>
      <trkpt lat="45.6002" lon="5.30175">
        <ele>283</ele>
        <time>2021-04-03T14:37:57.673Z</time>
      </trkpt>
      <trkpt lat="45.60025" lon="5.30177">
        <ele>284</ele>
        <time>2021-04-03T14:37:58.674Z</time>
      </trkpt>
      <trkpt lat="45.6003" lon="5.30178">
        <ele>283</ele>
        <time>2021-04-03T14:37:59.674Z</time>
      </trkpt>
      <trkpt lat="45.60036" lon="5.3018">
        <ele>283</ele>
        <time>2021-04-03T14:38:00.674Z</time>
      </trkpt>
      <trkpt lat="45.60042" lon="5.30181">
        <ele>283</ele>
        <time>2021-04-03T14:38:01.674Z</time>
      </trkpt>
      <trkpt lat="45.60046" lon="5.30181">
        <ele>283</ele>
        <time>2021-04-03T14:38:02.674Z</time>
      </trkpt>
      <trkpt lat="45.6005" lon="5.30182">
        <ele>283</ele>
        <time>2021-04-03T14:38:03.673Z</time>
      </trkpt>
      <trkpt lat="45.60054" lon="5.30186">
        <ele>283</ele>
        <time>2021-04-03T14:38:04.674Z</time>
      </trkpt>
      <trkpt lat="45.60057" lon="5.3019">
        <ele>283</ele>
        <time>2021-04-03T14:38:05.674Z</time>
      </trkpt>
      <trkpt lat="45.60058" lon="5.30197">
        <ele>283</ele>
        <time>2021-04-03T14:38:06.673Z</time>
      </trkpt>
      <trkpt lat="45.60058" lon="5.30202">
        <ele>284</ele>
        <time>2021-04-03T14:38:07.674Z</time>
      </trkpt>
      <trkpt lat="45.60058" lon="5.30208">
        <ele>284</ele>
        <time>2021-04-03T14:38:08.674Z</time>
      </trkpt>
      <trkpt lat="45.60058" lon="5.30213">
        <ele>284</ele>
        <time>2021-04-03T14:38:09.673Z</time>
      </trkpt>
      <trkpt lat="45.6006" lon="5.30215">
        <ele>285</ele>
        <time>2021-04-03T14:38:10.673Z</time>
      </trkpt>
      <trkpt lat="45.60063" lon="5.30217">
        <ele>285</ele>
        <time>2021-04-03T14:38:11.674Z</time>
      </trkpt>
      <trkpt lat="45.60067" lon="5.30217">
        <ele>286</ele>
        <time>2021-04-03T14:38:12.674Z</time>
      </trkpt>
      <trkpt lat="45.6007" lon="5.30217">
        <ele>286</ele>
        <time>2021-04-03T14:38:13.673Z</time>
      </trkpt>
      <trkpt lat="45.60073" lon="5.30215">
        <ele>287</ele>
        <time>2021-04-03T14:38:14.673Z</time>
      </trkpt>
      <trkpt lat="45.60076" lon="5.30214">
        <ele>287</ele>
        <time>2021-04-03T14:38:15.674Z</time>
      </trkpt>
      <trkpt lat="45.6008" lon="5.30212">
        <ele>288</ele>
        <time>2021-04-03T14:38:16.673Z</time>
      </trkpt>
      <trkpt lat="45.60083" lon="5.3021">
        <ele>289</ele>
        <time>2021-04-03T14:38:17.674Z</time>
      </trkpt>
      <trkpt lat="45.60087" lon="5.30209">
        <ele>290</ele>
        <time>2021-04-03T14:38:18.673Z</time>
      </trkpt>
      <trkpt lat="45.60091" lon="5.30207">
        <ele>290</ele>
        <time>2021-04-03T14:38:19.673Z</time>
      </trkpt>
      <trkpt lat="45.60094" lon="5.30206">
        <ele>291</ele>
        <time>2021-04-03T14:38:20.673Z</time>
      </trkpt>
      <trkpt lat="45.60097" lon="5.30204">
        <ele>292</ele>
        <time>2021-04-03T14:38:21.674Z</time>
      </trkpt>
      <trkpt lat="45.60101" lon="5.30203">
        <ele>293</ele>
        <time>2021-04-03T14:38:22.674Z</time>
      </trkpt>
      <trkpt lat="45.60104" lon="5.30202">
        <ele>293</ele>
        <time>2021-04-03T14:38:23.674Z</time>
      </trkpt>
      <trkpt lat="45.60108" lon="5.302">
        <ele>294</ele>
        <time>2021-04-03T14:38:24.673Z</time>
      </trkpt>
      <trkpt lat="45.60112" lon="5.30199">
        <ele>294</ele>
        <time>2021-04-03T14:38:25.673Z</time>
      </trkpt>
      <trkpt lat="45.60115" lon="5.30197">
        <ele>295</ele>
        <time>2021-04-03T14:38:26.674Z</time>
      </trkpt>
      <trkpt lat="45.60118" lon="5.30196">
        <ele>296</ele>
        <time>2021-04-03T14:38:27.674Z</time>
      </trkpt>
      <trkpt lat="45.60122" lon="5.30194">
        <ele>296</ele>
        <time>2021-04-03T14:38:28.674Z</time>
      </trkpt>
      <trkpt lat="45.60125" lon="5.30192">
        <ele>297</ele>
        <time>2021-04-03T14:38:29.673Z</time>
      </trkpt>
      <trkpt lat="45.60128" lon="5.3019">
        <ele>298</ele>
        <time>2021-04-03T14:38:30.674Z</time>
      </trkpt>
      <trkpt lat="45.60132" lon="5.30188">
        <ele>298</ele>
        <time>2021-04-03T14:38:31.673Z</time>
      </trkpt>
      <trkpt lat="45.60135" lon="5.30187">
        <ele>299</ele>
        <time>2021-04-03T14:38:32.673Z</time>
      </trkpt>
      <trkpt lat="45.60138" lon="5.30185">
        <ele>300</ele>
        <time>2021-04-03T14:38:33.674Z</time>
      </trkpt>
      <trkpt lat="45.60142" lon="5.30183">
        <ele>301</ele>
        <time>2021-04-03T14:38:34.674Z</time>
      </trkpt>
      <trkpt lat="45.60145" lon="5.3018">
        <ele>301</ele>
        <time>2021-04-03T14:38:35.673Z</time>
      </trkpt>
      <trkpt lat="45.60149" lon="5.30178">
        <ele>300</ele>
        <time>2021-04-03T14:38:36.674Z</time>
      </trkpt>
      <trkpt lat="45.60152" lon="5.30175">
        <ele>300</ele>
        <time>2021-04-03T14:38:37.673Z</time>
      </trkpt>
      <trkpt lat="45.60155" lon="5.30171">
        <ele>301</ele>
        <time>2021-04-03T14:38:38.674Z</time>
      </trkpt>
      <trkpt lat="45.60158" lon="5.30168">
        <ele>301</ele>
        <time>2021-04-03T14:38:39.674Z</time>
      </trkpt>
      <trkpt lat="45.60162" lon="5.30165">
        <ele>302</ele>
        <time>2021-04-03T14:38:40.674Z</time>
      </trkpt>
      <trkpt lat="45.60165" lon="5.30161">
        <ele>302</ele>
        <time>2021-04-03T14:38:41.674Z</time>
      </trkpt>
      <trkpt lat="45.60168" lon="5.30157">
        <ele>302</ele>
        <time>2021-04-03T14:38:42.674Z</time>
      </trkpt>
      <trkpt lat="45.60172" lon="5.30154">
        <ele>302</ele>
        <time>2021-04-03T14:38:43.674Z</time>
      </trkpt>
      <trkpt lat="45.60175" lon="5.30151">
        <ele>303</ele>
        <time>2021-04-03T14:38:44.673Z</time>
      </trkpt>
      <trkpt lat="45.60178" lon="5.30147">
        <ele>303</ele>
        <time>2021-04-03T14:38:45.674Z</time>
      </trkpt>
      <trkpt lat="45.60182" lon="5.30144">
        <ele>303</ele>
        <time>2021-04-03T14:38:46.674Z</time>
      </trkpt>
      <trkpt lat="45.60185" lon="5.30141">
        <ele>303</ele>
        <time>2021-04-03T14:38:47.674Z</time>
      </trkpt>
      <trkpt lat="45.60188" lon="5.30137">
        <ele>304</ele>
        <time>2021-04-03T14:38:48.674Z</time>
      </trkpt>
      <trkpt lat="45.60191" lon="5.30133">
        <ele>304</ele>
        <time>2021-04-03T14:38:49.673Z</time>
      </trkpt>
      <trkpt lat="45.60194" lon="5.3013">
        <ele>304</ele>
        <time>2021-04-03T14:38:50.674Z</time>
      </trkpt>
      <trkpt lat="45.60197" lon="5.30127">
        <ele>304</ele>
        <time>2021-04-03T14:38:51.673Z</time>
      </trkpt>
      <trkpt lat="45.60201" lon="5.30124">
        <ele>304</ele>
        <time>2021-04-03T14:38:52.674Z</time>
      </trkpt>
      <trkpt lat="45.60204" lon="5.30122">
        <ele>304</ele>
        <time>2021-04-03T14:38:53.674Z</time>
      </trkpt>
      <trkpt lat="45.60207" lon="5.3012">
        <ele>304</ele>
        <time>2021-04-03T14:38:54.674Z</time>
      </trkpt>
      <trkpt lat="45.6021" lon="5.30118">
        <ele>304</ele>
        <time>2021-04-03T14:38:55.674Z</time>
      </trkpt>
      <trkpt lat="45.60214" lon="5.30116">
        <ele>304</ele>
        <time>2021-04-03T14:38:56.674Z</time>
      </trkpt>
      <trkpt lat="45.60217" lon="5.30115">
        <ele>304</ele>
        <time>2021-04-03T14:38:57.674Z</time>
      </trkpt>
      <trkpt lat="45.6022" lon="5.30113">
        <ele>305</ele>
        <time>2021-04-03T14:38:58.674Z</time>
      </trkpt>
      <trkpt lat="45.60224" lon="5.30112">
        <ele>305</ele>
        <time>2021-04-03T14:38:59.674Z</time>
      </trkpt>
      <trkpt lat="45.60227" lon="5.30112">
        <ele>305</ele>
        <time>2021-04-03T14:39:00.673Z</time>
      </trkpt>
      <trkpt lat="45.60231" lon="5.30113">
        <ele>305</ele>
        <time>2021-04-03T14:39:01.673Z</time>
      </trkpt>
      <trkpt lat="45.60234" lon="5.30114">
        <ele>305</ele>
        <time>2021-04-03T14:39:02.674Z</time>
      </trkpt>
      <trkpt lat="45.60237" lon="5.30115">
        <ele>305</ele>
        <time>2021-04-03T14:39:03.674Z</time>
      </trkpt>
      <trkpt lat="45.6024" lon="5.30116">
        <ele>305</ele>
        <time>2021-04-03T14:39:04.673Z</time>
      </trkpt>
      <trkpt lat="45.60243" lon="5.30118">
        <ele>305</ele>
        <time>2021-04-03T14:39:05.674Z</time>
      </trkpt>
      <trkpt lat="45.60246" lon="5.30119">
        <ele>305</ele>
        <time>2021-04-03T14:39:06.673Z</time>
      </trkpt>
      <trkpt lat="45.6025" lon="5.30121">
        <ele>306</ele>
        <time>2021-04-03T14:39:07.674Z</time>
      </trkpt>
      <trkpt lat="45.60253" lon="5.30123">
        <ele>306</ele>
        <time>2021-04-03T14:39:08.674Z</time>
      </trkpt>
      <trkpt lat="45.60256" lon="5.30125">
        <ele>307</ele>
        <time>2021-04-03T14:39:09.673Z</time>
      </trkpt>
      <trkpt lat="45.60258" lon="5.30126">
        <ele>307</ele>
        <time>2021-04-03T14:39:10.673Z</time>
      </trkpt>
      <trkpt lat="45.60261" lon="5.30129">
        <ele>308</ele>
        <time>2021-04-03T14:39:11.674Z</time>
      </trkpt>
      <trkpt lat="45.60263" lon="5.30131">
        <ele>309</ele>
        <time>2021-04-03T14:39:12.674Z</time>
      </trkpt>
      <trkpt lat="45.60265" lon="5.30133">
        <ele>309</ele>
        <time>2021-04-03T14:39:13.674Z</time>
      </trkpt>
      <trkpt lat="45.60267" lon="5.30135">
        <ele>310</ele>
        <time>2021-04-03T14:39:14.674Z</time>
      </trkpt>
      <trkpt lat="45.6027" lon="5.30139">
        <ele>310</ele>
        <time>2021-04-03T14:39:15.674Z</time>
      </trkpt>
      <trkpt lat="45.60271" lon="5.30142">
        <ele>310</ele>
        <time>2021-04-03T14:39:16.674Z</time>
      </trkpt>
      <trkpt lat="45.60273" lon="5.30145">
        <ele>311</ele>
        <time>2021-04-03T14:39:17.674Z</time>
      </trkpt>
      <trkpt lat="45.60274" lon="5.30148">
        <ele>311</ele>
        <time>2021-04-03T14:39:18.673Z</time>
      </trkpt>
      <trkpt lat="45.60276" lon="5.30152">
        <ele>312</ele>
        <time>2021-04-03T14:39:19.674Z</time>
      </trkpt>
      <trkpt lat="45.60277" lon="5.30156">
        <ele>312</ele>
        <time>2021-04-03T14:39:20.674Z</time>
      </trkpt>
      <trkpt lat="45.60277" lon="5.3016">
        <ele>312</ele>
        <time>2021-04-03T14:39:21.674Z</time>
      </trkpt>
      <trkpt lat="45.60277" lon="5.30164">
        <ele>312</ele>
        <time>2021-04-03T14:39:22.674Z</time>
      </trkpt>
      <trkpt lat="45.60275" lon="5.30168">
        <ele>313</ele>
        <time>2021-04-03T14:39:23.674Z</time>
      </trkpt>
      <trkpt lat="45.60274" lon="5.30172">
        <ele>313</ele>
        <time>2021-04-03T14:39:24.674Z</time>
      </trkpt>
      <trkpt lat="45.60274" lon="5.30176">
        <ele>314</ele>
        <time>2021-04-03T14:39:25.674Z</time>
      </trkpt>
      <trkpt lat="45.60274" lon="5.30179">
        <ele>315</ele>
        <time>2021-04-03T14:39:26.674Z</time>
      </trkpt>
      <trkpt lat="45.60275" lon="5.30183">
        <ele>316</ele>
        <time>2021-04-03T14:39:27.674Z</time>
      </trkpt>
      <trkpt lat="45.60276" lon="5.30187">
        <ele>317</ele>
        <time>2021-04-03T14:39:28.674Z</time>
      </trkpt>
      <trkpt lat="45.60279" lon="5.30191">
        <ele>318</ele>
        <time>2021-04-03T14:39:29.674Z</time>
      </trkpt>
      <trkpt lat="45.60281" lon="5.30195">
        <ele>319</ele>
        <time>2021-04-03T14:39:30.674Z</time>
      </trkpt>
      <trkpt lat="45.60284" lon="5.30198">
        <ele>320</ele>
        <time>2021-04-03T14:39:31.673Z</time>
      </trkpt>
      <trkpt lat="45.60286" lon="5.302">
        <ele>321</ele>
        <time>2021-04-03T14:39:32.673Z</time>
      </trkpt>
      <trkpt lat="45.60288" lon="5.30203">
        <ele>321</ele>
        <time>2021-04-03T14:39:33.674Z</time>
      </trkpt>
      <trkpt lat="45.60289" lon="5.30206">
        <ele>322</ele>
        <time>2021-04-03T14:39:34.674Z</time>
      </trkpt>
      <trkpt lat="45.60291" lon="5.30209">
        <ele>322</ele>
        <time>2021-04-03T14:39:35.674Z</time>
      </trkpt>
      <trkpt lat="45.60292" lon="5.30213">
        <ele>323</ele>
        <time>2021-04-03T14:39:36.674Z</time>
      </trkpt>
      <trkpt lat="45.60293" lon="5.30217">
        <ele>323</ele>
        <time>2021-04-03T14:39:37.674Z</time>
      </trkpt>
      <trkpt lat="45.60294" lon="5.30221">
        <ele>324</ele>
        <time>2021-04-03T14:39:38.674Z</time>
      </trkpt>
      <trkpt lat="45.60295" lon="5.30225">
        <ele>325</ele>
        <time>2021-04-03T14:39:39.674Z</time>
      </trkpt>
      <trkpt lat="45.60295" lon="5.30229">
        <ele>325</ele>
        <time>2021-04-03T14:39:40.673Z</time>
      </trkpt>
      <trkpt lat="45.60296" lon="5.30233">
        <ele>326</ele>
        <time>2021-04-03T14:39:41.674Z</time>
      </trkpt>
      <trkpt lat="45.60297" lon="5.30237">
        <ele>327</ele>
        <time>2021-04-03T14:39:42.673Z</time>
      </trkpt>
      <trkpt lat="45.60299" lon="5.30241">
        <ele>328</ele>
        <time>2021-04-03T14:39:43.674Z</time>
      </trkpt>
      <trkpt lat="45.60301" lon="5.30245">
        <ele>329</ele>
        <time>2021-04-03T14:39:44.674Z</time>
      </trkpt>
      <trkpt lat="45.60303" lon="5.30249">
        <ele>329</ele>
        <time>2021-04-03T14:39:45.674Z</time>
      </trkpt>
      <trkpt lat="45.60304" lon="5.30253">
        <ele>329</ele>
        <time>2021-04-03T14:39:46.673Z</time>
      </trkpt>
      <trkpt lat="45.60306" lon="5.30257">
        <ele>330</ele>
        <time>2021-04-03T14:39:47.674Z</time>
      </trkpt>
      <trkpt lat="45.60308" lon="5.30261">
        <ele>330</ele>
        <time>2021-04-03T14:39:48.674Z</time>
      </trkpt>
      <trkpt lat="45.6031" lon="5.30264">
        <ele>330</ele>
        <time>2021-04-03T14:39:49.674Z</time>
      </trkpt>
      <trkpt lat="45.60311" lon="5.30267">
        <ele>330</ele>
        <time>2021-04-03T14:39:50.674Z</time>
      </trkpt>
      <trkpt lat="45.60313" lon="5.3027">
        <ele>330</ele>
        <time>2021-04-03T14:39:51.674Z</time>
      </trkpt>
      <trkpt lat="45.60314" lon="5.30273">
        <ele>330</ele>
        <time>2021-04-03T14:39:52.674Z</time>
      </trkpt>
      <trkpt lat="45.60315" lon="5.30277">
        <ele>331</ele>
        <time>2021-04-03T14:39:53.673Z</time>
      </trkpt>
      <trkpt lat="45.60314" lon="5.3028">
        <ele>332</ele>
        <time>2021-04-03T14:39:54.674Z</time>
      </trkpt>
      <trkpt lat="45.60313" lon="5.30283">
        <ele>332</ele>
        <time>2021-04-03T14:39:55.674Z</time>
      </trkpt>
      <trkpt lat="45.60311" lon="5.30286">
        <ele>333</ele>
        <time>2021-04-03T14:39:56.674Z</time>
      </trkpt>
      <trkpt lat="45.60309" lon="5.30289">
        <ele>333</ele>
        <time>2021-04-03T14:39:57.674Z</time>
      </trkpt>
      <trkpt lat="45.60306" lon="5.30292">
        <ele>333</ele>
        <time>2021-04-03T14:39:58.673Z</time>
      </trkpt>
      <trkpt lat="45.60304" lon="5.30296">
        <ele>334</ele>
        <time>2021-04-03T14:39:59.674Z</time>
      </trkpt>
      <trkpt lat="45.60302" lon="5.30299">
        <ele>334</ele>
        <time>2021-04-03T14:40:00.674Z</time>
      </trkpt>
      <trkpt lat="45.60301" lon="5.30303">
        <ele>334</ele>
        <time>2021-04-03T14:40:01.674Z</time>
      </trkpt>
      <trkpt lat="45.60299" lon="5.30307">
        <ele>333</ele>
        <time>2021-04-03T14:40:02.674Z</time>
      </trkpt>
      <trkpt lat="45.60297" lon="5.30311">
        <ele>333</ele>
        <time>2021-04-03T14:40:03.674Z</time>
      </trkpt>
      <trkpt lat="45.60295" lon="5.30316">
        <ele>333</ele>
        <time>2021-04-03T14:40:04.674Z</time>
      </trkpt>
      <trkpt lat="45.60294" lon="5.30321">
        <ele>332</ele>
        <time>2021-04-03T14:40:05.674Z</time>
      </trkpt>
      <trkpt lat="45.60292" lon="5.30325">
        <ele>332</ele>
        <time>2021-04-03T14:40:06.674Z</time>
      </trkpt>
      <trkpt lat="45.60291" lon="5.3033">
        <ele>332</ele>
        <time>2021-04-03T14:40:07.674Z</time>
      </trkpt>
      <trkpt lat="45.60291" lon="5.30334">
        <ele>332</ele>
        <time>2021-04-03T14:40:08.674Z</time>
      </trkpt>
      <trkpt lat="45.60291" lon="5.30337">
        <ele>331</ele>
        <time>2021-04-03T14:40:09.674Z</time>
      </trkpt>
      <trkpt lat="45.60292" lon="5.3034">
        <ele>331</ele>
        <time>2021-04-03T14:40:10.674Z</time>
      </trkpt>
      <trkpt lat="45.60294" lon="5.30341">
        <ele>331</ele>
        <time>2021-04-03T14:40:11.674Z</time>
      </trkpt>
      <trkpt lat="45.60296" lon="5.30343">
        <ele>331</ele>
        <time>2021-04-03T14:40:12.674Z</time>
      </trkpt>
      <trkpt lat="45.60298" lon="5.30345">
        <ele>331</ele>
        <time>2021-04-03T14:40:13.674Z</time>
      </trkpt>
      <trkpt lat="45.60301" lon="5.30347">
        <ele>331</ele>
        <time>2021-04-03T14:40:14.674Z</time>
      </trkpt>
      <trkpt lat="45.60305" lon="5.30349">
        <ele>331</ele>
        <time>2021-04-03T14:40:15.674Z</time>
      </trkpt>
      <trkpt lat="45.60308" lon="5.30351">
        <ele>331</ele>
        <time>2021-04-03T14:40:16.674Z</time>
      </trkpt>
      <trkpt lat="45.60312" lon="5.30353">
        <ele>331</ele>
        <time>2021-04-03T14:40:17.674Z</time>
      </trkpt>
      <trkpt lat="45.60316" lon="5.30355">
        <ele>331</ele>
        <time>2021-04-03T14:40:18.674Z</time>
      </trkpt>
      <trkpt lat="45.60319" lon="5.30355">
        <ele>331</ele>
        <time>2021-04-03T14:40:19.674Z</time>
      </trkpt>
      <trkpt lat="45.60323" lon="5.30355">
        <ele>332</ele>
        <time>2021-04-03T14:40:20.673Z</time>
      </trkpt>
      <trkpt lat="45.60326" lon="5.30353">
        <ele>333</ele>
        <time>2021-04-03T14:40:21.674Z</time>
      </trkpt>
      <trkpt lat="45.60328" lon="5.3035">
        <ele>333</ele>
        <time>2021-04-03T14:40:22.673Z</time>
      </trkpt>
      <trkpt lat="45.6033" lon="5.30347">
        <ele>333</ele>
        <time>2021-04-03T14:40:23.673Z</time>
      </trkpt>
      <trkpt lat="45.60332" lon="5.30341">
        <ele>334</ele>
        <time>2021-04-03T14:40:24.673Z</time>
      </trkpt>
      <trkpt lat="45.60334" lon="5.30336">
        <ele>334</ele>
        <time>2021-04-03T14:40:25.673Z</time>
      </trkpt>
      <trkpt lat="45.60334" lon="5.30329">
        <ele>334</ele>
        <time>2021-04-03T14:40:26.674Z</time>
      </trkpt>
      <trkpt lat="45.60335" lon="5.30323">
        <ele>335</ele>
        <time>2021-04-03T14:40:27.674Z</time>
      </trkpt>
      <trkpt lat="45.60337" lon="5.30318">
        <ele>335</ele>
        <time>2021-04-03T14:40:28.674Z</time>
      </trkpt>
      <trkpt lat="45.6034" lon="5.30314">
        <ele>335</ele>
        <time>2021-04-03T14:40:29.674Z</time>
      </trkpt>
      <trkpt lat="45.60342" lon="5.3031">
        <ele>335</ele>
        <time>2021-04-03T14:40:30.673Z</time>
      </trkpt>
      <trkpt lat="45.60344" lon="5.30305">
        <ele>335</ele>
        <time>2021-04-03T14:40:31.674Z</time>
      </trkpt>
      <trkpt lat="45.60346" lon="5.303">
        <ele>335</ele>
        <time>2021-04-03T14:40:32.674Z</time>
      </trkpt>
      <trkpt lat="45.60348" lon="5.30295">
        <ele>335</ele>
        <time>2021-04-03T14:40:33.674Z</time>
      </trkpt>
      <trkpt lat="45.6035" lon="5.3029">
        <ele>334</ele>
        <time>2021-04-03T14:40:34.674Z</time>
      </trkpt>
      <trkpt lat="45.60352" lon="5.30285">
        <ele>334</ele>
        <time>2021-04-03T14:40:35.674Z</time>
      </trkpt>
      <trkpt lat="45.60354" lon="5.30281">
        <ele>334</ele>
        <time>2021-04-03T14:40:36.674Z</time>
      </trkpt>
      <trkpt lat="45.60356" lon="5.30277">
        <ele>334</ele>
        <time>2021-04-03T14:40:37.673Z</time>
      </trkpt>
      <trkpt lat="45.60358" lon="5.30274">
        <ele>333</ele>
        <time>2021-04-03T14:40:38.674Z</time>
      </trkpt>
      <trkpt lat="45.6036" lon="5.30271">
        <ele>334</ele>
        <time>2021-04-03T14:40:39.674Z</time>
      </trkpt>
      <trkpt lat="45.60363" lon="5.30269">
        <ele>334</ele>
        <time>2021-04-03T14:40:40.673Z</time>
      </trkpt>
      <trkpt lat="45.60366" lon="5.30268">
        <ele>334</ele>
        <time>2021-04-03T14:40:41.673Z</time>
      </trkpt>
      <trkpt lat="45.60369" lon="5.30267">
        <ele>334</ele>
        <time>2021-04-03T14:40:42.674Z</time>
      </trkpt>
      <trkpt lat="45.60373" lon="5.30266">
        <ele>335</ele>
        <time>2021-04-03T14:40:43.674Z</time>
      </trkpt>
      <trkpt lat="45.60376" lon="5.30266">
        <ele>335</ele>
        <time>2021-04-03T14:40:44.674Z</time>
      </trkpt>
      <trkpt lat="45.60379" lon="5.30266">
        <ele>336</ele>
        <time>2021-04-03T14:40:45.674Z</time>
      </trkpt>
      <trkpt lat="45.60382" lon="5.30266">
        <ele>337</ele>
        <time>2021-04-03T14:40:46.673Z</time>
      </trkpt>
      <trkpt lat="45.60385" lon="5.30266">
        <ele>337</ele>
        <time>2021-04-03T14:40:47.673Z</time>
      </trkpt>
      <trkpt lat="45.60387" lon="5.30266">
        <ele>338</ele>
        <time>2021-04-03T14:40:48.673Z</time>
      </trkpt>
      <trkpt lat="45.6039" lon="5.30266">
        <ele>338</ele>
        <time>2021-04-03T14:40:49.673Z</time>
      </trkpt>
      <trkpt lat="45.60393" lon="5.30267">
        <ele>338</ele>
        <time>2021-04-03T14:40:50.674Z</time>
      </trkpt>
      <trkpt lat="45.60396" lon="5.30267">
        <ele>338</ele>
        <time>2021-04-03T14:40:51.673Z</time>
      </trkpt>
      <trkpt lat="45.60399" lon="5.30268">
        <ele>338</ele>
        <time>2021-04-03T14:40:52.673Z</time>
      </trkpt>
      <trkpt lat="45.60402" lon="5.30268">
        <ele>338</ele>
        <time>2021-04-03T14:40:53.674Z</time>
      </trkpt>
      <trkpt lat="45.60404" lon="5.30268">
        <ele>338</ele>
        <time>2021-04-03T14:40:54.673Z</time>
      </trkpt>
      <trkpt lat="45.60407" lon="5.30269">
        <ele>338</ele>
        <time>2021-04-03T14:40:55.673Z</time>
      </trkpt>
      <trkpt lat="45.6041" lon="5.30269">
        <ele>339</ele>
        <time>2021-04-03T14:40:56.674Z</time>
      </trkpt>
      <trkpt lat="45.60413" lon="5.3027">
        <ele>339</ele>
        <time>2021-04-03T14:40:57.674Z</time>
      </trkpt>
      <trkpt lat="45.60416" lon="5.30271">
        <ele>339</ele>
        <time>2021-04-03T14:40:58.674Z</time>
      </trkpt>
      <trkpt lat="45.6042" lon="5.30272">
        <ele>339</ele>
        <time>2021-04-03T14:40:59.674Z</time>
      </trkpt>
      <trkpt lat="45.60423" lon="5.30273">
        <ele>340</ele>
        <time>2021-04-03T14:41:00.673Z</time>
      </trkpt>
      <trkpt lat="45.60426" lon="5.30273">
        <ele>340</ele>
        <time>2021-04-03T14:41:01.673Z</time>
      </trkpt>
      <trkpt lat="45.60429" lon="5.30273">
        <ele>340</ele>
        <time>2021-04-03T14:41:02.674Z</time>
      </trkpt>
      <trkpt lat="45.60432" lon="5.30274">
        <ele>341</ele>
        <time>2021-04-03T14:41:03.674Z</time>
      </trkpt>
      <trkpt lat="45.60435" lon="5.30274">
        <ele>341</ele>
        <time>2021-04-03T14:41:04.674Z</time>
      </trkpt>
      <trkpt lat="45.60439" lon="5.30274">
        <ele>341</ele>
        <time>2021-04-03T14:41:05.673Z</time>
      </trkpt>
      <trkpt lat="45.60442" lon="5.30275">
        <ele>341</ele>
        <time>2021-04-03T14:41:06.673Z</time>
      </trkpt>
      <trkpt lat="45.60446" lon="5.30275">
        <ele>341</ele>
        <time>2021-04-03T14:41:07.673Z</time>
      </trkpt>
      <trkpt lat="45.60449" lon="5.30275">
        <ele>342</ele>
        <time>2021-04-03T14:41:08.674Z</time>
      </trkpt>
      <trkpt lat="45.60452" lon="5.30275">
        <ele>343</ele>
        <time>2021-04-03T14:41:09.674Z</time>
      </trkpt>
      <trkpt lat="45.60455" lon="5.30276">
        <ele>343</ele>
        <time>2021-04-03T14:41:10.673Z</time>
      </trkpt>
      <trkpt lat="45.60458" lon="5.30276">
        <ele>344</ele>
        <time>2021-04-03T14:41:11.674Z</time>
      </trkpt>
      <trkpt lat="45.60461" lon="5.30277">
        <ele>344</ele>
        <time>2021-04-03T14:41:12.674Z</time>
      </trkpt>
      <trkpt lat="45.60465" lon="5.30277">
        <ele>344</ele>
        <time>2021-04-03T14:41:13.674Z</time>
      </trkpt>
      <trkpt lat="45.60468" lon="5.30278">
        <ele>344</ele>
        <time>2021-04-03T14:41:14.674Z</time>
      </trkpt>
      <trkpt lat="45.60471" lon="5.30278">
        <ele>344</ele>
        <time>2021-04-03T14:41:15.673Z</time>
      </trkpt>
      <trkpt lat="45.60474" lon="5.30279">
        <ele>345</ele>
        <time>2021-04-03T14:41:16.674Z</time>
      </trkpt>
      <trkpt lat="45.60478" lon="5.30279">
        <ele>345</ele>
        <time>2021-04-03T14:41:17.673Z</time>
      </trkpt>
      <trkpt lat="45.60481" lon="5.30279">
        <ele>345</ele>
        <time>2021-04-03T14:41:18.673Z</time>
      </trkpt>
      <trkpt lat="45.60484" lon="5.3028">
        <ele>345</ele>
        <time>2021-04-03T14:41:19.674Z</time>
      </trkpt>
      <trkpt lat="45.60488" lon="5.3028">
        <ele>345</ele>
        <time>2021-04-03T14:41:20.673Z</time>
      </trkpt>
      <trkpt lat="45.60491" lon="5.30281">
        <ele>346</ele>
        <time>2021-04-03T14:41:21.673Z</time>
      </trkpt>
      <trkpt lat="45.60495" lon="5.30281">
        <ele>346</ele>
        <time>2021-04-03T14:41:22.673Z</time>
      </trkpt>
      <trkpt lat="45.60498" lon="5.30282">
        <ele>347</ele>
        <time>2021-04-03T14:41:23.673Z</time>
      </trkpt>
      <trkpt lat="45.60501" lon="5.30282">
        <ele>347</ele>
        <time>2021-04-03T14:41:24.674Z</time>
      </trkpt>
      <trkpt lat="45.60505" lon="5.30283">
        <ele>348</ele>
        <time>2021-04-03T14:41:25.674Z</time>
      </trkpt>
      <trkpt lat="45.60508" lon="5.30283">
        <ele>348</ele>
        <time>2021-04-03T14:41:26.674Z</time>
      </trkpt>
      <trkpt lat="45.60511" lon="5.30284">
        <ele>348</ele>
        <time>2021-04-03T14:41:27.673Z</time>
      </trkpt>
      <trkpt lat="45.60515" lon="5.30285">
        <ele>348</ele>
        <time>2021-04-03T14:41:28.674Z</time>
      </trkpt>
      <trkpt lat="45.60518" lon="5.30286">
        <ele>348</ele>
        <time>2021-04-03T14:41:29.673Z</time>
      </trkpt>
      <trkpt lat="45.60521" lon="5.30287">
        <ele>348</ele>
        <time>2021-04-03T14:41:30.674Z</time>
      </trkpt>
      <trkpt lat="45.60525" lon="5.30288">
        <ele>348</ele>
        <time>2021-04-03T14:41:31.673Z</time>
      </trkpt>
      <trkpt lat="45.60528" lon="5.30289">
        <ele>349</ele>
        <time>2021-04-03T14:41:32.674Z</time>
      </trkpt>
      <trkpt lat="45.6053" lon="5.30291">
        <ele>349</ele>
        <time>2021-04-03T14:41:33.674Z</time>
      </trkpt>
      <trkpt lat="45.60533" lon="5.30293">
        <ele>349</ele>
        <time>2021-04-03T14:41:34.674Z</time>
      </trkpt>
      <trkpt lat="45.60534" lon="5.30294">
        <ele>350</ele>
        <time>2021-04-03T14:41:35.673Z</time>
      </trkpt>
      <trkpt lat="45.60535" lon="5.30295">
        <ele>350</ele>
        <time>2021-04-03T14:41:36.674Z</time>
      </trkpt>
      <trkpt lat="45.60535" lon="5.30296">
        <ele>350</ele>
        <time>2021-04-03T14:41:37.673Z</time>
      </trkpt>
      <trkpt lat="45.60535" lon="5.30296">
        <ele>351</ele>
        <time>2021-04-03T14:41:38.674Z</time>
      </trkpt>
      <trkpt lat="45.60536" lon="5.30298">
        <ele>350</ele>
        <time>2021-04-03T14:41:39.674Z</time>
      </trkpt>
      <trkpt lat="45.60537" lon="5.303">
        <ele>350</ele>
        <time>2021-04-03T14:41:40.675Z</time>
      </trkpt>
      <trkpt lat="45.60539" lon="5.30301">
        <ele>350</ele>
        <time>2021-04-03T14:41:41.675Z</time>
      </trkpt>
      <trkpt lat="45.60541" lon="5.30301">
        <ele>350</ele>
        <time>2021-04-03T14:41:42.675Z</time>
      </trkpt>
      <trkpt lat="45.60543" lon="5.303">
        <ele>350</ele>
        <time>2021-04-03T14:41:43.675Z</time>
      </trkpt>
      <trkpt lat="45.60545" lon="5.30298">
        <ele>350</ele>
        <time>2021-04-03T14:41:44.674Z</time>
      </trkpt>
      <trkpt lat="45.60547" lon="5.30296">
        <ele>350</ele>
        <time>2021-04-03T14:41:45.674Z</time>
      </trkpt>
      <trkpt lat="45.6055" lon="5.30294">
        <ele>350</ele>
        <time>2021-04-03T14:41:46.675Z</time>
      </trkpt>
      <trkpt lat="45.60553" lon="5.30294">
        <ele>350</ele>
        <time>2021-04-03T14:41:47.675Z</time>
      </trkpt>
      <trkpt lat="45.60557" lon="5.30296">
        <ele>350</ele>
        <time>2021-04-03T14:41:48.675Z</time>
      </trkpt>
      <trkpt lat="45.60561" lon="5.30297">
        <ele>350</ele>
        <time>2021-04-03T14:41:49.675Z</time>
      </trkpt>
      <trkpt lat="45.60566" lon="5.30298">
        <ele>350</ele>
        <time>2021-04-03T14:41:50.675Z</time>
      </trkpt>
      <trkpt lat="45.60571" lon="5.30299">
        <ele>350</ele>
        <time>2021-04-03T14:41:51.675Z</time>
      </trkpt>
      <trkpt lat="45.60576" lon="5.303">
        <ele>350</ele>
        <time>2021-04-03T14:41:52.675Z</time>
      </trkpt>
      <trkpt lat="45.60581" lon="5.303">
        <ele>351</ele>
        <time>2021-04-03T14:41:53.674Z</time>
      </trkpt>
      <trkpt lat="45.60586" lon="5.30302">
        <ele>351</ele>
        <time>2021-04-03T14:41:54.674Z</time>
      </trkpt>
      <trkpt lat="45.6059" lon="5.30302">
        <ele>351</ele>
        <time>2021-04-03T14:41:55.675Z</time>
      </trkpt>
      <trkpt lat="45.60597" lon="5.30304">
        <ele>351</ele>
        <time>2021-04-03T14:41:56.675Z</time>
      </trkpt>
      <trkpt lat="45.60602" lon="5.30304">
        <ele>351</ele>
        <time>2021-04-03T14:41:57.675Z</time>
      </trkpt>
      <trkpt lat="45.60608" lon="5.30304">
        <ele>351</ele>
        <time>2021-04-03T14:41:58.674Z</time>
      </trkpt>
      <trkpt lat="45.60614" lon="5.30304">
        <ele>351</ele>
        <time>2021-04-03T14:41:59.675Z</time>
      </trkpt>
      <trkpt lat="45.6062" lon="5.30305">
        <ele>350</ele>
        <time>2021-04-03T14:42:00.675Z</time>
      </trkpt>
      <trkpt lat="45.60627" lon="5.30305">
        <ele>350</ele>
        <time>2021-04-03T14:42:01.674Z</time>
      </trkpt>
      <trkpt lat="45.60634" lon="5.30306">
        <ele>350</ele>
        <time>2021-04-03T14:42:02.675Z</time>
      </trkpt>
      <trkpt lat="45.60641" lon="5.30307">
        <ele>350</ele>
        <time>2021-04-03T14:42:03.674Z</time>
      </trkpt>
      <trkpt lat="45.60648" lon="5.30308">
        <ele>350</ele>
        <time>2021-04-03T14:42:04.675Z</time>
      </trkpt>
      <trkpt lat="45.60656" lon="5.30308">
        <ele>349</ele>
        <time>2021-04-03T14:42:05.674Z</time>
      </trkpt>
      <trkpt lat="45.60663" lon="5.30309">
        <ele>349</ele>
        <time>2021-04-03T14:42:06.674Z</time>
      </trkpt>
      <trkpt lat="45.60671" lon="5.30309">
        <ele>349</ele>
        <time>2021-04-03T14:42:07.675Z</time>
      </trkpt>
      <trkpt lat="45.60678" lon="5.3031">
        <ele>349</ele>
        <time>2021-04-03T14:42:08.675Z</time>
      </trkpt>
      <trkpt lat="45.60685" lon="5.3031">
        <ele>348</ele>
        <time>2021-04-03T14:42:09.675Z</time>
      </trkpt>
      <trkpt lat="45.60692" lon="5.30311">
        <ele>348</ele>
        <time>2021-04-03T14:42:10.674Z</time>
      </trkpt>
      <trkpt lat="45.60699" lon="5.30312">
        <ele>348</ele>
        <time>2021-04-03T14:42:11.675Z</time>
      </trkpt>
      <trkpt lat="45.60705" lon="5.30313">
        <ele>348</ele>
        <time>2021-04-03T14:42:12.675Z</time>
      </trkpt>
      <trkpt lat="45.60712" lon="5.30314">
        <ele>347</ele>
        <time>2021-04-03T14:42:13.675Z</time>
      </trkpt>
      <trkpt lat="45.60718" lon="5.30316">
        <ele>347</ele>
        <time>2021-04-03T14:42:14.674Z</time>
      </trkpt>
      <trkpt lat="45.60725" lon="5.30318">
        <ele>346</ele>
        <time>2021-04-03T14:42:15.675Z</time>
      </trkpt>
      <trkpt lat="45.60731" lon="5.30319">
        <ele>346</ele>
        <time>2021-04-03T14:42:16.675Z</time>
      </trkpt>
      <trkpt lat="45.60736" lon="5.3032">
        <ele>345</ele>
        <time>2021-04-03T14:42:17.675Z</time>
      </trkpt>
      <trkpt lat="45.6074" lon="5.30322">
        <ele>345</ele>
        <time>2021-04-03T14:42:18.675Z</time>
      </trkpt>
      <trkpt lat="45.60743" lon="5.30323">
        <ele>345</ele>
        <time>2021-04-03T14:42:19.674Z</time>
      </trkpt>
      <trkpt lat="45.60746" lon="5.30326">
        <ele>344</ele>
        <time>2021-04-03T14:42:20.675Z</time>
      </trkpt>
      <trkpt lat="45.60748" lon="5.30331">
        <ele>344</ele>
        <time>2021-04-03T14:42:21.675Z</time>
      </trkpt>
      <trkpt lat="45.60749" lon="5.30337">
        <ele>343</ele>
        <time>2021-04-03T14:42:22.675Z</time>
      </trkpt>
      <trkpt lat="45.60751" lon="5.30344">
        <ele>343</ele>
        <time>2021-04-03T14:42:23.675Z</time>
      </trkpt>
      <trkpt lat="45.60752" lon="5.30352">
        <ele>342</ele>
        <time>2021-04-03T14:42:24.674Z</time>
      </trkpt>
      <trkpt lat="45.60754" lon="5.30361">
        <ele>342</ele>
        <time>2021-04-03T14:42:25.675Z</time>
      </trkpt>
      <trkpt lat="45.60756" lon="5.30371">
        <ele>341</ele>
        <time>2021-04-03T14:42:26.674Z</time>
      </trkpt>
      <trkpt lat="45.60759" lon="5.30381">
        <ele>341</ele>
        <time>2021-04-03T14:42:27.675Z</time>
      </trkpt>
      <trkpt lat="45.60761" lon="5.30392">
        <ele>341</ele>
        <time>2021-04-03T14:42:28.675Z</time>
      </trkpt>
      <trkpt lat="45.60764" lon="5.30404">
        <ele>341</ele>
        <time>2021-04-03T14:42:29.675Z</time>
      </trkpt>
      <trkpt lat="45.60767" lon="5.30416">
        <ele>341</ele>
        <time>2021-04-03T14:42:30.675Z</time>
      </trkpt>
      <trkpt lat="45.6077" lon="5.30429">
        <ele>341</ele>
        <time>2021-04-03T14:42:31.675Z</time>
      </trkpt>
      <trkpt lat="45.60773" lon="5.30442">
        <ele>341</ele>
        <time>2021-04-03T14:42:32.674Z</time>
      </trkpt>
      <trkpt lat="45.60776" lon="5.30454">
        <ele>342</ele>
        <time>2021-04-03T14:42:33.675Z</time>
      </trkpt>
      <trkpt lat="45.60779" lon="5.30466">
        <ele>342</ele>
        <time>2021-04-03T14:42:34.675Z</time>
      </trkpt>
      <trkpt lat="45.60783" lon="5.30478">
        <ele>342</ele>
        <time>2021-04-03T14:42:35.675Z</time>
      </trkpt>
      <trkpt lat="45.60787" lon="5.30491">
        <ele>342</ele>
        <time>2021-04-03T14:42:36.675Z</time>
      </trkpt>
      <trkpt lat="45.60791" lon="5.30503">
        <ele>343</ele>
        <time>2021-04-03T14:42:37.674Z</time>
      </trkpt>
      <trkpt lat="45.60795" lon="5.30515">
        <ele>343</ele>
        <time>2021-04-03T14:42:38.675Z</time>
      </trkpt>
      <trkpt lat="45.608" lon="5.30527">
        <ele>343</ele>
        <time>2021-04-03T14:42:39.675Z</time>
      </trkpt>
      <trkpt lat="45.60804" lon="5.3054">
        <ele>343</ele>
        <time>2021-04-03T14:42:40.674Z</time>
      </trkpt>
      <trkpt lat="45.60809" lon="5.30552">
        <ele>344</ele>
        <time>2021-04-03T14:42:41.674Z</time>
      </trkpt>
      <trkpt lat="45.60814" lon="5.30563">
        <ele>344</ele>
        <time>2021-04-03T14:42:42.675Z</time>
      </trkpt>
      <trkpt lat="45.60819" lon="5.30575">
        <ele>345</ele>
        <time>2021-04-03T14:42:43.675Z</time>
      </trkpt>
      <trkpt lat="45.60825" lon="5.30586">
        <ele>345</ele>
        <time>2021-04-03T14:42:44.674Z</time>
      </trkpt>
      <trkpt lat="45.60831" lon="5.30597">
        <ele>345</ele>
        <time>2021-04-03T14:42:45.675Z</time>
      </trkpt>
      <trkpt lat="45.60837" lon="5.30607">
        <ele>346</ele>
        <time>2021-04-03T14:42:46.675Z</time>
      </trkpt>
      <trkpt lat="45.60843" lon="5.30617">
        <ele>346</ele>
        <time>2021-04-03T14:42:47.675Z</time>
      </trkpt>
      <trkpt lat="45.60849" lon="5.30627">
        <ele>346</ele>
        <time>2021-04-03T14:42:48.675Z</time>
      </trkpt>
      <trkpt lat="45.60855" lon="5.30636">
        <ele>346</ele>
        <time>2021-04-03T14:42:49.675Z</time>
      </trkpt>
      <trkpt lat="45.60862" lon="5.30645">
        <ele>347</ele>
        <time>2021-04-03T14:42:50.674Z</time>
      </trkpt>
      <trkpt lat="45.60868" lon="5.30654">
        <ele>347</ele>
        <time>2021-04-03T14:42:51.674Z</time>
      </trkpt>
      <trkpt lat="45.60876" lon="5.30663">
        <ele>347</ele>
        <time>2021-04-03T14:42:52.674Z</time>
      </trkpt>
      <trkpt lat="45.60882" lon="5.30671">
        <ele>348</ele>
        <time>2021-04-03T14:42:53.675Z</time>
      </trkpt>
      <trkpt lat="45.60888" lon="5.3068">
        <ele>348</ele>
        <time>2021-04-03T14:42:54.675Z</time>
      </trkpt>
      <trkpt lat="45.60894" lon="5.30687">
        <ele>349</ele>
        <time>2021-04-03T14:42:55.674Z</time>
      </trkpt>
      <trkpt lat="45.609" lon="5.30695">
        <ele>350</ele>
        <time>2021-04-03T14:42:56.675Z</time>
      </trkpt>
      <trkpt lat="45.60906" lon="5.30703">
        <ele>350</ele>
        <time>2021-04-03T14:42:57.674Z</time>
      </trkpt>
      <trkpt lat="45.60912" lon="5.30711">
        <ele>351</ele>
        <time>2021-04-03T14:42:58.674Z</time>
      </trkpt>
      <trkpt lat="45.60918" lon="5.30719">
        <ele>351</ele>
        <time>2021-04-03T14:42:59.675Z</time>
      </trkpt>
      <trkpt lat="45.60923" lon="5.30727">
        <ele>351</ele>
        <time>2021-04-03T14:43:00.675Z</time>
      </trkpt>
      <trkpt lat="45.60928" lon="5.30735">
        <ele>351</ele>
        <time>2021-04-03T14:43:01.675Z</time>
      </trkpt>
      <trkpt lat="45.60933" lon="5.30743">
        <ele>352</ele>
        <time>2021-04-03T14:43:02.675Z</time>
      </trkpt>
      <trkpt lat="45.60937" lon="5.30751">
        <ele>352</ele>
        <time>2021-04-03T14:43:03.675Z</time>
      </trkpt>
      <trkpt lat="45.60942" lon="5.30759">
        <ele>352</ele>
        <time>2021-04-03T14:43:04.675Z</time>
      </trkpt>
      <trkpt lat="45.60946" lon="5.30768">
        <ele>352</ele>
        <time>2021-04-03T14:43:05.675Z</time>
      </trkpt>
      <trkpt lat="45.60949" lon="5.30778">
        <ele>353</ele>
        <time>2021-04-03T14:43:06.675Z</time>
      </trkpt>
      <trkpt lat="45.60953" lon="5.30787">
        <ele>353</ele>
        <time>2021-04-03T14:43:07.674Z</time>
      </trkpt>
      <trkpt lat="45.60958" lon="5.30796">
        <ele>353</ele>
        <time>2021-04-03T14:43:08.675Z</time>
      </trkpt>
      <trkpt lat="45.60962" lon="5.30806">
        <ele>354</ele>
        <time>2021-04-03T14:43:09.675Z</time>
      </trkpt>
      <trkpt lat="45.60967" lon="5.30816">
        <ele>354</ele>
        <time>2021-04-03T14:43:10.674Z</time>
      </trkpt>
      <trkpt lat="45.60971" lon="5.30825">
        <ele>354</ele>
        <time>2021-04-03T14:43:11.675Z</time>
      </trkpt>
      <trkpt lat="45.60976" lon="5.30835">
        <ele>354</ele>
        <time>2021-04-03T14:43:12.674Z</time>
      </trkpt>
      <trkpt lat="45.6098" lon="5.30846">
        <ele>354</ele>
        <time>2021-04-03T14:43:13.675Z</time>
      </trkpt>
      <trkpt lat="45.60985" lon="5.30856">
        <ele>353</ele>
        <time>2021-04-03T14:43:14.675Z</time>
      </trkpt>
      <trkpt lat="45.60989" lon="5.30867">
        <ele>352</ele>
        <time>2021-04-03T14:43:15.675Z</time>
      </trkpt>
      <trkpt lat="45.60994" lon="5.30877">
        <ele>351</ele>
        <time>2021-04-03T14:43:16.675Z</time>
      </trkpt>
      <trkpt lat="45.60999" lon="5.30887">
        <ele>351</ele>
        <time>2021-04-03T14:43:17.675Z</time>
      </trkpt>
      <trkpt lat="45.61004" lon="5.30898">
        <ele>351</ele>
        <time>2021-04-03T14:43:18.675Z</time>
      </trkpt>
      <trkpt lat="45.61009" lon="5.30908">
        <ele>351</ele>
        <time>2021-04-03T14:43:19.675Z</time>
      </trkpt>
      <trkpt lat="45.61014" lon="5.30919">
        <ele>351</ele>
        <time>2021-04-03T14:43:20.675Z</time>
      </trkpt>
      <trkpt lat="45.61019" lon="5.3093">
        <ele>350</ele>
        <time>2021-04-03T14:43:21.675Z</time>
      </trkpt>
      <trkpt lat="45.61024" lon="5.30941">
        <ele>349</ele>
        <time>2021-04-03T14:43:22.675Z</time>
      </trkpt>
      <trkpt lat="45.6103" lon="5.30953">
        <ele>349</ele>
        <time>2021-04-03T14:43:23.675Z</time>
      </trkpt>
      <trkpt lat="45.61036" lon="5.30965">
        <ele>348</ele>
        <time>2021-04-03T14:43:24.675Z</time>
      </trkpt>
      <trkpt lat="45.61041" lon="5.30977">
        <ele>347</ele>
        <time>2021-04-03T14:43:25.675Z</time>
      </trkpt>
      <trkpt lat="45.61047" lon="5.30989">
        <ele>347</ele>
        <time>2021-04-03T14:43:26.675Z</time>
      </trkpt>
      <trkpt lat="45.61053" lon="5.31001">
        <ele>347</ele>
        <time>2021-04-03T14:43:27.675Z</time>
      </trkpt>
      <trkpt lat="45.61059" lon="5.31014">
        <ele>346</ele>
        <time>2021-04-03T14:43:28.674Z</time>
      </trkpt>
      <trkpt lat="45.61065" lon="5.31027">
        <ele>346</ele>
        <time>2021-04-03T14:43:29.675Z</time>
      </trkpt>
      <trkpt lat="45.61072" lon="5.31041">
        <ele>346</ele>
        <time>2021-04-03T14:43:30.675Z</time>
      </trkpt>
      <trkpt lat="45.61078" lon="5.31055">
        <ele>345</ele>
        <time>2021-04-03T14:43:31.675Z</time>
      </trkpt>
      <trkpt lat="45.61084" lon="5.31069">
        <ele>345</ele>
        <time>2021-04-03T14:43:32.675Z</time>
      </trkpt>
      <trkpt lat="45.6109" lon="5.31083">
        <ele>344</ele>
        <time>2021-04-03T14:43:33.675Z</time>
      </trkpt>
      <trkpt lat="45.61096" lon="5.31098">
        <ele>344</ele>
        <time>2021-04-03T14:43:34.675Z</time>
      </trkpt>
      <trkpt lat="45.61102" lon="5.31113">
        <ele>343</ele>
        <time>2021-04-03T14:43:35.675Z</time>
      </trkpt>
      <trkpt lat="45.61108" lon="5.31128">
        <ele>342</ele>
        <time>2021-04-03T14:43:36.675Z</time>
      </trkpt>
      <trkpt lat="45.61113" lon="5.31139">
        <ele>341</ele>
        <time>2021-04-03T14:43:37.675Z</time>
      </trkpt>
      <trkpt lat="45.6112" lon="5.31157">
        <ele>340</ele>
        <time>2021-04-03T14:43:38.675Z</time>
      </trkpt>
      <trkpt lat="45.61127" lon="5.31171">
        <ele>340</ele>
        <time>2021-04-03T14:43:39.675Z</time>
      </trkpt>
      <trkpt lat="45.61133" lon="5.31184">
        <ele>339</ele>
        <time>2021-04-03T14:43:40.674Z</time>
      </trkpt>
      <trkpt lat="45.61139" lon="5.31197">
        <ele>338</ele>
        <time>2021-04-03T14:43:41.675Z</time>
      </trkpt>
      <trkpt lat="45.61145" lon="5.3121">
        <ele>338</ele>
        <time>2021-04-03T14:43:42.675Z</time>
      </trkpt>
      <trkpt lat="45.61151" lon="5.31221">
        <ele>337</ele>
        <time>2021-04-03T14:43:43.675Z</time>
      </trkpt>
      <trkpt lat="45.61157" lon="5.31232">
        <ele>336</ele>
        <time>2021-04-03T14:43:44.674Z</time>
      </trkpt>
      <trkpt lat="45.61161" lon="5.3124">
        <ele>336</ele>
        <time>2021-04-03T14:43:45.675Z</time>
      </trkpt>
      <trkpt lat="45.61166" lon="5.31246">
        <ele>335</ele>
        <time>2021-04-03T14:43:46.675Z</time>
      </trkpt>
      <trkpt lat="45.6117" lon="5.31248">
        <ele>334</ele>
        <time>2021-04-03T14:43:47.675Z</time>
      </trkpt>
      <trkpt lat="45.61173" lon="5.31247">
        <ele>333</ele>
        <time>2021-04-03T14:43:48.675Z</time>
      </trkpt>
      <trkpt lat="45.61176" lon="5.31243">
        <ele>332</ele>
        <time>2021-04-03T14:43:49.675Z</time>
      </trkpt>
      <trkpt lat="45.61179" lon="5.31237">
        <ele>331</ele>
        <time>2021-04-03T14:43:50.675Z</time>
      </trkpt>
      <trkpt lat="45.6118" lon="5.31228">
        <ele>330</ele>
        <time>2021-04-03T14:43:51.675Z</time>
      </trkpt>
      <trkpt lat="45.61181" lon="5.31218">
        <ele>329</ele>
        <time>2021-04-03T14:43:52.675Z</time>
      </trkpt>
      <trkpt lat="45.61182" lon="5.31206">
        <ele>329</ele>
        <time>2021-04-03T14:43:53.675Z</time>
      </trkpt>
      <trkpt lat="45.61182" lon="5.31193">
        <ele>328</ele>
        <time>2021-04-03T14:43:54.675Z</time>
      </trkpt>
      <trkpt lat="45.61182" lon="5.31179">
        <ele>328</ele>
        <time>2021-04-03T14:43:55.675Z</time>
      </trkpt>
      <trkpt lat="45.61181" lon="5.31164">
        <ele>327</ele>
        <time>2021-04-03T14:43:56.674Z</time>
      </trkpt>
      <trkpt lat="45.6118" lon="5.3115">
        <ele>327</ele>
        <time>2021-04-03T14:43:57.675Z</time>
      </trkpt>
      <trkpt lat="45.61179" lon="5.31134">
        <ele>327</ele>
        <time>2021-04-03T14:43:58.674Z</time>
      </trkpt>
      <trkpt lat="45.61179" lon="5.31118">
        <ele>326</ele>
        <time>2021-04-03T14:43:59.674Z</time>
      </trkpt>
      <trkpt lat="45.61178" lon="5.31102">
        <ele>326</ele>
        <time>2021-04-03T14:44:00.675Z</time>
      </trkpt>
      <trkpt lat="45.61177" lon="5.31088">
        <ele>326</ele>
        <time>2021-04-03T14:44:01.675Z</time>
      </trkpt>
      <trkpt lat="45.61177" lon="5.31073">
        <ele>325</ele>
        <time>2021-04-03T14:44:02.675Z</time>
      </trkpt>
      <trkpt lat="45.61177" lon="5.31059">
        <ele>325</ele>
        <time>2021-04-03T14:44:03.675Z</time>
      </trkpt>
      <trkpt lat="45.61177" lon="5.31044">
        <ele>324</ele>
        <time>2021-04-03T14:44:04.674Z</time>
      </trkpt>
      <trkpt lat="45.61177" lon="5.31029">
        <ele>324</ele>
        <time>2021-04-03T14:44:05.675Z</time>
      </trkpt>
      <trkpt lat="45.61177" lon="5.31015">
        <ele>323</ele>
        <time>2021-04-03T14:44:06.675Z</time>
      </trkpt>
      <trkpt lat="45.61177" lon="5.31">
        <ele>322</ele>
        <time>2021-04-03T14:44:07.675Z</time>
      </trkpt>
      <trkpt lat="45.61175" lon="5.30985">
        <ele>322</ele>
        <time>2021-04-03T14:44:08.674Z</time>
      </trkpt>
      <trkpt lat="45.61174" lon="5.3097">
        <ele>321</ele>
        <time>2021-04-03T14:44:09.675Z</time>
      </trkpt>
      <trkpt lat="45.61172" lon="5.30956">
        <ele>321</ele>
        <time>2021-04-03T14:44:10.675Z</time>
      </trkpt>
      <trkpt lat="45.61169" lon="5.30943">
        <ele>321</ele>
        <time>2021-04-03T14:44:11.674Z</time>
      </trkpt>
      <trkpt lat="45.61166" lon="5.30932">
        <ele>321</ele>
        <time>2021-04-03T14:44:12.675Z</time>
      </trkpt>
      <trkpt lat="45.61163" lon="5.30916">
        <ele>320</ele>
        <time>2021-04-03T14:44:13.674Z</time>
      </trkpt>
      <trkpt lat="45.61161" lon="5.30904">
        <ele>320</ele>
        <time>2021-04-03T14:44:14.674Z</time>
      </trkpt>
      <trkpt lat="45.6116" lon="5.3089">
        <ele>320</ele>
        <time>2021-04-03T14:44:15.674Z</time>
      </trkpt>
      <trkpt lat="45.6116" lon="5.30876">
        <ele>319</ele>
        <time>2021-04-03T14:44:16.675Z</time>
      </trkpt>
      <trkpt lat="45.61161" lon="5.30862">
        <ele>319</ele>
        <time>2021-04-03T14:44:17.675Z</time>
      </trkpt>
      <trkpt lat="45.61162" lon="5.30847">
        <ele>319</ele>
        <time>2021-04-03T14:44:18.674Z</time>
      </trkpt>
      <trkpt lat="45.61163" lon="5.30833">
        <ele>319</ele>
        <time>2021-04-03T14:44:19.674Z</time>
      </trkpt>
      <trkpt lat="45.61164" lon="5.30819">
        <ele>319</ele>
        <time>2021-04-03T14:44:20.675Z</time>
      </trkpt>
      <trkpt lat="45.61166" lon="5.30806">
        <ele>318</ele>
        <time>2021-04-03T14:44:21.675Z</time>
      </trkpt>
      <trkpt lat="45.61167" lon="5.30792">
        <ele>318</ele>
        <time>2021-04-03T14:44:22.674Z</time>
      </trkpt>
      <trkpt lat="45.61169" lon="5.30779">
        <ele>318</ele>
        <time>2021-04-03T14:44:23.675Z</time>
      </trkpt>
      <trkpt lat="45.6117" lon="5.30765">
        <ele>318</ele>
        <time>2021-04-03T14:44:24.674Z</time>
      </trkpt>
      <trkpt lat="45.61172" lon="5.30752">
        <ele>318</ele>
        <time>2021-04-03T14:44:25.675Z</time>
      </trkpt>
      <trkpt lat="45.61173" lon="5.30738">
        <ele>318</ele>
        <time>2021-04-03T14:44:26.675Z</time>
      </trkpt>
      <trkpt lat="45.61174" lon="5.30724">
        <ele>318</ele>
        <time>2021-04-03T14:44:27.675Z</time>
      </trkpt>
      <trkpt lat="45.61176" lon="5.30711">
        <ele>317</ele>
        <time>2021-04-03T14:44:28.674Z</time>
      </trkpt>
      <trkpt lat="45.61177" lon="5.30697">
        <ele>317</ele>
        <time>2021-04-03T14:44:29.675Z</time>
      </trkpt>
      <trkpt lat="45.61178" lon="5.30683">
        <ele>317</ele>
        <time>2021-04-03T14:44:30.674Z</time>
      </trkpt>
      <trkpt lat="45.61179" lon="5.30669">
        <ele>316</ele>
        <time>2021-04-03T14:44:31.675Z</time>
      </trkpt>
      <trkpt lat="45.6118" lon="5.30656">
        <ele>316</ele>
        <time>2021-04-03T14:44:32.674Z</time>
      </trkpt>
      <trkpt lat="45.6118" lon="5.30642">
        <ele>315</ele>
        <time>2021-04-03T14:44:33.675Z</time>
      </trkpt>
      <trkpt lat="45.6118" lon="5.30629">
        <ele>315</ele>
        <time>2021-04-03T14:44:34.674Z</time>
      </trkpt>
      <trkpt lat="45.61179" lon="5.30616">
        <ele>315</ele>
        <time>2021-04-03T14:44:35.674Z</time>
      </trkpt>
      <trkpt lat="45.61178" lon="5.30602">
        <ele>315</ele>
        <time>2021-04-03T14:44:36.675Z</time>
      </trkpt>
      <trkpt lat="45.61177" lon="5.30589">
        <ele>315</ele>
        <time>2021-04-03T14:44:37.674Z</time>
      </trkpt>
      <trkpt lat="45.61176" lon="5.30575">
        <ele>315</ele>
        <time>2021-04-03T14:44:38.674Z</time>
      </trkpt>
      <trkpt lat="45.61176" lon="5.30562">
        <ele>315</ele>
        <time>2021-04-03T14:44:39.675Z</time>
      </trkpt>
      <trkpt lat="45.61177" lon="5.30548">
        <ele>315</ele>
        <time>2021-04-03T14:44:40.674Z</time>
      </trkpt>
      <trkpt lat="45.61179" lon="5.30537">
        <ele>314</ele>
        <time>2021-04-03T14:44:41.675Z</time>
      </trkpt>
      <trkpt lat="45.61181" lon="5.30523">
        <ele>314</ele>
        <time>2021-04-03T14:44:42.675Z</time>
      </trkpt>
      <trkpt lat="45.61184" lon="5.30507">
        <ele>313</ele>
        <time>2021-04-03T14:44:43.674Z</time>
      </trkpt>
      <trkpt lat="45.61186" lon="5.30494">
        <ele>313</ele>
        <time>2021-04-03T14:44:44.675Z</time>
      </trkpt>
      <trkpt lat="45.61189" lon="5.30481">
        <ele>312</ele>
        <time>2021-04-03T14:44:45.674Z</time>
      </trkpt>
      <trkpt lat="45.61191" lon="5.30467">
        <ele>311</ele>
        <time>2021-04-03T14:44:46.675Z</time>
      </trkpt>
      <trkpt lat="45.61194" lon="5.30454">
        <ele>310</ele>
        <time>2021-04-03T14:44:47.674Z</time>
      </trkpt>
      <trkpt lat="45.61196" lon="5.30442">
        <ele>310</ele>
        <time>2021-04-03T14:44:48.675Z</time>
      </trkpt>
      <trkpt lat="45.61198" lon="5.30429">
        <ele>309</ele>
        <time>2021-04-03T14:44:49.674Z</time>
      </trkpt>
      <trkpt lat="45.61201" lon="5.30417">
        <ele>309</ele>
        <time>2021-04-03T14:44:50.675Z</time>
      </trkpt>
      <trkpt lat="45.61203" lon="5.30405">
        <ele>309</ele>
        <time>2021-04-03T14:44:51.674Z</time>
      </trkpt>
      <trkpt lat="45.61204" lon="5.30392">
        <ele>309</ele>
        <time>2021-04-03T14:44:52.675Z</time>
      </trkpt>
      <trkpt lat="45.61207" lon="5.30379">
        <ele>309</ele>
        <time>2021-04-03T14:44:53.674Z</time>
      </trkpt>
      <trkpt lat="45.61209" lon="5.30366">
        <ele>309</ele>
        <time>2021-04-03T14:44:54.675Z</time>
      </trkpt>
      <trkpt lat="45.61212" lon="5.30354">
        <ele>309</ele>
        <time>2021-04-03T14:44:55.675Z</time>
      </trkpt>
      <trkpt lat="45.61215" lon="5.30341">
        <ele>308</ele>
        <time>2021-04-03T14:44:56.675Z</time>
      </trkpt>
      <trkpt lat="45.61219" lon="5.30331">
        <ele>308</ele>
        <time>2021-04-03T14:44:57.675Z</time>
      </trkpt>
      <trkpt lat="45.61224" lon="5.30316">
        <ele>309</ele>
        <time>2021-04-03T14:44:58.675Z</time>
      </trkpt>
      <trkpt lat="45.61228" lon="5.30303">
        <ele>309</ele>
        <time>2021-04-03T14:44:59.675Z</time>
      </trkpt>
      <trkpt lat="45.61233" lon="5.30291">
        <ele>309</ele>
        <time>2021-04-03T14:45:00.674Z</time>
      </trkpt>
      <trkpt lat="45.61237" lon="5.30281">
        <ele>309</ele>
        <time>2021-04-03T14:45:01.675Z</time>
      </trkpt>
      <trkpt lat="45.61241" lon="5.30269">
        <ele>308</ele>
        <time>2021-04-03T14:45:02.675Z</time>
      </trkpt>
      <trkpt lat="45.61246" lon="5.30255">
        <ele>308</ele>
        <time>2021-04-03T14:45:03.675Z</time>
      </trkpt>
      <trkpt lat="45.6125" lon="5.30244">
        <ele>308</ele>
        <time>2021-04-03T14:45:04.674Z</time>
      </trkpt>
      <trkpt lat="45.61254" lon="5.30232">
        <ele>308</ele>
        <time>2021-04-03T14:45:05.674Z</time>
      </trkpt>
      <trkpt lat="45.61258" lon="5.3022">
        <ele>308</ele>
        <time>2021-04-03T14:45:06.675Z</time>
      </trkpt>
      <trkpt lat="45.61262" lon="5.30211">
        <ele>308</ele>
        <time>2021-04-03T14:45:07.675Z</time>
      </trkpt>
      <trkpt lat="45.61267" lon="5.30198">
        <ele>307</ele>
        <time>2021-04-03T14:45:08.674Z</time>
      </trkpt>
      <trkpt lat="45.61271" lon="5.30185">
        <ele>307</ele>
        <time>2021-04-03T14:45:09.674Z</time>
      </trkpt>
      <trkpt lat="45.61275" lon="5.30173">
        <ele>307</ele>
        <time>2021-04-03T14:45:10.675Z</time>
      </trkpt>
      <trkpt lat="45.61278" lon="5.3016">
        <ele>306</ele>
        <time>2021-04-03T14:45:11.675Z</time>
      </trkpt>
      <trkpt lat="45.6128" lon="5.30147">
        <ele>306</ele>
        <time>2021-04-03T14:45:12.674Z</time>
      </trkpt>
      <trkpt lat="45.61283" lon="5.30133">
        <ele>305</ele>
        <time>2021-04-03T14:45:13.674Z</time>
      </trkpt>
      <trkpt lat="45.61285" lon="5.30118">
        <ele>304</ele>
        <time>2021-04-03T14:45:14.675Z</time>
      </trkpt>
      <trkpt lat="45.61287" lon="5.30102">
        <ele>303</ele>
        <time>2021-04-03T14:45:15.674Z</time>
      </trkpt>
      <trkpt lat="45.61288" lon="5.30086">
        <ele>302</ele>
        <time>2021-04-03T14:45:16.675Z</time>
      </trkpt>
      <trkpt lat="45.6129" lon="5.30071">
        <ele>301</ele>
        <time>2021-04-03T14:45:17.675Z</time>
      </trkpt>
      <trkpt lat="45.61293" lon="5.30055">
        <ele>301</ele>
        <time>2021-04-03T14:45:18.674Z</time>
      </trkpt>
      <trkpt lat="45.61296" lon="5.3004">
        <ele>301</ele>
        <time>2021-04-03T14:45:19.674Z</time>
      </trkpt>
      <trkpt lat="45.61299" lon="5.30024">
        <ele>300</ele>
        <time>2021-04-03T14:45:20.674Z</time>
      </trkpt>
      <trkpt lat="45.61303" lon="5.30009">
        <ele>299</ele>
        <time>2021-04-03T14:45:21.674Z</time>
      </trkpt>
      <trkpt lat="45.61308" lon="5.29994">
        <ele>299</ele>
        <time>2021-04-03T14:45:22.675Z</time>
      </trkpt>
      <trkpt lat="45.61313" lon="5.2998">
        <ele>298</ele>
        <time>2021-04-03T14:45:23.674Z</time>
      </trkpt>
      <trkpt lat="45.61319" lon="5.29965">
        <ele>298</ele>
        <time>2021-04-03T14:45:24.674Z</time>
      </trkpt>
      <trkpt lat="45.61325" lon="5.29951">
        <ele>298</ele>
        <time>2021-04-03T14:45:25.674Z</time>
      </trkpt>
      <trkpt lat="45.61331" lon="5.29937">
        <ele>297</ele>
        <time>2021-04-03T14:45:26.675Z</time>
      </trkpt>
      <trkpt lat="45.61337" lon="5.29924">
        <ele>297</ele>
        <time>2021-04-03T14:45:27.675Z</time>
      </trkpt>
      <trkpt lat="45.61343" lon="5.2991">
        <ele>297</ele>
        <time>2021-04-03T14:45:28.674Z</time>
      </trkpt>
      <trkpt lat="45.61349" lon="5.29897">
        <ele>298</ele>
        <time>2021-04-03T14:45:29.674Z</time>
      </trkpt>
      <trkpt lat="45.61355" lon="5.29884">
        <ele>298</ele>
        <time>2021-04-03T14:45:30.675Z</time>
      </trkpt>
      <trkpt lat="45.61362" lon="5.29871">
        <ele>298</ele>
        <time>2021-04-03T14:45:31.675Z</time>
      </trkpt>
      <trkpt lat="45.61369" lon="5.29859">
        <ele>298</ele>
        <time>2021-04-03T14:45:32.675Z</time>
      </trkpt>
      <trkpt lat="45.61376" lon="5.29845">
        <ele>297</ele>
        <time>2021-04-03T14:45:33.674Z</time>
      </trkpt>
      <trkpt lat="45.61381" lon="5.2983">
        <ele>297</ele>
        <time>2021-04-03T14:45:34.674Z</time>
      </trkpt>
      <trkpt lat="45.61384" lon="5.29814">
        <ele>297</ele>
        <time>2021-04-03T14:45:35.675Z</time>
      </trkpt>
      <trkpt lat="45.61386" lon="5.29799">
        <ele>297</ele>
        <time>2021-04-03T14:45:36.675Z</time>
      </trkpt>
      <trkpt lat="45.61387" lon="5.29784">
        <ele>297</ele>
        <time>2021-04-03T14:45:37.674Z</time>
      </trkpt>
      <trkpt lat="45.61387" lon="5.29769">
        <ele>296</ele>
        <time>2021-04-03T14:45:38.674Z</time>
      </trkpt>
      <trkpt lat="45.61388" lon="5.29755">
        <ele>296</ele>
        <time>2021-04-03T14:45:39.674Z</time>
      </trkpt>
      <trkpt lat="45.6139" lon="5.2974">
        <ele>295</ele>
        <time>2021-04-03T14:45:40.674Z</time>
      </trkpt>
      <trkpt lat="45.61392" lon="5.29726">
        <ele>295</ele>
        <time>2021-04-03T14:45:41.675Z</time>
      </trkpt>
      <trkpt lat="45.61393" lon="5.29712">
        <ele>294</ele>
        <time>2021-04-03T14:45:42.674Z</time>
      </trkpt>
      <trkpt lat="45.61395" lon="5.29698">
        <ele>294</ele>
        <time>2021-04-03T14:45:43.674Z</time>
      </trkpt>
      <trkpt lat="45.61396" lon="5.29684">
        <ele>293</ele>
        <time>2021-04-03T14:45:44.674Z</time>
      </trkpt>
      <trkpt lat="45.61397" lon="5.29671">
        <ele>293</ele>
        <time>2021-04-03T14:45:45.674Z</time>
      </trkpt>
      <trkpt lat="45.61398" lon="5.29658">
        <ele>292</ele>
        <time>2021-04-03T14:45:46.674Z</time>
      </trkpt>
      <trkpt lat="45.61399" lon="5.29644">
        <ele>292</ele>
        <time>2021-04-03T14:45:47.674Z</time>
      </trkpt>
      <trkpt lat="45.614" lon="5.29631">
        <ele>291</ele>
        <time>2021-04-03T14:45:48.675Z</time>
      </trkpt>
      <trkpt lat="45.61401" lon="5.29619">
        <ele>291</ele>
        <time>2021-04-03T14:45:49.674Z</time>
      </trkpt>
      <trkpt lat="45.61402" lon="5.29607">
        <ele>291</ele>
        <time>2021-04-03T14:45:50.674Z</time>
      </trkpt>
      <trkpt lat="45.61403" lon="5.29596">
        <ele>291</ele>
        <time>2021-04-03T14:45:51.674Z</time>
      </trkpt>
      <trkpt lat="45.61404" lon="5.29584">
        <ele>292</ele>
        <time>2021-04-03T14:45:52.675Z</time>
      </trkpt>
      <trkpt lat="45.61405" lon="5.29574">
        <ele>292</ele>
        <time>2021-04-03T14:46:17.733Z</time>
      </trkpt>
      <trkpt lat="45.61406" lon="5.29563">
        <ele>292</ele>
        <time>2021-04-03T14:46:18.733Z</time>
      </trkpt>
      <trkpt lat="45.61408" lon="5.29553">
        <ele>292</ele>
        <time>2021-04-03T14:46:19.733Z</time>
      </trkpt>
      <trkpt lat="45.61409" lon="5.29543">
        <ele>292</ele>
        <time>2021-04-03T14:46:20.733Z</time>
      </trkpt>
      <trkpt lat="45.6141" lon="5.29534">
        <ele>293</ele>
        <time>2021-04-03T14:46:21.733Z</time>
      </trkpt>
      <trkpt lat="45.61412" lon="5.29525">
        <ele>293</ele>
        <time>2021-04-03T14:46:22.733Z</time>
      </trkpt>
      <trkpt lat="45.61413" lon="5.29516">
        <ele>293</ele>
        <time>2021-04-03T14:46:23.733Z</time>
      </trkpt>
      <trkpt lat="45.61414" lon="5.29507">
        <ele>293</ele>
        <time>2021-04-03T14:46:24.733Z</time>
      </trkpt>
      <trkpt lat="45.61415" lon="5.29498">
        <ele>293</ele>
        <time>2021-04-03T14:46:25.732Z</time>
      </trkpt>
      <trkpt lat="45.61416" lon="5.29491">
        <ele>293</ele>
        <time>2021-04-03T14:46:26.733Z</time>
      </trkpt>
      <trkpt lat="45.61417" lon="5.29483">
        <ele>293</ele>
        <time>2021-04-03T14:46:27.733Z</time>
      </trkpt>
      <trkpt lat="45.61418" lon="5.29476">
        <ele>293</ele>
        <time>2021-04-03T14:46:28.733Z</time>
      </trkpt>
      <trkpt lat="45.61418" lon="5.2947">
        <ele>293</ele>
        <time>2021-04-03T14:46:29.733Z</time>
      </trkpt>
      <trkpt lat="45.61417" lon="5.29464">
        <ele>293</ele>
        <time>2021-04-03T14:46:30.733Z</time>
      </trkpt>
      <trkpt lat="45.61415" lon="5.2946">
        <ele>293</ele>
        <time>2021-04-03T14:46:31.732Z</time>
      </trkpt>
      <trkpt lat="45.61412" lon="5.29456">
        <ele>292</ele>
        <time>2021-04-03T14:46:32.733Z</time>
      </trkpt>
      <trkpt lat="45.61407" lon="5.29453">
        <ele>291</ele>
        <time>2021-04-03T14:46:33.732Z</time>
      </trkpt>
      <trkpt lat="45.61402" lon="5.29451">
        <ele>291</ele>
        <time>2021-04-03T14:46:34.733Z</time>
      </trkpt>
      <trkpt lat="45.61396" lon="5.29449">
        <ele>290</ele>
        <time>2021-04-03T14:46:35.733Z</time>
      </trkpt>
      <trkpt lat="45.61387" lon="5.29448">
        <ele>290</ele>
        <time>2021-04-03T14:46:36.733Z</time>
      </trkpt>
      <trkpt lat="45.61379" lon="5.29447">
        <ele>289</ele>
        <time>2021-04-03T14:46:37.733Z</time>
      </trkpt>
      <trkpt lat="45.61371" lon="5.29446">
        <ele>289</ele>
        <time>2021-04-03T14:46:38.733Z</time>
      </trkpt>
      <trkpt lat="45.61364" lon="5.29445">
        <ele>288</ele>
        <time>2021-04-03T14:46:39.733Z</time>
      </trkpt>
      <trkpt lat="45.61353" lon="5.29445">
        <ele>288</ele>
        <time>2021-04-03T14:46:40.733Z</time>
      </trkpt>
      <trkpt lat="45.61345" lon="5.29444">
        <ele>288</ele>
        <time>2021-04-03T14:46:41.732Z</time>
      </trkpt>
      <trkpt lat="45.61336" lon="5.29444">
        <ele>288</ele>
        <time>2021-04-03T14:46:42.733Z</time>
      </trkpt>
      <trkpt lat="45.61327" lon="5.29443">
        <ele>287</ele>
        <time>2021-04-03T14:46:43.733Z</time>
      </trkpt>
      <trkpt lat="45.61319" lon="5.29442">
        <ele>287</ele>
        <time>2021-04-03T14:46:44.733Z</time>
      </trkpt>
      <trkpt lat="45.61311" lon="5.2944">
        <ele>287</ele>
        <time>2021-04-03T14:46:45.732Z</time>
      </trkpt>
      <trkpt lat="45.61305" lon="5.29436">
        <ele>287</ele>
        <time>2021-04-03T14:46:46.733Z</time>
      </trkpt>
      <trkpt lat="45.61299" lon="5.2943">
        <ele>286</ele>
        <time>2021-04-03T14:46:47.733Z</time>
      </trkpt>
      <trkpt lat="45.61296" lon="5.29423">
        <ele>286</ele>
        <time>2021-04-03T14:46:48.732Z</time>
      </trkpt>
      <trkpt lat="45.61294" lon="5.29414">
        <ele>286</ele>
        <time>2021-04-03T14:46:49.733Z</time>
      </trkpt>
      <trkpt lat="45.61294" lon="5.29405">
        <ele>286</ele>
        <time>2021-04-03T14:46:50.733Z</time>
      </trkpt>
      <trkpt lat="45.61294" lon="5.29394">
        <ele>286</ele>
        <time>2021-04-03T14:46:51.733Z</time>
      </trkpt>
      <trkpt lat="45.61294" lon="5.29383">
        <ele>286</ele>
        <time>2021-04-03T14:46:52.733Z</time>
      </trkpt>
      <trkpt lat="45.61295" lon="5.29372">
        <ele>286</ele>
        <time>2021-04-03T14:46:53.733Z</time>
      </trkpt>
      <trkpt lat="45.61296" lon="5.29362">
        <ele>286</ele>
        <time>2021-04-03T14:46:54.733Z</time>
      </trkpt>
      <trkpt lat="45.61297" lon="5.29351">
        <ele>287</ele>
        <time>2021-04-03T14:46:55.732Z</time>
      </trkpt>
      <trkpt lat="45.61298" lon="5.2934">
        <ele>287</ele>
        <time>2021-04-03T14:46:56.733Z</time>
      </trkpt>
      <trkpt lat="45.61299" lon="5.2933">
        <ele>287</ele>
        <time>2021-04-03T14:46:57.732Z</time>
      </trkpt>
      <trkpt lat="45.61301" lon="5.29317">
        <ele>287</ele>
        <time>2021-04-03T14:46:58.732Z</time>
      </trkpt>
      <trkpt lat="45.61302" lon="5.29307">
        <ele>287</ele>
        <time>2021-04-03T14:46:59.733Z</time>
      </trkpt>
      <trkpt lat="45.61304" lon="5.29296">
        <ele>287</ele>
        <time>2021-04-03T14:47:00.733Z</time>
      </trkpt>
      <trkpt lat="45.61306" lon="5.29284">
        <ele>286</ele>
        <time>2021-04-03T14:47:01.733Z</time>
      </trkpt>
      <trkpt lat="45.61308" lon="5.29269">
        <ele>285</ele>
        <time>2021-04-03T14:47:02.733Z</time>
      </trkpt>
      <trkpt lat="45.6131" lon="5.2926">
        <ele>285</ele>
        <time>2021-04-03T14:47:03.733Z</time>
      </trkpt>
      <trkpt lat="45.61312" lon="5.29248">
        <ele>284</ele>
        <time>2021-04-03T14:47:04.733Z</time>
      </trkpt>
      <trkpt lat="45.61314" lon="5.29236">
        <ele>284</ele>
        <time>2021-04-03T14:47:05.733Z</time>
      </trkpt>
      <trkpt lat="45.61317" lon="5.29224">
        <ele>283</ele>
        <time>2021-04-03T14:47:06.733Z</time>
      </trkpt>
      <trkpt lat="45.61319" lon="5.29212">
        <ele>283</ele>
        <time>2021-04-03T14:47:07.733Z</time>
      </trkpt>
      <trkpt lat="45.6132" lon="5.292">
        <ele>282</ele>
        <time>2021-04-03T14:47:08.733Z</time>
      </trkpt>
      <trkpt lat="45.61321" lon="5.29186">
        <ele>282</ele>
        <time>2021-04-03T14:47:09.733Z</time>
      </trkpt>
      <trkpt lat="45.61323" lon="5.29173">
        <ele>281</ele>
        <time>2021-04-03T14:47:10.733Z</time>
      </trkpt>
      <trkpt lat="45.61324" lon="5.29158">
        <ele>281</ele>
        <time>2021-04-03T14:47:11.733Z</time>
      </trkpt>
      <trkpt lat="45.61325" lon="5.29144">
        <ele>282</ele>
        <time>2021-04-03T14:47:12.733Z</time>
      </trkpt>
      <trkpt lat="45.61327" lon="5.29129">
        <ele>282</ele>
        <time>2021-04-03T14:47:13.733Z</time>
      </trkpt>
      <trkpt lat="45.61328" lon="5.29115">
        <ele>282</ele>
        <time>2021-04-03T14:47:14.733Z</time>
      </trkpt>
      <trkpt lat="45.61331" lon="5.29103">
        <ele>283</ele>
        <time>2021-04-03T14:47:15.733Z</time>
      </trkpt>
      <trkpt lat="45.61332" lon="5.29089">
        <ele>283</ele>
        <time>2021-04-03T14:47:16.733Z</time>
      </trkpt>
      <trkpt lat="45.61334" lon="5.29078">
        <ele>284</ele>
        <time>2021-04-03T14:47:17.733Z</time>
      </trkpt>
      <trkpt lat="45.61334" lon="5.29064">
        <ele>285</ele>
        <time>2021-04-03T14:47:18.733Z</time>
      </trkpt>
      <trkpt lat="45.61333" lon="5.29052">
        <ele>286</ele>
        <time>2021-04-03T14:47:19.733Z</time>
      </trkpt>
      <trkpt lat="45.61334" lon="5.2904">
        <ele>287</ele>
        <time>2021-04-03T14:47:20.733Z</time>
      </trkpt>
      <trkpt lat="45.61334" lon="5.29028">
        <ele>287</ele>
        <time>2021-04-03T14:47:21.733Z</time>
      </trkpt>
      <trkpt lat="45.61335" lon="5.29017">
        <ele>288</ele>
        <time>2021-04-03T14:47:22.732Z</time>
      </trkpt>
      <trkpt lat="45.61334" lon="5.29005">
        <ele>288</ele>
        <time>2021-04-03T14:47:23.733Z</time>
      </trkpt>
      <trkpt lat="45.61334" lon="5.28992">
        <ele>288</ele>
        <time>2021-04-03T14:47:24.733Z</time>
      </trkpt>
      <trkpt lat="45.61334" lon="5.28976">
        <ele>288</ele>
        <time>2021-04-03T14:47:25.733Z</time>
      </trkpt>
      <trkpt lat="45.61335" lon="5.28963">
        <ele>288</ele>
        <time>2021-04-03T14:47:26.733Z</time>
      </trkpt>
      <trkpt lat="45.61335" lon="5.28949">
        <ele>288</ele>
        <time>2021-04-03T14:47:27.733Z</time>
      </trkpt>
      <trkpt lat="45.61335" lon="5.28934">
        <ele>288</ele>
        <time>2021-04-03T14:47:28.733Z</time>
      </trkpt>
      <trkpt lat="45.61334" lon="5.28919">
        <ele>287</ele>
        <time>2021-04-03T14:47:29.732Z</time>
      </trkpt>
      <trkpt lat="45.61334" lon="5.28902">
        <ele>287</ele>
        <time>2021-04-03T14:47:30.733Z</time>
      </trkpt>
      <trkpt lat="45.61335" lon="5.28887">
        <ele>286</ele>
        <time>2021-04-03T14:47:31.732Z</time>
      </trkpt>
      <trkpt lat="45.61335" lon="5.28872">
        <ele>286</ele>
        <time>2021-04-03T14:47:32.733Z</time>
      </trkpt>
      <trkpt lat="45.61336" lon="5.28855">
        <ele>285</ele>
        <time>2021-04-03T14:47:33.733Z</time>
      </trkpt>
      <trkpt lat="45.61336" lon="5.28838">
        <ele>284</ele>
        <time>2021-04-03T14:47:34.732Z</time>
      </trkpt>
      <trkpt lat="45.61336" lon="5.28821">
        <ele>284</ele>
        <time>2021-04-03T14:47:35.733Z</time>
      </trkpt>
      <trkpt lat="45.61336" lon="5.28804">
        <ele>283</ele>
        <time>2021-04-03T14:47:36.733Z</time>
      </trkpt>
      <trkpt lat="45.61335" lon="5.28787">
        <ele>283</ele>
        <time>2021-04-03T14:47:37.732Z</time>
      </trkpt>
      <trkpt lat="45.61334" lon="5.2877">
        <ele>282</ele>
        <time>2021-04-03T14:47:38.732Z</time>
      </trkpt>
      <trkpt lat="45.61334" lon="5.28751">
        <ele>282</ele>
        <time>2021-04-03T14:47:39.732Z</time>
      </trkpt>
      <trkpt lat="45.61335" lon="5.28731">
        <ele>281</ele>
        <time>2021-04-03T14:47:40.733Z</time>
      </trkpt>
      <trkpt lat="45.61336" lon="5.28712">
        <ele>280</ele>
        <time>2021-04-03T14:47:41.733Z</time>
      </trkpt>
      <trkpt lat="45.61338" lon="5.28692">
        <ele>280</ele>
        <time>2021-04-03T14:47:42.732Z</time>
      </trkpt>
      <trkpt lat="45.61341" lon="5.28673">
        <ele>279</ele>
        <time>2021-04-03T14:47:43.733Z</time>
      </trkpt>
      <trkpt lat="45.61343" lon="5.28654">
        <ele>278</ele>
        <time>2021-04-03T14:47:44.733Z</time>
      </trkpt>
      <trkpt lat="45.61346" lon="5.28634">
        <ele>277</ele>
        <time>2021-04-03T14:47:45.733Z</time>
      </trkpt>
      <trkpt lat="45.61348" lon="5.28615">
        <ele>276</ele>
        <time>2021-04-03T14:47:46.733Z</time>
      </trkpt>
      <trkpt lat="45.6135" lon="5.28597">
        <ele>275</ele>
        <time>2021-04-03T14:47:47.732Z</time>
      </trkpt>
      <trkpt lat="45.61351" lon="5.28579">
        <ele>274</ele>
        <time>2021-04-03T14:47:48.733Z</time>
      </trkpt>
      <trkpt lat="45.61351" lon="5.2856">
        <ele>273</ele>
        <time>2021-04-03T14:47:49.732Z</time>
      </trkpt>
      <trkpt lat="45.61351" lon="5.28539">
        <ele>272</ele>
        <time>2021-04-03T14:47:50.732Z</time>
      </trkpt>
      <trkpt lat="45.6135" lon="5.28519">
        <ele>270</ele>
        <time>2021-04-03T14:47:51.733Z</time>
      </trkpt>
      <trkpt lat="45.61351" lon="5.28503">
        <ele>269</ele>
        <time>2021-04-03T14:47:52.733Z</time>
      </trkpt>
      <trkpt lat="45.61349" lon="5.28485">
        <ele>268</ele>
        <time>2021-04-03T14:47:53.733Z</time>
      </trkpt>
      <trkpt lat="45.61349" lon="5.2847">
        <ele>267</ele>
        <time>2021-04-03T14:47:54.733Z</time>
      </trkpt>
      <trkpt lat="45.61349" lon="5.28455">
        <ele>265</ele>
        <time>2021-04-03T14:47:55.733Z</time>
      </trkpt>
      <trkpt lat="45.61349" lon="5.28441">
        <ele>264</ele>
        <time>2021-04-03T14:47:56.732Z</time>
      </trkpt>
      <trkpt lat="45.6135" lon="5.28427">
        <ele>263</ele>
        <time>2021-04-03T14:47:57.733Z</time>
      </trkpt>
      <trkpt lat="45.61352" lon="5.28413">
        <ele>261</ele>
        <time>2021-04-03T14:47:58.732Z</time>
      </trkpt>
      <trkpt lat="45.61357" lon="5.284">
        <ele>260</ele>
        <time>2021-04-03T14:47:59.733Z</time>
      </trkpt>
      <trkpt lat="45.61362" lon="5.28388">
        <ele>259</ele>
        <time>2021-04-03T14:48:00.733Z</time>
      </trkpt>
      <trkpt lat="45.61368" lon="5.28376">
        <ele>258</ele>
        <time>2021-04-03T14:48:01.732Z</time>
      </trkpt>
      <trkpt lat="45.61372" lon="5.28364">
        <ele>257</ele>
        <time>2021-04-03T14:48:02.732Z</time>
      </trkpt>
      <trkpt lat="45.61375" lon="5.28351">
        <ele>256</ele>
        <time>2021-04-03T14:48:03.733Z</time>
      </trkpt>
      <trkpt lat="45.61376" lon="5.28339">
        <ele>255</ele>
        <time>2021-04-03T14:48:04.733Z</time>
      </trkpt>
      <trkpt lat="45.61376" lon="5.28327">
        <ele>254</ele>
        <time>2021-04-03T14:48:05.732Z</time>
      </trkpt>
      <trkpt lat="45.61375" lon="5.28314">
        <ele>254</ele>
        <time>2021-04-03T14:48:06.732Z</time>
      </trkpt>
      <trkpt lat="45.61374" lon="5.283">
        <ele>253</ele>
        <time>2021-04-03T14:48:07.732Z</time>
      </trkpt>
      <trkpt lat="45.61374" lon="5.28286">
        <ele>253</ele>
        <time>2021-04-03T14:48:08.733Z</time>
      </trkpt>
      <trkpt lat="45.61375" lon="5.28272">
        <ele>253</ele>
        <time>2021-04-03T14:48:09.733Z</time>
      </trkpt>
      <trkpt lat="45.61376" lon="5.28259">
        <ele>254</ele>
        <time>2021-04-03T14:48:10.733Z</time>
      </trkpt>
      <trkpt lat="45.61377" lon="5.28246">
        <ele>254</ele>
        <time>2021-04-03T14:48:11.733Z</time>
      </trkpt>
      <trkpt lat="45.61378" lon="5.28233">
        <ele>254</ele>
        <time>2021-04-03T14:48:12.732Z</time>
      </trkpt>
      <trkpt lat="45.61379" lon="5.28221">
        <ele>255</ele>
        <time>2021-04-03T14:48:13.733Z</time>
      </trkpt>
      <trkpt lat="45.61381" lon="5.28205">
        <ele>256</ele>
        <time>2021-04-03T14:48:14.732Z</time>
      </trkpt>
      <trkpt lat="45.61382" lon="5.28195">
        <ele>257</ele>
        <time>2021-04-03T14:48:15.733Z</time>
      </trkpt>
      <trkpt lat="45.61383" lon="5.2818">
        <ele>257</ele>
        <time>2021-04-03T14:48:16.733Z</time>
      </trkpt>
      <trkpt lat="45.61385" lon="5.28167">
        <ele>257</ele>
        <time>2021-04-03T14:48:17.733Z</time>
      </trkpt>
      <trkpt lat="45.61387" lon="5.28153">
        <ele>257</ele>
        <time>2021-04-03T14:48:18.733Z</time>
      </trkpt>
      <trkpt lat="45.61389" lon="5.28139">
        <ele>257</ele>
        <time>2021-04-03T14:48:19.733Z</time>
      </trkpt>
      <trkpt lat="45.61391" lon="5.28126">
        <ele>256</ele>
        <time>2021-04-03T14:48:20.733Z</time>
      </trkpt>
      <trkpt lat="45.61392" lon="5.28114">
        <ele>255</ele>
        <time>2021-04-03T14:48:21.732Z</time>
      </trkpt>
      <trkpt lat="45.61393" lon="5.28103">
        <ele>255</ele>
        <time>2021-04-03T14:48:22.733Z</time>
      </trkpt>
      <trkpt lat="45.61394" lon="5.28092">
        <ele>254</ele>
        <time>2021-04-03T14:48:23.733Z</time>
      </trkpt>
      <trkpt lat="45.61394" lon="5.28081">
        <ele>253</ele>
        <time>2021-04-03T14:48:24.733Z</time>
      </trkpt>
      <trkpt lat="45.61395" lon="5.28069">
        <ele>252</ele>
        <time>2021-04-03T14:48:25.732Z</time>
      </trkpt>
      <trkpt lat="45.61395" lon="5.28058">
        <ele>251</ele>
        <time>2021-04-03T14:48:26.733Z</time>
      </trkpt>
      <trkpt lat="45.61394" lon="5.28046">
        <ele>250</ele>
        <time>2021-04-03T14:48:27.733Z</time>
      </trkpt>
      <trkpt lat="45.61393" lon="5.28036">
        <ele>249</ele>
        <time>2021-04-03T14:48:28.733Z</time>
      </trkpt>
      <trkpt lat="45.61391" lon="5.28026">
        <ele>249</ele>
        <time>2021-04-03T14:48:29.733Z</time>
      </trkpt>
      <trkpt lat="45.6139" lon="5.28017">
        <ele>248</ele>
        <time>2021-04-03T14:48:30.733Z</time>
      </trkpt>
      <trkpt lat="45.61389" lon="5.28006">
        <ele>247</ele>
        <time>2021-04-03T14:48:31.732Z</time>
      </trkpt>
      <trkpt lat="45.6139" lon="5.27995">
        <ele>246</ele>
        <time>2021-04-03T14:48:32.732Z</time>
      </trkpt>
      <trkpt lat="45.61392" lon="5.27986">
        <ele>245</ele>
        <time>2021-04-03T14:48:33.733Z</time>
      </trkpt>
      <trkpt lat="45.61395" lon="5.27977">
        <ele>245</ele>
        <time>2021-04-03T14:48:34.732Z</time>
      </trkpt>
      <trkpt lat="45.61399" lon="5.27969">
        <ele>244</ele>
        <time>2021-04-03T14:48:35.733Z</time>
      </trkpt>
      <trkpt lat="45.61403" lon="5.27961">
        <ele>243</ele>
        <time>2021-04-03T14:48:36.732Z</time>
      </trkpt>
      <trkpt lat="45.61406" lon="5.27952">
        <ele>242</ele>
        <time>2021-04-03T14:48:37.732Z</time>
      </trkpt>
      <trkpt lat="45.6141" lon="5.27944">
        <ele>241</ele>
        <time>2021-04-03T14:48:38.732Z</time>
      </trkpt>
      <trkpt lat="45.61414" lon="5.27936">
        <ele>240</ele>
        <time>2021-04-03T14:48:39.732Z</time>
      </trkpt>
      <trkpt lat="45.61419" lon="5.27928">
        <ele>239</ele>
        <time>2021-04-03T14:48:40.733Z</time>
      </trkpt>
      <trkpt lat="45.61423" lon="5.27922">
        <ele>238</ele>
        <time>2021-04-03T14:48:41.732Z</time>
      </trkpt>
      <trkpt lat="45.61429" lon="5.27919">
        <ele>237</ele>
        <time>2021-04-03T14:48:42.732Z</time>
      </trkpt>
      <trkpt lat="45.61434" lon="5.27917">
        <ele>236</ele>
        <time>2021-04-03T14:48:43.732Z</time>
      </trkpt>
      <trkpt lat="45.61438" lon="5.27918">
        <ele>235</ele>
        <time>2021-04-03T14:48:44.733Z</time>
      </trkpt>
      <trkpt lat="45.61442" lon="5.27918">
        <ele>234</ele>
        <time>2021-04-03T14:48:45.733Z</time>
      </trkpt>
      <trkpt lat="45.61445" lon="5.27916">
        <ele>234</ele>
        <time>2021-04-03T14:48:46.733Z</time>
      </trkpt>
      <trkpt lat="45.61448" lon="5.27914">
        <ele>234</ele>
        <time>2021-04-03T14:48:47.733Z</time>
      </trkpt>
      <trkpt lat="45.61449" lon="5.27909">
        <ele>234</ele>
        <time>2021-04-03T14:48:48.733Z</time>
      </trkpt>
      <trkpt lat="45.6145" lon="5.27903">
        <ele>234</ele>
        <time>2021-04-03T14:48:49.733Z</time>
      </trkpt>
      <trkpt lat="45.61451" lon="5.27897">
        <ele>234</ele>
        <time>2021-04-03T14:48:50.732Z</time>
      </trkpt>
      <trkpt lat="45.61451" lon="5.2789">
        <ele>234</ele>
        <time>2021-04-03T14:48:51.732Z</time>
      </trkpt>
      <trkpt lat="45.61452" lon="5.27883">
        <ele>233</ele>
        <time>2021-04-03T14:48:52.733Z</time>
      </trkpt>
      <trkpt lat="45.61454" lon="5.27875">
        <ele>233</ele>
        <time>2021-04-03T14:48:53.733Z</time>
      </trkpt>
      <trkpt lat="45.61456" lon="5.27866">
        <ele>232</ele>
        <time>2021-04-03T14:48:54.732Z</time>
      </trkpt>
      <trkpt lat="45.61457" lon="5.27858">
        <ele>232</ele>
        <time>2021-04-03T14:48:55.732Z</time>
      </trkpt>
      <trkpt lat="45.61459" lon="5.27849">
        <ele>232</ele>
        <time>2021-04-03T14:48:56.733Z</time>
      </trkpt>
      <trkpt lat="45.61461" lon="5.27839">
        <ele>231</ele>
        <time>2021-04-03T14:48:57.733Z</time>
      </trkpt>
      <trkpt lat="45.61463" lon="5.27831">
        <ele>231</ele>
        <time>2021-04-03T14:48:58.733Z</time>
      </trkpt>
      <trkpt lat="45.61465" lon="5.27822">
        <ele>231</ele>
        <time>2021-04-03T14:48:59.733Z</time>
      </trkpt>
      <trkpt lat="45.61467" lon="5.27814">
        <ele>230</ele>
        <time>2021-04-03T14:49:00.732Z</time>
      </trkpt>
      <trkpt lat="45.61469" lon="5.27805">
        <ele>230</ele>
        <time>2021-04-03T14:49:01.732Z</time>
      </trkpt>
      <trkpt lat="45.6147" lon="5.27797">
        <ele>230</ele>
        <time>2021-04-03T14:49:02.733Z</time>
      </trkpt>
      <trkpt lat="45.61473" lon="5.27788">
        <ele>230</ele>
        <time>2021-04-03T14:49:03.733Z</time>
      </trkpt>
      <trkpt lat="45.61475" lon="5.27779">
        <ele>230</ele>
        <time>2021-04-03T14:49:04.733Z</time>
      </trkpt>
      <trkpt lat="45.61477" lon="5.27771">
        <ele>230</ele>
        <time>2021-04-03T14:49:05.733Z</time>
      </trkpt>
      <trkpt lat="45.6148" lon="5.27763">
        <ele>230</ele>
        <time>2021-04-03T14:49:06.733Z</time>
      </trkpt>
      <trkpt lat="45.61483" lon="5.27755">
        <ele>230</ele>
        <time>2021-04-03T14:49:07.733Z</time>
      </trkpt>
      <trkpt lat="45.61487" lon="5.27747">
        <ele>231</ele>
        <time>2021-04-03T14:49:08.733Z</time>
      </trkpt>
      <trkpt lat="45.6149" lon="5.27739">
        <ele>231</ele>
        <time>2021-04-03T14:49:09.732Z</time>
      </trkpt>
      <trkpt lat="45.61493" lon="5.2773">
        <ele>230</ele>
        <time>2021-04-03T14:49:10.733Z</time>
      </trkpt>
      <trkpt lat="45.61496" lon="5.27721">
        <ele>230</ele>
        <time>2021-04-03T14:49:11.733Z</time>
      </trkpt>
      <trkpt lat="45.61498" lon="5.27713">
        <ele>230</ele>
        <time>2021-04-03T14:49:12.732Z</time>
      </trkpt>
      <trkpt lat="45.615" lon="5.27704">
        <ele>230</ele>
        <time>2021-04-03T14:49:13.732Z</time>
      </trkpt>
      <trkpt lat="45.61502" lon="5.27695">
        <ele>229</ele>
        <time>2021-04-03T14:49:14.733Z</time>
      </trkpt>
      <trkpt lat="45.61505" lon="5.27686">
        <ele>228</ele>
        <time>2021-04-03T14:49:15.733Z</time>
      </trkpt>
      <trkpt lat="45.61508" lon="5.27677">
        <ele>228</ele>
        <time>2021-04-03T14:49:16.733Z</time>
      </trkpt>
      <trkpt lat="45.6151" lon="5.27668">
        <ele>228</ele>
        <time>2021-04-03T14:49:17.733Z</time>
      </trkpt>
      <trkpt lat="45.61513" lon="5.27659">
        <ele>227</ele>
        <time>2021-04-03T14:49:18.732Z</time>
      </trkpt>
      <trkpt lat="45.61515" lon="5.2765">
        <ele>227</ele>
        <time>2021-04-03T14:49:19.732Z</time>
      </trkpt>
      <trkpt lat="45.61517" lon="5.27641">
        <ele>227</ele>
        <time>2021-04-03T14:49:20.733Z</time>
      </trkpt>
      <trkpt lat="45.61519" lon="5.27632">
        <ele>227</ele>
        <time>2021-04-03T14:49:21.733Z</time>
      </trkpt>
      <trkpt lat="45.6152" lon="5.27623">
        <ele>227</ele>
        <time>2021-04-03T14:49:22.732Z</time>
      </trkpt>
      <trkpt lat="45.61522" lon="5.27614">
        <ele>227</ele>
        <time>2021-04-03T14:49:23.733Z</time>
      </trkpt>
      <trkpt lat="45.61523" lon="5.27605">
        <ele>227</ele>
        <time>2021-04-03T14:49:24.733Z</time>
      </trkpt>
      <trkpt lat="45.61525" lon="5.27597">
        <ele>227</ele>
        <time>2021-04-03T14:49:25.733Z</time>
      </trkpt>
      <trkpt lat="45.61526" lon="5.27592">
        <ele>227</ele>
        <time>2021-04-03T14:49:26.733Z</time>
      </trkpt>
      <trkpt lat="45.61527" lon="5.27588">
        <ele>226</ele>
        <time>2021-04-03T14:49:27.733Z</time>
      </trkpt>
      <trkpt lat="45.61527" lon="5.27585">
        <ele>226</ele>
        <time>2021-04-03T14:49:28.732Z</time>
      </trkpt>
      <trkpt lat="45.61527" lon="5.27583">
        <ele>226</ele>
        <time>2021-04-03T14:49:29.733Z</time>
      </trkpt>
      <trkpt lat="45.61528" lon="5.27581">
        <ele>226</ele>
        <time>2021-04-03T14:49:30.733Z</time>
      </trkpt>
      <trkpt lat="45.61529" lon="5.27579">
        <ele>225</ele>
        <time>2021-04-03T14:49:31.733Z</time>
      </trkpt>
      <trkpt lat="45.61529" lon="5.27577">
        <ele>225</ele>
        <time>2021-04-03T14:49:32.733Z</time>
      </trkpt>
      <trkpt lat="45.6153" lon="5.27574">
        <ele>225</ele>
        <time>2021-04-03T14:49:33.733Z</time>
      </trkpt>
      <trkpt lat="45.61531" lon="5.27571">
        <ele>225</ele>
        <time>2021-04-03T14:49:34.733Z</time>
      </trkpt>
      <trkpt lat="45.61531" lon="5.27567">
        <ele>225</ele>
        <time>2021-04-03T14:49:35.733Z</time>
      </trkpt>
      <trkpt lat="45.61531" lon="5.27563">
        <ele>225</ele>
        <time>2021-04-03T14:49:36.732Z</time>
      </trkpt>
      <trkpt lat="45.61531" lon="5.27558">
        <ele>224</ele>
        <time>2021-04-03T14:49:37.732Z</time>
      </trkpt>
      <trkpt lat="45.61531" lon="5.27553">
        <ele>224</ele>
        <time>2021-04-03T14:49:38.733Z</time>
      </trkpt>
      <trkpt lat="45.61532" lon="5.27548">
        <ele>224</ele>
        <time>2021-04-03T14:49:39.733Z</time>
      </trkpt>
      <trkpt lat="45.61532" lon="5.27542">
        <ele>224</ele>
        <time>2021-04-03T14:49:40.733Z</time>
      </trkpt>
      <trkpt lat="45.61533" lon="5.27535">
        <ele>225</ele>
        <time>2021-04-03T14:49:41.733Z</time>
      </trkpt>
      <trkpt lat="45.61534" lon="5.27528">
        <ele>225</ele>
        <time>2021-04-03T14:49:42.733Z</time>
      </trkpt>
      <trkpt lat="45.61535" lon="5.2752">
        <ele>225</ele>
        <time>2021-04-03T14:49:43.733Z</time>
      </trkpt>
      <trkpt lat="45.61536" lon="5.27512">
        <ele>225</ele>
        <time>2021-04-03T14:49:44.733Z</time>
      </trkpt>
      <trkpt lat="45.61538" lon="5.27504">
        <ele>224</ele>
        <time>2021-04-03T14:49:45.732Z</time>
      </trkpt>
      <trkpt lat="45.61539" lon="5.27497">
        <ele>224</ele>
        <time>2021-04-03T14:49:46.733Z</time>
      </trkpt>
      <trkpt lat="45.61539" lon="5.27491">
        <ele>224</ele>
        <time>2021-04-03T14:49:47.732Z</time>
      </trkpt>
      <trkpt lat="45.61539" lon="5.27485">
        <ele>224</ele>
        <time>2021-04-03T14:49:48.733Z</time>
      </trkpt>
      <trkpt lat="45.61537" lon="5.27481">
        <ele>224</ele>
        <time>2021-04-03T14:49:49.733Z</time>
      </trkpt>
      <trkpt lat="45.61535" lon="5.27478">
        <ele>224</ele>
        <time>2021-04-03T14:49:50.733Z</time>
      </trkpt>
      <trkpt lat="45.61532" lon="5.27476">
        <ele>224</ele>
        <time>2021-04-03T14:49:51.733Z</time>
      </trkpt>
      <trkpt lat="45.61529" lon="5.27475">
        <ele>225</ele>
        <time>2021-04-03T14:49:52.733Z</time>
      </trkpt>
      <trkpt lat="45.61525" lon="5.27475">
        <ele>226</ele>
        <time>2021-04-03T14:49:53.733Z</time>
      </trkpt>
      <trkpt lat="45.61522" lon="5.27473">
        <ele>226</ele>
        <time>2021-04-03T14:49:54.733Z</time>
      </trkpt>
      <trkpt lat="45.61518" lon="5.27472">
        <ele>227</ele>
        <time>2021-04-03T14:49:55.733Z</time>
      </trkpt>
      <trkpt lat="45.61514" lon="5.2747">
        <ele>227</ele>
        <time>2021-04-03T14:49:56.733Z</time>
      </trkpt>
      <trkpt lat="45.6151" lon="5.27469">
        <ele>226</ele>
        <time>2021-04-03T14:49:57.732Z</time>
      </trkpt>
      <trkpt lat="45.61507" lon="5.27468">
        <ele>226</ele>
        <time>2021-04-03T14:49:58.733Z</time>
      </trkpt>
      <trkpt lat="45.61503" lon="5.27466">
        <ele>226</ele>
        <time>2021-04-03T14:49:59.733Z</time>
      </trkpt>
      <trkpt lat="45.61501" lon="5.27465">
        <ele>226</ele>
        <time>2021-04-03T14:50:00.733Z</time>
      </trkpt>
      <trkpt lat="45.61499" lon="5.27465">
        <ele>226</ele>
        <time>2021-04-03T14:50:01.733Z</time>
      </trkpt>
      <trkpt lat="45.61498" lon="5.27466">
        <ele>226</ele>
        <time>2021-04-03T14:50:02.732Z</time>
      </trkpt>
      <trkpt lat="45.61497" lon="5.27467">
        <ele>226</ele>
        <time>2021-04-03T14:50:03.732Z</time>
      </trkpt>
    </trkseg>
  </trk>
</gpx>